<?xml version='1.0' encoding='UTF-8'?><gpx version="1.1" creator="JPX - https://github.com/jenetics/jpx" xmlns="http://www.topografix.com/GPX/1/1"><trk><trkseg><trkpt lat="43.43829435567037" lon="11.85134644171381"><ele>288.00000000000006</ele><time>2026-04-04T07:37:11.999Z</time></trkpt><trkpt lat="43.438244033135206" lon="11.851288526521822"><ele>288.0</ele><time>2026-04-04T07:37:17.999Z</time></trkpt><trkpt lat="43.43826281806899" lon="11.851195130647696"><ele>288.0</ele><time>2026-04-04T07:37:26.999Z</time></trkpt><trkpt lat="43.43822700296245" lon="11.85111723293602"><ele>288.0</ele><time>2026-04-04T07:37:59.999Z</time></trkpt><trkpt lat="43.438168923389455" lon="11.851066181276984"><ele>288.0</ele><time>2026-04-04T07:38:05.999Z</time></trkpt><trkpt lat="43.438114412939676" lon="11.851009079897821"><ele>288.00000000000006</ele><time>2026-04-04T07:38:12.999Z</time></trkpt><trkpt lat="43.43803086059963" lon="11.851078930432722"><ele>288.0</ele><time>2026-04-04T07:43:29.999Z</time></trkpt><trkpt lat="43.43794770792788" lon="11.851074254910406"><ele>287.0</ele><time>2026-04-04T07:43:32.999Z</time></trkpt><trkpt lat="43.437868115833496" lon="11.851082251615741"><ele>286.0</ele><time>2026-04-04T07:43:34.999Z</time></trkpt><trkpt lat="43.437793369226526" lon="11.851118599726039"><ele>285.0</ele><time>2026-04-04T07:43:40.999Z</time></trkpt><trkpt lat="43.43782341074193" lon="11.85104145462849"><ele>284.0</ele><time>2026-04-04T07:44:18.999Z</time></trkpt><trkpt lat="43.43775708641524" lon="11.851075228920664"><ele>283.0</ele><time>2026-04-04T07:44:23.998Z</time></trkpt><trkpt lat="43.43768250312112" lon="11.85115404084587"><ele>282.0</ele><time>2026-04-04T07:44:40Z</time></trkpt><trkpt lat="43.43761442080261" lon="11.851215234206819"><ele>282.0</ele><time>2026-04-04T07:44:42Z</time></trkpt><trkpt lat="43.437560784465084" lon="11.851261907624195"><ele>282.0</ele><time>2026-04-04T07:44:44Z</time></trkpt><trkpt lat="43.437485893007114" lon="11.851316887177987"><ele>282.0</ele><time>2026-04-04T07:44:47Z</time></trkpt><trkpt lat="43.437432284115225" lon="11.851371024181324"><ele>282.0</ele><time>2026-04-04T07:44:50Z</time></trkpt><trkpt lat="43.43737400921794" lon="11.851324304368527"><ele>282.0</ele><time>2026-04-04T07:44:53Z</time></trkpt><trkpt lat="43.43729832062553" lon="11.851340013641334"><ele>282.0</ele><time>2026-04-04T07:44:56Z</time></trkpt><trkpt lat="43.4372369906919" lon="11.851387189066317"><ele>282.0</ele><time>2026-04-04T07:45:15Z</time></trkpt><trkpt lat="43.43718418905048" lon="11.851326125898959"><ele>282.0</ele><time>2026-04-04T07:45:23Z</time></trkpt><trkpt lat="43.43711956431326" lon="11.851363904995756"><ele>282.0</ele><time>2026-04-04T07:45:35.999Z</time></trkpt><trkpt lat="43.4371021136087" lon="11.851450846573877"><ele>282.0</ele><time>2026-04-04T07:45:38.999Z</time></trkpt><trkpt lat="43.43719130862242" lon="11.851502287331806"><ele>282.0</ele><time>2026-04-04T07:45:41.999Z</time></trkpt><trkpt lat="43.43726181182449" lon="11.851542687662814"><ele>282.0</ele><time>2026-04-04T07:45:43.999Z</time></trkpt><trkpt lat="43.4373566268429" lon="11.851601403520108"><ele>282.0</ele><time>2026-04-04T07:45:45.999Z</time></trkpt><trkpt lat="43.43744940875752" lon="11.851662457299929"><ele>282.0</ele><time>2026-04-04T07:45:47.999Z</time></trkpt><trkpt lat="43.43754965812686" lon="11.851723795106299"><ele>282.0</ele><time>2026-04-04T07:45:49.999Z</time></trkpt><trkpt lat="43.43766073845092" lon="11.851798318090246"><ele>282.0</ele><time>2026-04-04T07:45:51.999Z</time></trkpt><trkpt lat="43.43771780731787" lon="11.851839176555444"><ele>282.0</ele><time>2026-04-04T07:45:52.999Z</time></trkpt><trkpt lat="43.437777413048615" lon="11.851879990140784"><ele>282.0</ele><time>2026-04-04T07:45:53.999Z</time></trkpt><trkpt lat="43.43784048200107" lon="11.85192583004063"><ele>282.0</ele><time>2026-04-04T07:45:54.999Z</time></trkpt><trkpt lat="43.437904085395495" lon="11.85197191718264"><ele>281.8571428571429</ele><time>2026-04-04T07:45:55.999Z</time></trkpt><trkpt lat="43.437965328737455" lon="11.852020682053077"><ele>281.7142857142857</ele><time>2026-04-04T07:45:56.999Z</time></trkpt><trkpt lat="43.43802669068741" lon="11.852062901340702"><ele>281.57142857142856</ele><time>2026-04-04T07:45:57.999Z</time></trkpt><trkpt lat="43.43809111616515" lon="11.852112050495183"><ele>281.42857142857144</ele><time>2026-04-04T07:45:58.999Z</time></trkpt><trkpt lat="43.43815390313911" lon="11.852153366896719"><ele>281.2857142857143</ele><time>2026-04-04T07:45:59.999Z</time></trkpt><trkpt lat="43.43821624720212" lon="11.852206927522793"><ele>281.14285714285717</ele><time>2026-04-04T07:46:00.999Z</time></trkpt><trkpt lat="43.43828126617189" lon="11.852256721083291"><ele>281.0</ele><time>2026-04-04T07:46:01.999Z</time></trkpt><trkpt lat="43.43834209328858" lon="11.852306597528038"><ele>280.33333333333337</ele><time>2026-04-04T07:46:02.999Z</time></trkpt><trkpt lat="43.43841362271828" lon="11.852355990370322"><ele>279.6666666666667</ele><time>2026-04-04T07:46:03.999Z</time></trkpt><trkpt lat="43.43848087594725" lon="11.852409902442226"><ele>279.0</ele><time>2026-04-04T07:46:04.999Z</time></trkpt><trkpt lat="43.43855331586483" lon="11.852454017628029"><ele>278.3333333333333</ele><time>2026-04-04T07:46:05.999Z</time></trkpt><trkpt lat="43.43862412202438" lon="11.85250338963471"><ele>277.66666666666663</ele><time>2026-04-04T07:46:06.999Z</time></trkpt><trkpt lat="43.43868976529063" lon="11.85255118691522"><ele>277.0</ele><time>2026-04-04T07:46:07.999Z</time></trkpt><trkpt lat="43.43876408360445" lon="11.852604172842945"><ele>276.66666666666663</ele><time>2026-04-04T07:46:08.999Z</time></trkpt><trkpt lat="43.43883735757005" lon="11.852656368073703"><ele>276.3333333333333</ele><time>2026-04-04T07:46:09.999Z</time></trkpt><trkpt lat="43.43892277003016" lon="11.852710279666269"><ele>276.0</ele><time>2026-04-04T07:46:10.999Z</time></trkpt><trkpt lat="43.4389957027798" lon="11.85276421056963"><ele>275.6666666666667</ele><time>2026-04-04T07:46:11.999Z</time></trkpt><trkpt lat="43.43907394202362" lon="11.852822781480043"><ele>275.33333333333337</ele><time>2026-04-04T07:46:12.999Z</time></trkpt><trkpt lat="43.439153855448765" lon="11.852880389163609"><ele>275.0</ele><time>2026-04-04T07:46:13.999Z</time></trkpt><trkpt lat="43.43923687754107" lon="11.8529342026127"><ele>275.0</ele><time>2026-04-04T07:46:14.999Z</time></trkpt><trkpt lat="43.43932133421729" lon="11.852985374197086"><ele>275.0</ele><time>2026-04-04T07:46:15.999Z</time></trkpt><trkpt lat="43.4394096500946" lon="11.853036507054336"><ele>275.0</ele><time>2026-04-04T07:46:16.999Z</time></trkpt><trkpt lat="43.43949536740811" lon="11.853074098303194"><ele>275.0</ele><time>2026-04-04T07:46:17.999Z</time></trkpt><trkpt lat="43.439587625970326" lon="11.853109476558897"><ele>275.0</ele><time>2026-04-04T07:46:18.999Z</time></trkpt><trkpt lat="43.43967920422486" lon="11.853141532341725"><ele>273.6</ele><time>2026-04-04T07:46:19.999Z</time></trkpt><trkpt lat="43.43977263609" lon="11.853171156910417"><ele>272.2</ele><time>2026-04-04T07:46:20.999Z</time></trkpt><trkpt lat="43.439872108824034" lon="11.853203299849614"><ele>270.8</ele><time>2026-04-04T07:46:21.999Z</time></trkpt><trkpt lat="43.43997021270637" lon="11.853233266936616"><ele>269.4</ele><time>2026-04-04T07:46:22.998Z</time></trkpt><trkpt lat="43.44007115422214" lon="11.853263843751456"><ele>268.0</ele><time>2026-04-04T07:46:23.998Z</time></trkpt><trkpt lat="43.44017198434788" lon="11.853294683756902"><ele>268.0</ele><time>2026-04-04T07:46:24.998Z</time></trkpt><trkpt lat="43.44027418457914" lon="11.853328012515837"><ele>268.0</ele><time>2026-04-04T07:46:25.998Z</time></trkpt><trkpt lat="43.44037472947267" lon="11.85335938259628"><ele>268.0</ele><time>2026-04-04T07:46:26.998Z</time></trkpt><trkpt lat="43.44047580463845" lon="11.853391308159905"><ele>268.0</ele><time>2026-04-04T07:46:27.998Z</time></trkpt><trkpt lat="43.44057909783994" lon="11.853428840752317"><ele>268.0</ele><time>2026-04-04T07:46:28.998Z</time></trkpt><trkpt lat="43.440681830612036" lon="11.853468641021916"><ele>267.2</ele><time>2026-04-04T07:46:29.998Z</time></trkpt><trkpt lat="43.440780147926766" lon="11.85351091682493"><ele>266.4</ele><time>2026-04-04T07:46:30.998Z</time></trkpt><trkpt lat="43.440878057610384" lon="11.853557874182217"><ele>265.59999999999997</ele><time>2026-04-04T07:46:31.998Z</time></trkpt><trkpt lat="43.44097489422637" lon="11.853602375020602"><ele>264.8</ele><time>2026-04-04T07:46:32.998Z</time></trkpt><trkpt lat="43.44106951390695" lon="11.853652962658979"><ele>264.0</ele><time>2026-04-04T07:46:33.998Z</time></trkpt><trkpt lat="43.441161009857375" lon="11.853705584729086"><ele>264.0</ele><time>2026-04-04T07:46:34.998Z</time></trkpt><trkpt lat="43.44125000324679" lon="11.85375855606194"><ele>264.0</ele><time>2026-04-04T07:46:35.998Z</time></trkpt><trkpt lat="43.44133410405177" lon="11.853829075527392"><ele>264.0</ele><time>2026-04-04T07:46:36.998Z</time></trkpt><trkpt lat="43.441414708928605" lon="11.853896318241338"><ele>264.0</ele><time>2026-04-04T07:46:37.998Z</time></trkpt><trkpt lat="43.441498717042364" lon="11.853956119328968"><ele>264.0</ele><time>2026-04-04T07:46:38.998Z</time></trkpt><trkpt lat="43.441583145510286" lon="11.854014853306579"><ele>263.59999999999997</ele><time>2026-04-04T07:46:39.998Z</time></trkpt><trkpt lat="43.4416631161688" lon="11.854067507404984"><ele>263.2</ele><time>2026-04-04T07:46:40.998Z</time></trkpt><trkpt lat="43.44173635406355" lon="11.854166691141598"><ele>262.79999999999995</ele><time>2026-04-04T07:46:41.998Z</time></trkpt><trkpt lat="43.44180805996157" lon="11.854250184489642"><ele>262.4</ele><time>2026-04-04T07:46:43Z</time></trkpt><trkpt lat="43.44187248386074" lon="11.854332428248274"><ele>262.0</ele><time>2026-04-04T07:46:44Z</time></trkpt><trkpt lat="43.44194264161511" lon="11.854413429773974"><ele>262.0</ele><time>2026-04-04T07:46:45Z</time></trkpt><trkpt lat="43.44200978676276" lon="11.854489619869723"><ele>262.0</ele><time>2026-04-04T07:46:46Z</time></trkpt><trkpt lat="43.442075747077624" lon="11.854576599924329"><ele>262.0</ele><time>2026-04-04T07:46:47Z</time></trkpt><trkpt lat="43.442142626167595" lon="11.85465855168666"><ele>262.0</ele><time>2026-04-04T07:46:48Z</time></trkpt><trkpt lat="43.44220931666232" lon="11.854741184252491"><ele>262.0</ele><time>2026-04-04T07:46:49Z</time></trkpt><trkpt lat="43.442273739995336" lon="11.854819961482134"><ele>262.0</ele><time>2026-04-04T07:46:50Z</time></trkpt><trkpt lat="43.44233366754352" lon="11.854895591962725"><ele>261.3333333333333</ele><time>2026-04-04T07:46:51Z</time></trkpt><trkpt lat="43.44239552423333" lon="11.85497177375682"><ele>260.66666666666663</ele><time>2026-04-04T07:46:52Z</time></trkpt><trkpt lat="43.44245572772095" lon="11.855044644739865"><ele>260.0</ele><time>2026-04-04T07:46:53Z</time></trkpt><trkpt lat="43.44251113712567" lon="11.855118088148272"><ele>259.3333333333333</ele><time>2026-04-04T07:46:54Z</time></trkpt><trkpt lat="43.44255891427215" lon="11.855182840552494"><ele>258.6666666666667</ele><time>2026-04-04T07:46:55Z</time></trkpt><trkpt lat="43.442638552827276" lon="11.85529118124005"><ele>258.0</ele><time>2026-04-04T07:46:57Z</time></trkpt><trkpt lat="43.442701019484765" lon="11.855370686004871"><ele>258.0</ele><time>2026-04-04T07:46:59Z</time></trkpt><trkpt lat="43.44278154032973" lon="11.855422891443892"><ele>258.0</ele><time>2026-04-04T07:47:41.999Z</time></trkpt><trkpt lat="43.44280578608665" lon="11.855328214771953"><ele>258.0</ele><time>2026-04-04T07:47:45.999Z</time></trkpt><trkpt lat="43.44277404198074" lon="11.855249953097903"><ele>258.0</ele><time>2026-04-04T07:47:46.999Z</time></trkpt><trkpt lat="43.44272361125226" lon="11.855138709082658"><ele>258.0</ele><time>2026-04-04T07:47:48.999Z</time></trkpt><trkpt lat="43.4426682915037" lon="11.855025207445385"><ele>258.0</ele><time>2026-04-04T07:47:50.999Z</time></trkpt><trkpt lat="43.44260677049632" lon="11.854913444740633"><ele>258.0</ele><time>2026-04-04T07:47:52.999Z</time></trkpt><trkpt lat="43.44256415320557" lon="11.854788782808617"><ele>258.0</ele><time>2026-04-04T07:47:54.999Z</time></trkpt><trkpt lat="43.44252259381992" lon="11.854679029813594"><ele>258.0</ele><time>2026-04-04T07:47:56.999Z</time></trkpt><trkpt lat="43.44249701580243" lon="11.854552950727992"><ele>258.0</ele><time>2026-04-04T07:47:58.999Z</time></trkpt><trkpt lat="43.44248781937415" lon="11.854404767896405"><ele>258.0</ele><time>2026-04-04T07:48:00.999Z</time></trkpt><trkpt lat="43.442506563884955" lon="11.854245163643483"><ele>257.75</ele><time>2026-04-04T07:48:02.999Z</time></trkpt><trkpt lat="43.44255423943209" lon="11.854100366922484"><ele>257.5</ele><time>2026-04-04T07:48:04.999Z</time></trkpt><trkpt lat="43.44260667115348" lon="11.853956764422545"><ele>257.25</ele><time>2026-04-04T07:48:06.999Z</time></trkpt><trkpt lat="43.44269029072839" lon="11.853843250924113"><ele>257.0</ele><time>2026-04-04T07:48:08.999Z</time></trkpt><trkpt lat="43.442795628437096" lon="11.85375127875399"><ele>257.0</ele><time>2026-04-04T07:48:10.999Z</time></trkpt><trkpt lat="43.4428497906136" lon="11.853705869392854"><ele>257.0</ele><time>2026-04-04T07:48:11.999Z</time></trkpt><trkpt lat="43.44291234120629" lon="11.853669392673698"><ele>257.0</ele><time>2026-04-04T07:48:12.999Z</time></trkpt><trkpt lat="43.442969013462374" lon="11.853622854166787"><ele>257.0</ele><time>2026-04-04T07:48:13.999Z</time></trkpt><trkpt lat="43.44302702657742" lon="11.853573996633695"><ele>257.0</ele><time>2026-04-04T07:48:14.999Z</time></trkpt><trkpt lat="43.44308330348051" lon="11.853520986411354"><ele>257.0</ele><time>2026-04-04T07:48:15.999Z</time></trkpt><trkpt lat="43.443143023271766" lon="11.853467689213598"><ele>257.0</ele><time>2026-04-04T07:48:16.999Z</time></trkpt><trkpt lat="43.443204532412324" lon="11.853415583673677"><ele>256.85714285714283</ele><time>2026-04-04T07:48:17.999Z</time></trkpt><trkpt lat="43.443264267293436" lon="11.853357473048824"><ele>256.7142857142857</ele><time>2026-04-04T07:48:18.999Z</time></trkpt><trkpt lat="43.44332343284071" lon="11.853297730173074"><ele>256.57142857142856</ele><time>2026-04-04T07:48:19.999Z</time></trkpt><trkpt lat="43.44338722529887" lon="11.853242604312525"><ele>256.42857142857144</ele><time>2026-04-04T07:48:20.999Z</time></trkpt><trkpt lat="43.4434506999815" lon="11.853184634393758"><ele>256.2857142857143</ele><time>2026-04-04T07:48:21.999Z</time></trkpt><trkpt lat="43.443511562604684" lon="11.853127299879333"><ele>256.1428571428571</ele><time>2026-04-04T07:48:22.998Z</time></trkpt><trkpt lat="43.4435682787036" lon="11.85306627594111"><ele>256.0</ele><time>2026-04-04T07:48:23.998Z</time></trkpt><trkpt lat="43.443624213911036" lon="11.853002923714373"><ele>255.99999999999997</ele><time>2026-04-04T07:48:24.998Z</time></trkpt><trkpt lat="43.44368113454479" lon="11.852947036461641"><ele>256.0</ele><time>2026-04-04T07:48:25.998Z</time></trkpt><trkpt lat="43.44373386597378" lon="11.852889958202901"><ele>256.0</ele><time>2026-04-04T07:48:26.998Z</time></trkpt><trkpt lat="43.44378537272818" lon="11.852831884248024"><ele>256.0</ele><time>2026-04-04T07:48:27.998Z</time></trkpt><trkpt lat="43.44383218290287" lon="11.852765945960611"><ele>255.99999999999997</ele><time>2026-04-04T07:48:28.998Z</time></trkpt><trkpt lat="43.44391443908633" lon="11.85263676690194"><ele>256.0</ele><time>2026-04-04T07:48:30.998Z</time></trkpt><trkpt lat="43.443986414849384" lon="11.852497399447278"><ele>256.0</ele><time>2026-04-04T07:48:32.998Z</time></trkpt><trkpt lat="43.44404805524722" lon="11.852350776260774"><ele>256.0</ele><time>2026-04-04T07:48:34.998Z</time></trkpt><trkpt lat="43.44408882596578" lon="11.852193570067877"><ele>256.0</ele><time>2026-04-04T07:48:36.998Z</time></trkpt><trkpt lat="43.44411958830764" lon="11.8520323465822"><ele>256.0</ele><time>2026-04-04T07:48:38.998Z</time></trkpt><trkpt lat="43.44413644107746" lon="11.851864283510873"><ele>256.0</ele><time>2026-04-04T07:48:40.998Z</time></trkpt><trkpt lat="43.44414684759306" lon="11.851709351492135"><ele>256.0</ele><time>2026-04-04T07:48:42.998Z</time></trkpt><trkpt lat="43.44417168625" lon="11.851543314291531"><ele>256.0</ele><time>2026-04-04T07:48:44.998Z</time></trkpt><trkpt lat="43.444188989773636" lon="11.851380092568476"><ele>256.0</ele><time>2026-04-04T07:48:46.998Z</time></trkpt><trkpt lat="43.444194496450386" lon="11.851293296558438"><ele>256.0</ele><time>2026-04-04T07:48:47.998Z</time></trkpt><trkpt lat="43.444201582242975" lon="11.851204476207261"><ele>256.0</ele><time>2026-04-04T07:48:49Z</time></trkpt><trkpt lat="43.444208859642345" lon="11.851117247556385"><ele>255.99999999999997</ele><time>2026-04-04T07:48:50Z</time></trkpt><trkpt lat="43.444213044725224" lon="11.851024921270014"><ele>256.0</ele><time>2026-04-04T07:48:51Z</time></trkpt><trkpt lat="43.44422289455912" lon="11.850931521270356"><ele>256.0</ele><time>2026-04-04T07:48:52Z</time></trkpt><trkpt lat="43.44423412877646" lon="11.850841702778087"><ele>255.99999999999997</ele><time>2026-04-04T07:48:53Z</time></trkpt><trkpt lat="43.444247634186866" lon="11.85074866355205"><ele>256.0</ele><time>2026-04-04T07:48:54Z</time></trkpt><trkpt lat="43.44427205761347" lon="11.850653323402554"><ele>256.0</ele><time>2026-04-04T07:48:55Z</time></trkpt><trkpt lat="43.44429774603379" lon="11.850558181149717"><ele>256.0</ele><time>2026-04-04T07:48:56Z</time></trkpt><trkpt lat="43.44432692771087" lon="11.8504604363697"><ele>255.99999999999997</ele><time>2026-04-04T07:48:57Z</time></trkpt><trkpt lat="43.444352404461874" lon="11.850367029356264"><ele>256.0</ele><time>2026-04-04T07:48:58Z</time></trkpt><trkpt lat="43.44437991963992" lon="11.850273569443122"><ele>256.0</ele><time>2026-04-04T07:48:59Z</time></trkpt><trkpt lat="43.44440712849482" lon="11.850182387620842"><ele>255.99999999999997</ele><time>2026-04-04T07:49:00Z</time></trkpt><trkpt lat="43.44443574576015" lon="11.85008548237143"><ele>256.0</ele><time>2026-04-04T07:49:01Z</time></trkpt><trkpt lat="43.44446516092134" lon="11.849990061908859"><ele>256.0</ele><time>2026-04-04T07:49:02Z</time></trkpt><trkpt lat="43.444493557479944" lon="11.84989888167777"><ele>255.7142857142857</ele><time>2026-04-04T07:49:03Z</time></trkpt><trkpt lat="43.44452113382464" lon="11.849804478550602"><ele>255.4285714285714</ele><time>2026-04-04T07:49:04Z</time></trkpt><trkpt lat="43.44454771474847" lon="11.849714477401863"><ele>255.14285714285714</ele><time>2026-04-04T07:49:05Z</time></trkpt><trkpt lat="43.44457578546874" lon="11.849621335225724"><ele>254.85714285714283</ele><time>2026-04-04T07:49:06Z</time></trkpt><trkpt lat="43.444602111283096" lon="11.849530283453594"><ele>254.57142857142856</ele><time>2026-04-04T07:49:07Z</time></trkpt><trkpt lat="43.44462816940081" lon="11.849439185599543"><ele>254.28571428571428</ele><time>2026-04-04T07:49:08Z</time></trkpt><trkpt lat="43.44465637649996" lon="11.84934933788239"><ele>254.0</ele><time>2026-04-04T07:49:09Z</time></trkpt><trkpt lat="43.444683623593015" lon="11.849259774660398"><ele>253.71428571428572</ele><time>2026-04-04T07:49:10Z</time></trkpt><trkpt lat="43.44470874909538" lon="11.849168354331137"><ele>253.42857142857142</ele><time>2026-04-04T07:49:11Z</time></trkpt><trkpt lat="43.44473589179151" lon="11.84908253935383"><ele>253.14285714285714</ele><time>2026-04-04T07:49:12Z</time></trkpt><trkpt lat="43.444763172638815" lon="11.848994534457006"><ele>252.85714285714286</ele><time>2026-04-04T07:49:13Z</time></trkpt><trkpt lat="43.444789911498866" lon="11.848907532019414"><ele>252.57142857142856</ele><time>2026-04-04T07:49:14Z</time></trkpt><trkpt lat="43.444817115359285" lon="11.848820163009055"><ele>252.28571428571428</ele><time>2026-04-04T07:49:15Z</time></trkpt><trkpt lat="43.444841835244326" lon="11.848729052978403"><ele>252.0</ele><time>2026-04-04T07:49:16Z</time></trkpt><trkpt lat="43.444866228726696" lon="11.848632177677116"><ele>252.0</ele><time>2026-04-04T07:49:17Z</time></trkpt><trkpt lat="43.44488945174671" lon="11.84854352850766"><ele>252.0</ele><time>2026-04-04T07:49:18Z</time></trkpt><trkpt lat="43.4449092082327" lon="11.848455708298694"><ele>252.0</ele><time>2026-04-04T07:49:19Z</time></trkpt><trkpt lat="43.444929478685616" lon="11.848368256068607"><ele>252.0</ele><time>2026-04-04T07:49:20Z</time></trkpt><trkpt lat="43.44495320944888" lon="11.848281227525128"><ele>252.0</ele><time>2026-04-04T07:49:21Z</time></trkpt><trkpt lat="43.444975168379145" lon="11.848196364819831"><ele>252.0</ele><time>2026-04-04T07:49:22Z</time></trkpt><trkpt lat="43.44499505175735" lon="11.84811182672218"><ele>252.0</ele><time>2026-04-04T07:49:23Z</time></trkpt><trkpt lat="43.445034654578876" lon="11.84794440844866"><ele>252.2</ele><time>2026-04-04T07:49:25Z</time></trkpt><trkpt lat="43.44505098820729" lon="11.84786027712723"><ele>252.39999999999998</ele><time>2026-04-04T07:49:26Z</time></trkpt><trkpt lat="43.44507439436156" lon="11.847778093128563"><ele>252.60000000000002</ele><time>2026-04-04T07:49:27Z</time></trkpt><trkpt lat="43.44511322406988" lon="11.847621615094566"><ele>252.8</ele><time>2026-04-04T07:49:29Z</time></trkpt><trkpt lat="43.44516065321115" lon="11.847481094063669"><ele>253.0</ele><time>2026-04-04T07:49:31Z</time></trkpt><trkpt lat="43.44521756262531" lon="11.84733820265232"><ele>252.99999999999997</ele><time>2026-04-04T07:49:32.999Z</time></trkpt><trkpt lat="43.445252224486815" lon="11.84726492931053"><ele>253.0</ele><time>2026-04-04T07:49:33.999Z</time></trkpt><trkpt lat="43.445316287138944" lon="11.847112030187873"><ele>253.0</ele><time>2026-04-04T07:49:35.999Z</time></trkpt><trkpt lat="43.44534846163508" lon="11.847033270262841"><ele>253.0</ele><time>2026-04-04T07:49:36.999Z</time></trkpt><trkpt lat="43.44538341653406" lon="11.84695649935374"><ele>252.99999999999997</ele><time>2026-04-04T07:49:37.999Z</time></trkpt><trkpt lat="43.44541691125748" lon="11.846877120326567"><ele>253.0</ele><time>2026-04-04T07:49:38.999Z</time></trkpt><trkpt lat="43.445451153638835" lon="11.846799490422026"><ele>252.71428571428575</ele><time>2026-04-04T07:49:39.999Z</time></trkpt><trkpt lat="43.44548200296587" lon="11.846721075877293"><ele>252.42857142857144</ele><time>2026-04-04T07:49:40.999Z</time></trkpt><trkpt lat="43.445518883632644" lon="11.846645443370255"><ele>252.14285714285714</ele><time>2026-04-04T07:49:41.999Z</time></trkpt><trkpt lat="43.445553926523345" lon="11.846566409316596"><ele>251.85714285714286</ele><time>2026-04-04T07:49:42.999Z</time></trkpt><trkpt lat="43.445586363712984" lon="11.8464884372725"><ele>251.57142857142856</ele><time>2026-04-04T07:49:43.999Z</time></trkpt><trkpt lat="43.4456191521079" lon="11.84641068337486"><ele>251.28571428571425</ele><time>2026-04-04T07:49:44.999Z</time></trkpt><trkpt lat="43.44565120151193" lon="11.846331325584542"><ele>250.99999999999997</ele><time>2026-04-04T07:49:45.999Z</time></trkpt><trkpt lat="43.445682122473514" lon="11.846251789735318"><ele>250.99999999999997</ele><time>2026-04-04T07:49:46.999Z</time></trkpt><trkpt lat="43.44571301919367" lon="11.84617365463625"><ele>251.0</ele><time>2026-04-04T07:49:47.999Z</time></trkpt><trkpt lat="43.44574882536426" lon="11.846094768217142"><ele>250.99999999999997</ele><time>2026-04-04T07:49:48.999Z</time></trkpt><trkpt lat="43.44578225092809" lon="11.84601398994417"><ele>250.99999999999997</ele><time>2026-04-04T07:49:49.999Z</time></trkpt><trkpt lat="43.445817883446956" lon="11.845935356712216"><ele>251.0</ele><time>2026-04-04T07:49:50.999Z</time></trkpt><trkpt lat="43.44585426746255" lon="11.845857692341477"><ele>250.99999999999997</ele><time>2026-04-04T07:49:51.999Z</time></trkpt><trkpt lat="43.44589431066656" lon="11.845782626049857"><ele>250.99999999999997</ele><time>2026-04-04T07:49:52.999Z</time></trkpt><trkpt lat="43.445939032678716" lon="11.845715911388096"><ele>250.99999999999997</ele><time>2026-04-04T07:49:53.999Z</time></trkpt><trkpt lat="43.445983001233834" lon="11.845637871570986"><ele>251.0</ele><time>2026-04-04T07:49:54.999Z</time></trkpt><trkpt lat="43.446028154284306" lon="11.845566037720953"><ele>250.99999999999997</ele><time>2026-04-04T07:49:55.999Z</time></trkpt><trkpt lat="43.446071833359916" lon="11.845502047047866"><ele>250.99999999999997</ele><time>2026-04-04T07:49:56.999Z</time></trkpt><trkpt lat="43.446115928758786" lon="11.845436403030595"><ele>251.0</ele><time>2026-04-04T07:49:57.999Z</time></trkpt><trkpt lat="43.446161564483724" lon="11.845369402617024"><ele>250.99999999999997</ele><time>2026-04-04T07:49:58.999Z</time></trkpt><trkpt lat="43.44620568530006" lon="11.845302027348271"><ele>250.99999999999997</ele><time>2026-04-04T07:49:59.999Z</time></trkpt><trkpt lat="43.446251721227206" lon="11.845237290608994"><ele>250.99999999999997</ele><time>2026-04-04T07:50:00.999Z</time></trkpt><trkpt lat="43.44629418264549" lon="11.8451697409953"><ele>251.0</ele><time>2026-04-04T07:50:01.999Z</time></trkpt><trkpt lat="43.4463353290931" lon="11.845103545530108"><ele>250.99999999999997</ele><time>2026-04-04T07:50:02.999Z</time></trkpt><trkpt lat="43.44638046981211" lon="11.84503788260246"><ele>250.99999999999997</ele><time>2026-04-04T07:50:03.999Z</time></trkpt><trkpt lat="43.44642337695395" lon="11.844973003682878"><ele>251.0</ele><time>2026-04-04T07:50:04.999Z</time></trkpt><trkpt lat="43.44647428666647" lon="11.844913571830986"><ele>250.99999999999997</ele><time>2026-04-04T07:50:05.999Z</time></trkpt><trkpt lat="43.446531321302395" lon="11.844876037460242"><ele>250.99999999999997</ele><time>2026-04-04T07:50:06.999Z</time></trkpt><trkpt lat="43.446597777457534" lon="11.844866375486715"><ele>250.83333333333334</ele><time>2026-04-04T07:50:07.999Z</time></trkpt><trkpt lat="43.44667657417317" lon="11.844872130097464"><ele>250.66666666666669</ele><time>2026-04-04T07:50:08.999Z</time></trkpt><trkpt lat="43.446799995032734" lon="11.844879165387974"><ele>250.5</ele><time>2026-04-04T07:50:10.999Z</time></trkpt><trkpt lat="43.44686803384422" lon="11.844880234991491"><ele>250.33333333333331</ele><time>2026-04-04T07:50:11.999Z</time></trkpt><trkpt lat="43.44693308591927" lon="11.844880291997418"><ele>250.16666666666666</ele><time>2026-04-04T07:50:12.999Z</time></trkpt><trkpt lat="43.4469972972858" lon="11.844874293339982"><ele>250.0</ele><time>2026-04-04T07:50:13.999Z</time></trkpt><trkpt lat="43.44706230236526" lon="11.844877603622074"><ele>250.0</ele><time>2026-04-04T07:50:14.999Z</time></trkpt><trkpt lat="43.44712534723207" lon="11.844876090242824"><ele>250.0</ele><time>2026-04-04T07:50:15.999Z</time></trkpt><trkpt lat="43.44719028505452" lon="11.84486762857365"><ele>250.0</ele><time>2026-04-04T07:50:16.999Z</time></trkpt><trkpt lat="43.447307552780465" lon="11.844895489147945"><ele>250.0</ele><time>2026-04-04T07:50:18.999Z</time></trkpt><trkpt lat="43.44742096361734" lon="11.84492711748"><ele>250.0</ele><time>2026-04-04T07:50:20.999Z</time></trkpt><trkpt lat="43.44753513164578" lon="11.844958648107143"><ele>249.25</ele><time>2026-04-04T07:50:22.999Z</time></trkpt><trkpt lat="43.44764641074191" lon="11.844979179105486"><ele>248.5</ele><time>2026-04-04T07:50:24.999Z</time></trkpt><trkpt lat="43.44776454696455" lon="11.844982189680714"><ele>247.75</ele><time>2026-04-04T07:50:26.999Z</time></trkpt><trkpt lat="43.447882911047984" lon="11.844985211938209"><ele>247.0</ele><time>2026-04-04T07:50:28.999Z</time></trkpt><trkpt lat="43.4480016890955" lon="11.844981348964062"><ele>247.0</ele><time>2026-04-04T07:50:30.998Z</time></trkpt><trkpt lat="43.44812460198169" lon="11.845018076477439"><ele>247.0</ele><time>2026-04-04T07:50:32.998Z</time></trkpt><trkpt lat="43.44823875499392" lon="11.845033600591034"><ele>247.0</ele><time>2026-04-04T07:50:34.998Z</time></trkpt><trkpt lat="43.44835242193963" lon="11.845061683028272"><ele>247.0</ele><time>2026-04-04T07:50:36.998Z</time></trkpt><trkpt lat="43.44845926862317" lon="11.845069848138593"><ele>246.99999999999997</ele><time>2026-04-04T07:50:38.998Z</time></trkpt><trkpt lat="43.44852360021917" lon="11.845065586566037"><ele>247.0</ele><time>2026-04-04T07:50:39.998Z</time></trkpt><trkpt lat="43.44861294131903" lon="11.845089865178872"><ele>247.0</ele><time>2026-04-04T07:50:41.998Z</time></trkpt><trkpt lat="43.44871259507934" lon="11.845114382617215"><ele>247.0</ele><time>2026-04-04T07:50:43.998Z</time></trkpt><trkpt lat="43.44879908767998" lon="11.845129545997898"><ele>246.99999999999997</ele><time>2026-04-04T07:50:45.998Z</time></trkpt><trkpt lat="43.44889602362204" lon="11.84515218954395"><ele>247.0</ele><time>2026-04-04T07:50:47.998Z</time></trkpt><trkpt lat="43.44900312123964" lon="11.845161901998747"><ele>247.0</ele><time>2026-04-04T07:50:49.998Z</time></trkpt><trkpt lat="43.449114823364454" lon="11.845176607969668"><ele>247.0</ele><time>2026-04-04T07:50:51.998Z</time></trkpt><trkpt lat="43.449220239134974" lon="11.845190776974574"><ele>247.0</ele><time>2026-04-04T07:50:53.998Z</time></trkpt><trkpt lat="43.449318001610024" lon="11.845221079229107"><ele>247.0</ele><time>2026-04-04T07:50:56Z</time></trkpt><trkpt lat="43.44938707744347" lon="11.845251839501097"><ele>247.0</ele><time>2026-04-04T07:50:57Z</time></trkpt><trkpt lat="43.44948518021462" lon="11.845272110559494"><ele>247.0</ele><time>2026-04-04T07:50:59Z</time></trkpt><trkpt lat="43.44959034614206" lon="11.845283763572683"><ele>247.0</ele><time>2026-04-04T07:51:01Z</time></trkpt><trkpt lat="43.44969794192061" lon="11.845307397148016"><ele>247.0</ele><time>2026-04-04T07:51:03Z</time></trkpt><trkpt lat="43.44979269696929" lon="11.845357133642617"><ele>247.0</ele><time>2026-04-04T07:51:05Z</time></trkpt><trkpt lat="43.44989501922617" lon="11.845367145836187"><ele>247.0</ele><time>2026-04-04T07:51:07Z</time></trkpt><trkpt lat="43.44999765457166" lon="11.845404884889799"><ele>247.2</ele><time>2026-04-04T07:51:09Z</time></trkpt><trkpt lat="43.450109103937514" lon="11.84544376188592"><ele>247.39999999999998</ele><time>2026-04-04T07:51:11Z</time></trkpt><trkpt lat="43.450223527045054" lon="11.845449755397292"><ele>247.60000000000002</ele><time>2026-04-04T07:51:13Z</time></trkpt><trkpt lat="43.45034387660523" lon="11.845469440408166"><ele>247.8</ele><time>2026-04-04T07:51:15Z</time></trkpt><trkpt lat="43.450407166649754" lon="11.845475000233114"><ele>248.0</ele><time>2026-04-04T07:51:16Z</time></trkpt><trkpt lat="43.450524663251315" lon="11.845494597200277"><ele>248.0</ele><time>2026-04-04T07:51:18Z</time></trkpt><trkpt lat="43.45059065892615" lon="11.845490035002141"><ele>248.0</ele><time>2026-04-04T07:51:19Z</time></trkpt><trkpt lat="43.45070044822516" lon="11.845497278276998"><ele>248.0</ele><time>2026-04-04T07:51:21Z</time></trkpt><trkpt lat="43.45083043607736" lon="11.845493400233876"><ele>248.0</ele><time>2026-04-04T07:51:23Z</time></trkpt><trkpt lat="43.45094277654346" lon="11.84549040707369"><ele>248.0</ele><time>2026-04-04T07:51:25Z</time></trkpt><trkpt lat="43.45106092551099" lon="11.845471263552355"><ele>248.0</ele><time>2026-04-04T07:51:27Z</time></trkpt><trkpt lat="43.45117275791099" lon="11.845458932162206"><ele>248.0</ele><time>2026-04-04T07:51:29Z</time></trkpt><trkpt lat="43.45128976942478" lon="11.845454659910438"><ele>248.0</ele><time>2026-04-04T07:51:31Z</time></trkpt><trkpt lat="43.45139607408634" lon="11.84546829252407"><ele>248.0</ele><time>2026-04-04T07:51:33Z</time></trkpt><trkpt lat="43.45147315874041" lon="11.845512051294975"><ele>248.0</ele><time>2026-04-04T07:51:35Z</time></trkpt><trkpt lat="43.451551020629715" lon="11.845478991860958"><ele>248.2</ele><time>2026-04-04T07:51:59.999Z</time></trkpt><trkpt lat="43.451597552306914" lon="11.845321254784848"><ele>248.4</ele><time>2026-04-04T07:52:03.999Z</time></trkpt><trkpt lat="43.451621182501036" lon="11.845200679263103"><ele>248.59999999999997</ele><time>2026-04-04T07:52:05.999Z</time></trkpt><trkpt lat="43.45164540108085" lon="11.845068428273967"><ele>248.79999999999998</ele><time>2026-04-04T07:52:07.999Z</time></trkpt><trkpt lat="43.45167288750272" lon="11.844927327136906"><ele>249.0</ele><time>2026-04-04T07:52:09.999Z</time></trkpt><trkpt lat="43.45170076294706" lon="11.84478544666506"><ele>249.0</ele><time>2026-04-04T07:52:11.999Z</time></trkpt><trkpt lat="43.45172590149614" lon="11.844639254896794"><ele>248.99999999999997</ele><time>2026-04-04T07:52:13.999Z</time></trkpt><trkpt lat="43.45175365688284" lon="11.844487338595062"><ele>248.99999999999997</ele><time>2026-04-04T07:52:15.999Z</time></trkpt><trkpt lat="43.451778489220324" lon="11.8443373301671"><ele>249.0</ele><time>2026-04-04T07:52:17.999Z</time></trkpt><trkpt lat="43.45180252474625" lon="11.844183431213276"><ele>249.0</ele><time>2026-04-04T07:52:19.999Z</time></trkpt><trkpt lat="43.45182621095324" lon="11.844030575955529"><ele>249.0</ele><time>2026-04-04T07:52:21.999Z</time></trkpt><trkpt lat="43.451861473567625" lon="11.843880560718624"><ele>249.0</ele><time>2026-04-04T07:52:23.999Z</time></trkpt><trkpt lat="43.4519000833504" lon="11.843726563158992"><ele>249.0</ele><time>2026-04-04T07:52:25.999Z</time></trkpt><trkpt lat="43.451939315381715" lon="11.84357753959666"><ele>249.0</ele><time>2026-04-04T07:52:27.999Z</time></trkpt><trkpt lat="43.451979465552284" lon="11.84342531288817"><ele>249.0</ele><time>2026-04-04T07:52:29.999Z</time></trkpt><trkpt lat="43.452016950737736" lon="11.84327947678765"><ele>249.0</ele><time>2026-04-04T07:52:31.999Z</time></trkpt><trkpt lat="43.45203811645581" lon="11.843118650854079"><ele>249.0</ele><time>2026-04-04T07:52:33.999Z</time></trkpt><trkpt lat="43.45206307146505" lon="11.842959398956614"><ele>249.0</ele><time>2026-04-04T07:52:35.999Z</time></trkpt><trkpt lat="43.45208730565671" lon="11.84279515744298"><ele>248.83333333333334</ele><time>2026-04-04T07:52:37.999Z</time></trkpt><trkpt lat="43.45210855080664" lon="11.842629218063713"><ele>248.66666666666669</ele><time>2026-04-04T07:52:39.999Z</time></trkpt><trkpt lat="43.45213108540069" lon="11.84245945239852"><ele>248.5</ele><time>2026-04-04T07:52:41.999Z</time></trkpt><trkpt lat="43.45214482723997" lon="11.842370530461906"><ele>248.33333333333334</ele><time>2026-04-04T07:52:42.998Z</time></trkpt><trkpt lat="43.452155333423526" lon="11.842281749816431"><ele>248.16666666666669</ele><time>2026-04-04T07:52:43.998Z</time></trkpt><trkpt lat="43.45216609681623" lon="11.842192716191676"><ele>248.0</ele><time>2026-04-04T07:52:44.998Z</time></trkpt><trkpt lat="43.45217794751235" lon="11.842105219205623"><ele>248.00000000000003</ele><time>2026-04-04T07:52:45.998Z</time></trkpt><trkpt lat="43.45218979067078" lon="11.842018261924224"><ele>248.0</ele><time>2026-04-04T07:52:46.998Z</time></trkpt><trkpt lat="43.45220043735831" lon="11.841930379405788"><ele>248.0</ele><time>2026-04-04T07:52:47.998Z</time></trkpt><trkpt lat="43.45221392758746" lon="11.84184302807621"><ele>248.0</ele><time>2026-04-04T07:52:48.998Z</time></trkpt><trkpt lat="43.45222336387704" lon="11.84175599490202"><ele>248.00000000000003</ele><time>2026-04-04T07:52:49.998Z</time></trkpt><trkpt lat="43.45223797369971" lon="11.841581208896756"><ele>248.0</ele><time>2026-04-04T07:52:51.998Z</time></trkpt><trkpt lat="43.45224514965721" lon="11.84140775875905"><ele>248.0</ele><time>2026-04-04T07:52:53.998Z</time></trkpt><trkpt lat="43.45224724391822" lon="11.841321042101097"><ele>248.0</ele><time>2026-04-04T07:52:54.998Z</time></trkpt><trkpt lat="43.452248544350724" lon="11.841233582822635"><ele>248.0</ele><time>2026-04-04T07:52:55.998Z</time></trkpt><trkpt lat="43.452250664462426" lon="11.841061564858943"><ele>248.0</ele><time>2026-04-04T07:52:57.998Z</time></trkpt><trkpt lat="43.45225158000229" lon="11.840888213800207"><ele>248.0</ele><time>2026-04-04T07:52:59.998Z</time></trkpt><trkpt lat="43.452249650864175" lon="11.840714665057254"><ele>248.0</ele><time>2026-04-04T07:53:02.001Z</time></trkpt><trkpt lat="43.452242496349065" lon="11.840542112891551"><ele>248.0</ele><time>2026-04-04T07:53:04Z</time></trkpt><trkpt lat="43.452233726564934" lon="11.840369842585993"><ele>248.0</ele><time>2026-04-04T07:53:06Z</time></trkpt><trkpt lat="43.45222085854902" lon="11.840198957557707"><ele>248.0</ele><time>2026-04-04T07:53:08Z</time></trkpt><trkpt lat="43.45220775626106" lon="11.840028455036737"><ele>247.85714285714286</ele><time>2026-04-04T07:53:10Z</time></trkpt><trkpt lat="43.4521968582872" lon="11.8398567249751"><ele>247.71428571428572</ele><time>2026-04-04T07:53:12Z</time></trkpt><trkpt lat="43.452189106899844" lon="11.839768866449834"><ele>247.57142857142858</ele><time>2026-04-04T07:53:13Z</time></trkpt><trkpt lat="43.452181148428096" lon="11.839679264559932"><ele>247.42857142857144</ele><time>2026-04-04T07:53:14Z</time></trkpt><trkpt lat="43.45217419887581" lon="11.83958970953334"><ele>247.28571428571428</ele><time>2026-04-04T07:53:15Z</time></trkpt><trkpt lat="43.45216753506533" lon="11.839500091479911"><ele>247.14285714285717</ele><time>2026-04-04T07:53:16Z</time></trkpt><trkpt lat="43.4521629510108" lon="11.839412653045402"><ele>247.0</ele><time>2026-04-04T07:53:17Z</time></trkpt><trkpt lat="43.45216001642584" lon="11.839322843819254"><ele>246.85714285714286</ele><time>2026-04-04T07:53:18Z</time></trkpt><trkpt lat="43.4521578482281" lon="11.839231702713604"><ele>246.71428571428572</ele><time>2026-04-04T07:53:19Z</time></trkpt><trkpt lat="43.452155477260284" lon="11.839143513630138"><ele>246.57142857142858</ele><time>2026-04-04T07:53:20Z</time></trkpt><trkpt lat="43.45215479026249" lon="11.839054142356837"><ele>246.42857142857144</ele><time>2026-04-04T07:53:21Z</time></trkpt><trkpt lat="43.452154856591" lon="11.838965896458214"><ele>246.28571428571428</ele><time>2026-04-04T07:53:22Z</time></trkpt><trkpt lat="43.45215260845577" lon="11.838878173959838"><ele>246.14285714285717</ele><time>2026-04-04T07:53:23Z</time></trkpt><trkpt lat="43.45215050818934" lon="11.838705897614943"><ele>246.00000000000003</ele><time>2026-04-04T07:53:25Z</time></trkpt><trkpt lat="43.45214555999365" lon="11.838530881313574"><ele>246.00000000000003</ele><time>2026-04-04T07:53:27Z</time></trkpt><trkpt lat="43.452143371858355" lon="11.838442471779565"><ele>246.0</ele><time>2026-04-04T07:53:28Z</time></trkpt><trkpt lat="43.45214065508935" lon="11.838354088003223"><ele>246.00000000000003</ele><time>2026-04-04T07:53:29Z</time></trkpt><trkpt lat="43.45213689850741" lon="11.838265545370227"><ele>246.00000000000003</ele><time>2026-04-04T07:53:30Z</time></trkpt><trkpt lat="43.452133664788455" lon="11.838176801190636"><ele>246.0</ele><time>2026-04-04T07:53:31Z</time></trkpt><trkpt lat="43.45213145917561" lon="11.838088576621193"><ele>246.00000000000003</ele><time>2026-04-04T07:53:32Z</time></trkpt><trkpt lat="43.45212777128292" lon="11.8379155683268"><ele>246.00000000000003</ele><time>2026-04-04T07:53:34Z</time></trkpt><trkpt lat="43.45212592442696" lon="11.837827031285176"><ele>246.00000000000003</ele><time>2026-04-04T07:53:35Z</time></trkpt><trkpt lat="43.4521245248267" lon="11.837738850045062"><ele>246.0</ele><time>2026-04-04T07:53:36Z</time></trkpt><trkpt lat="43.45212287937958" lon="11.837647412966946"><ele>246.00000000000003</ele><time>2026-04-04T07:53:37Z</time></trkpt><trkpt lat="43.45212372118526" lon="11.837555726255964"><ele>246.00000000000003</ele><time>2026-04-04T07:53:38Z</time></trkpt><trkpt lat="43.45212386108654" lon="11.837464258793167"><ele>246.0</ele><time>2026-04-04T07:53:39Z</time></trkpt><trkpt lat="43.452125268932406" lon="11.837372487863462"><ele>246.00000000000003</ele><time>2026-04-04T07:53:40Z</time></trkpt><trkpt lat="43.45212653277497" lon="11.837280512961156"><ele>246.00000000000003</ele><time>2026-04-04T07:53:41Z</time></trkpt><trkpt lat="43.452129994380826" lon="11.837189014535781"><ele>245.8571428571429</ele><time>2026-04-04T07:53:42Z</time></trkpt><trkpt lat="43.452135263410256" lon="11.83709702653819"><ele>245.71428571428572</ele><time>2026-04-04T07:53:43Z</time></trkpt><trkpt lat="43.4521408085615" lon="11.837004233678174"><ele>245.57142857142858</ele><time>2026-04-04T07:53:44Z</time></trkpt><trkpt lat="43.45214862413409" lon="11.836912786187458"><ele>245.42857142857144</ele><time>2026-04-04T07:53:45Z</time></trkpt><trkpt lat="43.45215627361224" lon="11.836822569514009"><ele>245.28571428571428</ele><time>2026-04-04T07:53:46Z</time></trkpt><trkpt lat="43.452164062906014" lon="11.836730537179609"><ele>245.14285714285714</ele><time>2026-04-04T07:53:47Z</time></trkpt><trkpt lat="43.45217290054862" lon="11.836640432314645"><ele>245.0</ele><time>2026-04-04T07:53:48Z</time></trkpt><trkpt lat="43.45218323720149" lon="11.836546889903728"><ele>244.85714285714286</ele><time>2026-04-04T07:53:49Z</time></trkpt><trkpt lat="43.45219351815919" lon="11.836456145317008"><ele>244.71428571428572</ele><time>2026-04-04T07:53:49.999Z</time></trkpt><trkpt lat="43.45220578943213" lon="11.83636684510094"><ele>244.57142857142856</ele><time>2026-04-04T07:53:50.999Z</time></trkpt><trkpt lat="43.45221560969115" lon="11.836277737454003"><ele>244.42857142857142</ele><time>2026-04-04T07:53:51.999Z</time></trkpt><trkpt lat="43.452225590459456" lon="11.836186982384945"><ele>244.28571428571428</ele><time>2026-04-04T07:53:52.999Z</time></trkpt><trkpt lat="43.45223773582823" lon="11.836098144904216"><ele>244.1428571428571</ele><time>2026-04-04T07:53:53.999Z</time></trkpt><trkpt lat="43.45224726666466" lon="11.836009839935105"><ele>243.99999999999997</ele><time>2026-04-04T07:53:54.999Z</time></trkpt><trkpt lat="43.452258168666546" lon="11.835921492931865"><ele>244.25</ele><time>2026-04-04T07:53:55.999Z</time></trkpt><trkpt lat="43.45227189443423" lon="11.83583478587367"><ele>244.5</ele><time>2026-04-04T07:53:56.999Z</time></trkpt><trkpt lat="43.45228730374543" lon="11.835748464880188"><ele>244.75</ele><time>2026-04-04T07:53:57.999Z</time></trkpt><trkpt lat="43.452304285201194" lon="11.835664083129432"><ele>245.0</ele><time>2026-04-04T07:53:58.999Z</time></trkpt><trkpt lat="43.45232448317031" lon="11.835580064354904"><ele>245.25</ele><time>2026-04-04T07:53:59.999Z</time></trkpt><trkpt lat="43.45234837971927" lon="11.835498926423428"><ele>245.5</ele><time>2026-04-04T07:54:00.999Z</time></trkpt><trkpt lat="43.45237640713917" lon="11.835420136479545"><ele>245.75</ele><time>2026-04-04T07:54:01.999Z</time></trkpt><trkpt lat="43.45240490448777" lon="11.835341309969545"><ele>246.0</ele><time>2026-04-04T07:54:02.999Z</time></trkpt><trkpt lat="43.452469796339294" lon="11.83519763962896"><ele>246.0</ele><time>2026-04-04T07:54:04.999Z</time></trkpt><trkpt lat="43.45250561957222" lon="11.835125875033413"><ele>246.0</ele><time>2026-04-04T07:54:05.999Z</time></trkpt><trkpt lat="43.45257448126151" lon="11.834982231647752"><ele>246.0</ele><time>2026-04-04T07:54:07.999Z</time></trkpt><trkpt lat="43.45260949891737" lon="11.834909812293425"><ele>246.0</ele><time>2026-04-04T07:54:08.999Z</time></trkpt><trkpt lat="43.452643731555504" lon="11.834834926383886"><ele>246.0</ele><time>2026-04-04T07:54:09.999Z</time></trkpt><trkpt lat="43.452710197807" lon="11.834691855433762"><ele>246.0</ele><time>2026-04-04T07:54:11.999Z</time></trkpt><trkpt lat="43.45274607532744" lon="11.834620031453632"><ele>246.0</ele><time>2026-04-04T07:54:12.999Z</time></trkpt><trkpt lat="43.45281541259174" lon="11.834474748607517"><ele>246.00000000000003</ele><time>2026-04-04T07:54:14.999Z</time></trkpt><trkpt lat="43.452884092881106" lon="11.834328259198607"><ele>246.00000000000003</ele><time>2026-04-04T07:54:16.999Z</time></trkpt><trkpt lat="43.4529189039855" lon="11.834254544883292"><ele>246.0</ele><time>2026-04-04T07:54:17.999Z</time></trkpt><trkpt lat="43.45297858773728" lon="11.834109068266352"><ele>246.0</ele><time>2026-04-04T07:54:19.999Z</time></trkpt><trkpt lat="43.45302817774671" lon="11.83397446530715"><ele>246.0</ele><time>2026-04-04T07:54:21.999Z</time></trkpt><trkpt lat="43.453066794309635" lon="11.833886805423544"><ele>246.0</ele><time>2026-04-04T07:55:11Z</time></trkpt><trkpt lat="43.45309545568636" lon="11.833786847143775"><ele>246.0</ele><time>2026-04-04T07:55:14Z</time></trkpt><trkpt lat="43.45312567395464" lon="11.833701298421452"><ele>246.0</ele><time>2026-04-04T07:55:16Z</time></trkpt><trkpt lat="43.45316119347866" lon="11.833596359021373"><ele>246.0</ele><time>2026-04-04T07:55:18Z</time></trkpt><trkpt lat="43.45319382207071" lon="11.833478169837392"><ele>246.0</ele><time>2026-04-04T07:55:20Z</time></trkpt><trkpt lat="43.453233292894176" lon="11.833354156296723"><ele>246.0</ele><time>2026-04-04T07:55:22Z</time></trkpt><trkpt lat="43.45327439507394" lon="11.833214848544023"><ele>246.0</ele><time>2026-04-04T07:55:24Z</time></trkpt><trkpt lat="43.453317691576245" lon="11.833072064275388"><ele>246.0</ele><time>2026-04-04T07:55:26Z</time></trkpt><trkpt lat="43.45336358087751" lon="11.832919617272783"><ele>246.0</ele><time>2026-04-04T07:55:28Z</time></trkpt><trkpt lat="43.45341450699155" lon="11.832767307567979"><ele>245.83333333333334</ele><time>2026-04-04T07:55:30Z</time></trkpt><trkpt lat="43.45346228047956" lon="11.83261143406038"><ele>245.66666666666669</ele><time>2026-04-04T07:55:32Z</time></trkpt><trkpt lat="43.4534848421641" lon="11.83252910527173"><ele>245.5</ele><time>2026-04-04T07:55:33Z</time></trkpt><trkpt lat="43.45350924277282" lon="11.832446655402821"><ele>245.33333333333334</ele><time>2026-04-04T07:55:34Z</time></trkpt><trkpt lat="43.45353089572841" lon="11.832362639989908"><ele>245.16666666666669</ele><time>2026-04-04T07:55:35Z</time></trkpt><trkpt lat="43.45358562400094" lon="11.832206560064556"><ele>245.0</ele><time>2026-04-04T07:55:37Z</time></trkpt><trkpt lat="43.453612868177075" lon="11.83212562312826"><ele>245.00000000000003</ele><time>2026-04-04T07:55:38Z</time></trkpt><trkpt lat="43.45363784459372" lon="11.832041956240909"><ele>245.0</ele><time>2026-04-04T07:55:39Z</time></trkpt><trkpt lat="43.453687714604165" lon="11.831878200848946"><ele>245.0</ele><time>2026-04-04T07:55:41Z</time></trkpt><trkpt lat="43.453714123477766" lon="11.831793285862286"><ele>245.0</ele><time>2026-04-04T07:55:42Z</time></trkpt><trkpt lat="43.45373618629877" lon="11.831710747858217"><ele>245.00000000000003</ele><time>2026-04-04T07:55:43Z</time></trkpt><trkpt lat="43.45376751215463" lon="11.831623900058602"><ele>245.0</ele><time>2026-04-04T07:55:44Z</time></trkpt><trkpt lat="43.45379316096481" lon="11.831540083701153"><ele>245.00000000000003</ele><time>2026-04-04T07:55:45Z</time></trkpt><trkpt lat="43.45383739268631" lon="11.83137214559674"><ele>245.0</ele><time>2026-04-04T07:55:47Z</time></trkpt><trkpt lat="43.453868593195196" lon="11.831282974555817"><ele>245.0</ele><time>2026-04-04T07:55:48Z</time></trkpt><trkpt lat="43.453893582077974" lon="11.831196849467798"><ele>245.0</ele><time>2026-04-04T07:55:49Z</time></trkpt><trkpt lat="43.45392019373926" lon="11.83111335417074"><ele>245.00000000000003</ele><time>2026-04-04T07:55:50Z</time></trkpt><trkpt lat="43.453950291934824" lon="11.831021245430481"><ele>245.0</ele><time>2026-04-04T07:55:51Z</time></trkpt><trkpt lat="43.45398072232124" lon="11.830940077315992"><ele>245.14285714285714</ele><time>2026-04-04T07:55:51.999Z</time></trkpt><trkpt lat="43.45400400455028" lon="11.830854487979025"><ele>245.28571428571428</ele><time>2026-04-04T07:55:52.999Z</time></trkpt><trkpt lat="43.45402928023073" lon="11.830770121235089"><ele>245.42857142857144</ele><time>2026-04-04T07:55:53.999Z</time></trkpt><trkpt lat="43.45405556359923" lon="11.830684730984887"><ele>245.57142857142858</ele><time>2026-04-04T07:55:54.999Z</time></trkpt><trkpt lat="43.45408932423517" lon="11.83060311523559"><ele>245.71428571428572</ele><time>2026-04-04T07:55:55.999Z</time></trkpt><trkpt lat="43.45412249341671" lon="11.830523215076846"><ele>245.8571428571429</ele><time>2026-04-04T07:55:56.999Z</time></trkpt><trkpt lat="43.45415678398453" lon="11.830444796727503"><ele>246.00000000000003</ele><time>2026-04-04T07:55:57.999Z</time></trkpt><trkpt lat="43.45418957670202" lon="11.83035811398027"><ele>246.00000000000003</ele><time>2026-04-04T07:55:58.999Z</time></trkpt><trkpt lat="43.4542200108044" lon="11.830270199199177"><ele>246.0</ele><time>2026-04-04T07:55:59.999Z</time></trkpt><trkpt lat="43.454250291048766" lon="11.830186100146465"><ele>246.00000000000003</ele><time>2026-04-04T07:56:00.999Z</time></trkpt><trkpt lat="43.454280760994735" lon="11.830106434861383"><ele>246.00000000000003</ele><time>2026-04-04T07:56:01.999Z</time></trkpt><trkpt lat="43.45431369303182" lon="11.830024371075346"><ele>246.0</ele><time>2026-04-04T07:56:02.999Z</time></trkpt><trkpt lat="43.45434526602737" lon="11.829944284435637"><ele>246.00000000000003</ele><time>2026-04-04T07:56:03.999Z</time></trkpt><trkpt lat="43.45438033574952" lon="11.829867049925376"><ele>246.00000000000003</ele><time>2026-04-04T07:56:04.999Z</time></trkpt><trkpt lat="43.45441672580443" lon="11.829780417699933"><ele>246.00000000000003</ele><time>2026-04-04T07:56:05.999Z</time></trkpt><trkpt lat="43.45445171244769" lon="11.829702200772987"><ele>246.0</ele><time>2026-04-04T07:56:06.999Z</time></trkpt><trkpt lat="43.45448937489371" lon="11.82962787987045"><ele>246.00000000000003</ele><time>2026-04-04T07:56:07.999Z</time></trkpt><trkpt lat="43.454527604153846" lon="11.829557358578066"><ele>246.00000000000003</ele><time>2026-04-04T07:56:08.999Z</time></trkpt><trkpt lat="43.454566875446666" lon="11.829479312686473"><ele>246.0</ele><time>2026-04-04T07:56:09.999Z</time></trkpt><trkpt lat="43.45461203654743" lon="11.829405944922856"><ele>246.00000000000003</ele><time>2026-04-04T07:56:10.999Z</time></trkpt><trkpt lat="43.45465940912444" lon="11.829340606744688"><ele>246.00000000000003</ele><time>2026-04-04T07:56:11.999Z</time></trkpt><trkpt lat="43.45470362987567" lon="11.829270729039486"><ele>245.8571428571429</ele><time>2026-04-04T07:56:12.999Z</time></trkpt><trkpt lat="43.45475005364808" lon="11.82920810728484"><ele>245.71428571428572</ele><time>2026-04-04T07:56:13.999Z</time></trkpt><trkpt lat="43.454796935089995" lon="11.829144780975605"><ele>245.57142857142858</ele><time>2026-04-04T07:56:14.999Z</time></trkpt><trkpt lat="43.454846485512135" lon="11.829080388471656"><ele>245.42857142857144</ele><time>2026-04-04T07:56:15.999Z</time></trkpt><trkpt lat="43.45489295009933" lon="11.829018295337038"><ele>245.28571428571428</ele><time>2026-04-04T07:56:16.999Z</time></trkpt><trkpt lat="43.45494605437205" lon="11.828958568776688"><ele>245.14285714285714</ele><time>2026-04-04T07:56:17.999Z</time></trkpt><trkpt lat="43.454993295824984" lon="11.828896375314951"><ele>245.0</ele><time>2026-04-04T07:56:18.999Z</time></trkpt><trkpt lat="43.45503980587671" lon="11.828834428736243"><ele>245.00000000000003</ele><time>2026-04-04T07:56:19.999Z</time></trkpt><trkpt lat="43.455089518339854" lon="11.82877180906456"><ele>245.0</ele><time>2026-04-04T07:56:20.999Z</time></trkpt><trkpt lat="43.45513319198372" lon="11.828703423155737"><ele>245.0</ele><time>2026-04-04T07:56:21.999Z</time></trkpt><trkpt lat="43.45517878070613" lon="11.828634511152401"><ele>245.0</ele><time>2026-04-04T07:56:22.999Z</time></trkpt><trkpt lat="43.45525672234923" lon="11.82850317314771"><ele>245.00000000000003</ele><time>2026-04-04T07:56:24.999Z</time></trkpt><trkpt lat="43.45528962401943" lon="11.828422382417173"><ele>245.0</ele><time>2026-04-04T07:56:25.999Z</time></trkpt><trkpt lat="43.455332715722" lon="11.828348627601512"><ele>245.16666666666669</ele><time>2026-04-04T07:56:26.999Z</time></trkpt><trkpt lat="43.455373657527" lon="11.82828029641263"><ele>245.33333333333334</ele><time>2026-04-04T07:56:27.999Z</time></trkpt><trkpt lat="43.45540868251006" lon="11.828206178857087"><ele>245.5</ele><time>2026-04-04T07:56:28.999Z</time></trkpt><trkpt lat="43.45544449218868" lon="11.828132298005002"><ele>245.66666666666669</ele><time>2026-04-04T07:56:29.999Z</time></trkpt><trkpt lat="43.455484581731795" lon="11.828060958937495"><ele>245.83333333333334</ele><time>2026-04-04T07:56:30.999Z</time></trkpt><trkpt lat="43.45552979510853" lon="11.827997027519041"><ele>246.0</ele><time>2026-04-04T07:56:31.999Z</time></trkpt><trkpt lat="43.4556225469471" lon="11.827876031253297"><ele>246.00000000000003</ele><time>2026-04-04T07:56:33.999Z</time></trkpt><trkpt lat="43.45567183634197" lon="11.827819307477464"><ele>246.0</ele><time>2026-04-04T07:56:34.999Z</time></trkpt><trkpt lat="43.45572548694229" lon="11.82776534528996"><ele>246.00000000000003</ele><time>2026-04-04T07:56:35.999Z</time></trkpt><trkpt lat="43.4557777034053" lon="11.827711522998655"><ele>246.00000000000003</ele><time>2026-04-04T07:56:36.999Z</time></trkpt><trkpt lat="43.45582776243282" lon="11.827655343472385"><ele>246.0</ele><time>2026-04-04T07:56:37.999Z</time></trkpt><trkpt lat="43.45587888586218" lon="11.827598160021877"><ele>246.00000000000003</ele><time>2026-04-04T07:56:38.999Z</time></trkpt><trkpt lat="43.455928072535066" lon="11.827537948578106"><ele>246.00000000000003</ele><time>2026-04-04T07:56:39.999Z</time></trkpt><trkpt lat="43.45597701549906" lon="11.82747461491939"><ele>245.83333333333334</ele><time>2026-04-04T07:56:40.998Z</time></trkpt><trkpt lat="43.45602165813767" lon="11.827411283527185"><ele>245.66666666666669</ele><time>2026-04-04T07:56:41.998Z</time></trkpt><trkpt lat="43.45606207815159" lon="11.827342935482372"><ele>245.5</ele><time>2026-04-04T07:56:42.998Z</time></trkpt><trkpt lat="43.45613817990227" lon="11.827225320567111"><ele>245.33333333333334</ele><time>2026-04-04T07:56:44.998Z</time></trkpt><trkpt lat="43.45619273004099" lon="11.827148527770875"><ele>245.16666666666669</ele><time>2026-04-04T07:56:45.998Z</time></trkpt><trkpt lat="43.45627242757819" lon="11.827029804723677"><ele>245.0</ele><time>2026-04-04T07:56:47.998Z</time></trkpt><trkpt lat="43.456356839729374" lon="11.826908401122274"><ele>245.0</ele><time>2026-04-04T07:56:49.998Z</time></trkpt><trkpt lat="43.45640318704613" lon="11.826841582676145"><ele>245.0</ele><time>2026-04-04T07:56:50.998Z</time></trkpt><trkpt lat="43.45645037732133" lon="11.826777565843257"><ele>245.0</ele><time>2026-04-04T07:56:51.998Z</time></trkpt><trkpt lat="43.45649750640963" lon="11.826712884220779"><ele>245.0</ele><time>2026-04-04T07:56:52.998Z</time></trkpt><trkpt lat="43.456544112878014" lon="11.826650589472017"><ele>245.0</ele><time>2026-04-04T07:56:53.998Z</time></trkpt><trkpt lat="43.456590924944" lon="11.82658709909036"><ele>245.0</ele><time>2026-04-04T07:56:54.998Z</time></trkpt><trkpt lat="43.45664209732739" lon="11.826527426103466"><ele>245.0</ele><time>2026-04-04T07:56:55.998Z</time></trkpt><trkpt lat="43.456690683212145" lon="11.826467985027106"><ele>245.0</ele><time>2026-04-04T07:56:56.998Z</time></trkpt><trkpt lat="43.45678835669825" lon="11.826361363452504"><ele>245.0</ele><time>2026-04-04T07:56:58.998Z</time></trkpt><trkpt lat="43.45688014007532" lon="11.826260958964305"><ele>245.0</ele><time>2026-04-04T07:57:00.998Z</time></trkpt><trkpt lat="43.45696414201445" lon="11.826185778823202"><ele>245.0</ele><time>2026-04-04T07:57:02.998Z</time></trkpt><trkpt lat="43.457045461073804" lon="11.826147373182465"><ele>245.0</ele><time>2026-04-04T07:57:04.998Z</time></trkpt><trkpt lat="43.457160378047504" lon="11.826096571873407"><ele>245.0</ele><time>2026-04-04T07:57:06.998Z</time></trkpt><trkpt lat="43.45722384330881" lon="11.82607394574092"><ele>245.0</ele><time>2026-04-04T07:57:07.998Z</time></trkpt><trkpt lat="43.457288468411804" lon="11.82604389049724"><ele>245.0</ele><time>2026-04-04T07:57:08.998Z</time></trkpt><trkpt lat="43.45741647745528" lon="11.826004416627322"><ele>245.0</ele><time>2026-04-04T07:57:10.998Z</time></trkpt><trkpt lat="43.457534219632166" lon="11.825957028472969"><ele>245.0</ele><time>2026-04-04T07:57:13Z</time></trkpt><trkpt lat="43.45765141949617" lon="11.82591161964825"><ele>244.8</ele><time>2026-04-04T07:57:15Z</time></trkpt><trkpt lat="43.45771538995536" lon="11.825887054321392"><ele>244.6</ele><time>2026-04-04T07:57:16Z</time></trkpt><trkpt lat="43.457839042800295" lon="11.825844547619313"><ele>244.39999999999998</ele><time>2026-04-04T07:57:18Z</time></trkpt><trkpt lat="43.45790088115126" lon="11.82582469415127"><ele>244.2</ele><time>2026-04-04T07:57:19Z</time></trkpt><trkpt lat="43.458018651525094" lon="11.82577345088661"><ele>244.0</ele><time>2026-04-04T07:57:21Z</time></trkpt><trkpt lat="43.45814106615168" lon="11.825724707570783"><ele>244.0</ele><time>2026-04-04T07:57:23Z</time></trkpt><trkpt lat="43.45826015277288" lon="11.825678433672865"><ele>244.0</ele><time>2026-04-04T07:57:25Z</time></trkpt><trkpt lat="43.45837744968476" lon="11.825635095643825"><ele>244.0</ele><time>2026-04-04T07:57:27Z</time></trkpt><trkpt lat="43.45849401916132" lon="11.825593365356907"><ele>244.0</ele><time>2026-04-04T07:57:29Z</time></trkpt><trkpt lat="43.45860878386" lon="11.825545692224384"><ele>244.0</ele><time>2026-04-04T07:57:31Z</time></trkpt><trkpt lat="43.45872387328894" lon="11.82549939982042"><ele>244.0</ele><time>2026-04-04T07:57:33Z</time></trkpt><trkpt lat="43.45883492700767" lon="11.825445710887449"><ele>244.0</ele><time>2026-04-04T07:57:35Z</time></trkpt><trkpt lat="43.45895094732793" lon="11.825391471864164"><ele>244.0</ele><time>2026-04-04T07:57:37Z</time></trkpt><trkpt lat="43.459071061646085" lon="11.825349946388107"><ele>244.2</ele><time>2026-04-04T07:57:39Z</time></trkpt><trkpt lat="43.45919189827378" lon="11.825305923741881"><ele>244.39999999999998</ele><time>2026-04-04T07:57:41Z</time></trkpt><trkpt lat="43.4593093064448" lon="11.825264177485735"><ele>244.6</ele><time>2026-04-04T07:57:43Z</time></trkpt><trkpt lat="43.45942739030729" lon="11.825222848734272"><ele>244.8</ele><time>2026-04-04T07:57:45Z</time></trkpt><trkpt lat="43.45948900548207" lon="11.825205008935008"><ele>245.0</ele><time>2026-04-04T07:57:46Z</time></trkpt><trkpt lat="43.459612869605515" lon="11.825170342772822"><ele>245.2</ele><time>2026-04-04T07:57:48Z</time></trkpt><trkpt lat="43.459675278580896" lon="11.82515136008118"><ele>245.4</ele><time>2026-04-04T07:57:49Z</time></trkpt><trkpt lat="43.45979296477505" lon="11.825110629270295"><ele>245.60000000000002</ele><time>2026-04-04T07:57:51Z</time></trkpt><trkpt lat="43.45990797632669" lon="11.825055961331428"><ele>245.8</ele><time>2026-04-04T07:57:53Z</time></trkpt><trkpt lat="43.46001225378843" lon="11.825005758652557"><ele>246.0</ele><time>2026-04-04T07:57:54.999Z</time></trkpt><trkpt lat="43.46011770584628" lon="11.824972589008595"><ele>246.0</ele><time>2026-04-04T07:57:56.999Z</time></trkpt><trkpt lat="43.46021731962211" lon="11.824938219668683"><ele>246.0</ele><time>2026-04-04T07:57:58.999Z</time></trkpt><trkpt lat="43.4603065531276" lon="11.824911879891689"><ele>246.0</ele><time>2026-04-04T07:58:00.999Z</time></trkpt><trkpt lat="43.460374196082036" lon="11.824924711050022"><ele>246.0</ele><time>2026-04-04T07:58:03.999Z</time></trkpt><trkpt lat="43.46044074927664" lon="11.82499838872222"><ele>246.0</ele><time>2026-04-04T07:58:05.999Z</time></trkpt><trkpt lat="43.46050007044149" lon="11.825032811756461"><ele>246.0</ele><time>2026-04-04T07:58:07.999Z</time></trkpt><trkpt lat="43.460567710513274" lon="11.825033174516442"><ele>246.20000000000002</ele><time>2026-04-04T07:58:10.999Z</time></trkpt><trkpt lat="43.46063279855173" lon="11.825011458095002"><ele>246.40000000000003</ele><time>2026-04-04T07:58:17.999Z</time></trkpt><trkpt lat="43.46068646299031" lon="11.824924219793914"><ele>246.6</ele><time>2026-04-04T07:58:19.999Z</time></trkpt><trkpt lat="43.46065188611249" lon="11.824800893796226"><ele>246.8</ele><time>2026-04-04T07:58:21.999Z</time></trkpt><trkpt lat="43.460618646649515" lon="11.82465597865795"><ele>247.0</ele><time>2026-04-04T07:58:23.999Z</time></trkpt><trkpt lat="43.46058732776871" lon="11.824510235176254"><ele>247.0</ele><time>2026-04-04T07:58:25.999Z</time></trkpt><trkpt lat="43.46054810678097" lon="11.824358349655158"><ele>247.0</ele><time>2026-04-04T07:58:27.999Z</time></trkpt><trkpt lat="43.46050931983611" lon="11.824207815666675"><ele>247.0</ele><time>2026-04-04T07:58:29.999Z</time></trkpt><trkpt lat="43.46046022441513" lon="11.824053883926712"><ele>247.0</ele><time>2026-04-04T07:58:31.999Z</time></trkpt><trkpt lat="43.460436427645014" lon="11.823973126155908"><ele>247.0</ele><time>2026-04-04T07:58:32.999Z</time></trkpt><trkpt lat="43.46040732725668" lon="11.823893696866834"><ele>246.66666666666666</ele><time>2026-04-04T07:58:33.999Z</time></trkpt><trkpt lat="43.46038157871678" lon="11.823814297343839"><ele>246.33333333333331</ele><time>2026-04-04T07:58:34.999Z</time></trkpt><trkpt lat="43.46032558736232" lon="11.823659516295967"><ele>246.0</ele><time>2026-04-04T07:58:36.999Z</time></trkpt><trkpt lat="43.460295092201655" lon="11.823578872975814"><ele>245.66666666666669</ele><time>2026-04-04T07:58:37.999Z</time></trkpt><trkpt lat="43.46026233266349" lon="11.823498836312758"><ele>245.33333333333334</ele><time>2026-04-04T07:58:38.999Z</time></trkpt><trkpt lat="43.4602313232874" lon="11.823418032854981"><ele>245.0</ele><time>2026-04-04T07:58:39.999Z</time></trkpt><trkpt lat="43.460199988355015" lon="11.823337620783022"><ele>244.85714285714286</ele><time>2026-04-04T07:58:40.999Z</time></trkpt><trkpt lat="43.46016951991128" lon="11.823258739417586"><ele>244.71428571428572</ele><time>2026-04-04T07:58:41.998Z</time></trkpt><trkpt lat="43.460134192820824" lon="11.823179954674659"><ele>244.57142857142856</ele><time>2026-04-04T07:58:42.998Z</time></trkpt><trkpt lat="43.46010779952132" lon="11.823095029854608"><ele>244.42857142857142</ele><time>2026-04-04T07:58:43.998Z</time></trkpt><trkpt lat="43.46007984981889" lon="11.823006952657511"><ele>244.28571428571428</ele><time>2026-04-04T07:58:44.998Z</time></trkpt><trkpt lat="43.460069916997064" lon="11.822916121564486"><ele>244.1428571428571</ele><time>2026-04-04T07:58:45.998Z</time></trkpt><trkpt lat="43.460060702102254" lon="11.822823913168495"><ele>243.99999999999997</ele><time>2026-04-04T07:58:46.998Z</time></trkpt><trkpt lat="43.46005672816105" lon="11.822734323065147"><ele>243.99999999999997</ele><time>2026-04-04T07:58:47.998Z</time></trkpt><trkpt lat="43.46005851178708" lon="11.822644103353495"><ele>244.0</ele><time>2026-04-04T07:58:48.998Z</time></trkpt><trkpt lat="43.460059462958284" lon="11.822554857524002"><ele>243.99999999999997</ele><time>2026-04-04T07:58:49.998Z</time></trkpt><trkpt lat="43.46007124544396" lon="11.82246950533944"><ele>243.99999999999997</ele><time>2026-04-04T07:58:50.998Z</time></trkpt><trkpt lat="43.46008605932019" lon="11.822380445440698"><ele>244.0</ele><time>2026-04-04T07:58:51.998Z</time></trkpt><trkpt lat="43.46010131417755" lon="11.82229548081152"><ele>243.99999999999997</ele><time>2026-04-04T07:58:52.998Z</time></trkpt><trkpt lat="43.460125180309994" lon="11.82221399549641"><ele>243.99999999999997</ele><time>2026-04-04T07:58:53.998Z</time></trkpt><trkpt lat="43.46017854799546" lon="11.822063390858037"><ele>243.99999999999997</ele><time>2026-04-04T07:58:55.998Z</time></trkpt><trkpt lat="43.46021009241463" lon="11.821986262822625"><ele>244.0</ele><time>2026-04-04T07:58:56.998Z</time></trkpt><trkpt lat="43.460241522299555" lon="11.821907333348797"><ele>244.0</ele><time>2026-04-04T07:58:57.998Z</time></trkpt><trkpt lat="43.460309722819304" lon="11.821775880855254"><ele>244.0</ele><time>2026-04-04T07:58:59.998Z</time></trkpt><trkpt lat="43.460416964680526" lon="11.821749023728694"><ele>243.99999999999997</ele><time>2026-04-04T07:59:01.998Z</time></trkpt><trkpt lat="43.460473307019726" lon="11.821788194256674"><ele>244.0</ele><time>2026-04-04T07:59:02.998Z</time></trkpt><trkpt lat="43.46053829070974" lon="11.821927060362459"><ele>244.0</ele><time>2026-04-04T07:59:04.998Z</time></trkpt><trkpt lat="43.46062666927624" lon="11.822016086502249"><ele>243.99999999999997</ele><time>2026-04-04T07:59:06.998Z</time></trkpt><trkpt lat="43.460706031444005" lon="11.82211699037015"><ele>243.99999999999997</ele><time>2026-04-04T07:59:08.998Z</time></trkpt><trkpt lat="43.46077567238106" lon="11.822104076452344"><ele>244.0</ele><time>2026-04-04T07:59:09.998Z</time></trkpt><trkpt lat="43.46088629824411" lon="11.822058854104329"><ele>244.0</ele><time>2026-04-04T07:59:11.998Z</time></trkpt><trkpt lat="43.460967808531976" lon="11.821936126184395"><ele>243.83333333333331</ele><time>2026-04-04T07:59:13.998Z</time></trkpt><trkpt lat="43.46101084574209" lon="11.821764681712235"><ele>243.66666666666666</ele><time>2026-04-04T07:59:15.998Z</time></trkpt><trkpt lat="43.46099273040966" lon="11.821667717860082"><ele>243.5</ele><time>2026-04-04T07:59:16.998Z</time></trkpt><trkpt lat="43.46097066556083" lon="11.821583113541068"><ele>243.33333333333331</ele><time>2026-04-04T07:59:17.998Z</time></trkpt><trkpt lat="43.460927873394866" lon="11.821511992234502"><ele>243.16666666666666</ele><time>2026-04-04T07:59:19Z</time></trkpt><trkpt lat="43.460873200319256" lon="11.821455818434606"><ele>243.0</ele><time>2026-04-04T07:59:20Z</time></trkpt><trkpt lat="43.460809021644046" lon="11.821418999321175"><ele>243.0</ele><time>2026-04-04T07:59:21Z</time></trkpt><trkpt lat="43.46074759896891" lon="11.821381970292538"><ele>243.0</ele><time>2026-04-04T07:59:22Z</time></trkpt><trkpt lat="43.460655557475526" lon="11.82124665752571"><ele>243.0</ele><time>2026-04-04T07:59:24Z</time></trkpt><trkpt lat="43.46063006959517" lon="11.82105751685943"><ele>243.0</ele><time>2026-04-04T07:59:26Z</time></trkpt><trkpt lat="43.460651865529" lon="11.820964836999623"><ele>243.0</ele><time>2026-04-04T07:59:27Z</time></trkpt><trkpt lat="43.46071182690755" lon="11.820835105675407"><ele>242.0</ele><time>2026-04-04T07:59:29Z</time></trkpt><trkpt lat="43.46077092873154" lon="11.82071094734858"><ele>241.0</ele><time>2026-04-04T07:59:31Z</time></trkpt><trkpt lat="43.46082632191762" lon="11.820572953169416"><ele>240.0</ele><time>2026-04-04T07:59:33Z</time></trkpt><trkpt lat="43.46088097134537" lon="11.820423253190688"><ele>239.0</ele><time>2026-04-04T07:59:35Z</time></trkpt><trkpt lat="43.46093304627313" lon="11.82028348939048"><ele>239.5</ele><time>2026-04-04T07:59:37Z</time></trkpt><trkpt lat="43.46098616779241" lon="11.820142619690644"><ele>240.0</ele><time>2026-04-04T07:59:39Z</time></trkpt><trkpt lat="43.46104561706721" lon="11.819994046890105"><ele>240.5</ele><time>2026-04-04T07:59:41Z</time></trkpt><trkpt lat="43.46110149442056" lon="11.819850254077174"><ele>241.0</ele><time>2026-04-04T07:59:43Z</time></trkpt><trkpt lat="43.461168708682884" lon="11.819734195831789"><ele>241.0</ele><time>2026-04-04T07:59:45Z</time></trkpt><trkpt lat="43.46126215401125" lon="11.819647215593212"><ele>241.00000000000003</ele><time>2026-04-04T07:59:47Z</time></trkpt><trkpt lat="43.46133085778186" lon="11.819705593337257"><ele>241.00000000000003</ele><time>2026-04-04T07:59:48Z</time></trkpt><trkpt lat="43.46143508984256" lon="11.819697202494261"><ele>241.0</ele><time>2026-04-04T07:59:50Z</time></trkpt><trkpt lat="43.46153495984368" lon="11.81969895065424"><ele>241.0</ele><time>2026-04-04T07:59:52Z</time></trkpt><trkpt lat="43.461634816551076" lon="11.8197355299648"><ele>241.20000000000002</ele><time>2026-04-04T07:59:54Z</time></trkpt><trkpt lat="43.461725951128" lon="11.819795966586035"><ele>241.40000000000003</ele><time>2026-04-04T07:59:56Z</time></trkpt><trkpt lat="43.46181829554341" lon="11.819843282724731"><ele>241.6</ele><time>2026-04-04T07:59:57.999Z</time></trkpt><trkpt lat="43.46191476974717" lon="11.819848911758555"><ele>241.8</ele><time>2026-04-04T07:59:59.999Z</time></trkpt><trkpt lat="43.46202007830652" lon="11.819827475240553"><ele>242.0</ele><time>2026-04-04T08:00:01.999Z</time></trkpt><trkpt lat="43.462119828913735" lon="11.819792378298136"><ele>242.39999999999998</ele><time>2026-04-04T08:00:03.999Z</time></trkpt><trkpt lat="43.46221301716214" lon="11.819748079105276"><ele>242.79999999999998</ele><time>2026-04-04T08:00:05.999Z</time></trkpt><trkpt lat="43.462315134924005" lon="11.819701122479094"><ele>243.2</ele><time>2026-04-04T08:00:07.999Z</time></trkpt><trkpt lat="43.46241603671621" lon="11.819648226908317"><ele>243.6</ele><time>2026-04-04T08:00:09.999Z</time></trkpt><trkpt lat="43.462514903427724" lon="11.819594103560325"><ele>244.0</ele><time>2026-04-04T08:00:11.999Z</time></trkpt><trkpt lat="43.462613892882686" lon="11.819540543344132"><ele>244.0</ele><time>2026-04-04T08:00:13.999Z</time></trkpt><trkpt lat="43.46271201150002" lon="11.819486456331596"><ele>243.99999999999997</ele><time>2026-04-04T08:00:15.999Z</time></trkpt><trkpt lat="43.46281188620077" lon="11.81943497469296"><ele>243.99999999999997</ele><time>2026-04-04T08:00:17.999Z</time></trkpt><trkpt lat="43.462910429139555" lon="11.819382280043664"><ele>244.0</ele><time>2026-04-04T08:00:19.999Z</time></trkpt><trkpt lat="43.46300940343383" lon="11.81932860200733"><ele>244.0</ele><time>2026-04-04T08:00:21.999Z</time></trkpt><trkpt lat="43.463110693070156" lon="11.819278568615676"><ele>244.6</ele><time>2026-04-04T08:00:23.999Z</time></trkpt><trkpt lat="43.46321144526888" lon="11.819225543688514"><ele>245.2</ele><time>2026-04-04T08:00:25.999Z</time></trkpt><trkpt lat="43.463315963474756" lon="11.819176977686725"><ele>245.79999999999998</ele><time>2026-04-04T08:00:27.999Z</time></trkpt><trkpt lat="43.46342025272797" lon="11.819126714458442"><ele>246.39999999999998</ele><time>2026-04-04T08:00:29.999Z</time></trkpt><trkpt lat="43.463525214899754" lon="11.819082128352463"><ele>247.0</ele><time>2026-04-04T08:00:31.999Z</time></trkpt><trkpt lat="43.46363136459901" lon="11.819036756213736"><ele>247.0</ele><time>2026-04-04T08:00:33.999Z</time></trkpt><trkpt lat="43.46373362714403" lon="11.818995743108365"><ele>247.0</ele><time>2026-04-04T08:00:35.999Z</time></trkpt><trkpt lat="43.46383621159162" lon="11.818953468099453"><ele>247.0</ele><time>2026-04-04T08:00:37.999Z</time></trkpt><trkpt lat="43.46393916381439" lon="11.818916145780902"><ele>247.0</ele><time>2026-04-04T08:00:39.999Z</time></trkpt><trkpt lat="43.46403948120899" lon="11.818877868045213"><ele>247.0</ele><time>2026-04-04T08:00:41.999Z</time></trkpt><trkpt lat="43.464139486900784" lon="11.818839620239569"><ele>246.8</ele><time>2026-04-04T08:00:43.999Z</time></trkpt><trkpt lat="43.464238035789485" lon="11.818802033729847"><ele>246.6</ele><time>2026-04-04T08:00:45.998Z</time></trkpt><trkpt lat="43.464337393424" lon="11.818765673395323"><ele>246.40000000000003</ele><time>2026-04-04T08:00:47.998Z</time></trkpt><trkpt lat="43.46443610504281" lon="11.818729574797372"><ele>246.20000000000002</ele><time>2026-04-04T08:00:49.998Z</time></trkpt><trkpt lat="43.46453437570029" lon="11.818693652195181"><ele>246.0</ele><time>2026-04-04T08:00:51.998Z</time></trkpt><trkpt lat="43.46463440735247" lon="11.818658375851221"><ele>245.8</ele><time>2026-04-04T08:00:53.998Z</time></trkpt><trkpt lat="43.46473136962248" lon="11.818621054587018"><ele>245.60000000000002</ele><time>2026-04-04T08:00:55.998Z</time></trkpt><trkpt lat="43.4648289087089" lon="11.818582700340512"><ele>245.4</ele><time>2026-04-04T08:00:57.998Z</time></trkpt><trkpt lat="43.46492793431574" lon="11.818548459995188"><ele>245.2</ele><time>2026-04-04T08:00:59.998Z</time></trkpt><trkpt lat="43.46502361310969" lon="11.818511689527826"><ele>245.0</ele><time>2026-04-04T08:01:01.998Z</time></trkpt><trkpt lat="43.46511867131714" lon="11.818478045562044"><ele>245.8</ele><time>2026-04-04T08:01:03.998Z</time></trkpt><trkpt lat="43.46521368823247" lon="11.818445499907995"><ele>246.6</ele><time>2026-04-04T08:01:05.998Z</time></trkpt><trkpt lat="43.465309010615044" lon="11.818409624593023"><ele>247.39999999999998</ele><time>2026-04-04T08:01:07.998Z</time></trkpt><trkpt lat="43.46540329207668" lon="11.818377396262314"><ele>248.2</ele><time>2026-04-04T08:01:09.998Z</time></trkpt><trkpt lat="43.46550233610837" lon="11.818348821999415"><ele>249.0</ele><time>2026-04-04T08:01:11.998Z</time></trkpt><trkpt lat="43.46560622243814" lon="11.818325535970619"><ele>249.2</ele><time>2026-04-04T08:01:13.998Z</time></trkpt><trkpt lat="43.46570792446995" lon="11.818308158391542"><ele>249.39999999999998</ele><time>2026-04-04T08:01:15.998Z</time></trkpt><trkpt lat="43.46581334642818" lon="11.818298369643637"><ele>249.6</ele><time>2026-04-04T08:01:17.998Z</time></trkpt><trkpt lat="43.465923835102615" lon="11.818290478848093"><ele>249.8</ele><time>2026-04-04T08:01:19.998Z</time></trkpt><trkpt lat="43.46604052533878" lon="11.818294808505092"><ele>250.0</ele><time>2026-04-04T08:01:21.998Z</time></trkpt><trkpt lat="43.4661542896841" lon="11.81829977310888"><ele>250.0</ele><time>2026-04-04T08:01:23.998Z</time></trkpt><trkpt lat="43.466272743506856" lon="11.818305529022108"><ele>250.0</ele><time>2026-04-04T08:01:26Z</time></trkpt><trkpt lat="43.46639307178338" lon="11.818308905913169"><ele>250.0</ele><time>2026-04-04T08:01:28Z</time></trkpt><trkpt lat="43.466513289721355" lon="11.818312694633317"><ele>250.0</ele><time>2026-04-04T08:01:30Z</time></trkpt><trkpt lat="43.46663359766067" lon="11.81831491595363"><ele>249.75</ele><time>2026-04-04T08:01:32Z</time></trkpt><trkpt lat="43.46675445535564" lon="11.818320312382262"><ele>249.5</ele><time>2026-04-04T08:01:34Z</time></trkpt><trkpt lat="43.466871677381754" lon="11.818323076673156"><ele>249.25</ele><time>2026-04-04T08:01:36Z</time></trkpt><trkpt lat="43.46699523104124" lon="11.818325958599887"><ele>249.0</ele><time>2026-04-04T08:01:38Z</time></trkpt><trkpt lat="43.46711824163932" lon="11.81832785117517"><ele>249.0</ele><time>2026-04-04T08:01:40Z</time></trkpt><trkpt lat="43.467237122758284" lon="11.818333029385617"><ele>249.0</ele><time>2026-04-04T08:01:42Z</time></trkpt><trkpt lat="43.46735530938989" lon="11.818335898666621"><ele>249.0</ele><time>2026-04-04T08:01:44Z</time></trkpt><trkpt lat="43.46746831386567" lon="11.818342440349191"><ele>249.0</ele><time>2026-04-04T08:01:46Z</time></trkpt><trkpt lat="43.46758231225175" lon="11.818348443052383"><ele>249.0</ele><time>2026-04-04T08:01:48Z</time></trkpt><trkpt lat="43.46769805899997" lon="11.818350872353752"><ele>249.0</ele><time>2026-04-04T08:01:50Z</time></trkpt><trkpt lat="43.46781318752835" lon="11.818357685601793"><ele>249.0</ele><time>2026-04-04T08:01:52Z</time></trkpt><trkpt lat="43.46792221313512" lon="11.818361798741332"><ele>249.0</ele><time>2026-04-04T08:01:54Z</time></trkpt><trkpt lat="43.468032426642765" lon="11.818363177219615"><ele>249.0</ele><time>2026-04-04T08:01:56Z</time></trkpt><trkpt lat="43.4681436645913" lon="11.818371128981221"><ele>248.99999999999997</ele><time>2026-04-04T08:01:58Z</time></trkpt><trkpt lat="43.46825391789188" lon="11.818371571625775"><ele>248.99999999999997</ele><time>2026-04-04T08:02:00Z</time></trkpt><trkpt lat="43.46835988475045" lon="11.81836012439491"><ele>249.0</ele><time>2026-04-04T08:02:01.999Z</time></trkpt><trkpt lat="43.46846427703086" lon="11.818340756257875"><ele>249.0</ele><time>2026-04-04T08:02:03.999Z</time></trkpt><trkpt lat="43.468559927934365" lon="11.818315408447406"><ele>249.0</ele><time>2026-04-04T08:02:05.999Z</time></trkpt><trkpt lat="43.46865156048686" lon="11.818281173334768"><ele>249.0</ele><time>2026-04-04T08:02:07.999Z</time></trkpt><trkpt lat="43.46873077613885" lon="11.818249052791344"><ele>249.0</ele><time>2026-04-04T08:02:09.999Z</time></trkpt><trkpt lat="43.468804623517016" lon="11.81821044793675"><ele>249.0</ele><time>2026-04-04T08:02:11.999Z</time></trkpt><trkpt lat="43.46887321431168" lon="11.818173014182847"><ele>249.0</ele><time>2026-04-04T08:02:13.999Z</time></trkpt><trkpt lat="43.468941794076066" lon="11.818130496026571"><ele>249.0</ele><time>2026-04-04T08:02:15.999Z</time></trkpt><trkpt lat="43.46901095713946" lon="11.818087457808002"><ele>249.0</ele><time>2026-04-04T08:02:17.999Z</time></trkpt><trkpt lat="43.46907335269446" lon="11.818037341843352"><ele>249.0</ele><time>2026-04-04T08:02:19.999Z</time></trkpt><trkpt lat="43.46914091850723" lon="11.817987758148345"><ele>249.0</ele><time>2026-04-04T08:02:21.999Z</time></trkpt><trkpt lat="43.46920490629032" lon="11.817931121966502"><ele>249.0</ele><time>2026-04-04T08:02:23.999Z</time></trkpt><trkpt lat="43.46926850424872" lon="11.817871887124616"><ele>249.0</ele><time>2026-04-04T08:02:25.999Z</time></trkpt><trkpt lat="43.469330679703575" lon="11.817804441433752"><ele>249.0</ele><time>2026-04-04T08:02:27.999Z</time></trkpt><trkpt lat="43.46938965507949" lon="11.817728872982771"><ele>249.0</ele><time>2026-04-04T08:02:29.999Z</time></trkpt><trkpt lat="43.469449969929435" lon="11.817650792789946"><ele>249.0</ele><time>2026-04-04T08:02:31.999Z</time></trkpt><trkpt lat="43.46951638184014" lon="11.817563633372774"><ele>249.0</ele><time>2026-04-04T08:02:33.999Z</time></trkpt><trkpt lat="43.469571235998345" lon="11.817483033651088"><ele>249.0</ele><time>2026-04-04T08:02:35.999Z</time></trkpt><trkpt lat="43.46962596639749" lon="11.817385819097359"><ele>249.0</ele><time>2026-04-04T08:02:37.999Z</time></trkpt><trkpt lat="43.46968708717378" lon="11.817288764880109"><ele>249.0</ele><time>2026-04-04T08:02:39.999Z</time></trkpt><trkpt lat="43.4697460907454" lon="11.817189771119779"><ele>248.79999999999998</ele><time>2026-04-04T08:02:41.999Z</time></trkpt><trkpt lat="43.469811249833064" lon="11.817083068540542"><ele>248.59999999999997</ele><time>2026-04-04T08:02:43.999Z</time></trkpt><trkpt lat="43.4698711501519" lon="11.816974588412393"><ele>248.4</ele><time>2026-04-04T08:02:45.999Z</time></trkpt><trkpt lat="43.469940240229654" lon="11.816869759213525"><ele>248.2</ele><time>2026-04-04T08:02:47.999Z</time></trkpt><trkpt lat="43.47000448805693" lon="11.816759387628014"><ele>248.0</ele><time>2026-04-04T08:02:49.998Z</time></trkpt><trkpt lat="43.47006983139503" lon="11.816649061620526"><ele>248.0</ele><time>2026-04-04T08:02:51.998Z</time></trkpt><trkpt lat="43.470135115329136" lon="11.816538571901301"><ele>248.0</ele><time>2026-04-04T08:02:53.998Z</time></trkpt><trkpt lat="43.47020284796924" lon="11.816423928356004"><ele>248.0</ele><time>2026-04-04T08:02:55.998Z</time></trkpt><trkpt lat="43.47026724227914" lon="11.81631202998136"><ele>248.0</ele><time>2026-04-04T08:02:57.998Z</time></trkpt><trkpt lat="43.47033775169562" lon="11.816206364850805"><ele>248.0</ele><time>2026-04-04T08:02:59.998Z</time></trkpt><trkpt lat="43.470405420839164" lon="11.81608810695431"><ele>248.2</ele><time>2026-04-04T08:03:01.998Z</time></trkpt><trkpt lat="43.470480624277535" lon="11.815964539041952"><ele>248.4</ele><time>2026-04-04T08:03:03.998Z</time></trkpt><trkpt lat="43.47056030986207" lon="11.81582490099153"><ele>248.59999999999997</ele><time>2026-04-04T08:03:05.998Z</time></trkpt><trkpt lat="43.470602755961885" lon="11.815746262476818"><ele>248.79999999999998</ele><time>2026-04-04T08:03:06.998Z</time></trkpt><trkpt lat="43.47064213316733" lon="11.815660857980488"><ele>249.0</ele><time>2026-04-04T08:03:07.998Z</time></trkpt><trkpt lat="43.47068307454585" lon="11.81557582033641"><ele>249.0</ele><time>2026-04-04T08:03:08.998Z</time></trkpt><trkpt lat="43.47072318924634" lon="11.815480137135905"><ele>249.0</ele><time>2026-04-04T08:03:09.998Z</time></trkpt><trkpt lat="43.47075887196862" lon="11.815381324338288"><ele>249.0</ele><time>2026-04-04T08:03:10.998Z</time></trkpt><trkpt lat="43.47080459713997" lon="11.815288281121928"><ele>249.0</ele><time>2026-04-04T08:03:11.998Z</time></trkpt><trkpt lat="43.47084104673519" lon="11.815182528414972"><ele>249.0</ele><time>2026-04-04T08:03:12.998Z</time></trkpt><trkpt lat="43.4708829222094" lon="11.815081987746584"><ele>249.0</ele><time>2026-04-04T08:03:13.998Z</time></trkpt><trkpt lat="43.4709247485652" lon="11.814974396626113"><ele>248.66666666666666</ele><time>2026-04-04T08:03:14.998Z</time></trkpt><trkpt lat="43.47096726310267" lon="11.814867522342595"><ele>248.33333333333331</ele><time>2026-04-04T08:03:15.998Z</time></trkpt><trkpt lat="43.471010486864685" lon="11.814758120047463"><ele>248.0</ele><time>2026-04-04T08:03:16.998Z</time></trkpt><trkpt lat="43.471052029202184" lon="11.814650448632102"><ele>247.66666666666666</ele><time>2026-04-04T08:03:17.998Z</time></trkpt><trkpt lat="43.47109607774929" lon="11.81454427626098"><ele>247.33333333333331</ele><time>2026-04-04T08:03:18.998Z</time></trkpt><trkpt lat="43.47113729691707" lon="11.814438204370836"><ele>247.0</ele><time>2026-04-04T08:03:19.998Z</time></trkpt><trkpt lat="43.47117873633449" lon="11.814334575539913"><ele>247.16666666666666</ele><time>2026-04-04T08:03:20.998Z</time></trkpt><trkpt lat="43.471219609877906" lon="11.814234801563243"><ele>247.33333333333331</ele><time>2026-04-04T08:03:21.998Z</time></trkpt><trkpt lat="43.47125861788947" lon="11.814136797644737"><ele>247.5</ele><time>2026-04-04T08:03:22.998Z</time></trkpt><trkpt lat="43.4713008900083" lon="11.81404038289472"><ele>247.66666666666669</ele><time>2026-04-04T08:03:23.998Z</time></trkpt><trkpt lat="43.471342692536034" lon="11.81394982630959"><ele>247.83333333333334</ele><time>2026-04-04T08:03:24.998Z</time></trkpt><trkpt lat="43.471385120399866" lon="11.813863566755828"><ele>248.0</ele><time>2026-04-04T08:03:25.998Z</time></trkpt><trkpt lat="43.47142874392757" lon="11.81377645429304"><ele>248.0</ele><time>2026-04-04T08:03:26.998Z</time></trkpt><trkpt lat="43.47147393584841" lon="11.813699974350683"><ele>248.00000000000003</ele><time>2026-04-04T08:03:27.998Z</time></trkpt><trkpt lat="43.4715164272273" lon="11.813625814432527"><ele>248.0</ele><time>2026-04-04T08:03:28.998Z</time></trkpt><trkpt lat="43.47156181458228" lon="11.813552649854493"><ele>248.0</ele><time>2026-04-04T08:03:29.998Z</time></trkpt><trkpt lat="43.471603256047366" lon="11.813480111516068"><ele>248.00000000000003</ele><time>2026-04-04T08:03:31Z</time></trkpt><trkpt lat="43.47164347296151" lon="11.813408069196107"><ele>248.0</ele><time>2026-04-04T08:03:32Z</time></trkpt><trkpt lat="43.47168412997562" lon="11.813341227392986"><ele>248.0</ele><time>2026-04-04T08:03:33Z</time></trkpt><trkpt lat="43.47176529011467" lon="11.813209026442888"><ele>248.4</ele><time>2026-04-04T08:03:35Z</time></trkpt><trkpt lat="43.47184288417803" lon="11.813084610153002"><ele>248.8</ele><time>2026-04-04T08:03:37Z</time></trkpt><trkpt lat="43.47191689689186" lon="11.812965697210116"><ele>249.2</ele><time>2026-04-04T08:03:39Z</time></trkpt><trkpt lat="43.47198954300818" lon="11.812855571077648"><ele>249.6</ele><time>2026-04-04T08:03:41Z</time></trkpt><trkpt lat="43.472062502997886" lon="11.812749712781619"><ele>250.0</ele><time>2026-04-04T08:03:43Z</time></trkpt><trkpt lat="43.47213049073184" lon="11.812641623747426"><ele>250.0</ele><time>2026-04-04T08:03:45Z</time></trkpt><trkpt lat="43.47219906291155" lon="11.812535482033297"><ele>250.0</ele><time>2026-04-04T08:03:47Z</time></trkpt><trkpt lat="43.47226853845394" lon="11.812432535888023"><ele>250.0</ele><time>2026-04-04T08:03:49Z</time></trkpt><trkpt lat="43.472333004317015" lon="11.812330245827876"><ele>250.0</ele><time>2026-04-04T08:03:51Z</time></trkpt><trkpt lat="43.47239768698768" lon="11.812228415798222"><ele>250.0</ele><time>2026-04-04T08:03:53Z</time></trkpt><trkpt lat="43.4724549462218" lon="11.81212140396276"><ele>250.0</ele><time>2026-04-04T08:03:55Z</time></trkpt><trkpt lat="43.47251211622567" lon="11.812012035944452"><ele>250.0</ele><time>2026-04-04T08:03:57Z</time></trkpt><trkpt lat="43.472561504456586" lon="11.811896478089784"><ele>250.0</ele><time>2026-04-04T08:03:59Z</time></trkpt><trkpt lat="43.47260059435541" lon="11.811771476193519"><ele>250.0</ele><time>2026-04-04T08:04:01Z</time></trkpt><trkpt lat="43.472629217545375" lon="11.811643215273072"><ele>250.0</ele><time>2026-04-04T08:04:03Z</time></trkpt><trkpt lat="43.47265268937698" lon="11.811501372343226"><ele>250.4</ele><time>2026-04-04T08:04:04.999Z</time></trkpt><trkpt lat="43.47266325156593" lon="11.811363317877738"><ele>250.8</ele><time>2026-04-04T08:04:06.999Z</time></trkpt><trkpt lat="43.47266640564719" lon="11.811225758333691"><ele>251.2</ele><time>2026-04-04T08:04:08.999Z</time></trkpt><trkpt lat="43.472674188737415" lon="11.811100342207517"><ele>251.6</ele><time>2026-04-04T08:04:10.999Z</time></trkpt><trkpt lat="43.4726793431415" lon="11.810969276748578"><ele>252.0</ele><time>2026-04-04T08:04:12.999Z</time></trkpt><trkpt lat="43.472690396756306" lon="11.810842957834435"><ele>252.39999999999998</ele><time>2026-04-04T08:04:14.999Z</time></trkpt><trkpt lat="43.472704513259984" lon="11.810712138947853"><ele>252.79999999999998</ele><time>2026-04-04T08:04:16.999Z</time></trkpt><trkpt lat="43.47272155128141" lon="11.810584587130931"><ele>253.2</ele><time>2026-04-04T08:04:18.999Z</time></trkpt><trkpt lat="43.472763082396746" lon="11.81046393031511"><ele>253.6</ele><time>2026-04-04T08:04:20.999Z</time></trkpt><trkpt lat="43.4728137009085" lon="11.810357741704324"><ele>254.0</ele><time>2026-04-04T08:04:22.999Z</time></trkpt><trkpt lat="43.47286655650533" lon="11.810261343366417"><ele>253.75</ele><time>2026-04-04T08:04:24.999Z</time></trkpt><trkpt lat="43.47294037051884" lon="11.810173040149552"><ele>253.5</ele><time>2026-04-04T08:04:26.999Z</time></trkpt><trkpt lat="43.47301111292496" lon="11.810088843927725"><ele>253.25</ele><time>2026-04-04T08:04:28.999Z</time></trkpt><trkpt lat="43.4731171824463" lon="11.810059762413088"><ele>253.0</ele><time>2026-04-04T08:04:30.999Z</time></trkpt><trkpt lat="43.473469398289836" lon="11.809372001401327"><ele>250.0</ele><time>2026-04-04T08:04:53.998Z</time></trkpt><trkpt lat="43.47379775373673" lon="11.80861234880841"><ele>250.16666666666666</ele><time>2026-04-04T08:04:54.998Z</time></trkpt><trkpt lat="43.47385720491425" lon="11.808462146549026"><ele>250.33333333333331</ele><time>2026-04-04T08:04:56.998Z</time></trkpt><trkpt lat="43.47390440904875" lon="11.808309218497142"><ele>250.5</ele><time>2026-04-04T08:04:58.998Z</time></trkpt><trkpt lat="43.473940799663545" lon="11.80823441520513"><ele>250.66666666666669</ele><time>2026-04-04T08:04:59.998Z</time></trkpt><trkpt lat="43.47396971530962" lon="11.808156121814473"><ele>250.83333333333334</ele><time>2026-04-04T08:05:00.998Z</time></trkpt><trkpt lat="43.47399571125599" lon="11.808075858750106"><ele>251.0</ele><time>2026-04-04T08:05:01.998Z</time></trkpt><trkpt lat="43.474027797119255" lon="11.808000705699579"><ele>250.99999999999997</ele><time>2026-04-04T08:05:02.998Z</time></trkpt><trkpt lat="43.47405865843066" lon="11.807922481404207"><ele>251.0</ele><time>2026-04-04T08:05:03.998Z</time></trkpt><trkpt lat="43.4740907887656" lon="11.80784479417894"><ele>250.99999999999997</ele><time>2026-04-04T08:05:04.998Z</time></trkpt><trkpt lat="43.47411816719954" lon="11.807766087328142"><ele>250.99999999999997</ele><time>2026-04-04T08:05:05.998Z</time></trkpt><trkpt lat="43.474174778496334" lon="11.80761569156721"><ele>251.0</ele><time>2026-04-04T08:05:07.998Z</time></trkpt><trkpt lat="43.47420407227461" lon="11.807538887128858"><ele>250.99999999999997</ele><time>2026-04-04T08:05:08.998Z</time></trkpt><trkpt lat="43.4742328669783" lon="11.80745950529669"><ele>250.99999999999997</ele><time>2026-04-04T08:05:09.998Z</time></trkpt><trkpt lat="43.47429000847314" lon="11.807309771208516"><ele>251.0</ele><time>2026-04-04T08:05:11.998Z</time></trkpt><trkpt lat="43.474179333308506" lon="11.80767883913802"><ele>251.0</ele><time>2026-04-04T08:05:15.998Z</time></trkpt><trkpt lat="43.474210348049766" lon="11.807583639250865"><ele>251.0</ele><time>2026-04-04T08:05:16.998Z</time></trkpt><trkpt lat="43.474245733275275" lon="11.807486541118708"><ele>251.0</ele><time>2026-04-04T08:05:17.998Z</time></trkpt><trkpt lat="43.474279129497894" lon="11.80739895258356"><ele>251.33333333333334</ele><time>2026-04-04T08:05:18.998Z</time></trkpt><trkpt lat="43.47431265959259" lon="11.807309124021996"><ele>251.66666666666669</ele><time>2026-04-04T08:05:19.998Z</time></trkpt><trkpt lat="43.47434601030825" lon="11.807224248192139"><ele>252.0</ele><time>2026-04-04T08:05:20.998Z</time></trkpt><trkpt lat="43.47441180674615" lon="11.807053866262448"><ele>252.33333333333331</ele><time>2026-04-04T08:05:22.998Z</time></trkpt><trkpt lat="43.47445418802282" lon="11.806955518633197"><ele>252.66666666666666</ele><time>2026-04-04T08:05:23.998Z</time></trkpt><trkpt lat="43.47448771429533" lon="11.80686921866657"><ele>253.0</ele><time>2026-04-04T08:05:24.998Z</time></trkpt><trkpt lat="43.47453022669134" lon="11.80677665303661"><ele>253.14285714285717</ele><time>2026-04-04T08:05:25.998Z</time></trkpt><trkpt lat="43.474567401525896" lon="11.806686731958585"><ele>253.28571428571428</ele><time>2026-04-04T08:05:26.998Z</time></trkpt><trkpt lat="43.47460506116355" lon="11.806602530607364"><ele>253.42857142857144</ele><time>2026-04-04T08:05:27.998Z</time></trkpt><trkpt lat="43.47463910993899" lon="11.80651499242439"><ele>253.57142857142858</ele><time>2026-04-04T08:05:28.998Z</time></trkpt><trkpt lat="43.4746785591137" lon="11.806423915695314"><ele>253.71428571428572</ele><time>2026-04-04T08:05:29.998Z</time></trkpt><trkpt lat="43.47471379618378" lon="11.806341824996975"><ele>253.85714285714286</ele><time>2026-04-04T08:05:30.998Z</time></trkpt><trkpt lat="43.47474570290992" lon="11.806263891039904"><ele>254.0</ele><time>2026-04-04T08:05:31.998Z</time></trkpt><trkpt lat="43.4747866176198" lon="11.806183560726451"><ele>254.0</ele><time>2026-04-04T08:05:32.998Z</time></trkpt><trkpt lat="43.474807808138905" lon="11.806097549280485"><ele>253.99999999999997</ele><time>2026-04-04T08:05:33.998Z</time></trkpt><trkpt lat="43.47487751815064" lon="11.805953661211456"><ele>253.99999999999997</ele><time>2026-04-04T08:05:35.998Z</time></trkpt><trkpt lat="43.47491571193453" lon="11.805878845421784"><ele>254.0</ele><time>2026-04-04T08:05:37Z</time></trkpt><trkpt lat="43.47498924028791" lon="11.80574646347217"><ele>254.0</ele><time>2026-04-04T08:05:39Z</time></trkpt><trkpt lat="43.47506293074523" lon="11.805622946683908"><ele>254.00000000000003</ele><time>2026-04-04T08:05:41Z</time></trkpt><trkpt lat="43.47513819362641" lon="11.80550463340835"><ele>254.0</ele><time>2026-04-04T08:05:43Z</time></trkpt><trkpt lat="43.475222045349554" lon="11.805378686446893"><ele>254.0</ele><time>2026-04-04T08:05:45Z</time></trkpt><trkpt lat="43.47526667635947" lon="11.80531546263981"><ele>254.0</ele><time>2026-04-04T08:05:46Z</time></trkpt><trkpt lat="43.47531310438244" lon="11.80524974830721"><ele>254.00000000000003</ele><time>2026-04-04T08:05:47Z</time></trkpt><trkpt lat="43.47537342910535" lon="11.805200807360885"><ele>254.0</ele><time>2026-04-04T08:05:48Z</time></trkpt><trkpt lat="43.475420740322946" lon="11.805138129991638"><ele>254.0</ele><time>2026-04-04T08:05:49Z</time></trkpt><trkpt lat="43.475511484259336" lon="11.80502496935445"><ele>254.0</ele><time>2026-04-04T08:05:51Z</time></trkpt><trkpt lat="43.47560275602241" lon="11.804922597565257"><ele>254.0</ele><time>2026-04-04T08:05:53Z</time></trkpt><trkpt lat="43.475690087357066" lon="11.804830102862487"><ele>254.0</ele><time>2026-04-04T08:05:55Z</time></trkpt><trkpt lat="43.47578077846582" lon="11.804747555079954"><ele>254.0</ele><time>2026-04-04T08:05:57Z</time></trkpt><trkpt lat="43.47586979272918" lon="11.804668153184686"><ele>253.99999999999997</ele><time>2026-04-04T08:05:59Z</time></trkpt><trkpt lat="43.47596180168655" lon="11.804595771808351"><ele>253.99999999999997</ele><time>2026-04-04T08:06:01Z</time></trkpt><trkpt lat="43.4760492145108" lon="11.804517681191594"><ele>254.0</ele><time>2026-04-04T08:06:03Z</time></trkpt><trkpt lat="43.476145426670115" lon="11.804452359871055"><ele>254.0</ele><time>2026-04-04T08:06:05Z</time></trkpt><trkpt lat="43.47623639751558" lon="11.804377004130151"><ele>254.2</ele><time>2026-04-04T08:06:07Z</time></trkpt><trkpt lat="43.47632968497763" lon="11.804302880898348"><ele>254.39999999999998</ele><time>2026-04-04T08:06:09Z</time></trkpt><trkpt lat="43.47642841800635" lon="11.804236603099456"><ele>254.6</ele><time>2026-04-04T08:06:11Z</time></trkpt><trkpt lat="43.476524354898935" lon="11.804160607872504"><ele>254.8</ele><time>2026-04-04T08:06:12.999Z</time></trkpt><trkpt lat="43.47662383925377" lon="11.804089174753786"><ele>255.0</ele><time>2026-04-04T08:06:14.999Z</time></trkpt><trkpt lat="43.47671624668705" lon="11.80401025202155"><ele>255.0</ele><time>2026-04-04T08:06:16.999Z</time></trkpt><trkpt lat="43.47682199833662" lon="11.803936902523493"><ele>255.0</ele><time>2026-04-04T08:06:18.999Z</time></trkpt><trkpt lat="43.47692024025797" lon="11.803859383776304"><ele>255.0</ele><time>2026-04-04T08:06:20.999Z</time></trkpt><trkpt lat="43.47702047408318" lon="11.803782177632561"><ele>255.0</ele><time>2026-04-04T08:06:22.999Z</time></trkpt><trkpt lat="43.477124277274775" lon="11.803700122603981"><ele>255.25</ele><time>2026-04-04T08:06:24.999Z</time></trkpt><trkpt lat="43.47721674167259" lon="11.803616726685283"><ele>255.5</ele><time>2026-04-04T08:06:26.999Z</time></trkpt><trkpt lat="43.47732960721587" lon="11.803531653378942"><ele>255.75</ele><time>2026-04-04T08:06:28.999Z</time></trkpt><trkpt lat="43.47744160925235" lon="11.803459337498875"><ele>256.0</ele><time>2026-04-04T08:06:30.999Z</time></trkpt><trkpt lat="43.477543873093055" lon="11.803377877277516"><ele>256.0</ele><time>2026-04-04T08:06:32.999Z</time></trkpt><trkpt lat="43.47764663741123" lon="11.803299329840474"><ele>256.0</ele><time>2026-04-04T08:06:34.999Z</time></trkpt><trkpt lat="43.47774906065775" lon="11.803227757717515"><ele>256.0</ele><time>2026-04-04T08:06:36.999Z</time></trkpt><trkpt lat="43.47785370881169" lon="11.803155325606774"><ele>256.0</ele><time>2026-04-04T08:06:38.999Z</time></trkpt><trkpt lat="43.47795876830002" lon="11.803085788022463"><ele>255.5</ele><time>2026-04-04T08:06:40.999Z</time></trkpt><trkpt lat="43.478059165623776" lon="11.803012746817975"><ele>255.0</ele><time>2026-04-04T08:06:42.999Z</time></trkpt><trkpt lat="43.478156181529144" lon="11.802936878715533"><ele>254.5</ele><time>2026-04-04T08:06:44.999Z</time></trkpt><trkpt lat="43.478259112924874" lon="11.802865580753515"><ele>254.0</ele><time>2026-04-04T08:06:46.999Z</time></trkpt><trkpt lat="43.47836336361345" lon="11.802792100464114"><ele>254.0</ele><time>2026-04-04T08:06:48.999Z</time></trkpt><trkpt lat="43.478467023230266" lon="11.802712193678998"><ele>254.0</ele><time>2026-04-04T08:06:50.999Z</time></trkpt><trkpt lat="43.47857010560507" lon="11.802636799664702"><ele>254.0</ele><time>2026-04-04T08:06:52.999Z</time></trkpt><trkpt lat="43.47867661052562" lon="11.802560781900754"><ele>254.0</ele><time>2026-04-04T08:06:54.999Z</time></trkpt><trkpt lat="43.47878561198773" lon="11.802484061362138"><ele>254.75</ele><time>2026-04-04T08:06:56.999Z</time></trkpt><trkpt lat="43.47888935090099" lon="11.802408027573538"><ele>255.5</ele><time>2026-04-04T08:06:58.999Z</time></trkpt><trkpt lat="43.47899554571758" lon="11.80233794927969"><ele>256.25</ele><time>2026-04-04T08:07:00.998Z</time></trkpt><trkpt lat="43.47909824058488" lon="11.80226287991326"><ele>257.0</ele><time>2026-04-04T08:07:02.998Z</time></trkpt><trkpt lat="43.47919695532199" lon="11.80218931267089"><ele>257.0</ele><time>2026-04-04T08:07:04.998Z</time></trkpt><trkpt lat="43.47929430576569" lon="11.802124597247333"><ele>257.0</ele><time>2026-04-04T08:07:06.998Z</time></trkpt><trkpt lat="43.47938849447257" lon="11.802060542364512"><ele>257.0</ele><time>2026-04-04T08:07:08.998Z</time></trkpt><trkpt lat="43.479481754279746" lon="11.802000012452794"><ele>257.0</ele><time>2026-04-04T08:07:10.998Z</time></trkpt><trkpt lat="43.47957308405011" lon="11.80193119775623"><ele>257.0</ele><time>2026-04-04T08:07:12.998Z</time></trkpt><trkpt lat="43.47967149603675" lon="11.801869976934864"><ele>257.4</ele><time>2026-04-04T08:07:14.998Z</time></trkpt><trkpt lat="43.47976078893361" lon="11.801801042759218"><ele>257.79999999999995</ele><time>2026-04-04T08:07:16.998Z</time></trkpt><trkpt lat="43.47985016379287" lon="11.801731155460807"><ele>258.2</ele><time>2026-04-04T08:07:18.998Z</time></trkpt><trkpt lat="43.479938437225016" lon="11.801663210477603"><ele>258.59999999999997</ele><time>2026-04-04T08:07:20.998Z</time></trkpt><trkpt lat="43.480028977137344" lon="11.801596132585217"><ele>259.0</ele><time>2026-04-04T08:07:22.998Z</time></trkpt><trkpt lat="43.480114060732404" lon="11.801524252908255"><ele>259.0</ele><time>2026-04-04T08:07:24.998Z</time></trkpt><trkpt lat="43.48020926151877" lon="11.801463873091793"><ele>259.0</ele><time>2026-04-04T08:07:26.998Z</time></trkpt><trkpt lat="43.48029665122909" lon="11.801396505524078"><ele>259.0</ele><time>2026-04-04T08:07:28.998Z</time></trkpt><trkpt lat="43.48039104389379" lon="11.801342459280516"><ele>259.0</ele><time>2026-04-04T08:07:30.998Z</time></trkpt><trkpt lat="43.48048098991684" lon="11.801275620102759"><ele>259.0</ele><time>2026-04-04T08:07:32.998Z</time></trkpt><trkpt lat="43.4805686834418" lon="11.80120480643615"><ele>259.0</ele><time>2026-04-04T08:07:34.998Z</time></trkpt><trkpt lat="43.480653932237466" lon="11.801138310257043"><ele>259.0</ele><time>2026-04-04T08:07:36.998Z</time></trkpt><trkpt lat="43.480744360441584" lon="11.801070858178422"><ele>259.0</ele><time>2026-04-04T08:07:38.998Z</time></trkpt><trkpt lat="43.48083519518881" lon="11.801003994416341"><ele>259.0</ele><time>2026-04-04T08:07:40.998Z</time></trkpt><trkpt lat="43.480935386211975" lon="11.800939227128426"><ele>259.0</ele><time>2026-04-04T08:07:43Z</time></trkpt><trkpt lat="43.4810318134447" lon="11.800871399540782"><ele>259.2</ele><time>2026-04-04T08:07:45Z</time></trkpt><trkpt lat="43.481118246565856" lon="11.800793132983497"><ele>259.4</ele><time>2026-04-04T08:07:47Z</time></trkpt><trkpt lat="43.481210493498516" lon="11.800727018079042"><ele>259.6</ele><time>2026-04-04T08:07:49Z</time></trkpt><trkpt lat="43.481303526170926" lon="11.800653263314006"><ele>259.8</ele><time>2026-04-04T08:07:51Z</time></trkpt><trkpt lat="43.48140254689384" lon="11.800587908383815"><ele>260.0</ele><time>2026-04-04T08:07:53Z</time></trkpt><trkpt lat="43.48149446207758" lon="11.800512867182668"><ele>259.6</ele><time>2026-04-04T08:07:55Z</time></trkpt><trkpt lat="43.48159493501093" lon="11.800461479628272"><ele>259.2</ele><time>2026-04-04T08:07:57Z</time></trkpt><trkpt lat="43.48169339804753" lon="11.80039838224562"><ele>258.8</ele><time>2026-04-04T08:07:59Z</time></trkpt><trkpt lat="43.48179001759039" lon="11.800329619007496"><ele>258.4</ele><time>2026-04-04T08:08:01Z</time></trkpt><trkpt lat="43.48188983298227" lon="11.800260838099783"><ele>258.0</ele><time>2026-04-04T08:08:03Z</time></trkpt><trkpt lat="43.481987588986634" lon="11.800193662773234"><ele>257.8</ele><time>2026-04-04T08:08:05Z</time></trkpt><trkpt lat="43.48209831634845" lon="11.800131223909219"><ele>257.6</ele><time>2026-04-04T08:08:07Z</time></trkpt><trkpt lat="43.48218026172105" lon="11.800043908907794"><ele>257.4</ele><time>2026-04-04T08:08:09Z</time></trkpt><trkpt lat="43.4822429408241" lon="11.799927833708098"><ele>257.2</ele><time>2026-04-04T08:08:11Z</time></trkpt><trkpt lat="43.48229740592913" lon="11.79978253295517"><ele>257.0</ele><time>2026-04-04T08:08:13Z</time></trkpt><trkpt lat="43.48235913736305" lon="11.79964372486403"><ele>257.0</ele><time>2026-04-04T08:08:15Z</time></trkpt><trkpt lat="43.48237409982445" lon="11.799553607943631"><ele>257.0</ele><time>2026-04-04T08:08:16Z</time></trkpt><trkpt lat="43.4824185086132" lon="11.799394376905768"><ele>257.0</ele><time>2026-04-04T08:08:17.999Z</time></trkpt><trkpt lat="43.48246162714369" lon="11.799275120328518"><ele>257.0</ele><time>2026-04-04T08:08:19.999Z</time></trkpt><trkpt lat="43.482484570126005" lon="11.79918978989532"><ele>257.0</ele><time>2026-04-04T08:08:20.999Z</time></trkpt><trkpt lat="43.48251853194035" lon="11.799039918457762"><ele>257.4</ele><time>2026-04-04T08:08:22.999Z</time></trkpt><trkpt lat="43.48255487029587" lon="11.79889228896717"><ele>257.79999999999995</ele><time>2026-04-04T08:08:24.999Z</time></trkpt><trkpt lat="43.482596106176366" lon="11.798743796526313"><ele>258.2</ele><time>2026-04-04T08:08:26.999Z</time></trkpt><trkpt lat="43.48264942079273" lon="11.798598555147134"><ele>258.59999999999997</ele><time>2026-04-04T08:08:28.999Z</time></trkpt><trkpt lat="43.482675620309166" lon="11.79851934954049"><ele>259.0</ele><time>2026-04-04T08:08:29.999Z</time></trkpt><trkpt lat="43.48271948781584" lon="11.79835413618947"><ele>259.14285714285717</ele><time>2026-04-04T08:08:31.999Z</time></trkpt><trkpt lat="43.48274162475568" lon="11.798269888826912"><ele>259.2857142857143</ele><time>2026-04-04T08:08:32.999Z</time></trkpt><trkpt lat="43.482765188277604" lon="11.79818741126746"><ele>259.42857142857144</ele><time>2026-04-04T08:08:33.999Z</time></trkpt><trkpt lat="43.48279014217524" lon="11.798102992898983"><ele>259.57142857142856</ele><time>2026-04-04T08:08:34.999Z</time></trkpt><trkpt lat="43.48281419358305" lon="11.79801659582028"><ele>259.7142857142857</ele><time>2026-04-04T08:08:35.999Z</time></trkpt><trkpt lat="43.482838643435485" lon="11.797931533337083"><ele>259.8571428571429</ele><time>2026-04-04T08:08:36.999Z</time></trkpt><trkpt lat="43.48286254143519" lon="11.797845382965544"><ele>260.0</ele><time>2026-04-04T08:08:37.999Z</time></trkpt><trkpt lat="43.482890941203124" lon="11.797759577649941"><ele>260.00000000000006</ele><time>2026-04-04T08:08:38.999Z</time></trkpt><trkpt lat="43.48290957928227" lon="11.797674550664382"><ele>260.0</ele><time>2026-04-04T08:08:39.999Z</time></trkpt><trkpt lat="43.482938667376914" lon="11.797582219917558"><ele>260.0</ele><time>2026-04-04T08:08:40.999Z</time></trkpt><trkpt lat="43.4829645908419" lon="11.79748932356204"><ele>260.0</ele><time>2026-04-04T08:08:41.999Z</time></trkpt><trkpt lat="43.48298405488907" lon="11.797398742562132"><ele>260.0</ele><time>2026-04-04T08:08:42.999Z</time></trkpt><trkpt lat="43.48300974182812" lon="11.797306570580595"><ele>260.00000000000006</ele><time>2026-04-04T08:08:43.999Z</time></trkpt><trkpt lat="43.48303297118734" lon="11.797212188301588"><ele>260.0</ele><time>2026-04-04T08:08:44.999Z</time></trkpt><trkpt lat="43.483054715432814" lon="11.79711716044304"><ele>259.42857142857144</ele><time>2026-04-04T08:08:45.999Z</time></trkpt><trkpt lat="43.48307026021753" lon="11.797021921013783"><ele>258.8571428571429</ele><time>2026-04-04T08:08:46.999Z</time></trkpt><trkpt lat="43.48308877941239" lon="11.796933284914212"><ele>258.2857142857143</ele><time>2026-04-04T08:08:47.999Z</time></trkpt><trkpt lat="43.48310033229939" lon="11.79683673202524"><ele>257.7142857142857</ele><time>2026-04-04T08:08:48.999Z</time></trkpt><trkpt lat="43.48312057258312" lon="11.796747704570372"><ele>257.1428571428571</ele><time>2026-04-04T08:08:49.999Z</time></trkpt><trkpt lat="43.483137327291836" lon="11.796656324983827"><ele>256.57142857142856</ele><time>2026-04-04T08:08:50.999Z</time></trkpt><trkpt lat="43.48315266682422" lon="11.79656997787022"><ele>256.0</ele><time>2026-04-04T08:08:51.999Z</time></trkpt><trkpt lat="43.48316588223552" lon="11.796482341058208"><ele>256.25</ele><time>2026-04-04T08:08:52.999Z</time></trkpt><trkpt lat="43.48319618956992" lon="11.796319642044642"><ele>256.5</ele><time>2026-04-04T08:08:54.999Z</time></trkpt><trkpt lat="43.48322317795736" lon="11.796159181854234"><ele>256.75</ele><time>2026-04-04T08:08:56.999Z</time></trkpt><trkpt lat="43.48325023740073" lon="11.79600245768559"><ele>257.0</ele><time>2026-04-04T08:08:58.999Z</time></trkpt><trkpt lat="43.483273400737595" lon="11.795853570722235"><ele>257.0</ele><time>2026-04-04T08:09:00.999Z</time></trkpt><trkpt lat="43.483301542138506" lon="11.795707054764556"><ele>257.0</ele><time>2026-04-04T08:09:02.999Z</time></trkpt><trkpt lat="43.48332423805467" lon="11.795563022877749"><ele>257.0</ele><time>2026-04-04T08:09:04.999Z</time></trkpt><trkpt lat="43.48335065713691" lon="11.795419981568934"><ele>257.0</ele><time>2026-04-04T08:09:06.999Z</time></trkpt><trkpt lat="43.4833696318601" lon="11.795279746807942"><ele>257.0</ele><time>2026-04-04T08:09:08.998Z</time></trkpt><trkpt lat="43.48339360454033" lon="11.795138243696027"><ele>256.8</ele><time>2026-04-04T08:09:10.998Z</time></trkpt><trkpt lat="43.483414790095395" lon="11.795000644036168"><ele>256.6</ele><time>2026-04-04T08:09:12.998Z</time></trkpt><trkpt lat="43.48343936391959" lon="11.794868161057616"><ele>256.40000000000003</ele><time>2026-04-04T08:09:14.998Z</time></trkpt><trkpt lat="43.48346016703411" lon="11.794737995453517"><ele>256.2</ele><time>2026-04-04T08:09:16.998Z</time></trkpt><trkpt lat="43.483480773845784" lon="11.794611233882787"><ele>256.0</ele><time>2026-04-04T08:09:18.998Z</time></trkpt><trkpt lat="43.48350404558361" lon="11.794488187846191"><ele>255.99999999999997</ele><time>2026-04-04T08:09:20.998Z</time></trkpt><trkpt lat="43.48352586913298" lon="11.794367133308075"><ele>256.0</ele><time>2026-04-04T08:09:22.998Z</time></trkpt><trkpt lat="43.48354676049415" lon="11.794244716550407"><ele>256.0</ele><time>2026-04-04T08:09:24.998Z</time></trkpt><trkpt lat="43.48356475972015" lon="11.794125580146625"><ele>256.0</ele><time>2026-04-04T08:09:26.998Z</time></trkpt><trkpt lat="43.48358348185256" lon="11.794007608691759"><ele>255.99999999999997</ele><time>2026-04-04T08:09:28.998Z</time></trkpt><trkpt lat="43.483602918156905" lon="11.793890452601573"><ele>256.0</ele><time>2026-04-04T08:09:30.998Z</time></trkpt><trkpt lat="43.48362072338503" lon="11.793770330782355"><ele>256.3333333333333</ele><time>2026-04-04T08:09:32.998Z</time></trkpt><trkpt lat="43.4836420630076" lon="11.793651060803862"><ele>256.66666666666663</ele><time>2026-04-04T08:09:34.998Z</time></trkpt><trkpt lat="43.48366116242199" lon="11.793525972217411"><ele>257.0</ele><time>2026-04-04T08:09:36.998Z</time></trkpt><trkpt lat="43.483682054360834" lon="11.793405412873916"><ele>257.3333333333333</ele><time>2026-04-04T08:09:38.998Z</time></trkpt><trkpt lat="43.48370381149595" lon="11.793284612840978"><ele>257.6666666666667</ele><time>2026-04-04T08:09:40.998Z</time></trkpt><trkpt lat="43.483725052095465" lon="11.793170484359777"><ele>258.0</ele><time>2026-04-04T08:09:42.998Z</time></trkpt><trkpt lat="43.483760575878385" lon="11.793065167336716"><ele>258.4</ele><time>2026-04-04T08:09:44.998Z</time></trkpt><trkpt lat="43.48381737377401" lon="11.792978680554816"><ele>258.8</ele><time>2026-04-04T08:09:46.998Z</time></trkpt><trkpt lat="43.48389387795695" lon="11.792926623967306"><ele>259.2</ele><time>2026-04-04T08:09:49Z</time></trkpt><trkpt lat="43.483969362012985" lon="11.792891857730543"><ele>259.6</ele><time>2026-04-04T08:09:51Z</time></trkpt><trkpt lat="43.484074657948895" lon="11.792834188962813"><ele>260.0</ele><time>2026-04-04T08:09:54Z</time></trkpt><trkpt lat="43.48417264058038" lon="11.79289259038127"><ele>260.0</ele><time>2026-04-04T08:09:56Z</time></trkpt><trkpt lat="43.484310007701275" lon="11.792871078432158"><ele>260.0</ele><time>2026-04-04T08:09:58Z</time></trkpt><trkpt lat="43.48438334868393" lon="11.792744989255443"><ele>260.0</ele><time>2026-04-04T08:10:00Z</time></trkpt><trkpt lat="43.484380982029336" lon="11.792655303278833"><ele>260.0</ele><time>2026-04-04T08:10:01Z</time></trkpt><trkpt lat="43.48433632568239" lon="11.792513240032818"><ele>260.0</ele><time>2026-04-04T08:10:03Z</time></trkpt><trkpt lat="43.48425120593496" lon="11.792443334003263"><ele>260.6</ele><time>2026-04-04T08:10:05Z</time></trkpt><trkpt lat="43.4841801587613" lon="11.7923923300492"><ele>261.2</ele><time>2026-04-04T08:10:07Z</time></trkpt><trkpt lat="43.48409802892397" lon="11.79231879241123"><ele>261.8</ele><time>2026-04-04T08:10:09Z</time></trkpt><trkpt lat="43.48402342640366" lon="11.792222138935177"><ele>262.4</ele><time>2026-04-04T08:10:11Z</time></trkpt><trkpt lat="43.48398676275891" lon="11.79209140714324"><ele>263.0</ele><time>2026-04-04T08:10:13Z</time></trkpt><trkpt lat="43.48394319924825" lon="11.791968129108684"><ele>263.2</ele><time>2026-04-04T08:10:15Z</time></trkpt><trkpt lat="43.48393960863295" lon="11.791822672919583"><ele>263.4</ele><time>2026-04-04T08:10:17Z</time></trkpt><trkpt lat="43.48396443275623" lon="11.79168554682117"><ele>263.59999999999997</ele><time>2026-04-04T08:10:19Z</time></trkpt><trkpt lat="43.483997849662835" lon="11.791550844025162"><ele>263.8</ele><time>2026-04-04T08:10:21Z</time></trkpt><trkpt lat="43.48401914159214" lon="11.791417434409059"><ele>264.0</ele><time>2026-04-04T08:10:22.999Z</time></trkpt><trkpt lat="43.484040256082245" lon="11.791283632635265"><ele>264.0</ele><time>2026-04-04T08:10:24.999Z</time></trkpt><trkpt lat="43.48406699156061" lon="11.79114907949494"><ele>264.0</ele><time>2026-04-04T08:10:26.999Z</time></trkpt><trkpt lat="43.48409099553889" lon="11.791010992195993"><ele>264.0</ele><time>2026-04-04T08:10:28.999Z</time></trkpt><trkpt lat="43.48411176867267" lon="11.790871692904345"><ele>264.0</ele><time>2026-04-04T08:10:30.999Z</time></trkpt><trkpt lat="43.48413889725335" lon="11.790733572235725"><ele>264.0</ele><time>2026-04-04T08:10:32.999Z</time></trkpt><trkpt lat="43.4841587413654" lon="11.790600150072255"><ele>263.8</ele><time>2026-04-04T08:10:34.999Z</time></trkpt><trkpt lat="43.484185962675184" lon="11.79045320158121"><ele>263.59999999999997</ele><time>2026-04-04T08:10:36.999Z</time></trkpt><trkpt lat="43.48420870406276" lon="11.790321588510116"><ele>263.4</ele><time>2026-04-04T08:10:38.999Z</time></trkpt><trkpt lat="43.484231349538746" lon="11.790185292507864"><ele>263.2</ele><time>2026-04-04T08:10:40.999Z</time></trkpt><trkpt lat="43.48425457352725" lon="11.790049208687677"><ele>263.0</ele><time>2026-04-04T08:10:42.999Z</time></trkpt><trkpt lat="43.48427755675335" lon="11.789915651563637"><ele>263.0</ele><time>2026-04-04T08:10:44.999Z</time></trkpt><trkpt lat="43.48430008998604" lon="11.789774785208362"><ele>263.0</ele><time>2026-04-04T08:10:46.999Z</time></trkpt><trkpt lat="43.484323904148646" lon="11.789640371215865"><ele>263.0</ele><time>2026-04-04T08:10:48.999Z</time></trkpt><trkpt lat="43.484347970174454" lon="11.78950501381659"><ele>263.0</ele><time>2026-04-04T08:10:50.999Z</time></trkpt><trkpt lat="43.48436982844081" lon="11.789372418072343"><ele>263.0</ele><time>2026-04-04T08:10:52.999Z</time></trkpt><trkpt lat="43.48439277024826" lon="11.789233899697573"><ele>263.2</ele><time>2026-04-04T08:10:54.999Z</time></trkpt><trkpt lat="43.48441568158497" lon="11.789101494639814"><ele>263.4</ele><time>2026-04-04T08:10:56.999Z</time></trkpt><trkpt lat="43.48443965421268" lon="11.788973111544012"><ele>263.59999999999997</ele><time>2026-04-04T08:10:58.999Z</time></trkpt><trkpt lat="43.484462494228566" lon="11.788854260434997"><ele>263.8</ele><time>2026-04-04T08:11:00.999Z</time></trkpt><trkpt lat="43.484481216604365" lon="11.788732190924998"><ele>264.0</ele><time>2026-04-04T08:11:02.999Z</time></trkpt><trkpt lat="43.48450489491063" lon="11.78862617965043"><ele>264.0</ele><time>2026-04-04T08:11:04.999Z</time></trkpt><trkpt lat="43.484519323088385" lon="11.788519144799565"><ele>264.0</ele><time>2026-04-04T08:11:06.999Z</time></trkpt><trkpt lat="43.48453927996785" lon="11.788419178174065"><ele>264.0</ele><time>2026-04-04T08:11:08.999Z</time></trkpt><trkpt lat="43.48455324020193" lon="11.788322569442952"><ele>264.0</ele><time>2026-04-04T08:11:10.999Z</time></trkpt><trkpt lat="43.48457009761334" lon="11.788225492149074"><ele>264.0</ele><time>2026-04-04T08:11:12.999Z</time></trkpt><trkpt lat="43.484586311414134" lon="11.788125690760838"><ele>264.0</ele><time>2026-04-04T08:11:14.998Z</time></trkpt><trkpt lat="43.484601884514305" lon="11.788037197697795"><ele>264.0</ele><time>2026-04-04T08:11:16.998Z</time></trkpt><trkpt lat="43.48461398447788" lon="11.787951974091321"><ele>264.0</ele><time>2026-04-04T08:11:18.998Z</time></trkpt><trkpt lat="43.4846312946863" lon="11.787861708675338"><ele>264.0</ele><time>2026-04-04T08:11:20.998Z</time></trkpt><trkpt lat="43.48464314529638" lon="11.787773204043408"><ele>264.0</ele><time>2026-04-04T08:11:22.998Z</time></trkpt><trkpt lat="43.484654988859646" lon="11.787678528640381"><ele>264.0</ele><time>2026-04-04T08:11:24.998Z</time></trkpt><trkpt lat="43.48466978819834" lon="11.787587749490756"><ele>264.0</ele><time>2026-04-04T08:11:26.998Z</time></trkpt><trkpt lat="43.484683648250765" lon="11.787494493996364"><ele>264.0</ele><time>2026-04-04T08:11:28.998Z</time></trkpt><trkpt lat="43.48469981460693" lon="11.787399805478955"><ele>264.0</ele><time>2026-04-04T08:11:30.998Z</time></trkpt><trkpt lat="43.48471441243729" lon="11.787306932482267"><ele>264.0</ele><time>2026-04-04T08:11:32.998Z</time></trkpt><trkpt lat="43.4847281943957" lon="11.787215972321796"><ele>264.0</ele><time>2026-04-04T08:11:34.998Z</time></trkpt><trkpt lat="43.484749785464004" lon="11.787113550349247"><ele>264.0</ele><time>2026-04-04T08:11:36.998Z</time></trkpt><trkpt lat="43.4847670994918" lon="11.786985352177767"><ele>264.0</ele><time>2026-04-04T08:11:38.998Z</time></trkpt><trkpt lat="43.484788270720735" lon="11.786872197611785"><ele>264.0</ele><time>2026-04-04T08:11:40.998Z</time></trkpt><trkpt lat="43.4848023069819" lon="11.786754132655394"><ele>264.0</ele><time>2026-04-04T08:11:42.998Z</time></trkpt><trkpt lat="43.48482724794265" lon="11.786633214128008"><ele>264.4</ele><time>2026-04-04T08:11:44.998Z</time></trkpt><trkpt lat="43.484849685498205" lon="11.786504658699819"><ele>264.79999999999995</ele><time>2026-04-04T08:11:46.998Z</time></trkpt><trkpt lat="43.48487087863509" lon="11.786369128385358"><ele>265.20000000000005</ele><time>2026-04-04T08:11:48.998Z</time></trkpt><trkpt lat="43.48489354244286" lon="11.786235599252395"><ele>265.6</ele><time>2026-04-04T08:11:50.998Z</time></trkpt><trkpt lat="43.48491530003853" lon="11.786094411776501"><ele>266.0</ele><time>2026-04-04T08:11:52.998Z</time></trkpt><trkpt lat="43.484938540093246" lon="11.785956712173231"><ele>266.6</ele><time>2026-04-04T08:11:55Z</time></trkpt><trkpt lat="43.48495988660673" lon="11.785817993979885"><ele>267.20000000000005</ele><time>2026-04-04T08:11:57Z</time></trkpt><trkpt lat="43.48498436400083" lon="11.78568088924185"><ele>267.79999999999995</ele><time>2026-04-04T08:11:59Z</time></trkpt><trkpt lat="43.48500469775665" lon="11.785541558631397"><ele>268.4</ele><time>2026-04-04T08:12:01Z</time></trkpt><trkpt lat="43.485027713670846" lon="11.785401514932278"><ele>269.0</ele><time>2026-04-04T08:12:03Z</time></trkpt><trkpt lat="43.48505138514636" lon="11.785264902029907"><ele>269.8</ele><time>2026-04-04T08:12:05Z</time></trkpt><trkpt lat="43.485063157540026" lon="11.785121600581835"><ele>270.59999999999997</ele><time>2026-04-04T08:12:07Z</time></trkpt><trkpt lat="43.48507002028372" lon="11.784976935766506"><ele>271.4</ele><time>2026-04-04T08:12:09Z</time></trkpt><trkpt lat="43.485084109717626" lon="11.784828430800207"><ele>272.2</ele><time>2026-04-04T08:12:11Z</time></trkpt><trkpt lat="43.48509860259286" lon="11.784670383095186"><ele>273.0</ele><time>2026-04-04T08:12:13Z</time></trkpt><trkpt lat="43.485112480809065" lon="11.784504397635853"><ele>273.4</ele><time>2026-04-04T08:12:15Z</time></trkpt><trkpt lat="43.485128335242266" lon="11.784336745939923"><ele>273.8</ele><time>2026-04-04T08:12:17Z</time></trkpt><trkpt lat="43.48514408858755" lon="11.78416389468093"><ele>274.2</ele><time>2026-04-04T08:12:19Z</time></trkpt><trkpt lat="43.4851590192911" lon="11.78398947043009"><ele>274.6</ele><time>2026-04-04T08:12:21Z</time></trkpt><trkpt lat="43.4851677217561" lon="11.783896516191797"><ele>275.0</ele><time>2026-04-04T08:12:22Z</time></trkpt><trkpt lat="43.485176684877686" lon="11.78379774188569"><ele>275.0</ele><time>2026-04-04T08:12:23Z</time></trkpt><trkpt lat="43.48518504460676" lon="11.783698507988898"><ele>275.0</ele><time>2026-04-04T08:12:24Z</time></trkpt><trkpt lat="43.48519469103459" lon="11.783594405916217"><ele>275.0</ele><time>2026-04-04T08:12:25Z</time></trkpt><trkpt lat="43.485204640475615" lon="11.783489240096934"><ele>275.0</ele><time>2026-04-04T08:12:26Z</time></trkpt><trkpt lat="43.48521529806401" lon="11.783384195052395"><ele>275.0</ele><time>2026-04-04T08:12:27Z</time></trkpt><trkpt lat="43.485225198480435" lon="11.78327780007459"><ele>275.0</ele><time>2026-04-04T08:12:28Z</time></trkpt><trkpt lat="43.48523560922513" lon="11.7831650515523"><ele>274.5</ele><time>2026-04-04T08:12:28.999Z</time></trkpt><trkpt lat="43.48524508214052" lon="11.783053958605763"><ele>274.0</ele><time>2026-04-04T08:12:29.999Z</time></trkpt><trkpt lat="43.48526103300157" lon="11.782940103045318"><ele>273.5</ele><time>2026-04-04T08:12:30.999Z</time></trkpt><trkpt lat="43.48527367120815" lon="11.782825596007783"><ele>273.0</ele><time>2026-04-04T08:12:31.999Z</time></trkpt><trkpt lat="43.48528621396876" lon="11.782712084961224"><ele>272.5</ele><time>2026-04-04T08:12:32.999Z</time></trkpt><trkpt lat="43.48529767108781" lon="11.782602309959259"><ele>272.0</ele><time>2026-04-04T08:12:33.999Z</time></trkpt><trkpt lat="43.4853102245338" lon="11.782490203033976"><ele>272.0</ele><time>2026-04-04T08:12:34.999Z</time></trkpt><trkpt lat="43.48532015371735" lon="11.782386372751217"><ele>272.0</ele><time>2026-04-04T08:12:35.999Z</time></trkpt><trkpt lat="43.485330351148214" lon="11.782285567750238"><ele>272.0</ele><time>2026-04-04T08:12:36.999Z</time></trkpt><trkpt lat="43.48534024630023" lon="11.782192637287116"><ele>272.0</ele><time>2026-04-04T08:12:37.999Z</time></trkpt><trkpt lat="43.48534934025581" lon="11.782025433945055"><ele>272.0</ele><time>2026-04-04T08:12:39.999Z</time></trkpt><trkpt lat="43.48535123186071" lon="11.781871243688098"><ele>272.6</ele><time>2026-04-04T08:12:41.999Z</time></trkpt><trkpt lat="43.48535059236938" lon="11.78172495980341"><ele>273.2</ele><time>2026-04-04T08:12:43.999Z</time></trkpt><trkpt lat="43.48535149855373" lon="11.78158845841951"><ele>273.8</ele><time>2026-04-04T08:12:45.999Z</time></trkpt><trkpt lat="43.48534968311258" lon="11.781459818255405"><ele>274.4</ele><time>2026-04-04T08:12:47.999Z</time></trkpt><trkpt lat="43.48534865071151" lon="11.781333689572966"><ele>275.0</ele><time>2026-04-04T08:12:49.999Z</time></trkpt><trkpt lat="43.485343306169646" lon="11.78120599363211"><ele>275.0</ele><time>2026-04-04T08:12:51.999Z</time></trkpt><trkpt lat="43.485330820110256" lon="11.781079380563476"><ele>275.0</ele><time>2026-04-04T08:12:53.999Z</time></trkpt><trkpt lat="43.485316990672516" lon="11.78094787035876"><ele>275.0</ele><time>2026-04-04T08:12:55.999Z</time></trkpt><trkpt lat="43.48530685723956" lon="11.780818325027141"><ele>275.0</ele><time>2026-04-04T08:12:57.999Z</time></trkpt><trkpt lat="43.48529582452146" lon="11.780692360212754"><ele>275.0</ele><time>2026-04-04T08:12:59.999Z</time></trkpt><trkpt lat="43.48528520667344" lon="11.780567041693182"><ele>275.33333333333337</ele><time>2026-04-04T08:13:01.999Z</time></trkpt><trkpt lat="43.4852774323291" lon="11.780440183965116"><ele>275.6666666666667</ele><time>2026-04-04T08:13:03.999Z</time></trkpt><trkpt lat="43.48526553937791" lon="11.780313851191583"><ele>276.0</ele><time>2026-04-04T08:13:05.999Z</time></trkpt><trkpt lat="43.48525516597495" lon="11.780193547625368"><ele>276.3333333333333</ele><time>2026-04-04T08:13:07.999Z</time></trkpt><trkpt lat="43.485245715649555" lon="11.780073954230831"><ele>276.66666666666663</ele><time>2026-04-04T08:13:09.999Z</time></trkpt><trkpt lat="43.48523216988439" lon="11.779955377152493"><ele>277.0</ele><time>2026-04-04T08:13:11.999Z</time></trkpt><trkpt lat="43.485219929780314" lon="11.779838501683946"><ele>277.66666666666663</ele><time>2026-04-04T08:13:13.999Z</time></trkpt><trkpt lat="43.48520446301546" lon="11.779724849987392"><ele>278.3333333333333</ele><time>2026-04-04T08:13:15.999Z</time></trkpt><trkpt lat="43.48519108481268" lon="11.779600668929298"><ele>279.0</ele><time>2026-04-04T08:13:17.999Z</time></trkpt><trkpt lat="43.485175359929855" lon="11.77948906566002"><ele>279.6666666666667</ele><time>2026-04-04T08:13:19.998Z</time></trkpt><trkpt lat="43.48517084092301" lon="11.779379594472775"><ele>280.33333333333337</ele><time>2026-04-04T08:13:21.998Z</time></trkpt><trkpt lat="43.48515008593323" lon="11.779259859077523"><ele>281.0</ele><time>2026-04-04T08:13:23.998Z</time></trkpt><trkpt lat="43.48512657877369" lon="11.779144544412125"><ele>281.1666666666667</ele><time>2026-04-04T08:13:25.998Z</time></trkpt><trkpt lat="43.48511521864188" lon="11.779030873510468"><ele>281.33333333333337</ele><time>2026-04-04T08:13:27.998Z</time></trkpt><trkpt lat="43.48509515847437" lon="11.77892087017863"><ele>281.5</ele><time>2026-04-04T08:13:29.998Z</time></trkpt><trkpt lat="43.48507343629415" lon="11.778801921216235"><ele>281.6666666666667</ele><time>2026-04-04T08:13:31.998Z</time></trkpt><trkpt lat="43.485055914227615" lon="11.778690362334725"><ele>281.8333333333333</ele><time>2026-04-04T08:13:33.998Z</time></trkpt><trkpt lat="43.48504480081339" lon="11.778585264651479"><ele>282.0</ele><time>2026-04-04T08:13:35.998Z</time></trkpt><trkpt lat="43.48502567923194" lon="11.778473448840252"><ele>282.1666666666667</ele><time>2026-04-04T08:13:37.998Z</time></trkpt><trkpt lat="43.485012672569134" lon="11.778365415572187"><ele>282.3333333333333</ele><time>2026-04-04T08:13:39.998Z</time></trkpt><trkpt lat="43.48499541986654" lon="11.778259485222128"><ele>282.5</ele><time>2026-04-04T08:13:41.998Z</time></trkpt><trkpt lat="43.48498019340581" lon="11.778152357675982"><ele>282.66666666666663</ele><time>2026-04-04T08:13:43.998Z</time></trkpt><trkpt lat="43.48496644051688" lon="11.778048735943734"><ele>282.8333333333333</ele><time>2026-04-04T08:13:45.998Z</time></trkpt><trkpt lat="43.48494905308542" lon="11.777938827559312"><ele>283.0</ele><time>2026-04-04T08:13:47.998Z</time></trkpt><trkpt lat="43.484930463405036" lon="11.777836149304443"><ele>283.0</ele><time>2026-04-04T08:13:49.998Z</time></trkpt><trkpt lat="43.48491908569599" lon="11.777737704344869"><ele>283.0</ele><time>2026-04-04T08:13:51.998Z</time></trkpt><trkpt lat="43.48489995389426" lon="11.777636223907608"><ele>283.0</ele><time>2026-04-04T08:13:53.998Z</time></trkpt><trkpt lat="43.48488893608038" lon="11.777531236607528"><ele>283.0</ele><time>2026-04-04T08:13:55.998Z</time></trkpt><trkpt lat="43.48487746024395" lon="11.777438034653553"><ele>283.0</ele><time>2026-04-04T08:13:57.998Z</time></trkpt><trkpt lat="43.484857912035935" lon="11.777342555026022"><ele>283.0</ele><time>2026-04-04T08:13:59.998Z</time></trkpt><trkpt lat="43.48484026605545" lon="11.777251332984001"><ele>283.0</ele><time>2026-04-04T08:14:02Z</time></trkpt><trkpt lat="43.48481856123401" lon="11.777148505207148"><ele>283.3333333333333</ele><time>2026-04-04T08:14:04Z</time></trkpt><trkpt lat="43.484791922450796" lon="11.777049601247167"><ele>283.66666666666663</ele><time>2026-04-04T08:14:06Z</time></trkpt><trkpt lat="43.484769488801206" lon="11.776954213682764"><ele>284.0</ele><time>2026-04-04T08:14:08Z</time></trkpt><trkpt lat="43.48474732865097" lon="11.77685181008508"><ele>284.3333333333333</ele><time>2026-04-04T08:14:10Z</time></trkpt><trkpt lat="43.484710168595065" lon="11.776756213927829"><ele>284.6666666666667</ele><time>2026-04-04T08:14:12Z</time></trkpt><trkpt lat="43.484687094749134" lon="11.776663946783298"><ele>285.0</ele><time>2026-04-04T08:14:14Z</time></trkpt><trkpt lat="43.48465334617964" lon="11.776558594977349"><ele>286.0</ele><time>2026-04-04T08:14:16Z</time></trkpt><trkpt lat="43.48461567721695" lon="11.776466600173965"><ele>287.0</ele><time>2026-04-04T08:14:18Z</time></trkpt><trkpt lat="43.48458384191922" lon="11.776363678991572"><ele>288.0</ele><time>2026-04-04T08:14:20Z</time></trkpt><trkpt lat="43.484547136289834" lon="11.776274573344951"><ele>289.0</ele><time>2026-04-04T08:14:22Z</time></trkpt><trkpt lat="43.484502355376435" lon="11.776185478022864"><ele>290.0</ele><time>2026-04-04T08:14:24Z</time></trkpt><trkpt lat="43.484470239884125" lon="11.77609276742677"><ele>291.0</ele><time>2026-04-04T08:14:26Z</time></trkpt><trkpt lat="43.48442049037909" lon="11.775997794740052"><ele>291.1666666666667</ele><time>2026-04-04T08:14:28Z</time></trkpt><trkpt lat="43.484377618342926" lon="11.775905870916615"><ele>291.3333333333333</ele><time>2026-04-04T08:14:30Z</time></trkpt><trkpt lat="43.48432380963801" lon="11.77581127022933"><ele>291.5</ele><time>2026-04-04T08:14:32Z</time></trkpt><trkpt lat="43.484286675971425" lon="11.775718049255085"><ele>291.66666666666663</ele><time>2026-04-04T08:14:34Z</time></trkpt><trkpt lat="43.48423967829476" lon="11.775623553977148"><ele>291.8333333333333</ele><time>2026-04-04T08:14:36Z</time></trkpt><trkpt lat="43.484200236028826" lon="11.775531559820068"><ele>292.0</ele><time>2026-04-04T08:14:37.999Z</time></trkpt><trkpt lat="43.48415078837761" lon="11.77543897974182"><ele>292.0</ele><time>2026-04-04T08:14:39.999Z</time></trkpt><trkpt lat="43.48411032891401" lon="11.775347464968059"><ele>292.0</ele><time>2026-04-04T08:14:41.999Z</time></trkpt><trkpt lat="43.48406746102064" lon="11.775257899897051"><ele>292.0</ele><time>2026-04-04T08:14:43.999Z</time></trkpt><trkpt lat="43.484024680060195" lon="11.77517346204168"><ele>292.0</ele><time>2026-04-04T08:14:45.999Z</time></trkpt><trkpt lat="43.48398617580887" lon="11.775075727405369"><ele>292.0</ele><time>2026-04-04T08:14:47.999Z</time></trkpt><trkpt lat="43.48394205850968" lon="11.77498669520452"><ele>292.0</ele><time>2026-04-04T08:14:49.999Z</time></trkpt><trkpt lat="43.48390141433245" lon="11.774893156468815"><ele>292.42857142857144</ele><time>2026-04-04T08:14:51.999Z</time></trkpt><trkpt lat="43.483854161008836" lon="11.774804916620578"><ele>292.8571428571429</ele><time>2026-04-04T08:14:53.999Z</time></trkpt><trkpt lat="43.48381101358574" lon="11.774716983329066"><ele>293.28571428571433</ele><time>2026-04-04T08:14:55.999Z</time></trkpt><trkpt lat="43.483773256787345" lon="11.774629938850333"><ele>293.7142857142857</ele><time>2026-04-04T08:14:57.999Z</time></trkpt><trkpt lat="43.48373186701504" lon="11.774544327604634"><ele>294.14285714285717</ele><time>2026-04-04T08:14:59.999Z</time></trkpt><trkpt lat="43.48369914228119" lon="11.774459522478415"><ele>294.5714285714286</ele><time>2026-04-04T08:15:01.999Z</time></trkpt><trkpt lat="43.483661197154525" lon="11.774376055043714"><ele>295.0</ele><time>2026-04-04T08:15:03.999Z</time></trkpt><trkpt lat="43.48362963697971" lon="11.774293554187924"><ele>295.0</ele><time>2026-04-04T08:15:05.999Z</time></trkpt><trkpt lat="43.48360033720778" lon="11.774213469304472"><ele>295.0</ele><time>2026-04-04T08:15:07.999Z</time></trkpt><trkpt lat="43.483572582358526" lon="11.774134883457121"><ele>295.0</ele><time>2026-04-04T08:15:09.999Z</time></trkpt><trkpt lat="43.483537651340356" lon="11.774018759798775"><ele>295.0</ele><time>2026-04-04T08:15:12.999Z</time></trkpt><trkpt lat="43.483517940673025" lon="11.77393501410368"><ele>295.0</ele><time>2026-04-04T08:15:14.999Z</time></trkpt><trkpt lat="43.48349287228165" lon="11.773824911187928"><ele>295.0</ele><time>2026-04-04T08:15:17.999Z</time></trkpt><trkpt lat="43.483465398704865" lon="11.77371041103187"><ele>295.0</ele><time>2026-04-04T08:15:20.999Z</time></trkpt><trkpt lat="43.48344319030889" lon="11.773596855405769"><ele>295.0</ele><time>2026-04-04T08:15:23.999Z</time></trkpt><trkpt lat="43.48341972603326" lon="11.77349041032849"><ele>295.0</ele><time>2026-04-04T08:15:26.999Z</time></trkpt><trkpt lat="43.48339740426981" lon="11.773393719649263"><ele>295.0</ele><time>2026-04-04T08:15:29.998Z</time></trkpt><trkpt lat="43.4833747402166" lon="11.773275986514829"><ele>295.0</ele><time>2026-04-04T08:15:32.998Z</time></trkpt><trkpt lat="43.48335354563331" lon="11.773176405278488"><ele>295.0</ele><time>2026-04-04T08:15:35.998Z</time></trkpt><trkpt lat="43.483327181839826" lon="11.77306043825993"><ele>295.3333333333333</ele><time>2026-04-04T08:15:38.998Z</time></trkpt><trkpt lat="43.48331573923463" lon="11.772949824189602"><ele>295.66666666666663</ele><time>2026-04-04T08:15:41.998Z</time></trkpt><trkpt lat="43.483291837433384" lon="11.772855590368914"><ele>296.0</ele><time>2026-04-04T08:15:44.998Z</time></trkpt><trkpt lat="43.483277976691234" lon="11.772739864605096"><ele>296.3333333333333</ele><time>2026-04-04T08:15:47.998Z</time></trkpt><trkpt lat="43.483258304900744" lon="11.772631950654374"><ele>296.6666666666667</ele><time>2026-04-04T08:15:50.998Z</time></trkpt><trkpt lat="43.48324134430353" lon="11.772525173088937"><ele>297.0</ele><time>2026-04-04T08:15:53.998Z</time></trkpt><trkpt lat="43.48322075411543" lon="11.772417717607064"><ele>297.8333333333333</ele><time>2026-04-04T08:15:56.998Z</time></trkpt><trkpt lat="43.48320795388366" lon="11.772314524242965"><ele>298.6666666666667</ele><time>2026-04-04T08:15:59.998Z</time></trkpt><trkpt lat="43.483200536397845" lon="11.772206761461948"><ele>299.5</ele><time>2026-04-04T08:16:02.998Z</time></trkpt><trkpt lat="43.48318679532108" lon="11.772100983806032"><ele>300.33333333333337</ele><time>2026-04-04T08:16:05.998Z</time></trkpt><trkpt lat="43.48317622115818" lon="11.771984229390046"><ele>301.1666666666667</ele><time>2026-04-04T08:16:09Z</time></trkpt><trkpt lat="43.483165704532794" lon="11.771872369676961"><ele>302.0</ele><time>2026-04-04T08:16:12Z</time></trkpt><trkpt lat="43.48315318479521" lon="11.771762101385349"><ele>302.33333333333337</ele><time>2026-04-04T08:16:15Z</time></trkpt><trkpt lat="43.483139543528885" lon="11.771658149299212"><ele>302.6666666666667</ele><time>2026-04-04T08:16:18Z</time></trkpt><trkpt lat="43.48313228897464" lon="11.771543798247986"><ele>303.0</ele><time>2026-04-04T08:16:21Z</time></trkpt><trkpt lat="43.48313640078288" lon="11.771429598035573"><ele>303.3333333333333</ele><time>2026-04-04T08:16:24Z</time></trkpt><trkpt lat="43.48313872596789" lon="11.771311817984985"><ele>303.66666666666663</ele><time>2026-04-04T08:16:27Z</time></trkpt><trkpt lat="43.48314330667215" lon="11.771193622080988"><ele>304.0</ele><time>2026-04-04T08:16:30Z</time></trkpt><trkpt lat="43.48315938014443" lon="11.771063632508225"><ele>304.57142857142856</ele><time>2026-04-04T08:16:33Z</time></trkpt><trkpt lat="43.48316442794396" lon="11.77097545101569"><ele>305.14285714285717</ele><time>2026-04-04T08:16:35Z</time></trkpt><trkpt lat="43.483172553110435" lon="11.770884658594024"><ele>305.7142857142857</ele><time>2026-04-04T08:16:37Z</time></trkpt><trkpt lat="43.48318491740561" lon="11.770792426257733"><ele>306.2857142857143</ele><time>2026-04-04T08:16:39Z</time></trkpt><trkpt lat="43.48319166607619" lon="11.770702069339182"><ele>306.8571428571429</ele><time>2026-04-04T08:16:41Z</time></trkpt><trkpt lat="43.483207338671576" lon="11.77060763556746"><ele>307.42857142857144</ele><time>2026-04-04T08:16:43Z</time></trkpt><trkpt lat="43.48321818156632" lon="11.770515069719998"><ele>308.0</ele><time>2026-04-04T08:16:45Z</time></trkpt><trkpt lat="43.48322678696652" lon="11.770419512171959"><ele>308.0</ele><time>2026-04-04T08:16:46.999Z</time></trkpt><trkpt lat="43.483239393999554" lon="11.770316563486126"><ele>308.0</ele><time>2026-04-04T08:16:48.999Z</time></trkpt><trkpt lat="43.48324932014327" lon="11.770215926294227"><ele>308.0</ele><time>2026-04-04T08:16:50.999Z</time></trkpt><trkpt lat="43.483258888705926" lon="11.770113945953309"><ele>308.0</ele><time>2026-04-04T08:16:52.999Z</time></trkpt><trkpt lat="43.483263419787015" lon="11.770012160864331"><ele>308.0</ele><time>2026-04-04T08:16:54.999Z</time></trkpt><trkpt lat="43.483253066357875" lon="11.76991621577069"><ele>308.0</ele><time>2026-04-04T08:16:56.999Z</time></trkpt><trkpt lat="43.48324415038841" lon="11.769819233802178"><ele>308.0</ele><time>2026-04-04T08:16:58.999Z</time></trkpt><trkpt lat="43.48323366635743" lon="11.769723826585526"><ele>308.14285714285717</ele><time>2026-04-04T08:17:00.999Z</time></trkpt><trkpt lat="43.483221114942694" lon="11.769631263199102"><ele>308.2857142857143</ele><time>2026-04-04T08:17:02.999Z</time></trkpt><trkpt lat="43.48321181647382" lon="11.769536903242122"><ele>308.42857142857144</ele><time>2026-04-04T08:17:04.999Z</time></trkpt><trkpt lat="43.48319921332139" lon="11.76944407869611"><ele>308.57142857142856</ele><time>2026-04-04T08:17:06.999Z</time></trkpt><trkpt lat="43.483188390115934" lon="11.769352392428269"><ele>308.7142857142857</ele><time>2026-04-04T08:17:08.999Z</time></trkpt><trkpt lat="43.483168234698454" lon="11.769260123323681"><ele>308.8571428571429</ele><time>2026-04-04T08:17:10.999Z</time></trkpt><trkpt lat="43.483148258375266" lon="11.76913103431149"><ele>309.0</ele><time>2026-04-04T08:17:13.999Z</time></trkpt><trkpt lat="43.48313632285517" lon="11.76904495201806"><ele>309.1666666666667</ele><time>2026-04-04T08:17:15.999Z</time></trkpt><trkpt lat="43.48311682461396" lon="11.768925266585754"><ele>309.3333333333333</ele><time>2026-04-04T08:17:18.999Z</time></trkpt><trkpt lat="43.483094622624044" lon="11.768808572191972"><ele>309.5</ele><time>2026-04-04T08:17:21.999Z</time></trkpt><trkpt lat="43.48307506066397" lon="11.768675109870781"><ele>309.66666666666663</ele><time>2026-04-04T08:17:24.999Z</time></trkpt><trkpt lat="43.48305743197256" lon="11.768587190073264"><ele>309.8333333333333</ele><time>2026-04-04T08:17:26.999Z</time></trkpt><trkpt lat="43.48304503876178" lon="11.768496931520843"><ele>310.0</ele><time>2026-04-04T08:17:28.999Z</time></trkpt><trkpt lat="43.4830201469221" lon="11.768371749506297"><ele>310.8571428571429</ele><time>2026-04-04T08:17:31.999Z</time></trkpt><trkpt lat="43.4830041477905" lon="11.768283838107326"><ele>311.7142857142857</ele><time>2026-04-04T08:17:33.999Z</time></trkpt><trkpt lat="43.48298776490254" lon="11.768197116719472"><ele>312.57142857142856</ele><time>2026-04-04T08:17:35.999Z</time></trkpt><trkpt lat="43.48297203278371" lon="11.768110374195517"><ele>313.42857142857144</ele><time>2026-04-04T08:17:37.998Z</time></trkpt><trkpt lat="43.482957454322154" lon="11.768025389300009"><ele>314.2857142857143</ele><time>2026-04-04T08:17:39.998Z</time></trkpt><trkpt lat="43.482938633749015" lon="11.767939253930827"><ele>315.14285714285717</ele><time>2026-04-04T08:17:41.998Z</time></trkpt><trkpt lat="43.482915488534246" lon="11.76781594126393"><ele>316.0</ele><time>2026-04-04T08:17:44.998Z</time></trkpt><trkpt lat="43.482897299810226" lon="11.767694617525919"><ele>316.0</ele><time>2026-04-04T08:17:47.998Z</time></trkpt><trkpt lat="43.48287456565621" lon="11.767568650399905"><ele>316.0</ele><time>2026-04-04T08:17:50.998Z</time></trkpt><trkpt lat="43.482862325287414" lon="11.767482335934167"><ele>316.0</ele><time>2026-04-04T08:17:52.998Z</time></trkpt><trkpt lat="43.482851323682745" lon="11.767382804889149"><ele>316.0</ele><time>2026-04-04T08:17:54.998Z</time></trkpt><trkpt lat="43.48283668563333" lon="11.767279877716932"><ele>316.0</ele><time>2026-04-04T08:17:56.998Z</time></trkpt><trkpt lat="43.482820385343196" lon="11.767152520915934"><ele>316.0</ele><time>2026-04-04T08:17:58.998Z</time></trkpt><trkpt lat="43.48279916294994" lon="11.767014297377441"><ele>316.0</ele><time>2026-04-04T08:18:00.998Z</time></trkpt><trkpt lat="43.48277831104265" lon="11.766862924533273"><ele>316.0</ele><time>2026-04-04T08:18:02.998Z</time></trkpt><trkpt lat="43.48275852497489" lon="11.766696025090004"><ele>316.0</ele><time>2026-04-04T08:18:04.998Z</time></trkpt><trkpt lat="43.482745287736236" lon="11.766607263581196"><ele>316.0</ele><time>2026-04-04T08:18:05.998Z</time></trkpt><trkpt lat="43.48273208427638" lon="11.766513884538984"><ele>316.0</ele><time>2026-04-04T08:18:06.998Z</time></trkpt><trkpt lat="43.48271737361608" lon="11.766417586293466"><ele>316.0</ele><time>2026-04-04T08:18:07.998Z</time></trkpt><trkpt lat="43.48270283110135" lon="11.76632019030107"><ele>315.5</ele><time>2026-04-04T08:18:08.998Z</time></trkpt><trkpt lat="43.48269002525099" lon="11.766216675656505"><ele>315.0</ele><time>2026-04-04T08:18:09.998Z</time></trkpt><trkpt lat="43.48267655832818" lon="11.766110212042701"><ele>314.5</ele><time>2026-04-04T08:18:10.998Z</time></trkpt><trkpt lat="43.48265780120369" lon="11.76600511850876"><ele>314.0</ele><time>2026-04-04T08:18:12Z</time></trkpt><trkpt lat="43.48264760690713" lon="11.765890858401114"><ele>313.5</ele><time>2026-04-04T08:18:13Z</time></trkpt><trkpt lat="43.48263628393679" lon="11.765778775162797"><ele>313.0</ele><time>2026-04-04T08:18:14Z</time></trkpt><trkpt lat="43.48262933143484" lon="11.765663871877852"><ele>312.2</ele><time>2026-04-04T08:18:15Z</time></trkpt><trkpt lat="43.482619672262715" lon="11.765541623449678"><ele>311.4</ele><time>2026-04-04T08:18:16Z</time></trkpt><trkpt lat="43.482611644153764" lon="11.765420218554492"><ele>310.59999999999997</ele><time>2026-04-04T08:18:17Z</time></trkpt><trkpt lat="43.4826015838096" lon="11.765299660298751"><ele>309.8</ele><time>2026-04-04T08:18:18Z</time></trkpt><trkpt lat="43.4825920037664" lon="11.765173571469894"><ele>309.0</ele><time>2026-04-04T08:18:19Z</time></trkpt><trkpt lat="43.48258052334594" lon="11.765044760375023"><ele>307.4</ele><time>2026-04-04T08:18:20Z</time></trkpt><trkpt lat="43.482569865188275" lon="11.764914894782397"><ele>305.79999999999995</ele><time>2026-04-04T08:18:21Z</time></trkpt><trkpt lat="43.48255767915499" lon="11.764783564698218"><ele>304.20000000000005</ele><time>2026-04-04T08:18:22Z</time></trkpt><trkpt lat="43.48254764321632" lon="11.764648988755901"><ele>302.6</ele><time>2026-04-04T08:18:23Z</time></trkpt><trkpt lat="43.48253914080495" lon="11.764512839200211"><ele>301.0</ele><time>2026-04-04T08:18:24Z</time></trkpt><trkpt lat="43.48253622290127" lon="11.764374646271479"><ele>300.0</ele><time>2026-04-04T08:18:25Z</time></trkpt><trkpt lat="43.48254915643593" lon="11.764232735366908"><ele>299.0</ele><time>2026-04-04T08:18:26Z</time></trkpt><trkpt lat="43.48258051573308" lon="11.76409211153506"><ele>298.0</ele><time>2026-04-04T08:18:27Z</time></trkpt><trkpt lat="43.48261448991489" lon="11.763957006302803"><ele>297.0</ele><time>2026-04-04T08:18:28Z</time></trkpt><trkpt lat="43.482656519936064" lon="11.763823696985831"><ele>296.0</ele><time>2026-04-04T08:18:29Z</time></trkpt><trkpt lat="43.48270514839971" lon="11.763691850265424"><ele>296.0</ele><time>2026-04-04T08:18:30Z</time></trkpt><trkpt lat="43.482758780837095" lon="11.763565474462897"><ele>296.0</ele><time>2026-04-04T08:18:31Z</time></trkpt><trkpt lat="43.48281724200827" lon="11.763443242954304"><ele>296.0</ele><time>2026-04-04T08:18:32Z</time></trkpt><trkpt lat="43.48287646653807" lon="11.763319358186944"><ele>296.0</ele><time>2026-04-04T08:18:33Z</time></trkpt><trkpt lat="43.482935281017" lon="11.763197774658492"><ele>296.0</ele><time>2026-04-04T08:18:34Z</time></trkpt><trkpt lat="43.482991824008764" lon="11.763075129063976"><ele>296.2</ele><time>2026-04-04T08:18:35Z</time></trkpt><trkpt lat="43.483037869993666" lon="11.762946424316464"><ele>296.40000000000003</ele><time>2026-04-04T08:18:36Z</time></trkpt><trkpt lat="43.48307439868394" lon="11.762812061413669"><ele>296.6</ele><time>2026-04-04T08:18:37Z</time></trkpt><trkpt lat="43.48310818214594" lon="11.762677368816973"><ele>296.8</ele><time>2026-04-04T08:18:38Z</time></trkpt><trkpt lat="43.48314058201747" lon="11.762542629313016"><ele>297.0</ele><time>2026-04-04T08:18:39Z</time></trkpt><trkpt lat="43.483173801300836" lon="11.762408975214557"><ele>297.0</ele><time>2026-04-04T08:18:40Z</time></trkpt><trkpt lat="43.48320671240155" lon="11.762277375591601"><ele>297.0</ele><time>2026-04-04T08:18:41Z</time></trkpt><trkpt lat="43.4832394048329" lon="11.762144843374614"><ele>297.0</ele><time>2026-04-04T08:18:42Z</time></trkpt><trkpt lat="43.48327651841742" lon="11.762011915919206"><ele>297.0</ele><time>2026-04-04T08:18:43Z</time></trkpt><trkpt lat="43.48331331797829" lon="11.761881003378495"><ele>297.0</ele><time>2026-04-04T08:18:44Z</time></trkpt><trkpt lat="43.4833491926289" lon="11.761747959989673"><ele>295.0</ele><time>2026-04-04T08:18:45Z</time></trkpt><trkpt lat="43.483386474887844" lon="11.76161936387956"><ele>293.0</ele><time>2026-04-04T08:18:46Z</time></trkpt><trkpt lat="43.483426461198654" lon="11.761493768310952"><ele>291.0</ele><time>2026-04-04T08:18:47Z</time></trkpt><trkpt lat="43.48346205400321" lon="11.761365243353165"><ele>289.0</ele><time>2026-04-04T08:18:48Z</time></trkpt><trkpt lat="43.483496773332554" lon="11.7612365756695"><ele>287.0</ele><time>2026-04-04T08:18:49Z</time></trkpt><trkpt lat="43.48352181216923" lon="11.761107366612912"><ele>285.8</ele><time>2026-04-04T08:18:50Z</time></trkpt><trkpt lat="43.48354206693537" lon="11.76097855542645"><ele>284.6</ele><time>2026-04-04T08:18:50.999Z</time></trkpt><trkpt lat="43.483559849090256" lon="11.760852295798884"><ele>283.40000000000003</ele><time>2026-04-04T08:18:51.999Z</time></trkpt><trkpt lat="43.48357539973377" lon="11.760727227381043"><ele>282.2</ele><time>2026-04-04T08:18:52.999Z</time></trkpt><trkpt lat="43.4835882606191" lon="11.76060248576981"><ele>281.0</ele><time>2026-04-04T08:18:53.999Z</time></trkpt><trkpt lat="43.48360450232214" lon="11.760482773044187"><ele>281.0</ele><time>2026-04-04T08:18:54.999Z</time></trkpt><trkpt lat="43.48362262943399" lon="11.760366524475678"><ele>281.0</ele><time>2026-04-04T08:18:55.999Z</time></trkpt><trkpt lat="43.48364025908955" lon="11.760249792474502"><ele>281.0</ele><time>2026-04-04T08:18:56.999Z</time></trkpt><trkpt lat="43.483665011082834" lon="11.760139388425575"><ele>281.0</ele><time>2026-04-04T08:18:57.999Z</time></trkpt><trkpt lat="43.48369131121875" lon="11.760029400271927"><ele>281.0</ele><time>2026-04-04T08:18:58.999Z</time></trkpt><trkpt lat="43.48371960913652" lon="11.759922863166988"><ele>281.0</ele><time>2026-04-04T08:18:59.999Z</time></trkpt><trkpt lat="43.4837465574435" lon="11.75981647506736"><ele>281.6666666666667</ele><time>2026-04-04T08:19:00.999Z</time></trkpt><trkpt lat="43.48377246493032" lon="11.75971279616695"><ele>282.33333333333337</ele><time>2026-04-04T08:19:01.999Z</time></trkpt><trkpt lat="43.48379958573582" lon="11.75961179938924"><ele>283.0</ele><time>2026-04-04T08:19:02.999Z</time></trkpt><trkpt lat="43.483827146232485" lon="11.759510143143336"><ele>283.6666666666667</ele><time>2026-04-04T08:19:03.999Z</time></trkpt><trkpt lat="43.483857769959556" lon="11.759408634557445"><ele>284.3333333333333</ele><time>2026-04-04T08:19:04.999Z</time></trkpt><trkpt lat="43.48389015813784" lon="11.759309613330979"><ele>285.0</ele><time>2026-04-04T08:19:05.999Z</time></trkpt><trkpt lat="43.48392045995123" lon="11.759207274828318"><ele>285.0</ele><time>2026-04-04T08:19:06.999Z</time></trkpt><trkpt lat="43.483949190519844" lon="11.759105151054621"><ele>285.0</ele><time>2026-04-04T08:19:07.999Z</time></trkpt><trkpt lat="43.48397594232161" lon="11.759002922320773"><ele>285.0</ele><time>2026-04-04T08:19:08.999Z</time></trkpt><trkpt lat="43.48400069199591" lon="11.758898949808838"><ele>285.0</ele><time>2026-04-04T08:19:09.999Z</time></trkpt><trkpt lat="43.484015668268476" lon="11.758788843251237"><ele>285.0</ele><time>2026-04-04T08:19:10.999Z</time></trkpt><trkpt lat="43.48401425826251" lon="11.758675248266616"><ele>285.0</ele><time>2026-04-04T08:19:11.999Z</time></trkpt><trkpt lat="43.483991259131926" lon="11.758558061014018"><ele>285.0</ele><time>2026-04-04T08:19:12.999Z</time></trkpt><trkpt lat="43.48395902659903" lon="11.758444256472295"><ele>285.0</ele><time>2026-04-04T08:19:13.999Z</time></trkpt><trkpt lat="43.483915655110785" lon="11.758337502892813"><ele>285.0</ele><time>2026-04-04T08:19:14.999Z</time></trkpt><trkpt lat="43.48387280345402" lon="11.758229800298157"><ele>285.0</ele><time>2026-04-04T08:19:15.999Z</time></trkpt><trkpt lat="43.48383527268406" lon="11.758122465960806"><ele>285.0</ele><time>2026-04-04T08:19:16.999Z</time></trkpt><trkpt lat="43.483790781828546" lon="11.758013047714226"><ele>285.0</ele><time>2026-04-04T08:19:17.999Z</time></trkpt><trkpt lat="43.483754949130415" lon="11.757898329919758"><ele>283.6666666666667</ele><time>2026-04-04T08:19:18.999Z</time></trkpt><trkpt lat="43.4837201959601" lon="11.757786142775808"><ele>282.3333333333333</ele><time>2026-04-04T08:19:19.999Z</time></trkpt><trkpt lat="43.48367984568735" lon="11.757676158294975"><ele>281.0</ele><time>2026-04-04T08:19:20.999Z</time></trkpt><trkpt lat="43.483644094176235" lon="11.75756106491617"><ele>279.66666666666663</ele><time>2026-04-04T08:19:21.999Z</time></trkpt><trkpt lat="43.48360899004804" lon="11.75745740156489"><ele>278.3333333333333</ele><time>2026-04-04T08:19:22.999Z</time></trkpt><trkpt lat="43.48357024396346" lon="11.75734177433707"><ele>277.0</ele><time>2026-04-04T08:19:23.999Z</time></trkpt><trkpt lat="43.48353550424223" lon="11.757231244904977"><ele>277.0</ele><time>2026-04-04T08:19:24.999Z</time></trkpt><trkpt lat="43.48349717094706" lon="11.757120028108572"><ele>277.0</ele><time>2026-04-04T08:19:25.999Z</time></trkpt><trkpt lat="43.48346178085948" lon="11.757013570412612"><ele>277.0</ele><time>2026-04-04T08:19:26.999Z</time></trkpt><trkpt lat="43.483429180982434" lon="11.756903718969387"><ele>277.0</ele><time>2026-04-04T08:19:27.999Z</time></trkpt><trkpt lat="43.483396109329796" lon="11.756795205619186"><ele>277.0</ele><time>2026-04-04T08:19:28.999Z</time></trkpt><trkpt lat="43.483363584673036" lon="11.756683575188164"><ele>277.0</ele><time>2026-04-04T08:19:29.999Z</time></trkpt><trkpt lat="43.483331060999646" lon="11.756572350465834"><ele>277.3333333333333</ele><time>2026-04-04T08:19:30.999Z</time></trkpt><trkpt lat="43.48329707307247" lon="11.756463830699348"><ele>277.66666666666663</ele><time>2026-04-04T08:19:31.999Z</time></trkpt><trkpt lat="43.48326824732567" lon="11.756352140140441"><ele>278.0</ele><time>2026-04-04T08:19:32.999Z</time></trkpt><trkpt lat="43.48323547545886" lon="11.756238215275351"><ele>278.3333333333333</ele><time>2026-04-04T08:19:33.999Z</time></trkpt><trkpt lat="43.483204016434904" lon="11.756126301582077"><ele>278.6666666666667</ele><time>2026-04-04T08:19:34.999Z</time></trkpt><trkpt lat="43.483176459038994" lon="11.756004880076963"><ele>279.0</ele><time>2026-04-04T08:19:35.999Z</time></trkpt><trkpt lat="43.483154947063305" lon="11.755886480314302"><ele>279.0</ele><time>2026-04-04T08:19:36.999Z</time></trkpt><trkpt lat="43.483144143428284" lon="11.755760884825277"><ele>279.0</ele><time>2026-04-04T08:19:37.999Z</time></trkpt><trkpt lat="43.48314205730538" lon="11.755634548627052"><ele>279.0</ele><time>2026-04-04T08:19:38.998Z</time></trkpt><trkpt lat="43.48314465615514" lon="11.755507434468685"><ele>279.0</ele><time>2026-04-04T08:19:39.998Z</time></trkpt><trkpt lat="43.483148411880386" lon="11.755377581146693"><ele>279.0</ele><time>2026-04-04T08:19:40.998Z</time></trkpt><trkpt lat="43.48316615024068" lon="11.755245916819977"><ele>277.59999999999997</ele><time>2026-04-04T08:19:41.998Z</time></trkpt><trkpt lat="43.48319398448781" lon="11.755122912461282"><ele>276.2</ele><time>2026-04-04T08:19:42.998Z</time></trkpt><trkpt lat="43.48323956087764" lon="11.755004636775782"><ele>274.79999999999995</ele><time>2026-04-04T08:19:43.998Z</time></trkpt><trkpt lat="43.48331429816993" lon="11.754904752008756"><ele>273.4</ele><time>2026-04-04T08:19:44.998Z</time></trkpt><trkpt lat="43.48340050677169" lon="11.754831743510367"><ele>272.0</ele><time>2026-04-04T08:19:45.998Z</time></trkpt><trkpt lat="43.48348807972296" lon="11.754755184507838"><ele>272.0</ele><time>2026-04-04T08:19:46.998Z</time></trkpt><trkpt lat="43.48356257971746" lon="11.754668562323598"><ele>272.0</ele><time>2026-04-04T08:19:47.998Z</time></trkpt><trkpt lat="43.483641600439874" lon="11.754573213012685"><ele>272.0</ele><time>2026-04-04T08:19:48.998Z</time></trkpt><trkpt lat="43.483719863246954" lon="11.75447837267484"><ele>272.0</ele><time>2026-04-04T08:19:49.998Z</time></trkpt><trkpt lat="43.483800549943" lon="11.754396211320689"><ele>272.0</ele><time>2026-04-04T08:19:50.998Z</time></trkpt><trkpt lat="43.48387935206161" lon="11.754306799505176"><ele>271.4</ele><time>2026-04-04T08:19:51.998Z</time></trkpt><trkpt lat="43.48395706279234" lon="11.754214076847274"><ele>270.79999999999995</ele><time>2026-04-04T08:19:52.998Z</time></trkpt><trkpt lat="43.48403432261094" lon="11.75413032075073"><ele>270.2</ele><time>2026-04-04T08:19:53.998Z</time></trkpt><trkpt lat="43.48410562082466" lon="11.75404083094943"><ele>269.59999999999997</ele><time>2026-04-04T08:19:54.998Z</time></trkpt><trkpt lat="43.48416790466209" lon="11.753937272845407"><ele>269.0</ele><time>2026-04-04T08:19:55.998Z</time></trkpt><trkpt lat="43.48422305980313" lon="11.753822521086779"><ele>269.0</ele><time>2026-04-04T08:19:56.998Z</time></trkpt><trkpt lat="43.48427612598897" lon="11.753701014974853"><ele>269.0</ele><time>2026-04-04T08:19:57.998Z</time></trkpt><trkpt lat="43.48432866708803" lon="11.753578561312107"><ele>269.0</ele><time>2026-04-04T08:19:58.998Z</time></trkpt><trkpt lat="43.484382405023375" lon="11.753452838089485"><ele>269.0</ele><time>2026-04-04T08:19:59.998Z</time></trkpt><trkpt lat="43.4844371054579" lon="11.753326700566344"><ele>269.0</ele><time>2026-04-04T08:20:00.998Z</time></trkpt><trkpt lat="43.48449162417727" lon="11.753195239198702"><ele>268.0</ele><time>2026-04-04T08:20:01.998Z</time></trkpt><trkpt lat="43.48454736493346" lon="11.753069561836602"><ele>267.0</ele><time>2026-04-04T08:20:02.998Z</time></trkpt><trkpt lat="43.48460176065669" lon="11.752942931447507"><ele>266.0</ele><time>2026-04-04T08:20:03.998Z</time></trkpt><trkpt lat="43.48465405544192" lon="11.752813594198983"><ele>265.0</ele><time>2026-04-04T08:20:04.998Z</time></trkpt><trkpt lat="43.48470522829026" lon="11.7526868443264"><ele>264.0</ele><time>2026-04-04T08:20:05.998Z</time></trkpt><trkpt lat="43.484758533694965" lon="11.752567936101872"><ele>264.0</ele><time>2026-04-04T08:20:06.998Z</time></trkpt><trkpt lat="43.4848121177487" lon="11.752453583546632"><ele>264.0</ele><time>2026-04-04T08:20:07.998Z</time></trkpt><trkpt lat="43.48486308026627" lon="11.752338431228322"><ele>264.0</ele><time>2026-04-04T08:20:08.998Z</time></trkpt><trkpt lat="43.48491161823944" lon="11.752226207496753"><ele>264.0</ele><time>2026-04-04T08:20:09.998Z</time></trkpt><trkpt lat="43.484957500200046" lon="11.752116203990294"><ele>264.0</ele><time>2026-04-04T08:20:10.998Z</time></trkpt><trkpt lat="43.4850039840473" lon="11.75200923815932"><ele>264.0</ele><time>2026-04-04T08:20:11.998Z</time></trkpt><trkpt lat="43.48505073921" lon="11.751905148502205"><ele>264.0</ele><time>2026-04-04T08:20:12.998Z</time></trkpt><trkpt lat="43.485094503519534" lon="11.751802725187062"><ele>264.0</ele><time>2026-04-04T08:20:13.998Z</time></trkpt><trkpt lat="43.4851373226501" lon="11.75170184105405"><ele>264.0</ele><time>2026-04-04T08:20:14.998Z</time></trkpt><trkpt lat="43.48517796439455" lon="11.751601948325026"><ele>264.0</ele><time>2026-04-04T08:20:15.998Z</time></trkpt><trkpt lat="43.4852121649869" lon="11.751499229066301"><ele>264.0</ele><time>2026-04-04T08:20:16.998Z</time></trkpt><trkpt lat="43.48524259784712" lon="11.751396736220453"><ele>263.57142857142856</ele><time>2026-04-04T08:20:18Z</time></trkpt><trkpt lat="43.48526776063186" lon="11.751295677218163"><ele>263.14285714285717</ele><time>2026-04-04T08:20:19Z</time></trkpt><trkpt lat="43.48528755041883" lon="11.751193785850546"><ele>262.7142857142857</ele><time>2026-04-04T08:20:20Z</time></trkpt><trkpt lat="43.48530149852832" lon="11.751091365794695"><ele>262.2857142857143</ele><time>2026-04-04T08:20:21Z</time></trkpt><trkpt lat="43.48531573232385" lon="11.75099003089783"><ele>261.85714285714283</ele><time>2026-04-04T08:20:22Z</time></trkpt><trkpt lat="43.48532743996255" lon="11.750894057496243"><ele>261.42857142857144</ele><time>2026-04-04T08:20:23Z</time></trkpt><trkpt lat="43.485335903459486" lon="11.750798754199202"><ele>261.0</ele><time>2026-04-04T08:20:24Z</time></trkpt><trkpt lat="43.485339199159036" lon="11.750708198385977"><ele>262.0</ele><time>2026-04-04T08:20:25Z</time></trkpt><trkpt lat="43.485339845191284" lon="11.750616364451465"><ele>263.0</ele><time>2026-04-04T08:20:26Z</time></trkpt><trkpt lat="43.4853360227386" lon="11.750525957116736"><ele>264.0</ele><time>2026-04-04T08:20:27Z</time></trkpt><trkpt lat="43.48533156599" lon="11.750437761938324"><ele>265.0</ele><time>2026-04-04T08:20:28Z</time></trkpt><trkpt lat="43.485321186165336" lon="11.750350742146782"><ele>266.0</ele><time>2026-04-04T08:20:29Z</time></trkpt><trkpt lat="43.485296023112525" lon="11.7501813167808"><ele>267.0</ele><time>2026-04-04T08:20:31Z</time></trkpt><trkpt lat="43.48526871244819" lon="11.750014975840353"><ele>268.25</ele><time>2026-04-04T08:20:33Z</time></trkpt><trkpt lat="43.485243334023856" lon="11.749853037078623"><ele>269.5</ele><time>2026-04-04T08:20:35Z</time></trkpt><trkpt lat="43.48521243621567" lon="11.749696006910423"><ele>270.75</ele><time>2026-04-04T08:20:37Z</time></trkpt><trkpt lat="43.48518708358555" lon="11.74954146198737"><ele>272.0</ele><time>2026-04-04T08:20:39Z</time></trkpt><trkpt lat="43.485160052908554" lon="11.749385549031853"><ele>271.4</ele><time>2026-04-04T08:20:41Z</time></trkpt><trkpt lat="43.48513119690321" lon="11.749228730109264"><ele>270.79999999999995</ele><time>2026-04-04T08:20:43Z</time></trkpt><trkpt lat="43.48510817974079" lon="11.749078971683401"><ele>270.2</ele><time>2026-04-04T08:20:45Z</time></trkpt><trkpt lat="43.485081876353284" lon="11.748930426701524"><ele>269.59999999999997</ele><time>2026-04-04T08:20:47Z</time></trkpt><trkpt lat="43.48505296793488" lon="11.748788493264662"><ele>269.0</ele><time>2026-04-04T08:20:49Z</time></trkpt><trkpt lat="43.48501877126898" lon="11.74865244968689"><ele>268.2</ele><time>2026-04-04T08:20:51Z</time></trkpt><trkpt lat="43.48497902199133" lon="11.74851928408056"><ele>267.4</ele><time>2026-04-04T08:20:53Z</time></trkpt><trkpt lat="43.4849335446243" lon="11.748386239230372"><ele>266.6</ele><time>2026-04-04T08:20:55Z</time></trkpt><trkpt lat="43.48488170988024" lon="11.748259580668163"><ele>265.8</ele><time>2026-04-04T08:20:56.999Z</time></trkpt><trkpt lat="43.484826434912605" lon="11.74813849860699"><ele>265.0</ele><time>2026-04-04T08:20:58.999Z</time></trkpt><trkpt lat="43.48476631505633" lon="11.74802005508158"><ele>265.0</ele><time>2026-04-04T08:21:00.999Z</time></trkpt><trkpt lat="43.48469911248118" lon="11.74790496796809"><ele>265.0</ele><time>2026-04-04T08:21:02.999Z</time></trkpt><trkpt lat="43.484630673923874" lon="11.747796589288098"><ele>265.0</ele><time>2026-04-04T08:21:04.999Z</time></trkpt><trkpt lat="43.484561658813945" lon="11.747692327717555"><ele>265.0</ele><time>2026-04-04T08:21:06.999Z</time></trkpt><trkpt lat="43.484492626788644" lon="11.74758858746586"><ele>265.0</ele><time>2026-04-04T08:21:08.999Z</time></trkpt><trkpt lat="43.484424691850265" lon="11.74748770713818"><ele>265.0</ele><time>2026-04-04T08:21:10.999Z</time></trkpt><trkpt lat="43.48435812640473" lon="11.747388973048224"><ele>265.0</ele><time>2026-04-04T08:21:12.999Z</time></trkpt><trkpt lat="43.48429180264594" lon="11.747287699863511"><ele>265.0</ele><time>2026-04-04T08:21:14.999Z</time></trkpt><trkpt lat="43.484226377658594" lon="11.747188090305782"><ele>265.0</ele><time>2026-04-04T08:21:16.999Z</time></trkpt><trkpt lat="43.48415983403724" lon="11.747090154531419"><ele>265.0</ele><time>2026-04-04T08:21:18.999Z</time></trkpt><trkpt lat="43.48409717185683" lon="11.746995528903978"><ele>265.0</ele><time>2026-04-04T08:21:20.999Z</time></trkpt><trkpt lat="43.484032317481024" lon="11.746901353736261"><ele>265.0</ele><time>2026-04-04T08:21:22.999Z</time></trkpt><trkpt lat="43.483971225891366" lon="11.74680749086529"><ele>265.0</ele><time>2026-04-04T08:21:24.999Z</time></trkpt><trkpt lat="43.48390709936795" lon="11.746713659099965"><ele>265.0</ele><time>2026-04-04T08:21:26.999Z</time></trkpt><trkpt lat="43.48384522618962" lon="11.746621975506246"><ele>265.0</ele><time>2026-04-04T08:21:28.999Z</time></trkpt><trkpt lat="43.48378357850035" lon="11.74652949416251"><ele>266.16666666666663</ele><time>2026-04-04T08:21:30.999Z</time></trkpt><trkpt lat="43.48372283850324" lon="11.746437000803072"><ele>267.3333333333333</ele><time>2026-04-04T08:21:32.999Z</time></trkpt><trkpt lat="43.48366387400411" lon="11.746344060215977"><ele>268.5</ele><time>2026-04-04T08:21:34.999Z</time></trkpt><trkpt lat="43.483604020377676" lon="11.746255047566722"><ele>269.6666666666667</ele><time>2026-04-04T08:21:36.999Z</time></trkpt><trkpt lat="43.48354561730899" lon="11.74616415183977"><ele>270.83333333333337</ele><time>2026-04-04T08:21:38.999Z</time></trkpt><trkpt lat="43.48348321195141" lon="11.746074792779199"><ele>272.0</ele><time>2026-04-04T08:21:40.999Z</time></trkpt><trkpt lat="43.48342491143603" lon="11.745981724104809"><ele>272.0</ele><time>2026-04-04T08:21:42.999Z</time></trkpt><trkpt lat="43.483359151876805" lon="11.745888276240624"><ele>272.0</ele><time>2026-04-04T08:21:44.999Z</time></trkpt><trkpt lat="43.483297171371156" lon="11.745792987881622"><ele>272.0</ele><time>2026-04-04T08:21:46.998Z</time></trkpt><trkpt lat="43.48323195749141" lon="11.74570131634945"><ele>272.0</ele><time>2026-04-04T08:21:48.998Z</time></trkpt><trkpt lat="43.48316927888352" lon="11.74560272601148"><ele>272.0</ele><time>2026-04-04T08:21:50.998Z</time></trkpt><trkpt lat="43.48310373952154" lon="11.74550331714437"><ele>272.0</ele><time>2026-04-04T08:21:52.998Z</time></trkpt><trkpt lat="43.483034175948994" lon="11.74539978788942"><ele>272.0</ele><time>2026-04-04T08:21:54.998Z</time></trkpt><trkpt lat="43.48296460653976" lon="11.745290995808102"><ele>272.0</ele><time>2026-04-04T08:21:56.998Z</time></trkpt><trkpt lat="43.4828886827791" lon="11.745180383430801"><ele>272.0</ele><time>2026-04-04T08:21:58.998Z</time></trkpt><trkpt lat="43.48281311015555" lon="11.745067505782139"><ele>272.0</ele><time>2026-04-04T08:22:00.998Z</time></trkpt><trkpt lat="43.4827357920035" lon="11.744947359343419"><ele>271.33333333333337</ele><time>2026-04-04T08:22:02.998Z</time></trkpt><trkpt lat="43.48265575041563" lon="11.744824844237813"><ele>270.6666666666667</ele><time>2026-04-04T08:22:04.998Z</time></trkpt><trkpt lat="43.48256900244083" lon="11.74469818252079"><ele>270.0</ele><time>2026-04-04T08:22:06.998Z</time></trkpt><trkpt lat="43.48252739587009" lon="11.744629852948389"><ele>269.3333333333333</ele><time>2026-04-04T08:22:07.998Z</time></trkpt><trkpt lat="43.48248174806526" lon="11.74456405003551"><ele>268.66666666666663</ele><time>2026-04-04T08:22:08.998Z</time></trkpt><trkpt lat="43.48243521287111" lon="11.744494356043234"><ele>268.0</ele><time>2026-04-04T08:22:09.998Z</time></trkpt><trkpt lat="43.482391218206295" lon="11.744421839478395"><ele>267.57142857142856</ele><time>2026-04-04T08:22:10.998Z</time></trkpt><trkpt lat="43.48234278942179" lon="11.744354693804715"><ele>267.1428571428571</ele><time>2026-04-04T08:22:11.998Z</time></trkpt><trkpt lat="43.48229570731432" lon="11.744283644778864"><ele>266.71428571428567</ele><time>2026-04-04T08:22:12.998Z</time></trkpt><trkpt lat="43.482248425433816" lon="11.74421411054595"><ele>266.2857142857143</ele><time>2026-04-04T08:22:13.998Z</time></trkpt><trkpt lat="43.48220095900892" lon="11.744142181430929"><ele>265.85714285714283</ele><time>2026-04-04T08:22:14.998Z</time></trkpt><trkpt lat="43.48215113934012" lon="11.744068337978803"><ele>265.4285714285714</ele><time>2026-04-04T08:22:15.998Z</time></trkpt><trkpt lat="43.48210410337517" lon="11.743994125036872"><ele>265.0</ele><time>2026-04-04T08:22:16.998Z</time></trkpt><trkpt lat="43.48205647981182" lon="11.743923673615154"><ele>265.4285714285714</ele><time>2026-04-04T08:22:17.998Z</time></trkpt><trkpt lat="43.48200673400574" lon="11.74384832897142"><ele>265.85714285714283</ele><time>2026-04-04T08:22:18.998Z</time></trkpt><trkpt lat="43.48196033622472" lon="11.743774538718341"><ele>266.2857142857143</ele><time>2026-04-04T08:22:19.998Z</time></trkpt><trkpt lat="43.48190935767725" lon="11.743700446042697"><ele>266.71428571428567</ele><time>2026-04-04T08:22:20.998Z</time></trkpt><trkpt lat="43.48185818064548" lon="11.743626185138648"><ele>267.1428571428571</ele><time>2026-04-04T08:22:21.998Z</time></trkpt><trkpt lat="43.48181035558536" lon="11.74354763372819"><ele>267.57142857142856</ele><time>2026-04-04T08:22:22.998Z</time></trkpt><trkpt lat="43.48175769412609" lon="11.74347327722636"><ele>268.0</ele><time>2026-04-04T08:22:24Z</time></trkpt><trkpt lat="43.48170950945373" lon="11.74339513428323"><ele>268.0</ele><time>2026-04-04T08:22:25Z</time></trkpt><trkpt lat="43.481661727389195" lon="11.743319674364324"><ele>268.0</ele><time>2026-04-04T08:22:26Z</time></trkpt><trkpt lat="43.48161053879573" lon="11.743242793218363"><ele>268.0</ele><time>2026-04-04T08:22:27Z</time></trkpt><trkpt lat="43.48155723630927" lon="11.743168527711674"><ele>268.0</ele><time>2026-04-04T08:22:28Z</time></trkpt><trkpt lat="43.481506128523854" lon="11.743090849405952"><ele>268.0</ele><time>2026-04-04T08:22:29Z</time></trkpt><trkpt lat="43.48145475374554" lon="11.743013397149264"><ele>268.0</ele><time>2026-04-04T08:22:30Z</time></trkpt><trkpt lat="43.4814069786314" lon="11.742931405231253"><ele>268.0</ele><time>2026-04-04T08:22:31Z</time></trkpt><trkpt lat="43.48135607553801" lon="11.74284907957925"><ele>268.0</ele><time>2026-04-04T08:22:32Z</time></trkpt><trkpt lat="43.481307702443935" lon="11.742761393927042"><ele>268.0</ele><time>2026-04-04T08:22:33Z</time></trkpt><trkpt lat="43.48126054444832" lon="11.742676903678626"><ele>268.0</ele><time>2026-04-04T08:22:34Z</time></trkpt><trkpt lat="43.48121461348439" lon="11.742587415811077"><ele>268.0</ele><time>2026-04-04T08:22:35Z</time></trkpt><trkpt lat="43.48116468079063" lon="11.742501710013935"><ele>268.0</ele><time>2026-04-04T08:22:36Z</time></trkpt><trkpt lat="43.4811194010144" lon="11.742409483690105"><ele>268.0</ele><time>2026-04-04T08:22:37Z</time></trkpt><trkpt lat="43.48107656139029" lon="11.742314888145874"><ele>268.0</ele><time>2026-04-04T08:22:38Z</time></trkpt><trkpt lat="43.48103560257801" lon="11.742219135860664"><ele>268.0</ele><time>2026-04-04T08:22:39Z</time></trkpt><trkpt lat="43.4809972851565" lon="11.742119748069761"><ele>268.0</ele><time>2026-04-04T08:22:40Z</time></trkpt><trkpt lat="43.48096361335839" lon="11.742015791835126"><ele>268.0</ele><time>2026-04-04T08:22:41Z</time></trkpt><trkpt lat="43.4809286664715" lon="11.741916500695929"><ele>268.0</ele><time>2026-04-04T08:22:42Z</time></trkpt><trkpt lat="43.480892980937774" lon="11.741812964227917"><ele>267.3333333333333</ele><time>2026-04-04T08:22:43Z</time></trkpt><trkpt lat="43.48085570361519" lon="11.741710854151458"><ele>266.66666666666663</ele><time>2026-04-04T08:22:44Z</time></trkpt><trkpt lat="43.480824436347376" lon="11.741602280641613"><ele>266.0</ele><time>2026-04-04T08:22:45Z</time></trkpt><trkpt lat="43.480798256848225" lon="11.741489967357683"><ele>265.3333333333333</ele><time>2026-04-04T08:22:46Z</time></trkpt><trkpt lat="43.48077300099849" lon="11.741378784325457"><ele>264.6666666666667</ele><time>2026-04-04T08:22:47Z</time></trkpt><trkpt lat="43.4807516613792" lon="11.741267849559607"><ele>264.0</ele><time>2026-04-04T08:22:48Z</time></trkpt><trkpt lat="43.48072991269185" lon="11.74115971372669"><ele>264.0</ele><time>2026-04-04T08:22:49Z</time></trkpt><trkpt lat="43.48071043443254" lon="11.741052394944413"><ele>264.0</ele><time>2026-04-04T08:22:50Z</time></trkpt><trkpt lat="43.48069429492407" lon="11.740941947022222"><ele>264.0</ele><time>2026-04-04T08:22:51Z</time></trkpt><trkpt lat="43.48067750794182" lon="11.740833901214081"><ele>264.0</ele><time>2026-04-04T08:22:52Z</time></trkpt><trkpt lat="43.48066251099021" lon="11.740725750496047"><ele>264.0</ele><time>2026-04-04T08:22:53Z</time></trkpt><trkpt lat="43.480650002196214" lon="11.74061453660603"><ele>264.0</ele><time>2026-04-04T08:22:54Z</time></trkpt><trkpt lat="43.480636176251494" lon="11.74050808702959"><ele>263.6666666666667</ele><time>2026-04-04T08:22:55Z</time></trkpt><trkpt lat="43.4806219944231" lon="11.740401438860584"><ele>263.3333333333333</ele><time>2026-04-04T08:22:56Z</time></trkpt><trkpt lat="43.48060725716186" lon="11.740297883986418"><ele>263.0</ele><time>2026-04-04T08:22:57Z</time></trkpt><trkpt lat="43.48059441042578" lon="11.740194315659709"><ele>262.66666666666663</ele><time>2026-04-04T08:22:58Z</time></trkpt><trkpt lat="43.48058269018015" lon="11.740094798093708"><ele>262.3333333333333</ele><time>2026-04-04T08:22:59Z</time></trkpt><trkpt lat="43.48056889490018" lon="11.739991525399954"><ele>262.0</ele><time>2026-04-04T08:23:00Z</time></trkpt><trkpt lat="43.480555597474456" lon="11.73989152522188"><ele>261.0</ele><time>2026-04-04T08:23:01Z</time></trkpt><trkpt lat="43.480542772648015" lon="11.739792430353162"><ele>260.0</ele><time>2026-04-04T08:23:01.999Z</time></trkpt><trkpt lat="43.48052961212336" lon="11.739694219276696"><ele>259.0</ele><time>2026-04-04T08:23:02.999Z</time></trkpt><trkpt lat="43.48051632127954" lon="11.739600377196709"><ele>258.0</ele><time>2026-04-04T08:23:03.999Z</time></trkpt><trkpt lat="43.48050270927942" lon="11.73950717183804"><ele>257.0</ele><time>2026-04-04T08:23:04.999Z</time></trkpt><trkpt lat="43.48049001575323" lon="11.739417082865799"><ele>256.0</ele><time>2026-04-04T08:23:05.999Z</time></trkpt><trkpt lat="43.4804758776941" lon="11.739324063318925"><ele>255.0</ele><time>2026-04-04T08:23:06.999Z</time></trkpt><trkpt lat="43.48046256094056" lon="11.73923661914701"><ele>254.2857142857143</ele><time>2026-04-04T08:23:07.999Z</time></trkpt><trkpt lat="43.48044819720195" lon="11.739142144760427"><ele>253.5714285714286</ele><time>2026-04-04T08:23:08.999Z</time></trkpt><trkpt lat="43.48043418197389" lon="11.739053614443868"><ele>252.85714285714286</ele><time>2026-04-04T08:23:09.999Z</time></trkpt><trkpt lat="43.48042161652035" lon="11.738964340087584"><ele>252.14285714285717</ele><time>2026-04-04T08:23:10.999Z</time></trkpt><trkpt lat="43.48040709820168" lon="11.738874761649415"><ele>251.42857142857144</ele><time>2026-04-04T08:23:11.999Z</time></trkpt><trkpt lat="43.48038805173687" lon="11.738788093344079"><ele>250.71428571428572</ele><time>2026-04-04T08:23:12.999Z</time></trkpt><trkpt lat="43.480375504706274" lon="11.738695991765498"><ele>250.0</ele><time>2026-04-04T08:23:13.999Z</time></trkpt><trkpt lat="43.48036438079095" lon="11.738598121217573"><ele>251.28571428571428</ele><time>2026-04-04T08:23:14.999Z</time></trkpt><trkpt lat="43.48035601010468" lon="11.738511389135088"><ele>252.57142857142858</ele><time>2026-04-04T08:23:15.999Z</time></trkpt><trkpt lat="43.48034779208812" lon="11.738417504271272"><ele>253.85714285714286</ele><time>2026-04-04T08:23:16.999Z</time></trkpt><trkpt lat="43.480337337196545" lon="11.738324808327144"><ele>255.14285714285714</ele><time>2026-04-04T08:23:17.999Z</time></trkpt><trkpt lat="43.480324632335936" lon="11.738224820743994"><ele>256.42857142857144</ele><time>2026-04-04T08:23:18.999Z</time></trkpt><trkpt lat="43.480307777802636" lon="11.738137175692513"><ele>257.7142857142857</ele><time>2026-04-04T08:23:19.999Z</time></trkpt><trkpt lat="43.48029655304509" lon="11.738044515259336"><ele>259.0</ele><time>2026-04-04T08:23:20.999Z</time></trkpt><trkpt lat="43.48028244651685" lon="11.737951666138159"><ele>259.0</ele><time>2026-04-04T08:23:21.999Z</time></trkpt><trkpt lat="43.480271570254295" lon="11.737858480828487"><ele>259.0</ele><time>2026-04-04T08:23:22.999Z</time></trkpt><trkpt lat="43.48025695912999" lon="11.73776953914038"><ele>259.0</ele><time>2026-04-04T08:23:23.999Z</time></trkpt><trkpt lat="43.480243293847664" lon="11.737683640362455"><ele>259.0</ele><time>2026-04-04T08:23:24.999Z</time></trkpt><trkpt lat="43.48022081774594" lon="11.73751060825664"><ele>259.0</ele><time>2026-04-04T08:23:26.999Z</time></trkpt><trkpt lat="43.480202109125536" lon="11.737345895099267"><ele>259.0</ele><time>2026-04-04T08:23:28.999Z</time></trkpt><trkpt lat="43.48018849723818" lon="11.73718445799955"><ele>259.8</ele><time>2026-04-04T08:23:30.999Z</time></trkpt><trkpt lat="43.48018225595495" lon="11.73702727254348"><ele>260.59999999999997</ele><time>2026-04-04T08:23:32.999Z</time></trkpt><trkpt lat="43.48018205888118" lon="11.736872663725457"><ele>261.4</ele><time>2026-04-04T08:23:34.999Z</time></trkpt><trkpt lat="43.48018547770833" lon="11.7367197369922"><ele>262.2</ele><time>2026-04-04T08:23:36.999Z</time></trkpt><trkpt lat="43.48019729465392" lon="11.73656907775234"><ele>263.0</ele><time>2026-04-04T08:23:38.999Z</time></trkpt><trkpt lat="43.48021307384873" lon="11.736424818879197"><ele>263.0</ele><time>2026-04-04T08:23:40.999Z</time></trkpt><trkpt lat="43.480234205965516" lon="11.736287569012022"><ele>263.0</ele><time>2026-04-04T08:23:42.999Z</time></trkpt><trkpt lat="43.480258368114455" lon="11.736151640150801"><ele>263.0</ele><time>2026-04-04T08:23:44.999Z</time></trkpt><trkpt lat="43.48028598236928" lon="11.736020417401877"><ele>263.0</ele><time>2026-04-04T08:23:46.999Z</time></trkpt><trkpt lat="43.480312975113314" lon="11.735893520063154"><ele>263.0</ele><time>2026-04-04T08:23:48.999Z</time></trkpt><trkpt lat="43.48034031708273" lon="11.735767284058305"><ele>262.8</ele><time>2026-04-04T08:23:50.998Z</time></trkpt><trkpt lat="43.480367348191116" lon="11.735641265146649"><ele>262.6</ele><time>2026-04-04T08:23:52.998Z</time></trkpt><trkpt lat="43.480393870793556" lon="11.735516378250416"><ele>262.4</ele><time>2026-04-04T08:23:54.998Z</time></trkpt><trkpt lat="43.48042237214909" lon="11.735398046442313"><ele>262.2</ele><time>2026-04-04T08:23:56.998Z</time></trkpt><trkpt lat="43.480451023236064" lon="11.735280131141659"><ele>262.0</ele><time>2026-04-04T08:23:58.998Z</time></trkpt><trkpt lat="43.480479965102546" lon="11.73516267914717"><ele>262.0</ele><time>2026-04-04T08:24:00.998Z</time></trkpt><trkpt lat="43.48050433599636" lon="11.735042161689254"><ele>262.0</ele><time>2026-04-04T08:24:02.998Z</time></trkpt><trkpt lat="43.480533363272244" lon="11.734917630949688"><ele>262.0</ele><time>2026-04-04T08:24:04.998Z</time></trkpt><trkpt lat="43.480564293379395" lon="11.734768292379659"><ele>262.0</ele><time>2026-04-04T08:24:07.998Z</time></trkpt><trkpt lat="43.48059740092131" lon="11.734629048035348"><ele>262.0</ele><time>2026-04-04T08:24:09.998Z</time></trkpt><trkpt lat="43.48061808207322" lon="11.734510251284279"><ele>262.0</ele><time>2026-04-04T08:24:11.998Z</time></trkpt><trkpt lat="43.48064577589166" lon="11.734394219930206"><ele>262.0</ele><time>2026-04-04T08:24:13.998Z</time></trkpt><trkpt lat="43.480672042821155" lon="11.734275349586875"><ele>262.0</ele><time>2026-04-04T08:24:15.998Z</time></trkpt><trkpt lat="43.480699931226425" lon="11.73415776468553"><ele>262.0</ele><time>2026-04-04T08:24:17.998Z</time></trkpt><trkpt lat="43.480724943037764" lon="11.734037473630638"><ele>262.0</ele><time>2026-04-04T08:24:19.998Z</time></trkpt><trkpt lat="43.48074992349777" lon="11.73391417974433"><ele>262.8</ele><time>2026-04-04T08:24:21.998Z</time></trkpt><trkpt lat="43.48076817958721" lon="11.733800212670939"><ele>263.6</ele><time>2026-04-04T08:24:23.998Z</time></trkpt><trkpt lat="43.48079949583709" lon="11.733672118300648"><ele>264.40000000000003</ele><time>2026-04-04T08:24:25.998Z</time></trkpt><trkpt lat="43.48083273553934" lon="11.733547396430113"><ele>265.2</ele><time>2026-04-04T08:24:27.998Z</time></trkpt><trkpt lat="43.480858475234285" lon="11.733412037638095"><ele>266.0</ele><time>2026-04-04T08:24:30Z</time></trkpt><trkpt lat="43.480890769218654" lon="11.733279764873815"><ele>265.8</ele><time>2026-04-04T08:24:32Z</time></trkpt><trkpt lat="43.4809210869692" lon="11.733139126424176"><ele>265.6</ele><time>2026-04-04T08:24:34Z</time></trkpt><trkpt lat="43.48095211389971" lon="11.732993888936214"><ele>265.4</ele><time>2026-04-04T08:24:36Z</time></trkpt><trkpt lat="43.48098507897148" lon="11.732846312731219"><ele>265.2</ele><time>2026-04-04T08:24:38Z</time></trkpt><trkpt lat="43.48101756739604" lon="11.7327025733812"><ele>265.0</ele><time>2026-04-04T08:24:40Z</time></trkpt><trkpt lat="43.48104965175508" lon="11.73255694239129"><ele>265.0</ele><time>2026-04-04T08:24:42Z</time></trkpt><trkpt lat="43.481081534229915" lon="11.732406614909952"><ele>265.0</ele><time>2026-04-04T08:24:44Z</time></trkpt><trkpt lat="43.48110996852461" lon="11.732259146108198"><ele>265.0</ele><time>2026-04-04T08:24:46Z</time></trkpt><trkpt lat="43.481140660570354" lon="11.732110817097736"><ele>265.0</ele><time>2026-04-04T08:24:48Z</time></trkpt><trkpt lat="43.48116796663666" lon="11.731962265564254"><ele>265.0</ele><time>2026-04-04T08:24:50Z</time></trkpt><trkpt lat="43.48119044667868" lon="11.731816821995412"><ele>265.0</ele><time>2026-04-04T08:24:52Z</time></trkpt><trkpt lat="43.481211083897875" lon="11.731672135464688"><ele>265.0</ele><time>2026-04-04T08:24:54Z</time></trkpt><trkpt lat="43.481222411631755" lon="11.731523036403535"><ele>265.0</ele><time>2026-04-04T08:24:56Z</time></trkpt><trkpt lat="43.48122998692236" lon="11.731375776543086"><ele>265.0</ele><time>2026-04-04T08:24:58Z</time></trkpt><trkpt lat="43.481235173676275" lon="11.731222279726781"><ele>265.0</ele><time>2026-04-04T08:25:00Z</time></trkpt><trkpt lat="43.481235439333325" lon="11.731062586144711"><ele>267.0</ele><time>2026-04-04T08:25:02Z</time></trkpt><trkpt lat="43.48123211694844" lon="11.730901328862418"><ele>269.0</ele><time>2026-04-04T08:25:04Z</time></trkpt><trkpt lat="43.4812220519713" lon="11.73073480954266"><ele>271.0</ele><time>2026-04-04T08:25:06Z</time></trkpt><trkpt lat="43.481205880284996" lon="11.730569228571833"><ele>273.0</ele><time>2026-04-04T08:25:08Z</time></trkpt><trkpt lat="43.481188909364676" lon="11.730397726240412"><ele>273.0</ele><time>2026-04-04T08:25:09.999Z</time></trkpt><trkpt lat="43.48117778887013" lon="11.73022573697343"><ele>273.0</ele><time>2026-04-04T08:25:11.999Z</time></trkpt><trkpt lat="43.48117232459444" lon="11.730139147392165"><ele>273.0</ele><time>2026-04-04T08:25:12.999Z</time></trkpt><trkpt lat="43.48116088726463" lon="11.729967503871848"><ele>273.0</ele><time>2026-04-04T08:25:14.999Z</time></trkpt><trkpt lat="43.481152588903264" lon="11.72978868960328"><ele>273.0</ele><time>2026-04-04T08:25:16.999Z</time></trkpt><trkpt lat="43.48113620958121" lon="11.729619060916322"><ele>273.2</ele><time>2026-04-04T08:25:18.999Z</time></trkpt><trkpt lat="43.481127286492296" lon="11.729531970011756"><ele>273.4</ele><time>2026-04-04T08:25:19.999Z</time></trkpt><trkpt lat="43.48112146804285" lon="11.72944520650152"><ele>273.59999999999997</ele><time>2026-04-04T08:25:20.999Z</time></trkpt><trkpt lat="43.48110537843912" lon="11.729276678493783"><ele>273.8</ele><time>2026-04-04T08:25:22.999Z</time></trkpt><trkpt lat="43.481092477900326" lon="11.729105323167659"><ele>274.0</ele><time>2026-04-04T08:25:24.999Z</time></trkpt><trkpt lat="43.48107499281151" lon="11.72893996790684"><ele>273.0</ele><time>2026-04-04T08:25:26.999Z</time></trkpt><trkpt lat="43.48107279850658" lon="11.728849992225964"><ele>272.0</ele><time>2026-04-04T08:25:27.999Z</time></trkpt><trkpt lat="43.481059987450344" lon="11.72867967779322"><ele>271.0</ele><time>2026-04-04T08:25:29.999Z</time></trkpt><trkpt lat="43.48104540719386" lon="11.728505973625497"><ele>270.0</ele><time>2026-04-04T08:25:31.999Z</time></trkpt><trkpt lat="43.48103085951526" lon="11.728329654911176"><ele>269.0</ele><time>2026-04-04T08:25:33.999Z</time></trkpt><trkpt lat="43.48102448960605" lon="11.72823968893531"><ele>268.8571428571429</ele><time>2026-04-04T08:25:34.999Z</time></trkpt><trkpt lat="43.48101510525416" lon="11.728144729940539"><ele>268.7142857142857</ele><time>2026-04-04T08:25:35.999Z</time></trkpt><trkpt lat="43.48100631413795" lon="11.728054662597643"><ele>268.57142857142856</ele><time>2026-04-04T08:25:36.999Z</time></trkpt><trkpt lat="43.481007659271356" lon="11.727956498331737"><ele>268.42857142857144</ele><time>2026-04-04T08:25:37.999Z</time></trkpt><trkpt lat="43.4810034598531" lon="11.72786094065309"><ele>268.2857142857143</ele><time>2026-04-04T08:25:38.999Z</time></trkpt><trkpt lat="43.48099844932304" lon="11.727767941657692"><ele>268.14285714285717</ele><time>2026-04-04T08:25:39.999Z</time></trkpt><trkpt lat="43.48099068432215" lon="11.727670060738479"><ele>268.0</ele><time>2026-04-04T08:25:40.999Z</time></trkpt><trkpt lat="43.48098144026928" lon="11.72757364898179"><ele>268.0</ele><time>2026-04-04T08:25:41.999Z</time></trkpt><trkpt lat="43.48097329583421" lon="11.727481155835175"><ele>268.0</ele><time>2026-04-04T08:25:42.999Z</time></trkpt><trkpt lat="43.48097505498743" lon="11.727377355459062"><ele>268.0</ele><time>2026-04-04T08:25:43.999Z</time></trkpt><trkpt lat="43.480962039426835" lon="11.727270848074955"><ele>268.0</ele><time>2026-04-04T08:25:44.999Z</time></trkpt><trkpt lat="43.48095126931482" lon="11.727161903333418"><ele>268.0</ele><time>2026-04-04T08:25:45.999Z</time></trkpt><trkpt lat="43.480940766521336" lon="11.727052354745787"><ele>268.0</ele><time>2026-04-04T08:25:46.999Z</time></trkpt><trkpt lat="43.48093314643212" lon="11.726944075363848"><ele>267.3333333333333</ele><time>2026-04-04T08:25:47.999Z</time></trkpt><trkpt lat="43.48092551750159" lon="11.726839623352022"><ele>266.66666666666663</ele><time>2026-04-04T08:25:48.999Z</time></trkpt><trkpt lat="43.4809158393984" lon="11.726734068491021"><ele>266.0</ele><time>2026-04-04T08:25:49.999Z</time></trkpt><trkpt lat="43.48090838509492" lon="11.726628596237783"><ele>265.3333333333333</ele><time>2026-04-04T08:25:50.999Z</time></trkpt><trkpt lat="43.48090195084512" lon="11.726520272095566"><ele>264.6666666666667</ele><time>2026-04-04T08:25:51.999Z</time></trkpt><trkpt lat="43.48089295110779" lon="11.726411464119566"><ele>264.0</ele><time>2026-04-04T08:25:52.999Z</time></trkpt><trkpt lat="43.48088597830753" lon="11.726303044709807"><ele>264.0</ele><time>2026-04-04T08:25:53.999Z</time></trkpt><trkpt lat="43.480879961531755" lon="11.726194417923747"><ele>264.0</ele><time>2026-04-04T08:25:54.999Z</time></trkpt><trkpt lat="43.48087874962898" lon="11.726084458654881"><ele>264.0</ele><time>2026-04-04T08:25:55.999Z</time></trkpt><trkpt lat="43.48087299630134" lon="11.7259774965678"><ele>264.0</ele><time>2026-04-04T08:25:56.999Z</time></trkpt><trkpt lat="43.48087236496656" lon="11.725869399765092"><ele>264.0</ele><time>2026-04-04T08:25:57.998Z</time></trkpt><trkpt lat="43.48087119472109" lon="11.725758249044247"><ele>264.0</ele><time>2026-04-04T08:25:58.998Z</time></trkpt><trkpt lat="43.48086791321686" lon="11.725651539005364"><ele>263.5</ele><time>2026-04-04T08:25:59.998Z</time></trkpt><trkpt lat="43.48086686515039" lon="11.725544477613143"><ele>263.0</ele><time>2026-04-04T08:26:00.998Z</time></trkpt><trkpt lat="43.480863038111416" lon="11.725440227248024"><ele>262.5</ele><time>2026-04-04T08:26:01.998Z</time></trkpt><trkpt lat="43.4808614372918" lon="11.725333806836568"><ele>262.0</ele><time>2026-04-04T08:26:02.998Z</time></trkpt><trkpt lat="43.48085742591355" lon="11.725224887486318"><ele>261.5</ele><time>2026-04-04T08:26:03.998Z</time></trkpt><trkpt lat="43.480856010150674" lon="11.725121574272968"><ele>261.0</ele><time>2026-04-04T08:26:04.998Z</time></trkpt><trkpt lat="43.4808507700945" lon="11.72502034035809"><ele>260.42857142857144</ele><time>2026-04-04T08:26:05.998Z</time></trkpt><trkpt lat="43.48084477331197" lon="11.724921018101686"><ele>259.85714285714283</ele><time>2026-04-04T08:26:06.998Z</time></trkpt><trkpt lat="43.48084613054688" lon="11.724818052180659"><ele>259.2857142857143</ele><time>2026-04-04T08:26:07.998Z</time></trkpt><trkpt lat="43.480847101012756" lon="11.72472531830014"><ele>258.7142857142857</ele><time>2026-04-04T08:26:08.998Z</time></trkpt><trkpt lat="43.48083874196772" lon="11.72463192659004"><ele>258.14285714285717</ele><time>2026-04-04T08:26:09.998Z</time></trkpt><trkpt lat="43.48083626061667" lon="11.724541402348503"><ele>257.57142857142856</ele><time>2026-04-04T08:26:10.998Z</time></trkpt><trkpt lat="43.4808300089468" lon="11.724454195265757"><ele>257.0</ele><time>2026-04-04T08:26:11.998Z</time></trkpt><trkpt lat="43.480822432491976" lon="11.724290383341554"><ele>257.0</ele><time>2026-04-04T08:26:13.998Z</time></trkpt><trkpt lat="43.48080700462379" lon="11.724132079516995"><ele>257.0</ele><time>2026-04-04T08:26:15.998Z</time></trkpt><trkpt lat="43.48079035683484" lon="11.723982635474604"><ele>257.0</ele><time>2026-04-04T08:26:17.998Z</time></trkpt><trkpt lat="43.480769608904914" lon="11.723839306869282"><ele>257.0</ele><time>2026-04-04T08:26:19.998Z</time></trkpt><trkpt lat="43.48074290261397" lon="11.723709854888979"><ele>257.0</ele><time>2026-04-04T08:26:21.998Z</time></trkpt><trkpt lat="43.48071803516876" lon="11.72359095606547"><ele>257.42857142857144</ele><time>2026-04-04T08:26:23.998Z</time></trkpt><trkpt lat="43.48069874043858" lon="11.723489623643838"><ele>257.8571428571429</ele><time>2026-04-04T08:26:25.998Z</time></trkpt><trkpt lat="43.48067892806835" lon="11.72339324479358"><ele>258.28571428571433</ele><time>2026-04-04T08:26:27.998Z</time></trkpt><trkpt lat="43.4806634080398" lon="11.723294327541295"><ele>258.7142857142857</ele><time>2026-04-04T08:26:29.998Z</time></trkpt><trkpt lat="43.48063951906502" lon="11.723196985803316"><ele>259.14285714285717</ele><time>2026-04-04T08:26:31.998Z</time></trkpt><trkpt lat="43.48062100917837" lon="11.72310754980308"><ele>259.5714285714286</ele><time>2026-04-04T08:26:33.998Z</time></trkpt><trkpt lat="43.48060183806283" lon="11.723019751231233"><ele>260.0</ele><time>2026-04-04T08:26:36Z</time></trkpt><trkpt lat="43.48056918983602" lon="11.722903168562976"><ele>260.00000000000006</ele><time>2026-04-04T08:26:39Z</time></trkpt><trkpt lat="43.48053279192958" lon="11.722790618996251"><ele>260.0</ele><time>2026-04-04T08:26:42Z</time></trkpt><trkpt lat="43.48048262832069" lon="11.722682438901785"><ele>260.0</ele><time>2026-04-04T08:26:45Z</time></trkpt><trkpt lat="43.48044729218783" lon="11.722609783519777"><ele>260.0</ele><time>2026-04-04T08:26:47Z</time></trkpt><trkpt lat="43.48040472138004" lon="11.722537522692555"><ele>260.0</ele><time>2026-04-04T08:26:49Z</time></trkpt><trkpt lat="43.480368715456294" lon="11.722465849416952"><ele>260.00000000000006</ele><time>2026-04-04T08:26:51Z</time></trkpt><trkpt lat="43.48033081228756" lon="11.722394253078285"><ele>260.0</ele><time>2026-04-04T08:26:53Z</time></trkpt><trkpt lat="43.48029422665565" lon="11.72231644262323"><ele>261.14285714285717</ele><time>2026-04-04T08:26:55Z</time></trkpt><trkpt lat="43.48025644839785" lon="11.722243863955264"><ele>262.2857142857143</ele><time>2026-04-04T08:26:57Z</time></trkpt><trkpt lat="43.480219150707086" lon="11.722172422066812"><ele>263.42857142857144</ele><time>2026-04-04T08:26:59Z</time></trkpt><trkpt lat="43.48018175286021" lon="11.722098053642625"><ele>264.57142857142856</ele><time>2026-04-04T08:27:01Z</time></trkpt><trkpt lat="43.48014380215824" lon="11.722023372071074"><ele>265.7142857142857</ele><time>2026-04-04T08:27:03Z</time></trkpt><trkpt lat="43.480107443044574" lon="11.7219461681117"><ele>266.8571428571429</ele><time>2026-04-04T08:27:05Z</time></trkpt><trkpt lat="43.480070285729326" lon="11.721867518953976"><ele>268.0</ele><time>2026-04-04T08:27:07Z</time></trkpt><trkpt lat="43.48003104952069" lon="11.721786877504043"><ele>268.14285714285717</ele><time>2026-04-04T08:27:09Z</time></trkpt><trkpt lat="43.47999517253242" lon="11.721706887966317"><ele>268.2857142857143</ele><time>2026-04-04T08:27:11Z</time></trkpt><trkpt lat="43.479956156225306" lon="11.721634308019787"><ele>268.42857142857144</ele><time>2026-04-04T08:27:13Z</time></trkpt><trkpt lat="43.4799150076352" lon="11.721556918552855"><ele>268.57142857142856</ele><time>2026-04-04T08:27:14.999Z</time></trkpt><trkpt lat="43.47987925153278" lon="11.72147610650031"><ele>268.7142857142857</ele><time>2026-04-04T08:27:16.999Z</time></trkpt><trkpt lat="43.47985723563847" lon="11.721383640502443"><ele>268.8571428571429</ele><time>2026-04-04T08:27:18.999Z</time></trkpt><trkpt lat="43.4798893535187" lon="11.721289483384293"><ele>269.0</ele><time>2026-04-04T08:27:20.999Z</time></trkpt><trkpt lat="43.47992311683838" lon="11.72119482648312"><ele>269.0</ele><time>2026-04-04T08:27:22.999Z</time></trkpt><trkpt lat="43.47993165219711" lon="11.721075434959332"><ele>269.0</ele><time>2026-04-04T08:27:24.999Z</time></trkpt><trkpt lat="43.47989815429435" lon="11.720946121651892"><ele>269.0</ele><time>2026-04-04T08:27:26.999Z</time></trkpt><trkpt lat="43.47986484868852" lon="11.720806211874333"><ele>269.0</ele><time>2026-04-04T08:27:28.999Z</time></trkpt><trkpt lat="43.47987951416779" lon="11.720646288741099"><ele>269.0</ele><time>2026-04-04T08:27:30.999Z</time></trkpt><trkpt lat="43.47991054755575" lon="11.720568777705397"><ele>269.2</ele><time>2026-04-04T08:27:31.999Z</time></trkpt><trkpt lat="43.47994870714227" lon="11.720499469431402"><ele>269.4</ele><time>2026-04-04T08:27:32.999Z</time></trkpt><trkpt lat="43.480030030406844" lon="11.720371863147067"><ele>269.6</ele><time>2026-04-04T08:27:34.999Z</time></trkpt><trkpt lat="43.48011327712827" lon="11.720250319833005"><ele>269.8</ele><time>2026-04-04T08:27:36.999Z</time></trkpt><trkpt lat="43.48019729757426" lon="11.72012568014305"><ele>270.0</ele><time>2026-04-04T08:27:38.999Z</time></trkpt><trkpt lat="43.48027928856737" lon="11.720003193240343"><ele>270.0</ele><time>2026-04-04T08:27:40.999Z</time></trkpt><trkpt lat="43.48035824016831" lon="11.719888615788173"><ele>270.0</ele><time>2026-04-04T08:27:42.999Z</time></trkpt><trkpt lat="43.480424511589334" lon="11.719768939935998"><ele>270.0</ele><time>2026-04-04T08:27:44.999Z</time></trkpt><trkpt lat="43.4805071099214" lon="11.71968021787203"><ele>270.0</ele><time>2026-04-04T08:27:46.999Z</time></trkpt><trkpt lat="43.48059449548406" lon="11.719624203616231"><ele>270.0</ele><time>2026-04-04T08:27:48.999Z</time></trkpt><trkpt lat="43.48068014456666" lon="11.719583340120286"><ele>269.3333333333333</ele><time>2026-04-04T08:27:50.999Z</time></trkpt><trkpt lat="43.48076828055454" lon="11.719554860654076"><ele>268.6666666666667</ele><time>2026-04-04T08:27:52.999Z</time></trkpt><trkpt lat="43.480852204208055" lon="11.719526577281965"><ele>268.0</ele><time>2026-04-04T08:27:54.999Z</time></trkpt><trkpt lat="43.48093000542363" lon="11.71949018737411"><ele>267.33333333333337</ele><time>2026-04-04T08:27:56.999Z</time></trkpt><trkpt lat="43.481010458204224" lon="11.719462456773726"><ele>266.6666666666667</ele><time>2026-04-04T08:27:58.999Z</time></trkpt><trkpt lat="43.4810871952999" lon="11.71943366036043"><ele>266.0</ele><time>2026-04-04T08:28:00.999Z</time></trkpt><trkpt lat="43.48116194809311" lon="11.71940111778995"><ele>266.6</ele><time>2026-04-04T08:28:02.998Z</time></trkpt><trkpt lat="43.48124105708984" lon="11.719357729099801"><ele>267.20000000000005</ele><time>2026-04-04T08:28:04.998Z</time></trkpt><trkpt lat="43.48132299565243" lon="11.719290173177226"><ele>267.79999999999995</ele><time>2026-04-04T08:28:06.998Z</time></trkpt><trkpt lat="43.48140879777684" lon="11.719215640410692"><ele>268.4</ele><time>2026-04-04T08:28:08.998Z</time></trkpt><trkpt lat="43.48150602084251" lon="11.719139645140832"><ele>269.0</ele><time>2026-04-04T08:28:10.998Z</time></trkpt><trkpt lat="43.48160567445309" lon="11.71905109282491"><ele>269.0</ele><time>2026-04-04T08:28:12.998Z</time></trkpt><trkpt lat="43.48170494478609" lon="11.718946789211968"><ele>269.0</ele><time>2026-04-04T08:28:14.998Z</time></trkpt><trkpt lat="43.48175971685262" lon="11.718900186849655"><ele>269.0</ele><time>2026-04-04T08:28:15.998Z</time></trkpt><trkpt lat="43.48180763435418" lon="11.718836576461616"><ele>269.0</ele><time>2026-04-04T08:28:16.998Z</time></trkpt><trkpt lat="43.481902042285796" lon="11.718724264056757"><ele>269.0</ele><time>2026-04-04T08:28:18.998Z</time></trkpt><trkpt lat="43.481930578918366" lon="11.718642779623583"><ele>269.0</ele><time>2026-04-04T08:28:19.998Z</time></trkpt><trkpt lat="43.48194329599301" lon="11.71855454319096"><ele>268.8571428571429</ele><time>2026-04-04T08:28:20.998Z</time></trkpt><trkpt lat="43.48194065552836" lon="11.71846506218203"><ele>268.7142857142857</ele><time>2026-04-04T08:28:21.998Z</time></trkpt><trkpt lat="43.481931075699094" lon="11.71837019556695"><ele>268.57142857142856</ele><time>2026-04-04T08:28:22.998Z</time></trkpt><trkpt lat="43.48191452919794" lon="11.718272719457048"><ele>268.42857142857144</ele><time>2026-04-04T08:28:23.998Z</time></trkpt><trkpt lat="43.48189576104271" lon="11.718170586066663"><ele>268.2857142857143</ele><time>2026-04-04T08:28:24.998Z</time></trkpt><trkpt lat="43.48187993698722" lon="11.718065056588932"><ele>268.14285714285717</ele><time>2026-04-04T08:28:25.998Z</time></trkpt><trkpt lat="43.481855621750896" lon="11.717960739968023"><ele>268.0</ele><time>2026-04-04T08:28:26.998Z</time></trkpt><trkpt lat="43.481830681312616" lon="11.717859638952943"><ele>268.0</ele><time>2026-04-04T08:28:27.998Z</time></trkpt><trkpt lat="43.48179013860895" lon="11.717766751472363"><ele>268.0</ele><time>2026-04-04T08:28:28.998Z</time></trkpt><trkpt lat="43.48173625132713" lon="11.717680708948013"><ele>268.0</ele><time>2026-04-04T08:28:29.998Z</time></trkpt><trkpt lat="43.48167843119979" lon="11.717601864568959"><ele>268.0</ele><time>2026-04-04T08:28:30.998Z</time></trkpt><trkpt lat="43.48161467587064" lon="11.717526630785821"><ele>268.0</ele><time>2026-04-04T08:28:31.998Z</time></trkpt><trkpt lat="43.481548744902035" lon="11.71745089277152"><ele>268.0</ele><time>2026-04-04T08:28:32.998Z</time></trkpt><trkpt lat="43.48148261894932" lon="11.717374217781344"><ele>268.3333333333333</ele><time>2026-04-04T08:28:33.998Z</time></trkpt><trkpt lat="43.481415506417825" lon="11.717299184736046"><ele>268.66666666666663</ele><time>2026-04-04T08:28:34.998Z</time></trkpt><trkpt lat="43.48134822308947" lon="11.717221527662806"><ele>269.0</ele><time>2026-04-04T08:28:35.998Z</time></trkpt><trkpt lat="43.48128049569035" lon="11.717141823831765"><ele>269.3333333333333</ele><time>2026-04-04T08:28:36.998Z</time></trkpt><trkpt lat="43.48121314822384" lon="11.71706160239407"><ele>269.6666666666667</ele><time>2026-04-04T08:28:37.998Z</time></trkpt><trkpt lat="43.481145420894414" lon="11.71697963524204"><ele>270.0</ele><time>2026-04-04T08:28:38.998Z</time></trkpt><trkpt lat="43.4810772784599" lon="11.716899553735907"><ele>267.8</ele><time>2026-04-04T08:28:39.998Z</time></trkpt><trkpt lat="43.48100899985951" lon="11.71682076525034"><ele>265.6</ele><time>2026-04-04T08:28:40.998Z</time></trkpt><trkpt lat="43.48094387230921" lon="11.716733650044846"><ele>263.4</ele><time>2026-04-04T08:28:42Z</time></trkpt><trkpt lat="43.480873045168686" lon="11.716656353020463"><ele>261.2</ele><time>2026-04-04T08:28:43Z</time></trkpt><trkpt lat="43.48080120707354" lon="11.7165784261398"><ele>259.0</ele><time>2026-04-04T08:28:44Z</time></trkpt><trkpt lat="43.480732810303984" lon="11.716495271567299"><ele>259.0</ele><time>2026-04-04T08:28:45Z</time></trkpt><trkpt lat="43.48066158453128" lon="11.716418133830434"><ele>259.0</ele><time>2026-04-04T08:28:46Z</time></trkpt><trkpt lat="43.480589894280804" lon="11.716339813052368"><ele>259.0</ele><time>2026-04-04T08:28:47Z</time></trkpt><trkpt lat="43.48051894277312" lon="11.716259296485473"><ele>259.0</ele><time>2026-04-04T08:28:48Z</time></trkpt><trkpt lat="43.48045401926682" lon="11.716177966953435"><ele>259.0</ele><time>2026-04-04T08:28:49Z</time></trkpt><trkpt lat="43.480386278580966" lon="11.716095375513538"><ele>259.0</ele><time>2026-04-04T08:28:50Z</time></trkpt><trkpt lat="43.4803160437888" lon="11.716013884191787"><ele>259.0</ele><time>2026-04-04T08:28:51Z</time></trkpt><trkpt lat="43.480247871363396" lon="11.715934358971237"><ele>259.0</ele><time>2026-04-04T08:28:52Z</time></trkpt><trkpt lat="43.48017925231617" lon="11.71585391928316"><ele>259.0</ele><time>2026-04-04T08:28:53Z</time></trkpt><trkpt lat="43.480112506496106" lon="11.715760463105427"><ele>259.0</ele><time>2026-04-04T08:28:54Z</time></trkpt><trkpt lat="43.48004650780495" lon="11.71567803089321"><ele>259.0</ele><time>2026-04-04T08:28:55Z</time></trkpt><trkpt lat="43.479977082606574" lon="11.715599533274325"><ele>259.0</ele><time>2026-04-04T08:28:56Z</time></trkpt><trkpt lat="43.479903704131914" lon="11.715517912588172"><ele>259.0</ele><time>2026-04-04T08:28:57Z</time></trkpt><trkpt lat="43.479829304569215" lon="11.715438764203695"><ele>259.0</ele><time>2026-04-04T08:28:58Z</time></trkpt><trkpt lat="43.47975508369195" lon="11.715356151958046"><ele>259.0</ele><time>2026-04-04T08:28:59Z</time></trkpt><trkpt lat="43.47968368757963" lon="11.71526292291409"><ele>257.8</ele><time>2026-04-04T08:29:00Z</time></trkpt><trkpt lat="43.47960648087535" lon="11.715173409405173"><ele>256.59999999999997</ele><time>2026-04-04T08:29:01Z</time></trkpt><trkpt lat="43.479531865720865" lon="11.715077032881366"><ele>255.4</ele><time>2026-04-04T08:29:02Z</time></trkpt><trkpt lat="43.479477897780356" lon="11.714955188917745"><ele>254.2</ele><time>2026-04-04T08:29:03Z</time></trkpt><trkpt lat="43.47948401397711" lon="11.714804641750758"><ele>253.0</ele><time>2026-04-04T08:29:04Z</time></trkpt><trkpt lat="43.47949105754792" lon="11.714662137007458"><ele>252.83333333333331</ele><time>2026-04-04T08:29:05Z</time></trkpt><trkpt lat="43.47951354979555" lon="11.714539121230857"><ele>252.66666666666666</ele><time>2026-04-04T08:29:06Z</time></trkpt><trkpt lat="43.47953233436945" lon="11.714420911015454"><ele>252.5</ele><time>2026-04-04T08:29:07Z</time></trkpt><trkpt lat="43.479542724900575" lon="11.714305585886184"><ele>252.33333333333331</ele><time>2026-04-04T08:29:08Z</time></trkpt><trkpt lat="43.47954979047905" lon="11.714197345928502"><ele>252.16666666666666</ele><time>2026-04-04T08:29:09Z</time></trkpt><trkpt lat="43.479556085344974" lon="11.714098550032112"><ele>252.0</ele><time>2026-04-04T08:29:10Z</time></trkpt><trkpt lat="43.4795618289027" lon="11.714005235505143"><ele>252.0</ele><time>2026-04-04T08:29:11Z</time></trkpt><trkpt lat="43.47957790413311" lon="11.713836344060374"><ele>252.0</ele><time>2026-04-04T08:29:13Z</time></trkpt><trkpt lat="43.479587049072464" lon="11.713690834413555"><ele>252.0</ele><time>2026-04-04T08:29:15Z</time></trkpt><trkpt lat="43.479595869238416" lon="11.713568010493194"><ele>252.0</ele><time>2026-04-04T08:29:17Z</time></trkpt><trkpt lat="43.4796058072195" lon="11.713457007956219"><ele>252.0</ele><time>2026-04-04T08:29:18.999Z</time></trkpt><trkpt lat="43.47962011912904" lon="11.713368820677356"><ele>253.16666666666666</ele><time>2026-04-04T08:29:20.999Z</time></trkpt><trkpt lat="43.47962685159864" lon="11.713244977256032"><ele>254.33333333333331</ele><time>2026-04-04T08:29:23.999Z</time></trkpt><trkpt lat="43.47963607741677" lon="11.71312578225516"><ele>255.5</ele><time>2026-04-04T08:29:26.999Z</time></trkpt><trkpt lat="43.47964556848186" lon="11.713005147413066"><ele>256.66666666666663</ele><time>2026-04-04T08:29:29.999Z</time></trkpt><trkpt lat="43.479655436478204" lon="11.712890192880176"><ele>257.8333333333333</ele><time>2026-04-04T08:29:32.999Z</time></trkpt><trkpt lat="43.47966795467786" lon="11.712775494623846"><ele>259.0</ele><time>2026-04-04T08:29:35.999Z</time></trkpt><trkpt lat="43.479680743105995" lon="11.712659300060482"><ele>259.5</ele><time>2026-04-04T08:29:38.999Z</time></trkpt><trkpt lat="43.47969564692359" lon="11.712547659699357"><ele>260.0</ele><time>2026-04-04T08:29:41.999Z</time></trkpt><trkpt lat="43.4797134482474" lon="11.712433483640334"><ele>260.5</ele><time>2026-04-04T08:29:44.999Z</time></trkpt><trkpt lat="43.47973308799238" lon="11.712321322853015"><ele>261.0</ele><time>2026-04-04T08:29:47.999Z</time></trkpt><trkpt lat="43.47975580575659" lon="11.71220707788824"><ele>261.5</ele><time>2026-04-04T08:29:50.999Z</time></trkpt><trkpt lat="43.47977947085059" lon="11.712092826108478"><ele>262.0</ele><time>2026-04-04T08:29:53.999Z</time></trkpt><trkpt lat="43.47979771594463" lon="11.711981766718754"><ele>262.3333333333333</ele><time>2026-04-04T08:29:56.999Z</time></trkpt><trkpt lat="43.47982214326967" lon="11.711879933549373"><ele>262.66666666666663</ele><time>2026-04-04T08:29:59.999Z</time></trkpt><trkpt lat="43.479847399564306" lon="11.711760158354634"><ele>263.0</ele><time>2026-04-04T08:30:02.999Z</time></trkpt><trkpt lat="43.47987604444928" lon="11.711635395493454"><ele>263.3333333333333</ele><time>2026-04-04T08:30:05.998Z</time></trkpt><trkpt lat="43.479895100993424" lon="11.711550542512656"><ele>263.6666666666667</ele><time>2026-04-04T08:30:07.998Z</time></trkpt><trkpt lat="43.4799230589599" lon="11.711421430129645"><ele>264.0</ele><time>2026-04-04T08:30:10.998Z</time></trkpt><trkpt lat="43.479941748488294" lon="11.71129218066515"><ele>264.0</ele><time>2026-04-04T08:30:13.998Z</time></trkpt><trkpt lat="43.47997089823358" lon="11.711169180442191"><ele>264.0</ele><time>2026-04-04T08:30:16.998Z</time></trkpt><trkpt lat="43.47999497459869" lon="11.711079712112051"><ele>264.0</ele><time>2026-04-04T08:30:18.998Z</time></trkpt><trkpt lat="43.480015495296904" lon="11.71096785256763"><ele>264.0</ele><time>2026-04-04T08:30:21.998Z</time></trkpt><trkpt lat="43.480046258404776" lon="11.71085081830351"><ele>264.0</ele><time>2026-04-04T08:30:24.998Z</time></trkpt><trkpt lat="43.48006512739795" lon="11.710726739444748"><ele>264.0</ele><time>2026-04-04T08:30:27.998Z</time></trkpt><trkpt lat="43.48008447772724" lon="11.710640564103814"><ele>264.2857142857143</ele><time>2026-04-04T08:30:29.998Z</time></trkpt><trkpt lat="43.480105650831725" lon="11.710550171643517"><ele>264.57142857142856</ele><time>2026-04-04T08:30:31.998Z</time></trkpt><trkpt lat="43.480123712919756" lon="11.710465094096936"><ele>264.8571428571429</ele><time>2026-04-04T08:30:33.998Z</time></trkpt><trkpt lat="43.48014417163938" lon="11.710381042264288"><ele>265.1428571428571</ele><time>2026-04-04T08:30:35.998Z</time></trkpt><trkpt lat="43.48016439448289" lon="11.710296222570033"><ele>265.42857142857144</ele><time>2026-04-04T08:30:37.998Z</time></trkpt><trkpt lat="43.48018432402448" lon="11.71017237723264"><ele>265.7142857142857</ele><time>2026-04-04T08:30:40.998Z</time></trkpt><trkpt lat="43.48019937219294" lon="11.710055702934996"><ele>266.0</ele><time>2026-04-04T08:30:43.998Z</time></trkpt><trkpt lat="43.480217504940526" lon="11.709932190150584"><ele>266.6666666666667</ele><time>2026-04-04T08:30:46.998Z</time></trkpt><trkpt lat="43.48023126193084" lon="11.709833568260525"><ele>267.33333333333337</ele><time>2026-04-04T08:30:49Z</time></trkpt><trkpt lat="43.48025304659989" lon="11.709732005314295"><ele>268.0</ele><time>2026-04-04T08:30:51Z</time></trkpt><trkpt lat="43.48026411295584" lon="11.709628209512216"><ele>268.6666666666667</ele><time>2026-04-04T08:30:53Z</time></trkpt><trkpt lat="43.48028182687853" lon="11.709504209487106"><ele>269.3333333333333</ele><time>2026-04-04T08:30:55Z</time></trkpt><trkpt lat="43.480297258563944" lon="11.70938495043509"><ele>270.0</ele><time>2026-04-04T08:30:57Z</time></trkpt><trkpt lat="43.48031491899023" lon="11.709259615039919"><ele>270.4</ele><time>2026-04-04T08:30:59Z</time></trkpt><trkpt lat="43.48033220471145" lon="11.709129945285827"><ele>270.8</ele><time>2026-04-04T08:31:01Z</time></trkpt><trkpt lat="43.48034439435636" lon="11.709013143722718"><ele>271.2</ele><time>2026-04-04T08:31:03Z</time></trkpt><trkpt lat="43.480388724615906" lon="11.708907621817"><ele>271.6</ele><time>2026-04-04T08:31:05Z</time></trkpt><trkpt lat="43.480446677852754" lon="11.708804235872167"><ele>272.0</ele><time>2026-04-04T08:31:07Z</time></trkpt><trkpt lat="43.48050844699528" lon="11.708678591056064"><ele>270.6</ele><time>2026-04-04T08:31:09Z</time></trkpt><trkpt lat="43.480592723140454" lon="11.70858266947208"><ele>269.2</ele><time>2026-04-04T08:31:11Z</time></trkpt><trkpt lat="43.480689680061936" lon="11.708502865928903"><ele>267.8</ele><time>2026-04-04T08:31:13Z</time></trkpt><trkpt lat="43.48078848673319" lon="11.70844495827038"><ele>266.4</ele><time>2026-04-04T08:31:15Z</time></trkpt><trkpt lat="43.4808992240571" lon="11.708420851901598"><ele>265.0</ele><time>2026-04-04T08:31:17Z</time></trkpt><trkpt lat="43.480995973550954" lon="11.70839492480539"><ele>265.0</ele><time>2026-04-04T08:31:19Z</time></trkpt><trkpt lat="43.48109716298214" lon="11.708381191309936"><ele>265.0</ele><time>2026-04-04T08:31:21Z</time></trkpt><trkpt lat="43.4811886264692" lon="11.708360077011589"><ele>265.0</ele><time>2026-04-04T08:31:23Z</time></trkpt><trkpt lat="43.48128040194116" lon="11.70834376146461"><ele>265.0</ele><time>2026-04-04T08:31:24.999Z</time></trkpt><trkpt lat="43.48136725526584" lon="11.70832185560556"><ele>265.0</ele><time>2026-04-04T08:31:26.999Z</time></trkpt><trkpt lat="43.48145359432048" lon="11.708302980899798"><ele>264.4</ele><time>2026-04-04T08:31:28.999Z</time></trkpt><trkpt lat="43.48153752441637" lon="11.70827145549654"><ele>263.8</ele><time>2026-04-04T08:31:30.999Z</time></trkpt><trkpt lat="43.481617205207336" lon="11.708223361826771"><ele>263.2</ele><time>2026-04-04T08:31:32.999Z</time></trkpt><trkpt lat="43.481696376719185" lon="11.70814641875838"><ele>262.6</ele><time>2026-04-04T08:31:34.999Z</time></trkpt><trkpt lat="43.48176476683729" lon="11.708047864353116"><ele>262.0</ele><time>2026-04-04T08:31:36.999Z</time></trkpt><trkpt lat="43.481813118997465" lon="11.707926655515257"><ele>262.0</ele><time>2026-04-04T08:31:38.999Z</time></trkpt><trkpt lat="43.481838379258356" lon="11.707787248984005"><ele>262.0</ele><time>2026-04-04T08:31:40.999Z</time></trkpt><trkpt lat="43.48185431365556" lon="11.70764525305617"><ele>262.0</ele><time>2026-04-04T08:31:42.999Z</time></trkpt><trkpt lat="43.481862610986774" lon="11.707501481628553"><ele>262.0</ele><time>2026-04-04T08:31:44.999Z</time></trkpt><trkpt lat="43.48186376565578" lon="11.707359720575221"><ele>262.0</ele><time>2026-04-04T08:31:46.999Z</time></trkpt><trkpt lat="43.481864385609335" lon="11.707222560706567"><ele>263.2</ele><time>2026-04-04T08:31:48.999Z</time></trkpt><trkpt lat="43.48186519030931" lon="11.707084638632741"><ele>264.4</ele><time>2026-04-04T08:31:50.999Z</time></trkpt><trkpt lat="43.481867572276656" lon="11.706951330561925"><ele>265.6</ele><time>2026-04-04T08:31:52.999Z</time></trkpt><trkpt lat="43.48186666760172" lon="11.706819597831494"><ele>266.8</ele><time>2026-04-04T08:31:54.999Z</time></trkpt><trkpt lat="43.4818701303843" lon="11.706689104480494"><ele>268.0</ele><time>2026-04-04T08:31:56.999Z</time></trkpt><trkpt lat="43.481871932029314" lon="11.706558708065572"><ele>268.2</ele><time>2026-04-04T08:31:58.999Z</time></trkpt><trkpt lat="43.48187166362663" lon="11.706427779019116"><ele>268.4</ele><time>2026-04-04T08:32:00.999Z</time></trkpt><trkpt lat="43.481873754987305" lon="11.706296789168794"><ele>268.59999999999997</ele><time>2026-04-04T08:32:02.999Z</time></trkpt><trkpt lat="43.48187653418635" lon="11.70616677315996"><ele>268.8</ele><time>2026-04-04T08:32:04.999Z</time></trkpt><trkpt lat="43.481880567541175" lon="11.706032877087464"><ele>269.0</ele><time>2026-04-04T08:32:06.999Z</time></trkpt><trkpt lat="43.481883921687746" lon="11.70589714658599"><ele>269.0</ele><time>2026-04-04T08:32:08.999Z</time></trkpt><trkpt lat="43.48188556863985" lon="11.70576257871929"><ele>269.0</ele><time>2026-04-04T08:32:10.999Z</time></trkpt><trkpt lat="43.48188728286221" lon="11.705629232489539"><ele>269.0</ele><time>2026-04-04T08:32:12.998Z</time></trkpt><trkpt lat="43.481888697173176" lon="11.705498385610303"><ele>269.0</ele><time>2026-04-04T08:32:14.998Z</time></trkpt><trkpt lat="43.48188750857285" lon="11.705367241088936"><ele>269.0</ele><time>2026-04-04T08:32:16.998Z</time></trkpt><trkpt lat="43.48188170627217" lon="11.705232758682538"><ele>269.4</ele><time>2026-04-04T08:32:18.998Z</time></trkpt><trkpt lat="43.4818719196271" lon="11.705093443946229"><ele>269.79999999999995</ele><time>2026-04-04T08:32:20.998Z</time></trkpt><trkpt lat="43.48185630926004" lon="11.70494777989478"><ele>270.20000000000005</ele><time>2026-04-04T08:32:22.998Z</time></trkpt><trkpt lat="43.481843279082355" lon="11.704781308040173"><ele>270.6</ele><time>2026-04-04T08:32:24.998Z</time></trkpt><trkpt lat="43.481836050617495" lon="11.704694854520051"><ele>271.0</ele><time>2026-04-04T08:32:25.998Z</time></trkpt><trkpt lat="43.481830294288244" lon="11.70460498434795"><ele>271.0</ele><time>2026-04-04T08:32:26.998Z</time></trkpt><trkpt lat="43.48182328508325" lon="11.70451147933786"><ele>271.0</ele><time>2026-04-04T08:32:27.998Z</time></trkpt><trkpt lat="43.481814844042724" lon="11.70441618965716"><ele>271.0</ele><time>2026-04-04T08:32:28.998Z</time></trkpt><trkpt lat="43.48180573001446" lon="11.70431965747247"><ele>271.0</ele><time>2026-04-04T08:32:29.998Z</time></trkpt><trkpt lat="43.48179693139844" lon="11.704221972881827"><ele>271.0</ele><time>2026-04-04T08:32:30.998Z</time></trkpt><trkpt lat="43.48178823398705" lon="11.704120297060454"><ele>271.0</ele><time>2026-04-04T08:32:31.998Z</time></trkpt><trkpt lat="43.4817802944937" lon="11.70402024236739"><ele>271.0</ele><time>2026-04-04T08:32:32.998Z</time></trkpt><trkpt lat="43.48177444555324" lon="11.70391643299655"><ele>270.0</ele><time>2026-04-04T08:32:33.998Z</time></trkpt><trkpt lat="43.48176523822548" lon="11.703811761083154"><ele>269.0</ele><time>2026-04-04T08:32:34.998Z</time></trkpt><trkpt lat="43.481753695055765" lon="11.703711003541622"><ele>268.0</ele><time>2026-04-04T08:32:35.998Z</time></trkpt><trkpt lat="43.48174213144688" lon="11.7036119581989"><ele>267.0</ele><time>2026-04-04T08:32:36.998Z</time></trkpt><trkpt lat="43.481725249999805" lon="11.703512370451707"><ele>266.0</ele><time>2026-04-04T08:32:37.998Z</time></trkpt><trkpt lat="43.48170530013118" lon="11.70341197296181"><ele>265.0</ele><time>2026-04-04T08:32:38.998Z</time></trkpt><trkpt lat="43.481687066143316" lon="11.703313625811171"><ele>264.0</ele><time>2026-04-04T08:32:39.998Z</time></trkpt><trkpt lat="43.4816662408554" lon="11.703214471602736"><ele>263.0</ele><time>2026-04-04T08:32:40.998Z</time></trkpt><trkpt lat="43.48164588220017" lon="11.703113066259156"><ele>262.0</ele><time>2026-04-04T08:32:41.998Z</time></trkpt><trkpt lat="43.4816252741021" lon="11.703005876458498"><ele>261.0</ele><time>2026-04-04T08:32:42.998Z</time></trkpt><trkpt lat="43.4816036458881" lon="11.702900227354128"><ele>260.0</ele><time>2026-04-04T08:32:43.998Z</time></trkpt><trkpt lat="43.48158243341056" lon="11.702793880457573"><ele>259.0</ele><time>2026-04-04T08:32:44.998Z</time></trkpt><trkpt lat="43.48155938194246" lon="11.70268868211304"><ele>258.0</ele><time>2026-04-04T08:32:45.998Z</time></trkpt><trkpt lat="43.48153639704273" lon="11.702582645003725"><ele>257.1666666666667</ele><time>2026-04-04T08:32:46.998Z</time></trkpt><trkpt lat="43.481511094599774" lon="11.702476697922192"><ele>256.3333333333333</ele><time>2026-04-04T08:32:47.998Z</time></trkpt><trkpt lat="43.48148031195819" lon="11.70237200984108"><ele>255.5</ele><time>2026-04-04T08:32:48.998Z</time></trkpt><trkpt lat="43.4814447400815" lon="11.702273783736613"><ele>254.66666666666666</ele><time>2026-04-04T08:32:49.998Z</time></trkpt><trkpt lat="43.48140493079816" lon="11.702176366905084"><ele>253.83333333333331</ele><time>2026-04-04T08:32:50.998Z</time></trkpt><trkpt lat="43.4813631539872" lon="11.702076248073157"><ele>253.0</ele><time>2026-04-04T08:32:51.998Z</time></trkpt><trkpt lat="43.48132093302214" lon="11.701968422756014"><ele>253.33333333333331</ele><time>2026-04-04T08:32:53Z</time></trkpt><trkpt lat="43.48127743848156" lon="11.701860785283495"><ele>253.66666666666666</ele><time>2026-04-04T08:32:54Z</time></trkpt><trkpt lat="43.481227884707465" lon="11.701754619157501"><ele>254.0</ele><time>2026-04-04T08:32:55Z</time></trkpt><trkpt lat="43.481175580536856" lon="11.70165289322608"><ele>254.33333333333331</ele><time>2026-04-04T08:32:56Z</time></trkpt><trkpt lat="43.48112360462099" lon="11.701563287523365"><ele>254.66666666666666</ele><time>2026-04-04T08:32:57Z</time></trkpt><trkpt lat="43.48106822668441" lon="11.70147890363451"><ele>255.0</ele><time>2026-04-04T08:32:58Z</time></trkpt><trkpt lat="43.48100636614917" lon="11.701397418528957"><ele>255.0</ele><time>2026-04-04T08:32:59Z</time></trkpt><trkpt lat="43.480947809107356" lon="11.701316078913967"><ele>255.0</ele><time>2026-04-04T08:33:00Z</time></trkpt><trkpt lat="43.48087909002709" lon="11.701232140494326"><ele>255.0</ele><time>2026-04-04T08:33:01Z</time></trkpt><trkpt lat="43.48080642402149" lon="11.701152151270815"><ele>255.0</ele><time>2026-04-04T08:33:02Z</time></trkpt><trkpt lat="43.48073389931428" lon="11.701068415169331"><ele>255.0</ele><time>2026-04-04T08:33:03Z</time></trkpt><trkpt lat="43.48065780046867" lon="11.700992691009212"><ele>253.6</ele><time>2026-04-04T08:33:04Z</time></trkpt><trkpt lat="43.480573285541645" lon="11.70092803325512"><ele>252.2</ele><time>2026-04-04T08:33:05Z</time></trkpt><trkpt lat="43.480481255182596" lon="11.70089275620458"><ele>250.8</ele><time>2026-04-04T08:33:06Z</time></trkpt><trkpt lat="43.48039622687219" lon="11.700889902032513"><ele>249.4</ele><time>2026-04-04T08:33:07Z</time></trkpt><trkpt lat="43.480296965299864" lon="11.70089524731703"><ele>248.0</ele><time>2026-04-04T08:33:08Z</time></trkpt><trkpt lat="43.480198431208755" lon="11.700923018905446"><ele>247.2</ele><time>2026-04-04T08:33:09Z</time></trkpt><trkpt lat="43.48010443528047" lon="11.700954182229847"><ele>246.4</ele><time>2026-04-04T08:33:10Z</time></trkpt><trkpt lat="43.48001034853205" lon="11.700985768605607"><ele>245.59999999999997</ele><time>2026-04-04T08:33:11Z</time></trkpt><trkpt lat="43.47991710853791" lon="11.701013278568354"><ele>244.79999999999998</ele><time>2026-04-04T08:33:12Z</time></trkpt><trkpt lat="43.47982624600718" lon="11.701055359496118"><ele>244.0</ele><time>2026-04-04T08:33:13Z</time></trkpt><trkpt lat="43.4797351242999" lon="11.70107572948336"><ele>243.99999999999997</ele><time>2026-04-04T08:33:14Z</time></trkpt><trkpt lat="43.47964824198087" lon="11.701067110598052"><ele>244.0</ele><time>2026-04-04T08:33:15Z</time></trkpt><trkpt lat="43.4795625712887" lon="11.701039844007656"><ele>244.0</ele><time>2026-04-04T08:33:16Z</time></trkpt><trkpt lat="43.47948699295694" lon="11.701009074969972"><ele>244.0</ele><time>2026-04-04T08:33:17Z</time></trkpt><trkpt lat="43.47940754936416" lon="11.700973471322806"><ele>243.99999999999997</ele><time>2026-04-04T08:33:18Z</time></trkpt><trkpt lat="43.47933577716238" lon="11.70092684982746"><ele>244.0</ele><time>2026-04-04T08:33:19Z</time></trkpt><trkpt lat="43.47927063064371" lon="11.700874542629789"><ele>244.16666666666666</ele><time>2026-04-04T08:33:20Z</time></trkpt><trkpt lat="43.4792185019631" lon="11.700809759932387"><ele>244.33333333333331</ele><time>2026-04-04T08:33:21Z</time></trkpt><trkpt lat="43.47916908483034" lon="11.700732688535462"><ele>244.5</ele><time>2026-04-04T08:33:22Z</time></trkpt><trkpt lat="43.47913818611634" lon="11.700644410735542"><ele>244.66666666666669</ele><time>2026-04-04T08:33:23Z</time></trkpt><trkpt lat="43.4791175316515" lon="11.700552720800722"><ele>244.83333333333334</ele><time>2026-04-04T08:33:24Z</time></trkpt><trkpt lat="43.479110427140185" lon="11.700465697038156"><ele>245.0</ele><time>2026-04-04T08:33:25Z</time></trkpt><trkpt lat="43.479118538893125" lon="11.700299988963359"><ele>245.4</ele><time>2026-04-04T08:33:27Z</time></trkpt><trkpt lat="43.4791649615455" lon="11.700162056189425"><ele>245.8</ele><time>2026-04-04T08:33:29Z</time></trkpt><trkpt lat="43.47922479779516" lon="11.700052874826673"><ele>246.2</ele><time>2026-04-04T08:33:31Z</time></trkpt><trkpt lat="43.47929063372559" lon="11.699968750364802"><ele>246.6</ele><time>2026-04-04T08:33:33Z</time></trkpt><trkpt lat="43.47935381317017" lon="11.699902442046048"><ele>247.0</ele><time>2026-04-04T08:33:34.999Z</time></trkpt><trkpt lat="43.47941473569204" lon="11.699815092182563"><ele>247.0</ele><time>2026-04-04T08:33:37.999Z</time></trkpt><trkpt lat="43.47947497436768" lon="11.699742538490916"><ele>247.0</ele><time>2026-04-04T08:33:40.999Z</time></trkpt><trkpt lat="43.479531373865164" lon="11.699676096692938"><ele>247.0</ele><time>2026-04-04T08:33:43.999Z</time></trkpt><trkpt lat="43.4795842069162" lon="11.699610012398486"><ele>247.0</ele><time>2026-04-04T08:33:46.999Z</time></trkpt><trkpt lat="43.47963934940216" lon="11.699540798502285"><ele>247.0</ele><time>2026-04-04T08:33:49.999Z</time></trkpt><trkpt lat="43.47969447313402" lon="11.699478316595346"><ele>247.0</ele><time>2026-04-04T08:33:52.999Z</time></trkpt><trkpt lat="43.4797505269746" lon="11.699418755383789"><ele>247.0</ele><time>2026-04-04T08:33:55.999Z</time></trkpt><trkpt lat="43.47980506913748" lon="11.699360203892603"><ele>248.0</ele><time>2026-04-04T08:33:58.999Z</time></trkpt><trkpt lat="43.479857073554754" lon="11.699288394454259"><ele>249.0</ele><time>2026-04-04T08:34:01.999Z</time></trkpt><trkpt lat="43.47991258519409" lon="11.699231808593144"><ele>250.0</ele><time>2026-04-04T08:34:04.999Z</time></trkpt><trkpt lat="43.47996702399937" lon="11.699161351218882"><ele>251.0</ele><time>2026-04-04T08:34:07.999Z</time></trkpt><trkpt lat="43.48002181896619" lon="11.699092536661208"><ele>252.0</ele><time>2026-04-04T08:34:10.999Z</time></trkpt><trkpt lat="43.480064513787376" lon="11.699007170523922"><ele>253.0</ele><time>2026-04-04T08:34:13.999Z</time></trkpt><trkpt lat="43.4801135418585" lon="11.698926560569195"><ele>254.0</ele><time>2026-04-04T08:34:16.999Z</time></trkpt><trkpt lat="43.48016373584883" lon="11.698844946667387"><ele>254.00000000000003</ele><time>2026-04-04T08:34:19.999Z</time></trkpt><trkpt lat="43.48021306447987" lon="11.698757152269254"><ele>254.0</ele><time>2026-04-04T08:34:22.999Z</time></trkpt><trkpt lat="43.48025791770869" lon="11.698669040718206"><ele>254.0</ele><time>2026-04-04T08:34:25.998Z</time></trkpt><trkpt lat="43.48030602054525" lon="11.6985732077324"><ele>254.0</ele><time>2026-04-04T08:34:28.998Z</time></trkpt><trkpt lat="43.48035602453519" lon="11.69847546352274"><ele>254.00000000000003</ele><time>2026-04-04T08:34:31.998Z</time></trkpt><trkpt lat="43.48039391526747" lon="11.69840494063002"><ele>254.0</ele><time>2026-04-04T08:34:33.998Z</time></trkpt><trkpt lat="43.48042982371285" lon="11.698329572074627"><ele>254.57142857142858</ele><time>2026-04-04T08:34:35.998Z</time></trkpt><trkpt lat="43.48046618374844" lon="11.698257604147958"><ele>255.1428571428571</ele><time>2026-04-04T08:34:37.998Z</time></trkpt><trkpt lat="43.480503942169136" lon="11.698182756911098"><ele>255.7142857142857</ele><time>2026-04-04T08:34:39.998Z</time></trkpt><trkpt lat="43.480541978122034" lon="11.698112885690897"><ele>256.2857142857143</ele><time>2026-04-04T08:34:41.998Z</time></trkpt><trkpt lat="43.48059178192403" lon="11.698003267110856"><ele>256.85714285714283</ele><time>2026-04-04T08:34:44.998Z</time></trkpt><trkpt lat="43.48063001808794" lon="11.697932317566794"><ele>257.4285714285714</ele><time>2026-04-04T08:34:46.998Z</time></trkpt><trkpt lat="43.48066970533926" lon="11.697857826293527"><ele>258.0</ele><time>2026-04-04T08:34:48.998Z</time></trkpt><trkpt lat="43.48070444719816" lon="11.69777691854739"><ele>258.8333333333333</ele><time>2026-04-04T08:34:50.998Z</time></trkpt><trkpt lat="43.48074314009592" lon="11.697698748182638"><ele>259.6666666666667</ele><time>2026-04-04T08:34:52.998Z</time></trkpt><trkpt lat="43.4807894744662" lon="11.69761597336234"><ele>260.5</ele><time>2026-04-04T08:34:54.998Z</time></trkpt><trkpt lat="43.48086206880693" lon="11.69747118607329"><ele>261.33333333333337</ele><time>2026-04-04T08:34:57.998Z</time></trkpt><trkpt lat="43.480911458726084" lon="11.697374118361571"><ele>262.1666666666667</ele><time>2026-04-04T08:35:00Z</time></trkpt><trkpt lat="43.48096049161218" lon="11.697272966086837"><ele>263.0</ele><time>2026-04-04T08:35:02Z</time></trkpt><trkpt lat="43.481011084137045" lon="11.697172188074015"><ele>263.0</ele><time>2026-04-04T08:35:04Z</time></trkpt><trkpt lat="43.48105657955607" lon="11.697069406731268"><ele>263.0</ele><time>2026-04-04T08:35:06Z</time></trkpt><trkpt lat="43.48109812470194" lon="11.696968608666714"><ele>263.0</ele><time>2026-04-04T08:35:08Z</time></trkpt><trkpt lat="43.48112719309624" lon="11.696842219648225"><ele>263.0</ele><time>2026-04-04T08:35:10Z</time></trkpt><trkpt lat="43.48114959339418" lon="11.696709280576872"><ele>263.0</ele><time>2026-04-04T08:35:12Z</time></trkpt><trkpt lat="43.48116491132517" lon="11.696572312159281"><ele>262.6</ele><time>2026-04-04T08:35:14Z</time></trkpt><trkpt lat="43.48117705654611" lon="11.69643358671535"><ele>262.20000000000005</ele><time>2026-04-04T08:35:16Z</time></trkpt><trkpt lat="43.481191091486544" lon="11.696287061050272"><ele>261.8</ele><time>2026-04-04T08:35:18Z</time></trkpt><trkpt lat="43.481207475958435" lon="11.696139930029608"><ele>261.40000000000003</ele><time>2026-04-04T08:35:20Z</time></trkpt><trkpt lat="43.48122258106811" lon="11.695985601648445"><ele>261.0</ele><time>2026-04-04T08:35:22Z</time></trkpt><trkpt lat="43.48123817409933" lon="11.695830664283594"><ele>261.0</ele><time>2026-04-04T08:35:24Z</time></trkpt><trkpt lat="43.481249254129516" lon="11.695678451344527"><ele>261.0</ele><time>2026-04-04T08:35:26Z</time></trkpt><trkpt lat="43.48126384043866" lon="11.695515271852678"><ele>261.0</ele><time>2026-04-04T08:35:28Z</time></trkpt><trkpt lat="43.48127816879125" lon="11.695344214406818"><ele>261.0</ele><time>2026-04-04T08:35:30Z</time></trkpt><trkpt lat="43.4812948922746" lon="11.69517294422582"><ele>261.0</ele><time>2026-04-04T08:35:32Z</time></trkpt><trkpt lat="43.48130069822429" lon="11.695083528863773"><ele>261.0</ele><time>2026-04-04T08:35:33Z</time></trkpt><trkpt lat="43.48131839119557" lon="11.694909106483257"><ele>261.0</ele><time>2026-04-04T08:35:35Z</time></trkpt><trkpt lat="43.48132624356366" lon="11.694822025590561"><ele>261.0</ele><time>2026-04-04T08:35:36Z</time></trkpt><trkpt lat="43.481344771276994" lon="11.69465353703158"><ele>261.0</ele><time>2026-04-04T08:35:38Z</time></trkpt><trkpt lat="43.48135486586805" lon="11.694564282910859"><ele>261.0</ele><time>2026-04-04T08:35:39Z</time></trkpt><trkpt lat="43.48136119841824" lon="11.69447278916845"><ele>261.1666666666667</ele><time>2026-04-04T08:35:40Z</time></trkpt><trkpt lat="43.48136751148145" lon="11.694295608884632"><ele>261.3333333333333</ele><time>2026-04-04T08:35:42Z</time></trkpt><trkpt lat="43.48136065947613" lon="11.694199952360965"><ele>261.5</ele><time>2026-04-04T08:35:42.999Z</time></trkpt><trkpt lat="43.48134416582608" lon="11.69411028732706"><ele>261.66666666666663</ele><time>2026-04-04T08:35:43.999Z</time></trkpt><trkpt lat="43.48131705914959" lon="11.694022600769129"><ele>261.8333333333333</ele><time>2026-04-04T08:35:44.999Z</time></trkpt><trkpt lat="43.48128810416596" lon="11.693935075402813"><ele>262.0</ele><time>2026-04-04T08:35:45.999Z</time></trkpt><trkpt lat="43.48125456499743" lon="11.693844097219598"><ele>261.0</ele><time>2026-04-04T08:35:46.999Z</time></trkpt><trkpt lat="43.48122031067539" lon="11.693754745206867"><ele>260.0</ele><time>2026-04-04T08:35:47.999Z</time></trkpt><trkpt lat="43.48118532932241" lon="11.69366096348434"><ele>259.0</ele><time>2026-04-04T08:35:48.999Z</time></trkpt><trkpt lat="43.48114838838822" lon="11.693563024143355"><ele>258.0</ele><time>2026-04-04T08:35:49.999Z</time></trkpt><trkpt lat="43.48111848176725" lon="11.693464247708246"><ele>257.0</ele><time>2026-04-04T08:35:50.999Z</time></trkpt><trkpt lat="43.481083953542964" lon="11.693367380671829"><ele>256.0</ele><time>2026-04-04T08:35:51.999Z</time></trkpt><trkpt lat="43.48105995922735" lon="11.693261625089393"><ele>255.33333333333331</ele><time>2026-04-04T08:35:52.999Z</time></trkpt><trkpt lat="43.48104904643052" lon="11.693154570606016"><ele>254.66666666666666</ele><time>2026-04-04T08:35:53.999Z</time></trkpt><trkpt lat="43.481060647479474" lon="11.693042826632459"><ele>254.0</ele><time>2026-04-04T08:35:54.999Z</time></trkpt><trkpt lat="43.48110826002906" lon="11.69294169559042"><ele>253.33333333333331</ele><time>2026-04-04T08:35:55.999Z</time></trkpt><trkpt lat="43.481159231897834" lon="11.692860456795893"><ele>252.66666666666666</ele><time>2026-04-04T08:35:56.999Z</time></trkpt><trkpt lat="43.48121185987008" lon="11.692769672070863"><ele>252.0</ele><time>2026-04-04T08:35:57.999Z</time></trkpt><trkpt lat="43.48125996047059" lon="11.692677793712832"><ele>252.83333333333334</ele><time>2026-04-04T08:35:58.999Z</time></trkpt><trkpt lat="43.48130805954436" lon="11.692580123577041"><ele>253.66666666666669</ele><time>2026-04-04T08:35:59.999Z</time></trkpt><trkpt lat="43.48135395717197" lon="11.692487938988107"><ele>254.5</ele><time>2026-04-04T08:36:00.999Z</time></trkpt><trkpt lat="43.48139460490174" lon="11.69238173755952"><ele>255.33333333333334</ele><time>2026-04-04T08:36:01.999Z</time></trkpt><trkpt lat="43.48142795978017" lon="11.692273258578625"><ele>256.1666666666667</ele><time>2026-04-04T08:36:02.999Z</time></trkpt><trkpt lat="43.48145708849003" lon="11.692156741122085"><ele>257.0</ele><time>2026-04-04T08:36:03.999Z</time></trkpt><trkpt lat="43.48147218647019" lon="11.692023203661318"><ele>255.6</ele><time>2026-04-04T08:36:04.999Z</time></trkpt><trkpt lat="43.481478337059684" lon="11.69188442378396"><ele>254.2</ele><time>2026-04-04T08:36:05.999Z</time></trkpt><trkpt lat="43.48149996866151" lon="11.6917408564963"><ele>252.8</ele><time>2026-04-04T08:36:06.999Z</time></trkpt><trkpt lat="43.48151835735902" lon="11.691601242361827"><ele>251.4</ele><time>2026-04-04T08:36:07.999Z</time></trkpt><trkpt lat="43.48152707041875" lon="11.691470951970942"><ele>250.0</ele><time>2026-04-04T08:36:08.999Z</time></trkpt><trkpt lat="43.48154150622377" lon="11.691335819632608"><ele>250.0</ele><time>2026-04-04T08:36:09.999Z</time></trkpt><trkpt lat="43.4815613498957" lon="11.691200229628233"><ele>250.0</ele><time>2026-04-04T08:36:10.999Z</time></trkpt><trkpt lat="43.48157874856087" lon="11.691065315630123"><ele>250.0</ele><time>2026-04-04T08:36:11.999Z</time></trkpt><trkpt lat="43.48159384887936" lon="11.690935066292477"><ele>250.0</ele><time>2026-04-04T08:36:12.999Z</time></trkpt><trkpt lat="43.48161269867366" lon="11.690805728067073"><ele>250.0</ele><time>2026-04-04T08:36:13.999Z</time></trkpt><trkpt lat="43.48162023507697" lon="11.690678705046702"><ele>249.8</ele><time>2026-04-04T08:36:14.999Z</time></trkpt><trkpt lat="43.48163860310596" lon="11.69054878660379"><ele>249.6</ele><time>2026-04-04T08:36:15.999Z</time></trkpt><trkpt lat="43.48165707704708" lon="11.690417261899192"><ele>249.39999999999998</ele><time>2026-04-04T08:36:16.999Z</time></trkpt><trkpt lat="43.481668300904836" lon="11.69028696651978"><ele>249.2</ele><time>2026-04-04T08:36:17.999Z</time></trkpt><trkpt lat="43.48168049024859" lon="11.690158977903886"><ele>249.0</ele><time>2026-04-04T08:36:18.999Z</time></trkpt><trkpt lat="43.48168825000857" lon="11.690033095767847"><ele>248.2</ele><time>2026-04-04T08:36:19.999Z</time></trkpt><trkpt lat="43.481682248022885" lon="11.689903805634977"><ele>247.39999999999998</ele><time>2026-04-04T08:36:20.999Z</time></trkpt><trkpt lat="43.48165376289002" lon="11.689782778574221"><ele>246.6</ele><time>2026-04-04T08:36:21.999Z</time></trkpt><trkpt lat="43.4816112693672" lon="11.68967189971657"><ele>245.8</ele><time>2026-04-04T08:36:22.999Z</time></trkpt><trkpt lat="43.48155804078261" lon="11.689575267111305"><ele>245.0</ele><time>2026-04-04T08:36:23.999Z</time></trkpt><trkpt lat="43.48149642864232" lon="11.689493016138039"><ele>245.00000000000003</ele><time>2026-04-04T08:36:24.999Z</time></trkpt><trkpt lat="43.48142976930698" lon="11.689426720390664"><ele>245.0</ele><time>2026-04-04T08:36:25.999Z</time></trkpt><trkpt lat="43.481362706784005" lon="11.689367053350411"><ele>245.0</ele><time>2026-04-04T08:36:26.999Z</time></trkpt><trkpt lat="43.48130192164581" lon="11.689295318070776"><ele>245.0</ele><time>2026-04-04T08:36:27.999Z</time></trkpt><trkpt lat="43.48122889537394" lon="11.689257891840878"><ele>245.00000000000003</ele><time>2026-04-04T08:36:28.999Z</time></trkpt><trkpt lat="43.481167897284664" lon="11.68919601524565"><ele>245.0</ele><time>2026-04-04T08:36:29.999Z</time></trkpt><trkpt lat="43.48110179940354" lon="11.689139695188624"><ele>245.0</ele><time>2026-04-04T08:36:30.999Z</time></trkpt><trkpt lat="43.48104025852173" lon="11.689082024928478"><ele>245.0</ele><time>2026-04-04T08:36:31.998Z</time></trkpt><trkpt lat="43.48097529850252" lon="11.689027997856067"><ele>245.0</ele><time>2026-04-04T08:36:32.998Z</time></trkpt><trkpt lat="43.4809177129215" lon="11.688989794074446"><ele>245.0</ele><time>2026-04-04T08:36:33.998Z</time></trkpt><trkpt lat="43.48078705018037" lon="11.688871673023902"><ele>245.0</ele><time>2026-04-04T08:36:35.998Z</time></trkpt><trkpt lat="43.48067687624252" lon="11.688821966855805"><ele>245.0</ele><time>2026-04-04T08:36:37.998Z</time></trkpt><trkpt lat="43.48056898723152" lon="11.688800046282841"><ele>245.0</ele><time>2026-04-04T08:36:39.998Z</time></trkpt><trkpt lat="43.48047181222746" lon="11.688794358804712"><ele>245.0</ele><time>2026-04-04T08:36:41.998Z</time></trkpt><trkpt lat="43.48038017636836" lon="11.68878445461436"><ele>245.0</ele><time>2026-04-04T08:36:43.998Z</time></trkpt><trkpt lat="43.48029696544538" lon="11.688797737828745"><ele>245.0</ele><time>2026-04-04T08:36:45.998Z</time></trkpt><trkpt lat="43.480215840345316" lon="11.688805953009282"><ele>245.66666666666669</ele><time>2026-04-04T08:36:47.998Z</time></trkpt><trkpt lat="43.48014234905595" lon="11.688828581660891"><ele>246.33333333333334</ele><time>2026-04-04T08:36:49.998Z</time></trkpt><trkpt lat="43.480066862726" lon="11.688796613194393"><ele>247.0</ele><time>2026-04-04T08:36:51.998Z</time></trkpt><trkpt lat="43.48001102893236" lon="11.688707531644413"><ele>247.66666666666669</ele><time>2026-04-04T08:36:53.998Z</time></trkpt><trkpt lat="43.48000636327166" lon="11.688587166215106"><ele>248.33333333333334</ele><time>2026-04-04T08:36:55.998Z</time></trkpt><trkpt lat="43.48004078635845" lon="11.688483338742005"><ele>249.0</ele><time>2026-04-04T08:36:57.998Z</time></trkpt><trkpt lat="43.48009492496376" lon="11.68842189901058"><ele>249.33333333333334</ele><time>2026-04-04T08:36:59.998Z</time></trkpt><trkpt lat="43.48015998664994" lon="11.688390466979847"><ele>249.66666666666669</ele><time>2026-04-04T08:37:01.998Z</time></trkpt><trkpt lat="43.480223874074476" lon="11.6883764865095"><ele>250.0</ele><time>2026-04-04T08:37:03.998Z</time></trkpt><trkpt lat="43.48031818868013" lon="11.688365686427534"><ele>250.33333333333334</ele><time>2026-04-04T08:37:07Z</time></trkpt><trkpt lat="43.48040117200738" lon="11.68834492618279"><ele>250.66666666666669</ele><time>2026-04-04T08:37:10Z</time></trkpt><trkpt lat="43.4804761701153" lon="11.688289195721802"><ele>251.0</ele><time>2026-04-04T08:37:13Z</time></trkpt><trkpt lat="43.48054712611661" lon="11.68820577210996"><ele>250.33333333333334</ele><time>2026-04-04T08:37:16Z</time></trkpt><trkpt lat="43.4806005118058" lon="11.688108470075415"><ele>249.66666666666669</ele><time>2026-04-04T08:37:19Z</time></trkpt><trkpt lat="43.48064670732814" lon="11.6879996608677"><ele>249.0</ele><time>2026-04-04T08:37:22Z</time></trkpt><trkpt lat="43.480675483382214" lon="11.687881157746071"><ele>248.33333333333331</ele><time>2026-04-04T08:37:25Z</time></trkpt><trkpt lat="43.48069944793388" lon="11.687763102964794"><ele>247.66666666666666</ele><time>2026-04-04T08:37:28Z</time></trkpt><trkpt lat="43.4807078162839" lon="11.687645980634308"><ele>247.0</ele><time>2026-04-04T08:37:31Z</time></trkpt><trkpt lat="43.48071208551786" lon="11.687557044332571"><ele>248.49999999999997</ele><time>2026-04-04T08:37:33Z</time></trkpt><trkpt lat="43.480711789317965" lon="11.687441368434582"><ele>250.0</ele><time>2026-04-04T08:37:36Z</time></trkpt><trkpt lat="43.48070913632779" lon="11.687325778948258"><ele>251.5</ele><time>2026-04-04T08:37:39Z</time></trkpt><trkpt lat="43.480703895158925" lon="11.687215133927396"><ele>253.0</ele><time>2026-04-04T08:37:42Z</time></trkpt><trkpt lat="43.480692460153115" lon="11.68710331880439"><ele>254.49999999999997</ele><time>2026-04-04T08:37:45Z</time></trkpt><trkpt lat="43.48067920857979" lon="11.687000097388916"><ele>256.0</ele><time>2026-04-04T08:37:47.999Z</time></trkpt><trkpt lat="43.48065234495536" lon="11.686901078238456"><ele>256.8333333333333</ele><time>2026-04-04T08:37:50.999Z</time></trkpt><trkpt lat="43.48060679408013" lon="11.686815258237386"><ele>257.66666666666663</ele><time>2026-04-04T08:37:53.999Z</time></trkpt><trkpt lat="43.48056324760305" lon="11.686723748655066"><ele>258.5</ele><time>2026-04-04T08:37:56.999Z</time></trkpt><trkpt lat="43.480511367295264" lon="11.686642123367715"><ele>259.3333333333333</ele><time>2026-04-04T08:37:59.999Z</time></trkpt><trkpt lat="43.48045982047095" lon="11.686552659423144"><ele>260.1666666666667</ele><time>2026-04-04T08:38:02.999Z</time></trkpt><trkpt lat="43.48041642347834" lon="11.686457203482808"><ele>261.0</ele><time>2026-04-04T08:38:05.999Z</time></trkpt><trkpt lat="43.48036234020366" lon="11.68632469526007"><ele>261.1666666666667</ele><time>2026-04-04T08:38:09.999Z</time></trkpt><trkpt lat="43.480330218432854" lon="11.686225728135428"><ele>261.3333333333333</ele><time>2026-04-04T08:38:12.999Z</time></trkpt><trkpt lat="43.480302997186925" lon="11.686124433390512"><ele>261.5</ele><time>2026-04-04T08:38:15.999Z</time></trkpt><trkpt lat="43.48027511200433" lon="11.686025183340364"><ele>261.66666666666663</ele><time>2026-04-04T08:38:18.999Z</time></trkpt><trkpt lat="43.480251565767034" lon="11.685923794323038"><ele>261.8333333333333</ele><time>2026-04-04T08:38:21.999Z</time></trkpt><trkpt lat="43.48022556939786" lon="11.685825370978932"><ele>262.0</ele><time>2026-04-04T08:38:24.999Z</time></trkpt><trkpt lat="43.480199319563035" lon="11.685723940706252"><ele>262.5</ele><time>2026-04-04T08:38:27.999Z</time></trkpt><trkpt lat="43.48017491225105" lon="11.685621140897283"><ele>263.0</ele><time>2026-04-04T08:38:30.999Z</time></trkpt><trkpt lat="43.48015016797344" lon="11.685519417602704"><ele>263.5</ele><time>2026-04-04T08:38:33.998Z</time></trkpt><trkpt lat="43.48012051631229" lon="11.685421068487376"><ele>264.0</ele><time>2026-04-04T08:38:36.998Z</time></trkpt><trkpt lat="43.480099857590574" lon="11.685317946550258"><ele>264.5</ele><time>2026-04-04T08:38:40.998Z</time></trkpt><trkpt lat="43.480076036580236" lon="11.685222759084049"><ele>265.0</ele><time>2026-04-04T08:38:42.998Z</time></trkpt><trkpt lat="43.48005072645152" lon="11.685127772567371"><ele>265.5</ele><time>2026-04-04T08:38:45.998Z</time></trkpt><trkpt lat="43.4800236957889" lon="11.685021650436067"><ele>266.0</ele><time>2026-04-04T08:38:48.998Z</time></trkpt><trkpt lat="43.47999587335522" lon="11.684914267405187"><ele>266.5</ele><time>2026-04-04T08:38:51.998Z</time></trkpt><trkpt lat="43.47996775543606" lon="11.684811975349591"><ele>267.0</ele><time>2026-04-04T08:38:54.998Z</time></trkpt><trkpt lat="43.47993937977631" lon="11.684704139865069"><ele>267.5</ele><time>2026-04-04T08:38:57.998Z</time></trkpt><trkpt lat="43.47991029878235" lon="11.684593565968216"><ele>268.0</ele><time>2026-04-04T08:39:00.998Z</time></trkpt><trkpt lat="43.479878446690286" lon="11.684489392124307"><ele>268.8333333333333</ele><time>2026-04-04T08:39:03.998Z</time></trkpt><trkpt lat="43.47984929442791" lon="11.684383594486665"><ele>269.66666666666663</ele><time>2026-04-04T08:39:06.998Z</time></trkpt><trkpt lat="43.47981889841984" lon="11.68428069928496"><ele>270.5</ele><time>2026-04-04T08:39:09.998Z</time></trkpt><trkpt lat="43.47978043545373" lon="11.684185095578945"><ele>271.3333333333333</ele><time>2026-04-04T08:39:13Z</time></trkpt><trkpt lat="43.47973696190475" lon="11.684085300594806"><ele>272.1666666666667</ele><time>2026-04-04T08:39:16Z</time></trkpt><trkpt lat="43.479689154052245" lon="11.683986829218359"><ele>273.0</ele><time>2026-04-04T08:39:19Z</time></trkpt><trkpt lat="43.479638080555844" lon="11.683895325792031"><ele>273.6666666666667</ele><time>2026-04-04T08:39:22Z</time></trkpt><trkpt lat="43.479593618722845" lon="11.683805029623754"><ele>274.3333333333333</ele><time>2026-04-04T08:39:25Z</time></trkpt><trkpt lat="43.479541824456284" lon="11.683715059505163"><ele>275.0</ele><time>2026-04-04T08:39:28Z</time></trkpt><trkpt lat="43.4794939711959" lon="11.683625798950205"><ele>275.66666666666663</ele><time>2026-04-04T08:39:31Z</time></trkpt><trkpt lat="43.4794417582525" lon="11.683531378607173"><ele>276.3333333333333</ele><time>2026-04-04T08:39:34Z</time></trkpt><trkpt lat="43.47938854865296" lon="11.683440236757335"><ele>277.0</ele><time>2026-04-04T08:39:37Z</time></trkpt><trkpt lat="43.479338504125955" lon="11.683343376666489"><ele>277.16666666666663</ele><time>2026-04-04T08:39:40Z</time></trkpt><trkpt lat="43.47928310896145" lon="11.683243370295052"><ele>277.3333333333333</ele><time>2026-04-04T08:39:43Z</time></trkpt><trkpt lat="43.47923015096505" lon="11.683141138707184"><ele>277.5</ele><time>2026-04-04T08:39:46Z</time></trkpt><trkpt lat="43.47917690186264" lon="11.683042473424347"><ele>277.6666666666667</ele><time>2026-04-04T08:39:49Z</time></trkpt><trkpt lat="43.47912196695713" lon="11.682946740372405"><ele>277.83333333333337</ele><time>2026-04-04T08:39:51.999Z</time></trkpt><trkpt lat="43.479069429886565" lon="11.682852887665076"><ele>278.0</ele><time>2026-04-04T08:39:54.999Z</time></trkpt><trkpt lat="43.47901546555553" lon="11.68275560935416"><ele>278.0</ele><time>2026-04-04T08:39:57.999Z</time></trkpt><trkpt lat="43.478957671903586" lon="11.682653365320148"><ele>278.0</ele><time>2026-04-04T08:40:00.999Z</time></trkpt><trkpt lat="43.4789148324129" lon="11.682579815935972"><ele>278.0</ele><time>2026-04-04T08:40:02.999Z</time></trkpt><trkpt lat="43.478861737978235" lon="11.682494205628618"><ele>278.0</ele><time>2026-04-04T08:40:04.999Z</time></trkpt><trkpt lat="43.478813073715344" lon="11.682395818316618"><ele>278.0</ele><time>2026-04-04T08:40:06.999Z</time></trkpt><trkpt lat="43.478752446838314" lon="11.682298982572606"><ele>278.0</ele><time>2026-04-04T08:40:08.999Z</time></trkpt><trkpt lat="43.47868917030881" lon="11.68218455509612"><ele>278.2</ele><time>2026-04-04T08:40:10.999Z</time></trkpt><trkpt lat="43.478616650367826" lon="11.68206547103756"><ele>278.4</ele><time>2026-04-04T08:40:12.999Z</time></trkpt><trkpt lat="43.47855102026557" lon="11.68193172757022"><ele>278.59999999999997</ele><time>2026-04-04T08:40:14.999Z</time></trkpt><trkpt lat="43.478492196078776" lon="11.681783239875324"><ele>278.8</ele><time>2026-04-04T08:40:16.999Z</time></trkpt><trkpt lat="43.47847309946116" lon="11.681697228276212"><ele>279.0</ele><time>2026-04-04T08:40:17.999Z</time></trkpt><trkpt lat="43.47846464466634" lon="11.68160698348843"><ele>279.0</ele><time>2026-04-04T08:40:18.999Z</time></trkpt><trkpt lat="43.478463427717664" lon="11.681518498119976"><ele>279.0</ele><time>2026-04-04T08:40:19.999Z</time></trkpt><trkpt lat="43.4784666109308" lon="11.681430582498889"><ele>279.0</ele><time>2026-04-04T08:40:20.999Z</time></trkpt><trkpt lat="43.47849897447212" lon="11.68127482994069"><ele>279.0</ele><time>2026-04-04T08:40:22.999Z</time></trkpt><trkpt lat="43.47853567607362" lon="11.681140389413875"><ele>279.0</ele><time>2026-04-04T08:40:24.999Z</time></trkpt><trkpt lat="43.47857196429036" lon="11.681022282630437"><ele>279.0</ele><time>2026-04-04T08:40:26.999Z</time></trkpt><trkpt lat="43.47860427301624" lon="11.68091420826337"><ele>279.1666666666667</ele><time>2026-04-04T08:40:28.999Z</time></trkpt><trkpt lat="43.47863167108486" lon="11.680818051549833"><ele>279.3333333333333</ele><time>2026-04-04T08:40:30.999Z</time></trkpt><trkpt lat="43.47866065010447" lon="11.680732859855294"><ele>279.5</ele><time>2026-04-04T08:40:32.999Z</time></trkpt><trkpt lat="43.478683728098744" lon="11.68065081443942"><ele>279.66666666666663</ele><time>2026-04-04T08:40:34.999Z</time></trkpt><trkpt lat="43.478715140977016" lon="11.68053432001195"><ele>279.8333333333333</ele><time>2026-04-04T08:40:37.998Z</time></trkpt><trkpt lat="43.478745880198694" lon="11.680421083464616"><ele>280.0</ele><time>2026-04-04T08:40:40.998Z</time></trkpt><trkpt lat="43.4787783257988" lon="11.680305704240466"><ele>279.3333333333333</ele><time>2026-04-04T08:40:43.998Z</time></trkpt><trkpt lat="43.47880818366807" lon="11.680194250329688"><ele>278.66666666666663</ele><time>2026-04-04T08:40:46.998Z</time></trkpt><trkpt lat="43.47883877460937" lon="11.680085183596308"><ele>278.0</ele><time>2026-04-04T08:40:49.998Z</time></trkpt><trkpt lat="43.47887289076393" lon="11.679981893994604"><ele>277.3333333333333</ele><time>2026-04-04T08:40:52.998Z</time></trkpt><trkpt lat="43.4789025474705" lon="11.679872493792374"><ele>276.6666666666667</ele><time>2026-04-04T08:40:55.998Z</time></trkpt><trkpt lat="43.478934226683975" lon="11.679762471961052"><ele>276.0</ele><time>2026-04-04T08:40:58.998Z</time></trkpt><trkpt lat="43.47896338944541" lon="11.679657512597535"><ele>276.0</ele><time>2026-04-04T08:41:01.998Z</time></trkpt><trkpt lat="43.47898501756381" lon="11.67955470274195"><ele>276.0</ele><time>2026-04-04T08:41:04.998Z</time></trkpt><trkpt lat="43.47900113015702" lon="11.679443943152322"><ele>276.0</ele><time>2026-04-04T08:41:07.998Z</time></trkpt><trkpt lat="43.47901155652905" lon="11.679327803727519"><ele>276.0</ele><time>2026-04-04T08:41:10.998Z</time></trkpt><trkpt lat="43.47902226378579" lon="11.679202349665804"><ele>276.0</ele><time>2026-04-04T08:41:13.998Z</time></trkpt><trkpt lat="43.479029586790986" lon="11.679074493438346"><ele>276.0</ele><time>2026-04-04T08:41:17Z</time></trkpt><trkpt lat="43.47903653724478" lon="11.678950683289418"><ele>277.2</ele><time>2026-04-04T08:41:20Z</time></trkpt><trkpt lat="43.47904544152829" lon="11.67882643696524"><ele>278.40000000000003</ele><time>2026-04-04T08:41:23Z</time></trkpt><trkpt lat="43.47905324507641" lon="11.678700160381895"><ele>279.6</ele><time>2026-04-04T08:41:26Z</time></trkpt><trkpt lat="43.47906174791955" lon="11.678572018594888"><ele>280.8</ele><time>2026-04-04T08:41:29Z</time></trkpt><trkpt lat="43.479069459067034" lon="11.678452966732708"><ele>282.0</ele><time>2026-04-04T08:41:32Z</time></trkpt><trkpt lat="43.479076512563324" lon="11.67832605205766"><ele>283.0</ele><time>2026-04-04T08:41:35Z</time></trkpt><trkpt lat="43.47908707816719" lon="11.678202125289195"><ele>284.0</ele><time>2026-04-04T08:41:38Z</time></trkpt><trkpt lat="43.4790956972578" lon="11.678075388812642"><ele>285.0</ele><time>2026-04-04T08:41:41Z</time></trkpt><trkpt lat="43.479103337215314" lon="11.677952569119263"><ele>286.0</ele><time>2026-04-04T08:41:44Z</time></trkpt><trkpt lat="43.4791084792623" lon="11.677831433755566"><ele>287.0</ele><time>2026-04-04T08:41:47Z</time></trkpt><trkpt lat="43.47911695527961" lon="11.67771474961603"><ele>288.0</ele><time>2026-04-04T08:41:50Z</time></trkpt><trkpt lat="43.47911627099971" lon="11.677597413972657"><ele>289.0</ele><time>2026-04-04T08:41:53Z</time></trkpt><trkpt lat="43.47910988499353" lon="11.6774767132702"><ele>290.0</ele><time>2026-04-04T08:41:55.999Z</time></trkpt><trkpt lat="43.47909810724914" lon="11.677355644459757"><ele>291.0</ele><time>2026-04-04T08:41:58.999Z</time></trkpt><trkpt lat="43.47908534274932" lon="11.677234233094193"><ele>292.0</ele><time>2026-04-04T08:42:01.999Z</time></trkpt><trkpt lat="43.479072437063955" lon="11.67711198544853"><ele>293.0</ele><time>2026-04-04T08:42:04.999Z</time></trkpt><trkpt lat="43.479059583236875" lon="11.676991879147616"><ele>294.0</ele><time>2026-04-04T08:42:07.999Z</time></trkpt><trkpt lat="43.479041535972385" lon="11.676864403122917"><ele>294.6666666666667</ele><time>2026-04-04T08:42:10.999Z</time></trkpt><trkpt lat="43.47902835323839" lon="11.676742011020199"><ele>295.3333333333333</ele><time>2026-04-04T08:42:13.999Z</time></trkpt><trkpt lat="43.479014577216645" lon="11.676627330000537"><ele>296.0</ele><time>2026-04-04T08:42:16.999Z</time></trkpt><trkpt lat="43.47900990688839" lon="11.676513934998722"><ele>296.66666666666663</ele><time>2026-04-04T08:42:19.999Z</time></trkpt><trkpt lat="43.47899147083591" lon="11.676395468440377"><ele>297.3333333333333</ele><time>2026-04-04T08:42:22.999Z</time></trkpt><trkpt lat="43.47898652078392" lon="11.676271520867543"><ele>298.0</ele><time>2026-04-04T08:42:25.999Z</time></trkpt><trkpt lat="43.47896894129252" lon="11.67615513499112"><ele>299.16666666666663</ele><time>2026-04-04T08:42:28.999Z</time></trkpt><trkpt lat="43.47895796045114" lon="11.676037223165267"><ele>300.3333333333333</ele><time>2026-04-04T08:42:31.999Z</time></trkpt><trkpt lat="43.47895854659915" lon="11.6759172263857"><ele>301.5</ele><time>2026-04-04T08:42:34.999Z</time></trkpt><trkpt lat="43.4789780668714" lon="11.675813352668575"><ele>302.6666666666667</ele><time>2026-04-04T08:42:37.999Z</time></trkpt><trkpt lat="43.47899499049048" lon="11.675729658924299"><ele>303.83333333333337</ele><time>2026-04-04T08:42:39.999Z</time></trkpt><trkpt lat="43.47903172546295" lon="11.67562086968657"><ele>305.0</ele><time>2026-04-04T08:42:42.998Z</time></trkpt><trkpt lat="43.47907761386504" lon="11.675519790176425"><ele>305.0</ele><time>2026-04-04T08:42:45.998Z</time></trkpt><trkpt lat="43.479134957991896" lon="11.675418644767985"><ele>305.0</ele><time>2026-04-04T08:42:48.998Z</time></trkpt><trkpt lat="43.479185355064395" lon="11.675321475168955"><ele>305.0</ele><time>2026-04-04T08:42:51.998Z</time></trkpt><trkpt lat="43.47923657086176" lon="11.675220237877014"><ele>305.0</ele><time>2026-04-04T08:42:54.998Z</time></trkpt><trkpt lat="43.479290715061616" lon="11.675121506514762"><ele>305.0</ele><time>2026-04-04T08:42:57.998Z</time></trkpt><trkpt lat="43.47934401733177" lon="11.675017170638572"><ele>305.0</ele><time>2026-04-04T08:43:00.998Z</time></trkpt><trkpt lat="43.479382176783574" lon="11.6749466351191"><ele>305.0</ele><time>2026-04-04T08:43:02.998Z</time></trkpt><trkpt lat="43.47942653884045" lon="11.67487906351171"><ele>305.0</ele><time>2026-04-04T08:43:04.998Z</time></trkpt><trkpt lat="43.4794674873948" lon="11.674801405899183"><ele>305.0</ele><time>2026-04-04T08:43:06.998Z</time></trkpt><trkpt lat="43.47951299752436" lon="11.674719996695552"><ele>305.0</ele><time>2026-04-04T08:43:08.998Z</time></trkpt><trkpt lat="43.47955640523993" lon="11.674634777983918"><ele>305.0</ele><time>2026-04-04T08:43:10.998Z</time></trkpt><trkpt lat="43.479598466409925" lon="11.674547432817578"><ele>305.0</ele><time>2026-04-04T08:43:12.998Z</time></trkpt><trkpt lat="43.47963765618003" lon="11.674459025872284"><ele>305.1666666666667</ele><time>2026-04-04T08:43:14.998Z</time></trkpt><trkpt lat="43.479664039770384" lon="11.674364272730125"><ele>305.33333333333337</ele><time>2026-04-04T08:43:16.998Z</time></trkpt><trkpt lat="43.47970632793758" lon="11.674259219852303"><ele>305.5</ele><time>2026-04-04T08:43:18.998Z</time></trkpt><trkpt lat="43.479745369571944" lon="11.674157069102092"><ele>305.6666666666667</ele><time>2026-04-04T08:43:20.998Z</time></trkpt><trkpt lat="43.4797831144409" lon="11.674054550303275"><ele>305.8333333333333</ele><time>2026-04-04T08:43:23Z</time></trkpt><trkpt lat="43.47982730497404" lon="11.673944537514009"><ele>306.0</ele><time>2026-04-04T08:43:25Z</time></trkpt><trkpt lat="43.4798706703802" lon="11.673820879815516"><ele>306.0</ele><time>2026-04-04T08:43:27Z</time></trkpt><trkpt lat="43.47992232257406" lon="11.673686357270755"><ele>306.0</ele><time>2026-04-04T08:43:29Z</time></trkpt><trkpt lat="43.47997622884297" lon="11.673538300061443"><ele>306.0</ele><time>2026-04-04T08:43:31Z</time></trkpt><trkpt lat="43.48003234548869" lon="11.673390035896746"><ele>306.0</ele><time>2026-04-04T08:43:33Z</time></trkpt><trkpt lat="43.48008970437814" lon="11.673234232350058"><ele>305.85714285714283</ele><time>2026-04-04T08:43:35Z</time></trkpt><trkpt lat="43.48011878365119" lon="11.673150084311102"><ele>305.7142857142857</ele><time>2026-04-04T08:43:36Z</time></trkpt><trkpt lat="43.480151730062786" lon="11.673065797125185"><ele>305.57142857142856</ele><time>2026-04-04T08:43:37Z</time></trkpt><trkpt lat="43.48018275505605" lon="11.67297756653314"><ele>305.42857142857144</ele><time>2026-04-04T08:43:38Z</time></trkpt><trkpt lat="43.480215489609485" lon="11.672889778928734"><ele>305.2857142857143</ele><time>2026-04-04T08:43:39Z</time></trkpt><trkpt lat="43.4802496539206" lon="11.672798862150513"><ele>305.14285714285717</ele><time>2026-04-04T08:43:40Z</time></trkpt><trkpt lat="43.480283790148185" lon="11.672705336315735"><ele>305.0</ele><time>2026-04-04T08:43:41Z</time></trkpt><trkpt lat="43.480320612643425" lon="11.672609710430683"><ele>304.33333333333337</ele><time>2026-04-04T08:43:42Z</time></trkpt><trkpt lat="43.48035547826638" lon="11.67251090832393"><ele>303.6666666666667</ele><time>2026-04-04T08:43:43Z</time></trkpt><trkpt lat="43.4803901112493" lon="11.672411927144672"><ele>303.0</ele><time>2026-04-04T08:43:44Z</time></trkpt><trkpt lat="43.48042650544327" lon="11.672312935489023"><ele>302.3333333333333</ele><time>2026-04-04T08:43:45Z</time></trkpt><trkpt lat="43.480462428256125" lon="11.672219108020977"><ele>301.66666666666663</ele><time>2026-04-04T08:43:46Z</time></trkpt><trkpt lat="43.48049844494556" lon="11.672108502519418"><ele>301.0</ele><time>2026-04-04T08:43:47Z</time></trkpt><trkpt lat="43.48054036638228" lon="11.672005315892035"><ele>300.8333333333333</ele><time>2026-04-04T08:43:48Z</time></trkpt><trkpt lat="43.48058169954271" lon="11.671900077314085"><ele>300.66666666666663</ele><time>2026-04-04T08:43:49Z</time></trkpt><trkpt lat="43.48062050711309" lon="11.671795885521881"><ele>300.5</ele><time>2026-04-04T08:43:50Z</time></trkpt><trkpt lat="43.48066637790164" lon="11.671693523565374"><ele>300.3333333333333</ele><time>2026-04-04T08:43:51Z</time></trkpt><trkpt lat="43.48071698587821" lon="11.671594212628143"><ele>300.1666666666667</ele><time>2026-04-04T08:43:51.999Z</time></trkpt><trkpt lat="43.480780525913644" lon="11.671506417470646"><ele>300.0</ele><time>2026-04-04T08:43:52.999Z</time></trkpt><trkpt lat="43.48085271164838" lon="11.671431547194862"><ele>300.0</ele><time>2026-04-04T08:43:53.999Z</time></trkpt><trkpt lat="43.480930629626876" lon="11.67136683724814"><ele>300.0</ele><time>2026-04-04T08:43:54.999Z</time></trkpt><trkpt lat="43.481012450428224" lon="11.671317260005495"><ele>300.0</ele><time>2026-04-04T08:43:55.999Z</time></trkpt><trkpt lat="43.48109630299246" lon="11.671279716902184"><ele>300.0</ele><time>2026-04-04T08:43:56.999Z</time></trkpt><trkpt lat="43.481184514521736" lon="11.671262461037028"><ele>300.0</ele><time>2026-04-04T08:43:57.999Z</time></trkpt><trkpt lat="43.481272023970085" lon="11.671257174857102"><ele>300.0</ele><time>2026-04-04T08:43:58.999Z</time></trkpt><trkpt lat="43.481360737375304" lon="11.671273477355316"><ele>299.8333333333333</ele><time>2026-04-04T08:43:59.999Z</time></trkpt><trkpt lat="43.48144722486774" lon="11.67129926020804"><ele>299.6666666666667</ele><time>2026-04-04T08:44:00.999Z</time></trkpt><trkpt lat="43.48152965446349" lon="11.67134100053157"><ele>299.5</ele><time>2026-04-04T08:44:01.999Z</time></trkpt><trkpt lat="43.48160820569306" lon="11.67138831734005"><ele>299.33333333333337</ele><time>2026-04-04T08:44:02.999Z</time></trkpt><trkpt lat="43.48168313441462" lon="11.671452276071204"><ele>299.1666666666667</ele><time>2026-04-04T08:44:03.999Z</time></trkpt><trkpt lat="43.48175111572647" lon="11.671522738834629"><ele>299.0</ele><time>2026-04-04T08:44:04.999Z</time></trkpt><trkpt lat="43.48181799342419" lon="11.671596383990194"><ele>299.0</ele><time>2026-04-04T08:44:05.999Z</time></trkpt><trkpt lat="43.481884000946245" lon="11.671668177104474"><ele>299.0</ele><time>2026-04-04T08:44:06.999Z</time></trkpt><trkpt lat="43.481951719212546" lon="11.671743148703428"><ele>299.0</ele><time>2026-04-04T08:44:07.999Z</time></trkpt><trkpt lat="43.48201761113778" lon="11.671810725663544"><ele>299.0</ele><time>2026-04-04T08:44:08.999Z</time></trkpt><trkpt lat="43.482081208873645" lon="11.671881669342158"><ele>299.0</ele><time>2026-04-04T08:44:09.999Z</time></trkpt><trkpt lat="43.482147044572166" lon="11.67195250174859"><ele>299.0</ele><time>2026-04-04T08:44:10.999Z</time></trkpt><trkpt lat="43.48221309659838" lon="11.672024206024007"><ele>298.1666666666667</ele><time>2026-04-04T08:44:11.999Z</time></trkpt><trkpt lat="43.482280899237615" lon="11.67209761625163"><ele>297.33333333333337</ele><time>2026-04-04T08:44:12.999Z</time></trkpt><trkpt lat="43.48234889082875" lon="11.672170419096982"><ele>296.5</ele><time>2026-04-04T08:44:13.999Z</time></trkpt><trkpt lat="43.48241359695902" lon="11.672248999000667"><ele>295.6666666666667</ele><time>2026-04-04T08:44:14.999Z</time></trkpt><trkpt lat="43.48248121350645" lon="11.672321613633907"><ele>294.8333333333333</ele><time>2026-04-04T08:44:15.999Z</time></trkpt><trkpt lat="43.48255453931985" lon="11.672389062269707"><ele>294.0</ele><time>2026-04-04T08:44:16.999Z</time></trkpt><trkpt lat="43.48262520515029" lon="11.672455121947289"><ele>294.0</ele><time>2026-04-04T08:44:17.999Z</time></trkpt><trkpt lat="43.4826963140793" lon="11.672506920769896"><ele>294.0</ele><time>2026-04-04T08:44:18.999Z</time></trkpt><trkpt lat="43.48277173315483" lon="11.672537521652515"><ele>294.0</ele><time>2026-04-04T08:44:19.999Z</time></trkpt><trkpt lat="43.48285313904699" lon="11.672547008462335"><ele>294.0</ele><time>2026-04-04T08:44:20.999Z</time></trkpt><trkpt lat="43.482940477136516" lon="11.67253857019482"><ele>294.0</ele><time>2026-04-04T08:44:21.999Z</time></trkpt><trkpt lat="43.48302458389529" lon="11.67250950243657"><ele>294.0</ele><time>2026-04-04T08:44:22.999Z</time></trkpt><trkpt lat="43.48310797109848" lon="11.672474289925155"><ele>293.2</ele><time>2026-04-04T08:44:23.999Z</time></trkpt><trkpt lat="43.483195642687754" lon="11.672439220458308"><ele>292.4</ele><time>2026-04-04T08:44:24.999Z</time></trkpt><trkpt lat="43.48328526592918" lon="11.6724006048407"><ele>291.6</ele><time>2026-04-04T08:44:25.999Z</time></trkpt><trkpt lat="43.4833788619526" lon="11.672366193988358"><ele>290.8</ele><time>2026-04-04T08:44:26.999Z</time></trkpt><trkpt lat="43.48346828766976" lon="11.672328814322684"><ele>290.0</ele><time>2026-04-04T08:44:27.999Z</time></trkpt><trkpt lat="43.48356449810448" lon="11.672287675344867"><ele>290.0</ele><time>2026-04-04T08:44:28.999Z</time></trkpt><trkpt lat="43.483659293969126" lon="11.67224980356957"><ele>290.0</ele><time>2026-04-04T08:44:29.999Z</time></trkpt><trkpt lat="43.48375515025252" lon="11.672216086256661"><ele>290.0</ele><time>2026-04-04T08:44:30.999Z</time></trkpt><trkpt lat="43.48385523459319" lon="11.672178655136438"><ele>290.0</ele><time>2026-04-04T08:44:31.999Z</time></trkpt><trkpt lat="43.48395314153403" lon="11.672142639095918"><ele>290.0</ele><time>2026-04-04T08:44:32.999Z</time></trkpt><trkpt lat="43.48405791568427" lon="11.672102927900779"><ele>288.2</ele><time>2026-04-04T08:44:33.999Z</time></trkpt><trkpt lat="43.48415726142431" lon="11.672059996288011"><ele>286.4</ele><time>2026-04-04T08:44:34.999Z</time></trkpt><trkpt lat="43.48426261494222" lon="11.672022618647668"><ele>284.6</ele><time>2026-04-04T08:44:35.999Z</time></trkpt><trkpt lat="43.484371528023445" lon="11.671992092628374"><ele>282.8</ele><time>2026-04-04T08:44:36.999Z</time></trkpt><trkpt lat="43.48447954641064" lon="11.67196991997119"><ele>281.0</ele><time>2026-04-04T08:44:37.999Z</time></trkpt><trkpt lat="43.484588539946785" lon="11.67196102824078"><ele>279.6</ele><time>2026-04-04T08:44:38.999Z</time></trkpt><trkpt lat="43.484698732769154" lon="11.671970448996209"><ele>278.20000000000005</ele><time>2026-04-04T08:44:39.998Z</time></trkpt><trkpt lat="43.48480892190993" lon="11.67198350676836"><ele>276.79999999999995</ele><time>2026-04-04T08:44:40.998Z</time></trkpt><trkpt lat="43.484918994431" lon="11.672001646316552"><ele>275.4</ele><time>2026-04-04T08:44:41.998Z</time></trkpt><trkpt lat="43.48502542213619" lon="11.672018601189373"><ele>274.0</ele><time>2026-04-04T08:44:42.998Z</time></trkpt><trkpt lat="43.48513287161689" lon="11.672032596861253"><ele>274.0</ele><time>2026-04-04T08:44:43.998Z</time></trkpt><trkpt lat="43.485239226518736" lon="11.672044257905867"><ele>274.0</ele><time>2026-04-04T08:44:44.998Z</time></trkpt><trkpt lat="43.48535029787847" lon="11.67204653939063"><ele>274.0</ele><time>2026-04-04T08:44:45.998Z</time></trkpt><trkpt lat="43.48546151965325" lon="11.672020496184878"><ele>274.0</ele><time>2026-04-04T08:44:46.998Z</time></trkpt><trkpt lat="43.48556290732475" lon="11.671952517661829"><ele>274.0</ele><time>2026-04-04T08:44:47.998Z</time></trkpt><trkpt lat="43.48565020184845" lon="11.671852135871038"><ele>273.0</ele><time>2026-04-04T08:44:48.998Z</time></trkpt><trkpt lat="43.48571639551449" lon="11.671720394445792"><ele>272.0</ele><time>2026-04-04T08:44:49.998Z</time></trkpt><trkpt lat="43.485766108090374" lon="11.671580604038203"><ele>271.0</ele><time>2026-04-04T08:44:50.998Z</time></trkpt><trkpt lat="43.48582002152896" lon="11.671449122043281"><ele>270.0</ele><time>2026-04-04T08:44:51.998Z</time></trkpt><trkpt lat="43.485876268181606" lon="11.671321459272155"><ele>269.0</ele><time>2026-04-04T08:44:52.998Z</time></trkpt><trkpt lat="43.48593249996608" lon="11.67119730755314"><ele>269.0</ele><time>2026-04-04T08:44:53.998Z</time></trkpt><trkpt lat="43.48599386281167" lon="11.671074218336765"><ele>269.0</ele><time>2026-04-04T08:44:54.998Z</time></trkpt><trkpt lat="43.48605262930672" lon="11.670953625881971"><ele>269.0</ele><time>2026-04-04T08:44:55.998Z</time></trkpt><trkpt lat="43.48610879449086" lon="11.67082943720899"><ele>269.0</ele><time>2026-04-04T08:44:56.998Z</time></trkpt><trkpt lat="43.48616554400464" lon="11.670705625249166"><ele>269.0</ele><time>2026-04-04T08:44:57.998Z</time></trkpt><trkpt lat="43.486220678443445" lon="11.670582882507013"><ele>267.2</ele><time>2026-04-04T08:44:58.998Z</time></trkpt><trkpt lat="43.486276044801265" lon="11.670463140716578"><ele>265.4</ele><time>2026-04-04T08:44:59.998Z</time></trkpt><trkpt lat="43.486330804561796" lon="11.670340076962257"><ele>263.6</ele><time>2026-04-04T08:45:00.998Z</time></trkpt><trkpt lat="43.48638570880367" lon="11.670218506461458"><ele>261.8</ele><time>2026-04-04T08:45:01.998Z</time></trkpt><trkpt lat="43.48643722824211" lon="11.670096407669316"><ele>260.0</ele><time>2026-04-04T08:45:02.998Z</time></trkpt><trkpt lat="43.48649046418722" lon="11.669976781637331"><ele>259.8</ele><time>2026-04-04T08:45:03.998Z</time></trkpt><trkpt lat="43.48654500187704" lon="11.66985897361581"><ele>259.6</ele><time>2026-04-04T08:45:04.998Z</time></trkpt><trkpt lat="43.486599322508795" lon="11.66974222543617"><ele>259.4</ele><time>2026-04-04T08:45:05.998Z</time></trkpt><trkpt lat="43.486653315849765" lon="11.669628040749513"><ele>259.2</ele><time>2026-04-04T08:45:06.998Z</time></trkpt><trkpt lat="43.48670492310887" lon="11.669513787182108"><ele>259.0</ele><time>2026-04-04T08:45:07.998Z</time></trkpt><trkpt lat="43.48675540043861" lon="11.66939753170933"><ele>259.4</ele><time>2026-04-04T08:45:08.998Z</time></trkpt><trkpt lat="43.48680780853254" lon="11.669288507755558"><ele>259.79999999999995</ele><time>2026-04-04T08:45:09.998Z</time></trkpt><trkpt lat="43.486860677318326" lon="11.669181729618137"><ele>260.20000000000005</ele><time>2026-04-04T08:45:10.998Z</time></trkpt><trkpt lat="43.48691488026831" lon="11.66908047739939"><ele>260.6</ele><time>2026-04-04T08:45:11.998Z</time></trkpt><trkpt lat="43.486967803135016" lon="11.66898125739419"><ele>261.0</ele><time>2026-04-04T08:45:12.998Z</time></trkpt><trkpt lat="43.487022625628285" lon="11.6688853811291"><ele>261.0</ele><time>2026-04-04T08:45:13.998Z</time></trkpt><trkpt lat="43.487077108251825" lon="11.668789048545054"><ele>261.0</ele><time>2026-04-04T08:45:14.998Z</time></trkpt><trkpt lat="43.48713452418676" lon="11.66870246986064"><ele>261.0</ele><time>2026-04-04T08:45:15.998Z</time></trkpt><trkpt lat="43.48719118898771" lon="11.668617357058514"><ele>261.0</ele><time>2026-04-04T08:45:16.998Z</time></trkpt><trkpt lat="43.487246880376134" lon="11.668536252215825"><ele>261.0</ele><time>2026-04-04T08:45:17.998Z</time></trkpt><trkpt lat="43.487303339682" lon="11.668460050925567"><ele>261.0</ele><time>2026-04-04T08:45:18.998Z</time></trkpt><trkpt lat="43.48735807844334" lon="11.668385024020619"><ele>261.0</ele><time>2026-04-04T08:45:19.998Z</time></trkpt><trkpt lat="43.487410847859465" lon="11.668315959637537"><ele>261.0</ele><time>2026-04-04T08:45:20.998Z</time></trkpt><trkpt lat="43.48746622801699" lon="11.668248337921598"><ele>261.0</ele><time>2026-04-04T08:45:21.998Z</time></trkpt><trkpt lat="43.487519443635776" lon="11.668184040469182"><ele>261.0</ele><time>2026-04-04T08:45:22.998Z</time></trkpt><trkpt lat="43.48757365851639" lon="11.668124567631711"><ele>261.0</ele><time>2026-04-04T08:45:23.998Z</time></trkpt><trkpt lat="43.48762667515248" lon="11.668067922337732"><ele>261.0</ele><time>2026-04-04T08:45:24.998Z</time></trkpt><trkpt lat="43.48767713383647" lon="11.668010876068262"><ele>261.0</ele><time>2026-04-04T08:45:25.998Z</time></trkpt><trkpt lat="43.48772881167918" lon="11.667956236850362"><ele>261.0</ele><time>2026-04-04T08:45:26.998Z</time></trkpt><trkpt lat="43.4877811932448" lon="11.667905703933457"><ele>261.0</ele><time>2026-04-04T08:45:28Z</time></trkpt><trkpt lat="43.48788067179988" lon="11.66780570997128"><ele>261.0</ele><time>2026-04-04T08:45:30Z</time></trkpt><trkpt lat="43.48793428852167" lon="11.667757261663253"><ele>261.0</ele><time>2026-04-04T08:45:31Z</time></trkpt><trkpt lat="43.4879857342746" lon="11.667706287596907"><ele>261.0</ele><time>2026-04-04T08:45:32Z</time></trkpt><trkpt lat="43.48808594160791" lon="11.667609827649057"><ele>261.0</ele><time>2026-04-04T08:45:34Z</time></trkpt><trkpt lat="43.488138896779844" lon="11.667561362338734"><ele>261.1666666666667</ele><time>2026-04-04T08:45:35Z</time></trkpt><trkpt lat="43.48819091603155" lon="11.667511018355901"><ele>261.3333333333333</ele><time>2026-04-04T08:45:36Z</time></trkpt><trkpt lat="43.48824357053037" lon="11.667461471885192"><ele>261.5</ele><time>2026-04-04T08:45:37Z</time></trkpt><trkpt lat="43.48834811109357" lon="11.667362957389905"><ele>261.66666666666663</ele><time>2026-04-04T08:45:39Z</time></trkpt><trkpt lat="43.48845092837145" lon="11.66726221222924"><ele>261.8333333333333</ele><time>2026-04-04T08:45:41Z</time></trkpt><trkpt lat="43.488504693247954" lon="11.66721075975224"><ele>262.0</ele><time>2026-04-04T08:45:42Z</time></trkpt><trkpt lat="43.48855648319051" lon="11.667158641581596"><ele>262.0</ele><time>2026-04-04T08:45:43Z</time></trkpt><trkpt lat="43.48860892844846" lon="11.667109325812952"><ele>262.0</ele><time>2026-04-04T08:45:44Z</time></trkpt><trkpt lat="43.48866190883405" lon="11.667055827338537"><ele>262.0</ele><time>2026-04-04T08:45:45Z</time></trkpt><trkpt lat="43.48876701928253" lon="11.666961042665264"><ele>262.0</ele><time>2026-04-04T08:45:47Z</time></trkpt><trkpt lat="43.48881879176309" lon="11.666909533694932"><ele>262.0</ele><time>2026-04-04T08:45:48Z</time></trkpt><trkpt lat="43.488871195363934" lon="11.666856071181034"><ele>262.0</ele><time>2026-04-04T08:45:49Z</time></trkpt><trkpt lat="43.48892346039886" lon="11.666805839285692"><ele>262.0</ele><time>2026-04-04T08:45:50Z</time></trkpt><trkpt lat="43.48897496122957" lon="11.666754150872155"><ele>262.42857142857144</ele><time>2026-04-04T08:45:51Z</time></trkpt><trkpt lat="43.489026537668046" lon="11.66670092398293"><ele>262.8571428571429</ele><time>2026-04-04T08:45:52Z</time></trkpt><trkpt lat="43.48907886019065" lon="11.666650224994902"><ele>263.2857142857143</ele><time>2026-04-04T08:45:53Z</time></trkpt><trkpt lat="43.489131648953226" lon="11.666600146844564"><ele>263.7142857142857</ele><time>2026-04-04T08:45:54Z</time></trkpt><trkpt lat="43.48918473476497" lon="11.666549531073072"><ele>264.1428571428571</ele><time>2026-04-04T08:45:55Z</time></trkpt><trkpt lat="43.48923896451047" lon="11.666498632278776"><ele>264.57142857142856</ele><time>2026-04-04T08:45:56Z</time></trkpt><trkpt lat="43.489292400014605" lon="11.666448618271696"><ele>265.0</ele><time>2026-04-04T08:45:57Z</time></trkpt><trkpt lat="43.489345074916955" lon="11.666398191775926"><ele>264.99999999999994</ele><time>2026-04-04T08:45:58Z</time></trkpt><trkpt lat="43.4893983983446" lon="11.666347680806421"><ele>265.0</ele><time>2026-04-04T08:45:59Z</time></trkpt><trkpt lat="43.48945067876042" lon="11.666298518148"><ele>265.0</ele><time>2026-04-04T08:46:00Z</time></trkpt><trkpt lat="43.48950291576366" lon="11.666247008520502"><ele>265.0</ele><time>2026-04-04T08:46:01Z</time></trkpt><trkpt lat="43.489555608060165" lon="11.666196651269065"><ele>265.0</ele><time>2026-04-04T08:46:01.999Z</time></trkpt><trkpt lat="43.48960845826909" lon="11.666143316229782"><ele>264.99999999999994</ele><time>2026-04-04T08:46:02.999Z</time></trkpt><trkpt lat="43.48966184872697" lon="11.66609051018808"><ele>265.0</ele><time>2026-04-04T08:46:03.999Z</time></trkpt><trkpt lat="43.48971529103969" lon="11.6660391915695"><ele>265.2857142857143</ele><time>2026-04-04T08:46:04.999Z</time></trkpt><trkpt lat="43.48977076485595" lon="11.665989825736482"><ele>265.57142857142856</ele><time>2026-04-04T08:46:05.999Z</time></trkpt><trkpt lat="43.48982548055442" lon="11.66593853181856"><ele>265.8571428571429</ele><time>2026-04-04T08:46:06.999Z</time></trkpt><trkpt lat="43.48987894484245" lon="11.665887919196782"><ele>266.1428571428571</ele><time>2026-04-04T08:46:07.999Z</time></trkpt><trkpt lat="43.48993166176964" lon="11.665837964975369"><ele>266.42857142857144</ele><time>2026-04-04T08:46:08.999Z</time></trkpt><trkpt lat="43.48998431486764" lon="11.665785797359318"><ele>266.7142857142857</ele><time>2026-04-04T08:46:09.999Z</time></trkpt><trkpt lat="43.49003579714358" lon="11.665734615041371"><ele>267.0</ele><time>2026-04-04T08:46:10.999Z</time></trkpt><trkpt lat="43.49008849584211" lon="11.665680973156354"><ele>267.0</ele><time>2026-04-04T08:46:11.999Z</time></trkpt><trkpt lat="43.490141144401434" lon="11.665630207757324"><ele>267.0</ele><time>2026-04-04T08:46:12.999Z</time></trkpt><trkpt lat="43.49019360951261" lon="11.665580431303935"><ele>267.0</ele><time>2026-04-04T08:46:13.999Z</time></trkpt><trkpt lat="43.49029841197411" lon="11.665488505279757"><ele>267.0</ele><time>2026-04-04T08:46:15.999Z</time></trkpt><trkpt lat="43.49035131775994" lon="11.66543822198996"><ele>267.0</ele><time>2026-04-04T08:46:16.999Z</time></trkpt><trkpt lat="43.49045290452242" lon="11.665335813940834"><ele>267.0</ele><time>2026-04-04T08:46:18.999Z</time></trkpt><trkpt lat="43.49050756765891" lon="11.66528268854103"><ele>266.6666666666667</ele><time>2026-04-04T08:46:19.999Z</time></trkpt><trkpt lat="43.49060963448011" lon="11.665183279016926"><ele>266.3333333333333</ele><time>2026-04-04T08:46:21.999Z</time></trkpt><trkpt lat="43.490663131794655" lon="11.665130447192148"><ele>266.0</ele><time>2026-04-04T08:46:22.999Z</time></trkpt><trkpt lat="43.49071656381212" lon="11.665077223112515"><ele>265.66666666666663</ele><time>2026-04-04T08:46:23.999Z</time></trkpt><trkpt lat="43.4907717226944" lon="11.665028420313122"><ele>265.3333333333333</ele><time>2026-04-04T08:46:24.999Z</time></trkpt><trkpt lat="43.49082586240755" lon="11.664979988158285"><ele>265.0</ele><time>2026-04-04T08:46:25.999Z</time></trkpt><trkpt lat="43.49087857762287" lon="11.664927724896598"><ele>264.99999999999994</ele><time>2026-04-04T08:46:26.999Z</time></trkpt><trkpt lat="43.49093214080091" lon="11.664875570816058"><ele>265.0</ele><time>2026-04-04T08:46:27.999Z</time></trkpt><trkpt lat="43.49098583220551" lon="11.66482226858033"><ele>265.0</ele><time>2026-04-04T08:46:28.999Z</time></trkpt><trkpt lat="43.491039948551816" lon="11.664770567002911"><ele>265.0</ele><time>2026-04-04T08:46:29.999Z</time></trkpt><trkpt lat="43.491093431463696" lon="11.664718166966544"><ele>265.0</ele><time>2026-04-04T08:46:30.999Z</time></trkpt><trkpt lat="43.491148072307126" lon="11.664668423429251"><ele>264.99999999999994</ele><time>2026-04-04T08:46:31.999Z</time></trkpt><trkpt lat="43.4912008753501" lon="11.664614624396691"><ele>265.0</ele><time>2026-04-04T08:46:32.999Z</time></trkpt><trkpt lat="43.49125495549746" lon="11.664563042611308"><ele>264.85714285714283</ele><time>2026-04-04T08:46:33.999Z</time></trkpt><trkpt lat="43.49130964274716" lon="11.664512816203402"><ele>264.7142857142857</ele><time>2026-04-04T08:46:34.999Z</time></trkpt><trkpt lat="43.49136277223879" lon="11.66445987510401"><ele>264.57142857142856</ele><time>2026-04-04T08:46:35.999Z</time></trkpt><trkpt lat="43.49141503293041" lon="11.664403951481708"><ele>264.42857142857144</ele><time>2026-04-04T08:46:36.999Z</time></trkpt><trkpt lat="43.49147040130368" lon="11.66435440768697"><ele>264.2857142857143</ele><time>2026-04-04T08:46:37.999Z</time></trkpt><trkpt lat="43.49152568827528" lon="11.664301403055262"><ele>264.1428571428571</ele><time>2026-04-04T08:46:38.999Z</time></trkpt><trkpt lat="43.49157960319145" lon="11.664247958819155"><ele>264.0</ele><time>2026-04-04T08:46:39.999Z</time></trkpt><trkpt lat="43.49163008928417" lon="11.664184124509323"><ele>264.0</ele><time>2026-04-04T08:46:40.999Z</time></trkpt><trkpt lat="43.491685858387456" lon="11.664132698388622"><ele>264.0</ele><time>2026-04-04T08:46:41.999Z</time></trkpt><trkpt lat="43.491741757289205" lon="11.66408475309422"><ele>264.0</ele><time>2026-04-04T08:46:42.999Z</time></trkpt><trkpt lat="43.49179838941631" lon="11.664035752049804"><ele>264.0</ele><time>2026-04-04T08:46:43.999Z</time></trkpt><trkpt lat="43.49185338858012" lon="11.663983660591564"><ele>264.0</ele><time>2026-04-04T08:46:44.999Z</time></trkpt><trkpt lat="43.49190982812158" lon="11.663929676008612"><ele>264.0</ele><time>2026-04-04T08:46:45.999Z</time></trkpt><trkpt lat="43.49196483289215" lon="11.663874232797193"><ele>264.0</ele><time>2026-04-04T08:46:46.999Z</time></trkpt><trkpt lat="43.49202032764622" lon="11.66382054555067"><ele>264.0</ele><time>2026-04-04T08:46:47.999Z</time></trkpt><trkpt lat="43.49207684715953" lon="11.66376928486628"><ele>264.0</ele><time>2026-04-04T08:46:48.999Z</time></trkpt><trkpt lat="43.49213333706287" lon="11.663717506194246"><ele>264.0</ele><time>2026-04-04T08:46:49.999Z</time></trkpt><trkpt lat="43.49218874197468" lon="11.663665409340055"><ele>264.0</ele><time>2026-04-04T08:46:50.998Z</time></trkpt><trkpt lat="43.49224531700164" lon="11.663612481238717"><ele>264.0</ele><time>2026-04-04T08:46:51.998Z</time></trkpt><trkpt lat="43.49230178505543" lon="11.663558985840684"><ele>264.0</ele><time>2026-04-04T08:46:52.998Z</time></trkpt><trkpt lat="43.49235764603602" lon="11.66350579997754"><ele>264.0</ele><time>2026-04-04T08:46:53.998Z</time></trkpt><trkpt lat="43.49241289689629" lon="11.663452248413709"><ele>264.0</ele><time>2026-04-04T08:46:54.998Z</time></trkpt><trkpt lat="43.49247049220729" lon="11.663398325246831"><ele>264.0</ele><time>2026-04-04T08:46:55.998Z</time></trkpt><trkpt lat="43.4925275070674" lon="11.663343156747521"><ele>264.0</ele><time>2026-04-04T08:46:56.998Z</time></trkpt><trkpt lat="43.49258410646969" lon="11.663289226101428"><ele>264.0</ele><time>2026-04-04T08:46:57.998Z</time></trkpt><trkpt lat="43.49264059716273" lon="11.663234052662778"><ele>264.0</ele><time>2026-04-04T08:46:58.998Z</time></trkpt><trkpt lat="43.49269900461414" lon="11.663181960572937"><ele>264.0</ele><time>2026-04-04T08:46:59.998Z</time></trkpt><trkpt lat="43.492754769834356" lon="11.663127641457958"><ele>264.0</ele><time>2026-04-04T08:47:00.998Z</time></trkpt><trkpt lat="43.49281196504433" lon="11.663070114833305"><ele>264.0</ele><time>2026-04-04T08:47:01.998Z</time></trkpt><trkpt lat="43.492870543271195" lon="11.663017239662727"><ele>264.0</ele><time>2026-04-04T08:47:02.998Z</time></trkpt><trkpt lat="43.492926231317796" lon="11.66295868228646"><ele>264.0</ele><time>2026-04-04T08:47:03.998Z</time></trkpt><trkpt lat="43.49298387140244" lon="11.662903802800498"><ele>264.0</ele><time>2026-04-04T08:47:04.998Z</time></trkpt><trkpt lat="43.493041730865166" lon="11.66285082059313"><ele>264.0</ele><time>2026-04-04T08:47:05.998Z</time></trkpt><trkpt lat="43.49309877046438" lon="11.662794460920782"><ele>264.0</ele><time>2026-04-04T08:47:06.998Z</time></trkpt><trkpt lat="43.49315627276051" lon="11.662737942837511"><ele>264.0</ele><time>2026-04-04T08:47:07.998Z</time></trkpt><trkpt lat="43.493269504332325" lon="11.662622882514558"><ele>263.42857142857144</ele><time>2026-04-04T08:47:09.998Z</time></trkpt><trkpt lat="43.4933270386134" lon="11.662565790244088"><ele>262.8571428571429</ele><time>2026-04-04T08:47:10.998Z</time></trkpt><trkpt lat="43.493384365419566" lon="11.66251266794181"><ele>262.28571428571433</ele><time>2026-04-04T08:47:11.998Z</time></trkpt><trkpt lat="43.49344199142406" lon="11.662457439785545"><ele>261.7142857142857</ele><time>2026-04-04T08:47:12.998Z</time></trkpt><trkpt lat="43.493499440869364" lon="11.66240025191446"><ele>261.14285714285717</ele><time>2026-04-04T08:47:13.998Z</time></trkpt><trkpt lat="43.493557220289674" lon="11.662341165184944"><ele>260.5714285714286</ele><time>2026-04-04T08:47:14.998Z</time></trkpt><trkpt lat="43.493613325996606" lon="11.66227674379922"><ele>260.0</ele><time>2026-04-04T08:47:15.998Z</time></trkpt><trkpt lat="43.493667224408156" lon="11.662217571433263"><ele>260.00000000000006</ele><time>2026-04-04T08:47:16.998Z</time></trkpt><trkpt lat="43.49372404770511" lon="11.662164355377932"><ele>260.0</ele><time>2026-04-04T08:47:17.998Z</time></trkpt><trkpt lat="43.49378100400961" lon="11.662109095249237"><ele>260.0</ele><time>2026-04-04T08:47:18.998Z</time></trkpt><trkpt lat="43.49383624135978" lon="11.662054214225076"><ele>260.0</ele><time>2026-04-04T08:47:19.998Z</time></trkpt><trkpt lat="43.49389068931043" lon="11.662002103934748"><ele>260.0</ele><time>2026-04-04T08:47:20.998Z</time></trkpt><trkpt lat="43.49394471652051" lon="11.661946804068846"><ele>260.00000000000006</ele><time>2026-04-04T08:47:21.998Z</time></trkpt><trkpt lat="43.494001366010224" lon="11.661897346797737"><ele>260.0</ele><time>2026-04-04T08:47:22.998Z</time></trkpt><trkpt lat="43.49405526902123" lon="11.661842363227276"><ele>260.14285714285717</ele><time>2026-04-04T08:47:23.998Z</time></trkpt><trkpt lat="43.49410953208184" lon="11.661789575281876"><ele>260.2857142857143</ele><time>2026-04-04T08:47:24.998Z</time></trkpt><trkpt lat="43.49416314363106" lon="11.66173374102464"><ele>260.42857142857144</ele><time>2026-04-04T08:47:25.998Z</time></trkpt><trkpt lat="43.49421887739303" lon="11.661680124746347"><ele>260.57142857142856</ele><time>2026-04-04T08:47:26.998Z</time></trkpt><trkpt lat="43.49427264203192" lon="11.66162472846815"><ele>260.7142857142857</ele><time>2026-04-04T08:47:27.998Z</time></trkpt><trkpt lat="43.49432675232805" lon="11.66156643686953"><ele>260.8571428571429</ele><time>2026-04-04T08:47:28.998Z</time></trkpt><trkpt lat="43.49438087959799" lon="11.661509836066697"><ele>261.0</ele><time>2026-04-04T08:47:29.998Z</time></trkpt><trkpt lat="43.49443417002833" lon="11.661453795948114"><ele>261.0</ele><time>2026-04-04T08:47:30.998Z</time></trkpt><trkpt lat="43.49448625081143" lon="11.661392881559438"><ele>261.0</ele><time>2026-04-04T08:47:31.998Z</time></trkpt><trkpt lat="43.4945389180998" lon="11.661330981763808"><ele>261.0</ele><time>2026-04-04T08:47:32.998Z</time></trkpt><trkpt lat="43.49459201403261" lon="11.661266531552501"><ele>261.0</ele><time>2026-04-04T08:47:34Z</time></trkpt><trkpt lat="43.494644678114426" lon="11.6612029157389"><ele>261.0</ele><time>2026-04-04T08:47:35Z</time></trkpt><trkpt lat="43.494696095285335" lon="11.661140076205195"><ele>261.0</ele><time>2026-04-04T08:47:36Z</time></trkpt><trkpt lat="43.49474616789423" lon="11.661073916922643"><ele>261.0</ele><time>2026-04-04T08:47:37Z</time></trkpt><trkpt lat="43.494795377574135" lon="11.661005667460385"><ele>261.0</ele><time>2026-04-04T08:47:38Z</time></trkpt><trkpt lat="43.49484489946431" lon="11.660937710756608"><ele>261.0</ele><time>2026-04-04T08:47:39Z</time></trkpt><trkpt lat="43.49489310704981" lon="11.660869254901522"><ele>261.0</ele><time>2026-04-04T08:47:40Z</time></trkpt><trkpt lat="43.49494268835979" lon="11.66080089343693"><ele>261.0</ele><time>2026-04-04T08:47:41Z</time></trkpt><trkpt lat="43.49498920357151" lon="11.660730569700416"><ele>261.0</ele><time>2026-04-04T08:47:42Z</time></trkpt><trkpt lat="43.49503575545473" lon="11.660658485740983"><ele>261.0</ele><time>2026-04-04T08:47:43Z</time></trkpt><trkpt lat="43.4950808329147" lon="11.660584885804537"><ele>261.0</ele><time>2026-04-04T08:47:44Z</time></trkpt><trkpt lat="43.495125776440986" lon="11.660510864054872"><ele>261.0</ele><time>2026-04-04T08:47:45Z</time></trkpt><trkpt lat="43.495170397701806" lon="11.660436099931879"><ele>261.0</ele><time>2026-04-04T08:47:46Z</time></trkpt><trkpt lat="43.49521796489588" lon="11.66035979800601"><ele>261.0</ele><time>2026-04-04T08:47:47Z</time></trkpt><trkpt lat="43.4952615003307" lon="11.660282604839324"><ele>261.0</ele><time>2026-04-04T08:47:48Z</time></trkpt><trkpt lat="43.495307934411954" lon="11.660204307354697"><ele>261.0</ele><time>2026-04-04T08:47:49Z</time></trkpt><trkpt lat="43.495350044000276" lon="11.66012839571442"><ele>261.0</ele><time>2026-04-04T08:47:50Z</time></trkpt><trkpt lat="43.495391215001575" lon="11.660047186550644"><ele>261.0</ele><time>2026-04-04T08:47:51Z</time></trkpt><trkpt lat="43.495433213162755" lon="11.659966324786387"><ele>260.0</ele><time>2026-04-04T08:47:52Z</time></trkpt><trkpt lat="43.495473362272286" lon="11.65988612662328"><ele>259.0</ele><time>2026-04-04T08:47:53Z</time></trkpt><trkpt lat="43.495512349345034" lon="11.659804768223262"><ele>258.0</ele><time>2026-04-04T08:47:54Z</time></trkpt><trkpt lat="43.49555116954393" lon="11.659722058300117"><ele>257.0</ele><time>2026-04-04T08:47:55Z</time></trkpt><trkpt lat="43.49558903549276" lon="11.659638465915322"><ele>256.0</ele><time>2026-04-04T08:47:56Z</time></trkpt><trkpt lat="43.49562851580118" lon="11.659558442566803"><ele>255.0</ele><time>2026-04-04T08:47:57Z</time></trkpt><trkpt lat="43.49566763242284" lon="11.659478201348504"><ele>254.0</ele><time>2026-04-04T08:47:58Z</time></trkpt><trkpt lat="43.495705208279155" lon="11.659394780698598"><ele>254.0</ele><time>2026-04-04T08:47:59Z</time></trkpt><trkpt lat="43.49573735247571" lon="11.65930873052181"><ele>254.0</ele><time>2026-04-04T08:48:00Z</time></trkpt><trkpt lat="43.49576802248938" lon="11.659220007958105"><ele>254.0</ele><time>2026-04-04T08:48:01Z</time></trkpt><trkpt lat="43.49579849964963" lon="11.659127783728604"><ele>254.0</ele><time>2026-04-04T08:48:02Z</time></trkpt><trkpt lat="43.49584365358164" lon="11.659044253085428"><ele>254.0</ele><time>2026-04-04T08:48:03Z</time></trkpt><trkpt lat="43.4959084115874" lon="11.658989683642512"><ele>254.0</ele><time>2026-04-04T08:48:04Z</time></trkpt><trkpt lat="43.49596482009098" lon="11.658926802173529"><ele>254.0</ele><time>2026-04-04T08:48:05Z</time></trkpt><trkpt lat="43.49600279535208" lon="11.658842002137655"><ele>254.00000000000003</ele><time>2026-04-04T08:48:06Z</time></trkpt><trkpt lat="43.496019394850265" lon="11.65873628225102"><ele>254.0</ele><time>2026-04-04T08:48:07Z</time></trkpt><trkpt lat="43.4960264530643" lon="11.658634403900344"><ele>254.0</ele><time>2026-04-04T08:48:08Z</time></trkpt><trkpt lat="43.49598028226031" lon="11.658564682148299"><ele>254.0</ele><time>2026-04-04T08:48:09Z</time></trkpt><trkpt lat="43.49606448432494" lon="11.658437124896668"><ele>254.00000000000003</ele><time>2026-04-04T08:48:10Z</time></trkpt><trkpt lat="43.49610126626693" lon="11.658344212515036"><ele>254.0</ele><time>2026-04-04T08:48:11Z</time></trkpt><trkpt lat="43.496141246177295" lon="11.65825424280934"><ele>254.33333333333334</ele><time>2026-04-04T08:48:12Z</time></trkpt><trkpt lat="43.496177066224234" lon="11.658158000314838"><ele>254.66666666666669</ele><time>2026-04-04T08:48:13Z</time></trkpt><trkpt lat="43.49621557375462" lon="11.658061310699177"><ele>255.0</ele><time>2026-04-04T08:48:14Z</time></trkpt><trkpt lat="43.49625264352126" lon="11.657961592867201"><ele>255.33333333333331</ele><time>2026-04-04T08:48:14.999Z</time></trkpt><trkpt lat="43.4962896088112" lon="11.657861783829267"><ele>255.66666666666666</ele><time>2026-04-04T08:48:15.999Z</time></trkpt><trkpt lat="43.49632935970862" lon="11.657762078063726"><ele>256.0</ele><time>2026-04-04T08:48:16.999Z</time></trkpt><trkpt lat="43.496366072307374" lon="11.657659768865306"><ele>254.66666666666666</ele><time>2026-04-04T08:48:17.999Z</time></trkpt><trkpt lat="43.49640524013995" lon="11.65755434990636"><ele>253.33333333333331</ele><time>2026-04-04T08:48:18.999Z</time></trkpt><trkpt lat="43.496442294189436" lon="11.657450804793458"><ele>252.0</ele><time>2026-04-04T08:48:19.999Z</time></trkpt><trkpt lat="43.49648203236613" lon="11.65734808711741"><ele>250.66666666666669</ele><time>2026-04-04T08:48:20.999Z</time></trkpt><trkpt lat="43.496522935003085" lon="11.657247820948637"><ele>249.33333333333334</ele><time>2026-04-04T08:48:21.999Z</time></trkpt><trkpt lat="43.49656136828465" lon="11.657146273544562"><ele>248.0</ele><time>2026-04-04T08:48:22.999Z</time></trkpt><trkpt lat="43.49659873929398" lon="11.657042956138561"><ele>248.33333333333334</ele><time>2026-04-04T08:48:23.999Z</time></trkpt><trkpt lat="43.496637466166725" lon="11.65694072685774"><ele>248.66666666666669</ele><time>2026-04-04T08:48:24.999Z</time></trkpt><trkpt lat="43.496674249098916" lon="11.65683925953531"><ele>249.0</ele><time>2026-04-04T08:48:25.999Z</time></trkpt><trkpt lat="43.49671298034492" lon="11.656738728900645"><ele>249.33333333333331</ele><time>2026-04-04T08:48:26.999Z</time></trkpt><trkpt lat="43.49675129790217" lon="11.656634664149035"><ele>249.66666666666666</ele><time>2026-04-04T08:48:27.999Z</time></trkpt><trkpt lat="43.49679143515021" lon="11.656534327999493"><ele>250.0</ele><time>2026-04-04T08:48:28.999Z</time></trkpt><trkpt lat="43.49682919598739" lon="11.656432920478347"><ele>249.99999999999997</ele><time>2026-04-04T08:48:29.999Z</time></trkpt><trkpt lat="43.49686488791697" lon="11.656330990196404"><ele>250.0</ele><time>2026-04-04T08:48:30.999Z</time></trkpt><trkpt lat="43.49690277662174" lon="11.656230091969338"><ele>250.0</ele><time>2026-04-04T08:48:31.999Z</time></trkpt><trkpt lat="43.49694105918097" lon="11.656131905771064"><ele>250.0</ele><time>2026-04-04T08:48:32.999Z</time></trkpt><trkpt lat="43.49697812720945" lon="11.656033438130653"><ele>249.99999999999997</ele><time>2026-04-04T08:48:33.999Z</time></trkpt><trkpt lat="43.497017780757794" lon="11.65593495888731"><ele>250.0</ele><time>2026-04-04T08:48:34.999Z</time></trkpt><trkpt lat="43.49705578962289" lon="11.655837933568275"><ele>249.49999999999997</ele><time>2026-04-04T08:48:35.999Z</time></trkpt><trkpt lat="43.49709242749956" lon="11.655738802567797"><ele>249.0</ele><time>2026-04-04T08:48:36.999Z</time></trkpt><trkpt lat="43.497129693348306" lon="11.65564197323457"><ele>248.5</ele><time>2026-04-04T08:48:37.999Z</time></trkpt><trkpt lat="43.49716644401694" lon="11.655545376346554"><ele>248.0</ele><time>2026-04-04T08:48:38.999Z</time></trkpt><trkpt lat="43.49720247790319" lon="11.655448556388151"><ele>247.49999999999997</ele><time>2026-04-04T08:48:39.999Z</time></trkpt><trkpt lat="43.497238828710245" lon="11.65535336166223"><ele>247.0</ele><time>2026-04-04T08:48:40.999Z</time></trkpt><trkpt lat="43.497275614490405" lon="11.655257168029998"><ele>246.99999999999997</ele><time>2026-04-04T08:48:41.999Z</time></trkpt><trkpt lat="43.49731334356923" lon="11.655163393062155"><ele>247.0</ele><time>2026-04-04T08:48:42.999Z</time></trkpt><trkpt lat="43.49734873589579" lon="11.655068364217549"><ele>247.0</ele><time>2026-04-04T08:48:43.999Z</time></trkpt><trkpt lat="43.497386569513075" lon="11.654975690304765"><ele>247.0</ele><time>2026-04-04T08:48:44.999Z</time></trkpt><trkpt lat="43.49742393745897" lon="11.654882770473677"><ele>246.99999999999997</ele><time>2026-04-04T08:48:45.999Z</time></trkpt><trkpt lat="43.49746408649688" lon="11.65479074017976"><ele>247.0</ele><time>2026-04-04T08:48:46.999Z</time></trkpt><trkpt lat="43.49749969892839" lon="11.654696962600717"><ele>246.99999999999997</ele><time>2026-04-04T08:48:47.999Z</time></trkpt><trkpt lat="43.49753663291716" lon="11.654601372535923"><ele>247.0</ele><time>2026-04-04T08:48:48.999Z</time></trkpt><trkpt lat="43.49757367962579" lon="11.65450873987418"><ele>247.0</ele><time>2026-04-04T08:48:49.999Z</time></trkpt><trkpt lat="43.49760899726204" lon="11.654416938374082"><ele>247.0</ele><time>2026-04-04T08:48:50.999Z</time></trkpt><trkpt lat="43.49764374481522" lon="11.65432220959821"><ele>246.99999999999997</ele><time>2026-04-04T08:48:51.999Z</time></trkpt><trkpt lat="43.49767845808787" lon="11.654228167231086"><ele>247.0</ele><time>2026-04-04T08:48:52.999Z</time></trkpt><trkpt lat="43.49771456600242" lon="11.654133050419789"><ele>246.66666666666666</ele><time>2026-04-04T08:48:53.999Z</time></trkpt><trkpt lat="43.49775013156569" lon="11.654039599404658"><ele>246.33333333333331</ele><time>2026-04-04T08:48:54.999Z</time></trkpt><trkpt lat="43.497788033571226" lon="11.653947345751401"><ele>246.0</ele><time>2026-04-04T08:48:55.999Z</time></trkpt><trkpt lat="43.497822914292406" lon="11.653852763645647"><ele>245.66666666666669</ele><time>2026-04-04T08:48:56.999Z</time></trkpt><trkpt lat="43.49786009511617" lon="11.65376027004348"><ele>245.33333333333334</ele><time>2026-04-04T08:48:57.999Z</time></trkpt><trkpt lat="43.49789555835043" lon="11.65366671171144"><ele>245.0</ele><time>2026-04-04T08:48:58.999Z</time></trkpt><trkpt lat="43.49792974812132" lon="11.653572056485565"><ele>243.66666666666669</ele><time>2026-04-04T08:48:59.999Z</time></trkpt><trkpt lat="43.49796456036707" lon="11.653479578664141"><ele>242.33333333333334</ele><time>2026-04-04T08:49:00.999Z</time></trkpt><trkpt lat="43.49800058736075" lon="11.65338543936617"><ele>241.0</ele><time>2026-04-04T08:49:01.999Z</time></trkpt><trkpt lat="43.49803624160001" lon="11.653293728317974"><ele>239.66666666666669</ele><time>2026-04-04T08:49:02.999Z</time></trkpt><trkpt lat="43.49807217128531" lon="11.653201555908193"><ele>238.33333333333334</ele><time>2026-04-04T08:49:03.998Z</time></trkpt><trkpt lat="43.49810565412821" lon="11.65310763306812"><ele>237.0</ele><time>2026-04-04T08:49:04.998Z</time></trkpt><trkpt lat="43.49814024413876" lon="11.653013689059941"><ele>236.99999999999997</ele><time>2026-04-04T08:49:05.998Z</time></trkpt><trkpt lat="43.498173850901395" lon="11.65292096535542"><ele>237.0</ele><time>2026-04-04T08:49:06.998Z</time></trkpt><trkpt lat="43.498204089261286" lon="11.652827230443801"><ele>236.99999999999997</ele><time>2026-04-04T08:49:07.998Z</time></trkpt><trkpt lat="43.49823824145026" lon="11.652735474771879"><ele>236.99999999999997</ele><time>2026-04-04T08:49:08.998Z</time></trkpt><trkpt lat="43.498274607879196" lon="11.652646039665541"><ele>237.0</ele><time>2026-04-04T08:49:09.998Z</time></trkpt><trkpt lat="43.49830895864318" lon="11.65255347011274"><ele>236.99999999999997</ele><time>2026-04-04T08:49:10.998Z</time></trkpt><trkpt lat="43.49833775714584" lon="11.652461574654952"><ele>236.99999999999997</ele><time>2026-04-04T08:49:11.998Z</time></trkpt><trkpt lat="43.49836512787668" lon="11.652368281026709"><ele>237.28571428571425</ele><time>2026-04-04T08:49:12.998Z</time></trkpt><trkpt lat="43.49838914996466" lon="11.652271635786994"><ele>237.57142857142856</ele><time>2026-04-04T08:49:13.998Z</time></trkpt><trkpt lat="43.498413025808375" lon="11.652177498105424"><ele>237.85714285714286</ele><time>2026-04-04T08:49:14.998Z</time></trkpt><trkpt lat="43.498431622407615" lon="11.652081309223885"><ele>238.14285714285714</ele><time>2026-04-04T08:49:15.998Z</time></trkpt><trkpt lat="43.49844899965043" lon="11.651985799681972"><ele>238.42857142857144</ele><time>2026-04-04T08:49:16.998Z</time></trkpt><trkpt lat="43.498463470896986" lon="11.651884767973863"><ele>238.71428571428575</ele><time>2026-04-04T08:49:17.998Z</time></trkpt><trkpt lat="43.498476479569206" lon="11.651782200845277"><ele>239.00000000000003</ele><time>2026-04-04T08:49:18.998Z</time></trkpt><trkpt lat="43.49848782576991" lon="11.651678744531212"><ele>239.16666666666669</ele><time>2026-04-04T08:49:19.998Z</time></trkpt><trkpt lat="43.49849815209327" lon="11.651574881587386"><ele>239.33333333333334</ele><time>2026-04-04T08:49:20.998Z</time></trkpt><trkpt lat="43.498507129206494" lon="11.65146811243382"><ele>239.5</ele><time>2026-04-04T08:49:21.998Z</time></trkpt><trkpt lat="43.49851083174919" lon="11.651364832033005"><ele>239.66666666666669</ele><time>2026-04-04T08:49:22.998Z</time></trkpt><trkpt lat="43.4985105048539" lon="11.651260066999882"><ele>239.83333333333334</ele><time>2026-04-04T08:49:23.998Z</time></trkpt><trkpt lat="43.49850636093784" lon="11.65115561606698"><ele>240.0</ele><time>2026-04-04T08:49:24.998Z</time></trkpt><trkpt lat="43.498502074093416" lon="11.651050364809374"><ele>239.42857142857144</ele><time>2026-04-04T08:49:25.998Z</time></trkpt><trkpt lat="43.49849752797731" lon="11.650947141067988"><ele>238.85714285714283</ele><time>2026-04-04T08:49:26.998Z</time></trkpt><trkpt lat="43.49849589108088" lon="11.650843165189851"><ele>238.28571428571428</ele><time>2026-04-04T08:49:27.998Z</time></trkpt><trkpt lat="43.49849481034939" lon="11.650739173055264"><ele>237.71428571428572</ele><time>2026-04-04T08:49:28.998Z</time></trkpt><trkpt lat="43.49849201427975" lon="11.650637229456569"><ele>237.14285714285717</ele><time>2026-04-04T08:49:29.998Z</time></trkpt><trkpt lat="43.49848770288418" lon="11.650533900997546"><ele>236.57142857142856</ele><time>2026-04-04T08:49:30.998Z</time></trkpt><trkpt lat="43.49848579621153" lon="11.65043569620914"><ele>236.0</ele><time>2026-04-04T08:49:31.998Z</time></trkpt><trkpt lat="43.498484207229836" lon="11.650336089200021"><ele>235.85714285714283</ele><time>2026-04-04T08:49:32.998Z</time></trkpt><trkpt lat="43.49848255147863" lon="11.650240414509598"><ele>235.71428571428572</ele><time>2026-04-04T08:49:33.998Z</time></trkpt><trkpt lat="43.49847860700323" lon="11.650143094283933"><ele>235.57142857142856</ele><time>2026-04-04T08:49:34.998Z</time></trkpt><trkpt lat="43.49847723112209" lon="11.650048647119473"><ele>235.42857142857142</ele><time>2026-04-04T08:49:35.998Z</time></trkpt><trkpt lat="43.49847581707609" lon="11.649953037700802"><ele>235.28571428571428</ele><time>2026-04-04T08:49:36.998Z</time></trkpt><trkpt lat="43.49847367882665" lon="11.649858780501376"><ele>235.14285714285714</ele><time>2026-04-04T08:49:37.998Z</time></trkpt><trkpt lat="43.49847074840398" lon="11.649766548890558"><ele>235.0</ele><time>2026-04-04T08:49:38.998Z</time></trkpt><trkpt lat="43.49846759519371" lon="11.649673629787959"><ele>234.99999999999997</ele><time>2026-04-04T08:49:40Z</time></trkpt><trkpt lat="43.49846258925052" lon="11.649584458675282"><ele>235.0</ele><time>2026-04-04T08:49:41Z</time></trkpt><trkpt lat="43.49846219645477" lon="11.649493237408764"><ele>235.0</ele><time>2026-04-04T08:49:42Z</time></trkpt><trkpt lat="43.49846246510922" lon="11.649404296079775"><ele>235.0</ele><time>2026-04-04T08:49:43Z</time></trkpt><trkpt lat="43.49846098660581" lon="11.649316353759886"><ele>234.99999999999997</ele><time>2026-04-04T08:49:44Z</time></trkpt><trkpt lat="43.49845813462171" lon="11.649144788175787"><ele>235.0</ele><time>2026-04-04T08:49:46Z</time></trkpt><trkpt lat="43.498453152590564" lon="11.648982534705851"><ele>234.8</ele><time>2026-04-04T08:49:48Z</time></trkpt><trkpt lat="43.498452198120724" lon="11.648823264558581"><ele>234.6</ele><time>2026-04-04T08:49:50Z</time></trkpt><trkpt lat="43.49844891141941" lon="11.648667952226667"><ele>234.39999999999998</ele><time>2026-04-04T08:49:52Z</time></trkpt><trkpt lat="43.49844646544354" lon="11.648518523577582"><ele>234.2</ele><time>2026-04-04T08:49:54Z</time></trkpt><trkpt lat="43.49844485735109" lon="11.648368496224395"><ele>234.0</ele><time>2026-04-04T08:49:56Z</time></trkpt><trkpt lat="43.49844020281269" lon="11.648220823577425"><ele>234.39999999999998</ele><time>2026-04-04T08:49:58Z</time></trkpt><trkpt lat="43.49843642069337" lon="11.648074540031764"><ele>234.79999999999998</ele><time>2026-04-04T08:50:00Z</time></trkpt><trkpt lat="43.49843373373954" lon="11.647932412164895"><ele>235.20000000000002</ele><time>2026-04-04T08:50:02Z</time></trkpt><trkpt lat="43.498428738037916" lon="11.647790837642434"><ele>235.60000000000002</ele><time>2026-04-04T08:50:04Z</time></trkpt><trkpt lat="43.498421183726336" lon="11.647648099634363"><ele>236.0</ele><time>2026-04-04T08:50:06Z</time></trkpt><trkpt lat="43.49840708971911" lon="11.647506397009003"><ele>237.0</ele><time>2026-04-04T08:50:08Z</time></trkpt><trkpt lat="43.49838297163447" lon="11.647369790322951"><ele>238.00000000000003</ele><time>2026-04-04T08:50:10Z</time></trkpt><trkpt lat="43.498355839099034" lon="11.64723021303507"><ele>239.00000000000003</ele><time>2026-04-04T08:50:12Z</time></trkpt><trkpt lat="43.49831924899384" lon="11.647097901047921"><ele>240.0</ele><time>2026-04-04T08:50:14Z</time></trkpt><trkpt lat="43.49828133489472" lon="11.646960361853031"><ele>241.0</ele><time>2026-04-04T08:50:16Z</time></trkpt><trkpt lat="43.49823598916116" lon="11.64682789927021"><ele>241.20000000000002</ele><time>2026-04-04T08:50:18Z</time></trkpt><trkpt lat="43.498185538804115" lon="11.646695187622795"><ele>241.40000000000003</ele><time>2026-04-04T08:50:19.999Z</time></trkpt><trkpt lat="43.49813923388129" lon="11.646557916640413"><ele>241.6</ele><time>2026-04-04T08:50:21.999Z</time></trkpt><trkpt lat="43.49809907602322" lon="11.646421918448647"><ele>241.8</ele><time>2026-04-04T08:50:23.999Z</time></trkpt><trkpt lat="43.498054357431215" lon="11.646288793474193"><ele>242.0</ele><time>2026-04-04T08:50:25.999Z</time></trkpt><trkpt lat="43.498009819961695" lon="11.64615358379475"><ele>241.6</ele><time>2026-04-04T08:50:27.999Z</time></trkpt><trkpt lat="43.49796276344579" lon="11.646016277509572"><ele>241.2</ele><time>2026-04-04T08:50:29.999Z</time></trkpt><trkpt lat="43.497919529046975" lon="11.64588075426252"><ele>240.8</ele><time>2026-04-04T08:50:31.999Z</time></trkpt><trkpt lat="43.49787526874729" lon="11.645746599743186"><ele>240.4</ele><time>2026-04-04T08:50:33.999Z</time></trkpt><trkpt lat="43.49783091053684" lon="11.645613463397098"><ele>240.0</ele><time>2026-04-04T08:50:35.999Z</time></trkpt><trkpt lat="43.49778487918631" lon="11.645482796955202"><ele>240.0</ele><time>2026-04-04T08:50:37.999Z</time></trkpt><trkpt lat="43.49774112603526" lon="11.645350096853115"><ele>240.0</ele><time>2026-04-04T08:50:39.999Z</time></trkpt><trkpt lat="43.49769945417086" lon="11.645220310592407"><ele>240.0</ele><time>2026-04-04T08:50:41.999Z</time></trkpt><trkpt lat="43.497658513079784" lon="11.645093335978766"><ele>240.0</ele><time>2026-04-04T08:50:43.999Z</time></trkpt><trkpt lat="43.49761786875844" lon="11.644966111504916"><ele>240.0</ele><time>2026-04-04T08:50:45.999Z</time></trkpt><trkpt lat="43.49757656783309" lon="11.64484022484265"><ele>240.8</ele><time>2026-04-04T08:50:47.999Z</time></trkpt><trkpt lat="43.4975377080627" lon="11.644715344318142"><ele>241.6</ele><time>2026-04-04T08:50:49.999Z</time></trkpt><trkpt lat="43.49749709928403" lon="11.644591940220186"><ele>242.39999999999998</ele><time>2026-04-04T08:50:51.999Z</time></trkpt><trkpt lat="43.49745775976307" lon="11.64446592928329"><ele>243.2</ele><time>2026-04-04T08:50:53.999Z</time></trkpt><trkpt lat="43.49741708211164" lon="11.644345488968941"><ele>244.0</ele><time>2026-04-04T08:50:55.999Z</time></trkpt><trkpt lat="43.49737704205431" lon="11.644223707974646"><ele>244.6</ele><time>2026-04-04T08:50:57.999Z</time></trkpt><trkpt lat="43.49733951293263" lon="11.644106525319282"><ele>245.2</ele><time>2026-04-04T08:50:59.999Z</time></trkpt><trkpt lat="43.497301366346946" lon="11.643988008053256"><ele>245.79999999999998</ele><time>2026-04-04T08:51:01.999Z</time></trkpt><trkpt lat="43.497265094539685" lon="11.643871567636737"><ele>246.39999999999998</ele><time>2026-04-04T08:51:03.999Z</time></trkpt><trkpt lat="43.49722884220493" lon="11.64375643021262"><ele>247.0</ele><time>2026-04-04T08:51:05.999Z</time></trkpt><trkpt lat="43.497191939216776" lon="11.643643503099463"><ele>247.16666666666666</ele><time>2026-04-04T08:51:07.998Z</time></trkpt><trkpt lat="43.49715422340622" lon="11.643533070653813"><ele>247.33333333333331</ele><time>2026-04-04T08:51:09.998Z</time></trkpt><trkpt lat="43.49711505028678" lon="11.643421597958525"><ele>247.5</ele><time>2026-04-04T08:51:11.998Z</time></trkpt><trkpt lat="43.49707912962045" lon="11.6433095280227"><ele>247.66666666666669</ele><time>2026-04-04T08:51:13.998Z</time></trkpt><trkpt lat="43.497042802851155" lon="11.643196551664806"><ele>247.83333333333334</ele><time>2026-04-04T08:51:15.998Z</time></trkpt><trkpt lat="43.497004212946806" lon="11.643086783208375"><ele>248.0</ele><time>2026-04-04T08:51:17.998Z</time></trkpt><trkpt lat="43.4969678154801" lon="11.642974000187294"><ele>248.0</ele><time>2026-04-04T08:51:19.998Z</time></trkpt><trkpt lat="43.496924531582444" lon="11.642860850255092"><ele>248.0</ele><time>2026-04-04T08:51:21.998Z</time></trkpt><trkpt lat="43.49687903644669" lon="11.642746118339726"><ele>248.0</ele><time>2026-04-04T08:51:23.998Z</time></trkpt><trkpt lat="43.49683333572429" lon="11.64263086211293"><ele>248.0</ele><time>2026-04-04T08:51:25.998Z</time></trkpt><trkpt lat="43.496785493998686" lon="11.642512222316299"><ele>248.0</ele><time>2026-04-04T08:51:27.998Z</time></trkpt><trkpt lat="43.49673655915974" lon="11.642396137341692"><ele>248.60000000000002</ele><time>2026-04-04T08:51:29.998Z</time></trkpt><trkpt lat="43.49668901005359" lon="11.642273216532283"><ele>249.20000000000002</ele><time>2026-04-04T08:51:31.998Z</time></trkpt><trkpt lat="43.49664099603917" lon="11.642157161906997"><ele>249.8</ele><time>2026-04-04T08:51:33.998Z</time></trkpt><trkpt lat="43.4965947959262" lon="11.642035319637738"><ele>250.4</ele><time>2026-04-04T08:51:35.998Z</time></trkpt><trkpt lat="43.496544519789374" lon="11.641913118224846"><ele>251.0</ele><time>2026-04-04T08:51:37.998Z</time></trkpt><trkpt lat="43.496496680459934" lon="11.641792282324044"><ele>251.0</ele><time>2026-04-04T08:51:39.998Z</time></trkpt><trkpt lat="43.496448647038974" lon="11.641671568191626"><ele>251.00000000000003</ele><time>2026-04-04T08:51:41.998Z</time></trkpt><trkpt lat="43.49639686247578" lon="11.641550698309189"><ele>251.00000000000003</ele><time>2026-04-04T08:51:43.998Z</time></trkpt><trkpt lat="43.496347923296476" lon="11.641421998666845"><ele>251.0</ele><time>2026-04-04T08:51:46Z</time></trkpt><trkpt lat="43.49629871503174" lon="11.641302543276545"><ele>251.0</ele><time>2026-04-04T08:51:48Z</time></trkpt><trkpt lat="43.4962471762423" lon="11.641175049841722"><ele>251.25</ele><time>2026-04-04T08:51:50Z</time></trkpt><trkpt lat="43.49619323699503" lon="11.641044924114484"><ele>251.5</ele><time>2026-04-04T08:51:52Z</time></trkpt><trkpt lat="43.496142332199426" lon="11.640905869699473"><ele>251.75</ele><time>2026-04-04T08:51:54Z</time></trkpt><trkpt lat="43.49609747043023" lon="11.640757318297949"><ele>252.0</ele><time>2026-04-04T08:51:56Z</time></trkpt><trkpt lat="43.49605318141354" lon="11.640601284719928"><ele>252.0</ele><time>2026-04-04T08:51:58Z</time></trkpt><trkpt lat="43.496012776468916" lon="11.64044555406224"><ele>252.0</ele><time>2026-04-04T08:52:00Z</time></trkpt><trkpt lat="43.49597905318064" lon="11.640281483431023"><ele>252.0</ele><time>2026-04-04T08:52:02Z</time></trkpt><trkpt lat="43.49595016450627" lon="11.640111999674888"><ele>252.0</ele><time>2026-04-04T08:52:04Z</time></trkpt><trkpt lat="43.495937757448516" lon="11.640023666540706"><ele>252.0</ele><time>2026-04-04T08:52:05Z</time></trkpt><trkpt lat="43.49592823798003" lon="11.639935743423367"><ele>251.85714285714286</ele><time>2026-04-04T08:52:06Z</time></trkpt><trkpt lat="43.49591789618108" lon="11.639846221562143"><ele>251.71428571428572</ele><time>2026-04-04T08:52:07Z</time></trkpt><trkpt lat="43.49590993951023" lon="11.639755247597558"><ele>251.57142857142856</ele><time>2026-04-04T08:52:08Z</time></trkpt><trkpt lat="43.495901605740656" lon="11.639663703942716"><ele>251.42857142857142</ele><time>2026-04-04T08:52:09Z</time></trkpt><trkpt lat="43.49589606472833" lon="11.639571996581754"><ele>251.28571428571428</ele><time>2026-04-04T08:52:10Z</time></trkpt><trkpt lat="43.49589029792439" lon="11.6394810672872"><ele>251.1428571428571</ele><time>2026-04-04T08:52:11Z</time></trkpt><trkpt lat="43.4958831302707" lon="11.639387651969173"><ele>250.99999999999997</ele><time>2026-04-04T08:52:12Z</time></trkpt><trkpt lat="43.49587719920536" lon="11.639298011327767"><ele>250.85714285714283</ele><time>2026-04-04T08:52:13Z</time></trkpt><trkpt lat="43.495873183736684" lon="11.63920496386054"><ele>250.71428571428572</ele><time>2026-04-04T08:52:14Z</time></trkpt><trkpt lat="43.49586719210072" lon="11.639115119811981"><ele>250.57142857142856</ele><time>2026-04-04T08:52:15Z</time></trkpt><trkpt lat="43.4958605932015" lon="11.639023449786409"><ele>250.42857142857142</ele><time>2026-04-04T08:52:16Z</time></trkpt><trkpt lat="43.495854816598" lon="11.638929868236072"><ele>250.28571428571428</ele><time>2026-04-04T08:52:17Z</time></trkpt><trkpt lat="43.49584941652743" lon="11.638839102269193"><ele>250.14285714285714</ele><time>2026-04-04T08:52:18Z</time></trkpt><trkpt lat="43.4958461064761" lon="11.638750105547143"><ele>250.0</ele><time>2026-04-04T08:52:19Z</time></trkpt><trkpt lat="43.49583559117391" lon="11.638658510620774"><ele>250.0</ele><time>2026-04-04T08:52:20Z</time></trkpt><trkpt lat="43.495824886710274" lon="11.638569737654464"><ele>250.0</ele><time>2026-04-04T08:52:21Z</time></trkpt><trkpt lat="43.495813231891354" lon="11.638479214441345"><ele>250.0</ele><time>2026-04-04T08:52:21.999Z</time></trkpt><trkpt lat="43.49580127206741" lon="11.638389227178921"><ele>250.0</ele><time>2026-04-04T08:52:22.999Z</time></trkpt><trkpt lat="43.4957854451844" lon="11.638299968633568"><ele>250.0</ele><time>2026-04-04T08:52:23.999Z</time></trkpt><trkpt lat="43.49576837462176" lon="11.638208533823923"><ele>250.0</ele><time>2026-04-04T08:52:24.999Z</time></trkpt><trkpt lat="43.49575006331098" lon="11.63811817687559"><ele>250.0</ele><time>2026-04-04T08:52:25.999Z</time></trkpt><trkpt lat="43.495728027742196" lon="11.638029398054076"><ele>250.0</ele><time>2026-04-04T08:52:26.999Z</time></trkpt><trkpt lat="43.49570354428597" lon="11.637939268110875"><ele>250.0</ele><time>2026-04-04T08:52:27.999Z</time></trkpt><trkpt lat="43.495676207892586" lon="11.63784932067701"><ele>250.0</ele><time>2026-04-04T08:52:28.999Z</time></trkpt><trkpt lat="43.495648700119254" lon="11.637760388543159"><ele>250.0</ele><time>2026-04-04T08:52:29.999Z</time></trkpt><trkpt lat="43.49561755068686" lon="11.637674365150826"><ele>250.0</ele><time>2026-04-04T08:52:30.999Z</time></trkpt><trkpt lat="43.495583503805825" lon="11.637588935758034"><ele>250.0</ele><time>2026-04-04T08:52:31.999Z</time></trkpt><trkpt lat="43.49555022237834" lon="11.637503789754883"><ele>250.0</ele><time>2026-04-04T08:52:32.999Z</time></trkpt><trkpt lat="43.4955201095937" lon="11.637421037268814"><ele>250.0</ele><time>2026-04-04T08:52:33.999Z</time></trkpt><trkpt lat="43.49549139799591" lon="11.637338161049533"><ele>250.0</ele><time>2026-04-04T08:52:34.999Z</time></trkpt><trkpt lat="43.49546120013212" lon="11.637254626196443"><ele>250.0</ele><time>2026-04-04T08:52:35.999Z</time></trkpt><trkpt lat="43.49542787994177" lon="11.637172518036852"><ele>250.0</ele><time>2026-04-04T08:52:36.999Z</time></trkpt><trkpt lat="43.49539687331262" lon="11.63708780524355"><ele>250.0</ele><time>2026-04-04T08:52:37.999Z</time></trkpt><trkpt lat="43.49536499620986" lon="11.637000946698546"><ele>250.0</ele><time>2026-04-04T08:52:38.999Z</time></trkpt><trkpt lat="43.49533480729969" lon="11.636914272170525"><ele>250.0</ele><time>2026-04-04T08:52:39.999Z</time></trkpt><trkpt lat="43.49529955846813" lon="11.636829350279044"><ele>250.0</ele><time>2026-04-04T08:52:40.999Z</time></trkpt><trkpt lat="43.495268201195486" lon="11.636744066043933"><ele>250.0</ele><time>2026-04-04T08:52:41.999Z</time></trkpt><trkpt lat="43.49523724613612" lon="11.63665995123528"><ele>250.0</ele><time>2026-04-04T08:52:42.999Z</time></trkpt><trkpt lat="43.49520492244692" lon="11.636572891894108"><ele>250.0</ele><time>2026-04-04T08:52:43.999Z</time></trkpt><trkpt lat="43.495173097369644" lon="11.636482162857819"><ele>250.0</ele><time>2026-04-04T08:52:44.999Z</time></trkpt><trkpt lat="43.49514068456921" lon="11.636394263684892"><ele>250.0</ele><time>2026-04-04T08:52:45.999Z</time></trkpt><trkpt lat="43.49510976470891" lon="11.636305581519384"><ele>250.0</ele><time>2026-04-04T08:52:46.999Z</time></trkpt><trkpt lat="43.49507690209725" lon="11.636217179897738"><ele>249.42857142857142</ele><time>2026-04-04T08:52:47.999Z</time></trkpt><trkpt lat="43.49504380408155" lon="11.63612845225951"><ele>248.8571428571429</ele><time>2026-04-04T08:52:48.999Z</time></trkpt><trkpt lat="43.49501059001711" lon="11.63603895549674"><ele>248.2857142857143</ele><time>2026-04-04T08:52:49.999Z</time></trkpt><trkpt lat="43.494977468402055" lon="11.635949564922868"><ele>247.71428571428572</ele><time>2026-04-04T08:52:50.999Z</time></trkpt><trkpt lat="43.494943535976695" lon="11.635857649487917"><ele>247.14285714285717</ele><time>2026-04-04T08:52:51.999Z</time></trkpt><trkpt lat="43.49490795299404" lon="11.635764724752944"><ele>246.5714285714286</ele><time>2026-04-04T08:52:52.999Z</time></trkpt><trkpt lat="43.49487384400977" lon="11.635668736717475"><ele>246.00000000000003</ele><time>2026-04-04T08:52:53.999Z</time></trkpt><trkpt lat="43.494840396467914" lon="11.635575461469658"><ele>246.0</ele><time>2026-04-04T08:52:54.999Z</time></trkpt><trkpt lat="43.49480794708992" lon="11.635483401863294"><ele>246.0</ele><time>2026-04-04T08:52:55.999Z</time></trkpt><trkpt lat="43.49477233375042" lon="11.63538862771458"><ele>246.0</ele><time>2026-04-04T08:52:56.999Z</time></trkpt><trkpt lat="43.49473845229427" lon="11.635292954386653"><ele>246.0</ele><time>2026-04-04T08:52:57.999Z</time></trkpt><trkpt lat="43.49470390863779" lon="11.635201720264401"><ele>246.0</ele><time>2026-04-04T08:52:58.999Z</time></trkpt><trkpt lat="43.494669915009496" lon="11.635108870312468"><ele>246.0</ele><time>2026-04-04T08:52:59.999Z</time></trkpt><trkpt lat="43.494635804957284" lon="11.635015774689627"><ele>246.0</ele><time>2026-04-04T08:53:00.999Z</time></trkpt><trkpt lat="43.49460046642966" lon="11.634922091837142"><ele>246.0</ele><time>2026-04-04T08:53:01.999Z</time></trkpt><trkpt lat="43.49456749711856" lon="11.634826679947912"><ele>246.0</ele><time>2026-04-04T08:53:02.999Z</time></trkpt><trkpt lat="43.49453220640174" lon="11.634733989822584"><ele>246.0</ele><time>2026-04-04T08:53:03.999Z</time></trkpt><trkpt lat="43.49449808977082" lon="11.634641149272985"><ele>246.0</ele><time>2026-04-04T08:53:04.999Z</time></trkpt><trkpt lat="43.49446273871022" lon="11.634546933580678"><ele>246.0</ele><time>2026-04-04T08:53:05.999Z</time></trkpt><trkpt lat="43.49442604819785" lon="11.634451178827014"><ele>245.5</ele><time>2026-04-04T08:53:06.999Z</time></trkpt><trkpt lat="43.49438826436233" lon="11.634354444996138"><ele>245.0</ele><time>2026-04-04T08:53:07.998Z</time></trkpt><trkpt lat="43.49435050537163" lon="11.63425401858999"><ele>244.5</ele><time>2026-04-04T08:53:08.998Z</time></trkpt><trkpt lat="43.49431444562769" lon="11.634155047944587"><ele>244.0</ele><time>2026-04-04T08:53:09.998Z</time></trkpt><trkpt lat="43.4942782208702" lon="11.634055867931165"><ele>243.5</ele><time>2026-04-04T08:53:10.998Z</time></trkpt><trkpt lat="43.494240404267934" lon="11.633956533377782"><ele>243.0</ele><time>2026-04-04T08:53:11.998Z</time></trkpt><trkpt lat="43.494202261810855" lon="11.633856562959606"><ele>243.0</ele><time>2026-04-04T08:53:12.998Z</time></trkpt><trkpt lat="43.49416364775121" lon="11.633757489330247"><ele>243.0</ele><time>2026-04-04T08:53:13.998Z</time></trkpt><trkpt lat="43.49412362400399" lon="11.633659456392678"><ele>243.0</ele><time>2026-04-04T08:53:14.998Z</time></trkpt><trkpt lat="43.49407984850374" lon="11.633559747042804"><ele>243.0</ele><time>2026-04-04T08:53:15.998Z</time></trkpt><trkpt lat="43.49403646508095" lon="11.633459315911733"><ele>243.0</ele><time>2026-04-04T08:53:16.998Z</time></trkpt><trkpt lat="43.49399377718108" lon="11.633362555398328"><ele>243.0</ele><time>2026-04-04T08:53:17.998Z</time></trkpt><trkpt lat="43.49394549769978" lon="11.633265133946088"><ele>242.66666666666666</ele><time>2026-04-04T08:53:18.998Z</time></trkpt><trkpt lat="43.49389685932246" lon="11.633169156883918"><ele>242.33333333333331</ele><time>2026-04-04T08:53:19.998Z</time></trkpt><trkpt lat="43.493851219758824" lon="11.63307374467478"><ele>242.0</ele><time>2026-04-04T08:53:20.998Z</time></trkpt><trkpt lat="43.49380323278305" lon="11.632976302779939"><ele>241.66666666666666</ele><time>2026-04-04T08:53:21.998Z</time></trkpt><trkpt lat="43.49375506787916" lon="11.632878648028537"><ele>241.33333333333331</ele><time>2026-04-04T08:53:22.998Z</time></trkpt><trkpt lat="43.49370416871259" lon="11.632783038199818"><ele>241.0</ele><time>2026-04-04T08:53:23.998Z</time></trkpt><trkpt lat="43.493655240116944" lon="11.632685997977573"><ele>239.99999999999997</ele><time>2026-04-04T08:53:24.998Z</time></trkpt><trkpt lat="43.49360873407933" lon="11.632587358578961"><ele>239.0</ele><time>2026-04-04T08:53:25.998Z</time></trkpt><trkpt lat="43.493559485855364" lon="11.632490378956703"><ele>238.0</ele><time>2026-04-04T08:53:26.998Z</time></trkpt><trkpt lat="43.49351030893425" lon="11.632394565316273"><ele>237.0</ele><time>2026-04-04T08:53:27.998Z</time></trkpt><trkpt lat="43.493461406686684" lon="11.632298188727706"><ele>235.99999999999997</ele><time>2026-04-04T08:53:28.998Z</time></trkpt><trkpt lat="43.49341510427371" lon="11.632203890005856"><ele>235.0</ele><time>2026-04-04T08:53:29.998Z</time></trkpt><trkpt lat="43.49336775412631" lon="11.63210754018892"><ele>234.99999999999997</ele><time>2026-04-04T08:53:30.998Z</time></trkpt><trkpt lat="43.493320735062795" lon="11.632013266859834"><ele>235.0</ele><time>2026-04-04T08:53:31.998Z</time></trkpt><trkpt lat="43.49327439952553" lon="11.631917986616864"><ele>235.0</ele><time>2026-04-04T08:53:32.998Z</time></trkpt><trkpt lat="43.49322821401458" lon="11.631823293903388"><ele>235.0</ele><time>2026-04-04T08:53:33.998Z</time></trkpt><trkpt lat="43.493182862936" lon="11.631730119678691"><ele>234.99999999999997</ele><time>2026-04-04T08:53:34.998Z</time></trkpt><trkpt lat="43.49313550165008" lon="11.631640669003373"><ele>235.0</ele><time>2026-04-04T08:53:35.998Z</time></trkpt><trkpt lat="43.49308995714621" lon="11.63155011116045"><ele>234.66666666666666</ele><time>2026-04-04T08:53:36.998Z</time></trkpt><trkpt lat="43.49304506646946" lon="11.631460109612336"><ele>234.33333333333331</ele><time>2026-04-04T08:53:37.998Z</time></trkpt><trkpt lat="43.49300222413094" lon="11.631372154313782"><ele>234.0</ele><time>2026-04-04T08:53:38.998Z</time></trkpt><trkpt lat="43.492960577063755" lon="11.631284480059081"><ele>233.66666666666669</ele><time>2026-04-04T08:53:39.998Z</time></trkpt><trkpt lat="43.49291902913088" lon="11.631196558369634"><ele>233.33333333333334</ele><time>2026-04-04T08:53:40.998Z</time></trkpt><trkpt lat="43.492878739074314" lon="11.631111359396138"><ele>233.0</ele><time>2026-04-04T08:53:41.998Z</time></trkpt><trkpt lat="43.49283640011077" lon="11.631028295099084"><ele>234.28571428571428</ele><time>2026-04-04T08:53:42.998Z</time></trkpt><trkpt lat="43.49279248151284" lon="11.630947362876476"><ele>235.57142857142856</ele><time>2026-04-04T08:53:43.998Z</time></trkpt><trkpt lat="43.49274986047679" lon="11.630865877878477"><ele>236.85714285714283</ele><time>2026-04-04T08:53:44.998Z</time></trkpt><trkpt lat="43.49271029208881" lon="11.630783359672144"><ele>238.14285714285714</ele><time>2026-04-04T08:53:45.998Z</time></trkpt><trkpt lat="43.492671197802586" lon="11.630703145816542"><ele>239.4285714285714</ele><time>2026-04-04T08:53:46.998Z</time></trkpt><trkpt lat="43.49263219094534" lon="11.63062414050531"><ele>240.7142857142857</ele><time>2026-04-04T08:53:47.998Z</time></trkpt><trkpt lat="43.49259543228972" lon="11.630542723143407"><ele>242.0</ele><time>2026-04-04T08:53:48.998Z</time></trkpt><trkpt lat="43.49255603503581" lon="11.630461635401046"><ele>242.0</ele><time>2026-04-04T08:53:49.998Z</time></trkpt><trkpt lat="43.49251572919299" lon="11.63038295610316"><ele>241.99999999999997</ele><time>2026-04-04T08:53:50.998Z</time></trkpt><trkpt lat="43.492477097569456" lon="11.630302664330513"><ele>242.0</ele><time>2026-04-04T08:53:52Z</time></trkpt><trkpt lat="43.492440036292166" lon="11.630221738460387"><ele>242.0</ele><time>2026-04-04T08:53:53Z</time></trkpt><trkpt lat="43.492400854505355" lon="11.630142209317727"><ele>241.99999999999997</ele><time>2026-04-04T08:53:54Z</time></trkpt><trkpt lat="43.492360840708955" lon="11.630062406062407"><ele>242.0</ele><time>2026-04-04T08:53:55Z</time></trkpt><trkpt lat="43.492320044716806" lon="11.62998435181638"><ele>242.0</ele><time>2026-04-04T08:53:56Z</time></trkpt><trkpt lat="43.492281406023984" lon="11.629904951014039"><ele>242.0</ele><time>2026-04-04T08:53:57Z</time></trkpt><trkpt lat="43.49224061005007" lon="11.629826933039034"><ele>241.99999999999997</ele><time>2026-04-04T08:53:58Z</time></trkpt><trkpt lat="43.49220105597723" lon="11.62974582823453"><ele>242.0</ele><time>2026-04-04T08:53:59Z</time></trkpt><trkpt lat="43.49216151744055" lon="11.629668052727967"><ele>242.0</ele><time>2026-04-04T08:54:00Z</time></trkpt><trkpt lat="43.49212259534043" lon="11.62958441015496"><ele>241.99999999999997</ele><time>2026-04-04T08:54:01Z</time></trkpt><trkpt lat="43.492084004082024" lon="11.629501282331017"><ele>242.0</ele><time>2026-04-04T08:54:02Z</time></trkpt><trkpt lat="43.49204269810189" lon="11.629418172187181"><ele>242.0</ele><time>2026-04-04T08:54:03Z</time></trkpt><trkpt lat="43.492000563860714" lon="11.629335434402071"><ele>241.33333333333334</ele><time>2026-04-04T08:54:04Z</time></trkpt><trkpt lat="43.49195731151538" lon="11.629251501853334"><ele>240.66666666666669</ele><time>2026-04-04T08:54:05Z</time></trkpt><trkpt lat="43.49191572642676" lon="11.629165416769801"><ele>240.0</ele><time>2026-04-04T08:54:06Z</time></trkpt><trkpt lat="43.49187071833245" lon="11.629080886846333"><ele>239.33333333333331</ele><time>2026-04-04T08:54:07Z</time></trkpt><trkpt lat="43.491825967255956" lon="11.628994670605241"><ele>238.66666666666666</ele><time>2026-04-04T08:54:08Z</time></trkpt><trkpt lat="43.49178351937167" lon="11.62890501537988"><ele>238.0</ele><time>2026-04-04T08:54:09Z</time></trkpt><trkpt lat="43.491740861807514" lon="11.628818422245603"><ele>237.99999999999997</ele><time>2026-04-04T08:54:10Z</time></trkpt><trkpt lat="43.49169619955121" lon="11.628732653155005"><ele>238.0</ele><time>2026-04-04T08:54:11Z</time></trkpt><trkpt lat="43.49165056085871" lon="11.628644373473696"><ele>238.0</ele><time>2026-04-04T08:54:12Z</time></trkpt><trkpt lat="43.49160204253269" lon="11.628560912550029"><ele>238.0</ele><time>2026-04-04T08:54:13Z</time></trkpt><trkpt lat="43.49155197664525" lon="11.628477501837232"><ele>237.99999999999997</ele><time>2026-04-04T08:54:14Z</time></trkpt><trkpt lat="43.4914964956986" lon="11.628399621840716"><ele>238.0</ele><time>2026-04-04T08:54:15Z</time></trkpt><trkpt lat="43.49142905842422" lon="11.62834785026282"><ele>237.99999999999997</ele><time>2026-04-04T08:54:16Z</time></trkpt><trkpt lat="43.49135401812385" lon="11.628312072304887"><ele>238.0</ele><time>2026-04-04T08:54:17Z</time></trkpt><trkpt lat="43.49128287381734" lon="11.628269283313017"><ele>238.0</ele><time>2026-04-04T08:54:18Z</time></trkpt><trkpt lat="43.491213772923224" lon="11.628207637564433"><ele>238.0</ele><time>2026-04-04T08:54:19Z</time></trkpt><trkpt lat="43.49114400517899" lon="11.628146505068397"><ele>237.99999999999997</ele><time>2026-04-04T08:54:20Z</time></trkpt><trkpt lat="43.49107089395406" lon="11.62808651771973"><ele>238.0</ele><time>2026-04-04T08:54:21Z</time></trkpt><trkpt lat="43.49099397514519" lon="11.628019541887683"><ele>235.8</ele><time>2026-04-04T08:54:22Z</time></trkpt><trkpt lat="43.4909147811759" lon="11.6279414391105"><ele>233.60000000000002</ele><time>2026-04-04T08:54:23Z</time></trkpt><trkpt lat="43.49083350282726" lon="11.627853689715092"><ele>231.39999999999998</ele><time>2026-04-04T08:54:24Z</time></trkpt><trkpt lat="43.49075619949377" lon="11.627757326005849"><ele>229.2</ele><time>2026-04-04T08:54:25Z</time></trkpt><trkpt lat="43.49067859515081" lon="11.627650309436177"><ele>227.0</ele><time>2026-04-04T08:54:26Z</time></trkpt><trkpt lat="43.49060547003707" lon="11.627534388035494"><ele>227.0</ele><time>2026-04-04T08:54:27Z</time></trkpt><trkpt lat="43.49053730254528" lon="11.627410333473875"><ele>227.0</ele><time>2026-04-04T08:54:28Z</time></trkpt><trkpt lat="43.490480747801506" lon="11.627275761000396"><ele>227.0</ele><time>2026-04-04T08:54:28.999Z</time></trkpt><trkpt lat="43.490430590060114" lon="11.627130199366068"><ele>227.0</ele><time>2026-04-04T08:54:29.999Z</time></trkpt><trkpt lat="43.49038877636122" lon="11.626982371407237"><ele>223.25</ele><time>2026-04-04T08:54:30.999Z</time></trkpt><trkpt lat="43.490357617961195" lon="11.62682677202964"><ele>219.5</ele><time>2026-04-04T08:54:31.999Z</time></trkpt><trkpt lat="43.490334915879124" lon="11.626667660773068"><ele>215.75</ele><time>2026-04-04T08:54:32.999Z</time></trkpt><trkpt lat="43.4903224743627" lon="11.626505781059684"><ele>212.0</ele><time>2026-04-04T08:54:33.999Z</time></trkpt><trkpt lat="43.49031747807503" lon="11.62633833041548"><ele>212.0</ele><time>2026-04-04T08:54:34.999Z</time></trkpt><trkpt lat="43.49032406758773" lon="11.626172641372019"><ele>212.0</ele><time>2026-04-04T08:54:35.999Z</time></trkpt><trkpt lat="43.49034109652882" lon="11.626005774634894"><ele>212.0</ele><time>2026-04-04T08:54:36.999Z</time></trkpt><trkpt lat="43.49036957325125" lon="11.62584485482402"><ele>212.0</ele><time>2026-04-04T08:54:37.999Z</time></trkpt><trkpt lat="43.490408769667134" lon="11.625689590845823"><ele>213.0</ele><time>2026-04-04T08:54:38.999Z</time></trkpt><trkpt lat="43.49045328284867" lon="11.625533158332937"><ele>214.0</ele><time>2026-04-04T08:54:39.999Z</time></trkpt><trkpt lat="43.49050424241995" lon="11.62538193170082"><ele>215.0</ele><time>2026-04-04T08:54:40.999Z</time></trkpt><trkpt lat="43.49055613478078" lon="11.625231989390395"><ele>216.0</ele><time>2026-04-04T08:54:41.999Z</time></trkpt><trkpt lat="43.490602491790746" lon="11.625080703888347"><ele>216.0</ele><time>2026-04-04T08:54:42.999Z</time></trkpt><trkpt lat="43.49065342594629" lon="11.62493111071348"><ele>216.0</ele><time>2026-04-04T08:54:43.999Z</time></trkpt><trkpt lat="43.49070423766957" lon="11.624780236380799"><ele>216.0</ele><time>2026-04-04T08:54:44.999Z</time></trkpt><trkpt lat="43.490755107495765" lon="11.624623313746282"><ele>216.0</ele><time>2026-04-04T08:54:45.999Z</time></trkpt><trkpt lat="43.49080788960668" lon="11.624465987313997"><ele>213.25</ele><time>2026-04-04T08:54:46.999Z</time></trkpt><trkpt lat="43.49086183031797" lon="11.624308880053153"><ele>210.5</ele><time>2026-04-04T08:54:47.999Z</time></trkpt><trkpt lat="43.49091453632106" lon="11.624151731611612"><ele>207.75</ele><time>2026-04-04T08:54:48.999Z</time></trkpt><trkpt lat="43.49096802414281" lon="11.623991822052597"><ele>205.0</ele><time>2026-04-04T08:54:49.999Z</time></trkpt><trkpt lat="43.49101965382199" lon="11.623834435115407"><ele>205.0</ele><time>2026-04-04T08:54:50.999Z</time></trkpt><trkpt lat="43.49107172898284" lon="11.623676149580897"><ele>205.0</ele><time>2026-04-04T08:54:51.999Z</time></trkpt><trkpt lat="43.49112099690208" lon="11.623516792522215"><ele>205.0</ele><time>2026-04-04T08:54:52.999Z</time></trkpt><trkpt lat="43.49116398018335" lon="11.623351275682076"><ele>205.0</ele><time>2026-04-04T08:54:53.999Z</time></trkpt><trkpt lat="43.491198177007426" lon="11.623186543238358"><ele>203.75</ele><time>2026-04-04T08:54:54.999Z</time></trkpt><trkpt lat="43.49122766892742" lon="11.623023253950615"><ele>202.5</ele><time>2026-04-04T08:54:55.999Z</time></trkpt><trkpt lat="43.49125126531688" lon="11.622858243045984"><ele>201.25</ele><time>2026-04-04T08:54:56.999Z</time></trkpt><trkpt lat="43.491264841598564" lon="11.62268804192333"><ele>200.0</ele><time>2026-04-04T08:54:57.999Z</time></trkpt><trkpt lat="43.49127400824813" lon="11.622520638554535"><ele>200.0</ele><time>2026-04-04T08:54:58.999Z</time></trkpt><trkpt lat="43.491273621595774" lon="11.622351494850818"><ele>200.0</ele><time>2026-04-04T08:54:59.999Z</time></trkpt><trkpt lat="43.491262820377706" lon="11.622183946232948"><ele>200.0</ele><time>2026-04-04T08:55:00.999Z</time></trkpt><trkpt lat="43.49124705974922" lon="11.622015835185532"><ele>200.0</ele><time>2026-04-04T08:55:01.999Z</time></trkpt><trkpt lat="43.491225196148854" lon="11.621846704223259"><ele>195.75</ele><time>2026-04-04T08:55:02.999Z</time></trkpt><trkpt lat="43.49119540267491" lon="11.62167852709437"><ele>191.5</ele><time>2026-04-04T08:55:03.999Z</time></trkpt><trkpt lat="43.49116002661437" lon="11.621511517983205"><ele>187.25</ele><time>2026-04-04T08:55:04.999Z</time></trkpt><trkpt lat="43.49111531678169" lon="11.62134740592744"><ele>183.0</ele><time>2026-04-04T08:55:05.999Z</time></trkpt><trkpt lat="43.49106318246654" lon="11.621187590824393"><ele>183.0</ele><time>2026-04-04T08:55:06.999Z</time></trkpt><trkpt lat="43.49100585611412" lon="11.621027360717017"><ele>183.0</ele><time>2026-04-04T08:55:07.999Z</time></trkpt><trkpt lat="43.49095288902616" lon="11.620865461212107"><ele>183.0</ele><time>2026-04-04T08:55:08.999Z</time></trkpt><trkpt lat="43.490904263713674" lon="11.62069490071212"><ele>183.0</ele><time>2026-04-04T08:55:09.999Z</time></trkpt><trkpt lat="43.49086846298021" lon="11.6205161382916"><ele>183.0</ele><time>2026-04-04T08:55:10.999Z</time></trkpt><trkpt lat="43.49084611951346" lon="11.620333538720397"><ele>183.0</ele><time>2026-04-04T08:55:11.999Z</time></trkpt><trkpt lat="43.49083412002593" lon="11.620154903680739"><ele>183.0</ele><time>2026-04-04T08:55:12.999Z</time></trkpt><trkpt lat="43.490835715093986" lon="11.619975705690363"><ele>183.0</ele><time>2026-04-04T08:55:13.999Z</time></trkpt><trkpt lat="43.490853668756785" lon="11.619796578088266"><ele>182.25</ele><time>2026-04-04T08:55:14.999Z</time></trkpt><trkpt lat="43.4908830110645" lon="11.619619000791744"><ele>181.5</ele><time>2026-04-04T08:55:15.999Z</time></trkpt><trkpt lat="43.49092180875859" lon="11.619444417900763"><ele>180.75</ele><time>2026-04-04T08:55:16.998Z</time></trkpt><trkpt lat="43.49096425904705" lon="11.619288928059511"><ele>180.0</ele><time>2026-04-04T08:55:17.998Z</time></trkpt><trkpt lat="43.49100210395006" lon="11.619162475758207"><ele>179.75</ele><time>2026-04-04T08:55:18.998Z</time></trkpt><trkpt lat="43.491053642254506" lon="11.61903824311859"><ele>179.5</ele><time>2026-04-04T08:55:19.998Z</time></trkpt><trkpt lat="43.49127078745303" lon="11.6191185855068"><ele>179.25</ele><time>2026-04-04T08:55:20.998Z</time></trkpt><trkpt lat="43.49138320601645" lon="11.619127269820606"><ele>179.0</ele><time>2026-04-04T08:55:21.998Z</time></trkpt><trkpt lat="43.49149400576954" lon="11.619124757824196"><ele>179.0</ele><time>2026-04-04T08:55:22.998Z</time></trkpt><trkpt lat="43.49159684084875" lon="11.619069599858753"><ele>179.0</ele><time>2026-04-04T08:55:23.998Z</time></trkpt><trkpt lat="43.491711340616234" lon="11.619073183824502"><ele>179.0</ele><time>2026-04-04T08:55:24.998Z</time></trkpt><trkpt lat="43.491828541690595" lon="11.619073754175835"><ele>179.0</ele><time>2026-04-04T08:55:25.998Z</time></trkpt><trkpt lat="43.49194235922826" lon="11.61904702375426"><ele>179.0</ele><time>2026-04-04T08:55:26.998Z</time></trkpt><trkpt lat="43.492032742420555" lon="11.61897267418662"><ele>179.0</ele><time>2026-04-04T08:55:27.998Z</time></trkpt><trkpt lat="43.49209685084477" lon="11.618900234615396"><ele>179.0</ele><time>2026-04-04T08:55:28.998Z</time></trkpt><trkpt lat="43.49213648767748" lon="11.618824508872809"><ele>179.0</ele><time>2026-04-04T08:55:29.998Z</time></trkpt><trkpt lat="43.492168082258985" lon="11.618746221898787"><ele>179.0</ele><time>2026-04-04T08:55:30.998Z</time></trkpt><trkpt lat="43.49222030481708" lon="11.618597817022772"><ele>179.0</ele><time>2026-04-04T08:55:32.998Z</time></trkpt><trkpt lat="43.49232220432167" lon="11.618567843396743"><ele>177.83333333333331</ele><time>2026-04-04T08:55:33.998Z</time></trkpt><trkpt lat="43.4923962967081" lon="11.618525369777599"><ele>176.66666666666666</ele><time>2026-04-04T08:55:34.998Z</time></trkpt><trkpt lat="43.492484443467134" lon="11.618512280924488"><ele>175.5</ele><time>2026-04-04T08:55:35.998Z</time></trkpt><trkpt lat="43.49256942922368" lon="11.618531324319774"><ele>174.33333333333334</ele><time>2026-04-04T08:55:36.998Z</time></trkpt><trkpt lat="43.49264146223349" lon="11.618605939399822"><ele>173.16666666666669</ele><time>2026-04-04T08:55:37.998Z</time></trkpt><trkpt lat="43.49270907448089" lon="11.618662480181081"><ele>172.0</ele><time>2026-04-04T08:55:38.998Z</time></trkpt><trkpt lat="43.492774435707325" lon="11.618714604805415"><ele>172.0</ele><time>2026-04-04T08:55:39.998Z</time></trkpt><trkpt lat="43.49284086190219" lon="11.618762302733186"><ele>172.0</ele><time>2026-04-04T08:55:40.998Z</time></trkpt><trkpt lat="43.49291118319182" lon="11.618812018332681"><ele>172.0</ele><time>2026-04-04T08:55:41.998Z</time></trkpt><trkpt lat="43.49298424675216" lon="11.618855852995912"><ele>172.0</ele><time>2026-04-04T08:55:42.998Z</time></trkpt><trkpt lat="43.4930665111664" lon="11.618900185961808"><ele>172.0</ele><time>2026-04-04T08:55:43.998Z</time></trkpt><trkpt lat="43.49314508898302" lon="11.618954050358148"><ele>172.0</ele><time>2026-04-04T08:55:44.998Z</time></trkpt><trkpt lat="43.49322268082708" lon="11.618997789394392"><ele>170.39999999999998</ele><time>2026-04-04T08:55:45.998Z</time></trkpt><trkpt lat="43.49330482211784" lon="11.619043528016256"><ele>168.79999999999998</ele><time>2026-04-04T08:55:46.998Z</time></trkpt><trkpt lat="43.49339600553921" lon="11.619047595533393"><ele>167.2</ele><time>2026-04-04T08:55:47.998Z</time></trkpt><trkpt lat="43.49348478449494" lon="11.619016214689678"><ele>165.6</ele><time>2026-04-04T08:55:48.998Z</time></trkpt><trkpt lat="43.49356403888737" lon="11.618945711661022"><ele>164.0</ele><time>2026-04-04T08:55:49.998Z</time></trkpt><trkpt lat="43.49363833074786" lon="11.61887810455208"><ele>164.0</ele><time>2026-04-04T08:55:50.998Z</time></trkpt><trkpt lat="43.493713879708174" lon="11.618818754563147"><ele>164.0</ele><time>2026-04-04T08:55:51.998Z</time></trkpt><trkpt lat="43.4937879218211" lon="11.618768448189098"><ele>164.0</ele><time>2026-04-04T08:55:52.998Z</time></trkpt><trkpt lat="43.49386410332485" lon="11.618712849704659"><ele>164.0</ele><time>2026-04-04T08:55:53.998Z</time></trkpt><trkpt lat="43.49393744406528" lon="11.618651439964445"><ele>164.0</ele><time>2026-04-04T08:55:54.998Z</time></trkpt><trkpt lat="43.49401022202478" lon="11.618597914113986"><ele>164.0</ele><time>2026-04-04T08:55:55.998Z</time></trkpt><trkpt lat="43.494084717613845" lon="11.61854179947306"><ele>163.16666666666666</ele><time>2026-04-04T08:55:56.998Z</time></trkpt><trkpt lat="43.49415267181721" lon="11.618485094524786"><ele>162.33333333333331</ele><time>2026-04-04T08:55:58Z</time></trkpt><trkpt lat="43.494219920594226" lon="11.618425383958227"><ele>161.5</ele><time>2026-04-04T08:55:59Z</time></trkpt><trkpt lat="43.49428804414514" lon="11.618372163124988"><ele>160.66666666666666</ele><time>2026-04-04T08:56:00Z</time></trkpt><trkpt lat="43.494352926967984" lon="11.618317155376186"><ele>159.83333333333334</ele><time>2026-04-04T08:56:01Z</time></trkpt><trkpt lat="43.49442043784957" lon="11.61827026376588"><ele>159.0</ele><time>2026-04-04T08:56:02Z</time></trkpt><trkpt lat="43.49448710150206" lon="11.618214587557992"><ele>159.0</ele><time>2026-04-04T08:56:03Z</time></trkpt><trkpt lat="43.49455414135565" lon="11.61816837828628"><ele>159.0</ele><time>2026-04-04T08:56:04Z</time></trkpt><trkpt lat="43.49462126874222" lon="11.618127697267886"><ele>159.0</ele><time>2026-04-04T08:56:05Z</time></trkpt><trkpt lat="43.494690068724715" lon="11.618085445433891"><ele>159.0</ele><time>2026-04-04T08:56:06Z</time></trkpt><trkpt lat="43.4947522784576" lon="11.618045838182942"><ele>159.0</ele><time>2026-04-04T08:56:07Z</time></trkpt><trkpt lat="43.494818310519086" lon="11.618005919238879"><ele>159.0</ele><time>2026-04-04T08:56:08Z</time></trkpt><trkpt lat="43.49488267459102" lon="11.617962996735871"><ele>159.0</ele><time>2026-04-04T08:56:09Z</time></trkpt><trkpt lat="43.4949463267495" lon="11.617913964453424"><ele>159.0</ele><time>2026-04-04T08:56:10Z</time></trkpt><trkpt lat="43.49501162984123" lon="11.617867757601676"><ele>159.0</ele><time>2026-04-04T08:56:11Z</time></trkpt><trkpt lat="43.49507731439265" lon="11.617828842440806"><ele>159.0</ele><time>2026-04-04T08:56:12Z</time></trkpt><trkpt lat="43.49514563826405" lon="11.617785438404123"><ele>159.0</ele><time>2026-04-04T08:56:13Z</time></trkpt><trkpt lat="43.49520965175929" lon="11.61773998525263"><ele>159.0</ele><time>2026-04-04T08:56:14Z</time></trkpt><trkpt lat="43.495277055041974" lon="11.617695140912296"><ele>159.0</ele><time>2026-04-04T08:56:15Z</time></trkpt><trkpt lat="43.49534093981635" lon="11.617652286402878"><ele>159.0</ele><time>2026-04-04T08:56:16Z</time></trkpt><trkpt lat="43.49541204193546" lon="11.61761520218327"><ele>158.7142857142857</ele><time>2026-04-04T08:56:17Z</time></trkpt><trkpt lat="43.49547539190276" lon="11.617580261331906"><ele>158.42857142857144</ele><time>2026-04-04T08:56:18Z</time></trkpt><trkpt lat="43.495540761913745" lon="11.617542001411376"><ele>158.14285714285714</ele><time>2026-04-04T08:56:19Z</time></trkpt><trkpt lat="43.495605276372274" lon="11.61749942133375"><ele>157.85714285714283</ele><time>2026-04-04T08:56:20Z</time></trkpt><trkpt lat="43.49566997460545" lon="11.617455712679938"><ele>157.57142857142856</ele><time>2026-04-04T08:56:21Z</time></trkpt><trkpt lat="43.495732956219456" lon="11.61741368364136"><ele>157.28571428571428</ele><time>2026-04-04T08:56:22Z</time></trkpt><trkpt lat="43.49579898416583" lon="11.617376744251768"><ele>157.0</ele><time>2026-04-04T08:56:23Z</time></trkpt><trkpt lat="43.49586234194776" lon="11.617340788195063"><ele>156.99999999999997</ele><time>2026-04-04T08:56:24Z</time></trkpt><trkpt lat="43.49593002030867" lon="11.617312486992823"><ele>157.0</ele><time>2026-04-04T08:56:25Z</time></trkpt><trkpt lat="43.49599419909155" lon="11.61728476387705"><ele>157.0</ele><time>2026-04-04T08:56:26Z</time></trkpt><trkpt lat="43.49606520506712" lon="11.617265779049431"><ele>157.0</ele><time>2026-04-04T08:56:27Z</time></trkpt><trkpt lat="43.49613296811136" lon="11.617243929237123"><ele>157.0</ele><time>2026-04-04T08:56:28Z</time></trkpt><trkpt lat="43.49620117958255" lon="11.617231548660628"><ele>156.99999999999997</ele><time>2026-04-04T08:56:29Z</time></trkpt><trkpt lat="43.496268179459115" lon="11.617224501747073"><ele>157.0</ele><time>2026-04-04T08:56:30Z</time></trkpt><trkpt lat="43.49634060376865" lon="11.617221349392036"><ele>156.99999999999997</ele><time>2026-04-04T08:56:31Z</time></trkpt><trkpt lat="43.496410671972875" lon="11.61722120415067"><ele>157.0</ele><time>2026-04-04T08:56:32Z</time></trkpt><trkpt lat="43.49647905075562" lon="11.617222146088752"><ele>157.0</ele><time>2026-04-04T08:56:33Z</time></trkpt><trkpt lat="43.49654601415011" lon="11.617228039568785"><ele>157.0</ele><time>2026-04-04T08:56:33.999Z</time></trkpt><trkpt lat="43.49661347582538" lon="11.617237955941178"><ele>157.0</ele><time>2026-04-04T08:56:34.999Z</time></trkpt><trkpt lat="43.496680004031454" lon="11.617257023314849"><ele>156.99999999999997</ele><time>2026-04-04T08:56:35.999Z</time></trkpt><trkpt lat="43.496748453283345" lon="11.61727282663389"><ele>157.0</ele><time>2026-04-04T08:56:36.999Z</time></trkpt><trkpt lat="43.49687064039365" lon="11.617309138611105"><ele>157.0</ele><time>2026-04-04T08:56:38.999Z</time></trkpt><trkpt lat="43.49693307168308" lon="11.61733440556774"><ele>157.0</ele><time>2026-04-04T08:56:39.999Z</time></trkpt><trkpt lat="43.49699282188239" lon="11.617368746423267"><ele>157.0</ele><time>2026-04-04T08:56:40.999Z</time></trkpt><trkpt lat="43.497057903643324" lon="11.617394101424281"><ele>157.0</ele><time>2026-04-04T08:56:41.999Z</time></trkpt><trkpt lat="43.49712017497266" lon="11.617426590622536"><ele>157.0</ele><time>2026-04-04T08:56:42.999Z</time></trkpt><trkpt lat="43.497180602408704" lon="11.617463111368123"><ele>157.0</ele><time>2026-04-04T08:56:43.999Z</time></trkpt><trkpt lat="43.497301183076594" lon="11.617518241165941"><ele>156.79999999999998</ele><time>2026-04-04T08:56:45.999Z</time></trkpt><trkpt lat="43.49742838732511" lon="11.61756950465322"><ele>156.6</ele><time>2026-04-04T08:56:47.999Z</time></trkpt><trkpt lat="43.49748864506697" lon="11.61759751503357"><ele>156.39999999999998</ele><time>2026-04-04T08:56:48.999Z</time></trkpt><trkpt lat="43.49757898506269" lon="11.617638999304946"><ele>156.2</ele><time>2026-04-04T08:56:50.999Z</time></trkpt><trkpt lat="43.497657624380324" lon="11.617666117664212"><ele>156.0</ele><time>2026-04-04T08:56:51.999Z</time></trkpt><trkpt lat="43.49776221518272" lon="11.617714700189671"><ele>156.0</ele><time>2026-04-04T08:56:53.999Z</time></trkpt><trkpt lat="43.497859958762824" lon="11.617779756346403"><ele>156.0</ele><time>2026-04-04T08:56:55.999Z</time></trkpt><trkpt lat="43.497960902286685" lon="11.61784720559655"><ele>156.0</ele><time>2026-04-04T08:56:57.999Z</time></trkpt><trkpt lat="43.49805762456564" lon="11.617911559569837"><ele>156.0</ele><time>2026-04-04T08:56:59.999Z</time></trkpt><trkpt lat="43.49815092206805" lon="11.617982728242488"><ele>156.0</ele><time>2026-04-04T08:57:01.999Z</time></trkpt><trkpt lat="43.49823940116543" lon="11.618073067179743"><ele>156.33333333333334</ele><time>2026-04-04T08:57:03.999Z</time></trkpt><trkpt lat="43.49832581989602" lon="11.618150929024699"><ele>156.66666666666666</ele><time>2026-04-04T08:57:05.999Z</time></trkpt><trkpt lat="43.49840773050957" lon="11.618226587474714"><ele>157.0</ele><time>2026-04-04T08:57:07.999Z</time></trkpt><trkpt lat="43.49848166041209" lon="11.618292971453377"><ele>157.33333333333331</ele><time>2026-04-04T08:57:09.999Z</time></trkpt><trkpt lat="43.49853112837717" lon="11.618375009441648"><ele>157.66666666666666</ele><time>2026-04-04T08:57:12.999Z</time></trkpt><trkpt lat="43.49859153995461" lon="11.618427192284283"><ele>158.0</ele><time>2026-04-04T08:57:15.999Z</time></trkpt><trkpt lat="43.49866372412646" lon="11.618462448355361"><ele>158.0</ele><time>2026-04-04T08:57:45.998Z</time></trkpt><trkpt lat="43.49871484958052" lon="11.618525015413264"><ele>158.0</ele><time>2026-04-04T08:57:47.998Z</time></trkpt><trkpt lat="43.49877676708527" lon="11.618575887355107"><ele>158.0</ele><time>2026-04-04T08:57:49.998Z</time></trkpt><trkpt lat="43.49885438314845" lon="11.618451049764488"><ele>158.0</ele><time>2026-04-04T08:57:51.998Z</time></trkpt><trkpt lat="43.49890729985005" lon="11.618376496790257"><ele>158.0</ele><time>2026-04-04T08:57:53.998Z</time></trkpt><trkpt lat="43.498973664922374" lon="11.618280702437435"><ele>158.0</ele><time>2026-04-04T08:57:55.998Z</time></trkpt><trkpt lat="43.4990340664929" lon="11.618166521853249"><ele>158.0</ele><time>2026-04-04T08:57:57.998Z</time></trkpt><trkpt lat="43.49909806896061" lon="11.618040198279393"><ele>158.0</ele><time>2026-04-04T08:57:59.998Z</time></trkpt><trkpt lat="43.49915965669282" lon="11.617903327733028"><ele>158.0</ele><time>2026-04-04T08:58:01.998Z</time></trkpt><trkpt lat="43.49922316794215" lon="11.617766805319997"><ele>158.0</ele><time>2026-04-04T08:58:04Z</time></trkpt><trkpt lat="43.499286783730845" lon="11.617622439891747"><ele>157.6</ele><time>2026-04-04T08:58:06Z</time></trkpt><trkpt lat="43.499359555973946" lon="11.617482538932094"><ele>157.20000000000002</ele><time>2026-04-04T08:58:08Z</time></trkpt><trkpt lat="43.49938613690281" lon="11.617403258509905"><ele>156.8</ele><time>2026-04-04T08:58:09Z</time></trkpt><trkpt lat="43.49943696174459" lon="11.617255759700258"><ele>156.4</ele><time>2026-04-04T08:58:11Z</time></trkpt><trkpt lat="43.49948595776833" lon="11.617120623736648"><ele>156.0</ele><time>2026-04-04T08:58:13Z</time></trkpt><trkpt lat="43.49953689477375" lon="11.616986126124422"><ele>155.5</ele><time>2026-04-04T08:58:15Z</time></trkpt><trkpt lat="43.49958948377391" lon="11.616852991656481"><ele>155.0</ele><time>2026-04-04T08:58:17Z</time></trkpt><trkpt lat="43.499638489570856" lon="11.616709132902603"><ele>154.5</ele><time>2026-04-04T08:58:19Z</time></trkpt><trkpt lat="43.49969072720713" lon="11.61657353920637"><ele>154.0</ele><time>2026-04-04T08:58:21Z</time></trkpt><trkpt lat="43.499748556717584" lon="11.616425085455173"><ele>154.0</ele><time>2026-04-04T08:58:23Z</time></trkpt><trkpt lat="43.499786382915204" lon="11.616346189450573"><ele>154.0</ele><time>2026-04-04T08:58:24Z</time></trkpt><trkpt lat="43.49982830836638" lon="11.616269805622698"><ele>154.0</ele><time>2026-04-04T08:58:25Z</time></trkpt><trkpt lat="43.49987870336994" lon="11.616191707379288"><ele>154.0</ele><time>2026-04-04T08:58:26Z</time></trkpt><trkpt lat="43.499933153264436" lon="11.61612025446854"><ele>154.0</ele><time>2026-04-04T08:58:27Z</time></trkpt><trkpt lat="43.499989995581565" lon="11.616050673740702"><ele>154.0</ele><time>2026-04-04T08:58:28Z</time></trkpt><trkpt lat="43.500046778797916" lon="11.615983237127615"><ele>154.0</ele><time>2026-04-04T08:58:29Z</time></trkpt><trkpt lat="43.500100760257396" lon="11.615916077245455"><ele>154.14285714285714</ele><time>2026-04-04T08:58:30Z</time></trkpt><trkpt lat="43.500154811733985" lon="11.615850089011419"><ele>154.28571428571428</ele><time>2026-04-04T08:58:31Z</time></trkpt><trkpt lat="43.50021194312466" lon="11.615780486253783"><ele>154.42857142857144</ele><time>2026-04-04T08:58:32Z</time></trkpt><trkpt lat="43.50026675199421" lon="11.615710668840544"><ele>154.57142857142856</ele><time>2026-04-04T08:58:33Z</time></trkpt><trkpt lat="43.5003211316869" lon="11.61563826130113"><ele>154.71428571428572</ele><time>2026-04-04T08:58:34Z</time></trkpt><trkpt lat="43.50037697985964" lon="11.61557253427031"><ele>154.85714285714286</ele><time>2026-04-04T08:58:35Z</time></trkpt><trkpt lat="43.50043189734923" lon="11.615503149408552"><ele>155.0</ele><time>2026-04-04T08:58:36Z</time></trkpt><trkpt lat="43.5004864179299" lon="11.615432511949058"><ele>155.0</ele><time>2026-04-04T08:58:37Z</time></trkpt><trkpt lat="43.50054134214774" lon="11.615362621645327"><ele>155.0</ele><time>2026-04-04T08:58:38Z</time></trkpt><trkpt lat="43.50059679866071" lon="11.615295651988074"><ele>155.0</ele><time>2026-04-04T08:58:39Z</time></trkpt><trkpt lat="43.50064974435079" lon="11.61522663377972"><ele>155.0</ele><time>2026-04-04T08:58:40Z</time></trkpt><trkpt lat="43.50070337523402" lon="11.615159445756637"><ele>155.0</ele><time>2026-04-04T08:58:40.999Z</time></trkpt><trkpt lat="43.500758093701464" lon="11.615093708051385"><ele>155.0</ele><time>2026-04-04T08:58:41.999Z</time></trkpt><trkpt lat="43.500811594481796" lon="11.615029816211415"><ele>155.0</ele><time>2026-04-04T08:58:42.999Z</time></trkpt><trkpt lat="43.500866456675915" lon="11.614963677368584"><ele>155.0</ele><time>2026-04-04T08:58:43.999Z</time></trkpt><trkpt lat="43.500920996304544" lon="11.61489598047398"><ele>155.0</ele><time>2026-04-04T08:58:44.999Z</time></trkpt><trkpt lat="43.50097678190341" lon="11.61483087949695"><ele>155.0</ele><time>2026-04-04T08:58:45.999Z</time></trkpt><trkpt lat="43.501031009339826" lon="11.614764741888697"><ele>155.0</ele><time>2026-04-04T08:58:46.999Z</time></trkpt><trkpt lat="43.50108540072785" lon="11.614696325729941"><ele>155.0</ele><time>2026-04-04T08:58:47.999Z</time></trkpt><trkpt lat="43.501139596275614" lon="11.614624233484681"><ele>155.0</ele><time>2026-04-04T08:58:48.999Z</time></trkpt><trkpt lat="43.50119343353307" lon="11.614556546573839"><ele>155.0</ele><time>2026-04-04T08:58:49.999Z</time></trkpt><trkpt lat="43.501249122021186" lon="11.614488055724841"><ele>154.71428571428572</ele><time>2026-04-04T08:58:50.999Z</time></trkpt><trkpt lat="43.50130500226741" lon="11.614422201463809"><ele>154.42857142857142</ele><time>2026-04-04T08:58:51.999Z</time></trkpt><trkpt lat="43.50135753195841" lon="11.614352634781886"><ele>154.14285714285714</ele><time>2026-04-04T08:58:52.999Z</time></trkpt><trkpt lat="43.50141405571942" lon="11.614286865002994"><ele>153.85714285714286</ele><time>2026-04-04T08:58:53.999Z</time></trkpt><trkpt lat="43.50146997884859" lon="11.614226968901237"><ele>153.57142857142858</ele><time>2026-04-04T08:58:54.999Z</time></trkpt><trkpt lat="43.501522965278056" lon="11.614163136952401"><ele>153.28571428571428</ele><time>2026-04-04T08:58:55.999Z</time></trkpt><trkpt lat="43.50157665685089" lon="11.614099999311152"><ele>153.0</ele><time>2026-04-04T08:58:56.999Z</time></trkpt><trkpt lat="43.50162965854467" lon="11.614038784971347"><ele>153.0</ele><time>2026-04-04T08:58:57.999Z</time></trkpt><trkpt lat="43.501682466600855" lon="11.613979644760663"><ele>153.0</ele><time>2026-04-04T08:58:58.999Z</time></trkpt><trkpt lat="43.50173424192282" lon="11.613918505580411"><ele>153.0</ele><time>2026-04-04T08:58:59.999Z</time></trkpt><trkpt lat="43.50178529439912" lon="11.613855087743715"><ele>153.0</ele><time>2026-04-04T08:59:00.999Z</time></trkpt><trkpt lat="43.50183590260706" lon="11.61379340154493"><ele>153.0</ele><time>2026-04-04T08:59:01.999Z</time></trkpt><trkpt lat="43.50188604579569" lon="11.613729225001313"><ele>153.0</ele><time>2026-04-04T08:59:02.999Z</time></trkpt><trkpt lat="43.50193700243196" lon="11.6136650349395"><ele>153.0</ele><time>2026-04-04T08:59:03.999Z</time></trkpt><trkpt lat="43.50198764301453" lon="11.613601691004872"><ele>153.0</ele><time>2026-04-04T08:59:04.999Z</time></trkpt><trkpt lat="43.50203872854722" lon="11.61353863892355"><ele>153.0</ele><time>2026-04-04T08:59:05.999Z</time></trkpt><trkpt lat="43.50209036693293" lon="11.61347586129601"><ele>153.0</ele><time>2026-04-04T08:59:06.999Z</time></trkpt><trkpt lat="43.502140953691836" lon="11.613414004035967"><ele>153.0</ele><time>2026-04-04T08:59:07.999Z</time></trkpt><trkpt lat="43.50219143661454" lon="11.61335303803138"><ele>153.0</ele><time>2026-04-04T08:59:08.999Z</time></trkpt><trkpt lat="43.502240342922164" lon="11.61329021727707"><ele>153.0</ele><time>2026-04-04T08:59:09.999Z</time></trkpt><trkpt lat="43.502291157692774" lon="11.6132256542996"><ele>153.0</ele><time>2026-04-04T08:59:10.999Z</time></trkpt><trkpt lat="43.50234155736851" lon="11.61316562050723"><ele>152.85714285714286</ele><time>2026-04-04T08:59:11.999Z</time></trkpt><trkpt lat="43.502392931747735" lon="11.613102580632518"><ele>152.71428571428572</ele><time>2026-04-04T08:59:12.999Z</time></trkpt><trkpt lat="43.5024427385036" lon="11.613041122077819"><ele>152.57142857142856</ele><time>2026-04-04T08:59:13.999Z</time></trkpt><trkpt lat="43.50249501618711" lon="11.612978667500338"><ele>152.42857142857144</ele><time>2026-04-04T08:59:14.999Z</time></trkpt><trkpt lat="43.502545431956364" lon="11.612918911132564"><ele>152.2857142857143</ele><time>2026-04-04T08:59:15.999Z</time></trkpt><trkpt lat="43.50259613323573" lon="11.612860102254094"><ele>152.14285714285714</ele><time>2026-04-04T08:59:16.999Z</time></trkpt><trkpt lat="43.50264505063322" lon="11.61279946943151"><ele>152.0</ele><time>2026-04-04T08:59:17.999Z</time></trkpt><trkpt lat="43.50269439961371" lon="11.61273717763301"><ele>152.0</ele><time>2026-04-04T08:59:18.999Z</time></trkpt><trkpt lat="43.50274416091293" lon="11.61267546239309"><ele>152.0</ele><time>2026-04-04T08:59:19.999Z</time></trkpt><trkpt lat="43.50279439702916" lon="11.612613531934088"><ele>152.0</ele><time>2026-04-04T08:59:20.999Z</time></trkpt><trkpt lat="43.50284416857374" lon="11.61254946527959"><ele>152.0</ele><time>2026-04-04T08:59:21.999Z</time></trkpt><trkpt lat="43.502894265817936" lon="11.612486537494421"><ele>152.0</ele><time>2026-04-04T08:59:22.999Z</time></trkpt><trkpt lat="43.502943667532776" lon="11.612427581407065"><ele>152.0</ele><time>2026-04-04T08:59:23.999Z</time></trkpt><trkpt lat="43.50299606886447" lon="11.612369350921725"><ele>152.0</ele><time>2026-04-04T08:59:24.999Z</time></trkpt><trkpt lat="43.503043497880036" lon="11.612310817931942"><ele>151.57142857142856</ele><time>2026-04-04T08:59:25.999Z</time></trkpt><trkpt lat="43.503092444318426" lon="11.612250343530802"><ele>151.14285714285717</ele><time>2026-04-04T08:59:26.999Z</time></trkpt><trkpt lat="43.50314016493856" lon="11.612189701851426"><ele>150.71428571428572</ele><time>2026-04-04T08:59:27.999Z</time></trkpt><trkpt lat="43.50318654656863" lon="11.612129781755101"><ele>150.28571428571428</ele><time>2026-04-04T08:59:28.999Z</time></trkpt><trkpt lat="43.503235286369396" lon="11.612070679651314"><ele>149.85714285714283</ele><time>2026-04-04T08:59:29.998Z</time></trkpt><trkpt lat="43.50328368034147" lon="11.612011712186167"><ele>149.42857142857142</ele><time>2026-04-04T08:59:30.998Z</time></trkpt><trkpt lat="43.50337966791979" lon="11.611901606744617"><ele>149.0</ele><time>2026-04-04T08:59:32.998Z</time></trkpt><trkpt lat="43.50347849875888" lon="11.611815374147577"><ele>149.0</ele><time>2026-04-04T08:59:34.998Z</time></trkpt><trkpt lat="43.50359377165647" lon="11.611760918666302"><ele>149.0</ele><time>2026-04-04T08:59:36.998Z</time></trkpt><trkpt lat="43.50370889813457" lon="11.611722550147924"><ele>149.0</ele><time>2026-04-04T08:59:38.998Z</time></trkpt><trkpt lat="43.50381606863766" lon="11.61163862251615"><ele>149.0</ele><time>2026-04-04T08:59:40.998Z</time></trkpt><trkpt lat="43.503856581669986" lon="11.611567474232979"><ele>149.0</ele><time>2026-04-04T08:59:41.998Z</time></trkpt><trkpt lat="43.50388367142825" lon="11.61148733388233"><ele>149.33333333333331</ele><time>2026-04-04T08:59:42.998Z</time></trkpt><trkpt lat="43.50392016225158" lon="11.611322609329765"><ele>149.66666666666666</ele><time>2026-04-04T08:59:44.998Z</time></trkpt><trkpt lat="43.5039346383363" lon="11.611236042071825"><ele>150.0</ele><time>2026-04-04T08:59:45.998Z</time></trkpt><trkpt lat="43.50392740546805" lon="11.611143232118074"><ele>150.33333333333334</ele><time>2026-04-04T08:59:46.998Z</time></trkpt><trkpt lat="43.503936088399776" lon="11.611052684926"><ele>150.66666666666669</ele><time>2026-04-04T08:59:47.998Z</time></trkpt><trkpt lat="43.50394572227752" lon="11.610963006756089"><ele>151.0</ele><time>2026-04-04T08:59:48.998Z</time></trkpt><trkpt lat="43.50406823860062" lon="11.610837825051297"><ele>151.0</ele><time>2026-04-04T08:59:50.998Z</time></trkpt><trkpt lat="43.504126879350395" lon="11.61078771443985"><ele>151.0</ele><time>2026-04-04T08:59:51.998Z</time></trkpt><trkpt lat="43.50418221426348" lon="11.610739705245132"><ele>151.0</ele><time>2026-04-04T08:59:52.998Z</time></trkpt><trkpt lat="43.50426705156587" lon="11.610754107609194"><ele>151.0</ele><time>2026-04-04T08:59:53.998Z</time></trkpt><trkpt lat="43.504323377898295" lon="11.610714405734667"><ele>151.0</ele><time>2026-04-04T08:59:54.998Z</time></trkpt><trkpt lat="43.50443072232871" lon="11.610621924565546"><ele>151.0</ele><time>2026-04-04T08:59:56.998Z</time></trkpt><trkpt lat="43.50453729108929" lon="11.610529420536567"><ele>151.16666666666669</ele><time>2026-04-04T08:59:58.998Z</time></trkpt><trkpt lat="43.50458465838333" lon="11.610471195160521"><ele>151.33333333333334</ele><time>2026-04-04T08:59:59.998Z</time></trkpt><trkpt lat="43.504630596090124" lon="11.610410843353751"><ele>151.5</ele><time>2026-04-04T09:00:00.998Z</time></trkpt><trkpt lat="43.50467837408424" lon="11.610354012709532"><ele>151.66666666666666</ele><time>2026-04-04T09:00:01.998Z</time></trkpt><trkpt lat="43.504766703542494" lon="11.610242786183203"><ele>151.83333333333331</ele><time>2026-04-04T09:00:03.998Z</time></trkpt><trkpt lat="43.504814316069215" lon="11.610184382711921"><ele>152.0</ele><time>2026-04-04T09:00:04.998Z</time></trkpt><trkpt lat="43.504902956417794" lon="11.610068331304944"><ele>152.0</ele><time>2026-04-04T09:00:06.998Z</time></trkpt><trkpt lat="43.504993035440386" lon="11.609953504624217"><ele>152.0</ele><time>2026-04-04T09:00:08.998Z</time></trkpt><trkpt lat="43.505081345701996" lon="11.609840981868857"><ele>152.0</ele><time>2026-04-04T09:00:11Z</time></trkpt><trkpt lat="43.505166484975526" lon="11.609727988198946"><ele>152.0</ele><time>2026-04-04T09:00:13Z</time></trkpt><trkpt lat="43.50524951767916" lon="11.609617577722718"><ele>152.0</ele><time>2026-04-04T09:00:15Z</time></trkpt><trkpt lat="43.50531091330285" lon="11.609480504714854"><ele>152.0</ele><time>2026-04-04T09:00:17Z</time></trkpt><trkpt lat="43.50537751563924" lon="11.60934011393557"><ele>152.0</ele><time>2026-04-04T09:00:19Z</time></trkpt><trkpt lat="43.50543660899074" lon="11.609196861032926"><ele>152.0</ele><time>2026-04-04T09:00:21Z</time></trkpt><trkpt lat="43.5054966911132" lon="11.609051376645768"><ele>152.0</ele><time>2026-04-04T09:00:23Z</time></trkpt><trkpt lat="43.505554863327895" lon="11.608908428571837"><ele>152.0</ele><time>2026-04-04T09:00:25Z</time></trkpt><trkpt lat="43.50561223360088" lon="11.608767831222869"><ele>152.0</ele><time>2026-04-04T09:00:27Z</time></trkpt><trkpt lat="43.505674915649124" lon="11.608630100799665"><ele>152.0</ele><time>2026-04-04T09:00:29Z</time></trkpt><trkpt lat="43.50573054281219" lon="11.60849245512911"><ele>151.6</ele><time>2026-04-04T09:00:31Z</time></trkpt><trkpt lat="43.50578323497174" lon="11.608363965732154"><ele>151.2</ele><time>2026-04-04T09:00:33Z</time></trkpt><trkpt lat="43.505846767568585" lon="11.608254696860596"><ele>150.8</ele><time>2026-04-04T09:00:35Z</time></trkpt><trkpt lat="43.50592811275991" lon="11.608161103842416"><ele>150.4</ele><time>2026-04-04T09:00:37Z</time></trkpt><trkpt lat="43.50603607194573" lon="11.608167063454493"><ele>150.0</ele><time>2026-04-04T09:00:39Z</time></trkpt><trkpt lat="43.50612160333484" lon="11.60817454991041"><ele>150.0</ele><time>2026-04-04T09:00:41Z</time></trkpt><trkpt lat="43.50631084134755" lon="11.608315080090883"><ele>150.0</ele><time>2026-04-04T09:00:43Z</time></trkpt><trkpt lat="43.50616256123679" lon="11.608110748914386"><ele>150.0</ele><time>2026-04-04T09:00:44Z</time></trkpt><trkpt lat="43.50607364529003" lon="11.608037745945596"><ele>150.0</ele><time>2026-04-04T09:00:45.999Z</time></trkpt><trkpt lat="43.50598706446929" lon="11.608011726624943"><ele>150.0</ele><time>2026-04-04T09:00:47.999Z</time></trkpt><trkpt lat="43.505994443810984" lon="11.607865599784258"><ele>150.0</ele><time>2026-04-04T09:00:48.999Z</time></trkpt><trkpt lat="43.50599926788223" lon="11.607715326553244"><ele>150.0</ele><time>2026-04-04T09:00:50.999Z</time></trkpt><trkpt lat="43.50601156335149" lon="11.607586415223654"><ele>150.0</ele><time>2026-04-04T09:00:52.999Z</time></trkpt><trkpt lat="43.5061108735872" lon="11.607540140177234"><ele>150.4</ele><time>2026-04-04T09:00:53.999Z</time></trkpt><trkpt lat="43.506139334565646" lon="11.607408179011479"><ele>150.8</ele><time>2026-04-04T09:00:55.999Z</time></trkpt><trkpt lat="43.50616559923791" lon="11.607271833230136"><ele>151.2</ele><time>2026-04-04T09:00:57.999Z</time></trkpt><trkpt lat="43.50618437758667" lon="11.607134241643264"><ele>151.6</ele><time>2026-04-04T09:00:59.999Z</time></trkpt><trkpt lat="43.506216170498405" lon="11.6069998762688"><ele>152.0</ele><time>2026-04-04T09:01:01.999Z</time></trkpt><trkpt lat="43.5062353488585" lon="11.606863097031786"><ele>152.2</ele><time>2026-04-04T09:01:03.999Z</time></trkpt><trkpt lat="43.506255457075376" lon="11.60672823103292"><ele>152.39999999999998</ele><time>2026-04-04T09:01:05.999Z</time></trkpt><trkpt lat="43.50628023970094" lon="11.606596581972331"><ele>152.60000000000002</ele><time>2026-04-04T09:01:07.999Z</time></trkpt><trkpt lat="43.506305033229694" lon="11.606455065983333"><ele>152.8</ele><time>2026-04-04T09:01:09.999Z</time></trkpt><trkpt lat="43.50632474460711" lon="11.606320827035884"><ele>153.0</ele><time>2026-04-04T09:01:11.999Z</time></trkpt><trkpt lat="43.50635358053198" lon="11.60618803167957"><ele>152.8</ele><time>2026-04-04T09:01:13.999Z</time></trkpt><trkpt lat="43.506379210050945" lon="11.606052231410827"><ele>152.60000000000002</ele><time>2026-04-04T09:01:15.999Z</time></trkpt><trkpt lat="43.50640883644863" lon="11.605917035880159"><ele>152.39999999999998</ele><time>2026-04-04T09:01:17.999Z</time></trkpt><trkpt lat="43.50644046097273" lon="11.605784413116615"><ele>152.2</ele><time>2026-04-04T09:01:19.999Z</time></trkpt><trkpt lat="43.50647069917847" lon="11.605658949861567"><ele>152.0</ele><time>2026-04-04T09:01:21.999Z</time></trkpt><trkpt lat="43.50649824772467" lon="11.605532236293701"><ele>152.0</ele><time>2026-04-04T09:01:23.999Z</time></trkpt><trkpt lat="43.50652381608115" lon="11.605419012723617"><ele>152.0</ele><time>2026-04-04T09:01:25.999Z</time></trkpt><trkpt lat="43.50655221490101" lon="11.605313125123969"><ele>152.0</ele><time>2026-04-04T09:01:27.999Z</time></trkpt><trkpt lat="43.50657345901821" lon="11.605209315521535"><ele>152.0</ele><time>2026-04-04T09:01:29.999Z</time></trkpt><trkpt lat="43.506598022490486" lon="11.605114931125815"><ele>152.0</ele><time>2026-04-04T09:01:31.998Z</time></trkpt><trkpt lat="43.506622487521966" lon="11.605021509653508"><ele>152.0</ele><time>2026-04-04T09:01:33.998Z</time></trkpt><trkpt lat="43.506649533296645" lon="11.604915744034521"><ele>151.79999999999998</ele><time>2026-04-04T09:01:35.998Z</time></trkpt><trkpt lat="43.506679479437366" lon="11.604808288942756"><ele>151.6</ele><time>2026-04-04T09:01:37.998Z</time></trkpt><trkpt lat="43.50670808831487" lon="11.604693362737942"><ele>151.39999999999998</ele><time>2026-04-04T09:01:39.998Z</time></trkpt><trkpt lat="43.50675004019835" lon="11.604566137224651"><ele>151.2</ele><time>2026-04-04T09:01:41.998Z</time></trkpt><trkpt lat="43.50679671812042" lon="11.604414874587297"><ele>151.0</ele><time>2026-04-04T09:01:43.998Z</time></trkpt><trkpt lat="43.5068313466931" lon="11.604243113286634"><ele>151.2857142857143</ele><time>2026-04-04T09:01:45.998Z</time></trkpt><trkpt lat="43.506855459526726" lon="11.60415558898056"><ele>151.57142857142858</ele><time>2026-04-04T09:01:46.998Z</time></trkpt><trkpt lat="43.50688385993799" lon="11.604065138266407"><ele>151.85714285714286</ele><time>2026-04-04T09:01:47.998Z</time></trkpt><trkpt lat="43.50690928735777" lon="11.603976997020352"><ele>152.14285714285717</ele><time>2026-04-04T09:01:48.998Z</time></trkpt><trkpt lat="43.50693317474474" lon="11.603886105398166"><ele>152.42857142857144</ele><time>2026-04-04T09:01:49.998Z</time></trkpt><trkpt lat="43.5069582520202" lon="11.603794100336497"><ele>152.71428571428572</ele><time>2026-04-04T09:01:50.998Z</time></trkpt><trkpt lat="43.506974169931006" lon="11.60370572891525"><ele>153.0</ele><time>2026-04-04T09:01:51.998Z</time></trkpt><trkpt lat="43.50700100545303" lon="11.603618060074878"><ele>153.0</ele><time>2026-04-04T09:01:52.998Z</time></trkpt><trkpt lat="43.50702510828527" lon="11.60352774826288"><ele>153.0</ele><time>2026-04-04T09:01:53.998Z</time></trkpt><trkpt lat="43.50705019802035" lon="11.603439835496827"><ele>153.0</ele><time>2026-04-04T09:01:54.998Z</time></trkpt><trkpt lat="43.507077241084346" lon="11.603352793812464"><ele>153.0</ele><time>2026-04-04T09:01:55.998Z</time></trkpt><trkpt lat="43.50709925245895" lon="11.603266358186811"><ele>153.0</ele><time>2026-04-04T09:01:56.998Z</time></trkpt><trkpt lat="43.50712723048794" lon="11.603183109664503"><ele>153.0</ele><time>2026-04-04T09:01:57.998Z</time></trkpt><trkpt lat="43.50715533353931" lon="11.603101476546783"><ele>153.0</ele><time>2026-04-04T09:01:58.998Z</time></trkpt><trkpt lat="43.50718001077035" lon="11.603014400070304"><ele>152.66666666666666</ele><time>2026-04-04T09:01:59.998Z</time></trkpt><trkpt lat="43.507206214655376" lon="11.602930790380903"><ele>152.33333333333334</ele><time>2026-04-04T09:02:00.998Z</time></trkpt><trkpt lat="43.507230096124886" lon="11.60284829963894"><ele>152.0</ele><time>2026-04-04T09:02:01.998Z</time></trkpt><trkpt lat="43.50725849888672" lon="11.602765824336009"><ele>151.66666666666669</ele><time>2026-04-04T09:02:02.998Z</time></trkpt><trkpt lat="43.507287754310404" lon="11.602688022899036"><ele>151.33333333333334</ele><time>2026-04-04T09:02:03.998Z</time></trkpt><trkpt lat="43.507336576990575" lon="11.602533706397505"><ele>151.0</ele><time>2026-04-04T09:02:05.998Z</time></trkpt><trkpt lat="43.50738519276046" lon="11.602394236234984"><ele>151.0</ele><time>2026-04-04T09:02:07.998Z</time></trkpt><trkpt lat="43.5074332892697" lon="11.602256360589724"><ele>151.0</ele><time>2026-04-04T09:02:09.998Z</time></trkpt><trkpt lat="43.507484140663784" lon="11.602128688874085"><ele>151.0</ele><time>2026-04-04T09:02:11.998Z</time></trkpt><trkpt lat="43.50753777949484" lon="11.601993521627369"><ele>151.0</ele><time>2026-04-04T09:02:13.998Z</time></trkpt><trkpt lat="43.50761992965225" lon="11.601863207914203"><ele>151.0</ele><time>2026-04-04T09:02:16Z</time></trkpt><trkpt lat="43.507678325756295" lon="11.601718322556591"><ele>151.0</ele><time>2026-04-04T09:02:18Z</time></trkpt><trkpt lat="43.50775041338427" lon="11.601586740524574"><ele>151.0</ele><time>2026-04-04T09:02:20Z</time></trkpt><trkpt lat="43.50778788582919" lon="11.601516454406827"><ele>151.0</ele><time>2026-04-04T09:02:21Z</time></trkpt><trkpt lat="43.50786879021509" lon="11.601393894445614"><ele>151.0</ele><time>2026-04-04T09:02:23Z</time></trkpt><trkpt lat="43.50794252528246" lon="11.601258375998293"><ele>151.0</ele><time>2026-04-04T09:02:25Z</time></trkpt><trkpt lat="43.508015279557014" lon="11.601126770363324"><ele>151.0</ele><time>2026-04-04T09:02:27Z</time></trkpt><trkpt lat="43.50807816730334" lon="11.600995133747148"><ele>151.0</ele><time>2026-04-04T09:02:29Z</time></trkpt><trkpt lat="43.50814655217393" lon="11.600872778818893"><ele>151.0</ele><time>2026-04-04T09:02:31Z</time></trkpt><trkpt lat="43.50820758715419" lon="11.6007419514397"><ele>151.0</ele><time>2026-04-04T09:02:33Z</time></trkpt><trkpt lat="43.508273298169" lon="11.6006172897839"><ele>151.0</ele><time>2026-04-04T09:02:35Z</time></trkpt><trkpt lat="43.50834060630032" lon="11.600497991271329"><ele>151.0</ele><time>2026-04-04T09:02:37Z</time></trkpt><trkpt lat="43.50840196372588" lon="11.600373561605853"><ele>151.0</ele><time>2026-04-04T09:02:39Z</time></trkpt><trkpt lat="43.50846459512107" lon="11.600251654340964"><ele>151.0</ele><time>2026-04-04T09:02:41Z</time></trkpt><trkpt lat="43.50852664929151" lon="11.60014112230231"><ele>151.0</ele><time>2026-04-04T09:02:43Z</time></trkpt><trkpt lat="43.50858964820062" lon="11.600028284169111"><ele>151.0</ele><time>2026-04-04T09:02:45Z</time></trkpt><trkpt lat="43.50865425519029" lon="11.599922699891138"><ele>151.0</ele><time>2026-04-04T09:02:47Z</time></trkpt><trkpt lat="43.508713400134326" lon="11.599815496693678"><ele>151.0</ele><time>2026-04-04T09:02:49Z</time></trkpt><trkpt lat="43.50876993680166" lon="11.599706054811163"><ele>151.0</ele><time>2026-04-04T09:02:51Z</time></trkpt><trkpt lat="43.508828242587335" lon="11.59960076323149"><ele>151.16666666666669</ele><time>2026-04-04T09:02:52.999Z</time></trkpt><trkpt lat="43.50888048418967" lon="11.599491100223714"><ele>151.33333333333334</ele><time>2026-04-04T09:02:54.999Z</time></trkpt><trkpt lat="43.508936785221756" lon="11.599390874034896"><ele>151.5</ele><time>2026-04-04T09:02:56.999Z</time></trkpt><trkpt lat="43.50899462818099" lon="11.599296639324207"><ele>151.66666666666666</ele><time>2026-04-04T09:02:58.999Z</time></trkpt><trkpt lat="43.509040030516694" lon="11.599202752473042"><ele>151.83333333333331</ele><time>2026-04-04T09:03:00.999Z</time></trkpt><trkpt lat="43.50908396866614" lon="11.599121553771582"><ele>152.0</ele><time>2026-04-04T09:03:02.999Z</time></trkpt><trkpt lat="43.509127681083505" lon="11.599048661327206"><ele>152.0</ele><time>2026-04-04T09:03:04.999Z</time></trkpt><trkpt lat="43.509187742199536" lon="11.598944703254858"><ele>152.0</ele><time>2026-04-04T09:03:07.999Z</time></trkpt><trkpt lat="43.50924901801957" lon="11.598894970755675"><ele>152.0</ele><time>2026-04-04T09:03:10.999Z</time></trkpt><trkpt lat="43.5093643192337" lon="11.598975688093411"><ele>152.0</ele><time>2026-04-04T09:03:12.999Z</time></trkpt><trkpt lat="43.5094143292339" lon="11.599043043235948"><ele>152.0</ele><time>2026-04-04T09:03:14.999Z</time></trkpt><trkpt lat="43.509455088922884" lon="11.59911009406819"><ele>152.0</ele><time>2026-04-04T09:03:16.999Z</time></trkpt><trkpt lat="43.5094945531968" lon="11.598975790406012"><ele>152.0</ele><time>2026-04-04T09:03:24.999Z</time></trkpt><trkpt lat="43.50944471562414" lon="11.598921995229457"><ele>152.0</ele><time>2026-04-04T09:03:27.999Z</time></trkpt><trkpt lat="43.509376919708984" lon="11.59884992557792"><ele>152.0</ele><time>2026-04-04T09:03:30.999Z</time></trkpt><trkpt lat="43.50937025077264" lon="11.598735294347549"><ele>152.0</ele><time>2026-04-04T09:03:34.999Z</time></trkpt><trkpt lat="43.50937506055209" lon="11.598633303577348"><ele>152.0</ele><time>2026-04-04T09:05:52.998Z</time></trkpt><trkpt lat="43.50938476339543" lon="11.598545556646666"><ele>152.0</ele><time>2026-04-04T09:05:54.998Z</time></trkpt><trkpt lat="43.509500735602536" lon="11.598472500724409"><ele>152.0</ele><time>2026-04-04T09:05:56.998Z</time></trkpt><trkpt lat="43.50955872311106" lon="11.598372581749725"><ele>152.0</ele><time>2026-04-04T09:05:58.998Z</time></trkpt><trkpt lat="43.50962462891696" lon="11.598269967924974"><ele>152.0</ele><time>2026-04-04T09:06:00.998Z</time></trkpt><trkpt lat="43.50969665306865" lon="11.598167233123737"><ele>152.0</ele><time>2026-04-04T09:06:02.998Z</time></trkpt><trkpt lat="43.509774857532626" lon="11.59806403406874"><ele>152.0</ele><time>2026-04-04T09:06:04.998Z</time></trkpt><trkpt lat="43.509856085895144" lon="11.597962663837071"><ele>151.79999999999998</ele><time>2026-04-04T09:06:06.998Z</time></trkpt><trkpt lat="43.50993212530864" lon="11.597849941838"><ele>151.6</ele><time>2026-04-04T09:06:08.998Z</time></trkpt><trkpt lat="43.510019062093825" lon="11.59773382460551"><ele>151.39999999999998</ele><time>2026-04-04T09:06:10.998Z</time></trkpt><trkpt lat="43.51010776272232" lon="11.597612974565534"><ele>151.2</ele><time>2026-04-04T09:06:12.998Z</time></trkpt><trkpt lat="43.51015510232637" lon="11.597551415238962"><ele>151.0</ele><time>2026-04-04T09:06:13.998Z</time></trkpt><trkpt lat="43.51020003353848" lon="11.597486526561577"><ele>150.85714285714286</ele><time>2026-04-04T09:06:14.998Z</time></trkpt><trkpt lat="43.5102462810808" lon="11.597423998483096"><ele>150.71428571428572</ele><time>2026-04-04T09:06:15.998Z</time></trkpt><trkpt lat="43.51029251254257" lon="11.59735946629077"><ele>150.57142857142856</ele><time>2026-04-04T09:06:16.998Z</time></trkpt><trkpt lat="43.51033981270439" lon="11.59729846753021"><ele>150.42857142857144</ele><time>2026-04-04T09:06:17.998Z</time></trkpt><trkpt lat="43.51038731720132" lon="11.597239048441041"><ele>150.28571428571428</ele><time>2026-04-04T09:06:18.998Z</time></trkpt><trkpt lat="43.51043240406119" lon="11.597175497865315"><ele>150.14285714285714</ele><time>2026-04-04T09:06:19.998Z</time></trkpt><trkpt lat="43.51048137296332" lon="11.597119754654633"><ele>150.0</ele><time>2026-04-04T09:06:20.998Z</time></trkpt><trkpt lat="43.51052683611496" lon="11.597056626559402"><ele>149.6</ele><time>2026-04-04T09:06:21.998Z</time></trkpt><trkpt lat="43.51056677970163" lon="11.596987273451159"><ele>149.2</ele><time>2026-04-04T09:06:22.998Z</time></trkpt><trkpt lat="43.51065017034568" lon="11.59686176337282"><ele>148.8</ele><time>2026-04-04T09:06:24.998Z</time></trkpt><trkpt lat="43.51074430043699" lon="11.596748982166414"><ele>148.4</ele><time>2026-04-04T09:06:26.998Z</time></trkpt><trkpt lat="43.51079193443614" lon="11.596688260797299"><ele>148.0</ele><time>2026-04-04T09:06:28Z</time></trkpt><trkpt lat="43.51087645976734" lon="11.596560024970634"><ele>148.0</ele><time>2026-04-04T09:06:30Z</time></trkpt><trkpt lat="43.51092160983124" lon="11.59649881352906"><ele>148.0</ele><time>2026-04-04T09:06:31Z</time></trkpt><trkpt lat="43.51100923483465" lon="11.5963823297563"><ele>148.0</ele><time>2026-04-04T09:06:33Z</time></trkpt><trkpt lat="43.51109194001489" lon="11.59626086798984"><ele>148.0</ele><time>2026-04-04T09:06:35Z</time></trkpt><trkpt lat="43.51117782727245" lon="11.596143227980644"><ele>148.0</ele><time>2026-04-04T09:06:37Z</time></trkpt><trkpt lat="43.51126575636751" lon="11.596031322419112"><ele>148.0</ele><time>2026-04-04T09:06:39Z</time></trkpt><trkpt lat="43.511343653373835" lon="11.595909527319002"><ele>148.0</ele><time>2026-04-04T09:06:41Z</time></trkpt><trkpt lat="43.51141530102708" lon="11.59578257478792"><ele>148.0</ele><time>2026-04-04T09:06:43Z</time></trkpt><trkpt lat="43.51150251855484" lon="11.595674746168667"><ele>148.0</ele><time>2026-04-04T09:06:45Z</time></trkpt><trkpt lat="43.5115850812357" lon="11.595561583780157"><ele>148.0</ele><time>2026-04-04T09:06:47Z</time></trkpt><trkpt lat="43.51167289553845" lon="11.59545061687783"><ele>148.0</ele><time>2026-04-04T09:06:49Z</time></trkpt><trkpt lat="43.51175348630924" lon="11.595335329756487"><ele>148.0</ele><time>2026-04-04T09:06:51Z</time></trkpt><trkpt lat="43.511833719221144" lon="11.595220565466894"><ele>148.0</ele><time>2026-04-04T09:06:53Z</time></trkpt><trkpt lat="43.51191555742906" lon="11.59511669080133"><ele>148.0</ele><time>2026-04-04T09:06:55Z</time></trkpt><trkpt lat="43.51199954436598" lon="11.595010126879906"><ele>148.0</ele><time>2026-04-04T09:06:57Z</time></trkpt><trkpt lat="43.51208172280594" lon="11.594896881175133"><ele>148.0</ele><time>2026-04-04T09:06:59Z</time></trkpt><trkpt lat="43.51216304104378" lon="11.594791900452984"><ele>148.0</ele><time>2026-04-04T09:07:01Z</time></trkpt><trkpt lat="43.51224628631095" lon="11.594684415025936"><ele>148.5</ele><time>2026-04-04T09:07:03Z</time></trkpt><trkpt lat="43.512331956351204" lon="11.59457117439232"><ele>149.0</ele><time>2026-04-04T09:07:04.999Z</time></trkpt><trkpt lat="43.51241706596557" lon="11.59445594874862"><ele>149.5</ele><time>2026-04-04T09:07:06.999Z</time></trkpt><trkpt lat="43.512505161997815" lon="11.594340722245692"><ele>150.0</ele><time>2026-04-04T09:07:08.999Z</time></trkpt><trkpt lat="43.5125888019811" lon="11.594221931548645"><ele>150.0</ele><time>2026-04-04T09:07:10.999Z</time></trkpt><trkpt lat="43.512671676246995" lon="11.594101095168787"><ele>150.0</ele><time>2026-04-04T09:07:12.999Z</time></trkpt><trkpt lat="43.51275800006338" lon="11.593980029398438"><ele>150.0</ele><time>2026-04-04T09:07:14.999Z</time></trkpt><trkpt lat="43.51283556074868" lon="11.59386100627648"><ele>150.0</ele><time>2026-04-04T09:07:16.999Z</time></trkpt><trkpt lat="43.51291357098343" lon="11.593747905088334"><ele>150.2</ele><time>2026-04-04T09:07:18.999Z</time></trkpt><trkpt lat="43.51299429672701" lon="11.593642062798667"><ele>150.4</ele><time>2026-04-04T09:07:20.999Z</time></trkpt><trkpt lat="43.513075851753655" lon="11.593537123267287"><ele>150.6</ele><time>2026-04-04T09:07:22.999Z</time></trkpt><trkpt lat="43.5131626266594" lon="11.593437808347845"><ele>150.8</ele><time>2026-04-04T09:07:24.999Z</time></trkpt><trkpt lat="43.513240767753565" lon="11.593328936395803"><ele>151.0</ele><time>2026-04-04T09:07:26.999Z</time></trkpt><trkpt lat="43.513316244421695" lon="11.593220201477108"><ele>151.0</ele><time>2026-04-04T09:07:28.999Z</time></trkpt><trkpt lat="43.5133905153877" lon="11.593113533933598"><ele>151.0</ele><time>2026-04-04T09:07:30.999Z</time></trkpt><trkpt lat="43.5134645040206" lon="11.593008226441821"><ele>151.0</ele><time>2026-04-04T09:07:32.999Z</time></trkpt><trkpt lat="43.5135352316141" lon="11.592895343090406"><ele>151.0</ele><time>2026-04-04T09:07:34.999Z</time></trkpt><trkpt lat="43.51360226285439" lon="11.59278466865775"><ele>151.0</ele><time>2026-04-04T09:07:36.999Z</time></trkpt><trkpt lat="43.51367002747208" lon="11.592677949648648"><ele>150.6</ele><time>2026-04-04T09:07:38.999Z</time></trkpt><trkpt lat="43.51374867529246" lon="11.592573534182932"><ele>150.2</ele><time>2026-04-04T09:07:40.999Z</time></trkpt><trkpt lat="43.51381877400429" lon="11.592471789743891"><ele>149.8</ele><time>2026-04-04T09:07:42.999Z</time></trkpt><trkpt lat="43.51387689125733" lon="11.59237243247866"><ele>149.4</ele><time>2026-04-04T09:07:44.999Z</time></trkpt><trkpt lat="43.5139336544059" lon="11.592282087823957"><ele>149.0</ele><time>2026-04-04T09:07:46.999Z</time></trkpt><trkpt lat="43.51399185336866" lon="11.592192177902414"><ele>149.0</ele><time>2026-04-04T09:07:48.999Z</time></trkpt><trkpt lat="43.514053251571255" lon="11.592102255594687"><ele>149.0</ele><time>2026-04-04T09:07:50.999Z</time></trkpt><trkpt lat="43.51411732293838" lon="11.592003131288086"><ele>149.0</ele><time>2026-04-04T09:07:52.998Z</time></trkpt><trkpt lat="43.51417999838046" lon="11.591900168418778"><ele>149.0</ele><time>2026-04-04T09:07:54.998Z</time></trkpt><trkpt lat="43.51425128543898" lon="11.591796064682748"><ele>149.0</ele><time>2026-04-04T09:07:56.998Z</time></trkpt><trkpt lat="43.51432367535805" lon="11.591692706837366"><ele>149.2</ele><time>2026-04-04T09:07:58.998Z</time></trkpt><trkpt lat="43.51439905603789" lon="11.591589926403678"><ele>149.4</ele><time>2026-04-04T09:08:00.998Z</time></trkpt><trkpt lat="43.51447206377682" lon="11.591480472430554"><ele>149.6</ele><time>2026-04-04T09:08:02.998Z</time></trkpt><trkpt lat="43.514556296065145" lon="11.591369762142243"><ele>149.8</ele><time>2026-04-04T09:08:04.998Z</time></trkpt><trkpt lat="43.514639905165225" lon="11.591259083698862"><ele>150.0</ele><time>2026-04-04T09:08:06.998Z</time></trkpt><trkpt lat="43.51472507744335" lon="11.59114511097424"><ele>149.5</ele><time>2026-04-04T09:08:08.998Z</time></trkpt><trkpt lat="43.51480589049355" lon="11.591027342152337"><ele>149.0</ele><time>2026-04-04T09:08:10.998Z</time></trkpt><trkpt lat="43.514895423154584" lon="11.590912080889352"><ele>148.5</ele><time>2026-04-04T09:08:12.998Z</time></trkpt><trkpt lat="43.51497823470255" lon="11.5907984227933"><ele>148.0</ele><time>2026-04-04T09:08:14.998Z</time></trkpt><trkpt lat="43.515064797360886" lon="11.590682578230181"><ele>148.0</ele><time>2026-04-04T09:08:16.998Z</time></trkpt><trkpt lat="43.5151432202113" lon="11.590566780648434"><ele>148.0</ele><time>2026-04-04T09:08:18.998Z</time></trkpt><trkpt lat="43.5152282749325" lon="11.59045884081659"><ele>148.0</ele><time>2026-04-04T09:08:20.998Z</time></trkpt><trkpt lat="43.515310920822" lon="11.590347569845267"><ele>148.0</ele><time>2026-04-04T09:08:22.998Z</time></trkpt><trkpt lat="43.515393714680265" lon="11.590246412339397"><ele>147.33333333333334</ele><time>2026-04-04T09:08:24.998Z</time></trkpt><trkpt lat="43.515463897298766" lon="11.590147411942926"><ele>146.66666666666669</ele><time>2026-04-04T09:08:26.998Z</time></trkpt><trkpt lat="43.51550542567021" lon="11.590079713190129"><ele>146.0</ele><time>2026-04-04T09:08:28.998Z</time></trkpt><trkpt lat="43.51555498632548" lon="11.590008156508539"><ele>145.33333333333334</ele><time>2026-04-04T09:08:30.998Z</time></trkpt><trkpt lat="43.515620118911855" lon="11.589920151927284"><ele>144.66666666666666</ele><time>2026-04-04T09:08:32.998Z</time></trkpt><trkpt lat="43.515676664059946" lon="11.589809090402047"><ele>144.0</ele><time>2026-04-04T09:08:35Z</time></trkpt><trkpt lat="43.51574203925107" lon="11.589696719488495"><ele>144.0</ele><time>2026-04-04T09:08:37Z</time></trkpt><trkpt lat="43.515787175895156" lon="11.589567783491175"><ele>144.0</ele><time>2026-04-04T09:08:39Z</time></trkpt><trkpt lat="43.51583329876434" lon="11.589439356910626"><ele>144.0</ele><time>2026-04-04T09:08:41Z</time></trkpt><trkpt lat="43.51587756023786" lon="11.589301659002746"><ele>144.0</ele><time>2026-04-04T09:08:43Z</time></trkpt><trkpt lat="43.51592629188024" lon="11.589162748079756"><ele>144.0</ele><time>2026-04-04T09:08:45Z</time></trkpt><trkpt lat="43.51597159876847" lon="11.589025061844918"><ele>144.6</ele><time>2026-04-04T09:08:47Z</time></trkpt><trkpt lat="43.51600995384201" lon="11.588880653391286"><ele>145.2</ele><time>2026-04-04T09:08:49Z</time></trkpt><trkpt lat="43.5160587822429" lon="11.588743535242061"><ele>145.79999999999998</ele><time>2026-04-04T09:08:51Z</time></trkpt><trkpt lat="43.516102863057" lon="11.588600725047739"><ele>146.4</ele><time>2026-04-04T09:08:53Z</time></trkpt><trkpt lat="43.5161436022027" lon="11.588462948570577"><ele>147.0</ele><time>2026-04-04T09:08:55Z</time></trkpt><trkpt lat="43.516184164757036" lon="11.588322954405395"><ele>146.79999999999998</ele><time>2026-04-04T09:08:57Z</time></trkpt><trkpt lat="43.51622740717841" lon="11.588180365073288"><ele>146.6</ele><time>2026-04-04T09:08:59Z</time></trkpt><trkpt lat="43.51627178818657" lon="11.588037669041144"><ele>146.39999999999998</ele><time>2026-04-04T09:09:01Z</time></trkpt><trkpt lat="43.51631799709199" lon="11.58789137862116"><ele>146.2</ele><time>2026-04-04T09:09:03Z</time></trkpt><trkpt lat="43.51636110594646" lon="11.58775583160082"><ele>146.0</ele><time>2026-04-04T09:09:05Z</time></trkpt><trkpt lat="43.51641040946912" lon="11.58762036027798"><ele>146.4</ele><time>2026-04-04T09:09:07Z</time></trkpt><trkpt lat="43.516446274918614" lon="11.587481700607379"><ele>146.8</ele><time>2026-04-04T09:09:09Z</time></trkpt><trkpt lat="43.516485987146176" lon="11.587343821951288"><ele>147.20000000000002</ele><time>2026-04-04T09:09:10.999Z</time></trkpt><trkpt lat="43.51653407649457" lon="11.5872088174077"><ele>147.6</ele><time>2026-04-04T09:09:12.999Z</time></trkpt><trkpt lat="43.51657766262233" lon="11.58707007980764"><ele>148.0</ele><time>2026-04-04T09:09:14.999Z</time></trkpt><trkpt lat="43.516615332806765" lon="11.586922003363812"><ele>148.25</ele><time>2026-04-04T09:09:16.999Z</time></trkpt><trkpt lat="43.51665677384576" lon="11.58678170181287"><ele>148.5</ele><time>2026-04-04T09:09:18.999Z</time></trkpt><trkpt lat="43.51669787921602" lon="11.586634049289458"><ele>148.75</ele><time>2026-04-04T09:09:20.999Z</time></trkpt><trkpt lat="43.51674022689911" lon="11.586492003274293"><ele>149.0</ele><time>2026-04-04T09:09:22.999Z</time></trkpt><trkpt lat="43.51678344547738" lon="11.586341895998155"><ele>149.0</ele><time>2026-04-04T09:09:24.999Z</time></trkpt><trkpt lat="43.51682734597369" lon="11.586200757812591"><ele>149.0</ele><time>2026-04-04T09:09:26.999Z</time></trkpt><trkpt lat="43.516869208230986" lon="11.586052658349821"><ele>149.0</ele><time>2026-04-04T09:09:28.999Z</time></trkpt><trkpt lat="43.51691415714894" lon="11.585906114956172"><ele>149.0</ele><time>2026-04-04T09:09:30.999Z</time></trkpt><trkpt lat="43.516956110054004" lon="11.585761586621732"><ele>149.0</ele><time>2026-04-04T09:09:32.999Z</time></trkpt><trkpt lat="43.51700044332494" lon="11.585624613936806"><ele>149.0</ele><time>2026-04-04T09:09:34.999Z</time></trkpt><trkpt lat="43.517035760640105" lon="11.585495031948218"><ele>149.0</ele><time>2026-04-04T09:09:36.999Z</time></trkpt><trkpt lat="43.51708188848634" lon="11.585365176137367"><ele>149.0</ele><time>2026-04-04T09:09:38.999Z</time></trkpt><trkpt lat="43.517141349347774" lon="11.585237042525847"><ele>149.0</ele><time>2026-04-04T09:09:40.999Z</time></trkpt><trkpt lat="43.517177266260944" lon="11.585086037827208"><ele>148.75</ele><time>2026-04-04T09:09:42.999Z</time></trkpt><trkpt lat="43.5172152369144" lon="11.584935133597954"><ele>148.5</ele><time>2026-04-04T09:09:44.999Z</time></trkpt><trkpt lat="43.51727129767487" lon="11.58479541196696"><ele>148.25</ele><time>2026-04-04T09:09:46.999Z</time></trkpt><trkpt lat="43.517304938648444" lon="11.584644677343213"><ele>148.0</ele><time>2026-04-04T09:09:48.999Z</time></trkpt><trkpt lat="43.51734586367309" lon="11.584493009586744"><ele>148.0</ele><time>2026-04-04T09:09:50.999Z</time></trkpt><trkpt lat="43.51739581391321" lon="11.584348889393084"><ele>148.0</ele><time>2026-04-04T09:09:52.999Z</time></trkpt><trkpt lat="43.51743839529686" lon="11.584200047727208"><ele>148.0</ele><time>2026-04-04T09:09:54.999Z</time></trkpt><trkpt lat="43.51747566348168" lon="11.584055768803522"><ele>148.0</ele><time>2026-04-04T09:09:56.999Z</time></trkpt><trkpt lat="43.517512394891384" lon="11.58391005139709"><ele>148.0</ele><time>2026-04-04T09:09:58.999Z</time></trkpt><trkpt lat="43.51756277957969" lon="11.583771551285473"><ele>148.0</ele><time>2026-04-04T09:10:00.998Z</time></trkpt><trkpt lat="43.51760616417771" lon="11.583630731536525"><ele>148.0</ele><time>2026-04-04T09:10:02.998Z</time></trkpt><trkpt lat="43.51765675473295" lon="11.583492205884545"><ele>148.0</ele><time>2026-04-04T09:10:04.998Z</time></trkpt><trkpt lat="43.51769450601174" lon="11.583351661585926"><ele>148.0</ele><time>2026-04-04T09:10:06.998Z</time></trkpt><trkpt lat="43.51773454607173" lon="11.58320451534162"><ele>148.25</ele><time>2026-04-04T09:10:08.998Z</time></trkpt><trkpt lat="43.517773650232854" lon="11.5830611677359"><ele>148.5</ele><time>2026-04-04T09:10:10.998Z</time></trkpt><trkpt lat="43.51780788052358" lon="11.582909416695271"><ele>148.75</ele><time>2026-04-04T09:10:12.998Z</time></trkpt><trkpt lat="43.51785666358862" lon="11.58276656761329"><ele>149.0</ele><time>2026-04-04T09:10:14.998Z</time></trkpt><trkpt lat="43.51790500698071" lon="11.582622967007584"><ele>148.25</ele><time>2026-04-04T09:10:16.998Z</time></trkpt><trkpt lat="43.5179518205458" lon="11.582478550485817"><ele>147.5</ele><time>2026-04-04T09:10:18.998Z</time></trkpt><trkpt lat="43.517993645965596" lon="11.58233470166984"><ele>146.75</ele><time>2026-04-04T09:10:20.998Z</time></trkpt><trkpt lat="43.518038179256195" lon="11.582190034492408"><ele>146.0</ele><time>2026-04-04T09:10:22.998Z</time></trkpt><trkpt lat="43.51808038647797" lon="11.582040580194054"><ele>146.0</ele><time>2026-04-04T09:10:24.998Z</time></trkpt><trkpt lat="43.51812480836812" lon="11.58189155678409"><ele>146.0</ele><time>2026-04-04T09:10:26.998Z</time></trkpt><trkpt lat="43.518166023299486" lon="11.581740181645921"><ele>146.0</ele><time>2026-04-04T09:10:28.998Z</time></trkpt><trkpt lat="43.51820746355734" lon="11.581594617243201"><ele>146.0</ele><time>2026-04-04T09:10:30.998Z</time></trkpt><trkpt lat="43.51824564014326" lon="11.5814475337469"><ele>146.0</ele><time>2026-04-04T09:10:32.998Z</time></trkpt><trkpt lat="43.51828608806838" lon="11.581303826477265"><ele>146.0</ele><time>2026-04-04T09:10:34.998Z</time></trkpt><trkpt lat="43.51832705742383" lon="11.581161007255297"><ele>146.0</ele><time>2026-04-04T09:10:36.998Z</time></trkpt><trkpt lat="43.51836978203785" lon="11.581021549673414"><ele>146.0</ele><time>2026-04-04T09:10:38.998Z</time></trkpt><trkpt lat="43.518413435048025" lon="11.580887076680613"><ele>146.0</ele><time>2026-04-04T09:10:41Z</time></trkpt><trkpt lat="43.51845050966862" lon="11.580745136512881"><ele>146.8</ele><time>2026-04-04T09:10:43Z</time></trkpt><trkpt lat="43.51849393468013" lon="11.580609382662823"><ele>147.6</ele><time>2026-04-04T09:10:45Z</time></trkpt><trkpt lat="43.51852972672549" lon="11.58047145183152"><ele>148.4</ele><time>2026-04-04T09:10:47Z</time></trkpt><trkpt lat="43.51857131881286" lon="11.580342268140782"><ele>149.2</ele><time>2026-04-04T09:10:49Z</time></trkpt><trkpt lat="43.51861065801153" lon="11.580216347187124"><ele>150.0</ele><time>2026-04-04T09:10:51Z</time></trkpt><trkpt lat="43.51865510457019" lon="11.5800895981653"><ele>150.2</ele><time>2026-04-04T09:10:53Z</time></trkpt><trkpt lat="43.51869128285009" lon="11.579958993810807"><ele>150.4</ele><time>2026-04-04T09:10:55Z</time></trkpt><trkpt lat="43.518725737820894" lon="11.579830398385045"><ele>150.6</ele><time>2026-04-04T09:10:57Z</time></trkpt><trkpt lat="43.518764904140426" lon="11.579700945299715"><ele>150.8</ele><time>2026-04-04T09:10:59Z</time></trkpt><trkpt lat="43.51880335962779" lon="11.579570969170934"><ele>151.0</ele><time>2026-04-04T09:11:01Z</time></trkpt><trkpt lat="43.51884238259593" lon="11.579439599191689"><ele>150.4</ele><time>2026-04-04T09:11:03Z</time></trkpt><trkpt lat="43.51888261249313" lon="11.579311703609518"><ele>149.8</ele><time>2026-04-04T09:11:05Z</time></trkpt><trkpt lat="43.51891814351703" lon="11.579172386602693"><ele>149.20000000000002</ele><time>2026-04-04T09:11:07Z</time></trkpt><trkpt lat="43.51896012919779" lon="11.579039818577883"><ele>148.6</ele><time>2026-04-04T09:11:09Z</time></trkpt><trkpt lat="43.51899980409674" lon="11.578899354753803"><ele>148.0</ele><time>2026-04-04T09:11:11Z</time></trkpt><trkpt lat="43.5190366816677" lon="11.578755792900893"><ele>148.0</ele><time>2026-04-04T09:11:13Z</time></trkpt><trkpt lat="43.51907888756258" lon="11.578609955071654"><ele>148.0</ele><time>2026-04-04T09:11:15Z</time></trkpt><trkpt lat="43.51911639188303" lon="11.57846292767628"><ele>148.0</ele><time>2026-04-04T09:11:16.999Z</time></trkpt><trkpt lat="43.51916353199337" lon="11.57831398226517"><ele>148.0</ele><time>2026-04-04T09:11:18.999Z</time></trkpt><trkpt lat="43.51920871647788" lon="11.578160739710711"><ele>148.0</ele><time>2026-04-04T09:11:20.999Z</time></trkpt><trkpt lat="43.51925563398156" lon="11.578005312364262"><ele>148.0</ele><time>2026-04-04T09:11:22.999Z</time></trkpt><trkpt lat="43.51930127782102" lon="11.577853379357412"><ele>148.0</ele><time>2026-04-04T09:11:24.999Z</time></trkpt><trkpt lat="43.51934726538007" lon="11.577701693836985"><ele>148.0</ele><time>2026-04-04T09:11:26.999Z</time></trkpt><trkpt lat="43.51938929423113" lon="11.57755253024996"><ele>148.0</ele><time>2026-04-04T09:11:28.999Z</time></trkpt><trkpt lat="43.51943420705333" lon="11.57739969761607"><ele>148.0</ele><time>2026-04-04T09:11:30.999Z</time></trkpt><trkpt lat="43.51947995143295" lon="11.577240638289528"><ele>148.0</ele><time>2026-04-04T09:11:32.999Z</time></trkpt><trkpt lat="43.519529603767076" lon="11.577083942390946"><ele>148.0</ele><time>2026-04-04T09:11:34.999Z</time></trkpt><trkpt lat="43.51957858369273" lon="11.576926485881053"><ele>148.0</ele><time>2026-04-04T09:11:36.999Z</time></trkpt><trkpt lat="43.51962476864285" lon="11.57676525626704"><ele>148.0</ele><time>2026-04-04T09:11:38.999Z</time></trkpt><trkpt lat="43.519668537925455" lon="11.576608238240809"><ele>148.0</ele><time>2026-04-04T09:11:40.999Z</time></trkpt><trkpt lat="43.519721139619115" lon="11.576444839309426"><ele>148.0</ele><time>2026-04-04T09:11:42.999Z</time></trkpt><trkpt lat="43.519766163129525" lon="11.576299103064706"><ele>148.0</ele><time>2026-04-04T09:11:44.999Z</time></trkpt><trkpt lat="43.519811343159716" lon="11.576152705262889"><ele>148.0</ele><time>2026-04-04T09:11:46.999Z</time></trkpt><trkpt lat="43.51985644585838" lon="11.576002959613804"><ele>148.0</ele><time>2026-04-04T09:11:48.999Z</time></trkpt><trkpt lat="43.519903266248825" lon="11.57585552900346"><ele>148.0</ele><time>2026-04-04T09:11:50.999Z</time></trkpt><trkpt lat="43.519949107973105" lon="11.575707411209793"><ele>148.0</ele><time>2026-04-04T09:11:52.999Z</time></trkpt><trkpt lat="43.51999282394371" lon="11.57556188046172"><ele>148.0</ele><time>2026-04-04T09:11:54.999Z</time></trkpt><trkpt lat="43.52003455078851" lon="11.575410985160682"><ele>148.0</ele><time>2026-04-04T09:11:56.999Z</time></trkpt><trkpt lat="43.52007607542475" lon="11.575264474392302"><ele>148.0</ele><time>2026-04-04T09:11:58.999Z</time></trkpt><trkpt lat="43.520118197014774" lon="11.575115989742192"><ele>148.25</ele><time>2026-04-04T09:12:00.999Z</time></trkpt><trkpt lat="43.52016581139569" lon="11.574967707195285"><ele>148.5</ele><time>2026-04-04T09:12:02.999Z</time></trkpt><trkpt lat="43.52020888900483" lon="11.57481631976371"><ele>148.75</ele><time>2026-04-04T09:12:04.998Z</time></trkpt><trkpt lat="43.5202535897399" lon="11.574661197889053"><ele>149.0</ele><time>2026-04-04T09:12:06.998Z</time></trkpt><trkpt lat="43.52030135104706" lon="11.5745117036871"><ele>149.25</ele><time>2026-04-04T09:12:08.998Z</time></trkpt><trkpt lat="43.520350626627256" lon="11.574364116047622"><ele>149.5</ele><time>2026-04-04T09:12:10.998Z</time></trkpt><trkpt lat="43.520392613903645" lon="11.574210997956593"><ele>149.75</ele><time>2026-04-04T09:12:12.998Z</time></trkpt><trkpt lat="43.52044055849671" lon="11.574059429700387"><ele>150.0</ele><time>2026-04-04T09:12:14.998Z</time></trkpt><trkpt lat="43.520483015332125" lon="11.573905734394579"><ele>149.5</ele><time>2026-04-04T09:12:16.998Z</time></trkpt><trkpt lat="43.52052497232558" lon="11.573752100077595"><ele>149.0</ele><time>2026-04-04T09:12:18.998Z</time></trkpt><trkpt lat="43.520573457297935" lon="11.573602733127652"><ele>148.5</ele><time>2026-04-04T09:12:20.998Z</time></trkpt><trkpt lat="43.52062173489835" lon="11.573448202319286"><ele>148.0</ele><time>2026-04-04T09:12:22.998Z</time></trkpt><trkpt lat="43.520668705914495" lon="11.573294905336772"><ele>148.0</ele><time>2026-04-04T09:12:24.998Z</time></trkpt><trkpt lat="43.52071594792499" lon="11.573141928327141"><ele>148.0</ele><time>2026-04-04T09:12:26.998Z</time></trkpt><trkpt lat="43.52075857630367" lon="11.5729913721424"><ele>148.0</ele><time>2026-04-04T09:12:28.998Z</time></trkpt><trkpt lat="43.5208038837423" lon="11.57284714156021"><ele>148.0</ele><time>2026-04-04T09:12:30.998Z</time></trkpt><trkpt lat="43.52085623576234" lon="11.572704049510666"><ele>148.5</ele><time>2026-04-04T09:12:32.998Z</time></trkpt><trkpt lat="43.52095047651615" lon="11.572610492365145"><ele>149.0</ele><time>2026-04-04T09:12:34.998Z</time></trkpt><trkpt lat="43.52105548019977" lon="11.572523363766035"><ele>149.5</ele><time>2026-04-04T09:12:36.998Z</time></trkpt><trkpt lat="43.52116462448222" lon="11.5724738841025"><ele>150.0</ele><time>2026-04-04T09:12:38.998Z</time></trkpt><trkpt lat="43.521287306124314" lon="11.572458039173622"><ele>150.0</ele><time>2026-04-04T09:12:40.998Z</time></trkpt><trkpt lat="43.52139428703359" lon="11.5723963009567"><ele>150.0</ele><time>2026-04-04T09:12:42.998Z</time></trkpt><trkpt lat="43.52150139942369" lon="11.572330332100664"><ele>150.0</ele><time>2026-04-04T09:12:44.998Z</time></trkpt><trkpt lat="43.521606171693435" lon="11.57226716809329"><ele>150.0</ele><time>2026-04-04T09:12:47Z</time></trkpt><trkpt lat="43.521719455508624" lon="11.572213543998451"><ele>150.0</ele><time>2026-04-04T09:12:49Z</time></trkpt><trkpt lat="43.5218286354859" lon="11.572151786452306"><ele>150.0</ele><time>2026-04-04T09:12:51Z</time></trkpt><trkpt lat="43.52193964583415" lon="11.5720902087516"><ele>150.0</ele><time>2026-04-04T09:12:53Z</time></trkpt><trkpt lat="43.5220433109838" lon="11.572023109130187"><ele>150.0</ele><time>2026-04-04T09:12:55Z</time></trkpt><trkpt lat="43.52215419375061" lon="11.57196828670891"><ele>150.0</ele><time>2026-04-04T09:12:57Z</time></trkpt><trkpt lat="43.52226501029998" lon="11.571915347873192"><ele>150.0</ele><time>2026-04-04T09:12:59Z</time></trkpt><trkpt lat="43.52236675873036" lon="11.571858395509047"><ele>150.0</ele><time>2026-04-04T09:13:01Z</time></trkpt><trkpt lat="43.52246807726436" lon="11.571800967220918"><ele>150.0</ele><time>2026-04-04T09:13:03Z</time></trkpt><trkpt lat="43.52255799258204" lon="11.57174887856089"><ele>150.0</ele><time>2026-04-04T09:13:05Z</time></trkpt><trkpt lat="43.5226192955924" lon="11.571710933245832"><ele>149.99999999999997</ele><time>2026-04-04T09:13:07Z</time></trkpt><trkpt lat="43.522685623900955" lon="11.571674055728138"><ele>150.0</ele><time>2026-04-04T09:13:10Z</time></trkpt><trkpt lat="43.52274751080551" lon="11.571641047904594"><ele>150.0</ele><time>2026-04-04T09:13:15Z</time></trkpt><trkpt lat="43.52280329167743" lon="11.571594598479036"><ele>150.0</ele><time>2026-04-04T09:13:42.999Z</time></trkpt><trkpt lat="43.52286708693946" lon="11.571560264285221"><ele>150.0</ele><time>2026-04-04T09:13:44.999Z</time></trkpt><trkpt lat="43.522938037360724" lon="11.571517284859427"><ele>149.99999999999997</ele><time>2026-04-04T09:13:46.999Z</time></trkpt><trkpt lat="43.52301185973404" lon="11.571470896206444"><ele>150.0</ele><time>2026-04-04T09:13:48.999Z</time></trkpt><trkpt lat="43.52308713913729" lon="11.571427895304055"><ele>150.0</ele><time>2026-04-04T09:13:50.999Z</time></trkpt><trkpt lat="43.52316781455021" lon="11.5713863408522"><ele>150.0</ele><time>2026-04-04T09:13:52.999Z</time></trkpt><trkpt lat="43.52324339429812" lon="11.57133796097479"><ele>150.0</ele><time>2026-04-04T09:13:54.999Z</time></trkpt><trkpt lat="43.52331580452042" lon="11.571275499779876"><ele>150.0</ele><time>2026-04-04T09:13:56.999Z</time></trkpt><trkpt lat="43.52339423632004" lon="11.571220171381714"><ele>150.0</ele><time>2026-04-04T09:13:58.999Z</time></trkpt><trkpt lat="43.5234655718987" lon="11.571157841530612"><ele>150.0</ele><time>2026-04-04T09:14:00.999Z</time></trkpt><trkpt lat="43.523539129269324" lon="11.571088090621162"><ele>150.0</ele><time>2026-04-04T09:14:02.999Z</time></trkpt><trkpt lat="43.52361279037846" lon="11.571015997291315"><ele>150.0</ele><time>2026-04-04T09:14:04.999Z</time></trkpt><trkpt lat="43.523690308603676" lon="11.570942619069973"><ele>150.0</ele><time>2026-04-04T09:14:06.999Z</time></trkpt><trkpt lat="43.523770183314255" lon="11.570863448558272"><ele>150.0</ele><time>2026-04-04T09:14:08.998Z</time></trkpt><trkpt lat="43.523854029144495" lon="11.570776742855637"><ele>150.0</ele><time>2026-04-04T09:14:10.998Z</time></trkpt><trkpt lat="43.52394755111088" lon="11.570684274498968"><ele>150.0</ele><time>2026-04-04T09:14:12.998Z</time></trkpt><trkpt lat="43.52404378531611" lon="11.570580011537064"><ele>150.0</ele><time>2026-04-04T09:14:14.998Z</time></trkpt><trkpt lat="43.52413500246641" lon="11.570467775076212"><ele>150.0</ele><time>2026-04-04T09:14:16.998Z</time></trkpt><trkpt lat="43.524186999335406" lon="11.570416282115083"><ele>150.0</ele><time>2026-04-04T09:14:17.998Z</time></trkpt><trkpt lat="43.52423822696367" lon="11.570362137560014"><ele>150.0</ele><time>2026-04-04T09:14:18.998Z</time></trkpt><trkpt lat="43.524291633074256" lon="11.570313276344805"><ele>150.0</ele><time>2026-04-04T09:14:19.998Z</time></trkpt><trkpt lat="43.524349266174234" lon="11.570275322626145"><ele>149.99999999999997</ele><time>2026-04-04T09:14:20.998Z</time></trkpt><trkpt lat="43.524407382561094" lon="11.570225369402856"><ele>150.0</ele><time>2026-04-04T09:14:21.998Z</time></trkpt><trkpt lat="43.52445901484825" lon="11.570167282610752"><ele>150.0</ele><time>2026-04-04T09:14:22.998Z</time></trkpt><trkpt lat="43.52451263032796" lon="11.570115811601548"><ele>150.0</ele><time>2026-04-04T09:14:23.998Z</time></trkpt><trkpt lat="43.52459258184143" lon="11.570043948072207"><ele>150.0</ele><time>2026-04-04T09:14:25.998Z</time></trkpt><trkpt lat="43.52466094853923" lon="11.569973803918302"><ele>149.99999999999997</ele><time>2026-04-04T09:14:27.998Z</time></trkpt><trkpt lat="43.524713370853455" lon="11.569925449885876"><ele>150.0</ele><time>2026-04-04T09:14:29.998Z</time></trkpt><trkpt lat="43.524764302411384" lon="11.569859329666558"><ele>149.66666666666666</ele><time>2026-04-04T09:15:06Z</time></trkpt><trkpt lat="43.5248192549553" lon="11.569812198772032"><ele>149.33333333333334</ele><time>2026-04-04T09:15:08Z</time></trkpt><trkpt lat="43.52488931270406" lon="11.569751997701498"><ele>149.0</ele><time>2026-04-04T09:15:10Z</time></trkpt><trkpt lat="43.52496429350462" lon="11.569681094336838"><ele>148.66666666666669</ele><time>2026-04-04T09:15:12Z</time></trkpt><trkpt lat="43.525043272679234" lon="11.569598631467429"><ele>148.33333333333334</ele><time>2026-04-04T09:15:14Z</time></trkpt><trkpt lat="43.525131403677946" lon="11.569518889481477"><ele>148.0</ele><time>2026-04-04T09:15:16Z</time></trkpt><trkpt lat="43.5252235689501" lon="11.56943329337935"><ele>147.8</ele><time>2026-04-04T09:15:18Z</time></trkpt><trkpt lat="43.52531123774702" lon="11.569344005496982"><ele>147.60000000000002</ele><time>2026-04-04T09:15:20Z</time></trkpt><trkpt lat="43.52539915759481" lon="11.56925696682062"><ele>147.39999999999998</ele><time>2026-04-04T09:15:22Z</time></trkpt><trkpt lat="43.525483582441645" lon="11.569179176380537"><ele>147.2</ele><time>2026-04-04T09:15:24Z</time></trkpt><trkpt lat="43.525542552378226" lon="11.56912130014821"><ele>147.0</ele><time>2026-04-04T09:15:26Z</time></trkpt><trkpt lat="43.52560979924515" lon="11.569056565999679"><ele>147.0</ele><time>2026-04-04T09:15:27.999Z</time></trkpt><trkpt lat="43.525685152416294" lon="11.568985889859732"><ele>147.0</ele><time>2026-04-04T09:15:29.999Z</time></trkpt><trkpt lat="43.52576084650738" lon="11.568907273162731"><ele>147.0</ele><time>2026-04-04T09:15:31.999Z</time></trkpt><trkpt lat="43.52583841318289" lon="11.568830842884125"><ele>147.0</ele><time>2026-04-04T09:15:33.999Z</time></trkpt><trkpt lat="43.525917178019014" lon="11.56875889835209"><ele>147.0</ele><time>2026-04-04T09:15:35.999Z</time></trkpt><trkpt lat="43.52599494715258" lon="11.568685880213842"><ele>147.0</ele><time>2026-04-04T09:15:37.999Z</time></trkpt><trkpt lat="43.526069168036" lon="11.568608565208269"><ele>147.0</ele><time>2026-04-04T09:15:39.999Z</time></trkpt><trkpt lat="43.52613065411968" lon="11.568544603853159"><ele>147.0</ele><time>2026-04-04T09:15:41.999Z</time></trkpt><trkpt lat="43.526187654373736" lon="11.568489169087348"><ele>147.0</ele><time>2026-04-04T09:15:44.999Z</time></trkpt><trkpt lat="43.526244520272876" lon="11.568432042359438"><ele>147.0</ele><time>2026-04-04T09:15:49.999Z</time></trkpt><trkpt lat="43.5262781125139" lon="11.568357389541521"><ele>147.0</ele><time>2026-04-04T09:16:36.998Z</time></trkpt><trkpt lat="43.526365292428046" lon="11.568285455074584"><ele>147.0</ele><time>2026-04-04T09:16:39.998Z</time></trkpt><trkpt lat="43.526434435241406" lon="11.56822562886995"><ele>147.0</ele><time>2026-04-04T09:16:41.998Z</time></trkpt><trkpt lat="43.526513177439504" lon="11.56815784979461"><ele>147.0</ele><time>2026-04-04T09:16:43.998Z</time></trkpt><trkpt lat="43.52659827404684" lon="11.568075818036839"><ele>147.0</ele><time>2026-04-04T09:16:45.998Z</time></trkpt><trkpt lat="43.52668535728144" lon="11.567990320935452"><ele>147.0</ele><time>2026-04-04T09:16:47.998Z</time></trkpt><trkpt lat="43.52677651445644" lon="11.567904432258917"><ele>146.75</ele><time>2026-04-04T09:16:49.998Z</time></trkpt><trkpt lat="43.526868303164264" lon="11.567816771982555"><ele>146.5</ele><time>2026-04-04T09:16:51.998Z</time></trkpt><trkpt lat="43.52696320475903" lon="11.567723428732576"><ele>146.25</ele><time>2026-04-04T09:16:53.998Z</time></trkpt><trkpt lat="43.52705775743613" lon="11.567626950496065"><ele>146.0</ele><time>2026-04-04T09:16:55.998Z</time></trkpt><trkpt lat="43.52715412591902" lon="11.567534078386887"><ele>145.75</ele><time>2026-04-04T09:16:58Z</time></trkpt><trkpt lat="43.527246015816445" lon="11.567437015492313"><ele>145.5</ele><time>2026-04-04T09:17:00Z</time></trkpt><trkpt lat="43.52734773963829" lon="11.567344888690933"><ele>145.25</ele><time>2026-04-04T09:17:02Z</time></trkpt><trkpt lat="43.527442760292836" lon="11.567247632513196"><ele>145.0</ele><time>2026-04-04T09:17:04Z</time></trkpt><trkpt lat="43.52754254195957" lon="11.567151206383338"><ele>145.0</ele><time>2026-04-04T09:17:06Z</time></trkpt><trkpt lat="43.527642846340285" lon="11.567051534734794"><ele>145.0</ele><time>2026-04-04T09:17:08Z</time></trkpt><trkpt lat="43.52774263249648" lon="11.56695633759907"><ele>145.0</ele><time>2026-04-04T09:17:10Z</time></trkpt><trkpt lat="43.5278453768522" lon="11.566863409359474"><ele>145.0</ele><time>2026-04-04T09:17:12Z</time></trkpt><trkpt lat="43.52794710291958" lon="11.566763998025534"><ele>145.0</ele><time>2026-04-04T09:17:14Z</time></trkpt><trkpt lat="43.52804211689788" lon="11.566671418728546"><ele>145.0</ele><time>2026-04-04T09:17:16Z</time></trkpt><trkpt lat="43.52813791967699" lon="11.566575303278235"><ele>145.0</ele><time>2026-04-04T09:17:18Z</time></trkpt><trkpt lat="43.528228613931105" lon="11.566486113960101"><ele>145.0</ele><time>2026-04-04T09:17:20Z</time></trkpt><trkpt lat="43.52830925495979" lon="11.566394380054133"><ele>145.0</ele><time>2026-04-04T09:17:22Z</time></trkpt><trkpt lat="43.52839417537207" lon="11.56631432841898"><ele>145.0</ele><time>2026-04-04T09:17:24Z</time></trkpt><trkpt lat="43.5284566575455" lon="11.566258961750975"><ele>145.0</ele><time>2026-04-04T09:17:26Z</time></trkpt><trkpt lat="43.528507144174725" lon="11.566205314360333"><ele>145.0</ele><time>2026-04-04T09:17:29Z</time></trkpt><trkpt lat="43.528562277261564" lon="11.566135009108976"><ele>145.0</ele><time>2026-04-04T09:17:46.999Z</time></trkpt><trkpt lat="43.528632430311724" lon="11.56606303519508"><ele>145.0</ele><time>2026-04-04T09:17:49.999Z</time></trkpt><trkpt lat="43.52869595294256" lon="11.566002776710226"><ele>144.83333333333334</ele><time>2026-04-04T09:17:51.999Z</time></trkpt><trkpt lat="43.52876419899563" lon="11.565937917026691"><ele>144.66666666666669</ele><time>2026-04-04T09:17:53.999Z</time></trkpt><trkpt lat="43.528833676208464" lon="11.565867682285903"><ele>144.5</ele><time>2026-04-04T09:17:55.999Z</time></trkpt><trkpt lat="43.52890703081924" lon="11.56580134871411"><ele>144.33333333333334</ele><time>2026-04-04T09:17:57.999Z</time></trkpt><trkpt lat="43.52898325685548" lon="11.565738583842124"><ele>144.16666666666666</ele><time>2026-04-04T09:17:59.999Z</time></trkpt><trkpt lat="43.52905894719474" lon="11.565666394110965"><ele>144.0</ele><time>2026-04-04T09:18:01.999Z</time></trkpt><trkpt lat="43.529137648293364" lon="11.56559298764912"><ele>144.0</ele><time>2026-04-04T09:18:03.999Z</time></trkpt><trkpt lat="43.529218293187775" lon="11.565516708668108"><ele>144.0</ele><time>2026-04-04T09:18:05.999Z</time></trkpt><trkpt lat="43.52930090466826" lon="11.565438424808647"><ele>144.0</ele><time>2026-04-04T09:18:07.999Z</time></trkpt><trkpt lat="43.52938185222067" lon="11.565355471375682"><ele>144.0</ele><time>2026-04-04T09:18:09.999Z</time></trkpt><trkpt lat="43.52946565899582" lon="11.565270467062643"><ele>144.0</ele><time>2026-04-04T09:18:11.999Z</time></trkpt><trkpt lat="43.52955184647127" lon="11.565189597347175"><ele>144.4</ele><time>2026-04-04T09:18:13.999Z</time></trkpt><trkpt lat="43.529639775675484" lon="11.565106405561297"><ele>144.8</ele><time>2026-04-04T09:18:15.999Z</time></trkpt><trkpt lat="43.52972544480115" lon="11.56502175669078"><ele>145.2</ele><time>2026-04-04T09:18:17.999Z</time></trkpt><trkpt lat="43.529813535830385" lon="11.564940088260268"><ele>145.6</ele><time>2026-04-04T09:18:19.999Z</time></trkpt><trkpt lat="43.52990186557502" lon="11.564851273910794"><ele>146.0</ele><time>2026-04-04T09:18:21.999Z</time></trkpt><trkpt lat="43.52998938580426" lon="11.564768233330028"><ele>146.0</ele><time>2026-04-04T09:18:23.999Z</time></trkpt><trkpt lat="43.53007842239256" lon="11.564682985498118"><ele>146.0</ele><time>2026-04-04T09:18:25.998Z</time></trkpt><trkpt lat="43.53016817836798" lon="11.564594605641506"><ele>146.0</ele><time>2026-04-04T09:18:27.998Z</time></trkpt><trkpt lat="43.53025499483233" lon="11.564503283254405"><ele>146.0</ele><time>2026-04-04T09:18:29.998Z</time></trkpt><trkpt lat="43.53034080418776" lon="11.564419252848344"><ele>146.0</ele><time>2026-04-04T09:18:31.998Z</time></trkpt><trkpt lat="43.53042215996683" lon="11.56433702615351"><ele>146.0</ele><time>2026-04-04T09:18:33.998Z</time></trkpt><trkpt lat="43.5305083501455" lon="11.56425843313709"><ele>146.0</ele><time>2026-04-04T09:18:35.998Z</time></trkpt><trkpt lat="43.530595315816235" lon="11.564184753998921"><ele>146.0</ele><time>2026-04-04T09:18:37.998Z</time></trkpt><trkpt lat="43.53068008592182" lon="11.564103265511521"><ele>146.0</ele><time>2026-04-04T09:18:39.998Z</time></trkpt><trkpt lat="43.530766439467506" lon="11.564021757940443"><ele>146.0</ele><time>2026-04-04T09:18:41.998Z</time></trkpt><trkpt lat="43.53085184896038" lon="11.563937176794141"><ele>146.0</ele><time>2026-04-04T09:18:43.998Z</time></trkpt><trkpt lat="43.530939886797235" lon="11.563851246765765"><ele>146.0</ele><time>2026-04-04T09:18:45.998Z</time></trkpt><trkpt lat="43.53103383186233" lon="11.563761485699755"><ele>146.0</ele><time>2026-04-04T09:18:47.998Z</time></trkpt><trkpt lat="43.5311278722916" lon="11.563668755051065"><ele>146.0</ele><time>2026-04-04T09:18:49.998Z</time></trkpt><trkpt lat="43.53122518815" lon="11.563572254059025"><ele>145.83333333333331</ele><time>2026-04-04T09:18:51.998Z</time></trkpt><trkpt lat="43.53132787944787" lon="11.563470709437519"><ele>145.66666666666666</ele><time>2026-04-04T09:18:53.998Z</time></trkpt><trkpt lat="43.53138275038943" lon="11.563419761280613"><ele>145.5</ele><time>2026-04-04T09:18:54.998Z</time></trkpt><trkpt lat="43.53143536670605" lon="11.56336957509895"><ele>145.33333333333334</ele><time>2026-04-04T09:18:55.998Z</time></trkpt><trkpt lat="43.53148789702351" lon="11.563317792604847"><ele>145.16666666666669</ele><time>2026-04-04T09:18:56.998Z</time></trkpt><trkpt lat="43.53154440675792" lon="11.563262521268838"><ele>145.0</ele><time>2026-04-04T09:18:57.998Z</time></trkpt><trkpt lat="43.53160080469952" lon="11.563206116587024"><ele>145.0</ele><time>2026-04-04T09:18:58.998Z</time></trkpt><trkpt lat="43.531656188874514" lon="11.563151012561939"><ele>145.0</ele><time>2026-04-04T09:18:59.998Z</time></trkpt><trkpt lat="43.53171348237229" lon="11.563095590580565"><ele>145.0</ele><time>2026-04-04T09:19:00.998Z</time></trkpt><trkpt lat="43.53176922935161" lon="11.563038327734692"><ele>145.0</ele><time>2026-04-04T09:19:01.998Z</time></trkpt><trkpt lat="43.531824821134556" lon="11.562986601894739"><ele>145.0</ele><time>2026-04-04T09:19:02.998Z</time></trkpt><trkpt lat="43.531880225043494" lon="11.562933221404538"><ele>145.0</ele><time>2026-04-04T09:19:04Z</time></trkpt><trkpt lat="43.531931339775454" lon="11.562877124167013"><ele>145.0</ele><time>2026-04-04T09:19:05Z</time></trkpt><trkpt lat="43.53198891291553" lon="11.562826017905216"><ele>144.85714285714286</ele><time>2026-04-04T09:19:06Z</time></trkpt><trkpt lat="43.532043246513" lon="11.562773468655136"><ele>144.71428571428572</ele><time>2026-04-04T09:19:07Z</time></trkpt><trkpt lat="43.53209814583916" lon="11.562719426037493"><ele>144.57142857142858</ele><time>2026-04-04T09:19:08Z</time></trkpt><trkpt lat="43.53215274352237" lon="11.56266277544355"><ele>144.42857142857144</ele><time>2026-04-04T09:19:09Z</time></trkpt><trkpt lat="43.53220988872912" lon="11.562613857291833"><ele>144.28571428571428</ele><time>2026-04-04T09:19:10Z</time></trkpt><trkpt lat="43.532263837371175" lon="11.562558551732156"><ele>144.14285714285717</ele><time>2026-04-04T09:19:11Z</time></trkpt><trkpt lat="43.53231482175187" lon="11.562497349107431"><ele>144.0</ele><time>2026-04-04T09:19:12Z</time></trkpt><trkpt lat="43.53236782579362" lon="11.562428675598017"><ele>144.00000000000003</ele><time>2026-04-04T09:19:13Z</time></trkpt><trkpt lat="43.53242340199462" lon="11.56236917291419"><ele>144.0</ele><time>2026-04-04T09:19:14Z</time></trkpt><trkpt lat="43.53247856029938" lon="11.562310163445922"><ele>144.0</ele><time>2026-04-04T09:19:15Z</time></trkpt><trkpt lat="43.53252912087516" lon="11.562242030843848"><ele>144.0</ele><time>2026-04-04T09:19:16Z</time></trkpt><trkpt lat="43.53258326812324" lon="11.562182891497766"><ele>144.0</ele><time>2026-04-04T09:19:17Z</time></trkpt><trkpt lat="43.53263931716836" lon="11.56212525413094"><ele>144.00000000000003</ele><time>2026-04-04T09:19:18Z</time></trkpt><trkpt lat="43.532694070618184" lon="11.562071983849508"><ele>144.0</ele><time>2026-04-04T09:19:19Z</time></trkpt><trkpt lat="43.53275076718664" lon="11.562017481058854"><ele>144.00000000000003</ele><time>2026-04-04T09:19:20Z</time></trkpt><trkpt lat="43.53280406374983" lon="11.561956904099802"><ele>144.0</ele><time>2026-04-04T09:19:21Z</time></trkpt><trkpt lat="43.53285997426593" lon="11.561905392449477"><ele>144.0</ele><time>2026-04-04T09:19:22Z</time></trkpt><trkpt lat="43.53291405177598" lon="11.561847215746795"><ele>144.0</ele><time>2026-04-04T09:19:23Z</time></trkpt><trkpt lat="43.5329685274495" lon="11.561798639935226"><ele>144.0</ele><time>2026-04-04T09:19:24Z</time></trkpt><trkpt lat="43.533022071944316" lon="11.561743718161404"><ele>144.00000000000003</ele><time>2026-04-04T09:19:25Z</time></trkpt><trkpt lat="43.53308377347646" lon="11.561705919197342"><ele>144.0</ele><time>2026-04-04T09:19:26Z</time></trkpt><trkpt lat="43.53314158840647" lon="11.561669948758633"><ele>143.71428571428572</ele><time>2026-04-04T09:19:27Z</time></trkpt><trkpt lat="43.53319715057588" lon="11.561619313716495"><ele>143.42857142857144</ele><time>2026-04-04T09:19:28Z</time></trkpt><trkpt lat="43.533255263777434" lon="11.561572737177281"><ele>143.14285714285714</ele><time>2026-04-04T09:19:29Z</time></trkpt><trkpt lat="43.53330897381235" lon="11.56152056476177"><ele>142.85714285714286</ele><time>2026-04-04T09:19:30Z</time></trkpt><trkpt lat="43.5333608859879" lon="11.561465443886169"><ele>142.57142857142856</ele><time>2026-04-04T09:19:31Z</time></trkpt><trkpt lat="43.533414780881145" lon="11.56141352200364"><ele>142.28571428571428</ele><time>2026-04-04T09:19:32Z</time></trkpt><trkpt lat="43.53346871548232" lon="11.561351457095354"><ele>142.0</ele><time>2026-04-04T09:19:33Z</time></trkpt><trkpt lat="43.533522689711766" lon="11.561297401027078"><ele>142.0</ele><time>2026-04-04T09:19:34Z</time></trkpt><trkpt lat="43.53357743872076" lon="11.561243376223612"><ele>142.0</ele><time>2026-04-04T09:19:35Z</time></trkpt><trkpt lat="43.5336332011442" lon="11.561193778847901"><ele>142.0</ele><time>2026-04-04T09:19:36Z</time></trkpt><trkpt lat="43.5336885535188" lon="11.561139199181339"><ele>142.0</ele><time>2026-04-04T09:19:37Z</time></trkpt><trkpt lat="43.53374295809508" lon="11.561085056101762"><ele>142.0</ele><time>2026-04-04T09:19:38Z</time></trkpt><trkpt lat="43.53379622798755" lon="11.56103058971764"><ele>142.0</ele><time>2026-04-04T09:19:39Z</time></trkpt><trkpt lat="43.53385239806797" lon="11.560979848761304"><ele>142.0</ele><time>2026-04-04T09:19:40Z</time></trkpt><trkpt lat="43.533912666118084" lon="11.560931270312894"><ele>142.33333333333334</ele><time>2026-04-04T09:19:41Z</time></trkpt><trkpt lat="43.533965251815985" lon="11.560877786291153"><ele>142.66666666666669</ele><time>2026-04-04T09:19:42Z</time></trkpt><trkpt lat="43.53401972561487" lon="11.560818657525473"><ele>143.0</ele><time>2026-04-04T09:19:42.999Z</time></trkpt><trkpt lat="43.534074186602005" lon="11.560767233434184"><ele>143.33333333333334</ele><time>2026-04-04T09:19:43.999Z</time></trkpt><trkpt lat="43.53412786704343" lon="11.56071864984112"><ele>143.66666666666666</ele><time>2026-04-04T09:19:44.999Z</time></trkpt><trkpt lat="43.5342307289826" lon="11.560619416775076"><ele>144.0</ele><time>2026-04-04T09:19:46.999Z</time></trkpt><trkpt lat="43.53433300625835" lon="11.560522166502587"><ele>144.0</ele><time>2026-04-04T09:19:48.999Z</time></trkpt><trkpt lat="43.53443111100875" lon="11.560422768277393"><ele>144.0</ele><time>2026-04-04T09:19:50.999Z</time></trkpt><trkpt lat="43.53453098661144" lon="11.560336917711876"><ele>144.0</ele><time>2026-04-04T09:19:52.999Z</time></trkpt><trkpt lat="43.534634868138866" lon="11.560282703944141"><ele>144.0</ele><time>2026-04-04T09:19:54.999Z</time></trkpt><trkpt lat="43.53473342077716" lon="11.56027849811246"><ele>144.0</ele><time>2026-04-04T09:19:56.999Z</time></trkpt><trkpt lat="43.5348412787501" lon="11.560286386876419"><ele>143.83333333333334</ele><time>2026-04-04T09:19:58.999Z</time></trkpt><trkpt lat="43.53496226372866" lon="11.560279636246124"><ele>143.66666666666666</ele><time>2026-04-04T09:20:00.999Z</time></trkpt><trkpt lat="43.53502602925589" lon="11.56026812988554"><ele>143.5</ele><time>2026-04-04T09:20:01.999Z</time></trkpt><trkpt lat="43.535087525660614" lon="11.560240790504093"><ele>143.33333333333331</ele><time>2026-04-04T09:20:02.999Z</time></trkpt><trkpt lat="43.53514607682618" lon="11.560200520602997"><ele>143.16666666666666</ele><time>2026-04-04T09:20:03.999Z</time></trkpt><trkpt lat="43.53519855792103" lon="11.560141796223178"><ele>143.0</ele><time>2026-04-04T09:20:04.999Z</time></trkpt><trkpt lat="43.53524340548355" lon="11.560062348082402"><ele>142.99999999999997</ele><time>2026-04-04T09:20:05.999Z</time></trkpt><trkpt lat="43.53528112704463" lon="11.559977219155101"><ele>143.0</ele><time>2026-04-04T09:20:06.999Z</time></trkpt><trkpt lat="43.535306834447105" lon="11.559888024541786"><ele>143.0</ele><time>2026-04-04T09:20:07.999Z</time></trkpt><trkpt lat="43.535330602138984" lon="11.55979497800099"><ele>143.0</ele><time>2026-04-04T09:20:08.999Z</time></trkpt><trkpt lat="43.53532981337436" lon="11.559702124113677"><ele>143.0</ele><time>2026-04-04T09:20:09.999Z</time></trkpt><trkpt lat="43.53539668665917" lon="11.559620058472277"><ele>142.99999999999997</ele><time>2026-04-04T09:20:10.999Z</time></trkpt><trkpt lat="43.535434337854795" lon="11.559534891056469"><ele>143.0</ele><time>2026-04-04T09:20:11.999Z</time></trkpt><trkpt lat="43.535465509392274" lon="11.559439300681383"><ele>142.5</ele><time>2026-04-04T09:20:12.999Z</time></trkpt><trkpt lat="43.53550050643173" lon="11.559352834665653"><ele>142.0</ele><time>2026-04-04T09:20:13.999Z</time></trkpt><trkpt lat="43.53559912446048" lon="11.55931616247809"><ele>141.5</ele><time>2026-04-04T09:20:14.999Z</time></trkpt><trkpt lat="43.53566203370497" lon="11.55925805561758"><ele>141.0</ele><time>2026-04-04T09:20:15.999Z</time></trkpt><trkpt lat="43.535725711098245" lon="11.559197141348571"><ele>140.5</ele><time>2026-04-04T09:20:16.999Z</time></trkpt><trkpt lat="43.53578906718265" lon="11.559140015297647"><ele>140.0</ele><time>2026-04-04T09:20:17.999Z</time></trkpt><trkpt lat="43.53585443369882" lon="11.55907858459088"><ele>140.0</ele><time>2026-04-04T09:20:18.999Z</time></trkpt><trkpt lat="43.53591217699414" lon="11.559019046492102"><ele>140.0</ele><time>2026-04-04T09:20:19.999Z</time></trkpt><trkpt lat="43.53597328579022" lon="11.558961242167037"><ele>140.0</ele><time>2026-04-04T09:20:20.999Z</time></trkpt><trkpt lat="43.53603374850838" lon="11.558906931039237"><ele>140.0</ele><time>2026-04-04T09:20:21.999Z</time></trkpt><trkpt lat="43.53608862972643" lon="11.558847824314519"><ele>140.0</ele><time>2026-04-04T09:20:22.999Z</time></trkpt><trkpt lat="43.536145140783304" lon="11.558787741874223"><ele>140.0</ele><time>2026-04-04T09:20:23.999Z</time></trkpt><trkpt lat="43.53619850263124" lon="11.558734807426143"><ele>140.0</ele><time>2026-04-04T09:20:24.999Z</time></trkpt><trkpt lat="43.53625377751049" lon="11.558684148988615"><ele>139.83333333333331</ele><time>2026-04-04T09:20:25.999Z</time></trkpt><trkpt lat="43.53630634378048" lon="11.558628966269499"><ele>139.66666666666666</ele><time>2026-04-04T09:20:26.999Z</time></trkpt><trkpt lat="43.53635942263369" lon="11.558570340681477"><ele>139.5</ele><time>2026-04-04T09:20:27.999Z</time></trkpt><trkpt lat="43.53641193050879" lon="11.558514686014288"><ele>139.33333333333334</ele><time>2026-04-04T09:20:28.999Z</time></trkpt><trkpt lat="43.53651377205076" lon="11.55840379332583"><ele>139.16666666666669</ele><time>2026-04-04T09:20:30.999Z</time></trkpt><trkpt lat="43.53656191884027" lon="11.558347337418196"><ele>139.0</ele><time>2026-04-04T09:20:31.998Z</time></trkpt><trkpt lat="43.53663260106478" lon="11.558227521931947"><ele>139.0</ele><time>2026-04-04T09:20:33.998Z</time></trkpt><trkpt lat="43.53669046400044" lon="11.558150242815865"><ele>139.0</ele><time>2026-04-04T09:20:35.998Z</time></trkpt><trkpt lat="43.536765029129555" lon="11.558063138649715"><ele>139.0</ele><time>2026-04-04T09:20:37.998Z</time></trkpt><trkpt lat="43.53684899808017" lon="11.557962928160611"><ele>139.0</ele><time>2026-04-04T09:20:39.998Z</time></trkpt><trkpt lat="43.53693560697841" lon="11.55785342812529"><ele>139.0</ele><time>2026-04-04T09:20:41.998Z</time></trkpt><trkpt lat="43.53702278328658" lon="11.557731565425875"><ele>138.71428571428572</ele><time>2026-04-04T09:20:43.998Z</time></trkpt><trkpt lat="43.53706556635202" lon="11.557666614558316"><ele>138.42857142857144</ele><time>2026-04-04T09:20:44.998Z</time></trkpt><trkpt lat="43.53710851672257" lon="11.557603001608346"><ele>138.14285714285717</ele><time>2026-04-04T09:20:45.998Z</time></trkpt><trkpt lat="43.53715271527126" lon="11.557538671084266"><ele>137.85714285714286</ele><time>2026-04-04T09:20:46.998Z</time></trkpt><trkpt lat="43.53723505202494" lon="11.557403021383422"><ele>137.57142857142858</ele><time>2026-04-04T09:20:48.998Z</time></trkpt><trkpt lat="43.53727566246756" lon="11.557335673240017"><ele>137.2857142857143</ele><time>2026-04-04T09:20:49.998Z</time></trkpt><trkpt lat="43.53731485818159" lon="11.557265599790675"><ele>137.0</ele><time>2026-04-04T09:20:50.998Z</time></trkpt><trkpt lat="43.53735425400921" lon="11.557194435930914"><ele>137.0</ele><time>2026-04-04T09:20:51.998Z</time></trkpt><trkpt lat="43.53742841971754" lon="11.557049198942474"><ele>137.0</ele><time>2026-04-04T09:20:53.998Z</time></trkpt><trkpt lat="43.5374712202542" lon="11.55697982557466"><ele>137.0</ele><time>2026-04-04T09:20:54.998Z</time></trkpt><trkpt lat="43.53755675311101" lon="11.556852746938887"><ele>137.0</ele><time>2026-04-04T09:20:56.998Z</time></trkpt><trkpt lat="43.53761891553354" lon="11.556716627871122"><ele>137.0</ele><time>2026-04-04T09:20:58.998Z</time></trkpt><trkpt lat="43.53768714405908" lon="11.556575720087988"><ele>137.4</ele><time>2026-04-04T09:21:00.998Z</time></trkpt><trkpt lat="43.53775540093036" lon="11.556436397253021"><ele>137.79999999999998</ele><time>2026-04-04T09:21:02.998Z</time></trkpt><trkpt lat="43.53779062190807" lon="11.55636441588708"><ele>138.2</ele><time>2026-04-04T09:21:03.998Z</time></trkpt><trkpt lat="43.537861358817715" lon="11.55622860345657"><ele>138.6</ele><time>2026-04-04T09:21:05.998Z</time></trkpt><trkpt lat="43.5379277575382" lon="11.556090814031185"><ele>139.0</ele><time>2026-04-04T09:21:07.998Z</time></trkpt><trkpt lat="43.53799370611616" lon="11.555949940318898"><ele>139.0</ele><time>2026-04-04T09:21:10Z</time></trkpt><trkpt lat="43.53805684978007" lon="11.555813518652313"><ele>139.0</ele><time>2026-04-04T09:21:12Z</time></trkpt><trkpt lat="43.53812860974067" lon="11.555683414535581"><ele>139.0</ele><time>2026-04-04T09:21:14Z</time></trkpt><trkpt lat="43.53819079935317" lon="11.55554142867025"><ele>139.0</ele><time>2026-04-04T09:21:16Z</time></trkpt><trkpt lat="43.53825939597197" lon="11.555398986007658"><ele>139.25</ele><time>2026-04-04T09:21:18Z</time></trkpt><trkpt lat="43.538321233201735" lon="11.555263814902913"><ele>139.5</ele><time>2026-04-04T09:21:20Z</time></trkpt><trkpt lat="43.5383833801352" lon="11.555133445276502"><ele>139.75</ele><time>2026-04-04T09:21:22Z</time></trkpt><trkpt lat="43.538451453029175" lon="11.55500735767654"><ele>140.0</ele><time>2026-04-04T09:21:24Z</time></trkpt><trkpt lat="43.53851684822474" lon="11.554882921027632"><ele>140.0</ele><time>2026-04-04T09:21:26Z</time></trkpt><trkpt lat="43.538604717621496" lon="11.554870401707564"><ele>140.0</ele><time>2026-04-04T09:21:27Z</time></trkpt><trkpt lat="43.53870197768546" lon="11.5548288424268"><ele>140.0</ele><time>2026-04-04T09:21:29Z</time></trkpt><trkpt lat="43.53878929269081" lon="11.554764305251496"><ele>140.0</ele><time>2026-04-04T09:21:31Z</time></trkpt><trkpt lat="43.53890287360738" lon="11.554907120597033"><ele>140.0</ele><time>2026-04-04T09:21:33Z</time></trkpt><trkpt lat="43.53896190976595" lon="11.554992687758993"><ele>139.66666666666666</ele><time>2026-04-04T09:21:35Z</time></trkpt><trkpt lat="43.538999491395586" lon="11.555063039951845"><ele>139.33333333333331</ele><time>2026-04-04T09:21:37Z</time></trkpt><trkpt lat="43.53902711253298" lon="11.555171073882809"><ele>139.0</ele><time>2026-04-04T09:21:40Z</time></trkpt><trkpt lat="43.53907446612284" lon="11.555260731864951"><ele>138.66666666666666</ele><time>2026-04-04T09:21:44Z</time></trkpt><trkpt lat="43.539143786865075" lon="11.555323591623226"><ele>138.33333333333334</ele><time>2026-04-04T09:21:47Z</time></trkpt><trkpt lat="43.539170916097284" lon="11.555436046067715"><ele>138.0</ele><time>2026-04-04T09:21:49.999Z</time></trkpt><trkpt lat="43.53921479071211" lon="11.555500446706668"><ele>138.0</ele><time>2026-04-04T09:21:51.999Z</time></trkpt><trkpt lat="43.539256981704874" lon="11.555568783776636"><ele>138.0</ele><time>2026-04-04T09:21:53.999Z</time></trkpt><trkpt lat="43.539325220185546" lon="11.555637900217276"><ele>138.0</ele><time>2026-04-04T09:21:56.999Z</time></trkpt><trkpt lat="43.53930175934118" lon="11.555459451016134"><ele>138.0</ele><time>2026-04-04T09:21:59.999Z</time></trkpt><trkpt lat="43.53923317195245" lon="11.555361800978412"><ele>138.0</ele><time>2026-04-04T09:22:01.999Z</time></trkpt><trkpt lat="43.53916903715797" lon="11.555255715063529"><ele>137.8</ele><time>2026-04-04T09:22:03.999Z</time></trkpt><trkpt lat="43.53911033449714" lon="11.555137233614884"><ele>137.60000000000002</ele><time>2026-04-04T09:22:05.999Z</time></trkpt><trkpt lat="43.5390425201958" lon="11.555023609132098"><ele>137.39999999999998</ele><time>2026-04-04T09:22:07.999Z</time></trkpt><trkpt lat="43.53897754933064" lon="11.554915189635139"><ele>137.2</ele><time>2026-04-04T09:22:09.999Z</time></trkpt><trkpt lat="43.53891795783145" lon="11.554800955977235"><ele>137.0</ele><time>2026-04-04T09:22:11.999Z</time></trkpt><trkpt lat="43.53885792232351" lon="11.55469132315121"><ele>137.0</ele><time>2026-04-04T09:22:13.999Z</time></trkpt><trkpt lat="43.53882748801924" lon="11.55455910066512"><ele>137.0</ele><time>2026-04-04T09:22:15.999Z</time></trkpt><trkpt lat="43.538811077436826" lon="11.554413786258893"><ele>137.0</ele><time>2026-04-04T09:22:17.999Z</time></trkpt><trkpt lat="43.5388048725004" lon="11.554264338515067"><ele>137.0</ele><time>2026-04-04T09:22:19.999Z</time></trkpt><trkpt lat="43.5388504126823" lon="11.554123325737896"><ele>137.0</ele><time>2026-04-04T09:22:21.999Z</time></trkpt><trkpt lat="43.538931229575226" lon="11.554006701427522"><ele>137.16666666666666</ele><time>2026-04-04T09:22:23.999Z</time></trkpt><trkpt lat="43.53901476804225" lon="11.553887292034554"><ele>137.33333333333331</ele><time>2026-04-04T09:22:25.999Z</time></trkpt><trkpt lat="43.539059090137265" lon="11.55382317451923"><ele>137.5</ele><time>2026-04-04T09:22:26.999Z</time></trkpt><trkpt lat="43.53910233378965" lon="11.553753014875669"><ele>137.66666666666666</ele><time>2026-04-04T09:22:27.999Z</time></trkpt><trkpt lat="43.539145379264596" lon="11.553678867431985"><ele>137.83333333333334</ele><time>2026-04-04T09:22:28.999Z</time></trkpt><trkpt lat="43.53919146998086" lon="11.553605608024837"><ele>138.0</ele><time>2026-04-04T09:22:29.999Z</time></trkpt><trkpt lat="43.53923931559456" lon="11.553532446537131"><ele>137.85714285714286</ele><time>2026-04-04T09:22:30.999Z</time></trkpt><trkpt lat="43.5392883967358" lon="11.553458145504067"><ele>137.71428571428572</ele><time>2026-04-04T09:22:31.999Z</time></trkpt><trkpt lat="43.53933482259371" lon="11.553381756581365"><ele>137.57142857142858</ele><time>2026-04-04T09:22:32.999Z</time></trkpt><trkpt lat="43.539382644900314" lon="11.553308622837685"><ele>137.42857142857144</ele><time>2026-04-04T09:22:33.999Z</time></trkpt><trkpt lat="43.53942974183947" lon="11.553233109562207"><ele>137.28571428571428</ele><time>2026-04-04T09:22:34.999Z</time></trkpt><trkpt lat="43.53947665670564" lon="11.553159506534088"><ele>137.14285714285717</ele><time>2026-04-04T09:22:35.999Z</time></trkpt><trkpt lat="43.53952540618488" lon="11.553088415512594"><ele>137.0</ele><time>2026-04-04T09:22:36.999Z</time></trkpt><trkpt lat="43.53957577866489" lon="11.553022361674396"><ele>137.00000000000003</ele><time>2026-04-04T09:22:37.998Z</time></trkpt><trkpt lat="43.53962794367878" lon="11.552956351857373"><ele>137.0</ele><time>2026-04-04T09:22:38.998Z</time></trkpt><trkpt lat="43.53967965960697" lon="11.552890592467499"><ele>137.0</ele><time>2026-04-04T09:22:39.998Z</time></trkpt><trkpt lat="43.539730085337396" lon="11.552826351380427"><ele>137.0</ele><time>2026-04-04T09:22:40.998Z</time></trkpt><trkpt lat="43.53978195251877" lon="11.552763242800866"><ele>137.0</ele><time>2026-04-04T09:22:41.998Z</time></trkpt><trkpt lat="43.53983486431101" lon="11.552698895965877"><ele>137.00000000000003</ele><time>2026-04-04T09:22:42.998Z</time></trkpt><trkpt lat="43.53988745660546" lon="11.552636180746736"><ele>137.0</ele><time>2026-04-04T09:22:43.998Z</time></trkpt><trkpt lat="43.53994054454177" lon="11.55257929580098"><ele>137.14285714285717</ele><time>2026-04-04T09:22:44.998Z</time></trkpt><trkpt lat="43.539993172558745" lon="11.552525299724817"><ele>137.28571428571428</ele><time>2026-04-04T09:22:45.998Z</time></trkpt><trkpt lat="43.54004804551278" lon="11.55247013701434"><ele>137.42857142857144</ele><time>2026-04-04T09:22:46.998Z</time></trkpt><trkpt lat="43.540102080556075" lon="11.552414467485443"><ele>137.57142857142858</ele><time>2026-04-04T09:22:47.998Z</time></trkpt><trkpt lat="43.54015805606623" lon="11.552364037927589"><ele>137.71428571428572</ele><time>2026-04-04T09:22:48.998Z</time></trkpt><trkpt lat="43.54021281078798" lon="11.55230264016029"><ele>137.85714285714286</ele><time>2026-04-04T09:22:49.998Z</time></trkpt><trkpt lat="43.54026895118222" lon="11.552252184861311"><ele>138.0</ele><time>2026-04-04T09:22:50.998Z</time></trkpt><trkpt lat="43.5403256138227" lon="11.552198935003643"><ele>138.0</ele><time>2026-04-04T09:22:51.998Z</time></trkpt><trkpt lat="43.54038279923749" lon="11.552146347850428"><ele>138.0</ele><time>2026-04-04T09:22:52.998Z</time></trkpt><trkpt lat="43.54044361376486" lon="11.552094754235366"><ele>138.0</ele><time>2026-04-04T09:22:53.998Z</time></trkpt><trkpt lat="43.54050264288989" lon="11.552044811916339"><ele>138.0</ele><time>2026-04-04T09:22:54.998Z</time></trkpt><trkpt lat="43.540559426773164" lon="11.551994289091436"><ele>138.0</ele><time>2026-04-04T09:22:55.998Z</time></trkpt><trkpt lat="43.54061828001855" lon="11.551946170152526"><ele>138.0</ele><time>2026-04-04T09:22:56.998Z</time></trkpt><trkpt lat="43.54067628684685" lon="11.551898218026569"><ele>138.0</ele><time>2026-04-04T09:22:57.998Z</time></trkpt><trkpt lat="43.54073328298636" lon="11.55184263359639"><ele>138.0</ele><time>2026-04-04T09:22:58.998Z</time></trkpt><trkpt lat="43.54078931480351" lon="11.551793076679639"><ele>138.0</ele><time>2026-04-04T09:22:59.998Z</time></trkpt><trkpt lat="43.540846231830855" lon="11.551744966496305"><ele>138.0</ele><time>2026-04-04T09:23:00.998Z</time></trkpt><trkpt lat="43.54090353505682" lon="11.551695936565752"><ele>138.0</ele><time>2026-04-04T09:23:01.998Z</time></trkpt><trkpt lat="43.54095749675751" lon="11.551646956851236"><ele>138.0</ele><time>2026-04-04T09:23:02.998Z</time></trkpt><trkpt lat="43.541013422072524" lon="11.55160007545798"><ele>138.0</ele><time>2026-04-04T09:23:03.998Z</time></trkpt><trkpt lat="43.54107091200271" lon="11.551552694700884"><ele>138.0</ele><time>2026-04-04T09:23:04.998Z</time></trkpt><trkpt lat="43.54117738248251" lon="11.551458691119146"><ele>138.20000000000002</ele><time>2026-04-04T09:23:06.998Z</time></trkpt><trkpt lat="43.54128250254896" lon="11.551360170531003"><ele>138.4</ele><time>2026-04-04T09:23:08.998Z</time></trkpt><trkpt lat="43.54133675696643" lon="11.551313908440621"><ele>138.60000000000002</ele><time>2026-04-04T09:23:09.998Z</time></trkpt><trkpt lat="43.54139178422289" lon="11.551270269936293"><ele>138.8</ele><time>2026-04-04T09:23:10.998Z</time></trkpt><trkpt lat="43.54149677647467" lon="11.551182066311542"><ele>139.0</ele><time>2026-04-04T09:23:12.998Z</time></trkpt><trkpt lat="43.541603891216106" lon="11.55109566530989"><ele>139.0</ele><time>2026-04-04T09:23:14.998Z</time></trkpt><trkpt lat="43.54170134382026" lon="11.551004678800437"><ele>139.0</ele><time>2026-04-04T09:23:17Z</time></trkpt><trkpt lat="43.54179885571574" lon="11.550915649472694"><ele>139.0</ele><time>2026-04-04T09:23:19Z</time></trkpt><trkpt lat="43.54189688137096" lon="11.550831113034421"><ele>139.0</ele><time>2026-04-04T09:23:21Z</time></trkpt><trkpt lat="43.54199574296347" lon="11.550748721574974"><ele>138.75</ele><time>2026-04-04T09:23:23Z</time></trkpt><trkpt lat="43.542097256024284" lon="11.550668661082423"><ele>138.5</ele><time>2026-04-04T09:23:25Z</time></trkpt><trkpt lat="43.54219456202491" lon="11.550578747422865"><ele>138.25</ele><time>2026-04-04T09:23:27Z</time></trkpt><trkpt lat="43.542290226497336" lon="11.550495379214475"><ele>138.0</ele><time>2026-04-04T09:23:29Z</time></trkpt><trkpt lat="43.54238398439719" lon="11.55040906992875"><ele>138.5</ele><time>2026-04-04T09:23:31Z</time></trkpt><trkpt lat="43.54248050701473" lon="11.550332501230153"><ele>139.0</ele><time>2026-04-04T09:23:33Z</time></trkpt><trkpt lat="43.542576492747095" lon="11.55024579015816"><ele>139.5</ele><time>2026-04-04T09:23:35Z</time></trkpt><trkpt lat="43.542669213046935" lon="11.550162354034029"><ele>140.0</ele><time>2026-04-04T09:23:37Z</time></trkpt><trkpt lat="43.54276471315995" lon="11.550073999397817"><ele>140.25</ele><time>2026-04-04T09:23:39Z</time></trkpt><trkpt lat="43.54290643877706" lon="11.54995067142852"><ele>140.5</ele><time>2026-04-04T09:23:42Z</time></trkpt><trkpt lat="43.54300423530285" lon="11.549869374209429"><ele>140.75</ele><time>2026-04-04T09:23:44Z</time></trkpt><trkpt lat="43.54309839267453" lon="11.54978512928331"><ele>141.0</ele><time>2026-04-04T09:23:46Z</time></trkpt><trkpt lat="43.5431956507288" lon="11.54971001837516"><ele>141.0</ele><time>2026-04-04T09:23:48Z</time></trkpt><trkpt lat="43.54327853335254" lon="11.54962605193189"><ele>141.0</ele><time>2026-04-04T09:23:50Z</time></trkpt><trkpt lat="43.54335811811107" lon="11.549546847185095"><ele>141.0</ele><time>2026-04-04T09:23:52Z</time></trkpt><trkpt lat="43.543440180084424" lon="11.549480597089023"><ele>141.0</ele><time>2026-04-04T09:23:54Z</time></trkpt><trkpt lat="43.54352958925329" lon="11.549408664237196"><ele>141.0</ele><time>2026-04-04T09:23:55.999Z</time></trkpt><trkpt lat="43.543623477557695" lon="11.549326984894932"><ele>140.16666666666666</ele><time>2026-04-04T09:23:57.999Z</time></trkpt><trkpt lat="43.54372479442924" lon="11.549240212535649"><ele>139.33333333333334</ele><time>2026-04-04T09:23:59.999Z</time></trkpt><trkpt lat="43.543827546923666" lon="11.54914314386735"><ele>138.5</ele><time>2026-04-04T09:24:01.999Z</time></trkpt><trkpt lat="43.54388373850307" lon="11.549099691318343"><ele>137.66666666666669</ele><time>2026-04-04T09:24:02.999Z</time></trkpt><trkpt lat="43.54393886087851" lon="11.549051691917375"><ele>136.83333333333334</ele><time>2026-04-04T09:24:03.999Z</time></trkpt><trkpt lat="43.5439945670867" lon="11.549000872020317"><ele>136.0</ele><time>2026-04-04T09:24:04.999Z</time></trkpt><trkpt lat="43.54405209340355" lon="11.548954183105533"><ele>135.99999999999997</ele><time>2026-04-04T09:24:05.999Z</time></trkpt><trkpt lat="43.54410831463573" lon="11.548902278688013"><ele>136.0</ele><time>2026-04-04T09:24:06.999Z</time></trkpt><trkpt lat="43.54416624991459" lon="11.548854552073472"><ele>136.0</ele><time>2026-04-04T09:24:07.999Z</time></trkpt><trkpt lat="43.54422192563872" lon="11.548803520106626"><ele>136.0</ele><time>2026-04-04T09:24:08.999Z</time></trkpt><trkpt lat="43.54427952486694" lon="11.54875543701941"><ele>136.0</ele><time>2026-04-04T09:24:09.999Z</time></trkpt><trkpt lat="43.54433429255435" lon="11.54870688272851"><ele>135.99999999999997</ele><time>2026-04-04T09:24:10.999Z</time></trkpt><trkpt lat="43.5443905744311" lon="11.548657873269846"><ele>136.0</ele><time>2026-04-04T09:24:11.999Z</time></trkpt><trkpt lat="43.544448523764785" lon="11.548619826396763"><ele>136.33333333333334</ele><time>2026-04-04T09:24:12.999Z</time></trkpt><trkpt lat="43.544512447922386" lon="11.548601654400201"><ele>136.66666666666669</ele><time>2026-04-04T09:24:13.999Z</time></trkpt><trkpt lat="43.544647133897016" lon="11.548591428451568"><ele>137.0</ele><time>2026-04-04T09:24:15.999Z</time></trkpt><trkpt lat="43.54471447417411" lon="11.548583513560697"><ele>137.33333333333334</ele><time>2026-04-04T09:24:16.999Z</time></trkpt><trkpt lat="43.544780844413644" lon="11.548574175137103"><ele>137.66666666666666</ele><time>2026-04-04T09:24:17.999Z</time></trkpt><trkpt lat="43.544846998779946" lon="11.54854196571122"><ele>138.0</ele><time>2026-04-04T09:24:18.999Z</time></trkpt><trkpt lat="43.54490594733658" lon="11.548485974649061"><ele>138.0</ele><time>2026-04-04T09:24:19.999Z</time></trkpt><trkpt lat="43.544951906237344" lon="11.548410964422802"><ele>138.0</ele><time>2026-04-04T09:24:20.999Z</time></trkpt><trkpt lat="43.54498781575805" lon="11.548327673925758"><ele>138.0</ele><time>2026-04-04T09:24:21.999Z</time></trkpt><trkpt lat="43.545015510991576" lon="11.548237960779202"><ele>138.0</ele><time>2026-04-04T09:24:22.999Z</time></trkpt><trkpt lat="43.545017123139395" lon="11.548147093523204"><ele>138.0</ele><time>2026-04-04T09:24:23.999Z</time></trkpt><trkpt lat="43.545077575560136" lon="11.548065161268418"><ele>138.0</ele><time>2026-04-04T09:24:24.999Z</time></trkpt><trkpt lat="43.545126181908124" lon="11.547993050050477"><ele>138.0</ele><time>2026-04-04T09:24:25.999Z</time></trkpt><trkpt lat="43.545185860255984" lon="11.54793710824913"><ele>138.0</ele><time>2026-04-04T09:24:26.999Z</time></trkpt><trkpt lat="43.545246016805876" lon="11.547883210599379"><ele>138.0</ele><time>2026-04-04T09:24:27.999Z</time></trkpt><trkpt lat="43.54530617082327" lon="11.547827671409056"><ele>138.0</ele><time>2026-04-04T09:24:28.999Z</time></trkpt><trkpt lat="43.545367123719494" lon="11.547773123947291"><ele>138.0</ele><time>2026-04-04T09:24:29.999Z</time></trkpt><trkpt lat="43.545428768781676" lon="11.547718200365763"><ele>138.0</ele><time>2026-04-04T09:24:30.999Z</time></trkpt><trkpt lat="43.545488445199545" lon="11.547663609475366"><ele>138.0</ele><time>2026-04-04T09:24:31.999Z</time></trkpt><trkpt lat="43.54554756701869" lon="11.547609494658058"><ele>138.0</ele><time>2026-04-04T09:24:32.999Z</time></trkpt><trkpt lat="43.54560651893482" lon="11.547553592210264"><ele>137.85714285714286</ele><time>2026-04-04T09:24:33.999Z</time></trkpt><trkpt lat="43.54566782693314" lon="11.54749989628595"><ele>137.71428571428572</ele><time>2026-04-04T09:24:34.999Z</time></trkpt><trkpt lat="43.54572537242712" lon="11.547441583109974"><ele>137.57142857142858</ele><time>2026-04-04T09:24:35.999Z</time></trkpt><trkpt lat="43.545784978267896" lon="11.54738698033399"><ele>137.42857142857144</ele><time>2026-04-04T09:24:36.999Z</time></trkpt><trkpt lat="43.54584399488642" lon="11.547332230951284"><ele>137.28571428571428</ele><time>2026-04-04T09:24:37.999Z</time></trkpt><trkpt lat="43.545903132556695" lon="11.547279668732205"><ele>137.14285714285717</ele><time>2026-04-04T09:24:38.999Z</time></trkpt><trkpt lat="43.5459640950947" lon="11.547226936782966"><ele>137.0</ele><time>2026-04-04T09:24:39.999Z</time></trkpt><trkpt lat="43.54602357967819" lon="11.547175001093551"><ele>137.00000000000003</ele><time>2026-04-04T09:24:40.999Z</time></trkpt><trkpt lat="43.54608314410034" lon="11.547124319533877"><ele>137.0</ele><time>2026-04-04T09:24:41.998Z</time></trkpt><trkpt lat="43.546142433398806" lon="11.547072333773064"><ele>137.0</ele><time>2026-04-04T09:24:42.998Z</time></trkpt><trkpt lat="43.546202316352215" lon="11.547021170480424"><ele>137.0</ele><time>2026-04-04T09:24:43.998Z</time></trkpt><trkpt lat="43.546260743535676" lon="11.546969386612494"><ele>137.0</ele><time>2026-04-04T09:24:44.998Z</time></trkpt><trkpt lat="43.54631981950477" lon="11.546920850157193"><ele>137.00000000000003</ele><time>2026-04-04T09:24:45.998Z</time></trkpt><trkpt lat="43.54637868440648" lon="11.546869790894396"><ele>137.0</ele><time>2026-04-04T09:24:46.998Z</time></trkpt><trkpt lat="43.54643461179233" lon="11.546818781748534"><ele>136.5</ele><time>2026-04-04T09:24:47.998Z</time></trkpt><trkpt lat="43.54649258311886" lon="11.546768164070977"><ele>136.0</ele><time>2026-04-04T09:24:48.998Z</time></trkpt><trkpt lat="43.54655093857432" lon="11.546717560042822"><ele>135.5</ele><time>2026-04-04T09:24:49.998Z</time></trkpt><trkpt lat="43.54660958098455" lon="11.546668132855112"><ele>135.0</ele><time>2026-04-04T09:24:50.998Z</time></trkpt><trkpt lat="43.546666895999444" lon="11.546619461421066"><ele>134.5</ele><time>2026-04-04T09:24:51.998Z</time></trkpt><trkpt lat="43.54677958610841" lon="11.546516556431737"><ele>134.0</ele><time>2026-04-04T09:24:53.998Z</time></trkpt><trkpt lat="43.54683925395967" lon="11.546464726899481"><ele>134.0</ele><time>2026-04-04T09:24:54.998Z</time></trkpt><trkpt lat="43.54689741396851" lon="11.546415117838643"><ele>134.0</ele><time>2026-04-04T09:24:55.998Z</time></trkpt><trkpt lat="43.54695473617362" lon="11.546364431567737"><ele>134.0</ele><time>2026-04-04T09:24:56.998Z</time></trkpt><trkpt lat="43.54701230255145" lon="11.546314367189417"><ele>134.0</ele><time>2026-04-04T09:24:57.998Z</time></trkpt><trkpt lat="43.54706796856757" lon="11.546264681829108"><ele>134.0</ele><time>2026-04-04T09:24:58.998Z</time></trkpt><trkpt lat="43.54712451922747" lon="11.546214747357686"><ele>134.0</ele><time>2026-04-04T09:24:59.998Z</time></trkpt><trkpt lat="43.54718133858017" lon="11.546163996292147"><ele>134.0</ele><time>2026-04-04T09:25:00.998Z</time></trkpt><trkpt lat="43.5472386798221" lon="11.546114235285588"><ele>134.14285714285714</ele><time>2026-04-04T09:25:01.998Z</time></trkpt><trkpt lat="43.547295217092646" lon="11.546063961475387"><ele>134.28571428571428</ele><time>2026-04-04T09:25:02.998Z</time></trkpt><trkpt lat="43.54735347077403" lon="11.546014248936581"><ele>134.42857142857142</ele><time>2026-04-04T09:25:03.998Z</time></trkpt><trkpt lat="43.547409783294455" lon="11.545962300912427"><ele>134.57142857142856</ele><time>2026-04-04T09:25:04.998Z</time></trkpt><trkpt lat="43.547465314607535" lon="11.545912125818464"><ele>134.7142857142857</ele><time>2026-04-04T09:25:05.998Z</time></trkpt><trkpt lat="43.547521909047106" lon="11.545862482623534"><ele>134.85714285714286</ele><time>2026-04-04T09:25:06.998Z</time></trkpt><trkpt lat="43.54757832518566" lon="11.545813525200192"><ele>135.0</ele><time>2026-04-04T09:25:07.998Z</time></trkpt><trkpt lat="43.547633926550105" lon="11.5457638243535"><ele>135.0</ele><time>2026-04-04T09:25:08.998Z</time></trkpt><trkpt lat="43.54769073030034" lon="11.545713676834016"><ele>135.0</ele><time>2026-04-04T09:25:09.998Z</time></trkpt><trkpt lat="43.547747236718216" lon="11.545663332491985"><ele>135.0</ele><time>2026-04-04T09:25:10.998Z</time></trkpt><trkpt lat="43.54780345210004" lon="11.545611939320223"><ele>135.0</ele><time>2026-04-04T09:25:11.998Z</time></trkpt><trkpt lat="43.54785929403365" lon="11.545562352308005"><ele>135.0</ele><time>2026-04-04T09:25:12.998Z</time></trkpt><trkpt lat="43.54791518968624" lon="11.545514457071853"><ele>135.0</ele><time>2026-04-04T09:25:13.998Z</time></trkpt><trkpt lat="43.547971825359575" lon="11.545464598844623"><ele>135.0</ele><time>2026-04-04T09:25:14.998Z</time></trkpt><trkpt lat="43.548027714111115" lon="11.545412740605379"><ele>135.14285714285714</ele><time>2026-04-04T09:25:15.998Z</time></trkpt><trkpt lat="43.54808466453999" lon="11.54536162868433"><ele>135.28571428571428</ele><time>2026-04-04T09:25:16.998Z</time></trkpt><trkpt lat="43.54814082679433" lon="11.545310750124308"><ele>135.42857142857142</ele><time>2026-04-04T09:25:17.998Z</time></trkpt><trkpt lat="43.54819759947517" lon="11.545261102275287"><ele>135.57142857142856</ele><time>2026-04-04T09:25:18.998Z</time></trkpt><trkpt lat="43.54825339031418" lon="11.545210585369983"><ele>135.71428571428572</ele><time>2026-04-04T09:25:19.998Z</time></trkpt><trkpt lat="43.54831071151013" lon="11.545157775529123"><ele>135.85714285714283</ele><time>2026-04-04T09:25:20.998Z</time></trkpt><trkpt lat="43.548367647224175" lon="11.545107867994062"><ele>136.0</ele><time>2026-04-04T09:25:22Z</time></trkpt><trkpt lat="43.54842463704998" lon="11.545057340498063"><ele>135.99999999999997</ele><time>2026-04-04T09:25:23Z</time></trkpt><trkpt lat="43.548480952437565" lon="11.545006679817487"><ele>136.0</ele><time>2026-04-04T09:25:24Z</time></trkpt><trkpt lat="43.548536632526705" lon="11.544956431313222"><ele>136.0</ele><time>2026-04-04T09:25:25Z</time></trkpt><trkpt lat="43.54859202507248" lon="11.544903859608654"><ele>136.0</ele><time>2026-04-04T09:25:26Z</time></trkpt><trkpt lat="43.54864853287739" lon="11.544853536306887"><ele>136.0</ele><time>2026-04-04T09:25:27Z</time></trkpt><trkpt lat="43.54870576285817" lon="11.544802941811158"><ele>135.99999999999997</ele><time>2026-04-04T09:25:28Z</time></trkpt><trkpt lat="43.548761533036384" lon="11.544752151638958"><ele>136.0</ele><time>2026-04-04T09:25:29Z</time></trkpt><trkpt lat="43.54881890202455" lon="11.544701910010858"><ele>136.14285714285714</ele><time>2026-04-04T09:25:30Z</time></trkpt><trkpt lat="43.54887437384396" lon="11.544651164642378"><ele>136.28571428571428</ele><time>2026-04-04T09:25:31Z</time></trkpt><trkpt lat="43.548930320023814" lon="11.544598925717615"><ele>136.42857142857144</ele><time>2026-04-04T09:25:32Z</time></trkpt><trkpt lat="43.54898717872413" lon="11.544548447614348"><ele>136.57142857142856</ele><time>2026-04-04T09:25:33Z</time></trkpt><trkpt lat="43.54904395773115" lon="11.544495678316691"><ele>136.71428571428572</ele><time>2026-04-04T09:25:34Z</time></trkpt><trkpt lat="43.54910113986014" lon="11.54444209102054"><ele>136.85714285714286</ele><time>2026-04-04T09:25:35Z</time></trkpt><trkpt lat="43.5491575277286" lon="11.544389426740317"><ele>137.0</ele><time>2026-04-04T09:25:36Z</time></trkpt><trkpt lat="43.54921471666675" lon="11.54433480632994"><ele>137.00000000000003</ele><time>2026-04-04T09:25:37Z</time></trkpt><trkpt lat="43.549268167738184" lon="11.54427935303127"><ele>137.0</ele><time>2026-04-04T09:25:38Z</time></trkpt><trkpt lat="43.54931394438113" lon="11.544205660366492"><ele>137.0</ele><time>2026-04-04T09:25:39Z</time></trkpt><trkpt lat="43.54937055695584" lon="11.544160176072792"><ele>137.0</ele><time>2026-04-04T09:25:40Z</time></trkpt><trkpt lat="43.54942300547898" lon="11.544104656691225"><ele>137.0</ele><time>2026-04-04T09:25:41Z</time></trkpt><trkpt lat="43.54948192488873" lon="11.544060729119485"><ele>137.00000000000003</ele><time>2026-04-04T09:25:42Z</time></trkpt><trkpt lat="43.54953979703053" lon="11.54401130813703"><ele>137.0</ele><time>2026-04-04T09:25:43Z</time></trkpt><trkpt lat="43.54959735526418" lon="11.543962313564382"><ele>137.00000000000003</ele><time>2026-04-04T09:25:44Z</time></trkpt><trkpt lat="43.54966777560839" lon="11.543946703223556"><ele>137.0</ele><time>2026-04-04T09:25:45Z</time></trkpt><trkpt lat="43.549725420205654" lon="11.543893878004464"><ele>137.0</ele><time>2026-04-04T09:25:46Z</time></trkpt><trkpt lat="43.54978235741178" lon="11.54384033843564"><ele>137.0</ele><time>2026-04-04T09:25:47Z</time></trkpt><trkpt lat="43.54983788171176" lon="11.543783321427759"><ele>137.0</ele><time>2026-04-04T09:25:48Z</time></trkpt><trkpt lat="43.549894803287124" lon="11.543735172892376"><ele>137.00000000000003</ele><time>2026-04-04T09:25:49Z</time></trkpt><trkpt lat="43.54995282887326" lon="11.543685136224326"><ele>137.0</ele><time>2026-04-04T09:25:50Z</time></trkpt><trkpt lat="43.55000914046886" lon="11.543630669821379"><ele>137.00000000000003</ele><time>2026-04-04T09:25:51Z</time></trkpt><trkpt lat="43.55006563184279" lon="11.54358005548714"><ele>137.0</ele><time>2026-04-04T09:25:52Z</time></trkpt><trkpt lat="43.55012519509155" lon="11.543528372320102"><ele>137.0</ele><time>2026-04-04T09:25:53Z</time></trkpt><trkpt lat="43.55018207392349" lon="11.5434794502058"><ele>137.0</ele><time>2026-04-04T09:25:54Z</time></trkpt><trkpt lat="43.55023886411406" lon="11.54342569943789"><ele>137.0</ele><time>2026-04-04T09:25:55Z</time></trkpt><trkpt lat="43.55029587783256" lon="11.543375468929563"><ele>137.00000000000003</ele><time>2026-04-04T09:25:56Z</time></trkpt><trkpt lat="43.550355171198795" lon="11.543323080285791"><ele>137.0</ele><time>2026-04-04T09:25:57Z</time></trkpt><trkpt lat="43.55041213417581" lon="11.543274892620447"><ele>137.14285714285717</ele><time>2026-04-04T09:25:58Z</time></trkpt><trkpt lat="43.5504724802065" lon="11.543223669896621"><ele>137.28571428571428</ele><time>2026-04-04T09:25:58.999Z</time></trkpt><trkpt lat="43.55052868722653" lon="11.543171752186502"><ele>137.42857142857144</ele><time>2026-04-04T09:25:59.999Z</time></trkpt><trkpt lat="43.55058631456521" lon="11.543120141566844"><ele>137.57142857142858</ele><time>2026-04-04T09:26:00.999Z</time></trkpt><trkpt lat="43.55064318010428" lon="11.543066492742161"><ele>137.71428571428572</ele><time>2026-04-04T09:26:01.999Z</time></trkpt><trkpt lat="43.550701374584904" lon="11.543011098568805"><ele>137.85714285714286</ele><time>2026-04-04T09:26:02.999Z</time></trkpt><trkpt lat="43.55075942722666" lon="11.542962509189627"><ele>138.0</ele><time>2026-04-04T09:26:03.999Z</time></trkpt><trkpt lat="43.55081655734822" lon="11.54291206629296"><ele>138.0</ele><time>2026-04-04T09:26:04.999Z</time></trkpt><trkpt lat="43.55087187104952" lon="11.54286114928131"><ele>138.0</ele><time>2026-04-04T09:26:05.999Z</time></trkpt><trkpt lat="43.55092821932866" lon="11.542807487502664"><ele>138.0</ele><time>2026-04-04T09:26:06.999Z</time></trkpt><trkpt lat="43.550986222697084" lon="11.54275682584461"><ele>138.0</ele><time>2026-04-04T09:26:07.999Z</time></trkpt><trkpt lat="43.551042760639575" lon="11.542705430061508"><ele>138.0</ele><time>2026-04-04T09:26:08.999Z</time></trkpt><trkpt lat="43.55110029252208" lon="11.54265473884294"><ele>138.0</ele><time>2026-04-04T09:26:09.999Z</time></trkpt><trkpt lat="43.5511566367035" lon="11.542604122056593"><ele>138.0</ele><time>2026-04-04T09:26:10.999Z</time></trkpt><trkpt lat="43.55121278705449" lon="11.542554139706704"><ele>137.85714285714286</ele><time>2026-04-04T09:26:11.999Z</time></trkpt><trkpt lat="43.551268511654015" lon="11.542501889861862"><ele>137.71428571428572</ele><time>2026-04-04T09:26:12.999Z</time></trkpt><trkpt lat="43.551324471401365" lon="11.542451007543214"><ele>137.57142857142858</ele><time>2026-04-04T09:26:13.999Z</time></trkpt><trkpt lat="43.551381842647494" lon="11.542400015629"><ele>137.42857142857144</ele><time>2026-04-04T09:26:14.999Z</time></trkpt><trkpt lat="43.55143750571749" lon="11.542347578784524"><ele>137.28571428571428</ele><time>2026-04-04T09:26:15.999Z</time></trkpt><trkpt lat="43.55149387227348" lon="11.542299581964363"><ele>137.14285714285717</ele><time>2026-04-04T09:26:16.999Z</time></trkpt><trkpt lat="43.55155091398827" lon="11.54225188600193"><ele>137.0</ele><time>2026-04-04T09:26:17.999Z</time></trkpt><trkpt lat="43.551606376072144" lon="11.542201191551674"><ele>137.0</ele><time>2026-04-04T09:26:18.999Z</time></trkpt><trkpt lat="43.55165871492189" lon="11.542144271891571"><ele>137.0</ele><time>2026-04-04T09:26:19.999Z</time></trkpt><trkpt lat="43.55171297121649" lon="11.542094999266784"><ele>137.0</ele><time>2026-04-04T09:26:20.999Z</time></trkpt><trkpt lat="43.55176730213757" lon="11.542044256348781"><ele>137.0</ele><time>2026-04-04T09:26:21.999Z</time></trkpt><trkpt lat="43.551818648089174" lon="11.541992371910805"><ele>137.0</ele><time>2026-04-04T09:26:22.999Z</time></trkpt><trkpt lat="43.55192133284861" lon="11.541896504213321"><ele>137.0</ele><time>2026-04-04T09:26:24.999Z</time></trkpt><trkpt lat="43.552007956199105" lon="11.54183058064115"><ele>136.79999999999998</ele><time>2026-04-04T09:26:26.999Z</time></trkpt><trkpt lat="43.55210294584095" lon="11.541804303268039"><ele>136.6</ele><time>2026-04-04T09:26:28.999Z</time></trkpt><trkpt lat="43.55220080129335" lon="11.541824763969183"><ele>136.39999999999998</ele><time>2026-04-04T09:26:30.999Z</time></trkpt><trkpt lat="43.55229065285764" lon="11.54184164982524"><ele>136.2</ele><time>2026-04-04T09:26:32.999Z</time></trkpt><trkpt lat="43.552314847395365" lon="11.54198882964707"><ele>136.0</ele><time>2026-04-04T09:26:33.999Z</time></trkpt><trkpt lat="43.55236973216588" lon="11.542102053551554"><ele>136.0</ele><time>2026-04-04T09:26:35.999Z</time></trkpt><trkpt lat="43.552428238229226" lon="11.542206853731418"><ele>136.0</ele><time>2026-04-04T09:26:37.999Z</time></trkpt><trkpt lat="43.552468957922" lon="11.54230276077532"><ele>136.0</ele><time>2026-04-04T09:26:39.999Z</time></trkpt><trkpt lat="43.552433877542754" lon="11.542381909832308"><ele>136.0</ele><time>2026-04-04T09:26:41.999Z</time></trkpt><trkpt lat="43.552465656159654" lon="11.542300466511168"><ele>136.0</ele><time>2026-04-04T09:26:42.999Z</time></trkpt><trkpt lat="43.55236815314664" lon="11.542333315049444"><ele>136.0</ele><time>2026-04-04T09:26:43.999Z</time></trkpt><trkpt lat="43.55230622328775" lon="11.542185743822076"><ele>136.0</ele><time>2026-04-04T09:26:46.999Z</time></trkpt><trkpt lat="43.55225450046332" lon="11.542121082286712"><ele>136.0</ele><time>2026-04-04T09:26:48.998Z</time></trkpt><trkpt lat="43.552229759441474" lon="11.542037431827874"><ele>136.0</ele><time>2026-04-04T09:26:50.998Z</time></trkpt><trkpt lat="43.55216127474224" lon="11.541928900843981"><ele>136.0</ele><time>2026-04-04T09:26:53.998Z</time></trkpt><trkpt lat="43.55206432635839" lon="11.541917465699155"><ele>136.0</ele><time>2026-04-04T09:26:55.998Z</time></trkpt><trkpt lat="43.552004235039625" lon="11.54197068888897"><ele>136.0</ele><time>2026-04-04T09:26:57.998Z</time></trkpt><trkpt lat="43.551936839357374" lon="11.5420335674823"><ele>136.16666666666669</ele><time>2026-04-04T09:27:01.998Z</time></trkpt><trkpt lat="43.55187459991167" lon="11.5420955455166"><ele>136.33333333333334</ele><time>2026-04-04T09:27:04.998Z</time></trkpt><trkpt lat="43.55180997224134" lon="11.542162055505027"><ele>136.5</ele><time>2026-04-04T09:27:07.998Z</time></trkpt><trkpt lat="43.55181765706435" lon="11.542325842254481"><ele>136.66666666666666</ele><time>2026-04-04T09:27:09.998Z</time></trkpt><trkpt lat="43.55185542150703" lon="11.542410266624147"><ele>136.83333333333331</ele><time>2026-04-04T09:27:14.998Z</time></trkpt><trkpt lat="43.55181837789628" lon="11.542332941193363"><ele>137.0</ele><time>2026-04-04T09:27:19.998Z</time></trkpt><trkpt lat="43.55202775786945" lon="11.54196661263882"><ele>136.66666666666666</ele><time>2026-04-04T09:27:33Z</time></trkpt><trkpt lat="43.55224070563733" lon="11.541989718440824"><ele>136.33333333333334</ele><time>2026-04-04T09:27:49Z</time></trkpt><trkpt lat="43.55214243065687" lon="11.542216806755214"><ele>136.0</ele><time>2026-04-04T09:28:33.999Z</time></trkpt><trkpt lat="43.55210659362631" lon="11.542140848965525"><ele>136.0</ele><time>2026-04-04T09:28:39.999Z</time></trkpt><trkpt lat="43.552057822554325" lon="11.542196898939974"><ele>136.0</ele><time>2026-04-04T09:28:44.999Z</time></trkpt><trkpt lat="43.552067306107986" lon="11.54230044730019"><ele>136.0</ele><time>2026-04-04T09:29:02.998Z</time></trkpt><trkpt lat="43.55212954095737" lon="11.542350835443827"><ele>136.0</ele><time>2026-04-04T09:29:10.998Z</time></trkpt><trkpt lat="43.55208238590862" lon="11.542258691053409"><ele>136.0</ele><time>2026-04-04T09:29:44Z</time></trkpt><trkpt lat="43.55208822806873" lon="11.54243784863525"><ele>136.0</ele><time>2026-04-04T09:29:48Z</time></trkpt><trkpt lat="43.55208745009273" lon="11.542156481352928"><ele>135.99999999999997</ele><time>2026-04-04T09:29:54Z</time></trkpt><trkpt lat="43.55204321401932" lon="11.542220444744423"><ele>136.0</ele><time>2026-04-04T09:29:59Z</time></trkpt><trkpt lat="43.55208807445705" lon="11.542157376862644"><ele>136.0</ele><time>2026-04-04T09:30:02Z</time></trkpt><trkpt lat="43.55213875077293" lon="11.54221043169925"><ele>136.0</ele><time>2026-04-04T09:38:13Z</time></trkpt><trkpt lat="43.55220501829338" lon="11.542152961850887"><ele>136.0</ele><time>2026-04-04T09:38:19Z</time></trkpt><trkpt lat="43.5522768777011" lon="11.542255209850119"><ele>135.99999999999997</ele><time>2026-04-04T09:38:22Z</time></trkpt><trkpt lat="43.55231244567215" lon="11.542332040862625"><ele>136.0</ele><time>2026-04-04T09:38:24Z</time></trkpt><trkpt lat="43.55235975371151" lon="11.542392905626498"><ele>135.99999999999997</ele><time>2026-04-04T09:38:26Z</time></trkpt><trkpt lat="43.55242253674873" lon="11.542422971375554"><ele>136.0</ele><time>2026-04-04T09:38:28Z</time></trkpt><trkpt lat="43.55247824087006" lon="11.542372244217182"><ele>136.0</ele><time>2026-04-04T09:38:30Z</time></trkpt><trkpt lat="43.55249180499427" lon="11.54228609754759"><ele>136.0</ele><time>2026-04-04T09:38:32Z</time></trkpt><trkpt lat="43.55246531919344" lon="11.542196397326586"><ele>136.0</ele><time>2026-04-04T09:38:33.999Z</time></trkpt><trkpt lat="43.55242064667269" lon="11.542115189929284"><ele>135.99999999999997</ele><time>2026-04-04T09:38:35.999Z</time></trkpt><trkpt lat="43.55237269841168" lon="11.542022145454537"><ele>136.0</ele><time>2026-04-04T09:38:37.999Z</time></trkpt><trkpt lat="43.55233499515183" lon="11.541929936175936"><ele>135.8</ele><time>2026-04-04T09:38:39.999Z</time></trkpt><trkpt lat="43.55232301694945" lon="11.541836184477598"><ele>135.6</ele><time>2026-04-04T09:38:41.999Z</time></trkpt><trkpt lat="43.552360736758615" lon="11.541718361618397"><ele>135.4</ele><time>2026-04-04T09:38:45.999Z</time></trkpt><trkpt lat="43.55238717767315" lon="11.541597923616271"><ele>135.2</ele><time>2026-04-04T09:38:47.999Z</time></trkpt><trkpt lat="43.55243022040496" lon="11.54147874294108"><ele>135.0</ele><time>2026-04-04T09:38:49.999Z</time></trkpt><trkpt lat="43.55250773478292" lon="11.541387618460524"><ele>135.0</ele><time>2026-04-04T09:38:51.999Z</time></trkpt><trkpt lat="43.55260522508152" lon="11.541314483293185"><ele>135.0</ele><time>2026-04-04T09:38:53.999Z</time></trkpt><trkpt lat="43.55269560836935" lon="11.54123976470932"><ele>135.0</ele><time>2026-04-04T09:38:55.999Z</time></trkpt><trkpt lat="43.552780714491334" lon="11.541149041667335"><ele>135.0</ele><time>2026-04-04T09:38:57.999Z</time></trkpt><trkpt lat="43.55287269913508" lon="11.54106910733588"><ele>135.0</ele><time>2026-04-04T09:38:59.999Z</time></trkpt><trkpt lat="43.552971338308424" lon="11.540982769781543"><ele>135.75</ele><time>2026-04-04T09:39:01.999Z</time></trkpt><trkpt lat="43.5530629067047" lon="11.540887593604042"><ele>136.5</ele><time>2026-04-04T09:39:03.999Z</time></trkpt><trkpt lat="43.55316348779561" lon="11.54079619813424"><ele>137.25</ele><time>2026-04-04T09:39:05.999Z</time></trkpt><trkpt lat="43.55326270877424" lon="11.54070245186464"><ele>138.0</ele><time>2026-04-04T09:39:07.999Z</time></trkpt><trkpt lat="43.553365833119955" lon="11.540611155334263"><ele>138.0</ele><time>2026-04-04T09:39:09.999Z</time></trkpt><trkpt lat="43.55341584840144" lon="11.54055690593267"><ele>138.0</ele><time>2026-04-04T09:39:10.999Z</time></trkpt><trkpt lat="43.55351689903498" lon="11.540468226378188"><ele>138.0</ele><time>2026-04-04T09:39:12.999Z</time></trkpt><trkpt lat="43.55361525926942" lon="11.540376552078246"><ele>138.0</ele><time>2026-04-04T09:39:14.999Z</time></trkpt><trkpt lat="43.5536681960929" lon="11.540329394481848"><ele>138.0</ele><time>2026-04-04T09:39:15.999Z</time></trkpt><trkpt lat="43.55376999910395" lon="11.540243941731156"><ele>138.0</ele><time>2026-04-04T09:39:17.999Z</time></trkpt><trkpt lat="43.55387234430268" lon="11.540149617209558"><ele>138.0</ele><time>2026-04-04T09:39:19.999Z</time></trkpt><trkpt lat="43.55397901223693" lon="11.54005984831916"><ele>138.0</ele><time>2026-04-04T09:39:21.999Z</time></trkpt><trkpt lat="43.55408353708283" lon="11.53996749552532"><ele>138.0</ele><time>2026-04-04T09:39:23.999Z</time></trkpt><trkpt lat="43.55418583622853" lon="11.539874556843747"><ele>138.0</ele><time>2026-04-04T09:39:25.999Z</time></trkpt><trkpt lat="43.55429277171658" lon="11.539781572575697"><ele>138.0</ele><time>2026-04-04T09:39:27.999Z</time></trkpt><trkpt lat="43.55439737236847" lon="11.539692516727715"><ele>138.0</ele><time>2026-04-04T09:39:29.999Z</time></trkpt><trkpt lat="43.55449844870313" lon="11.539592843538161"><ele>138.0</ele><time>2026-04-04T09:39:31.998Z</time></trkpt><trkpt lat="43.55460123060354" lon="11.539492927527583"><ele>137.25</ele><time>2026-04-04T09:39:33.998Z</time></trkpt><trkpt lat="43.554702011739245" lon="11.53940216401941"><ele>136.5</ele><time>2026-04-04T09:39:35.998Z</time></trkpt><trkpt lat="43.55480188246742" lon="11.539318730306574"><ele>135.75</ele><time>2026-04-04T09:39:37.998Z</time></trkpt><trkpt lat="43.554895888968936" lon="11.539236659872362"><ele>135.0</ele><time>2026-04-04T09:39:39.998Z</time></trkpt><trkpt lat="43.55498222262551" lon="11.539161356666117"><ele>135.0</ele><time>2026-04-04T09:39:41.998Z</time></trkpt><trkpt lat="43.55507015787366" lon="11.539097502396961"><ele>135.0</ele><time>2026-04-04T09:39:43.998Z</time></trkpt><trkpt lat="43.55516148554128" lon="11.539044229503022"><ele>135.0</ele><time>2026-04-04T09:39:45.998Z</time></trkpt><trkpt lat="43.55524341415811" lon="11.539003568045382"><ele>135.0</ele><time>2026-04-04T09:39:47.998Z</time></trkpt><trkpt lat="43.55532849169908" lon="11.538963439488906"><ele>135.0</ele><time>2026-04-04T09:39:49.998Z</time></trkpt><trkpt lat="43.555418975230474" lon="11.538928496775718"><ele>135.0</ele><time>2026-04-04T09:39:51.998Z</time></trkpt><trkpt lat="43.55551945530707" lon="11.538920684210359"><ele>135.0</ele><time>2026-04-04T09:39:53.998Z</time></trkpt><trkpt lat="43.55561180743032" lon="11.538894314644061"><ele>135.0</ele><time>2026-04-04T09:39:55.998Z</time></trkpt><trkpt lat="43.55570819660539" lon="11.538881089348852"><ele>135.0</ele><time>2026-04-04T09:39:57.998Z</time></trkpt><trkpt lat="43.555813041284885" lon="11.538833880783413"><ele>135.0</ele><time>2026-04-04T09:39:59.998Z</time></trkpt><trkpt lat="43.55591767826508" lon="11.538812535986324"><ele>135.0</ele><time>2026-04-04T09:40:01.998Z</time></trkpt><trkpt lat="43.55602419658299" lon="11.53878273382517"><ele>135.0</ele><time>2026-04-04T09:40:04Z</time></trkpt><trkpt lat="43.55608745029511" lon="11.538855650227964"><ele>135.0</ele><time>2026-04-04T09:40:05Z</time></trkpt><trkpt lat="43.55619639623105" lon="11.538874563991797"><ele>135.0</ele><time>2026-04-04T09:40:07Z</time></trkpt><trkpt lat="43.55631522472525" lon="11.538898882252957"><ele>135.0</ele><time>2026-04-04T09:40:09Z</time></trkpt><trkpt lat="43.556430481672905" lon="11.538923158354434"><ele>135.0</ele><time>2026-04-04T09:40:11Z</time></trkpt><trkpt lat="43.55654440473688" lon="11.538949780467037"><ele>135.0</ele><time>2026-04-04T09:40:13Z</time></trkpt><trkpt lat="43.55665615692907" lon="11.538978507244956"><ele>135.0</ele><time>2026-04-04T09:40:15Z</time></trkpt><trkpt lat="43.55677445689401" lon="11.53901091843999"><ele>135.0</ele><time>2026-04-04T09:40:17Z</time></trkpt><trkpt lat="43.55688987244931" lon="11.53903965155317"><ele>135.0</ele><time>2026-04-04T09:40:19Z</time></trkpt><trkpt lat="43.55700445483613" lon="11.539071613338725"><ele>135.0</ele><time>2026-04-04T09:40:21Z</time></trkpt><trkpt lat="43.55711931144432" lon="11.539110045530338"><ele>135.0</ele><time>2026-04-04T09:40:23Z</time></trkpt><trkpt lat="43.557237279298704" lon="11.539144191333362"><ele>135.0</ele><time>2026-04-04T09:40:25Z</time></trkpt><trkpt lat="43.55729905829703" lon="11.53916332408724"><ele>135.0</ele><time>2026-04-04T09:40:26Z</time></trkpt><trkpt lat="43.5574162461487" lon="11.53919078006177"><ele>134.8</ele><time>2026-04-04T09:40:28Z</time></trkpt><trkpt lat="43.55747892207199" lon="11.539199697437125"><ele>134.6</ele><time>2026-04-04T09:40:29Z</time></trkpt><trkpt lat="43.557599282371065" lon="11.53921706802476"><ele>134.4</ele><time>2026-04-04T09:40:31Z</time></trkpt><trkpt lat="43.557717967244635" lon="11.539204397697569"><ele>134.2</ele><time>2026-04-04T09:40:33Z</time></trkpt><trkpt lat="43.557830338753924" lon="11.53922897411835"><ele>134.0</ele><time>2026-04-04T09:40:35Z</time></trkpt><trkpt lat="43.557943774909184" lon="11.539226784153934"><ele>134.0</ele><time>2026-04-04T09:40:37Z</time></trkpt><trkpt lat="43.55805812063449" lon="11.53921433250227"><ele>134.0</ele><time>2026-04-04T09:40:39Z</time></trkpt><trkpt lat="43.55816844157147" lon="11.539197121179198"><ele>134.0</ele><time>2026-04-04T09:40:40.999Z</time></trkpt><trkpt lat="43.55828118121904" lon="11.539182387638968"><ele>134.0</ele><time>2026-04-04T09:40:42.999Z</time></trkpt><trkpt lat="43.55839556148123" lon="11.539158270501918"><ele>134.0</ele><time>2026-04-04T09:40:44.999Z</time></trkpt><trkpt lat="43.558510117263616" lon="11.539126728135205"><ele>134.0</ele><time>2026-04-04T09:40:46.999Z</time></trkpt><trkpt lat="43.558623396642545" lon="11.539100820020357"><ele>134.0</ele><time>2026-04-04T09:40:48.999Z</time></trkpt><trkpt lat="43.5587932858604" lon="11.539042948348037"><ele>134.0</ele><time>2026-04-04T09:40:51.999Z</time></trkpt><trkpt lat="43.55890815241449" lon="11.539007981445815"><ele>134.0</ele><time>2026-04-04T09:40:53.999Z</time></trkpt><trkpt lat="43.55902061961231" lon="11.538956046440019"><ele>134.0</ele><time>2026-04-04T09:40:55.999Z</time></trkpt><trkpt lat="43.55913906782634" lon="11.53890413302513"><ele>134.0</ele><time>2026-04-04T09:40:57.999Z</time></trkpt><trkpt lat="43.55924904069" lon="11.53884507116801"><ele>134.0</ele><time>2026-04-04T09:40:59.999Z</time></trkpt><trkpt lat="43.559358406433596" lon="11.538779539541629"><ele>134.5</ele><time>2026-04-04T09:41:01.999Z</time></trkpt><trkpt lat="43.559468531762825" lon="11.53871003858612"><ele>135.0</ele><time>2026-04-04T09:41:03.999Z</time></trkpt><trkpt lat="43.559582130890114" lon="11.538637715827253"><ele>135.5</ele><time>2026-04-04T09:41:05.999Z</time></trkpt><trkpt lat="43.5596949754802" lon="11.538563453185164"><ele>136.0</ele><time>2026-04-04T09:41:07.999Z</time></trkpt><trkpt lat="43.55980571783389" lon="11.538490640964852"><ele>136.0</ele><time>2026-04-04T09:41:09.999Z</time></trkpt><trkpt lat="43.55991182243249" lon="11.53842065289632"><ele>136.0</ele><time>2026-04-04T09:41:11.999Z</time></trkpt><trkpt lat="43.560017761925195" lon="11.53834667223117"><ele>136.0</ele><time>2026-04-04T09:41:13.999Z</time></trkpt><trkpt lat="43.560119902532" lon="11.538284113935227"><ele>136.0</ele><time>2026-04-04T09:41:15.999Z</time></trkpt><trkpt lat="43.56022385506886" lon="11.538211505886585"><ele>136.0</ele><time>2026-04-04T09:41:17.999Z</time></trkpt><trkpt lat="43.56033104352624" lon="11.538141346873802"><ele>136.0</ele><time>2026-04-04T09:41:19.999Z</time></trkpt><trkpt lat="43.560436893331065" lon="11.538077010049475"><ele>136.0</ele><time>2026-04-04T09:41:21.999Z</time></trkpt><trkpt lat="43.56053311644552" lon="11.538006073857353"><ele>136.0</ele><time>2026-04-04T09:41:23.999Z</time></trkpt><trkpt lat="43.56064052224966" lon="11.537938495389925"><ele>136.4</ele><time>2026-04-04T09:41:25.999Z</time></trkpt><trkpt lat="43.56074064858868" lon="11.537863820023034"><ele>136.8</ele><time>2026-04-04T09:41:27.999Z</time></trkpt><trkpt lat="43.560845880204184" lon="11.537800335318"><ele>137.20000000000002</ele><time>2026-04-04T09:41:29.999Z</time></trkpt><trkpt lat="43.56094303122623" lon="11.537736959362782"><ele>137.6</ele><time>2026-04-04T09:41:31.999Z</time></trkpt><trkpt lat="43.56104241863954" lon="11.537676493333826"><ele>138.0</ele><time>2026-04-04T09:41:33.999Z</time></trkpt><trkpt lat="43.56113899643135" lon="11.537611164541044"><ele>137.6</ele><time>2026-04-04T09:41:35.999Z</time></trkpt><trkpt lat="43.56124204681968" lon="11.53756228543972"><ele>137.20000000000002</ele><time>2026-04-04T09:41:37.999Z</time></trkpt><trkpt lat="43.56133828662129" lon="11.537493678961386"><ele>136.8</ele><time>2026-04-04T09:41:39.999Z</time></trkpt><trkpt lat="43.56143053314874" lon="11.537418678848157"><ele>136.4</ele><time>2026-04-04T09:41:41.999Z</time></trkpt><trkpt lat="43.561529470981" lon="11.537344237250258"><ele>136.0</ele><time>2026-04-04T09:41:43.998Z</time></trkpt><trkpt lat="43.561624482317754" lon="11.537269557849054"><ele>136.0</ele><time>2026-04-04T09:41:45.998Z</time></trkpt><trkpt lat="43.561720254810155" lon="11.53720474519255"><ele>136.0</ele><time>2026-04-04T09:41:47.998Z</time></trkpt><trkpt lat="43.56181588765306" lon="11.537133097720433"><ele>136.0</ele><time>2026-04-04T09:41:49.998Z</time></trkpt><trkpt lat="43.561912131108" lon="11.537060353500122"><ele>136.0</ele><time>2026-04-04T09:41:51.998Z</time></trkpt><trkpt lat="43.56200623578675" lon="11.537004683972732"><ele>136.0</ele><time>2026-04-04T09:41:53.998Z</time></trkpt><trkpt lat="43.56209796744276" lon="11.536945662461246"><ele>136.4</ele><time>2026-04-04T09:41:55.998Z</time></trkpt><trkpt lat="43.56219124241021" lon="11.536883765876983"><ele>136.8</ele><time>2026-04-04T09:41:57.998Z</time></trkpt><trkpt lat="43.56228309408649" lon="11.536832259089975"><ele>137.20000000000002</ele><time>2026-04-04T09:41:59.998Z</time></trkpt><trkpt lat="43.56237513656343" lon="11.536772761350624"><ele>137.6</ele><time>2026-04-04T09:42:01.998Z</time></trkpt><trkpt lat="43.56246679229211" lon="11.536718173807225"><ele>138.0</ele><time>2026-04-04T09:42:03.998Z</time></trkpt><trkpt lat="43.562556530165836" lon="11.536657332951208"><ele>138.0</ele><time>2026-04-04T09:42:05.998Z</time></trkpt><trkpt lat="43.56264455034072" lon="11.536599297760844"><ele>138.0</ele><time>2026-04-04T09:42:07.998Z</time></trkpt><trkpt lat="43.562737472315305" lon="11.536533325468044"><ele>138.0</ele><time>2026-04-04T09:42:10Z</time></trkpt><trkpt lat="43.56282808935585" lon="11.536477836224872"><ele>138.0</ele><time>2026-04-04T09:42:12Z</time></trkpt><trkpt lat="43.56292050537011" lon="11.53641727497208"><ele>138.0</ele><time>2026-04-04T09:42:14Z</time></trkpt><trkpt lat="43.563021841226515" lon="11.536357576918963"><ele>137.8</ele><time>2026-04-04T09:42:16Z</time></trkpt><trkpt lat="43.56312223893735" lon="11.536293447249948"><ele>137.60000000000002</ele><time>2026-04-04T09:42:18Z</time></trkpt><trkpt lat="43.563219061347155" lon="11.536230933392199"><ele>137.39999999999998</ele><time>2026-04-04T09:42:20Z</time></trkpt><trkpt lat="43.56331970914109" lon="11.536171286402265"><ele>137.2</ele><time>2026-04-04T09:42:22Z</time></trkpt><trkpt lat="43.56342352886488" lon="11.536100675772374"><ele>137.0</ele><time>2026-04-04T09:42:24Z</time></trkpt><trkpt lat="43.56352444768372" lon="11.536031243586313"><ele>137.0</ele><time>2026-04-04T09:42:26Z</time></trkpt><trkpt lat="43.56362405133675" lon="11.535956335717083"><ele>137.0</ele><time>2026-04-04T09:42:28Z</time></trkpt><trkpt lat="43.56372971431785" lon="11.535896273500748"><ele>137.0</ele><time>2026-04-04T09:42:30Z</time></trkpt><trkpt lat="43.56383129195821" lon="11.53582877753851"><ele>137.0</ele><time>2026-04-04T09:42:32Z</time></trkpt><trkpt lat="43.56394192861308" lon="11.535756838549842"><ele>136.5</ele><time>2026-04-04T09:42:34Z</time></trkpt><trkpt lat="43.56404549152644" lon="11.53569892789991"><ele>136.0</ele><time>2026-04-04T09:42:36Z</time></trkpt><trkpt lat="43.56414978874637" lon="11.535629722402446"><ele>135.5</ele><time>2026-04-04T09:42:38Z</time></trkpt><trkpt lat="43.564262342254246" lon="11.535556314172197"><ele>135.0</ele><time>2026-04-04T09:42:40Z</time></trkpt><trkpt lat="43.56437404045982" lon="11.535489162611684"><ele>135.0</ele><time>2026-04-04T09:42:42Z</time></trkpt><trkpt lat="43.564481404429095" lon="11.53542049813186"><ele>135.0</ele><time>2026-04-04T09:42:44Z</time></trkpt><trkpt lat="43.5645924981376" lon="11.535353605842285"><ele>135.0</ele><time>2026-04-04T09:42:46Z</time></trkpt><trkpt lat="43.56470262301609" lon="11.535281411638058"><ele>135.0</ele><time>2026-04-04T09:42:48Z</time></trkpt><trkpt lat="43.56481593083684" lon="11.535210876244959"><ele>135.0</ele><time>2026-04-04T09:42:50Z</time></trkpt><trkpt lat="43.564927316471696" lon="11.535140240737784"><ele>135.0</ele><time>2026-04-04T09:42:52Z</time></trkpt><trkpt lat="43.56503668217809" lon="11.53506406423107"><ele>135.0</ele><time>2026-04-04T09:42:53.999Z</time></trkpt><trkpt lat="43.56514189588743" lon="11.534989984163115"><ele>135.0</ele><time>2026-04-04T09:42:55.999Z</time></trkpt><trkpt lat="43.565251439420585" lon="11.53491358788802"><ele>135.0</ele><time>2026-04-04T09:42:57.999Z</time></trkpt><trkpt lat="43.56530730352392" lon="11.534871685310634"><ele>135.0</ele><time>2026-04-04T09:42:58.999Z</time></trkpt><trkpt lat="43.56541955287578" lon="11.534799993405528"><ele>135.0</ele><time>2026-04-04T09:43:00.999Z</time></trkpt><trkpt lat="43.565475160908214" lon="11.53475542914379"><ele>135.0</ele><time>2026-04-04T09:43:01.999Z</time></trkpt><trkpt lat="43.565587007089334" lon="11.534694647598297"><ele>135.0</ele><time>2026-04-04T09:43:03.999Z</time></trkpt><trkpt lat="43.565705587194465" lon="11.534662190938105"><ele>134.8</ele><time>2026-04-04T09:43:05.999Z</time></trkpt><trkpt lat="43.56582295233608" lon="11.53466310574572"><ele>134.6</ele><time>2026-04-04T09:43:07.999Z</time></trkpt><trkpt lat="43.56593044225889" lon="11.534577203024341"><ele>134.4</ele><time>2026-04-04T09:43:09.999Z</time></trkpt><trkpt lat="43.56597481568049" lon="11.53450893852117"><ele>134.2</ele><time>2026-04-04T09:43:10.999Z</time></trkpt><trkpt lat="43.56605663726267" lon="11.534376837729036"><ele>134.0</ele><time>2026-04-04T09:43:12.999Z</time></trkpt><trkpt lat="43.56611540584093" lon="11.534332627465863"><ele>134.16666666666666</ele><time>2026-04-04T09:43:13.999Z</time></trkpt><trkpt lat="43.56621502168573" lon="11.534235235152636"><ele>134.33333333333331</ele><time>2026-04-04T09:43:15.999Z</time></trkpt><trkpt lat="43.56629430790956" lon="11.534223262778966"><ele>134.5</ele><time>2026-04-04T09:43:16.999Z</time></trkpt><trkpt lat="43.5663526091873" lon="11.534176483119952"><ele>134.66666666666666</ele><time>2026-04-04T09:43:17.999Z</time></trkpt><trkpt lat="43.566411316751754" lon="11.534136106181396"><ele>134.83333333333334</ele><time>2026-04-04T09:43:18.999Z</time></trkpt><trkpt lat="43.56647175568158" lon="11.53409428722062"><ele>135.0</ele><time>2026-04-04T09:43:19.999Z</time></trkpt><trkpt lat="43.56653523989227" lon="11.534053930653583"><ele>135.0</ele><time>2026-04-04T09:43:20.999Z</time></trkpt><trkpt lat="43.56659821383237" lon="11.534015667826546"><ele>135.0</ele><time>2026-04-04T09:43:21.999Z</time></trkpt><trkpt lat="43.566655504814264" lon="11.533975585207344"><ele>135.0</ele><time>2026-04-04T09:43:22.999Z</time></trkpt><trkpt lat="43.56671539508095" lon="11.533934457096343"><ele>135.0</ele><time>2026-04-04T09:43:23.999Z</time></trkpt><trkpt lat="43.56677391259999" lon="11.533886933771887"><ele>135.0</ele><time>2026-04-04T09:43:24.999Z</time></trkpt><trkpt lat="43.56683437529782" lon="11.533851523405326"><ele>135.0</ele><time>2026-04-04T09:43:25.999Z</time></trkpt><trkpt lat="43.56689602664179" lon="11.533813728244215"><ele>135.0</ele><time>2026-04-04T09:43:26.999Z</time></trkpt><trkpt lat="43.56696016662333" lon="11.53377687605083"><ele>135.0</ele><time>2026-04-04T09:43:27.999Z</time></trkpt><trkpt lat="43.567019348497524" lon="11.533739350677635"><ele>135.0</ele><time>2026-04-04T09:43:28.999Z</time></trkpt><trkpt lat="43.56708019111835" lon="11.533692273982386"><ele>135.0</ele><time>2026-04-04T09:43:29.999Z</time></trkpt><trkpt lat="43.56713884466801" lon="11.533656280826603"><ele>135.0</ele><time>2026-04-04T09:43:30.999Z</time></trkpt><trkpt lat="43.56719733790383" lon="11.533621522317917"><ele>135.0</ele><time>2026-04-04T09:43:31.999Z</time></trkpt><trkpt lat="43.56730684151886" lon="11.533541855437283"><ele>135.0</ele><time>2026-04-04T09:43:33.999Z</time></trkpt><trkpt lat="43.56740614587015" lon="11.533464492633769"><ele>135.5</ele><time>2026-04-04T09:43:35.999Z</time></trkpt><trkpt lat="43.56748265945873" lon="11.533453770483694"><ele>136.0</ele><time>2026-04-04T09:44:01.998Z</time></trkpt><trkpt lat="43.56756390948294" lon="11.533401122534015"><ele>136.5</ele><time>2026-04-04T09:44:05.998Z</time></trkpt><trkpt lat="43.5676212097928" lon="11.533362923288614"><ele>137.0</ele><time>2026-04-04T09:44:07.998Z</time></trkpt><trkpt lat="43.56768701715274" lon="11.53331752814351"><ele>137.5</ele><time>2026-04-04T09:44:09.998Z</time></trkpt><trkpt lat="43.567761365219084" lon="11.533267049136208"><ele>138.0</ele><time>2026-04-04T09:44:11.998Z</time></trkpt><trkpt lat="43.5678422805028" lon="11.53320645624877"><ele>137.0</ele><time>2026-04-04T09:44:13.998Z</time></trkpt><trkpt lat="43.56792732969062" lon="11.533143588634767"><ele>136.0</ele><time>2026-04-04T09:44:16Z</time></trkpt><trkpt lat="43.56801811192365" lon="11.533095845691621"><ele>135.0</ele><time>2026-04-04T09:44:18Z</time></trkpt><trkpt lat="43.5681110628607" lon="11.533048223301986"><ele>134.0</ele><time>2026-04-04T09:44:20Z</time></trkpt><trkpt lat="43.568198654920764" lon="11.532983618085368"><ele>133.0</ele><time>2026-04-04T09:44:22Z</time></trkpt><trkpt lat="43.568279722017834" lon="11.532927649428073"><ele>133.20000000000002</ele><time>2026-04-04T09:44:24Z</time></trkpt><trkpt lat="43.568363940476715" lon="11.532871773558357"><ele>133.4</ele><time>2026-04-04T09:44:26Z</time></trkpt><trkpt lat="43.56845048064786" lon="11.532805997804811"><ele>133.60000000000002</ele><time>2026-04-04T09:44:28Z</time></trkpt><trkpt lat="43.568548102924936" lon="11.532747553733168"><ele>133.8</ele><time>2026-04-04T09:44:30Z</time></trkpt><trkpt lat="43.568646334225114" lon="11.532678796460019"><ele>134.0</ele><time>2026-04-04T09:44:32Z</time></trkpt><trkpt lat="43.56874445253368" lon="11.532623790955766"><ele>134.0</ele><time>2026-04-04T09:44:34Z</time></trkpt><trkpt lat="43.5688424242709" lon="11.5325494877884"><ele>134.0</ele><time>2026-04-04T09:44:36Z</time></trkpt><trkpt lat="43.56894849605384" lon="11.532486146176083"><ele>134.0</ele><time>2026-04-04T09:44:38Z</time></trkpt><trkpt lat="43.56905079242915" lon="11.532417512975098"><ele>134.0</ele><time>2026-04-04T09:44:40Z</time></trkpt><trkpt lat="43.56915330572552" lon="11.532345315351206"><ele>134.0</ele><time>2026-04-04T09:44:42Z</time></trkpt><trkpt lat="43.56926093433322" lon="11.532279347139445"><ele>134.0</ele><time>2026-04-04T09:44:44Z</time></trkpt><trkpt lat="43.56935258714482" lon="11.532187937012889"><ele>134.0</ele><time>2026-04-04T09:44:46Z</time></trkpt><trkpt lat="43.56945697589524" lon="11.53213993763976"><ele>134.0</ele><time>2026-04-04T09:44:48Z</time></trkpt><trkpt lat="43.569559853273454" lon="11.532078339936621"><ele>134.0</ele><time>2026-04-04T09:44:50Z</time></trkpt><trkpt lat="43.56965783376298" lon="11.53200980784285"><ele>134.0</ele><time>2026-04-04T09:44:52Z</time></trkpt><trkpt lat="43.56975896516591" lon="11.531962599934408"><ele>134.0</ele><time>2026-04-04T09:44:54Z</time></trkpt><trkpt lat="43.569852665069774" lon="11.531886545414697"><ele>134.0</ele><time>2026-04-04T09:44:56Z</time></trkpt><trkpt lat="43.569954926021964" lon="11.531812592120096"><ele>134.0</ele><time>2026-04-04T09:44:58Z</time></trkpt><trkpt lat="43.57006125345998" lon="11.531746834360629"><ele>134.0</ele><time>2026-04-04T09:45:00Z</time></trkpt><trkpt lat="43.570171269142605" lon="11.53168018685702"><ele>134.0</ele><time>2026-04-04T09:45:01.999Z</time></trkpt><trkpt lat="43.570284405027486" lon="11.53160796721903"><ele>134.0</ele><time>2026-04-04T09:45:03.999Z</time></trkpt><trkpt lat="43.57039798457016" lon="11.531539766396088"><ele>134.0</ele><time>2026-04-04T09:45:05.999Z</time></trkpt><trkpt lat="43.57045992992642" lon="11.531495885598705"><ele>134.0</ele><time>2026-04-04T09:45:06.999Z</time></trkpt><trkpt lat="43.57052968542786" lon="11.531459266589748"><ele>134.0</ele><time>2026-04-04T09:45:07.999Z</time></trkpt><trkpt lat="43.570625933690394" lon="11.531381063415287"><ele>134.0</ele><time>2026-04-04T09:45:09.999Z</time></trkpt><trkpt lat="43.57067746842692" lon="11.531324551235851"><ele>134.0</ele><time>2026-04-04T09:45:10.999Z</time></trkpt><trkpt lat="43.570780121146555" lon="11.531226682168517"><ele>134.0</ele><time>2026-04-04T09:45:12.999Z</time></trkpt><trkpt lat="43.570822156821166" lon="11.531158171412716"><ele>134.0</ele><time>2026-04-04T09:45:13.999Z</time></trkpt><trkpt lat="43.57087674304294" lon="11.53109314636198"><ele>134.0</ele><time>2026-04-04T09:45:14.999Z</time></trkpt><trkpt lat="43.57092352156513" lon="11.531031621086713"><ele>134.16666666666666</ele><time>2026-04-04T09:45:15.999Z</time></trkpt><trkpt lat="43.57098556783743" lon="11.530990135784652"><ele>134.33333333333331</ele><time>2026-04-04T09:45:16.999Z</time></trkpt><trkpt lat="43.57107705449622" lon="11.53087532429724"><ele>134.5</ele><time>2026-04-04T09:45:18.999Z</time></trkpt><trkpt lat="43.57113498046606" lon="11.530836925588611"><ele>134.66666666666666</ele><time>2026-04-04T09:45:20.999Z</time></trkpt><trkpt lat="43.571222344227735" lon="11.530797392380483"><ele>134.83333333333334</ele><time>2026-04-04T09:45:23.999Z</time></trkpt><trkpt lat="43.57130015624764" lon="11.530782950925929"><ele>135.0</ele><time>2026-04-04T09:45:25.999Z</time></trkpt><trkpt lat="43.57131979465287" lon="11.530681789882312"><ele>135.0</ele><time>2026-04-04T09:45:26.999Z</time></trkpt><trkpt lat="43.57127004173741" lon="11.530534785779944"><ele>135.0</ele><time>2026-04-04T09:45:28.999Z</time></trkpt><trkpt lat="43.57118545846631" lon="11.530459616142354"><ele>135.0</ele><time>2026-04-04T09:45:30.999Z</time></trkpt><trkpt lat="43.571181219924036" lon="11.530324649688742"><ele>135.0</ele><time>2026-04-04T09:45:31.999Z</time></trkpt><trkpt lat="43.571175509543174" lon="11.530232949114565"><ele>135.0</ele><time>2026-04-04T09:45:32.999Z</time></trkpt><trkpt lat="43.57122092710225" lon="11.5300718375276"><ele>134.75</ele><time>2026-04-04T09:45:34.999Z</time></trkpt><trkpt lat="43.571255090060646" lon="11.529914543491808"><ele>134.5</ele><time>2026-04-04T09:45:36.999Z</time></trkpt><trkpt lat="43.57128779346889" lon="11.529758456573541"><ele>134.25</ele><time>2026-04-04T09:45:38.999Z</time></trkpt><trkpt lat="43.57131579715035" lon="11.529593266051178"><ele>134.0</ele><time>2026-04-04T09:45:40.999Z</time></trkpt><trkpt lat="43.57134734189684" lon="11.529429509942224"><ele>134.5</ele><time>2026-04-04T09:45:42.999Z</time></trkpt><trkpt lat="43.57138048393337" lon="11.52925820843438"><ele>135.0</ele><time>2026-04-04T09:45:44.999Z</time></trkpt><trkpt lat="43.57141269196433" lon="11.529085588510245"><ele>135.5</ele><time>2026-04-04T09:45:46.999Z</time></trkpt><trkpt lat="43.57144385450335" lon="11.52891398148428"><ele>136.0</ele><time>2026-04-04T09:45:48.999Z</time></trkpt><trkpt lat="43.57145943629787" lon="11.528826437573716"><ele>135.8</ele><time>2026-04-04T09:45:49.999Z</time></trkpt><trkpt lat="43.571490665647715" lon="11.5286590897533"><ele>135.6</ele><time>2026-04-04T09:45:51.999Z</time></trkpt><trkpt lat="43.571507981560956" lon="11.52857090314627"><ele>135.4</ele><time>2026-04-04T09:45:52.999Z</time></trkpt><trkpt lat="43.57152230648817" lon="11.528483357706525"><ele>135.2</ele><time>2026-04-04T09:45:53.999Z</time></trkpt><trkpt lat="43.57155188528325" lon="11.528312623759616"><ele>135.0</ele><time>2026-04-04T09:45:55.999Z</time></trkpt><trkpt lat="43.571588350659084" lon="11.528144549740857"><ele>135.0</ele><time>2026-04-04T09:45:57.999Z</time></trkpt><trkpt lat="43.57162623758557" lon="11.52798343856784"><ele>135.0</ele><time>2026-04-04T09:45:59.999Z</time></trkpt><trkpt lat="43.57165675108187" lon="11.527820888115986"><ele>135.0</ele><time>2026-04-04T09:46:01.998Z</time></trkpt><trkpt lat="43.571672104965984" lon="11.527735217668893"><ele>135.0</ele><time>2026-04-04T09:46:02.998Z</time></trkpt><trkpt lat="43.571685168294096" lon="11.52764997326278"><ele>135.0</ele><time>2026-04-04T09:46:03.998Z</time></trkpt><trkpt lat="43.571715393285345" lon="11.527483562157137"><ele>134.83333333333334</ele><time>2026-04-04T09:46:05.998Z</time></trkpt><trkpt lat="43.57172997794699" lon="11.527395581169095"><ele>134.66666666666666</ele><time>2026-04-04T09:46:06.998Z</time></trkpt><trkpt lat="43.571764057513285" lon="11.52722589367504"><ele>134.5</ele><time>2026-04-04T09:46:08.998Z</time></trkpt><trkpt lat="43.57178089638935" lon="11.527139028633192"><ele>134.33333333333331</ele><time>2026-04-04T09:46:09.998Z</time></trkpt><trkpt lat="43.571797640731575" lon="11.527052669612603"><ele>134.16666666666666</ele><time>2026-04-04T09:46:10.998Z</time></trkpt><trkpt lat="43.571812397968955" lon="11.526965260054173"><ele>134.0</ele><time>2026-04-04T09:46:11.998Z</time></trkpt><trkpt lat="43.57182639958809" lon="11.526877334701856"><ele>133.83333333333331</ele><time>2026-04-04T09:46:12.998Z</time></trkpt><trkpt lat="43.571840294848414" lon="11.526790918987551"><ele>133.66666666666666</ele><time>2026-04-04T09:46:13.998Z</time></trkpt><trkpt lat="43.5718549233115" lon="11.526705228116938"><ele>133.5</ele><time>2026-04-04T09:46:14.998Z</time></trkpt><trkpt lat="43.57187013140839" lon="11.526617412785502"><ele>133.33333333333334</ele><time>2026-04-04T09:46:15.998Z</time></trkpt><trkpt lat="43.57189175782238" lon="11.526527588369913"><ele>133.16666666666669</ele><time>2026-04-04T09:46:16.998Z</time></trkpt><trkpt lat="43.57191942513145" lon="11.526355443782462"><ele>133.0</ele><time>2026-04-04T09:46:18.998Z</time></trkpt><trkpt lat="43.571938907659586" lon="11.526262153198148"><ele>133.0</ele><time>2026-04-04T09:46:19.998Z</time></trkpt><trkpt lat="43.571952593324085" lon="11.52617702351878"><ele>133.0</ele><time>2026-04-04T09:46:20.998Z</time></trkpt><trkpt lat="43.571967796786694" lon="11.526084525465611"><ele>133.0</ele><time>2026-04-04T09:46:22Z</time></trkpt><trkpt lat="43.5719875793378" lon="11.525995389159103"><ele>133.0</ele><time>2026-04-04T09:46:23Z</time></trkpt><trkpt lat="43.572003901072016" lon="11.525907107685121"><ele>133.0</ele><time>2026-04-04T09:46:24Z</time></trkpt><trkpt lat="43.57203118479078" lon="11.525735901583406"><ele>133.0</ele><time>2026-04-04T09:46:26Z</time></trkpt><trkpt lat="43.572043763488665" lon="11.525648662105848"><ele>132.85714285714286</ele><time>2026-04-04T09:46:27Z</time></trkpt><trkpt lat="43.57205902511972" lon="11.525559661138598"><ele>132.71428571428572</ele><time>2026-04-04T09:46:28Z</time></trkpt><trkpt lat="43.57207310438209" lon="11.525469762929955"><ele>132.57142857142856</ele><time>2026-04-04T09:46:29Z</time></trkpt><trkpt lat="43.57209100909558" lon="11.525377401855192"><ele>132.42857142857144</ele><time>2026-04-04T09:46:30Z</time></trkpt><trkpt lat="43.572105506607635" lon="11.52528778052924"><ele>132.28571428571428</ele><time>2026-04-04T09:46:31Z</time></trkpt><trkpt lat="43.57212059077402" lon="11.52519896981647"><ele>132.14285714285714</ele><time>2026-04-04T09:46:32Z</time></trkpt><trkpt lat="43.57215315328511" lon="11.52510943344387"><ele>132.0</ele><time>2026-04-04T09:46:33Z</time></trkpt><trkpt lat="43.5721728828822" lon="11.525024946901652"><ele>132.0</ele><time>2026-04-04T09:46:34Z</time></trkpt><trkpt lat="43.572187839419946" lon="11.524936376818617"><ele>132.0</ele><time>2026-04-04T09:46:35Z</time></trkpt><trkpt lat="43.572206254161685" lon="11.524846287715686"><ele>132.0</ele><time>2026-04-04T09:46:36Z</time></trkpt><trkpt lat="43.572236494421794" lon="11.524675225641232"><ele>132.0</ele><time>2026-04-04T09:46:38Z</time></trkpt><trkpt lat="43.57224830176095" lon="11.524586639655414"><ele>132.0</ele><time>2026-04-04T09:46:39Z</time></trkpt><trkpt lat="43.572262198728765" lon="11.524498679401885"><ele>132.0</ele><time>2026-04-04T09:46:40Z</time></trkpt><trkpt lat="43.57227899859491" lon="11.524408518447336"><ele>131.75</ele><time>2026-04-04T09:46:41Z</time></trkpt><trkpt lat="43.57231075275386" lon="11.524234814617346"><ele>131.5</ele><time>2026-04-04T09:46:43Z</time></trkpt><trkpt lat="43.572344338377" lon="11.52405914985636"><ele>131.25</ele><time>2026-04-04T09:46:45Z</time></trkpt><trkpt lat="43.57237555348354" lon="11.523888069085132"><ele>131.0</ele><time>2026-04-04T09:46:47Z</time></trkpt><trkpt lat="43.57239729327654" lon="11.523798814226957"><ele>131.0</ele><time>2026-04-04T09:46:48Z</time></trkpt><trkpt lat="43.572414791050335" lon="11.523712753416826"><ele>131.0</ele><time>2026-04-04T09:46:49Z</time></trkpt><trkpt lat="43.572433749599085" lon="11.523629762410668"><ele>131.0</ele><time>2026-04-04T09:46:50Z</time></trkpt><trkpt lat="43.57245396339504" lon="11.523545520421553"><ele>131.0</ele><time>2026-04-04T09:46:51Z</time></trkpt><trkpt lat="43.57249964373244" lon="11.523464887252734"><ele>131.0</ele><time>2026-04-04T09:46:52Z</time></trkpt><trkpt lat="43.572614456038615" lon="11.523401501056401"><ele>131.0</ele><time>2026-04-04T09:46:54Z</time></trkpt><trkpt lat="43.5726777753974" lon="11.523393935769658"><ele>131.0</ele><time>2026-04-04T09:46:55Z</time></trkpt><trkpt lat="43.57273680346355" lon="11.523357062766541"><ele>131.0</ele><time>2026-04-04T09:46:56Z</time></trkpt><trkpt lat="43.57278641815762" lon="11.523302546413666"><ele>131.0</ele><time>2026-04-04T09:46:57Z</time></trkpt><trkpt lat="43.572863282450015" lon="11.52316370119573"><ele>131.0</ele><time>2026-04-04T09:46:59Z</time></trkpt><trkpt lat="43.57288194520112" lon="11.523076111222474"><ele>131.0</ele><time>2026-04-04T09:47:00Z</time></trkpt><trkpt lat="43.57296231273873" lon="11.523044137496377"><ele>131.0</ele><time>2026-04-04T09:47:01Z</time></trkpt><trkpt lat="43.57301228131731" lon="11.522987485724768"><ele>131.0</ele><time>2026-04-04T09:47:02Z</time></trkpt><trkpt lat="43.57314123286073" lon="11.52295936833226"><ele>131.0</ele><time>2026-04-04T09:47:04Z</time></trkpt><trkpt lat="43.573257996125385" lon="11.522908478626062"><ele>131.0</ele><time>2026-04-04T09:47:06Z</time></trkpt><trkpt lat="43.57340291483807" lon="11.522859452974837"><ele>131.0</ele><time>2026-04-04T09:47:09Z</time></trkpt><trkpt lat="43.5734957447671" lon="11.522829394444665"><ele>131.0</ele><time>2026-04-04T09:47:11Z</time></trkpt><trkpt lat="43.57359181596633" lon="11.52279361271057"><ele>131.0</ele><time>2026-04-04T09:47:12.999Z</time></trkpt><trkpt lat="43.573663722566614" lon="11.522774933738706"><ele>131.0</ele><time>2026-04-04T09:47:14.999Z</time></trkpt><trkpt lat="43.573729573477166" lon="11.522741968202794"><ele>131.0</ele><time>2026-04-04T09:47:16.999Z</time></trkpt><trkpt lat="43.57364746651218" lon="11.522742283434715"><ele>131.0</ele><time>2026-04-04T09:47:21.999Z</time></trkpt><trkpt lat="43.57354675359926" lon="11.522737808027106"><ele>131.0</ele><time>2026-04-04T09:47:23.999Z</time></trkpt><trkpt lat="43.57345009898405" lon="11.522769028887025"><ele>131.0</ele><time>2026-04-04T09:47:25.999Z</time></trkpt><trkpt lat="43.5733491405612" lon="11.522800423090409"><ele>131.0</ele><time>2026-04-04T09:47:27.999Z</time></trkpt><trkpt lat="43.57325901091403" lon="11.522831035958436"><ele>131.0</ele><time>2026-04-04T09:47:29.999Z</time></trkpt><trkpt lat="43.5731585174369" lon="11.52287770306707"><ele>131.0</ele><time>2026-04-04T09:47:31.999Z</time></trkpt><trkpt lat="43.573053975517965" lon="11.522905270492378"><ele>131.0</ele><time>2026-04-04T09:47:33.999Z</time></trkpt><trkpt lat="43.57290193271193" lon="11.522926101900193"><ele>131.2</ele><time>2026-04-04T09:47:36.999Z</time></trkpt><trkpt lat="43.57281081755841" lon="11.522851594917832"><ele>131.39999999999998</ele><time>2026-04-04T09:47:38.999Z</time></trkpt><trkpt lat="43.5727886680516" lon="11.522702484390267"><ele>131.6</ele><time>2026-04-04T09:47:40.999Z</time></trkpt><trkpt lat="43.572823146632594" lon="11.52256360981895"><ele>131.79999999999998</ele><time>2026-04-04T09:47:42.999Z</time></trkpt><trkpt lat="43.57286919497888" lon="11.522441364028731"><ele>132.0</ele><time>2026-04-04T09:47:44.999Z</time></trkpt><trkpt lat="43.57291345548269" lon="11.52231871142569"><ele>132.0</ele><time>2026-04-04T09:47:46.999Z</time></trkpt><trkpt lat="43.57296285392529" lon="11.522200498550662"><ele>132.0</ele><time>2026-04-04T09:47:48.999Z</time></trkpt><trkpt lat="43.57300258699958" lon="11.522075235897951"><ele>132.0</ele><time>2026-04-04T09:47:50.999Z</time></trkpt><trkpt lat="43.573057304129605" lon="11.521943679566284"><ele>132.0</ele><time>2026-04-04T09:47:52.999Z</time></trkpt><trkpt lat="43.57311563604957" lon="11.521817841098589"><ele>132.0</ele><time>2026-04-04T09:47:54.999Z</time></trkpt><trkpt lat="43.573163163742144" lon="11.521678959335562"><ele>132.0</ele><time>2026-04-04T09:47:56.999Z</time></trkpt><trkpt lat="43.57320366907558" lon="11.521535037521552"><ele>132.0</ele><time>2026-04-04T09:47:58.999Z</time></trkpt><trkpt lat="43.57322726407193" lon="11.521378659323696"><ele>132.0</ele><time>2026-04-04T09:48:00.999Z</time></trkpt><trkpt lat="43.57324511495391" lon="11.521210937735127"><ele>132.0</ele><time>2026-04-04T09:48:02.999Z</time></trkpt><trkpt lat="43.57325220388153" lon="11.521104995965663"><ele>132.0</ele><time>2026-04-04T09:48:03.999Z</time></trkpt><trkpt lat="43.573263692639316" lon="11.520995167294458"><ele>132.0</ele><time>2026-04-04T09:48:04.999Z</time></trkpt><trkpt lat="43.57327447418231" lon="11.520877431581887"><ele>132.0</ele><time>2026-04-04T09:48:05.999Z</time></trkpt><trkpt lat="43.57328912328308" lon="11.520753702228843"><ele>132.0</ele><time>2026-04-04T09:48:06.999Z</time></trkpt><trkpt lat="43.57330607652592" lon="11.520630367114222"><ele>132.0</ele><time>2026-04-04T09:48:07.999Z</time></trkpt><trkpt lat="43.573339240567734" lon="11.520501976534907"><ele>132.0</ele><time>2026-04-04T09:48:08.998Z</time></trkpt><trkpt lat="43.57335727982206" lon="11.520375349211493"><ele>132.2</ele><time>2026-04-04T09:48:09.998Z</time></trkpt><trkpt lat="43.573381018497756" lon="11.520249126187657"><ele>132.39999999999998</ele><time>2026-04-04T09:48:11.023Z</time></trkpt><trkpt lat="43.5734104638166" lon="11.520123421703184"><ele>132.60000000000002</ele><time>2026-04-04T09:48:12.025Z</time></trkpt><trkpt lat="43.57343599569278" lon="11.520003420828377"><ele>132.8</ele><time>2026-04-04T09:48:13.021Z</time></trkpt><trkpt lat="43.57346197278357" lon="11.519880752114402"><ele>133.0</ele><time>2026-04-04T09:48:14.021Z</time></trkpt><trkpt lat="43.57348513941465" lon="11.519758933512039"><ele>133.20000000000002</ele><time>2026-04-04T09:48:15.027Z</time></trkpt><trkpt lat="43.5734284604345" lon="11.51955554496727"><ele>133.4</ele><time>2026-04-04T09:48:16.998Z</time></trkpt><trkpt lat="43.57343614535196" lon="11.519460274026537"><ele>133.60000000000002</ele><time>2026-04-04T09:48:17.998Z</time></trkpt><trkpt lat="43.5734642783046" lon="11.51930626605682"><ele>133.8</ele><time>2026-04-04T09:48:19.998Z</time></trkpt><trkpt lat="43.57348058837993" lon="11.519183648960482"><ele>134.0</ele><time>2026-04-04T09:48:21.998Z</time></trkpt><trkpt lat="43.57349239528469" lon="11.5190603999879"><ele>134.0</ele><time>2026-04-04T09:48:23.998Z</time></trkpt><trkpt lat="43.57350609839276" lon="11.518946745615002"><ele>134.0</ele><time>2026-04-04T09:48:25.998Z</time></trkpt><trkpt lat="43.573512626267316" lon="11.518822654456528"><ele>134.0</ele><time>2026-04-04T09:48:28Z</time></trkpt><trkpt lat="43.57353586673521" lon="11.518695741782969"><ele>134.0</ele><time>2026-04-04T09:48:30Z</time></trkpt><trkpt lat="43.57355523102415" lon="11.51856739417625"><ele>134.0</ele><time>2026-04-04T09:48:32Z</time></trkpt><trkpt lat="43.57357372990124" lon="11.518429565824352"><ele>134.0</ele><time>2026-04-04T09:48:34Z</time></trkpt><trkpt lat="43.57358267848422" lon="11.518286684767254"><ele>134.0</ele><time>2026-04-04T09:48:36Z</time></trkpt><trkpt lat="43.57359057931624" lon="11.518146230654349"><ele>134.0</ele><time>2026-04-04T09:48:38Z</time></trkpt><trkpt lat="43.57359965118112" lon="11.518004085518317"><ele>134.0</ele><time>2026-04-04T09:48:40Z</time></trkpt><trkpt lat="43.57360641148467" lon="11.517859423613631"><ele>134.0</ele><time>2026-04-04T09:48:42Z</time></trkpt><trkpt lat="43.57361798378649" lon="11.517716137018464"><ele>134.0</ele><time>2026-04-04T09:48:44Z</time></trkpt><trkpt lat="43.573630378034075" lon="11.517579821631593"><ele>134.0</ele><time>2026-04-04T09:48:46Z</time></trkpt><trkpt lat="43.57364321379379" lon="11.517446083355553"><ele>134.0</ele><time>2026-04-04T09:48:48Z</time></trkpt><trkpt lat="43.573666415765615" lon="11.517310679906696"><ele>134.0</ele><time>2026-04-04T09:48:50Z</time></trkpt><trkpt lat="43.5736648282054" lon="11.517189948140668"><ele>134.0</ele><time>2026-04-04T09:48:52Z</time></trkpt><trkpt lat="43.57365880731387" lon="11.517071839058326"><ele>134.0</ele><time>2026-04-04T09:48:54Z</time></trkpt><trkpt lat="43.573657621172536" lon="11.51695805565683"><ele>134.0</ele><time>2026-04-04T09:48:56Z</time></trkpt><trkpt lat="43.57367573519715" lon="11.516846170459301"><ele>134.0</ele><time>2026-04-04T09:48:58Z</time></trkpt><trkpt lat="43.57369505364845" lon="11.516736533670981"><ele>134.0</ele><time>2026-04-04T09:49:00Z</time></trkpt><trkpt lat="43.5737091226325" lon="11.516631119558117"><ele>134.0</ele><time>2026-04-04T09:49:02Z</time></trkpt><trkpt lat="43.573736236279466" lon="11.516533918437828"><ele>134.0</ele><time>2026-04-04T09:49:04Z</time></trkpt><trkpt lat="43.573824485912134" lon="11.516478284857511"><ele>133.8</ele><time>2026-04-04T09:49:07Z</time></trkpt><trkpt lat="43.573911111111215" lon="11.516513440780127"><ele>133.60000000000002</ele><time>2026-04-04T09:49:09Z</time></trkpt><trkpt lat="43.57400593491292" lon="11.516341296590763"><ele>133.4</ele><time>2026-04-04T09:49:13Z</time></trkpt><trkpt lat="43.574020626740364" lon="11.516213616824563"><ele>133.20000000000002</ele><time>2026-04-04T09:49:15Z</time></trkpt><trkpt lat="43.574033070814664" lon="11.516072581525139"><ele>133.0</ele><time>2026-04-04T09:49:16.999Z</time></trkpt><trkpt lat="43.57392098771013" lon="11.516054498074485"><ele>133.4</ele><time>2026-04-04T09:49:18.999Z</time></trkpt><trkpt lat="43.57385268615849" lon="11.515999277104452"><ele>133.8</ele><time>2026-04-04T09:49:20.999Z</time></trkpt><trkpt lat="43.5738732296426" lon="11.515876685861933"><ele>134.2</ele><time>2026-04-04T09:49:22.999Z</time></trkpt><trkpt lat="43.57391196671583" lon="11.515744750578344"><ele>134.6</ele><time>2026-04-04T09:49:24.999Z</time></trkpt><trkpt lat="43.57395348524337" lon="11.515610253692872"><ele>135.0</ele><time>2026-04-04T09:49:26.999Z</time></trkpt><trkpt lat="43.57399161290595" lon="11.515474015562214"><ele>135.0</ele><time>2026-04-04T09:49:28.999Z</time></trkpt><trkpt lat="43.574030983049305" lon="11.515330421115175"><ele>135.0</ele><time>2026-04-04T09:49:30.999Z</time></trkpt><trkpt lat="43.57407621249081" lon="11.515189423989588"><ele>135.0</ele><time>2026-04-04T09:49:32.999Z</time></trkpt><trkpt lat="43.57412820492407" lon="11.515056291950808"><ele>135.0</ele><time>2026-04-04T09:49:34.999Z</time></trkpt><trkpt lat="43.57418428232179" lon="11.514924759353612"><ele>135.0</ele><time>2026-04-04T09:49:36.999Z</time></trkpt><trkpt lat="43.57425490353707" lon="11.514799206186185"><ele>135.0</ele><time>2026-04-04T09:49:38.999Z</time></trkpt><trkpt lat="43.57432282420876" lon="11.514673664977462"><ele>135.0</ele><time>2026-04-04T09:49:40.999Z</time></trkpt><trkpt lat="43.574398717603394" lon="11.514554318960142"><ele>135.0</ele><time>2026-04-04T09:49:42.999Z</time></trkpt><trkpt lat="43.57447160340869" lon="11.514435562831498"><ele>135.0</ele><time>2026-04-04T09:49:44.999Z</time></trkpt><trkpt lat="43.57455895738658" lon="11.514321947294118"><ele>134.75</ele><time>2026-04-04T09:49:46.999Z</time></trkpt><trkpt lat="43.574640355107405" lon="11.514200110487664"><ele>134.5</ele><time>2026-04-04T09:49:48.999Z</time></trkpt><trkpt lat="43.57471913340938" lon="11.514096278511312"><ele>134.25</ele><time>2026-04-04T09:49:50.999Z</time></trkpt><trkpt lat="43.57480273518597" lon="11.513994277939299"><ele>134.0</ele><time>2026-04-04T09:49:52.999Z</time></trkpt><trkpt lat="43.57488691787744" lon="11.513888350719332"><ele>134.0</ele><time>2026-04-04T09:49:54.999Z</time></trkpt><trkpt lat="43.57493488575292" lon="11.513831610133199"><ele>134.0</ele><time>2026-04-04T09:49:55.999Z</time></trkpt><trkpt lat="43.57501989656262" lon="11.513721417055171"><ele>134.0</ele><time>2026-04-04T09:49:57.999Z</time></trkpt><trkpt lat="43.575067320696114" lon="11.51366400750732"><ele>134.0</ele><time>2026-04-04T09:49:58.999Z</time></trkpt><trkpt lat="43.57516397873548" lon="11.513556365310567"><ele>134.0</ele><time>2026-04-04T09:50:00.999Z</time></trkpt><trkpt lat="43.57525568373771" lon="11.513442372545239"><ele>134.2</ele><time>2026-04-04T09:50:02.999Z</time></trkpt><trkpt lat="43.57530616615374" lon="11.51338623790001"><ele>134.4</ele><time>2026-04-04T09:50:03.999Z</time></trkpt><trkpt lat="43.575354397761565" lon="11.513330273309831"><ele>134.6</ele><time>2026-04-04T09:50:04.999Z</time></trkpt><trkpt lat="43.5754470891158" lon="11.513212165863461"><ele>134.8</ele><time>2026-04-04T09:50:06.999Z</time></trkpt><trkpt lat="43.57554153015521" lon="11.513099189957641"><ele>135.0</ele><time>2026-04-04T09:50:08.999Z</time></trkpt><trkpt lat="43.57563521287566" lon="11.512987517372713"><ele>134.6</ele><time>2026-04-04T09:50:10.998Z</time></trkpt><trkpt lat="43.57571989482648" lon="11.5128880741828"><ele>134.2</ele><time>2026-04-04T09:50:12.998Z</time></trkpt><trkpt lat="43.57579564159355" lon="11.512770709411699"><ele>133.8</ele><time>2026-04-04T09:50:14.998Z</time></trkpt><trkpt lat="43.57587694678003" lon="11.512649041047455"><ele>133.4</ele><time>2026-04-04T09:50:16.998Z</time></trkpt><trkpt lat="43.57590459360656" lon="11.51256937739964"><ele>133.0</ele><time>2026-04-04T09:50:17.998Z</time></trkpt><trkpt lat="43.57598925955832" lon="11.512438134496897"><ele>133.0</ele><time>2026-04-04T09:50:19.998Z</time></trkpt><trkpt lat="43.576074555576774" lon="11.51230901629929"><ele>133.0</ele><time>2026-04-04T09:50:21.998Z</time></trkpt><trkpt lat="43.57612013434829" lon="11.512241478099593"><ele>133.0</ele><time>2026-04-04T09:50:22.998Z</time></trkpt><trkpt lat="43.576209197565724" lon="11.512124812128617"><ele>133.0</ele><time>2026-04-04T09:50:24.998Z</time></trkpt><trkpt lat="43.576301703323225" lon="11.512009270611257"><ele>133.0</ele><time>2026-04-04T09:50:26.998Z</time></trkpt><trkpt lat="43.57635058139542" lon="11.511948220930197"><ele>132.75</ele><time>2026-04-04T09:50:27.998Z</time></trkpt><trkpt lat="43.576431425387746" lon="11.511850392706414"><ele>132.5</ele><time>2026-04-04T09:50:29.998Z</time></trkpt><trkpt lat="43.576527356403254" lon="11.511737181931325"><ele>132.25</ele><time>2026-04-04T09:50:31.998Z</time></trkpt><trkpt lat="43.576617101596526" lon="11.511636647958738"><ele>132.0</ele><time>2026-04-04T09:50:34Z</time></trkpt><trkpt lat="43.57670007812606" lon="11.511549786877104"><ele>132.0</ele><time>2026-04-04T09:50:36Z</time></trkpt><trkpt lat="43.57678435331749" lon="11.511469979670224"><ele>132.0</ele><time>2026-04-04T09:50:38Z</time></trkpt><trkpt lat="43.57687666674695" lon="11.511390259398892"><ele>132.0</ele><time>2026-04-04T09:50:40Z</time></trkpt><trkpt lat="43.57696672635879" lon="11.51131297623566"><ele>132.0</ele><time>2026-04-04T09:50:42Z</time></trkpt><trkpt lat="43.577057568481045" lon="11.51123689707356"><ele>132.0</ele><time>2026-04-04T09:50:44Z</time></trkpt><trkpt lat="43.577130737732396" lon="11.511172787709286"><ele>131.83333333333334</ele><time>2026-04-04T09:50:46Z</time></trkpt><trkpt lat="43.5772127541322" lon="11.51110445640073"><ele>131.66666666666666</ele><time>2026-04-04T09:50:49Z</time></trkpt><trkpt lat="43.57727192232553" lon="11.511054067059238"><ele>131.5</ele><time>2026-04-04T09:50:51Z</time></trkpt><trkpt lat="43.57732750902921" lon="11.511009706950661"><ele>131.33333333333331</ele><time>2026-04-04T09:50:53Z</time></trkpt><trkpt lat="43.577410547714294" lon="11.510950496367165"><ele>131.16666666666666</ele><time>2026-04-04T09:50:56Z</time></trkpt><trkpt lat="43.577479998386806" lon="11.510904862145223"><ele>131.0</ele><time>2026-04-04T09:50:58Z</time></trkpt><trkpt lat="43.57759487235803" lon="11.510911599172195"><ele>131.0</ele><time>2026-04-04T09:51:00Z</time></trkpt><trkpt lat="43.57771061165953" lon="11.510878411497723"><ele>131.0</ele><time>2026-04-04T09:51:02Z</time></trkpt><trkpt lat="43.57782111920337" lon="11.51082807947412"><ele>131.0</ele><time>2026-04-04T09:51:04Z</time></trkpt><trkpt lat="43.577925848317534" lon="11.510807889436707"><ele>131.0</ele><time>2026-04-04T09:51:06Z</time></trkpt><trkpt lat="43.578031751637326" lon="11.510773152744463"><ele>131.0</ele><time>2026-04-04T09:51:08Z</time></trkpt><trkpt lat="43.57812521600342" lon="11.510749467006235"><ele>131.16666666666666</ele><time>2026-04-04T09:51:10Z</time></trkpt><trkpt lat="43.57821798890954" lon="11.51072908961512"><ele>131.33333333333331</ele><time>2026-04-04T09:51:12Z</time></trkpt><trkpt lat="43.57830691433927" lon="11.510714128236138"><ele>131.5</ele><time>2026-04-04T09:51:14Z</time></trkpt><trkpt lat="43.57838655594732" lon="11.510686537719467"><ele>131.66666666666666</ele><time>2026-04-04T09:51:16Z</time></trkpt><trkpt lat="43.57846970780368" lon="11.510648862927065"><ele>131.83333333333334</ele><time>2026-04-04T09:51:18Z</time></trkpt><trkpt lat="43.57854252676662" lon="11.510630922966897"><ele>132.0</ele><time>2026-04-04T09:51:20Z</time></trkpt><trkpt lat="43.57862931930821" lon="11.51062165904817"><ele>132.0</ele><time>2026-04-04T09:51:21.999Z</time></trkpt><trkpt lat="43.57872807264463" lon="11.510612557766425"><ele>132.0</ele><time>2026-04-04T09:51:23.999Z</time></trkpt><trkpt lat="43.57882717330063" lon="11.510590955313875"><ele>132.0</ele><time>2026-04-04T09:51:25.999Z</time></trkpt><trkpt lat="43.57892899307374" lon="11.5105763636183"><ele>132.0</ele><time>2026-04-04T09:51:27.999Z</time></trkpt><trkpt lat="43.57903474347908" lon="11.510594298574457"><ele>132.0</ele><time>2026-04-04T09:51:29.999Z</time></trkpt><trkpt lat="43.57913430480182" lon="11.510615913933387"><ele>132.0</ele><time>2026-04-04T09:51:31.999Z</time></trkpt><trkpt lat="43.57923307239215" lon="11.510636059413923"><ele>132.0</ele><time>2026-04-04T09:51:33.999Z</time></trkpt><trkpt lat="43.57933696699786" lon="11.510632666586373"><ele>132.0</ele><time>2026-04-04T09:51:35.999Z</time></trkpt><trkpt lat="43.57943816267185" lon="11.510634661757928"><ele>132.0</ele><time>2026-04-04T09:51:37.999Z</time></trkpt><trkpt lat="43.57954799537559" lon="11.510633692202216"><ele>132.0</ele><time>2026-04-04T09:51:39.999Z</time></trkpt><trkpt lat="43.579662101444285" lon="11.510605127213386"><ele>131.5</ele><time>2026-04-04T09:51:41.999Z</time></trkpt><trkpt lat="43.579766841920346" lon="11.510543512501123"><ele>131.0</ele><time>2026-04-04T09:51:43.999Z</time></trkpt><trkpt lat="43.57986240327231" lon="11.510461480525802"><ele>130.5</ele><time>2026-04-04T09:51:45.999Z</time></trkpt><trkpt lat="43.57995358829839" lon="11.51036226437025"><ele>130.0</ele><time>2026-04-04T09:51:47.999Z</time></trkpt><trkpt lat="43.58005150046887" lon="11.510292015762365"><ele>130.0</ele><time>2026-04-04T09:51:49.999Z</time></trkpt><trkpt lat="43.580142764907" lon="11.510203363711273"><ele>130.0</ele><time>2026-04-04T09:51:51.999Z</time></trkpt><trkpt lat="43.580236288447956" lon="11.510122209797505"><ele>130.0</ele><time>2026-04-04T09:51:53.999Z</time></trkpt><trkpt lat="43.580331986077994" lon="11.510034310631578"><ele>130.0</ele><time>2026-04-04T09:51:55.999Z</time></trkpt><trkpt lat="43.58043195641017" lon="11.509951873038034"><ele>130.0</ele><time>2026-04-04T09:51:57.999Z</time></trkpt><trkpt lat="43.5805385582702" lon="11.50986532292711"><ele>130.0</ele><time>2026-04-04T09:51:59.999Z</time></trkpt><trkpt lat="43.58059722114441" lon="11.509823413763353"><ele>130.0</ele><time>2026-04-04T09:52:00.999Z</time></trkpt><trkpt lat="43.5806555996212" lon="11.50978473281113"><ele>130.0</ele><time>2026-04-04T09:52:01.999Z</time></trkpt><trkpt lat="43.580715048670115" lon="11.509740715366485"><ele>130.0</ele><time>2026-04-04T09:52:02.999Z</time></trkpt><trkpt lat="43.58077199090861" lon="11.509697543233735"><ele>130.0</ele><time>2026-04-04T09:52:03.999Z</time></trkpt><trkpt lat="43.580829743451694" lon="11.509646583545589"><ele>130.0</ele><time>2026-04-04T09:52:04.999Z</time></trkpt><trkpt lat="43.58089485312933" lon="11.509611037674246"><ele>130.0</ele><time>2026-04-04T09:52:05.999Z</time></trkpt><trkpt lat="43.58101198275611" lon="11.509549661960683"><ele>130.0</ele><time>2026-04-04T09:52:07.999Z</time></trkpt><trkpt lat="43.581073554054406" lon="11.509517434219562"><ele>130.0</ele><time>2026-04-04T09:52:08.999Z</time></trkpt><trkpt lat="43.581135121163484" lon="11.509481037828063"><ele>130.0</ele><time>2026-04-04T09:52:09.999Z</time></trkpt><trkpt lat="43.58119875387789" lon="11.509441124022395"><ele>130.0</ele><time>2026-04-04T09:52:10.999Z</time></trkpt><trkpt lat="43.58125998286909" lon="11.5094112027999"><ele>130.2857142857143</ele><time>2026-04-04T09:52:11.999Z</time></trkpt><trkpt lat="43.581324506119024" lon="11.509382428725905"><ele>130.57142857142858</ele><time>2026-04-04T09:52:12.998Z</time></trkpt><trkpt lat="43.58138864962213" lon="11.50935133961393"><ele>130.85714285714286</ele><time>2026-04-04T09:52:13.998Z</time></trkpt><trkpt lat="43.58145444282656" lon="11.5093206950183"><ele>131.14285714285717</ele><time>2026-04-04T09:52:14.998Z</time></trkpt><trkpt lat="43.5815185366245" lon="11.509290939942673"><ele>131.42857142857144</ele><time>2026-04-04T09:52:15.998Z</time></trkpt><trkpt lat="43.581582938182436" lon="11.509264309655322"><ele>131.71428571428572</ele><time>2026-04-04T09:52:16.998Z</time></trkpt><trkpt lat="43.58164605474076" lon="11.509230124312436"><ele>132.0</ele><time>2026-04-04T09:52:17.998Z</time></trkpt><trkpt lat="43.58170806863435" lon="11.509195452778012"><ele>132.0</ele><time>2026-04-04T09:52:18.998Z</time></trkpt><trkpt lat="43.5817679085231" lon="11.509163549020984"><ele>132.0</ele><time>2026-04-04T09:52:19.998Z</time></trkpt><trkpt lat="43.58182736391116" lon="11.509126976423117"><ele>132.0</ele><time>2026-04-04T09:52:20.998Z</time></trkpt><trkpt lat="43.581886038829076" lon="11.509092449718768"><ele>132.0</ele><time>2026-04-04T09:52:21.998Z</time></trkpt><trkpt lat="43.58194165357152" lon="11.509047051019206"><ele>132.0</ele><time>2026-04-04T09:52:22.998Z</time></trkpt><trkpt lat="43.581997173020476" lon="11.508998478199688"><ele>132.0</ele><time>2026-04-04T09:52:23.998Z</time></trkpt><trkpt lat="43.5821007920358" lon="11.508906841206416"><ele>132.0</ele><time>2026-04-04T09:52:25.998Z</time></trkpt><trkpt lat="43.58220283463639" lon="11.5088211123209"><ele>133.6</ele><time>2026-04-04T09:52:27.998Z</time></trkpt><trkpt lat="43.58229886717118" lon="11.508741660224455"><ele>135.2</ele><time>2026-04-04T09:52:29.998Z</time></trkpt><trkpt lat="43.58239155387377" lon="11.508665527153562"><ele>136.8</ele><time>2026-04-04T09:52:31.998Z</time></trkpt><trkpt lat="43.5824864688559" lon="11.508584782395483"><ele>138.4</ele><time>2026-04-04T09:52:33.998Z</time></trkpt><trkpt lat="43.58257817568413" lon="11.50850062733148"><ele>140.0</ele><time>2026-04-04T09:52:35.998Z</time></trkpt><trkpt lat="43.58266685316901" lon="11.508436158378258"><ele>140.0</ele><time>2026-04-04T09:52:37.998Z</time></trkpt><trkpt lat="43.58275752043452" lon="11.508370174331638"><ele>140.0</ele><time>2026-04-04T09:52:40Z</time></trkpt><trkpt lat="43.58285484824646" lon="11.508316618655924"><ele>140.0</ele><time>2026-04-04T09:52:42Z</time></trkpt><trkpt lat="43.582963381177045" lon="11.508267844146847"><ele>140.0</ele><time>2026-04-04T09:52:44Z</time></trkpt><trkpt lat="43.583069517336455" lon="11.50832011454473"><ele>140.0</ele><time>2026-04-04T09:52:46Z</time></trkpt><trkpt lat="43.583168687738734" lon="11.508365540300542"><ele>138.0</ele><time>2026-04-04T09:52:48Z</time></trkpt><trkpt lat="43.583249190017966" lon="11.50840258579522"><ele>136.0</ele><time>2026-04-04T09:52:50Z</time></trkpt><trkpt lat="43.58333147179951" lon="11.508392052417898"><ele>134.0</ele><time>2026-04-04T09:52:52Z</time></trkpt><trkpt lat="43.583411161656265" lon="11.508389540198856"><ele>132.0</ele><time>2026-04-04T09:52:54Z</time></trkpt><trkpt lat="43.58350081819687" lon="11.508350749007842"><ele>130.0</ele><time>2026-04-04T09:52:56Z</time></trkpt><trkpt lat="43.58355980707083" lon="11.508132895279946"><ele>130.00000000000003</ele><time>2026-04-04T09:52:58Z</time></trkpt><trkpt lat="43.58358765117034" lon="11.508048310280287"><ele>130.0</ele><time>2026-04-04T09:52:59Z</time></trkpt><trkpt lat="43.58361839158053" lon="11.507960779011741"><ele>130.0</ele><time>2026-04-04T09:53:00Z</time></trkpt><trkpt lat="43.58365499251793" lon="11.507874128285058"><ele>130.0</ele><time>2026-04-04T09:53:01Z</time></trkpt><trkpt lat="43.583692046849464" lon="11.507785371354796"><ele>130.0</ele><time>2026-04-04T09:53:02Z</time></trkpt><trkpt lat="43.583729825397434" lon="11.507697577339004"><ele>130.00000000000003</ele><time>2026-04-04T09:53:03Z</time></trkpt><trkpt lat="43.58377299830952" lon="11.507605950080743"><ele>130.0</ele><time>2026-04-04T09:53:04Z</time></trkpt><trkpt lat="43.58381898591612" lon="11.507513083192974"><ele>129.66666666666669</ele><time>2026-04-04T09:53:05Z</time></trkpt><trkpt lat="43.58386250799311" lon="11.507419244556965"><ele>129.33333333333334</ele><time>2026-04-04T09:53:06Z</time></trkpt><trkpt lat="43.58390741483689" lon="11.507323196779698"><ele>129.0</ele><time>2026-04-04T09:53:07Z</time></trkpt><trkpt lat="43.5839531734629" lon="11.507225890303218"><ele>128.66666666666666</ele><time>2026-04-04T09:53:08Z</time></trkpt><trkpt lat="43.58400141355921" lon="11.50713049057546"><ele>128.33333333333331</ele><time>2026-04-04T09:53:09Z</time></trkpt><trkpt lat="43.58404639369221" lon="11.507033386927088"><ele>128.0</ele><time>2026-04-04T09:53:10Z</time></trkpt><trkpt lat="43.58409476540175" lon="11.506933831320275"><ele>128.66666666666666</ele><time>2026-04-04T09:53:11Z</time></trkpt><trkpt lat="43.58414218302324" lon="11.506838608949497"><ele>129.33333333333331</ele><time>2026-04-04T09:53:12Z</time></trkpt><trkpt lat="43.58419176951394" lon="11.506741504287241"><ele>130.0</ele><time>2026-04-04T09:53:13Z</time></trkpt><trkpt lat="43.58423959411719" lon="11.50664777944014"><ele>130.66666666666666</ele><time>2026-04-04T09:53:14Z</time></trkpt><trkpt lat="43.58428630194663" lon="11.506553143337856"><ele>131.33333333333334</ele><time>2026-04-04T09:53:15Z</time></trkpt><trkpt lat="43.584332830163895" lon="11.506461279172745"><ele>132.0</ele><time>2026-04-04T09:53:16Z</time></trkpt><trkpt lat="43.584378733857086" lon="11.50636859668167"><ele>132.0</ele><time>2026-04-04T09:53:17Z</time></trkpt><trkpt lat="43.584421075050024" lon="11.506280359468908"><ele>132.0</ele><time>2026-04-04T09:53:18Z</time></trkpt><trkpt lat="43.58446381605944" lon="11.50618963577549"><ele>132.0</ele><time>2026-04-04T09:53:19Z</time></trkpt><trkpt lat="43.584508125183504" lon="11.506099787826402"><ele>132.0</ele><time>2026-04-04T09:53:20Z</time></trkpt><trkpt lat="43.584551159548234" lon="11.506012809088427"><ele>132.0</ele><time>2026-04-04T09:53:21Z</time></trkpt><trkpt lat="43.58459500119176" lon="11.505927756434911"><ele>132.0</ele><time>2026-04-04T09:53:22Z</time></trkpt><trkpt lat="43.58463741042383" lon="11.505844453962306"><ele>131.71428571428572</ele><time>2026-04-04T09:53:23Z</time></trkpt><trkpt lat="43.58467962383768" lon="11.505761894796303"><ele>131.42857142857144</ele><time>2026-04-04T09:53:24Z</time></trkpt><trkpt lat="43.5847237561303" lon="11.505680369956876"><ele>131.14285714285717</ele><time>2026-04-04T09:53:25Z</time></trkpt><trkpt lat="43.58477008123752" lon="11.505600020019068"><ele>130.85714285714286</ele><time>2026-04-04T09:53:26Z</time></trkpt><trkpt lat="43.58481635291103" lon="11.505526037557688"><ele>130.57142857142858</ele><time>2026-04-04T09:53:27Z</time></trkpt><trkpt lat="43.58486431049258" lon="11.505452794398087"><ele>130.2857142857143</ele><time>2026-04-04T09:53:27.999Z</time></trkpt><trkpt lat="43.58491320536155" lon="11.505380534448543"><ele>130.0</ele><time>2026-04-04T09:53:28.999Z</time></trkpt><trkpt lat="43.58496068988051" lon="11.505306543002087"><ele>130.00000000000003</ele><time>2026-04-04T09:53:29.999Z</time></trkpt><trkpt lat="43.585004571972036" lon="11.505237009893943"><ele>130.0</ele><time>2026-04-04T09:53:30.999Z</time></trkpt><trkpt lat="43.585051722594116" lon="11.505171912976987"><ele>130.0</ele><time>2026-04-04T09:53:31.999Z</time></trkpt><trkpt lat="43.585098338295175" lon="11.505108534670137"><ele>130.0</ele><time>2026-04-04T09:53:32.999Z</time></trkpt><trkpt lat="43.58514601693152" lon="11.505046758282804"><ele>130.0</ele><time>2026-04-04T09:53:33.999Z</time></trkpt><trkpt lat="43.5851978708356" lon="11.504986084508"><ele>130.00000000000003</ele><time>2026-04-04T09:53:34.999Z</time></trkpt><trkpt lat="43.585249818055374" lon="11.504934082058924"><ele>130.0</ele><time>2026-04-04T09:53:35.999Z</time></trkpt><trkpt lat="43.585304822361344" lon="11.504881414791862"><ele>130.0</ele><time>2026-04-04T09:53:36.999Z</time></trkpt><trkpt lat="43.585358514779124" lon="11.504827613625304"><ele>130.0</ele><time>2026-04-04T09:53:37.999Z</time></trkpt><trkpt lat="43.58546656262317" lon="11.504739647393084"><ele>130.0</ele><time>2026-04-04T09:53:39.999Z</time></trkpt><trkpt lat="43.58552119451925" lon="11.504689256079134"><ele>130.0</ele><time>2026-04-04T09:53:40.999Z</time></trkpt><trkpt lat="43.585633565802254" lon="11.504598381906789"><ele>130.0</ele><time>2026-04-04T09:53:42.999Z</time></trkpt><trkpt lat="43.58569129295891" lon="11.504554024841958"><ele>130.00000000000003</ele><time>2026-04-04T09:53:43.999Z</time></trkpt><trkpt lat="43.5857533428161" lon="11.504512567524003"><ele>130.0</ele><time>2026-04-04T09:53:44.999Z</time></trkpt><trkpt lat="43.5858133251775" lon="11.504467321460812"><ele>130.0</ele><time>2026-04-04T09:53:45.999Z</time></trkpt><trkpt lat="43.585873219059806" lon="11.504425344832907"><ele>130.0</ele><time>2026-04-04T09:53:46.999Z</time></trkpt><trkpt lat="43.58593742484834" lon="11.504385186271094"><ele>130.0</ele><time>2026-04-04T09:53:47.999Z</time></trkpt><trkpt lat="43.58600347351153" lon="11.5043517100966"><ele>130.00000000000003</ele><time>2026-04-04T09:53:48.999Z</time></trkpt><trkpt lat="43.58607203705666" lon="11.504320395162258"><ele>130.0</ele><time>2026-04-04T09:53:49.999Z</time></trkpt><trkpt lat="43.58613858938377" lon="11.504290598457665"><ele>129.85714285714286</ele><time>2026-04-04T09:53:50.999Z</time></trkpt><trkpt lat="43.58620595984137" lon="11.504263993697473"><ele>129.71428571428572</ele><time>2026-04-04T09:53:51.999Z</time></trkpt><trkpt lat="43.58627363983691" lon="11.504244119178885"><ele>129.57142857142856</ele><time>2026-04-04T09:53:52.999Z</time></trkpt><trkpt lat="43.586339612648395" lon="11.504221402624495"><ele>129.42857142857144</ele><time>2026-04-04T09:53:53.999Z</time></trkpt><trkpt lat="43.58640303858144" lon="11.504196763420342"><ele>129.28571428571428</ele><time>2026-04-04T09:53:54.999Z</time></trkpt><trkpt lat="43.58646844922572" lon="11.504174811477407"><ele>129.14285714285714</ele><time>2026-04-04T09:53:55.999Z</time></trkpt><trkpt lat="43.58653347946769" lon="11.504153312095655"><ele>129.0</ele><time>2026-04-04T09:53:56.999Z</time></trkpt><trkpt lat="43.58665022129174" lon="11.504099095104689"><ele>129.0</ele><time>2026-04-04T09:53:58.999Z</time></trkpt><trkpt lat="43.58676113499712" lon="11.50402523735444"><ele>129.0</ele><time>2026-04-04T09:54:00.999Z</time></trkpt><trkpt lat="43.586858299247226" lon="11.503937007630594"><ele>129.0</ele><time>2026-04-04T09:54:02.999Z</time></trkpt><trkpt lat="43.58694838445131" lon="11.503843508163357"><ele>129.0</ele><time>2026-04-04T09:54:04.999Z</time></trkpt><trkpt lat="43.587036520367555" lon="11.503756601343301"><ele>129.2</ele><time>2026-04-04T09:54:06.999Z</time></trkpt><trkpt lat="43.58711639269115" lon="11.503663815971393"><ele>129.4</ele><time>2026-04-04T09:54:08.999Z</time></trkpt><trkpt lat="43.5872081025672" lon="11.503569716679511"><ele>129.6</ele><time>2026-04-04T09:54:10.999Z</time></trkpt><trkpt lat="43.587307158042705" lon="11.50346689272721"><ele>129.8</ele><time>2026-04-04T09:54:12.999Z</time></trkpt><trkpt lat="43.587359235431336" lon="11.503413594597433"><ele>130.0</ele><time>2026-04-04T09:54:13.999Z</time></trkpt><trkpt lat="43.58741086573764" lon="11.503358557369973"><ele>130.00000000000003</ele><time>2026-04-04T09:54:14.999Z</time></trkpt><trkpt lat="43.58746355499241" lon="11.503302664361495"><ele>130.0</ele><time>2026-04-04T09:54:15.999Z</time></trkpt><trkpt lat="43.587516224841174" lon="11.503246962569344"><ele>130.0</ele><time>2026-04-04T09:54:16.998Z</time></trkpt><trkpt lat="43.58756993722306" lon="11.503193670064556"><ele>130.0</ele><time>2026-04-04T09:54:17.998Z</time></trkpt><trkpt lat="43.587621886568044" lon="11.503139044334892"><ele>130.0</ele><time>2026-04-04T09:54:18.998Z</time></trkpt><trkpt lat="43.58767543794097" lon="11.503085622754313"><ele>130.00000000000003</ele><time>2026-04-04T09:54:19.998Z</time></trkpt><trkpt lat="43.587728724440296" lon="11.503030447261377"><ele>130.0</ele><time>2026-04-04T09:54:20.998Z</time></trkpt><trkpt lat="43.5877857209463" lon="11.502973470502154"><ele>130.00000000000003</ele><time>2026-04-04T09:54:21.998Z</time></trkpt><trkpt lat="43.58783987181235" lon="11.5029198217442"><ele>130.0</ele><time>2026-04-04T09:54:22.998Z</time></trkpt><trkpt lat="43.587894185821064" lon="11.502867407681983"><ele>130.0</ele><time>2026-04-04T09:54:23.998Z</time></trkpt><trkpt lat="43.587948090180475" lon="11.502813108206059"><ele>130.0</ele><time>2026-04-04T09:54:24.998Z</time></trkpt><trkpt lat="43.58800089090362" lon="11.502756638283968"><ele>130.0</ele><time>2026-04-04T09:54:25.998Z</time></trkpt><trkpt lat="43.58805158774366" lon="11.502698008712503"><ele>130.00000000000003</ele><time>2026-04-04T09:54:26.998Z</time></trkpt><trkpt lat="43.58810681476404" lon="11.502641455568456"><ele>130.0</ele><time>2026-04-04T09:54:27.998Z</time></trkpt><trkpt lat="43.58815929902945" lon="11.502579617139869"><ele>130.2</ele><time>2026-04-04T09:54:28.998Z</time></trkpt><trkpt lat="43.58821314853936" lon="11.502533188154061"><ele>130.4</ele><time>2026-04-04T09:54:29.998Z</time></trkpt><trkpt lat="43.58826627981243" lon="11.502475411198088"><ele>130.6</ele><time>2026-04-04T09:54:30.998Z</time></trkpt><trkpt lat="43.5883755731837" lon="11.502393802824416"><ele>130.8</ele><time>2026-04-04T09:54:32.998Z</time></trkpt><trkpt lat="43.58848498642998" lon="11.502332814633043"><ele>131.0</ele><time>2026-04-04T09:54:34.998Z</time></trkpt><trkpt lat="43.58860245000695" lon="11.502287988055937"><ele>130.6</ele><time>2026-04-04T09:54:36.998Z</time></trkpt><trkpt lat="43.58872333344296" lon="11.502256703808317"><ele>130.2</ele><time>2026-04-04T09:54:38.998Z</time></trkpt><trkpt lat="43.588847086751116" lon="11.502235142302245"><ele>129.8</ele><time>2026-04-04T09:54:40.998Z</time></trkpt><trkpt lat="43.58897198748996" lon="11.502228471252891"><ele>129.4</ele><time>2026-04-04T09:54:42.998Z</time></trkpt><trkpt lat="43.589035043455404" lon="11.502227159972511"><ele>129.0</ele><time>2026-04-04T09:54:43.998Z</time></trkpt><trkpt lat="43.589160769407485" lon="11.502223619371968"><ele>128.99999999999997</ele><time>2026-04-04T09:54:46Z</time></trkpt><trkpt lat="43.58922373680108" lon="11.502222974951763"><ele>129.0</ele><time>2026-04-04T09:54:47Z</time></trkpt><trkpt lat="43.58928859508281" lon="11.502222117862056"><ele>129.0</ele><time>2026-04-04T09:54:48Z</time></trkpt><trkpt lat="43.58935410373497" lon="11.502219910766133"><ele>129.0</ele><time>2026-04-04T09:54:49Z</time></trkpt><trkpt lat="43.589420171099846" lon="11.502219150450422"><ele>129.0</ele><time>2026-04-04T09:54:50Z</time></trkpt><trkpt lat="43.58948488541302" lon="11.502214157182864"><ele>128.99999999999997</ele><time>2026-04-04T09:54:51Z</time></trkpt><trkpt lat="43.5895507857656" lon="11.502210727619593"><ele>129.0</ele><time>2026-04-04T09:54:52Z</time></trkpt><trkpt lat="43.58961625617708" lon="11.502208871418361"><ele>128.85714285714283</ele><time>2026-04-04T09:54:53Z</time></trkpt><trkpt lat="43.58968050529795" lon="11.502206103469286"><ele>128.71428571428572</ele><time>2026-04-04T09:54:54Z</time></trkpt><trkpt lat="43.589745408400525" lon="11.502206143722791"><ele>128.57142857142856</ele><time>2026-04-04T09:54:55Z</time></trkpt><trkpt lat="43.5898103999041" lon="11.50220464488599"><ele>128.42857142857142</ele><time>2026-04-04T09:54:56Z</time></trkpt><trkpt lat="43.58987536073086" lon="11.502202509601817"><ele>128.28571428571428</ele><time>2026-04-04T09:54:57Z</time></trkpt><trkpt lat="43.5899412738772" lon="11.50219863817598"><ele>128.14285714285714</ele><time>2026-04-04T09:54:58Z</time></trkpt><trkpt lat="43.590008240699134" lon="11.502197474128494"><ele>128.0</ele><time>2026-04-04T09:54:59Z</time></trkpt><trkpt lat="43.59007564447702" lon="11.502196742413945"><ele>128.0</ele><time>2026-04-04T09:55:00Z</time></trkpt><trkpt lat="43.59014262130776" lon="11.502194281408817"><ele>127.99999999999999</ele><time>2026-04-04T09:55:01Z</time></trkpt><trkpt lat="43.590209789370384" lon="11.502192536138725"><ele>128.0</ele><time>2026-04-04T09:55:02Z</time></trkpt><trkpt lat="43.590276693906176" lon="11.502191015315642"><ele>128.0</ele><time>2026-04-04T09:55:03Z</time></trkpt><trkpt lat="43.59034385537046" lon="11.502187722343942"><ele>127.99999999999999</ele><time>2026-04-04T09:55:04Z</time></trkpt><trkpt lat="43.59041145663377" lon="11.502187026771482"><ele>128.0</ele><time>2026-04-04T09:55:05Z</time></trkpt><trkpt lat="43.59047801233136" lon="11.50218428147255"><ele>128.0</ele><time>2026-04-04T09:55:06Z</time></trkpt><trkpt lat="43.590544489700186" lon="11.502178989680857"><ele>127.85714285714285</ele><time>2026-04-04T09:55:07Z</time></trkpt><trkpt lat="43.5906120468191" lon="11.502178171888648"><ele>127.7142857142857</ele><time>2026-04-04T09:55:08Z</time></trkpt><trkpt lat="43.590677212776434" lon="11.502179373919628"><ele>127.57142857142857</ele><time>2026-04-04T09:55:09Z</time></trkpt><trkpt lat="43.590744236397505" lon="11.502180575937826"><ele>127.42857142857142</ele><time>2026-04-04T09:55:10Z</time></trkpt><trkpt lat="43.590810601078324" lon="11.50218011281377"><ele>127.28571428571428</ele><time>2026-04-04T09:55:11Z</time></trkpt><trkpt lat="43.59087832294028" lon="11.502179871915384"><ele>127.14285714285714</ele><time>2026-04-04T09:55:12Z</time></trkpt><trkpt lat="43.590946250832474" lon="11.502177640654132"><ele>127.0</ele><time>2026-04-04T09:55:13Z</time></trkpt><trkpt lat="43.59101433044979" lon="11.502178862720976"><ele>127.0</ele><time>2026-04-04T09:55:14Z</time></trkpt><trkpt lat="43.591081840018774" lon="11.502180855025953"><ele>127.0</ele><time>2026-04-04T09:55:15Z</time></trkpt><trkpt lat="43.59114862141621" lon="11.502181155513165"><ele>127.0</ele><time>2026-04-04T09:55:16Z</time></trkpt><trkpt lat="43.591215347856235" lon="11.502181369217617"><ele>127.0</ele><time>2026-04-04T09:55:17Z</time></trkpt><trkpt lat="43.59128313944268" lon="11.50218509658557"><ele>127.0</ele><time>2026-04-04T09:55:18Z</time></trkpt><trkpt lat="43.591350097933855" lon="11.502185084323283"><ele>127.0</ele><time>2026-04-04T09:55:19Z</time></trkpt><trkpt lat="43.59141636461485" lon="11.502186309635452"><ele>127.0</ele><time>2026-04-04T09:55:20Z</time></trkpt><trkpt lat="43.5914805389727" lon="11.50218953874237"><ele>127.0</ele><time>2026-04-04T09:55:21Z</time></trkpt><trkpt lat="43.5915449836906" lon="11.502189090860279"><ele>127.0</ele><time>2026-04-04T09:55:22Z</time></trkpt><trkpt lat="43.59160961287419" lon="11.502184540900004"><ele>127.0</ele><time>2026-04-04T09:55:23Z</time></trkpt><trkpt lat="43.59167588441155" lon="11.50217619425857"><ele>127.0</ele><time>2026-04-04T09:55:23.999Z</time></trkpt><trkpt lat="43.5917416303132" lon="11.502162108334511"><ele>127.0</ele><time>2026-04-04T09:55:24.999Z</time></trkpt><trkpt lat="43.59180571007332" lon="11.502139502957787"><ele>127.0</ele><time>2026-04-04T09:55:25.999Z</time></trkpt><trkpt lat="43.59186959860453" lon="11.502114539991497"><ele>127.0</ele><time>2026-04-04T09:55:26.999Z</time></trkpt><trkpt lat="43.59192761979863" lon="11.502076526825151"><ele>127.8</ele><time>2026-04-04T09:55:27.999Z</time></trkpt><trkpt lat="43.59198391590036" lon="11.502034846048307"><ele>128.6</ele><time>2026-04-04T09:55:28.999Z</time></trkpt><trkpt lat="43.592088216744415" lon="11.50195499956274"><ele>129.39999999999998</ele><time>2026-04-04T09:55:30.999Z</time></trkpt><trkpt lat="43.592190204017484" lon="11.501867660951136"><ele>130.2</ele><time>2026-04-04T09:55:32.999Z</time></trkpt><trkpt lat="43.59228254424608" lon="11.501776990172317"><ele>131.0</ele><time>2026-04-04T09:55:34.999Z</time></trkpt><trkpt lat="43.5923736004639" lon="11.50168603302215"><ele>131.0</ele><time>2026-04-04T09:55:36.999Z</time></trkpt><trkpt lat="43.59246197033094" lon="11.501599937479247"><ele>131.0</ele><time>2026-04-04T09:55:38.999Z</time></trkpt><trkpt lat="43.59254903573089" lon="11.501514395074809"><ele>131.0</ele><time>2026-04-04T09:55:40.999Z</time></trkpt><trkpt lat="43.59263534760271" lon="11.501433885423692"><ele>131.0</ele><time>2026-04-04T09:55:42.999Z</time></trkpt><trkpt lat="43.59271849970952" lon="11.501352252655076"><ele>131.0</ele><time>2026-04-04T09:55:44.999Z</time></trkpt><trkpt lat="43.59280153971731" lon="11.50127181657303"><ele>130.4</ele><time>2026-04-04T09:55:46.999Z</time></trkpt><trkpt lat="43.59288682223844" lon="11.501190530786106"><ele>129.8</ele><time>2026-04-04T09:55:48.999Z</time></trkpt><trkpt lat="43.59297418451453" lon="11.501108199222031"><ele>129.20000000000002</ele><time>2026-04-04T09:55:50.999Z</time></trkpt><trkpt lat="43.59306272037404" lon="11.501024497113285"><ele>128.6</ele><time>2026-04-04T09:55:52.999Z</time></trkpt><trkpt lat="43.59315510226129" lon="11.500928834831738"><ele>128.0</ele><time>2026-04-04T09:55:54.999Z</time></trkpt><trkpt lat="43.59325324052809" lon="11.500835380619261"><ele>127.99999999999999</ele><time>2026-04-04T09:55:56.999Z</time></trkpt><trkpt lat="43.593358374643294" lon="11.500741463481377"><ele>128.0</ele><time>2026-04-04T09:55:58.999Z</time></trkpt><trkpt lat="43.59341167031414" lon="11.500690390474343"><ele>128.0</ele><time>2026-04-04T09:55:59.999Z</time></trkpt><trkpt lat="43.59346648516051" lon="11.50064354318358"><ele>128.0</ele><time>2026-04-04T09:56:00.999Z</time></trkpt><trkpt lat="43.593521186382354" lon="11.500589092417188"><ele>127.99999999999999</ele><time>2026-04-04T09:56:01.999Z</time></trkpt><trkpt lat="43.59357778863558" lon="11.500535530090518"><ele>128.0</ele><time>2026-04-04T09:56:02.999Z</time></trkpt><trkpt lat="43.59363455596195" lon="11.500480595668192"><ele>128.0</ele><time>2026-04-04T09:56:03.999Z</time></trkpt><trkpt lat="43.59369000706835" lon="11.500425665544844"><ele>127.99999999999999</ele><time>2026-04-04T09:56:04.999Z</time></trkpt><trkpt lat="43.593743230292" lon="11.500367979945311"><ele>128.0</ele><time>2026-04-04T09:56:05.999Z</time></trkpt><trkpt lat="43.593793811525636" lon="11.500304432280714"><ele>128.0</ele><time>2026-04-04T09:56:06.999Z</time></trkpt><trkpt lat="43.59384346236518" lon="11.500240034175897"><ele>127.99999999999999</ele><time>2026-04-04T09:56:07.999Z</time></trkpt><trkpt lat="43.59389040410891" lon="11.500172913082395"><ele>128.0</ele><time>2026-04-04T09:56:08.999Z</time></trkpt><trkpt lat="43.59393123687823" lon="11.50009898899499"><ele>128.0</ele><time>2026-04-04T09:56:09.998Z</time></trkpt><trkpt lat="43.593973533016495" lon="11.500028115696619"><ele>128.0</ele><time>2026-04-04T09:56:10.998Z</time></trkpt><trkpt lat="43.59401233965121" lon="11.49995425680919"><ele>128.0</ele><time>2026-04-04T09:56:11.998Z</time></trkpt><trkpt lat="43.59404975367955" lon="11.499882385674464"><ele>128.0</ele><time>2026-04-04T09:56:12.998Z</time></trkpt><trkpt lat="43.59412098154536" lon="11.499739072498055"><ele>128.0</ele><time>2026-04-04T09:56:14.998Z</time></trkpt><trkpt lat="43.59418622911499" lon="11.499597956895483"><ele>128.0</ele><time>2026-04-04T09:56:16.998Z</time></trkpt><trkpt lat="43.5942522203039" lon="11.499459392035313"><ele>128.5</ele><time>2026-04-04T09:56:18.998Z</time></trkpt><trkpt lat="43.594316324135995" lon="11.499325083407738"><ele>129.0</ele><time>2026-04-04T09:56:20.998Z</time></trkpt><trkpt lat="43.594377809259306" lon="11.499191202948555"><ele>129.5</ele><time>2026-04-04T09:56:22.998Z</time></trkpt><trkpt lat="43.59443485016279" lon="11.499056052509086"><ele>130.0</ele><time>2026-04-04T09:56:24.998Z</time></trkpt><trkpt lat="43.594493170849645" lon="11.498920489588183"><ele>130.0</ele><time>2026-04-04T09:56:26.998Z</time></trkpt><trkpt lat="43.59454985261525" lon="11.498785171780781"><ele>130.0</ele><time>2026-04-04T09:56:28.998Z</time></trkpt><trkpt lat="43.59460823553565" lon="11.498649893674347"><ele>130.0</ele><time>2026-04-04T09:56:30.998Z</time></trkpt><trkpt lat="43.5946667258192" lon="11.498514085935499"><ele>130.0</ele><time>2026-04-04T09:56:32.998Z</time></trkpt><trkpt lat="43.59472402809781" lon="11.498379019989255"><ele>130.0</ele><time>2026-04-04T09:56:34.998Z</time></trkpt><trkpt lat="43.59478206420965" lon="11.498246232988278"><ele>130.0</ele><time>2026-04-04T09:56:36.998Z</time></trkpt><trkpt lat="43.59484002522862" lon="11.498112323171075"><ele>130.0</ele><time>2026-04-04T09:56:38.998Z</time></trkpt><trkpt lat="43.594901148253214" lon="11.49798331240296"><ele>130.0</ele><time>2026-04-04T09:56:40.998Z</time></trkpt><trkpt lat="43.5949575518755" lon="11.497853571258197"><ele>130.0</ele><time>2026-04-04T09:56:42.998Z</time></trkpt><trkpt lat="43.59501423936932" lon="11.497726788729306"><ele>130.0</ele><time>2026-04-04T09:56:44.998Z</time></trkpt><trkpt lat="43.59507547496209" lon="11.497606900929478"><ele>130.0</ele><time>2026-04-04T09:56:46.998Z</time></trkpt><trkpt lat="43.595138089264" lon="11.49748581477325"><ele>130.0</ele><time>2026-04-04T09:56:48.998Z</time></trkpt><trkpt lat="43.59520830299647" lon="11.497370683843775"><ele>130.0</ele><time>2026-04-04T09:56:50.998Z</time></trkpt><trkpt lat="43.59528962204745" lon="11.497269426158573"><ele>130.0</ele><time>2026-04-04T09:56:53Z</time></trkpt><trkpt lat="43.59537346984377" lon="11.497176632185965"><ele>130.0</ele><time>2026-04-04T09:56:55Z</time></trkpt><trkpt lat="43.59546011795506" lon="11.497086120734854"><ele>130.0</ele><time>2026-04-04T09:56:57Z</time></trkpt><trkpt lat="43.5955512166774" lon="11.496991068969395"><ele>130.0</ele><time>2026-04-04T09:56:59Z</time></trkpt><trkpt lat="43.59565092098439" lon="11.49689613607112"><ele>130.0</ele><time>2026-04-04T09:57:01Z</time></trkpt><trkpt lat="43.595702488767515" lon="11.496846076077908"><ele>130.0</ele><time>2026-04-04T09:57:02Z</time></trkpt><trkpt lat="43.59580408357849" lon="11.496738158105485"><ele>130.2857142857143</ele><time>2026-04-04T09:57:04Z</time></trkpt><trkpt lat="43.595854619172854" lon="11.496679195895195"><ele>130.57142857142858</ele><time>2026-04-04T09:57:05Z</time></trkpt><trkpt lat="43.59590454846565" lon="11.49661775998099"><ele>130.85714285714286</ele><time>2026-04-04T09:57:06Z</time></trkpt><trkpt lat="43.5959527805249" lon="11.496552792614459"><ele>131.14285714285717</ele><time>2026-04-04T09:57:07Z</time></trkpt><trkpt lat="43.59599871459608" lon="11.496481583700849"><ele>131.42857142857144</ele><time>2026-04-04T09:57:08Z</time></trkpt><trkpt lat="43.59603968740646" lon="11.496402653221983"><ele>131.71428571428572</ele><time>2026-04-04T09:57:09Z</time></trkpt><trkpt lat="43.59608097873729" lon="11.496322282387576"><ele>132.0</ele><time>2026-04-04T09:57:10Z</time></trkpt><trkpt lat="43.596123363490655" lon="11.496242351300548"><ele>132.28571428571428</ele><time>2026-04-04T09:57:11Z</time></trkpt><trkpt lat="43.596165511840105" lon="11.496160165669025"><ele>132.57142857142858</ele><time>2026-04-04T09:57:12Z</time></trkpt><trkpt lat="43.59620680908599" lon="11.496075200217286"><ele>132.85714285714286</ele><time>2026-04-04T09:57:13Z</time></trkpt><trkpt lat="43.59624650635091" lon="11.495988629242095"><ele>133.14285714285714</ele><time>2026-04-04T09:57:14Z</time></trkpt><trkpt lat="43.596285910667234" lon="11.495904961683202"><ele>133.42857142857142</ele><time>2026-04-04T09:57:15Z</time></trkpt><trkpt lat="43.596324979968685" lon="11.49582170104287"><ele>133.71428571428572</ele><time>2026-04-04T09:57:16Z</time></trkpt><trkpt lat="43.59636194873939" lon="11.495736873368365"><ele>134.0</ele><time>2026-04-04T09:57:17Z</time></trkpt><trkpt lat="43.59640121204497" lon="11.495653295674487"><ele>133.42857142857144</ele><time>2026-04-04T09:57:18Z</time></trkpt><trkpt lat="43.59644010553915" lon="11.495569468542996"><ele>132.85714285714286</ele><time>2026-04-04T09:57:19Z</time></trkpt><trkpt lat="43.596478654822015" lon="11.49548621134852"><ele>132.28571428571428</ele><time>2026-04-04T09:57:20Z</time></trkpt><trkpt lat="43.59651627854937" lon="11.495401825529196"><ele>131.71428571428572</ele><time>2026-04-04T09:57:21Z</time></trkpt><trkpt lat="43.59655418774496" lon="11.495317377867451"><ele>131.14285714285714</ele><time>2026-04-04T09:57:22Z</time></trkpt><trkpt lat="43.596591953357446" lon="11.49523411120665"><ele>130.57142857142858</ele><time>2026-04-04T09:57:23Z</time></trkpt><trkpt lat="43.596627724461605" lon="11.495150469173506"><ele>130.0</ele><time>2026-04-04T09:57:24Z</time></trkpt><trkpt lat="43.59666349001794" lon="11.495068171966324"><ele>130.00000000000003</ele><time>2026-04-04T09:57:25Z</time></trkpt><trkpt lat="43.59669804024526" lon="11.494986753699038"><ele>130.0</ele><time>2026-04-04T09:57:25.999Z</time></trkpt><trkpt lat="43.59673133559338" lon="11.494903678819577"><ele>130.0</ele><time>2026-04-04T09:57:26.999Z</time></trkpt><trkpt lat="43.5967625656804" lon="11.494820817976262"><ele>130.0</ele><time>2026-04-04T09:57:27.999Z</time></trkpt><trkpt lat="43.59679427600675" lon="11.494740712604685"><ele>130.0</ele><time>2026-04-04T09:57:28.999Z</time></trkpt><trkpt lat="43.5968257244488" lon="11.494660887510836"><ele>130.00000000000003</ele><time>2026-04-04T09:57:29.999Z</time></trkpt><trkpt lat="43.59685557781663" lon="11.494580696623467"><ele>130.0</ele><time>2026-04-04T09:57:30.999Z</time></trkpt><trkpt lat="43.59688833486303" lon="11.494506118605115"><ele>129.6</ele><time>2026-04-04T09:57:31.999Z</time></trkpt><trkpt lat="43.59692179892457" lon="11.49443194434393"><ele>129.2</ele><time>2026-04-04T09:57:32.999Z</time></trkpt><trkpt lat="43.59699625060299" lon="11.494293606158173"><ele>128.8</ele><time>2026-04-04T09:57:34.999Z</time></trkpt><trkpt lat="43.597072220221094" lon="11.494170295952939"><ele>128.4</ele><time>2026-04-04T09:57:36.999Z</time></trkpt><trkpt lat="43.597156847820756" lon="11.494070355334909"><ele>128.0</ele><time>2026-04-04T09:57:38.999Z</time></trkpt><trkpt lat="43.59724248837503" lon="11.493993425018594"><ele>128.0</ele><time>2026-04-04T09:57:40.999Z</time></trkpt><trkpt lat="43.59731960239265" lon="11.49392172756584"><ele>128.0</ele><time>2026-04-04T09:57:42.999Z</time></trkpt><trkpt lat="43.59739910447458" lon="11.49384854557339"><ele>128.0</ele><time>2026-04-04T09:57:44.999Z</time></trkpt><trkpt lat="43.59748468249744" lon="11.493762079306462"><ele>128.0</ele><time>2026-04-04T09:57:46.999Z</time></trkpt><trkpt lat="43.59757255845897" lon="11.493669590877648"><ele>128.0</ele><time>2026-04-04T09:57:48.999Z</time></trkpt><trkpt lat="43.59766525100291" lon="11.493578030233884"><ele>127.99999999999999</ele><time>2026-04-04T09:57:50.999Z</time></trkpt><trkpt lat="43.59776108385003" lon="11.49348470410459"><ele>128.0</ele><time>2026-04-04T09:57:52.999Z</time></trkpt><trkpt lat="43.59786155852357" lon="11.49337972838461"><ele>128.0</ele><time>2026-04-04T09:57:54.999Z</time></trkpt><trkpt lat="43.59791210146371" lon="11.493327176844202"><ele>128.0</ele><time>2026-04-04T09:57:55.999Z</time></trkpt><trkpt lat="43.597963398321966" lon="11.493274589274701"><ele>127.99999999999999</ele><time>2026-04-04T09:57:56.999Z</time></trkpt><trkpt lat="43.59801486640879" lon="11.493218371159326"><ele>128.0</ele><time>2026-04-04T09:57:57.999Z</time></trkpt><trkpt lat="43.59806725158176" lon="11.493158558643449"><ele>128.0</ele><time>2026-04-04T09:57:58.999Z</time></trkpt><trkpt lat="43.59812164386175" lon="11.493099267098605"><ele>127.99999999999999</ele><time>2026-04-04T09:57:59.999Z</time></trkpt><trkpt lat="43.59817702126348" lon="11.493038969368301"><ele>128.0</ele><time>2026-04-04T09:58:00.999Z</time></trkpt><trkpt lat="43.59823035704404" lon="11.49297822854309"><ele>128.0</ele><time>2026-04-04T09:58:01.999Z</time></trkpt><trkpt lat="43.59828849722842" lon="11.492914043540269"><ele>127.99999999999999</ele><time>2026-04-04T09:58:02.999Z</time></trkpt><trkpt lat="43.59834420647301" lon="11.492852235364337"><ele>128.0</ele><time>2026-04-04T09:58:03.999Z</time></trkpt><trkpt lat="43.598400128245885" lon="11.492791174949792"><ele>128.0</ele><time>2026-04-04T09:58:04.999Z</time></trkpt><trkpt lat="43.59845480526456" lon="11.492728538620879"><ele>128.14285714285714</ele><time>2026-04-04T09:58:05.999Z</time></trkpt><trkpt lat="43.59851188901383" lon="11.492663714407861"><ele>128.28571428571428</ele><time>2026-04-04T09:58:06.999Z</time></trkpt><trkpt lat="43.598568014439664" lon="11.492601622670346"><ele>128.42857142857142</ele><time>2026-04-04T09:58:07.999Z</time></trkpt><trkpt lat="43.598624540027714" lon="11.492541369544504"><ele>128.57142857142856</ele><time>2026-04-04T09:58:08.999Z</time></trkpt><trkpt lat="43.598682848771475" lon="11.492479415861105"><ele>128.71428571428572</ele><time>2026-04-04T09:58:09.999Z</time></trkpt><trkpt lat="43.59874029982619" lon="11.492421183034306"><ele>128.85714285714283</ele><time>2026-04-04T09:58:10.999Z</time></trkpt><trkpt lat="43.59879960288986" lon="11.492363806100576"><ele>129.0</ele><time>2026-04-04T09:58:11.998Z</time></trkpt><trkpt lat="43.59885933873134" lon="11.492304942167863"><ele>128.99999999999997</ele><time>2026-04-04T09:58:12.998Z</time></trkpt><trkpt lat="43.59891786360518" lon="11.492249041471826"><ele>129.0</ele><time>2026-04-04T09:58:13.998Z</time></trkpt><trkpt lat="43.59897818179931" lon="11.492194687249308"><ele>129.0</ele><time>2026-04-04T09:58:14.998Z</time></trkpt><trkpt lat="43.59903813224098" lon="11.492141949922237"><ele>129.0</ele><time>2026-04-04T09:58:15.998Z</time></trkpt><trkpt lat="43.5991003392719" lon="11.492085969730459"><ele>129.0</ele><time>2026-04-04T09:58:16.998Z</time></trkpt><trkpt lat="43.59916239223084" lon="11.492032641983826"><ele>128.99999999999997</ele><time>2026-04-04T09:58:17.998Z</time></trkpt><trkpt lat="43.59922242974226" lon="11.491981076703789"><ele>129.0</ele><time>2026-04-04T09:58:18.998Z</time></trkpt><trkpt lat="43.5992833671193" lon="11.491929510635838"><ele>128.99999999999997</ele><time>2026-04-04T09:58:19.998Z</time></trkpt><trkpt lat="43.59934427685977" lon="11.491876258592965"><ele>129.0</ele><time>2026-04-04T09:58:20.998Z</time></trkpt><trkpt lat="43.59940682437383" lon="11.491826118780905"><ele>129.0</ele><time>2026-04-04T09:58:21.998Z</time></trkpt><trkpt lat="43.599469475772146" lon="11.491774703618807"><ele>129.0</ele><time>2026-04-04T09:58:22.998Z</time></trkpt><trkpt lat="43.59953142249905" lon="11.491727144317917"><ele>129.0</ele><time>2026-04-04T09:58:23.998Z</time></trkpt><trkpt lat="43.59959434032512" lon="11.491681711788893"><ele>128.99999999999997</ele><time>2026-04-04T09:58:24.998Z</time></trkpt><trkpt lat="43.59965475571857" lon="11.491635648696573"><ele>129.0</ele><time>2026-04-04T09:58:25.998Z</time></trkpt><trkpt lat="43.599715376522816" lon="11.491591885426528"><ele>128.83333333333334</ele><time>2026-04-04T09:58:26.998Z</time></trkpt><trkpt lat="43.599774603128786" lon="11.491548214142044"><ele>128.66666666666666</ele><time>2026-04-04T09:58:27.998Z</time></trkpt><trkpt lat="43.59983310610503" lon="11.491504661466447"><ele>128.5</ele><time>2026-04-04T09:58:28.998Z</time></trkpt><trkpt lat="43.59988978740649" lon="11.491459948708716"><ele>128.33333333333331</ele><time>2026-04-04T09:58:29.998Z</time></trkpt><trkpt lat="43.59994538680741" lon="11.491416566528779"><ele>128.16666666666666</ele><time>2026-04-04T09:58:30.998Z</time></trkpt><trkpt lat="43.59999873267567" lon="11.491369521144206"><ele>128.0</ele><time>2026-04-04T09:58:31.998Z</time></trkpt><trkpt lat="43.6000996195589" lon="11.491270468664863"><ele>128.25</ele><time>2026-04-04T09:58:33.998Z</time></trkpt><trkpt lat="43.60019668463626" lon="11.491166867283347"><ele>128.5</ele><time>2026-04-04T09:58:35.998Z</time></trkpt><trkpt lat="43.600284379984444" lon="11.491054681282314"><ele>128.75</ele><time>2026-04-04T09:58:37.998Z</time></trkpt><trkpt lat="43.600368385677704" lon="11.490940442501989"><ele>129.0</ele><time>2026-04-04T09:58:39.998Z</time></trkpt><trkpt lat="43.60044862575056" lon="11.490822228817246"><ele>128.8</ele><time>2026-04-04T09:58:41.998Z</time></trkpt><trkpt lat="43.60052676011165" lon="11.49070462358419"><ele>128.60000000000002</ele><time>2026-04-04T09:58:43.998Z</time></trkpt><trkpt lat="43.60060776731397" lon="11.490594986876799"><ele>128.4</ele><time>2026-04-04T09:58:45.998Z</time></trkpt><trkpt lat="43.60068456189248" lon="11.490484413826378"><ele>128.20000000000002</ele><time>2026-04-04T09:58:47.998Z</time></trkpt><trkpt lat="43.60075877887387" lon="11.490382017662759"><ele>128.0</ele><time>2026-04-04T09:58:49.998Z</time></trkpt><trkpt lat="43.60082501212586" lon="11.49028705958054"><ele>127.99999999999999</ele><time>2026-04-04T09:58:51.998Z</time></trkpt><trkpt lat="43.600892498817586" lon="11.49019131310859"><ele>128.0</ele><time>2026-04-04T09:58:53.998Z</time></trkpt><trkpt lat="43.60095542128283" lon="11.490098121607367"><ele>128.0</ele><time>2026-04-04T09:58:55.998Z</time></trkpt><trkpt lat="43.60101799207375" lon="11.490009668351137"><ele>128.0</ele><time>2026-04-04T09:58:58Z</time></trkpt><trkpt lat="43.6010747627204" lon="11.4899260188123"><ele>127.99999999999999</ele><time>2026-04-04T09:59:00Z</time></trkpt><trkpt lat="43.60113435426612" lon="11.489842977775997"><ele>128.0</ele><time>2026-04-04T09:59:02Z</time></trkpt><trkpt lat="43.6011906852418" lon="11.489761979009835"><ele>127.99999999999999</ele><time>2026-04-04T09:59:04Z</time></trkpt><trkpt lat="43.601248551956175" lon="11.489683563998657"><ele>128.0</ele><time>2026-04-04T09:59:06Z</time></trkpt><trkpt lat="43.60131068555715" lon="11.489611302828886"><ele>128.0</ele><time>2026-04-04T09:59:08Z</time></trkpt><trkpt lat="43.60137130375298" lon="11.489540524640804"><ele>128.0</ele><time>2026-04-04T09:59:10Z</time></trkpt><trkpt lat="43.60143963110476" lon="11.489480547642042"><ele>127.99999999999999</ele><time>2026-04-04T09:59:12Z</time></trkpt><trkpt lat="43.60150453307064" lon="11.489421673906818"><ele>128.0</ele><time>2026-04-04T09:59:14Z</time></trkpt><trkpt lat="43.60157531676796" lon="11.489380803718337"><ele>129.0</ele><time>2026-04-04T09:59:16Z</time></trkpt><trkpt lat="43.60164660884626" lon="11.489350284805102"><ele>130.0</ele><time>2026-04-04T09:59:18Z</time></trkpt><trkpt lat="43.60171685947782" lon="11.48933546169754"><ele>131.0</ele><time>2026-04-04T09:59:20Z</time></trkpt><trkpt lat="43.6017914591942" lon="11.48932741896226"><ele>132.0</ele><time>2026-04-04T09:59:22Z</time></trkpt><trkpt lat="43.60185951061605" lon="11.489324945957781"><ele>133.0</ele><time>2026-04-04T09:59:24Z</time></trkpt><trkpt lat="43.60192976036943" lon="11.489333956000598"><ele>134.0</ele><time>2026-04-04T09:59:26Z</time></trkpt><trkpt lat="43.602001126951414" lon="11.489340087728896"><ele>135.0</ele><time>2026-04-04T09:59:28Z</time></trkpt><trkpt lat="43.60207539156951" lon="11.489347564501138"><ele>135.33333333333334</ele><time>2026-04-04T09:59:30Z</time></trkpt><trkpt lat="43.602151443827964" lon="11.48935626477615"><ele>135.66666666666666</ele><time>2026-04-04T09:59:32Z</time></trkpt><trkpt lat="43.60222858384614" lon="11.489363616900878"><ele>136.0</ele><time>2026-04-04T09:59:34Z</time></trkpt><trkpt lat="43.60230656597587" lon="11.489372358097036"><ele>136.33333333333331</ele><time>2026-04-04T09:59:36Z</time></trkpt><trkpt lat="43.60238601672064" lon="11.48938539431411"><ele>136.66666666666666</ele><time>2026-04-04T09:59:37.999Z</time></trkpt><trkpt lat="43.60246892128375" lon="11.489395903015446"><ele>137.0</ele><time>2026-04-04T09:59:39.999Z</time></trkpt><trkpt lat="43.60254963141543" lon="11.489400147701716"><ele>137.0</ele><time>2026-04-04T09:59:41.999Z</time></trkpt><trkpt lat="43.60263375095896" lon="11.489403948621634"><ele>137.0</ele><time>2026-04-04T09:59:43.999Z</time></trkpt><trkpt lat="43.60271850592805" lon="11.489407924011664"><ele>137.0</ele><time>2026-04-04T09:59:45.999Z</time></trkpt><trkpt lat="43.602804258516386" lon="11.489404926482095"><ele>137.0</ele><time>2026-04-04T09:59:47.999Z</time></trkpt><trkpt lat="43.602892377459256" lon="11.489397523430641"><ele>137.0</ele><time>2026-04-04T09:59:49.999Z</time></trkpt><trkpt lat="43.602983968614325" lon="11.489399932924668"><ele>137.0</ele><time>2026-04-04T09:59:51.999Z</time></trkpt><trkpt lat="43.60307761556847" lon="11.489391058910584"><ele>137.2</ele><time>2026-04-04T09:59:53.999Z</time></trkpt><trkpt lat="43.60317215737884" lon="11.489391998757407"><ele>137.39999999999998</ele><time>2026-04-04T09:59:55.999Z</time></trkpt><trkpt lat="43.603264191421715" lon="11.489383375752075"><ele>137.60000000000002</ele><time>2026-04-04T09:59:57.999Z</time></trkpt><trkpt lat="43.60335724863119" lon="11.489371910648988"><ele>137.8</ele><time>2026-04-04T09:59:59.999Z</time></trkpt><trkpt lat="43.6034532285702" lon="11.489333510300325"><ele>138.0</ele><time>2026-04-04T10:00:01.999Z</time></trkpt><trkpt lat="43.60354905247531" lon="11.489275367880436"><ele>138.0</ele><time>2026-04-04T10:00:03.999Z</time></trkpt><trkpt lat="43.60365838193107" lon="11.489192005811834"><ele>138.0</ele><time>2026-04-04T10:00:05.999Z</time></trkpt><trkpt lat="43.603709602489886" lon="11.489140174158402"><ele>138.0</ele><time>2026-04-04T10:00:06.999Z</time></trkpt><trkpt lat="43.60377082199307" lon="11.489087143891886"><ele>138.0</ele><time>2026-04-04T10:00:07.999Z</time></trkpt><trkpt lat="43.60384472627736" lon="11.489028895786973"><ele>138.0</ele><time>2026-04-04T10:00:08.999Z</time></trkpt><trkpt lat="43.603949522428366" lon="11.48891936560918"><ele>137.33333333333334</ele><time>2026-04-04T10:00:10.999Z</time></trkpt><trkpt lat="43.604014797926354" lon="11.48885620350809"><ele>136.66666666666666</ele><time>2026-04-04T10:00:11.999Z</time></trkpt><trkpt lat="43.604080454650365" lon="11.488797100383279"><ele>136.0</ele><time>2026-04-04T10:00:12.999Z</time></trkpt><trkpt lat="43.60414971592041" lon="11.488732854270513"><ele>135.33333333333331</ele><time>2026-04-04T10:00:13.999Z</time></trkpt><trkpt lat="43.60421050449457" lon="11.488668443825041"><ele>134.66666666666666</ele><time>2026-04-04T10:00:14.999Z</time></trkpt><trkpt lat="43.6042816019973" lon="11.48860581594064"><ele>134.0</ele><time>2026-04-04T10:00:15.999Z</time></trkpt><trkpt lat="43.60435222933554" lon="11.488537073325272"><ele>134.0</ele><time>2026-04-04T10:00:16.999Z</time></trkpt><trkpt lat="43.60442364253794" lon="11.488471786720599"><ele>134.0</ele><time>2026-04-04T10:00:17.999Z</time></trkpt><trkpt lat="43.604495798449534" lon="11.488406679868552"><ele>134.0</ele><time>2026-04-04T10:00:18.999Z</time></trkpt><trkpt lat="43.60456240814906" lon="11.488337717560762"><ele>134.0</ele><time>2026-04-04T10:00:19.999Z</time></trkpt><trkpt lat="43.604632373233116" lon="11.48827346347972"><ele>134.0</ele><time>2026-04-04T10:00:20.999Z</time></trkpt><trkpt lat="43.60469992923464" lon="11.488212598917155"><ele>134.0</ele><time>2026-04-04T10:00:21.999Z</time></trkpt><trkpt lat="43.604763802275585" lon="11.488153345293426"><ele>134.28571428571428</ele><time>2026-04-04T10:00:22.999Z</time></trkpt><trkpt lat="43.60482985391587" lon="11.488091460034223"><ele>134.57142857142856</ele><time>2026-04-04T10:00:23.999Z</time></trkpt><trkpt lat="43.60489506535973" lon="11.488036703655583"><ele>134.85714285714283</ele><time>2026-04-04T10:00:24.998Z</time></trkpt><trkpt lat="43.604957542583975" lon="11.487973489706915"><ele>135.14285714285714</ele><time>2026-04-04T10:00:25.998Z</time></trkpt><trkpt lat="43.60502140876371" lon="11.487915573588923"><ele>135.42857142857142</ele><time>2026-04-04T10:00:26.998Z</time></trkpt><trkpt lat="43.60507827422162" lon="11.487865296223656"><ele>135.7142857142857</ele><time>2026-04-04T10:00:27.998Z</time></trkpt><trkpt lat="43.60513211856518" lon="11.48780991446778"><ele>136.0</ele><time>2026-04-04T10:00:28.998Z</time></trkpt><trkpt lat="43.605186011850115" lon="11.487759652160685"><ele>136.0</ele><time>2026-04-04T10:00:29.998Z</time></trkpt><trkpt lat="43.60529095764253" lon="11.48768301445786"><ele>136.0</ele><time>2026-04-04T10:00:31.998Z</time></trkpt><trkpt lat="43.60538779864268" lon="11.487623792877109"><ele>136.0</ele><time>2026-04-04T10:00:33.998Z</time></trkpt><trkpt lat="43.60548440911728" lon="11.487582280024117"><ele>136.0</ele><time>2026-04-04T10:00:35.998Z</time></trkpt><trkpt lat="43.605576157997135" lon="11.487536252671129"><ele>136.0</ele><time>2026-04-04T10:00:37.998Z</time></trkpt><trkpt lat="43.605661756887564" lon="11.487489822876523"><ele>136.0</ele><time>2026-04-04T10:00:39.998Z</time></trkpt><trkpt lat="43.605736001071854" lon="11.487452483177423"><ele>136.0</ele><time>2026-04-04T10:00:41.998Z</time></trkpt><trkpt lat="43.60581278558722" lon="11.48741073421386"><ele>136.0</ele><time>2026-04-04T10:00:43.998Z</time></trkpt><trkpt lat="43.605886228425994" lon="11.487370219474132"><ele>136.0</ele><time>2026-04-04T10:00:45.998Z</time></trkpt><trkpt lat="43.605957705429084" lon="11.487332151577963"><ele>136.0</ele><time>2026-04-04T10:00:47.998Z</time></trkpt><trkpt lat="43.606029775650995" lon="11.487301737526245"><ele>136.0</ele><time>2026-04-04T10:00:49.998Z</time></trkpt><trkpt lat="43.60609892463013" lon="11.487263855966358"><ele>136.16666666666669</ele><time>2026-04-04T10:00:51.998Z</time></trkpt><trkpt lat="43.60617043041023" lon="11.48723212596871"><ele>136.33333333333334</ele><time>2026-04-04T10:00:53.998Z</time></trkpt><trkpt lat="43.606239584721415" lon="11.487189729567778"><ele>136.5</ele><time>2026-04-04T10:00:55.998Z</time></trkpt><trkpt lat="43.60631455037564" lon="11.487147158619536"><ele>136.66666666666666</ele><time>2026-04-04T10:00:57.998Z</time></trkpt><trkpt lat="43.60640278763571" lon="11.48710125724288"><ele>136.83333333333331</ele><time>2026-04-04T10:00:59.998Z</time></trkpt><trkpt lat="43.606501576865284" lon="11.487049256511519"><ele>137.0</ele><time>2026-04-04T10:01:01.998Z</time></trkpt><trkpt lat="43.60661916260206" lon="11.486992529601913"><ele>137.00000000000003</ele><time>2026-04-04T10:01:04Z</time></trkpt><trkpt lat="43.606679915281035" lon="11.486962251434733"><ele>137.0</ele><time>2026-04-04T10:01:05Z</time></trkpt><trkpt lat="43.60674264862835" lon="11.486928695011887"><ele>137.0</ele><time>2026-04-04T10:01:06Z</time></trkpt><trkpt lat="43.60680881724014" lon="11.486895574731063"><ele>137.0</ele><time>2026-04-04T10:01:07Z</time></trkpt><trkpt lat="43.60687546811702" lon="11.486861526182292"><ele>137.0</ele><time>2026-04-04T10:01:08Z</time></trkpt><trkpt lat="43.6069415569833" lon="11.486826996176749"><ele>137.00000000000003</ele><time>2026-04-04T10:01:09Z</time></trkpt><trkpt lat="43.60701000729176" lon="11.48679148197512"><ele>137.0</ele><time>2026-04-04T10:01:10Z</time></trkpt><trkpt lat="43.607078475628086" lon="11.486744470594243"><ele>136.0</ele><time>2026-04-04T10:01:11Z</time></trkpt><trkpt lat="43.60714685518873" lon="11.486692287328978"><ele>135.0</ele><time>2026-04-04T10:01:12Z</time></trkpt><trkpt lat="43.60721467816711" lon="11.486633324310848"><ele>134.0</ele><time>2026-04-04T10:01:13Z</time></trkpt><trkpt lat="43.60728278983294" lon="11.486566298623757"><ele>133.0</ele><time>2026-04-04T10:01:14Z</time></trkpt><trkpt lat="43.60735302474933" lon="11.486497658862286"><ele>132.0</ele><time>2026-04-04T10:01:15Z</time></trkpt><trkpt lat="43.60742419516565" lon="11.486425811770987"><ele>131.0</ele><time>2026-04-04T10:01:16Z</time></trkpt><trkpt lat="43.60749776263457" lon="11.486352760422356"><ele>131.0</ele><time>2026-04-04T10:01:17Z</time></trkpt><trkpt lat="43.60757397626845" lon="11.486278346402866"><ele>131.0</ele><time>2026-04-04T10:01:18Z</time></trkpt><trkpt lat="43.60765252095867" lon="11.486201881141275"><ele>131.0</ele><time>2026-04-04T10:01:19Z</time></trkpt><trkpt lat="43.60772919650915" lon="11.486126571419314"><ele>131.0</ele><time>2026-04-04T10:01:20Z</time></trkpt><trkpt lat="43.60780708974914" lon="11.486046361051534"><ele>131.0</ele><time>2026-04-04T10:01:21Z</time></trkpt><trkpt lat="43.60788668337674" lon="11.485967109644381"><ele>130.0</ele><time>2026-04-04T10:01:22Z</time></trkpt><trkpt lat="43.60796892597722" lon="11.485887382468913"><ele>129.0</ele><time>2026-04-04T10:01:23Z</time></trkpt><trkpt lat="43.60805180378583" lon="11.485809911363516"><ele>128.0</ele><time>2026-04-04T10:01:24Z</time></trkpt><trkpt lat="43.60813413138101" lon="11.485724479556998"><ele>127.0</ele><time>2026-04-04T10:01:25Z</time></trkpt><trkpt lat="43.608218632550994" lon="11.485645562668735"><ele>126.0</ele><time>2026-04-04T10:01:26Z</time></trkpt><trkpt lat="43.60830392102375" lon="11.485562548991199"><ele>126.0</ele><time>2026-04-04T10:01:27Z</time></trkpt><trkpt lat="43.60839067408874" lon="11.485477552107614"><ele>126.0</ele><time>2026-04-04T10:01:28Z</time></trkpt><trkpt lat="43.60847693198641" lon="11.485389850571403"><ele>126.0</ele><time>2026-04-04T10:01:29Z</time></trkpt><trkpt lat="43.6085623905318" lon="11.485305902122574"><ele>126.0</ele><time>2026-04-04T10:01:30Z</time></trkpt><trkpt lat="43.60864720398627" lon="11.485222139072304"><ele>126.0</ele><time>2026-04-04T10:01:31Z</time></trkpt><trkpt lat="43.60873123093505" lon="11.485140559229576"><ele>126.0</ele><time>2026-04-04T10:01:32Z</time></trkpt><trkpt lat="43.608815227751826" lon="11.485060938576755"><ele>126.0</ele><time>2026-04-04T10:01:33Z</time></trkpt><trkpt lat="43.6088948244554" lon="11.484982025534269"><ele>126.0</ele><time>2026-04-04T10:01:34Z</time></trkpt><trkpt lat="43.60897441894425" lon="11.484904780272917"><ele>126.0</ele><time>2026-04-04T10:01:35Z</time></trkpt><trkpt lat="43.60905171675017" lon="11.484829111000355"><ele>126.0</ele><time>2026-04-04T10:01:36Z</time></trkpt><trkpt lat="43.60912893203675" lon="11.484752451286672"><ele>126.0</ele><time>2026-04-04T10:01:37Z</time></trkpt><trkpt lat="43.6092038838181" lon="11.484678454864559"><ele>126.0</ele><time>2026-04-04T10:01:37.999Z</time></trkpt><trkpt lat="43.60927683079825" lon="11.484606430841994"><ele>126.0</ele><time>2026-04-04T10:01:38.999Z</time></trkpt><trkpt lat="43.60934735620184" lon="11.484536864243749"><ele>126.0</ele><time>2026-04-04T10:01:39.999Z</time></trkpt><trkpt lat="43.609414242617895" lon="11.4844720595218"><ele>126.0</ele><time>2026-04-04T10:01:40.999Z</time></trkpt><trkpt lat="43.60947874331937" lon="11.484406574793413"><ele>126.0</ele><time>2026-04-04T10:01:41.999Z</time></trkpt><trkpt lat="43.60953998464743" lon="11.484343527505372"><ele>126.0</ele><time>2026-04-04T10:01:42.999Z</time></trkpt><trkpt lat="43.60960117065405" lon="11.484283883568558"><ele>126.0</ele><time>2026-04-04T10:01:43.999Z</time></trkpt><trkpt lat="43.60966328901111" lon="11.484222794908424"><ele>126.0</ele><time>2026-04-04T10:01:44.999Z</time></trkpt><trkpt lat="43.609725530147145" lon="11.484164415203042"><ele>126.0</ele><time>2026-04-04T10:01:45.999Z</time></trkpt><trkpt lat="43.6097877531917" lon="11.484104893172246"><ele>126.0</ele><time>2026-04-04T10:01:46.999Z</time></trkpt><trkpt lat="43.60984855671343" lon="11.484043425040186"><ele>126.0</ele><time>2026-04-04T10:01:47.999Z</time></trkpt><trkpt lat="43.60990543209771" lon="11.483983550782563"><ele>126.0</ele><time>2026-04-04T10:01:48.999Z</time></trkpt><trkpt lat="43.60996303846723" lon="11.483927022706396"><ele>126.0</ele><time>2026-04-04T10:01:49.999Z</time></trkpt><trkpt lat="43.610019822197856" lon="11.483870698252717"><ele>126.0</ele><time>2026-04-04T10:01:50.999Z</time></trkpt><trkpt lat="43.610074832049804" lon="11.483820909063112"><ele>126.0</ele><time>2026-04-04T10:01:51.999Z</time></trkpt><trkpt lat="43.61012865102044" lon="11.483766345477795"><ele>126.0</ele><time>2026-04-04T10:01:52.999Z</time></trkpt><trkpt lat="43.6102309274995" lon="11.48367308774128"><ele>126.0</ele><time>2026-04-04T10:01:54.999Z</time></trkpt><trkpt lat="43.610318853968536" lon="11.483583520438609"><ele>126.0</ele><time>2026-04-04T10:01:56.999Z</time></trkpt><trkpt lat="43.610397449429506" lon="11.483500191318326"><ele>126.16666666666667</ele><time>2026-04-04T10:01:58.999Z</time></trkpt><trkpt lat="43.61048070052912" lon="11.483413390552668"><ele>126.33333333333334</ele><time>2026-04-04T10:02:00.999Z</time></trkpt><trkpt lat="43.6105804141277" lon="11.48332153308007"><ele>126.5</ele><time>2026-04-04T10:02:02.999Z</time></trkpt><trkpt lat="43.61063508174633" lon="11.483271980450427"><ele>126.66666666666667</ele><time>2026-04-04T10:02:03.999Z</time></trkpt><trkpt lat="43.61069037373832" lon="11.483218549066677"><ele>126.83333333333334</ele><time>2026-04-04T10:02:04.999Z</time></trkpt><trkpt lat="43.61074608973531" lon="11.483160616854871"><ele>127.0</ele><time>2026-04-04T10:02:05.999Z</time></trkpt><trkpt lat="43.61080363145214" lon="11.483098191547809"><ele>127.00000000000001</ele><time>2026-04-04T10:02:06.999Z</time></trkpt><trkpt lat="43.61086324156642" lon="11.483036586961715"><ele>127.0</ele><time>2026-04-04T10:02:07.999Z</time></trkpt><trkpt lat="43.610926847312456" lon="11.482975281265558"><ele>127.0</ele><time>2026-04-04T10:02:08.999Z</time></trkpt><trkpt lat="43.610991433608355" lon="11.482916787673496"><ele>127.0</ele><time>2026-04-04T10:02:09.999Z</time></trkpt><trkpt lat="43.61105322319605" lon="11.482856376449524"><ele>127.00000000000001</ele><time>2026-04-04T10:02:10.999Z</time></trkpt><trkpt lat="43.61111384968572" lon="11.482796041669028"><ele>127.0</ele><time>2026-04-04T10:02:11.999Z</time></trkpt><trkpt lat="43.61117448027971" lon="11.482738341977806"><ele>126.71428571428572</ele><time>2026-04-04T10:02:12.999Z</time></trkpt><trkpt lat="43.611231844192204" lon="11.482679628302728"><ele>126.42857142857142</ele><time>2026-04-04T10:02:13.999Z</time></trkpt><trkpt lat="43.611286221647795" lon="11.482620343677683"><ele>126.14285714285714</ele><time>2026-04-04T10:02:14.999Z</time></trkpt><trkpt lat="43.61134302417193" lon="11.482561880324884"><ele>125.85714285714286</ele><time>2026-04-04T10:02:15.999Z</time></trkpt><trkpt lat="43.61140062842199" lon="11.48250509219089"><ele>125.57142857142858</ele><time>2026-04-04T10:02:16.999Z</time></trkpt><trkpt lat="43.61145755668083" lon="11.482447716873763"><ele>125.28571428571428</ele><time>2026-04-04T10:02:17.999Z</time></trkpt><trkpt lat="43.61151432334528" lon="11.482391772282124"><ele>125.0</ele><time>2026-04-04T10:02:18.999Z</time></trkpt><trkpt lat="43.61157000098832" lon="11.482337717773596"><ele>125.0</ele><time>2026-04-04T10:02:19.999Z</time></trkpt><trkpt lat="43.61162844349031" lon="11.48228171156865"><ele>125.0</ele><time>2026-04-04T10:02:20.999Z</time></trkpt><trkpt lat="43.61168555315791" lon="11.482223710895886"><ele>125.0</ele><time>2026-04-04T10:02:21.999Z</time></trkpt><trkpt lat="43.61174086750932" lon="11.482169145930746"><ele>125.0</ele><time>2026-04-04T10:02:22.999Z</time></trkpt><trkpt lat="43.611798564496226" lon="11.482113911106847"><ele>125.0</ele><time>2026-04-04T10:02:23.999Z</time></trkpt><trkpt lat="43.61185424313421" lon="11.482056999762298"><ele>125.0</ele><time>2026-04-04T10:02:24.998Z</time></trkpt><trkpt lat="43.611909937694534" lon="11.482004501039988"><ele>125.0</ele><time>2026-04-04T10:02:25.998Z</time></trkpt><trkpt lat="43.61196591313942" lon="11.481944723443469"><ele>124.71428571428571</ele><time>2026-04-04T10:02:26.998Z</time></trkpt><trkpt lat="43.612023865109904" lon="11.481888809019619"><ele>124.42857142857144</ele><time>2026-04-04T10:02:27.998Z</time></trkpt><trkpt lat="43.61208153380906" lon="11.48183502565481"><ele>124.14285714285715</ele><time>2026-04-04T10:02:28.998Z</time></trkpt><trkpt lat="43.61213715329011" lon="11.48178006447675"><ele>123.85714285714286</ele><time>2026-04-04T10:02:29.998Z</time></trkpt><trkpt lat="43.61219370105819" lon="11.481723667276858"><ele>123.57142857142858</ele><time>2026-04-04T10:02:30.998Z</time></trkpt><trkpt lat="43.612250151452635" lon="11.481666590765402"><ele>123.2857142857143</ele><time>2026-04-04T10:02:31.998Z</time></trkpt><trkpt lat="43.61230766568868" lon="11.481609693922332"><ele>123.00000000000001</ele><time>2026-04-04T10:02:32.998Z</time></trkpt><trkpt lat="43.61236671546116" lon="11.481551039136706"><ele>123.00000000000001</ele><time>2026-04-04T10:02:33.998Z</time></trkpt><trkpt lat="43.61242230777949" lon="11.481494708589034"><ele>123.0</ele><time>2026-04-04T10:02:34.998Z</time></trkpt><trkpt lat="43.61248118579382" lon="11.481438028118585"><ele>123.00000000000001</ele><time>2026-04-04T10:02:35.998Z</time></trkpt><trkpt lat="43.612540280849316" lon="11.481383976968068"><ele>123.00000000000001</ele><time>2026-04-04T10:02:36.998Z</time></trkpt><trkpt lat="43.612598644294295" lon="11.48132681769068"><ele>123.0</ele><time>2026-04-04T10:02:37.998Z</time></trkpt><trkpt lat="43.612658369233365" lon="11.481267433895896"><ele>123.00000000000001</ele><time>2026-04-04T10:02:38.998Z</time></trkpt><trkpt lat="43.612716688155224" lon="11.481208013563212"><ele>123.00000000000001</ele><time>2026-04-04T10:02:39.998Z</time></trkpt><trkpt lat="43.61277256901868" lon="11.481148795927645"><ele>123.2857142857143</ele><time>2026-04-04T10:02:40.998Z</time></trkpt><trkpt lat="43.61282867909085" lon="11.481089103483203"><ele>123.57142857142858</ele><time>2026-04-04T10:02:41.998Z</time></trkpt><trkpt lat="43.612886508881715" lon="11.481028305998096"><ele>123.85714285714286</ele><time>2026-04-04T10:02:42.998Z</time></trkpt><trkpt lat="43.61294598703285" lon="11.48097234770766"><ele>124.14285714285715</ele><time>2026-04-04T10:02:43.998Z</time></trkpt><trkpt lat="43.613006331536155" lon="11.480919443246751"><ele>124.42857142857144</ele><time>2026-04-04T10:02:44.998Z</time></trkpt><trkpt lat="43.61306333038804" lon="11.480859245395763"><ele>124.71428571428571</ele><time>2026-04-04T10:02:45.998Z</time></trkpt><trkpt lat="43.6131189834537" lon="11.480799423662726"><ele>125.0</ele><time>2026-04-04T10:02:46.998Z</time></trkpt><trkpt lat="43.613177496268065" lon="11.480739252659955"><ele>124.99999999999999</ele><time>2026-04-04T10:02:47.998Z</time></trkpt><trkpt lat="43.61323306654066" lon="11.48068315004056"><ele>125.0</ele><time>2026-04-04T10:02:48.998Z</time></trkpt><trkpt lat="43.61328921929189" lon="11.48062832827284"><ele>125.0</ele><time>2026-04-04T10:02:49.998Z</time></trkpt><trkpt lat="43.61334626835589" lon="11.480573944149185"><ele>125.0</ele><time>2026-04-04T10:02:50.998Z</time></trkpt><trkpt lat="43.613397235558075" lon="11.480521101637335"><ele>124.99999999999999</ele><time>2026-04-04T10:02:51.998Z</time></trkpt><trkpt lat="43.61344913678645" lon="11.480468391460844"><ele>125.0</ele><time>2026-04-04T10:02:52.998Z</time></trkpt><trkpt lat="43.61359785408955" lon="11.480329269624038"><ele>125.0</ele><time>2026-04-04T10:02:55.998Z</time></trkpt><trkpt lat="43.613696780761664" lon="11.480238256319913"><ele>125.0</ele><time>2026-04-04T10:02:57.998Z</time></trkpt><trkpt lat="43.61379506209997" lon="11.480145985041734"><ele>125.0</ele><time>2026-04-04T10:02:59.998Z</time></trkpt><trkpt lat="43.61389219486205" lon="11.480046719372814"><ele>125.0</ele><time>2026-04-04T10:03:01.998Z</time></trkpt><trkpt lat="43.61399168282073" lon="11.479947138162162"><ele>124.99999999999999</ele><time>2026-04-04T10:03:03.998Z</time></trkpt><trkpt lat="43.614089531321305" lon="11.479836407191966"><ele>125.0</ele><time>2026-04-04T10:03:05.998Z</time></trkpt><trkpt lat="43.61414134777847" lon="11.479783942143007"><ele>125.0</ele><time>2026-04-04T10:03:06.998Z</time></trkpt><trkpt lat="43.614193085200036" lon="11.479731311203071"><ele>125.0</ele><time>2026-04-04T10:03:07.998Z</time></trkpt><trkpt lat="43.61424494285801" lon="11.479681154445629"><ele>124.99999999999999</ele><time>2026-04-04T10:03:09Z</time></trkpt><trkpt lat="43.61429958204868" lon="11.479636564986299"><ele>125.0</ele><time>2026-04-04T10:03:10Z</time></trkpt><trkpt lat="43.61439642953775" lon="11.479538028318773"><ele>124.8</ele><time>2026-04-04T10:03:12Z</time></trkpt><trkpt lat="43.61448977627082" lon="11.47944840071927"><ele>124.6</ele><time>2026-04-04T10:03:14Z</time></trkpt><trkpt lat="43.614567600305286" lon="11.479380740090859"><ele>124.4</ele><time>2026-04-04T10:03:17Z</time></trkpt><trkpt lat="43.61462709753033" lon="11.479310886484162"><ele>124.2</ele><time>2026-04-04T10:03:19Z</time></trkpt><trkpt lat="43.614706788623465" lon="11.479241395504935"><ele>124.0</ele><time>2026-04-04T10:03:21Z</time></trkpt><trkpt lat="43.614788645751766" lon="11.479164831423525"><ele>124.0</ele><time>2026-04-04T10:03:23Z</time></trkpt><trkpt lat="43.61487049999773" lon="11.479076117465885"><ele>124.0</ele><time>2026-04-04T10:03:25Z</time></trkpt><trkpt lat="43.61495399329681" lon="11.478986538722108"><ele>124.0</ele><time>2026-04-04T10:03:27Z</time></trkpt><trkpt lat="43.615041172583695" lon="11.478898674581217"><ele>124.0</ele><time>2026-04-04T10:03:29Z</time></trkpt><trkpt lat="43.615128194738546" lon="11.478810732158825"><ele>124.0</ele><time>2026-04-04T10:03:31Z</time></trkpt><trkpt lat="43.61521609352683" lon="11.478716209069965"><ele>124.25</ele><time>2026-04-04T10:03:33Z</time></trkpt><trkpt lat="43.615304962033406" lon="11.478616347486293"><ele>124.5</ele><time>2026-04-04T10:03:35Z</time></trkpt><trkpt lat="43.61539520781245" lon="11.478526974252183"><ele>124.75</ele><time>2026-04-04T10:03:37Z</time></trkpt><trkpt lat="43.61548229835744" lon="11.478427857512244"><ele>125.0</ele><time>2026-04-04T10:03:39Z</time></trkpt><trkpt lat="43.615567952731716" lon="11.478323902198543"><ele>124.5</ele><time>2026-04-04T10:03:41Z</time></trkpt><trkpt lat="43.61565378612117" lon="11.47821620343339"><ele>124.0</ele><time>2026-04-04T10:03:43Z</time></trkpt><trkpt lat="43.61573846200934" lon="11.478109710866747"><ele>123.5</ele><time>2026-04-04T10:03:44.999Z</time></trkpt><trkpt lat="43.61582601456971" lon="11.47800949318441"><ele>123.0</ele><time>2026-04-04T10:03:46.999Z</time></trkpt><trkpt lat="43.61590925199475" lon="11.477902340788791"><ele>122.80000000000001</ele><time>2026-04-04T10:03:48.999Z</time></trkpt><trkpt lat="43.61599348703119" lon="11.477798716347824"><ele>122.60000000000001</ele><time>2026-04-04T10:03:50.999Z</time></trkpt><trkpt lat="43.6160745755214" lon="11.477692512212258"><ele>122.39999999999999</ele><time>2026-04-04T10:03:52.999Z</time></trkpt><trkpt lat="43.61615902762505" lon="11.477592024186333"><ele>122.19999999999999</ele><time>2026-04-04T10:03:54.999Z</time></trkpt><trkpt lat="43.61624333375406" lon="11.477489211670113"><ele>122.0</ele><time>2026-04-04T10:03:56.999Z</time></trkpt><trkpt lat="43.616325287007896" lon="11.477385527194828"><ele>122.39999999999999</ele><time>2026-04-04T10:03:58.999Z</time></trkpt><trkpt lat="43.616406794130235" lon="11.477279454086304"><ele>122.79999999999998</ele><time>2026-04-04T10:04:00.999Z</time></trkpt><trkpt lat="43.61648674987856" lon="11.477178425955454"><ele>123.2</ele><time>2026-04-04T10:04:02.999Z</time></trkpt><trkpt lat="43.616567994840935" lon="11.477076013263892"><ele>123.6</ele><time>2026-04-04T10:04:04.999Z</time></trkpt><trkpt lat="43.61664956735484" lon="11.476977077123712"><ele>124.0</ele><time>2026-04-04T10:04:06.999Z</time></trkpt><trkpt lat="43.61675457447211" lon="11.47690090694903"><ele>124.0</ele><time>2026-04-04T10:04:08.999Z</time></trkpt><trkpt lat="43.61685494173091" lon="11.47686112361315"><ele>124.0</ele><time>2026-04-04T10:04:10.999Z</time></trkpt><trkpt lat="43.61689429175964" lon="11.476791882535423"><ele>124.0</ele><time>2026-04-04T10:04:11.999Z</time></trkpt><trkpt lat="43.6169223067465" lon="11.476633737828767"><ele>124.0</ele><time>2026-04-04T10:04:13.999Z</time></trkpt><trkpt lat="43.61700201421942" lon="11.476502085573962"><ele>124.0</ele><time>2026-04-04T10:04:15.999Z</time></trkpt><trkpt lat="43.61708046201309" lon="11.476399368683351"><ele>124.2</ele><time>2026-04-04T10:04:17.999Z</time></trkpt><trkpt lat="43.61715789088414" lon="11.476297906064248"><ele>124.4</ele><time>2026-04-04T10:04:19.999Z</time></trkpt><trkpt lat="43.61724170273329" lon="11.476200190398043"><ele>124.6</ele><time>2026-04-04T10:04:21.999Z</time></trkpt><trkpt lat="43.61732339546171" lon="11.476099166317171"><ele>124.8</ele><time>2026-04-04T10:04:23.999Z</time></trkpt><trkpt lat="43.61740818853125" lon="11.475995794405579"><ele>125.0</ele><time>2026-04-04T10:04:25.999Z</time></trkpt><trkpt lat="43.617486817273374" lon="11.475893156146865"><ele>125.0</ele><time>2026-04-04T10:04:27.999Z</time></trkpt><trkpt lat="43.61756604283631" lon="11.475789776268968"><ele>125.0</ele><time>2026-04-04T10:04:29.999Z</time></trkpt><trkpt lat="43.617642220476135" lon="11.47568514365264"><ele>125.0</ele><time>2026-04-04T10:04:31.999Z</time></trkpt><trkpt lat="43.61771900284207" lon="11.475583225691413"><ele>125.0</ele><time>2026-04-04T10:04:33.998Z</time></trkpt><trkpt lat="43.61779771390789" lon="11.47548215377114"><ele>125.0</ele><time>2026-04-04T10:04:35.998Z</time></trkpt><trkpt lat="43.61787987844525" lon="11.47539193377609"><ele>125.0</ele><time>2026-04-04T10:04:37.998Z</time></trkpt><trkpt lat="43.61795881124439" lon="11.475295327479413"><ele>125.0</ele><time>2026-04-04T10:04:39.998Z</time></trkpt><trkpt lat="43.61804122283336" lon="11.475207697694096"><ele>125.0</ele><time>2026-04-04T10:04:41.998Z</time></trkpt><trkpt lat="43.61811905846212" lon="11.475121403139251"><ele>125.0</ele><time>2026-04-04T10:04:43.998Z</time></trkpt><trkpt lat="43.61822141918637" lon="11.475089012348585"><ele>125.0</ele><time>2026-04-04T10:04:45.998Z</time></trkpt><trkpt lat="43.61832860205961" lon="11.475121847831806"><ele>124.99999999999999</ele><time>2026-04-04T10:04:47.998Z</time></trkpt><trkpt lat="43.61845520103109" lon="11.475098875920846"><ele>125.0</ele><time>2026-04-04T10:04:49.998Z</time></trkpt><trkpt lat="43.61850995746276" lon="11.475040244748556"><ele>125.0</ele><time>2026-04-04T10:04:50.998Z</time></trkpt><trkpt lat="43.61853933512918" lon="11.47495725209893"><ele>125.0</ele><time>2026-04-04T10:04:51.998Z</time></trkpt><trkpt lat="43.61854585368528" lon="11.474869342192656"><ele>124.99999999999999</ele><time>2026-04-04T10:04:52.998Z</time></trkpt><trkpt lat="43.61855413232096" lon="11.474717274524842"><ele>125.0</ele><time>2026-04-04T10:04:54.998Z</time></trkpt><trkpt lat="43.618595532800946" lon="11.474576858469652"><ele>125.0</ele><time>2026-04-04T10:04:56.998Z</time></trkpt><trkpt lat="43.61868329019085" lon="11.474473219555863"><ele>125.0</ele><time>2026-04-04T10:04:58.998Z</time></trkpt><trkpt lat="43.6187794364245" lon="11.474379833768277"><ele>125.0</ele><time>2026-04-04T10:05:00.998Z</time></trkpt><trkpt lat="43.618874260806884" lon="11.47427315156042"><ele>125.0</ele><time>2026-04-04T10:05:02.998Z</time></trkpt><trkpt lat="43.61896696960596" lon="11.47416593326355"><ele>125.0</ele><time>2026-04-04T10:05:04.998Z</time></trkpt><trkpt lat="43.61906396447074" lon="11.47406259535416"><ele>125.0</ele><time>2026-04-04T10:05:06.998Z</time></trkpt><trkpt lat="43.619160910309475" lon="11.473959572182507"><ele>125.0</ele><time>2026-04-04T10:05:08.998Z</time></trkpt><trkpt lat="43.61926160101523" lon="11.473856440122237"><ele>125.0</ele><time>2026-04-04T10:05:10.998Z</time></trkpt><trkpt lat="43.61931553351849" lon="11.47380460741144"><ele>125.0</ele><time>2026-04-04T10:05:11.998Z</time></trkpt><trkpt lat="43.61941617161506" lon="11.473689110905195"><ele>125.0</ele><time>2026-04-04T10:05:13.998Z</time></trkpt><trkpt lat="43.619463239821776" lon="11.473625520679377"><ele>125.0</ele><time>2026-04-04T10:05:15Z</time></trkpt><trkpt lat="43.61951680371876" lon="11.473564694165201"><ele>125.0</ele><time>2026-04-04T10:05:16Z</time></trkpt><trkpt lat="43.61956831925805" lon="11.473502124637424"><ele>125.0</ele><time>2026-04-04T10:05:17Z</time></trkpt><trkpt lat="43.61962487617045" lon="11.473440558603608"><ele>125.0</ele><time>2026-04-04T10:05:18Z</time></trkpt><trkpt lat="43.6196792116034" lon="11.473380630999316"><ele>125.0</ele><time>2026-04-04T10:05:19Z</time></trkpt><trkpt lat="43.619733574291864" lon="11.47331946223402"><ele>125.0</ele><time>2026-04-04T10:05:20Z</time></trkpt><trkpt lat="43.61978891191536" lon="11.473257277937453"><ele>125.0</ele><time>2026-04-04T10:05:21Z</time></trkpt><trkpt lat="43.619843267852474" lon="11.473192260164883"><ele>125.0</ele><time>2026-04-04T10:05:22Z</time></trkpt><trkpt lat="43.61990215836454" lon="11.473135377229235"><ele>125.0</ele><time>2026-04-04T10:05:23Z</time></trkpt><trkpt lat="43.619958498513505" lon="11.473077448627652"><ele>125.0</ele><time>2026-04-04T10:05:24Z</time></trkpt><trkpt lat="43.62001352367489" lon="11.473015677121625"><ele>125.0</ele><time>2026-04-04T10:05:25Z</time></trkpt><trkpt lat="43.620065636555736" lon="11.472955542107167"><ele>125.0</ele><time>2026-04-04T10:05:26Z</time></trkpt><trkpt lat="43.620117875349024" lon="11.472893261278122"><ele>125.0</ele><time>2026-04-04T10:05:27Z</time></trkpt><trkpt lat="43.62017135347825" lon="11.472831820705414"><ele>125.0</ele><time>2026-04-04T10:05:28Z</time></trkpt><trkpt lat="43.620222893644936" lon="11.472774971648093"><ele>125.0</ele><time>2026-04-04T10:05:29Z</time></trkpt><trkpt lat="43.62027563228429" lon="11.472713522753274"><ele>125.0</ele><time>2026-04-04T10:05:30Z</time></trkpt><trkpt lat="43.62032969884502" lon="11.472653682114963"><ele>125.0</ele><time>2026-04-04T10:05:31Z</time></trkpt><trkpt lat="43.62038016389694" lon="11.47260125548745"><ele>125.0</ele><time>2026-04-04T10:05:32Z</time></trkpt><trkpt lat="43.620431550693695" lon="11.472546177382895"><ele>125.0</ele><time>2026-04-04T10:05:33Z</time></trkpt><trkpt lat="43.6204808431887" lon="11.472486508556463"><ele>125.0</ele><time>2026-04-04T10:05:34Z</time></trkpt><trkpt lat="43.620532642601965" lon="11.472433080509889"><ele>124.99999999999999</ele><time>2026-04-04T10:05:35Z</time></trkpt><trkpt lat="43.620581851762914" lon="11.472374875024773"><ele>125.0</ele><time>2026-04-04T10:05:36Z</time></trkpt><trkpt lat="43.62067835579913" lon="11.472263982907512"><ele>125.0</ele><time>2026-04-04T10:05:38Z</time></trkpt><trkpt lat="43.62076116952465" lon="11.472171974619922"><ele>125.0</ele><time>2026-04-04T10:05:40Z</time></trkpt><trkpt lat="43.62081227029661" lon="11.472113948010907"><ele>124.99999999999999</ele><time>2026-04-04T10:05:42Z</time></trkpt><trkpt lat="43.620860879177826" lon="11.47205197918006"><ele>125.0</ele><time>2026-04-04T10:05:57.999Z</time></trkpt><trkpt lat="43.62092400305477" lon="11.471994654281021"><ele>125.0</ele><time>2026-04-04T10:05:59.999Z</time></trkpt><trkpt lat="43.62098107733037" lon="11.471919955618038"><ele>125.0</ele><time>2026-04-04T10:06:01.999Z</time></trkpt><trkpt lat="43.62104390236751" lon="11.471839866186647"><ele>125.0</ele><time>2026-04-04T10:06:03.999Z</time></trkpt><trkpt lat="43.62111883717333" lon="11.471743486686325"><ele>125.0</ele><time>2026-04-04T10:06:05.999Z</time></trkpt><trkpt lat="43.62119419553477" lon="11.471652780961843"><ele>125.0</ele><time>2026-04-04T10:06:07.999Z</time></trkpt><trkpt lat="43.62127297855501" lon="11.471560310721491"><ele>124.75</ele><time>2026-04-04T10:06:09.999Z</time></trkpt><trkpt lat="43.621354152781656" lon="11.47145893540176"><ele>124.5</ele><time>2026-04-04T10:06:11.999Z</time></trkpt><trkpt lat="43.621439513976924" lon="11.471354609074742"><ele>124.25</ele><time>2026-04-04T10:06:13.999Z</time></trkpt><trkpt lat="43.62153240377606" lon="11.471263005980504"><ele>124.0</ele><time>2026-04-04T10:06:15.999Z</time></trkpt><trkpt lat="43.62162583704988" lon="11.471166397921841"><ele>124.0</ele><time>2026-04-04T10:06:17.999Z</time></trkpt><trkpt lat="43.621717640079076" lon="11.471063643911458"><ele>124.0</ele><time>2026-04-04T10:06:19.999Z</time></trkpt><trkpt lat="43.62181312555854" lon="11.470962504922042"><ele>124.0</ele><time>2026-04-04T10:06:21.999Z</time></trkpt><trkpt lat="43.62190411643686" lon="11.470861540232253"><ele>124.0</ele><time>2026-04-04T10:06:23.999Z</time></trkpt><trkpt lat="43.62199543965526" lon="11.470759694046233"><ele>124.0</ele><time>2026-04-04T10:06:25.999Z</time></trkpt><trkpt lat="43.622085037645114" lon="11.470649705097514"><ele>124.0</ele><time>2026-04-04T10:06:27.999Z</time></trkpt><trkpt lat="43.62217429912761" lon="11.470546156099406"><ele>124.0</ele><time>2026-04-04T10:06:29.999Z</time></trkpt><trkpt lat="43.62226550733054" lon="11.470447405443524"><ele>124.0</ele><time>2026-04-04T10:06:31.999Z</time></trkpt><trkpt lat="43.62235277792475" lon="11.470339996589178"><ele>123.80000000000001</ele><time>2026-04-04T10:06:33.999Z</time></trkpt><trkpt lat="43.62244193175606" lon="11.470240823649663"><ele>123.60000000000001</ele><time>2026-04-04T10:06:35.999Z</time></trkpt><trkpt lat="43.62253493978792" lon="11.470134682856969"><ele>123.4</ele><time>2026-04-04T10:06:37.999Z</time></trkpt><trkpt lat="43.6225913538218" lon="11.470095414069007"><ele>123.2</ele><time>2026-04-04T10:06:38.998Z</time></trkpt><trkpt lat="43.62268520171622" lon="11.469993982077346"><ele>123.0</ele><time>2026-04-04T10:06:40.998Z</time></trkpt><trkpt lat="43.62273490079189" lon="11.46993982937098"><ele>123.0</ele><time>2026-04-04T10:06:41.998Z</time></trkpt><trkpt lat="43.62282977360568" lon="11.469835426601133"><ele>123.0</ele><time>2026-04-04T10:06:43.998Z</time></trkpt><trkpt lat="43.62292231410288" lon="11.469725206298234"><ele>123.0</ele><time>2026-04-04T10:06:45.998Z</time></trkpt><trkpt lat="43.62301058784554" lon="11.469612087169036"><ele>123.0</ele><time>2026-04-04T10:06:47.998Z</time></trkpt><trkpt lat="43.62309969114257" lon="11.469496367473802"><ele>123.0</ele><time>2026-04-04T10:06:49.998Z</time></trkpt><trkpt lat="43.62319233750858" lon="11.469384893784232"><ele>123.00000000000001</ele><time>2026-04-04T10:06:51.998Z</time></trkpt><trkpt lat="43.62324094293253" lon="11.46932882725399"><ele>123.00000000000001</ele><time>2026-04-04T10:06:52.998Z</time></trkpt><trkpt lat="43.62332070985657" lon="11.469197117404079"><ele>123.0</ele><time>2026-04-04T10:06:54.998Z</time></trkpt><trkpt lat="43.62337453526858" lon="11.469148391778456"><ele>123.0</ele><time>2026-04-04T10:06:55.998Z</time></trkpt><trkpt lat="43.62346150444468" lon="11.46902446973653"><ele>123.0</ele><time>2026-04-04T10:06:57.998Z</time></trkpt><trkpt lat="43.62349971355671" lon="11.468952405632786"><ele>123.00000000000001</ele><time>2026-04-04T10:06:58.998Z</time></trkpt><trkpt lat="43.62358012092712" lon="11.468820135324206"><ele>123.00000000000001</ele><time>2026-04-04T10:07:00.998Z</time></trkpt><trkpt lat="43.623659939855216" lon="11.468689372760714"><ele>123.0</ele><time>2026-04-04T10:07:02.998Z</time></trkpt><trkpt lat="43.623737980649146" lon="11.468552945459912"><ele>123.0</ele><time>2026-04-04T10:07:04.998Z</time></trkpt><trkpt lat="43.623809416653984" lon="11.468412930290448"><ele>123.16666666666667</ele><time>2026-04-04T10:07:06.998Z</time></trkpt><trkpt lat="43.623873428552265" lon="11.468268348316887"><ele>123.33333333333334</ele><time>2026-04-04T10:07:08.998Z</time></trkpt><trkpt lat="43.623943196970835" lon="11.46812104943564"><ele>123.5</ele><time>2026-04-04T10:07:10.998Z</time></trkpt><trkpt lat="43.62397213895954" lon="11.468042868736777"><ele>123.66666666666667</ele><time>2026-04-04T10:07:11.998Z</time></trkpt><trkpt lat="43.62400549195212" lon="11.46796463872919"><ele>123.83333333333334</ele><time>2026-04-04T10:07:12.998Z</time></trkpt><trkpt lat="43.62404513813059" lon="11.467895337246615"><ele>124.0</ele><time>2026-04-04T10:07:13.998Z</time></trkpt><trkpt lat="43.624083546255925" lon="11.467823575986513"><ele>123.66666666666667</ele><time>2026-04-04T10:07:14.998Z</time></trkpt><trkpt lat="43.62414384837638" lon="11.467674555580777"><ele>123.33333333333334</ele><time>2026-04-04T10:07:16.998Z</time></trkpt><trkpt lat="43.62417471281577" lon="11.467596895206894"><ele>123.0</ele><time>2026-04-04T10:07:17.998Z</time></trkpt><trkpt lat="43.62420662128318" lon="11.467520936879225"><ele>122.66666666666666</ele><time>2026-04-04T10:07:18.998Z</time></trkpt><trkpt lat="43.62423536876695" lon="11.467441851463972"><ele>122.33333333333333</ele><time>2026-04-04T10:07:19.998Z</time></trkpt><trkpt lat="43.624287370221154" lon="11.467285813615645"><ele>122.0</ele><time>2026-04-04T10:07:22Z</time></trkpt><trkpt lat="43.62432267166106" lon="11.46711896411276"><ele>121.99999999999999</ele><time>2026-04-04T10:07:24Z</time></trkpt><trkpt lat="43.62435477998978" lon="11.467039393603342"><ele>122.0</ele><time>2026-04-04T10:07:25Z</time></trkpt><trkpt lat="43.62440247879721" lon="11.466978043068224"><ele>122.0</ele><time>2026-04-04T10:07:26Z</time></trkpt><trkpt lat="43.62445981161503" lon="11.466827239205408"><ele>122.0</ele><time>2026-04-04T10:07:28Z</time></trkpt><trkpt lat="43.62448761269622" lon="11.466744540449861"><ele>121.99999999999999</ele><time>2026-04-04T10:07:29Z</time></trkpt><trkpt lat="43.62454106549996" lon="11.46658361872347"><ele>122.0</ele><time>2026-04-04T10:07:31Z</time></trkpt><trkpt lat="43.62459444218419" lon="11.466430839361397"><ele>122.25</ele><time>2026-04-04T10:07:33Z</time></trkpt><trkpt lat="43.62464960489138" lon="11.46628058282394"><ele>122.5</ele><time>2026-04-04T10:07:35Z</time></trkpt><trkpt lat="43.624700916229976" lon="11.466130945365467"><ele>122.75</ele><time>2026-04-04T10:07:37Z</time></trkpt><trkpt lat="43.62475247095903" lon="11.465984347854846"><ele>123.0</ele><time>2026-04-04T10:07:39Z</time></trkpt><trkpt lat="43.62480366957097" lon="11.465842311176942"><ele>123.2</ele><time>2026-04-04T10:07:41Z</time></trkpt><trkpt lat="43.62485302507522" lon="11.4656980843189"><ele>123.4</ele><time>2026-04-04T10:07:43Z</time></trkpt><trkpt lat="43.624901924169585" lon="11.465559671210118"><ele>123.60000000000001</ele><time>2026-04-04T10:07:45Z</time></trkpt><trkpt lat="43.624950038991564" lon="11.465423830245534"><ele>123.80000000000001</ele><time>2026-04-04T10:07:47Z</time></trkpt><trkpt lat="43.624997314364" lon="11.465285915046419"><ele>124.0</ele><time>2026-04-04T10:07:49Z</time></trkpt><trkpt lat="43.62504429413041" lon="11.465150714586459"><ele>124.2</ele><time>2026-04-04T10:07:51Z</time></trkpt><trkpt lat="43.62508546468368" lon="11.465025520954566"><ele>124.4</ele><time>2026-04-04T10:07:53Z</time></trkpt><trkpt lat="43.62512288569396" lon="11.464918801572106"><ele>124.6</ele><time>2026-04-04T10:07:54.999Z</time></trkpt><trkpt lat="43.62515687171172" lon="11.464813250647062"><ele>124.8</ele><time>2026-04-04T10:07:56.999Z</time></trkpt><trkpt lat="43.62519385639833" lon="11.464707812591275"><ele>125.0</ele><time>2026-04-04T10:07:58.999Z</time></trkpt><trkpt lat="43.62523897561364" lon="11.464576982247014"><ele>125.0</ele><time>2026-04-04T10:08:00.999Z</time></trkpt><trkpt lat="43.62529171732933" lon="11.464422901598589"><ele>125.0</ele><time>2026-04-04T10:08:02.999Z</time></trkpt><trkpt lat="43.62531809049203" lon="11.46434218490847"><ele>125.0</ele><time>2026-04-04T10:08:03.999Z</time></trkpt><trkpt lat="43.62534676793179" lon="11.464260096107626"><ele>125.0</ele><time>2026-04-04T10:08:04.999Z</time></trkpt><trkpt lat="43.625379858467525" lon="11.464183633572082"><ele>125.0</ele><time>2026-04-04T10:08:05.999Z</time></trkpt><trkpt lat="43.625413501284335" lon="11.46410575107459"><ele>125.0</ele><time>2026-04-04T10:08:06.999Z</time></trkpt><trkpt lat="43.625444094945" lon="11.464028733617491"><ele>125.0</ele><time>2026-04-04T10:08:07.999Z</time></trkpt><trkpt lat="43.62548000981989" lon="11.463956267412852"><ele>124.5</ele><time>2026-04-04T10:08:08.999Z</time></trkpt><trkpt lat="43.62554832868877" lon="11.463817653170981"><ele>124.0</ele><time>2026-04-04T10:08:10.999Z</time></trkpt><trkpt lat="43.625615323369686" lon="11.46368252077178"><ele>123.5</ele><time>2026-04-04T10:08:12.999Z</time></trkpt><trkpt lat="43.62568503386119" lon="11.463546292988823"><ele>123.0</ele><time>2026-04-04T10:08:14.999Z</time></trkpt><trkpt lat="43.62577404964131" lon="11.463428154338693"><ele>123.00000000000001</ele><time>2026-04-04T10:08:16.999Z</time></trkpt><trkpt lat="43.625813379914085" lon="11.463356644490219"><ele>123.0</ele><time>2026-04-04T10:08:17.999Z</time></trkpt><trkpt lat="43.62584384028602" lon="11.46327991372625"><ele>123.00000000000001</ele><time>2026-04-04T10:08:18.999Z</time></trkpt><trkpt lat="43.62587256185555" lon="11.463194855554555"><ele>123.00000000000001</ele><time>2026-04-04T10:08:19.999Z</time></trkpt><trkpt lat="43.62590937058693" lon="11.463118536490889"><ele>123.0</ele><time>2026-04-04T10:08:20.999Z</time></trkpt><trkpt lat="43.625958836378246" lon="11.463049897687702"><ele>123.00000000000001</ele><time>2026-04-04T10:08:21.999Z</time></trkpt><trkpt lat="43.626008199959585" lon="11.462976937479725"><ele>123.00000000000001</ele><time>2026-04-04T10:08:22.999Z</time></trkpt><trkpt lat="43.62605705612349" lon="11.462909804807483"><ele>123.14285714285717</ele><time>2026-04-04T10:08:23.999Z</time></trkpt><trkpt lat="43.626105682330675" lon="11.462841118409166"><ele>123.28571428571429</ele><time>2026-04-04T10:08:24.999Z</time></trkpt><trkpt lat="43.62615706241893" lon="11.462772521643071"><ele>123.42857142857144</ele><time>2026-04-04T10:08:25.999Z</time></trkpt><trkpt lat="43.626202530104116" lon="11.462704169896181"><ele>123.57142857142858</ele><time>2026-04-04T10:08:26.999Z</time></trkpt><trkpt lat="43.62625459704213" lon="11.462635038744994"><ele>123.71428571428572</ele><time>2026-04-04T10:08:27.999Z</time></trkpt><trkpt lat="43.62630406239037" lon="11.462565431019819"><ele>123.85714285714286</ele><time>2026-04-04T10:08:28.999Z</time></trkpt><trkpt lat="43.626356043681795" lon="11.462495800063131"><ele>124.0</ele><time>2026-04-04T10:08:29.999Z</time></trkpt><trkpt lat="43.626401653449186" lon="11.462430082838372"><ele>123.71428571428572</ele><time>2026-04-04T10:08:30.999Z</time></trkpt><trkpt lat="43.626452516878324" lon="11.462361759866523"><ele>123.42857142857144</ele><time>2026-04-04T10:08:31.999Z</time></trkpt><trkpt lat="43.62650531914984" lon="11.462293458310597"><ele>123.14285714285714</ele><time>2026-04-04T10:08:32.999Z</time></trkpt><trkpt lat="43.62655695988223" lon="11.462224800660124"><ele>122.85714285714286</ele><time>2026-04-04T10:08:33.999Z</time></trkpt><trkpt lat="43.626608503090324" lon="11.462156447740986"><ele>122.57142857142857</ele><time>2026-04-04T10:08:34.999Z</time></trkpt><trkpt lat="43.62665737690038" lon="11.46208680397706"><ele>122.28571428571428</ele><time>2026-04-04T10:08:35.999Z</time></trkpt><trkpt lat="43.626706205270736" lon="11.462023844277644"><ele>121.99999999999999</ele><time>2026-04-04T10:08:36.999Z</time></trkpt><trkpt lat="43.6267573295372" lon="11.461963268323029"><ele>121.99999999999999</ele><time>2026-04-04T10:08:37.999Z</time></trkpt><trkpt lat="43.62680678623886" lon="11.461898910594703"><ele>122.0</ele><time>2026-04-04T10:08:38.999Z</time></trkpt><trkpt lat="43.626855360526505" lon="11.461833783988482"><ele>121.99999999999999</ele><time>2026-04-04T10:08:39.999Z</time></trkpt><trkpt lat="43.62690405484961" lon="11.461771186066635"><ele>121.99999999999999</ele><time>2026-04-04T10:08:40.999Z</time></trkpt><trkpt lat="43.6269547468993" lon="11.461709195357155"><ele>122.0</ele><time>2026-04-04T10:08:41.998Z</time></trkpt><trkpt lat="43.627004383444316" lon="11.461646050030176"><ele>121.99999999999999</ele><time>2026-04-04T10:08:42.998Z</time></trkpt><trkpt lat="43.627053011239674" lon="11.46158147209634"><ele>121.99999999999999</ele><time>2026-04-04T10:08:43.998Z</time></trkpt><trkpt lat="43.62710306065622" lon="11.461520813458245"><ele>121.83333333333333</ele><time>2026-04-04T10:08:44.998Z</time></trkpt><trkpt lat="43.62715745273252" lon="11.461463344084677"><ele>121.66666666666666</ele><time>2026-04-04T10:08:45.998Z</time></trkpt><trkpt lat="43.62720985748404" lon="11.461409711325869"><ele>121.5</ele><time>2026-04-04T10:08:46.998Z</time></trkpt><trkpt lat="43.627263459140956" lon="11.461359622410479"><ele>121.33333333333334</ele><time>2026-04-04T10:08:47.998Z</time></trkpt><trkpt lat="43.62731670148641" lon="11.46130960859749"><ele>121.16666666666667</ele><time>2026-04-04T10:08:48.998Z</time></trkpt><trkpt lat="43.62742040007118" lon="11.46121294733486"><ele>121.0</ele><time>2026-04-04T10:08:50.998Z</time></trkpt><trkpt lat="43.62752944320842" lon="11.461129946169773"><ele>121.0</ele><time>2026-04-04T10:08:52.998Z</time></trkpt><trkpt lat="43.62759175446262" lon="11.461110135456003"><ele>120.99999999999999</ele><time>2026-04-04T10:08:53.998Z</time></trkpt><trkpt lat="43.627656767664504" lon="11.461099894329509"><ele>121.0</ele><time>2026-04-04T10:08:54.998Z</time></trkpt><trkpt lat="43.62771680753605" lon="11.461062318228928"><ele>121.0</ele><time>2026-04-04T10:08:55.998Z</time></trkpt><trkpt lat="43.62776476450896" lon="11.460998748114292"><ele>120.99999999999999</ele><time>2026-04-04T10:08:56.998Z</time></trkpt><trkpt lat="43.6277973337148" lon="11.460920954688397"><ele>121.0</ele><time>2026-04-04T10:08:57.998Z</time></trkpt><trkpt lat="43.62782247315402" lon="11.460840065501005"><ele>121.0</ele><time>2026-04-04T10:08:58.998Z</time></trkpt><trkpt lat="43.62778767548968" lon="11.460764349283627"><ele>120.8</ele><time>2026-04-04T10:08:59.998Z</time></trkpt><trkpt lat="43.62788751229015" lon="11.460685693749655"><ele>120.6</ele><time>2026-04-04T10:09:00.998Z</time></trkpt><trkpt lat="43.62793495371555" lon="11.460624282303638"><ele>120.4</ele><time>2026-04-04T10:09:01.998Z</time></trkpt><trkpt lat="43.62798115699706" lon="11.460560647981847"><ele>120.2</ele><time>2026-04-04T10:09:02.998Z</time></trkpt><trkpt lat="43.628072410137534" lon="11.460445195272724"><ele>120.0</ele><time>2026-04-04T10:09:04.998Z</time></trkpt><trkpt lat="43.6281717910857" lon="11.460337674953614"><ele>120.6</ele><time>2026-04-04T10:09:06.998Z</time></trkpt><trkpt lat="43.62822494136226" lon="11.460283123398423"><ele>121.2</ele><time>2026-04-04T10:09:07.998Z</time></trkpt><trkpt lat="43.628332414756706" lon="11.46019420752629"><ele>121.80000000000001</ele><time>2026-04-04T10:09:09.998Z</time></trkpt><trkpt lat="43.62838938503489" lon="11.460145760131157"><ele>122.4</ele><time>2026-04-04T10:09:10.998Z</time></trkpt><trkpt lat="43.628488977768214" lon="11.460059103408973"><ele>123.0</ele><time>2026-04-04T10:09:12.998Z</time></trkpt><trkpt lat="43.62859601627745" lon="11.459974301897697"><ele>122.60000000000001</ele><time>2026-04-04T10:09:14.998Z</time></trkpt><trkpt lat="43.62869969207089" lon="11.459888471091483"><ele>122.20000000000002</ele><time>2026-04-04T10:09:16.998Z</time></trkpt><trkpt lat="43.62875547084874" lon="11.459847981447107"><ele>121.8</ele><time>2026-04-04T10:09:17.998Z</time></trkpt><trkpt lat="43.628809075763755" lon="11.459800805673465"><ele>121.4</ele><time>2026-04-04T10:09:18.998Z</time></trkpt><trkpt lat="43.62891433940431" lon="11.45971677716493"><ele>121.0</ele><time>2026-04-04T10:09:20.998Z</time></trkpt><trkpt lat="43.629011177566866" lon="11.459642981798796"><ele>121.0</ele><time>2026-04-04T10:09:22.998Z</time></trkpt><trkpt lat="43.62911305419037" lon="11.45960242713916"><ele>121.0</ele><time>2026-04-04T10:09:24.998Z</time></trkpt><trkpt lat="43.62920119965151" lon="11.459617903126524"><ele>121.0</ele><time>2026-04-04T10:09:27Z</time></trkpt><trkpt lat="43.62930165134299" lon="11.45963435632435"><ele>121.0</ele><time>2026-04-04T10:09:29Z</time></trkpt><trkpt lat="43.629432079226795" lon="11.459625002685701"><ele>121.0</ele><time>2026-04-04T10:09:32Z</time></trkpt><trkpt lat="43.6295047395498" lon="11.459530540319163"><ele>121.0</ele><time>2026-04-04T10:09:34Z</time></trkpt><trkpt lat="43.62951846746708" lon="11.459398002402246"><ele>121.0</ele><time>2026-04-04T10:09:36Z</time></trkpt><trkpt lat="43.629498453878156" lon="11.459267778517477"><ele>121.0</ele><time>2026-04-04T10:09:38Z</time></trkpt><trkpt lat="43.62944257263523" lon="11.459219978589124"><ele>121.0</ele><time>2026-04-04T10:09:39Z</time></trkpt><trkpt lat="43.62936481567171" lon="11.459101561004795"><ele>121.0</ele><time>2026-04-04T10:09:41Z</time></trkpt><trkpt lat="43.62931364009173" lon="11.458965629675685"><ele>121.0</ele><time>2026-04-04T10:09:43Z</time></trkpt><trkpt lat="43.6292916951472" lon="11.458806075220142"><ele>121.0</ele><time>2026-04-04T10:09:45Z</time></trkpt><trkpt lat="43.62926162185724" lon="11.45865726449487"><ele>121.0</ele><time>2026-04-04T10:09:47Z</time></trkpt><trkpt lat="43.62922200773103" lon="11.458519250242315"><ele>121.0</ele><time>2026-04-04T10:09:49Z</time></trkpt><trkpt lat="43.62918043670491" lon="11.45839157180189"><ele>121.0</ele><time>2026-04-04T10:09:51Z</time></trkpt><trkpt lat="43.629138328497625" lon="11.458258530024553"><ele>121.4</ele><time>2026-04-04T10:09:53Z</time></trkpt><trkpt lat="43.62909988772982" lon="11.458133207275917"><ele>121.8</ele><time>2026-04-04T10:09:55Z</time></trkpt><trkpt lat="43.629062286023924" lon="11.458019067249865"><ele>122.20000000000002</ele><time>2026-04-04T10:09:57Z</time></trkpt><trkpt lat="43.62902465312146" lon="11.457893951214597"><ele>122.60000000000001</ele><time>2026-04-04T10:09:59Z</time></trkpt><trkpt lat="43.628994179654576" lon="11.457771927251741"><ele>123.0</ele><time>2026-04-04T10:10:01Z</time></trkpt><trkpt lat="43.628999774898396" lon="11.457631242961087"><ele>123.5</ele><time>2026-04-04T10:10:02.999Z</time></trkpt><trkpt lat="43.62900239386803" lon="11.457503372856982"><ele>124.0</ele><time>2026-04-04T10:10:04.999Z</time></trkpt><trkpt lat="43.62900861976425" lon="11.457377614301246"><ele>124.5</ele><time>2026-04-04T10:10:06.999Z</time></trkpt><trkpt lat="43.629031457155314" lon="11.457262961888947"><ele>125.0</ele><time>2026-04-04T10:10:08.999Z</time></trkpt><trkpt lat="43.629043259167474" lon="11.45715852955256"><ele>125.5</ele><time>2026-04-04T10:10:10.999Z</time></trkpt><trkpt lat="43.62904112895604" lon="11.457068440845488"><ele>126.0</ele><time>2026-04-04T10:17:18.998Z</time></trkpt><trkpt lat="43.62900515949907" lon="11.456995343004577"><ele>126.16666666666667</ele><time>2026-04-04T10:17:21.998Z</time></trkpt><trkpt lat="43.62897172274211" lon="11.456869803304315"><ele>126.33333333333334</ele><time>2026-04-04T10:17:24.998Z</time></trkpt><trkpt lat="43.62894556694249" lon="11.456771861516373"><ele>126.5</ele><time>2026-04-04T10:17:26.998Z</time></trkpt><trkpt lat="43.62891806862489" lon="11.456678275600034"><ele>126.66666666666667</ele><time>2026-04-04T10:17:28.998Z</time></trkpt><trkpt lat="43.628896460920856" lon="11.456576538794367"><ele>126.83333333333334</ele><time>2026-04-04T10:17:30.998Z</time></trkpt><trkpt lat="43.628873570393694" lon="11.456474734366857"><ele>127.0</ele><time>2026-04-04T10:17:32.998Z</time></trkpt><trkpt lat="43.62885107375896" lon="11.456374550743702"><ele>126.8</ele><time>2026-04-04T10:17:34.998Z</time></trkpt><trkpt lat="43.62882176159525" lon="11.456267006455134"><ele>126.6</ele><time>2026-04-04T10:17:36.998Z</time></trkpt><trkpt lat="43.62879434456394" lon="11.456152477986102"><ele>126.39999999999999</ele><time>2026-04-04T10:17:38.998Z</time></trkpt><trkpt lat="43.628757784929384" lon="11.456031986108925"><ele>126.19999999999999</ele><time>2026-04-04T10:17:40.998Z</time></trkpt><trkpt lat="43.62872825720854" lon="11.455908040952822"><ele>126.0</ele><time>2026-04-04T10:17:42.998Z</time></trkpt><trkpt lat="43.62869332951511" lon="11.45577754207069"><ele>126.0</ele><time>2026-04-04T10:17:44.998Z</time></trkpt><trkpt lat="43.62865768762905" lon="11.455643122948628"><ele>126.0</ele><time>2026-04-04T10:17:46.998Z</time></trkpt><trkpt lat="43.628622771148336" lon="11.455502466314217"><ele>126.0</ele><time>2026-04-04T10:17:48.998Z</time></trkpt><trkpt lat="43.62858839268019" lon="11.455360390754347"><ele>126.0</ele><time>2026-04-04T10:17:50.999Z</time></trkpt><trkpt lat="43.62855292515525" lon="11.455220935015571"><ele>126.0</ele><time>2026-04-04T10:17:52.999Z</time></trkpt><trkpt lat="43.62852259793899" lon="11.455071737392096"><ele>126.8</ele><time>2026-04-04T10:17:54.999Z</time></trkpt><trkpt lat="43.628492596333714" lon="11.454920938808204"><ele>127.6</ele><time>2026-04-04T10:17:56.999Z</time></trkpt><trkpt lat="43.62847239549656" lon="11.454776359041961"><ele>128.4</ele><time>2026-04-04T10:17:58.999Z</time></trkpt><trkpt lat="43.62845500800967" lon="11.454632255106164"><ele>129.2</ele><time>2026-04-04T10:18:00.999Z</time></trkpt><trkpt lat="43.62844006143256" lon="11.454488902014276"><ele>130.0</ele><time>2026-04-04T10:18:02.999Z</time></trkpt><trkpt lat="43.62842459389843" lon="11.454347467727748"><ele>130.4</ele><time>2026-04-04T10:18:04.999Z</time></trkpt><trkpt lat="43.628403475094515" lon="11.454202066110385"><ele>130.8</ele><time>2026-04-04T10:18:06.999Z</time></trkpt><trkpt lat="43.628388079562896" lon="11.454057463141407"><ele>131.2</ele><time>2026-04-04T10:18:08.999Z</time></trkpt><trkpt lat="43.62837610657526" lon="11.453912436427673"><ele>131.6</ele><time>2026-04-04T10:18:10.999Z</time></trkpt><trkpt lat="43.62835010944097" lon="11.453771497252577"><ele>132.0</ele><time>2026-04-04T10:18:12.999Z</time></trkpt><trkpt lat="43.6283197121096" lon="11.453637520864099"><ele>132.2</ele><time>2026-04-04T10:18:14.999Z</time></trkpt><trkpt lat="43.628284348968684" lon="11.453503386143352"><ele>132.39999999999998</ele><time>2026-04-04T10:18:16.999Z</time></trkpt><trkpt lat="43.628245292530856" lon="11.45337077935054"><ele>132.60000000000002</ele><time>2026-04-04T10:18:18.999Z</time></trkpt><trkpt lat="43.62821283015179" lon="11.453237293581353"><ele>132.8</ele><time>2026-04-04T10:18:20.999Z</time></trkpt><trkpt lat="43.62819970091834" lon="11.453103188329244"><ele>133.0</ele><time>2026-04-04T10:18:22.999Z</time></trkpt><trkpt lat="43.628211271249285" lon="11.452988878795304"><ele>133.0</ele><time>2026-04-04T10:18:24.999Z</time></trkpt><trkpt lat="43.62824367752706" lon="11.452880892901455"><ele>133.0</ele><time>2026-04-04T10:18:26.999Z</time></trkpt><trkpt lat="43.62827992880712" lon="11.45279346312321"><ele>133.0</ele><time>2026-04-04T10:18:28.999Z</time></trkpt><trkpt lat="43.628327541379726" lon="11.452717275756438"><ele>133.0</ele><time>2026-04-04T10:18:30.999Z</time></trkpt><trkpt lat="43.62837199490527" lon="11.452652324575011"><ele>133.0</ele><time>2026-04-04T10:18:32.999Z</time></trkpt><trkpt lat="43.628431495916644" lon="11.452558170362979"><ele>133.0</ele><time>2026-04-04T10:18:35.999Z</time></trkpt><trkpt lat="43.62848780126279" lon="11.452462766446676"><ele>133.0</ele><time>2026-04-04T10:18:38.999Z</time></trkpt><trkpt lat="43.628529220395784" lon="11.452361900094514"><ele>133.0</ele><time>2026-04-04T10:18:41.999Z</time></trkpt><trkpt lat="43.62856764586859" lon="11.452257558280182"><ele>133.0</ele><time>2026-04-04T10:18:44.999Z</time></trkpt><trkpt lat="43.62858898539154" lon="11.452162909124912"><ele>133.0</ele><time>2026-04-04T10:18:47.999Z</time></trkpt><trkpt lat="43.628609295236366" lon="11.452064032431958"><ele>133.0</ele><time>2026-04-04T10:18:50.999Z</time></trkpt><trkpt lat="43.6286193547605" lon="11.451969039887615"><ele>133.0</ele><time>2026-04-04T10:18:53.999Z</time></trkpt><trkpt lat="43.62862592022935" lon="11.45184744456948"><ele>133.0</ele><time>2026-04-04T10:18:56.999Z</time></trkpt><trkpt lat="43.628627144514844" lon="11.451733198307041"><ele>133.0</ele><time>2026-04-04T10:18:59.999Z</time></trkpt><trkpt lat="43.628631000139556" lon="11.451621877637384"><ele>133.0</ele><time>2026-04-04T10:19:02.999Z</time></trkpt><trkpt lat="43.628635134164895" lon="11.451513177585229"><ele>133.0</ele><time>2026-04-04T10:19:05.999Z</time></trkpt><trkpt lat="43.62863954534098" lon="11.451409716784418"><ele>133.0</ele><time>2026-04-04T10:19:08.999Z</time></trkpt><trkpt lat="43.62865298204241" lon="11.4513100018625"><ele>133.0</ele><time>2026-04-04T10:19:11.999Z</time></trkpt><trkpt lat="43.62865945601289" lon="11.45120570523297"><ele>136.0</ele><time>2026-04-04T10:19:14.999Z</time></trkpt><trkpt lat="43.62867454630542" lon="11.451105275591424"><ele>139.0</ele><time>2026-04-04T10:19:17.999Z</time></trkpt><trkpt lat="43.62869594666617" lon="11.451008645377119"><ele>142.0</ele><time>2026-04-04T10:19:20.999Z</time></trkpt><trkpt lat="43.628725419342345" lon="11.450916132339316"><ele>145.0</ele><time>2026-04-04T10:19:23.999Z</time></trkpt><trkpt lat="43.628762773119995" lon="11.450818016257594"><ele>148.0</ele><time>2026-04-04T10:19:26.999Z</time></trkpt><trkpt lat="43.62879788801998" lon="11.450723082974736"><ele>151.0</ele><time>2026-04-04T10:19:29.999Z</time></trkpt><trkpt lat="43.62883817686962" lon="11.450637933025149"><ele>151.0</ele><time>2026-04-04T10:19:32.999Z</time></trkpt><trkpt lat="43.62887846475964" lon="11.45054188578417"><ele>151.0</ele><time>2026-04-04T10:19:35.999Z</time></trkpt><trkpt lat="43.62892022005362" lon="11.450453674676645"><ele>151.0</ele><time>2026-04-04T10:19:38.999Z</time></trkpt><trkpt lat="43.628962350576145" lon="11.450366198178825"><ele>151.0</ele><time>2026-04-04T10:19:41.998Z</time></trkpt><trkpt lat="43.62900474609698" lon="11.450277822099125"><ele>151.0</ele><time>2026-04-04T10:19:44.998Z</time></trkpt><trkpt lat="43.62904538114502" lon="11.450192804908502"><ele>151.0</ele><time>2026-04-04T10:19:47.998Z</time></trkpt><trkpt lat="43.62908194244199" lon="11.450109571114583"><ele>150.14285714285717</ele><time>2026-04-04T10:19:50.998Z</time></trkpt><trkpt lat="43.62911805096341" lon="11.45002965757251"><ele>149.28571428571428</ele><time>2026-04-04T10:19:53.998Z</time></trkpt><trkpt lat="43.62915200193922" lon="11.449947091950348"><ele>148.42857142857144</ele><time>2026-04-04T10:19:56.999Z</time></trkpt><trkpt lat="43.629197017302786" lon="11.449850494943595"><ele>147.57142857142858</ele><time>2026-04-04T10:20:00.999Z</time></trkpt><trkpt lat="43.62923097367031" lon="11.449774450692889"><ele>146.71428571428572</ele><time>2026-04-04T10:20:03.999Z</time></trkpt><trkpt lat="43.62927107209549" lon="11.449701837594068"><ele>145.85714285714286</ele><time>2026-04-04T10:20:07Z</time></trkpt><trkpt lat="43.62930484384748" lon="11.44962442665464"><ele>145.0</ele><time>2026-04-04T10:20:10Z</time></trkpt><trkpt lat="43.62935986278285" lon="11.449531302625438"><ele>144.42857142857144</ele><time>2026-04-04T10:20:14Z</time></trkpt><trkpt lat="43.62941223049304" lon="11.449479205922842"><ele>143.85714285714286</ele><time>2026-04-04T10:20:17Z</time></trkpt><trkpt lat="43.62947696464478" lon="11.44940723066665"><ele>143.28571428571428</ele><time>2026-04-04T10:20:21Z</time></trkpt><trkpt lat="43.62953296415307" lon="11.449367116559193"><ele>142.71428571428572</ele><time>2026-04-04T10:20:24Z</time></trkpt><trkpt lat="43.629591096895105" lon="11.4493224845244"><ele>142.14285714285714</ele><time>2026-04-04T10:20:27Z</time></trkpt><trkpt lat="43.6296496907171" lon="11.449280025815492"><ele>141.57142857142858</ele><time>2026-04-04T10:20:30Z</time></trkpt><trkpt lat="43.62970780786752" lon="11.449235656562456"><ele>141.0</ele><time>2026-04-04T10:20:33Z</time></trkpt><trkpt lat="43.62978166333287" lon="11.449190709041645"><ele>143.0</ele><time>2026-04-04T10:20:37Z</time></trkpt><trkpt lat="43.62985526163739" lon="11.449138810499507"><ele>145.0</ele><time>2026-04-04T10:20:41Z</time></trkpt><trkpt lat="43.6299106641642" lon="11.44908836858075"><ele>147.0</ele><time>2026-04-04T10:20:43.999Z</time></trkpt><trkpt lat="43.62996000233937" lon="11.449031474305185"><ele>149.0</ele><time>2026-04-04T10:20:46.999Z</time></trkpt><trkpt lat="43.63000863067712" lon="11.448971929528012"><ele>151.0</ele><time>2026-04-04T10:20:49.999Z</time></trkpt><trkpt lat="43.63005246406138" lon="11.448876127441041"><ele>153.0</ele><time>2026-04-04T10:20:53.999Z</time></trkpt><trkpt lat="43.63007612223499" lon="11.448795223898335"><ele>155.0</ele><time>2026-04-04T10:20:56.999Z</time></trkpt><trkpt lat="43.63008468259863" lon="11.448706491217889"><ele>155.0</ele><time>2026-04-04T10:20:59.999Z</time></trkpt><trkpt lat="43.630072543681266" lon="11.448607205226041"><ele>155.0</ele><time>2026-04-04T10:21:02.999Z</time></trkpt><trkpt lat="43.63005676888646" lon="11.448521177569322"><ele>155.0</ele><time>2026-04-04T10:21:05.999Z</time></trkpt><trkpt lat="43.63004320774995" lon="11.448421844604352"><ele>155.0</ele><time>2026-04-04T10:21:08.999Z</time></trkpt><trkpt lat="43.63002616649383" lon="11.448324401510673"><ele>155.0</ele><time>2026-04-04T10:21:11.999Z</time></trkpt><trkpt lat="43.63002856965671" lon="11.448235801046195"><ele>155.0</ele><time>2026-04-04T10:21:14.999Z</time></trkpt><trkpt lat="43.63002968345811" lon="11.448145874676305"><ele>155.0</ele><time>2026-04-04T10:21:17.999Z</time></trkpt><trkpt lat="43.63007160075099" lon="11.448046643788183"><ele>155.0</ele><time>2026-04-04T10:21:21.999Z</time></trkpt><trkpt lat="43.63010819619595" lon="11.447971267657833"><ele>155.0</ele><time>2026-04-04T10:21:24.999Z</time></trkpt><trkpt lat="43.63016286913699" lon="11.447886510895517"><ele>155.0</ele><time>2026-04-04T10:21:28.999Z</time></trkpt><trkpt lat="43.63022986118216" lon="11.447819266490935"><ele>155.0</ele><time>2026-04-04T10:21:32.999Z</time></trkpt><trkpt lat="43.630297950938605" lon="11.447757289434232"><ele>155.0</ele><time>2026-04-04T10:21:36.999Z</time></trkpt><trkpt lat="43.63035258082308" lon="11.447710135323181"><ele>155.0</ele><time>2026-04-04T10:21:39.999Z</time></trkpt><trkpt lat="43.63040658895689" lon="11.447662677693387"><ele>155.0</ele><time>2026-04-04T10:21:42.999Z</time></trkpt><trkpt lat="43.630470603229035" lon="11.44759663308079"><ele>157.83333333333331</ele><time>2026-04-04T10:21:46.999Z</time></trkpt><trkpt lat="43.63051824846329" lon="11.447538906401"><ele>160.66666666666666</ele><time>2026-04-04T10:21:49.999Z</time></trkpt><trkpt lat="43.630570510750275" lon="11.447452174310063"><ele>163.5</ele><time>2026-04-04T10:21:53.999Z</time></trkpt><trkpt lat="43.630614635728584" lon="11.447358635793169"><ele>166.33333333333334</ele><time>2026-04-04T10:21:57.999Z</time></trkpt><trkpt lat="43.63065138106935" lon="11.447259418696394"><ele>169.16666666666669</ele><time>2026-04-04T10:22:01.999Z</time></trkpt><trkpt lat="43.63068075503404" lon="11.447155275410582"><ele>172.0</ele><time>2026-04-04T10:22:06.001Z</time></trkpt><trkpt lat="43.63069236160298" lon="11.447050280444488"><ele>172.42857142857144</ele><time>2026-04-04T10:22:10.001Z</time></trkpt><trkpt lat="43.63069351485047" lon="11.446944901925947"><ele>172.85714285714286</ele><time>2026-04-04T10:22:14Z</time></trkpt><trkpt lat="43.63067680163608" lon="11.446842609886788"><ele>173.28571428571428</ele><time>2026-04-04T10:22:18Z</time></trkpt><trkpt lat="43.63063802140619" lon="11.446740552698495"><ele>173.71428571428572</ele><time>2026-04-04T10:22:22Z</time></trkpt><trkpt lat="43.63060421498578" lon="11.446666215468875"><ele>174.14285714285714</ele><time>2026-04-04T10:22:25Z</time></trkpt><trkpt lat="43.63056420722328" lon="11.446595934884991"><ele>174.57142857142858</ele><time>2026-04-04T10:22:28Z</time></trkpt><trkpt lat="43.6305246298649" lon="11.446528198326295"><ele>175.0</ele><time>2026-04-04T10:22:31Z</time></trkpt><trkpt lat="43.63048340934354" lon="11.446431792855423"><ele>175.0</ele><time>2026-04-04T10:22:35Z</time></trkpt><trkpt lat="43.63046494740588" lon="11.4463247309359"><ele>175.0</ele><time>2026-04-04T10:22:39Z</time></trkpt><trkpt lat="43.630468494415936" lon="11.446224001974738"><ele>175.0</ele><time>2026-04-04T10:22:43Z</time></trkpt><trkpt lat="43.63047971000712" lon="11.446118051044229"><ele>175.0</ele><time>2026-04-04T10:22:47Z</time></trkpt><trkpt lat="43.63049120389075" lon="11.446011070611853"><ele>175.0</ele><time>2026-04-04T10:22:51Z</time></trkpt><trkpt lat="43.63052458912813" lon="11.445928415424815"><ele>175.0</ele><time>2026-04-04T10:22:55Z</time></trkpt><trkpt lat="43.63055758463178" lon="11.445831457071513"><ele>175.5</ele><time>2026-04-04T10:22:59Z</time></trkpt><trkpt lat="43.63060681029085" lon="11.44575472729494"><ele>176.0</ele><time>2026-04-04T10:23:03Z</time></trkpt><trkpt lat="43.6306716900989" lon="11.445686512674573"><ele>176.5</ele><time>2026-04-04T10:23:07Z</time></trkpt><trkpt lat="43.63073416693629" lon="11.445630854557903"><ele>177.0</ele><time>2026-04-04T10:23:11Z</time></trkpt><trkpt lat="43.630799540227535" lon="11.44559336720259"><ele>177.5</ele><time>2026-04-04T10:23:15Z</time></trkpt><trkpt lat="43.630875740793996" lon="11.445567943241572"><ele>178.0</ele><time>2026-04-04T10:23:19Z</time></trkpt><trkpt lat="43.63094589177175" lon="11.445554268092392"><ele>177.99999999999997</ele><time>2026-04-04T10:23:23Z</time></trkpt><trkpt lat="43.631011113761026" lon="11.445549703396567"><ele>178.0</ele><time>2026-04-04T10:23:26.999Z</time></trkpt><trkpt lat="43.63108228100155" lon="11.445553527967423"><ele>178.0</ele><time>2026-04-04T10:23:30.999Z</time></trkpt><trkpt lat="43.63115289048515" lon="11.445564123878182"><ele>178.0</ele><time>2026-04-04T10:23:34.999Z</time></trkpt><trkpt lat="43.63122323952251" lon="11.44558084300128"><ele>178.0</ele><time>2026-04-04T10:23:38.999Z</time></trkpt><trkpt lat="43.6312932197869" lon="11.445597906920819"><ele>177.99999999999997</ele><time>2026-04-04T10:23:42.999Z</time></trkpt><trkpt lat="43.63136498401353" lon="11.445616296861239"><ele>178.0</ele><time>2026-04-04T10:23:46.999Z</time></trkpt><trkpt lat="43.631434883232366" lon="11.445639545144157"><ele>180.42857142857142</ele><time>2026-04-04T10:23:50.999Z</time></trkpt><trkpt lat="43.63150510758717" lon="11.445658182387904"><ele>182.85714285714286</ele><time>2026-04-04T10:23:54.999Z</time></trkpt><trkpt lat="43.63157182741479" lon="11.44566944712991"><ele>185.28571428571428</ele><time>2026-04-04T10:23:58.999Z</time></trkpt><trkpt lat="43.63163930366052" lon="11.445685220764592"><ele>187.71428571428572</ele><time>2026-04-04T10:24:02.999Z</time></trkpt><trkpt lat="43.63171279230821" lon="11.445683412846275"><ele>190.14285714285714</ele><time>2026-04-04T10:24:06.999Z</time></trkpt><trkpt lat="43.63178436482958" lon="11.445678996184892"><ele>192.57142857142856</ele><time>2026-04-04T10:24:11.001Z</time></trkpt><trkpt lat="43.63185609305817" lon="11.445661227219192"><ele>195.0</ele><time>2026-04-04T10:24:15.001Z</time></trkpt><trkpt lat="43.63192770142125" lon="11.445630496885332"><ele>195.0</ele><time>2026-04-04T10:24:19.001Z</time></trkpt><trkpt lat="43.631998174663664" lon="11.445609070905927"><ele>195.0</ele><time>2026-04-04T10:24:23.001Z</time></trkpt><trkpt lat="43.632073105531056" lon="11.445587925154951"><ele>195.0</ele><time>2026-04-04T10:24:27.001Z</time></trkpt><trkpt lat="43.632138648172784" lon="11.445580699932803"><ele>195.0</ele><time>2026-04-04T10:24:31Z</time></trkpt><trkpt lat="43.63220265227913" lon="11.445548297059103"><ele>195.0</ele><time>2026-04-04T10:26:09.999Z</time></trkpt><trkpt lat="43.63226256625499" lon="11.445507098544645"><ele>195.0</ele><time>2026-04-04T10:26:13.999Z</time></trkpt><trkpt lat="43.63233555620692" lon="11.445477581002429"><ele>195.0</ele><time>2026-04-04T10:26:18.001Z</time></trkpt><trkpt lat="43.6324095422249" lon="11.445438132058468"><ele>195.0</ele><time>2026-04-04T10:26:22.001Z</time></trkpt><trkpt lat="43.63248342266675" lon="11.445389117423705"><ele>195.0</ele><time>2026-04-04T10:26:26.001Z</time></trkpt><trkpt lat="43.63255549759879" lon="11.445336409055196"><ele>195.0</ele><time>2026-04-04T10:26:30.001Z</time></trkpt><trkpt lat="43.63261972741833" lon="11.44527541508064"><ele>195.0</ele><time>2026-04-04T10:26:34Z</time></trkpt><trkpt lat="43.6326715828507" lon="11.445194375653214"><ele>195.0</ele><time>2026-04-04T10:26:38Z</time></trkpt><trkpt lat="43.63271447533965" lon="11.445102573026109"><ele>195.0</ele><time>2026-04-04T10:26:42Z</time></trkpt><trkpt lat="43.632748579886844" lon="11.44499811964122"><ele>195.0</ele><time>2026-04-04T10:26:46Z</time></trkpt><trkpt lat="43.63277471674979" lon="11.44491760794801"><ele>195.0</ele><time>2026-04-04T10:26:49Z</time></trkpt><trkpt lat="43.632802304530365" lon="11.444810964466708"><ele>195.0</ele><time>2026-04-04T10:26:53Z</time></trkpt><trkpt lat="43.63281711162468" lon="11.444709656399432"><ele>195.0</ele><time>2026-04-04T10:26:57Z</time></trkpt><trkpt lat="43.63287128725484" lon="11.444625395377775"><ele>195.0</ele><time>2026-04-04T10:27:01Z</time></trkpt><trkpt lat="43.63293127966134" lon="11.444536592427113"><ele>195.0</ele><time>2026-04-04T10:27:05Z</time></trkpt><trkpt lat="43.63299131033597" lon="11.444466303241857"><ele>197.16666666666666</ele><time>2026-04-04T10:27:09Z</time></trkpt><trkpt lat="43.633053721166426" lon="11.444398516979696"><ele>199.33333333333331</ele><time>2026-04-04T10:27:13Z</time></trkpt><trkpt lat="43.63310942387853" lon="11.44431987777024"><ele>201.5</ele><time>2026-04-04T10:27:17Z</time></trkpt><trkpt lat="43.63315454684289" lon="11.44423090850099"><ele>203.66666666666666</ele><time>2026-04-04T10:27:20.999Z</time></trkpt><trkpt lat="43.63319476007615" lon="11.44413594245227"><ele>205.83333333333331</ele><time>2026-04-04T10:27:24.999Z</time></trkpt><trkpt lat="43.63322760436726" lon="11.444034284662099"><ele>208.0</ele><time>2026-04-04T10:27:28.999Z</time></trkpt><trkpt lat="43.63326739328296" lon="11.443939101756587"><ele>207.99999999999997</ele><time>2026-04-04T10:27:32.999Z</time></trkpt><trkpt lat="43.63330954189989" lon="11.443846313456882"><ele>208.0</ele><time>2026-04-04T10:27:36.999Z</time></trkpt><trkpt lat="43.633366360198984" lon="11.443782371178282"><ele>208.0</ele><time>2026-04-04T10:27:40.999Z</time></trkpt><trkpt lat="43.63342176088777" lon="11.443716222188627"><ele>208.0</ele><time>2026-04-04T10:27:44.999Z</time></trkpt><trkpt lat="43.63349652587586" lon="11.443688012317661"><ele>207.99999999999997</ele><time>2026-04-04T10:27:48.999Z</time></trkpt><trkpt lat="43.633570341133236" lon="11.443678348174197"><ele>208.0</ele><time>2026-04-04T10:27:52.999Z</time></trkpt><trkpt lat="43.633642400665245" lon="11.44368995405256"><ele>209.66666666666666</ele><time>2026-04-04T10:27:57.999Z</time></trkpt><trkpt lat="43.63370585797607" lon="11.443703526453554"><ele>211.33333333333331</ele><time>2026-04-04T10:28:01.999Z</time></trkpt><trkpt lat="43.63377195212892" lon="11.443740689034207"><ele>213.0</ele><time>2026-04-04T10:28:04.999Z</time></trkpt><trkpt lat="43.63383638678019" lon="11.443801516772075"><ele>214.66666666666669</ele><time>2026-04-04T10:28:08.999Z</time></trkpt><trkpt lat="43.633910198128454" lon="11.443861488501396"><ele>216.33333333333334</ele><time>2026-04-04T10:28:12.999Z</time></trkpt><trkpt lat="43.63397912354484" lon="11.443923598968368"><ele>218.0</ele><time>2026-04-04T10:28:16.999Z</time></trkpt><trkpt lat="43.634041968928685" lon="11.443975317331049"><ele>218.0</ele><time>2026-04-04T10:28:21Z</time></trkpt><trkpt lat="43.6340999322921" lon="11.444014730569167"><ele>218.0</ele><time>2026-04-04T10:28:24Z</time></trkpt><trkpt lat="43.634162765401896" lon="11.444061240339243"><ele>218.0</ele><time>2026-04-04T10:28:28Z</time></trkpt><trkpt lat="43.63423234609079" lon="11.444088550282174"><ele>218.0</ele><time>2026-04-04T10:28:32Z</time></trkpt><trkpt lat="43.63430314164549" lon="11.444116708948876"><ele>218.0</ele><time>2026-04-04T10:28:36Z</time></trkpt><trkpt lat="43.63437499696839" lon="11.444146246988998"><ele>218.0</ele><time>2026-04-04T10:28:40Z</time></trkpt><trkpt lat="43.634455176782694" lon="11.444145205250118"><ele>218.0</ele><time>2026-04-04T10:28:44Z</time></trkpt><trkpt lat="43.634531578149826" lon="11.444144148867327"><ele>219.00000000000003</ele><time>2026-04-04T10:28:48Z</time></trkpt><trkpt lat="43.63460007286362" lon="11.444113438847149"><ele>220.0</ele><time>2026-04-04T10:28:52Z</time></trkpt><trkpt lat="43.63467479992169" lon="11.444095205321906"><ele>221.0</ele><time>2026-04-04T10:28:56Z</time></trkpt><trkpt lat="43.63474537224465" lon="11.444060603216409"><ele>222.0</ele><time>2026-04-04T10:29:00Z</time></trkpt><trkpt lat="43.634812729738236" lon="11.444014846836716"><ele>223.00000000000003</ele><time>2026-04-04T10:29:04Z</time></trkpt><trkpt lat="43.634877880558335" lon="11.443965490993563"><ele>224.0</ele><time>2026-04-04T10:29:08Z</time></trkpt><trkpt lat="43.63494291042334" lon="11.443907161649978"><ele>224.0</ele><time>2026-04-04T10:29:12Z</time></trkpt><trkpt lat="43.63500289340688" lon="11.443844288361536"><ele>224.0</ele><time>2026-04-04T10:29:15.999Z</time></trkpt><trkpt lat="43.63505496322711" lon="11.443770860272053"><ele>224.0</ele><time>2026-04-04T10:29:19.999Z</time></trkpt><trkpt lat="43.635109445910366" lon="11.443694809760887"><ele>224.0</ele><time>2026-04-04T10:29:23.999Z</time></trkpt><trkpt lat="43.63516573157872" lon="11.443622465051192"><ele>224.0</ele><time>2026-04-04T10:29:27.999Z</time></trkpt><trkpt lat="43.6352060949579" lon="11.443554275124445"><ele>224.0</ele><time>2026-04-04T10:29:30.999Z</time></trkpt><trkpt lat="43.63526053058844" lon="11.443471648983905"><ele>224.0</ele><time>2026-04-04T10:29:34.999Z</time></trkpt><trkpt lat="43.635316073574536" lon="11.443382716983331"><ele>224.50000000000003</ele><time>2026-04-04T10:29:38.999Z</time></trkpt><trkpt lat="43.635375563319435" lon="11.443304473425998"><ele>225.0</ele><time>2026-04-04T10:29:42.999Z</time></trkpt><trkpt lat="43.63543021608435" lon="11.443221797410107"><ele>225.5</ele><time>2026-04-04T10:29:46.999Z</time></trkpt><trkpt lat="43.635486325376746" lon="11.443137397789933"><ele>226.0</ele><time>2026-04-04T10:29:50.999Z</time></trkpt><trkpt lat="43.635543982684105" lon="11.443053643125841"><ele>226.50000000000003</ele><time>2026-04-04T10:29:54.999Z</time></trkpt><trkpt lat="43.63558747169327" lon="11.442989949824415"><ele>227.0</ele><time>2026-04-04T10:29:57.999Z</time></trkpt><trkpt lat="43.63563068060426" lon="11.442924591857075"><ele>228.50000000000003</ele><time>2026-04-04T10:30:00.999Z</time></trkpt><trkpt lat="43.63568565795187" lon="11.442838090953021"><ele>230.0</ele><time>2026-04-04T10:30:04.999Z</time></trkpt><trkpt lat="43.63573931294024" lon="11.442756035781047"><ele>231.5</ele><time>2026-04-04T10:30:08.999Z</time></trkpt><trkpt lat="43.635785903351945" lon="11.442665623363178"><ele>233.0</ele><time>2026-04-04T10:30:12.999Z</time></trkpt><trkpt lat="43.635824659977125" lon="11.442595023713372"><ele>234.50000000000003</ele><time>2026-04-04T10:30:15.998Z</time></trkpt><trkpt lat="43.63585774707976" lon="11.442519270200314"><ele>236.0</ele><time>2026-04-04T10:30:18.998Z</time></trkpt><trkpt lat="43.6358990104959" lon="11.4424236655654"><ele>236.0</ele><time>2026-04-04T10:30:22.998Z</time></trkpt><trkpt lat="43.63592824253173" lon="11.442315684920578"><ele>236.0</ele><time>2026-04-04T10:30:27Z</time></trkpt><trkpt lat="43.63592958715369" lon="11.442224909151609"><ele>236.0</ele><time>2026-04-04T10:30:30Z</time></trkpt><trkpt lat="43.63593207283389" lon="11.44213672806873"><ele>236.0</ele><time>2026-04-04T10:30:33Z</time></trkpt><trkpt lat="43.63593307488071" lon="11.442043754810989"><ele>236.0</ele><time>2026-04-04T10:30:36Z</time></trkpt><trkpt lat="43.63593835573178" lon="11.441941497883075"><ele>236.0</ele><time>2026-04-04T10:30:39Z</time></trkpt><trkpt lat="43.635932791004436" lon="11.441847853222082"><ele>236.0</ele><time>2026-04-04T10:30:42Z</time></trkpt><trkpt lat="43.635930081655665" lon="11.441755115770322"><ele>237.0</ele><time>2026-04-04T10:30:45Z</time></trkpt><trkpt lat="43.635930848631595" lon="11.441664474612805"><ele>238.0</ele><time>2026-04-04T10:30:48Z</time></trkpt><trkpt lat="43.635932387613444" lon="11.441572390456738"><ele>239.0</ele><time>2026-04-04T10:30:51Z</time></trkpt><trkpt lat="43.63593596184489" lon="11.441481822919323"><ele>240.0</ele><time>2026-04-04T10:30:54Z</time></trkpt><trkpt lat="43.63593779474593" lon="11.441375135115619"><ele>241.0</ele><time>2026-04-04T10:30:58Z</time></trkpt><trkpt lat="43.63594105031987" lon="11.441265412974825"><ele>242.0</ele><time>2026-04-04T10:31:02Z</time></trkpt><trkpt lat="43.63595142876474" lon="11.441160090721818"><ele>243.0</ele><time>2026-04-04T10:31:06Z</time></trkpt><trkpt lat="43.63596306897995" lon="11.441058523241178"><ele>244.0</ele><time>2026-04-04T10:31:10Z</time></trkpt><trkpt lat="43.635969584440105" lon="11.440953414332155"><ele>245.0</ele><time>2026-04-04T10:31:14Z</time></trkpt><trkpt lat="43.635980173776424" lon="11.440845405268226"><ele>246.0</ele><time>2026-04-04T10:31:17.999Z</time></trkpt><trkpt lat="43.63598364851344" lon="11.440746890042366"><ele>247.0</ele><time>2026-04-04T10:31:21.999Z</time></trkpt><trkpt lat="43.635993330996456" lon="11.44063873447623"><ele>248.0</ele><time>2026-04-04T10:31:25.999Z</time></trkpt><trkpt lat="43.6359973510294" lon="11.440532901306494"><ele>249.0</ele><time>2026-04-04T10:31:29.999Z</time></trkpt><trkpt lat="43.636005818466366" lon="11.440430997166589"><ele>249.0</ele><time>2026-04-04T10:31:33.999Z</time></trkpt><trkpt lat="43.636010971631165" lon="11.440329870551718"><ele>249.0</ele><time>2026-04-04T10:31:37.999Z</time></trkpt><trkpt lat="43.63603095108516" lon="11.440231113613255"><ele>249.0</ele><time>2026-04-04T10:31:41.999Z</time></trkpt><trkpt lat="43.636050358231685" lon="11.440119358381162"><ele>249.0</ele><time>2026-04-04T10:31:45.999Z</time></trkpt><trkpt lat="43.63607826575403" lon="11.440008970672135"><ele>249.0</ele><time>2026-04-04T10:31:49.999Z</time></trkpt><trkpt lat="43.636108454750406" lon="11.439923548050366"><ele>249.0</ele><time>2026-04-04T10:31:52.999Z</time></trkpt><trkpt lat="43.63614311611802" lon="11.439842132958708"><ele>248.5</ele><time>2026-04-04T10:31:55.999Z</time></trkpt><trkpt lat="43.63619401289857" lon="11.43975366821315"><ele>248.0</ele><time>2026-04-04T10:31:59.999Z</time></trkpt><trkpt lat="43.636235102498205" lon="11.43968668664071"><ele>247.5</ele><time>2026-04-04T10:32:02.999Z</time></trkpt><trkpt lat="43.6362872797744" lon="11.439598234082826"><ele>247.0</ele><time>2026-04-04T10:32:06.999Z</time></trkpt><trkpt lat="43.63634866472982" lon="11.439531407253751"><ele>246.5</ele><time>2026-04-04T10:32:10.999Z</time></trkpt><trkpt lat="43.6364110427905" lon="11.439465849718047"><ele>246.0</ele><time>2026-04-04T10:32:14.998Z</time></trkpt><trkpt lat="43.63647550283683" lon="11.439400041720523"><ele>247.66666666666666</ele><time>2026-04-04T10:32:18.998Z</time></trkpt><trkpt lat="43.63653945014978" lon="11.439337098778761"><ele>249.33333333333331</ele><time>2026-04-04T10:32:22.998Z</time></trkpt><trkpt lat="43.63660255119744" lon="11.439271229665652"><ele>251.0</ele><time>2026-04-04T10:32:26.998Z</time></trkpt><trkpt lat="43.6366621064192" lon="11.439199208760623"><ele>252.66666666666666</ele><time>2026-04-04T10:32:30.998Z</time></trkpt><trkpt lat="43.63672345226618" lon="11.439124437376726"><ele>254.33333333333331</ele><time>2026-04-04T10:32:35Z</time></trkpt><trkpt lat="43.63677950081714" lon="11.439039012030467"><ele>256.0</ele><time>2026-04-04T10:32:39Z</time></trkpt><trkpt lat="43.636815290748075" lon="11.438966263452848"><ele>256.0</ele><time>2026-04-04T10:32:42Z</time></trkpt><trkpt lat="43.63685578302594" lon="11.438892834682147"><ele>255.99999999999997</ele><time>2026-04-04T10:32:45Z</time></trkpt><trkpt lat="43.63689136714653" lon="11.438818308779707"><ele>256.0</ele><time>2026-04-04T10:32:48Z</time></trkpt><trkpt lat="43.636927826817896" lon="11.438737086390418"><ele>256.0</ele><time>2026-04-04T10:32:51Z</time></trkpt><trkpt lat="43.63695626806767" lon="11.438653810400746"><ele>255.99999999999997</ele><time>2026-04-04T10:32:54Z</time></trkpt><trkpt lat="43.63698692334529" lon="11.438567776054247"><ele>256.0</ele><time>2026-04-04T10:32:57Z</time></trkpt><trkpt lat="43.63702241617805" lon="11.43848273564027"><ele>256.0</ele><time>2026-04-04T10:33:00Z</time></trkpt><trkpt lat="43.637056280281705" lon="11.438387867349569"><ele>255.83333333333331</ele><time>2026-04-04T10:33:03Z</time></trkpt><trkpt lat="43.637093701750715" lon="11.438289804168452"><ele>255.66666666666666</ele><time>2026-04-04T10:33:06Z</time></trkpt><trkpt lat="43.6371359797374" lon="11.438183152936343"><ele>255.5</ele><time>2026-04-04T10:33:09Z</time></trkpt><trkpt lat="43.63717975612185" lon="11.438072216204347"><ele>255.33333333333331</ele><time>2026-04-04T10:33:12Z</time></trkpt><trkpt lat="43.63720899730725" lon="11.437994404559953"><ele>255.16666666666666</ele><time>2026-04-04T10:33:13.999Z</time></trkpt><trkpt lat="43.637241691237655" lon="11.437911481172815"><ele>255.0</ele><time>2026-04-04T10:33:15.999Z</time></trkpt><trkpt lat="43.6372756875246" lon="11.437818524549433"><ele>256.0</ele><time>2026-04-04T10:33:17.999Z</time></trkpt><trkpt lat="43.63731178074463" lon="11.437724614769492"><ele>257.0</ele><time>2026-04-04T10:33:19.999Z</time></trkpt><trkpt lat="43.63734610870053" lon="11.43762711992646"><ele>258.0</ele><time>2026-04-04T10:33:21.999Z</time></trkpt><trkpt lat="43.63738609016475" lon="11.437531647405581"><ele>259.0</ele><time>2026-04-04T10:33:23.999Z</time></trkpt><trkpt lat="43.63741804239644" lon="11.437428355381197"><ele>260.0</ele><time>2026-04-04T10:33:25.999Z</time></trkpt><trkpt lat="43.637450387301826" lon="11.437324885342468"><ele>261.0</ele><time>2026-04-04T10:33:27.999Z</time></trkpt><trkpt lat="43.6374940971593" lon="11.437222766142954"><ele>261.3333333333333</ele><time>2026-04-04T10:33:29.999Z</time></trkpt><trkpt lat="43.63753212038428" lon="11.43711644690375"><ele>261.6666666666667</ele><time>2026-04-04T10:33:31.999Z</time></trkpt><trkpt lat="43.63757192039753" lon="11.437012007817604"><ele>262.0</ele><time>2026-04-04T10:33:33.999Z</time></trkpt><trkpt lat="43.63760993897002" lon="11.436903943569293"><ele>262.33333333333337</ele><time>2026-04-04T10:33:35.999Z</time></trkpt><trkpt lat="43.637648788865846" lon="11.436796682193853"><ele>262.6666666666667</ele><time>2026-04-04T10:33:37.999Z</time></trkpt><trkpt lat="43.63768691645823" lon="11.436689484407724"><ele>263.0</ele><time>2026-04-04T10:33:39.999Z</time></trkpt><trkpt lat="43.6377246090473" lon="11.43658019946202"><ele>263.0</ele><time>2026-04-04T10:33:41.999Z</time></trkpt><trkpt lat="43.63776341692205" lon="11.436472510924267"><ele>263.0</ele><time>2026-04-04T10:33:43.999Z</time></trkpt><trkpt lat="43.63780465653702" lon="11.436364364655189"><ele>263.0</ele><time>2026-04-04T10:33:45.999Z</time></trkpt><trkpt lat="43.63784321250758" lon="11.436257141646324"><ele>263.0</ele><time>2026-04-04T10:33:47.999Z</time></trkpt><trkpt lat="43.63788438023982" lon="11.436143291466063"><ele>263.0</ele><time>2026-04-04T10:33:49.999Z</time></trkpt><trkpt lat="43.637924139642166" lon="11.43603058072645"><ele>263.0</ele><time>2026-04-04T10:33:51.999Z</time></trkpt><trkpt lat="43.63796400234448" lon="11.43591991278309"><ele>263.2</ele><time>2026-04-04T10:33:53.999Z</time></trkpt><trkpt lat="43.63800529795625" lon="11.435807884395691"><ele>263.4</ele><time>2026-04-04T10:33:55.999Z</time></trkpt><trkpt lat="43.638045629322804" lon="11.435692550214025"><ele>263.59999999999997</ele><time>2026-04-04T10:33:57.999Z</time></trkpt><trkpt lat="43.63808597933831" lon="11.43557632657521"><ele>263.8</ele><time>2026-04-04T10:33:59.999Z</time></trkpt><trkpt lat="43.63813063294306" lon="11.435460418412621"><ele>264.0</ele><time>2026-04-04T10:34:01.999Z</time></trkpt><trkpt lat="43.6381747623425" lon="11.435342927808717"><ele>264.0</ele><time>2026-04-04T10:34:03.999Z</time></trkpt><trkpt lat="43.63821841896264" lon="11.435227876392103"><ele>264.0</ele><time>2026-04-04T10:34:05.999Z</time></trkpt><trkpt lat="43.63826094132272" lon="11.435109995705112"><ele>264.0</ele><time>2026-04-04T10:34:07.999Z</time></trkpt><trkpt lat="43.63830380508307" lon="11.4349924441189"><ele>264.0</ele><time>2026-04-04T10:34:09.998Z</time></trkpt><trkpt lat="43.63835035886128" lon="11.43487379940695"><ele>264.0</ele><time>2026-04-04T10:34:11.998Z</time></trkpt><trkpt lat="43.638393520301555" lon="11.434756544361123"><ele>264.0</ele><time>2026-04-04T10:34:13.998Z</time></trkpt><trkpt lat="43.638429611942094" lon="11.434643355748486"><ele>264.0</ele><time>2026-04-04T10:34:15.998Z</time></trkpt><trkpt lat="43.63846942355846" lon="11.434517567210767"><ele>264.0</ele><time>2026-04-04T10:34:17.998Z</time></trkpt><trkpt lat="43.638513190792516" lon="11.434404807640849"><ele>264.0</ele><time>2026-04-04T10:34:19.998Z</time></trkpt><trkpt lat="43.63855449193714" lon="11.434283997652095"><ele>264.0</ele><time>2026-04-04T10:34:21.998Z</time></trkpt><trkpt lat="43.638597542701255" lon="11.434170663191288"><ele>264.4</ele><time>2026-04-04T10:34:23.998Z</time></trkpt><trkpt lat="43.638638298929784" lon="11.434053215159258"><ele>264.79999999999995</ele><time>2026-04-04T10:34:25.998Z</time></trkpt><trkpt lat="43.63868225357065" lon="11.433930135767"><ele>265.20000000000005</ele><time>2026-04-04T10:34:27.998Z</time></trkpt><trkpt lat="43.63872932829766" lon="11.433814807231256"><ele>265.6</ele><time>2026-04-04T10:34:29.998Z</time></trkpt><trkpt lat="43.63877189836895" lon="11.433702680847281"><ele>266.0</ele><time>2026-04-04T10:34:31.998Z</time></trkpt><trkpt lat="43.63881430684959" lon="11.433583374139634"><ele>266.0</ele><time>2026-04-04T10:34:33.998Z</time></trkpt><trkpt lat="43.638855870946905" lon="11.433470155351005"><ele>266.0</ele><time>2026-04-04T10:34:35.998Z</time></trkpt><trkpt lat="43.638896586046535" lon="11.43334849671102"><ele>266.0</ele><time>2026-04-04T10:34:37.998Z</time></trkpt><trkpt lat="43.638942410285296" lon="11.433230180167833"><ele>266.0</ele><time>2026-04-04T10:34:40Z</time></trkpt><trkpt lat="43.63898468561405" lon="11.433108190857459"><ele>266.0</ele><time>2026-04-04T10:34:42Z</time></trkpt><trkpt lat="43.63902200388858" lon="11.432990307176727"><ele>265.8</ele><time>2026-04-04T10:34:44Z</time></trkpt><trkpt lat="43.63905339169472" lon="11.432857623887298"><ele>265.6</ele><time>2026-04-04T10:34:46Z</time></trkpt><trkpt lat="43.6390794883902" lon="11.43271214319801"><ele>265.4</ele><time>2026-04-04T10:34:48Z</time></trkpt><trkpt lat="43.63911023973918" lon="11.43258567165974"><ele>265.2</ele><time>2026-04-04T10:34:50Z</time></trkpt><trkpt lat="43.63913707981473" lon="11.43244598921808"><ele>265.0</ele><time>2026-04-04T10:34:52Z</time></trkpt><trkpt lat="43.63916596213336" lon="11.432312248275275"><ele>265.0</ele><time>2026-04-04T10:34:54Z</time></trkpt><trkpt lat="43.63918853758081" lon="11.432175749114236"><ele>265.0</ele><time>2026-04-04T10:34:56Z</time></trkpt><trkpt lat="43.63920828355498" lon="11.43203599753412"><ele>265.0</ele><time>2026-04-04T10:34:58Z</time></trkpt><trkpt lat="43.639225872329426" lon="11.431901908643468"><ele>265.0</ele><time>2026-04-04T10:35:00Z</time></trkpt><trkpt lat="43.6392405527258" lon="11.431774099417414"><ele>265.0</ele><time>2026-04-04T10:35:02Z</time></trkpt><trkpt lat="43.63924039709322" lon="11.43164676088131"><ele>265.0</ele><time>2026-04-04T10:35:04Z</time></trkpt><trkpt lat="43.639232934854945" lon="11.43151738007224"><ele>265.0</ele><time>2026-04-04T10:35:06Z</time></trkpt><trkpt lat="43.63922138525621" lon="11.431389972862508"><ele>265.0</ele><time>2026-04-04T10:35:08Z</time></trkpt><trkpt lat="43.639197988308496" lon="11.431263994320224"><ele>265.0</ele><time>2026-04-04T10:35:10Z</time></trkpt><trkpt lat="43.63916814749997" lon="11.431132220249143"><ele>265.0</ele><time>2026-04-04T10:35:12Z</time></trkpt><trkpt lat="43.63913694502347" lon="11.431005730385248"><ele>265.2</ele><time>2026-04-04T10:35:14Z</time></trkpt><trkpt lat="43.639103691236066" lon="11.4308801089427"><ele>265.4</ele><time>2026-04-04T10:35:15.999Z</time></trkpt><trkpt lat="43.639066930426964" lon="11.430756089783033"><ele>265.6</ele><time>2026-04-04T10:35:17.999Z</time></trkpt><trkpt lat="43.63902665340938" lon="11.430625260253281"><ele>265.8</ele><time>2026-04-04T10:35:19.999Z</time></trkpt><trkpt lat="43.638994995253874" lon="11.43049927069252"><ele>266.0</ele><time>2026-04-04T10:35:21.999Z</time></trkpt><trkpt lat="43.63896787486579" lon="11.430373182863287"><ele>266.0</ele><time>2026-04-04T10:35:23.999Z</time></trkpt><trkpt lat="43.63893157221301" lon="11.430246256012783"><ele>266.0</ele><time>2026-04-04T10:35:25.999Z</time></trkpt><trkpt lat="43.63889361328973" lon="11.430118846255894"><ele>266.0</ele><time>2026-04-04T10:35:27.999Z</time></trkpt><trkpt lat="43.63885926225855" lon="11.429992488349354"><ele>266.0</ele><time>2026-04-04T10:35:29.999Z</time></trkpt><trkpt lat="43.63882702929474" lon="11.429869588259724"><ele>266.0</ele><time>2026-04-04T10:35:31.999Z</time></trkpt><trkpt lat="43.63879478290537" lon="11.429747507145642"><ele>265.83333333333337</ele><time>2026-04-04T10:35:33.999Z</time></trkpt><trkpt lat="43.63876683333489" lon="11.42962933813753"><ele>265.6666666666667</ele><time>2026-04-04T10:35:35.999Z</time></trkpt><trkpt lat="43.63873404861899" lon="11.429510062216202"><ele>265.5</ele><time>2026-04-04T10:35:37.999Z</time></trkpt><trkpt lat="43.63869636763731" lon="11.42939164196652"><ele>265.3333333333333</ele><time>2026-04-04T10:35:39.999Z</time></trkpt><trkpt lat="43.63866965178635" lon="11.42927955728953"><ele>265.16666666666663</ele><time>2026-04-04T10:35:41.999Z</time></trkpt><trkpt lat="43.638641220194536" lon="11.429165506376957"><ele>265.0</ele><time>2026-04-04T10:35:43.999Z</time></trkpt><trkpt lat="43.63861183018247" lon="11.429056067302373"><ele>265.0</ele><time>2026-04-04T10:35:45.999Z</time></trkpt><trkpt lat="43.63858396138242" lon="11.428943826251556"><ele>265.0</ele><time>2026-04-04T10:35:47.999Z</time></trkpt><trkpt lat="43.63855622837029" lon="11.428837488414741"><ele>265.0</ele><time>2026-04-04T10:35:49.999Z</time></trkpt><trkpt lat="43.63852463293632" lon="11.42873017976022"><ele>265.0</ele><time>2026-04-04T10:35:51.999Z</time></trkpt><trkpt lat="43.63849115812569" lon="11.428622916545567"><ele>265.0</ele><time>2026-04-04T10:35:53.999Z</time></trkpt><trkpt lat="43.63845304064843" lon="11.42851718452538"><ele>265.0</ele><time>2026-04-04T10:35:55.999Z</time></trkpt><trkpt lat="43.63840924739888" lon="11.428416022027989"><ele>265.5</ele><time>2026-04-04T10:35:57.999Z</time></trkpt><trkpt lat="43.63836321681452" lon="11.428315833688442"><ele>266.0</ele><time>2026-04-04T10:35:59.999Z</time></trkpt><trkpt lat="43.63831803118466" lon="11.428227488649663"><ele>266.5</ele><time>2026-04-04T10:36:01.999Z</time></trkpt><trkpt lat="43.63828180617137" lon="11.428136467390816"><ele>267.0</ele><time>2026-04-04T10:36:03.999Z</time></trkpt><trkpt lat="43.63824654103275" lon="11.428050059180569"><ele>267.5</ele><time>2026-04-04T10:36:05.999Z</time></trkpt><trkpt lat="43.63821134809845" lon="11.427964365307512"><ele>268.0</ele><time>2026-04-04T10:36:07.999Z</time></trkpt><trkpt lat="43.63817428843354" lon="11.427882825483483"><ele>268.14285714285717</ele><time>2026-04-04T10:36:09.999Z</time></trkpt><trkpt lat="43.638136470133745" lon="11.427796971892832"><ele>268.2857142857143</ele><time>2026-04-04T10:36:11.999Z</time></trkpt><trkpt lat="43.638096936113385" lon="11.427709424443249"><ele>268.42857142857144</ele><time>2026-04-04T10:36:13.999Z</time></trkpt><trkpt lat="43.63805753704321" lon="11.427623969964825"><ele>268.57142857142856</ele><time>2026-04-04T10:36:15.998Z</time></trkpt><trkpt lat="43.638019630702516" lon="11.42753808548153"><ele>268.7142857142857</ele><time>2026-04-04T10:36:17.998Z</time></trkpt><trkpt lat="43.637980168392374" lon="11.427461669770647"><ele>268.8571428571429</ele><time>2026-04-04T10:36:19.998Z</time></trkpt><trkpt lat="43.63794624984699" lon="11.427373763873993"><ele>269.0</ele><time>2026-04-04T10:36:21.998Z</time></trkpt><trkpt lat="43.63791076653202" lon="11.427284179392096"><ele>269.0</ele><time>2026-04-04T10:36:23.998Z</time></trkpt><trkpt lat="43.63786819710446" lon="11.427193800248498"><ele>269.0</ele><time>2026-04-04T10:36:25.998Z</time></trkpt><trkpt lat="43.63783405775496" lon="11.427099833441645"><ele>269.0</ele><time>2026-04-04T10:36:27.998Z</time></trkpt><trkpt lat="43.637803048144534" lon="11.426995070245319"><ele>269.0</ele><time>2026-04-04T10:36:29.998Z</time></trkpt><trkpt lat="43.63777889449923" lon="11.426889000440335"><ele>269.0</ele><time>2026-04-04T10:36:31.998Z</time></trkpt><trkpt lat="43.63776233752809" lon="11.426779433448965"><ele>269.0</ele><time>2026-04-04T10:36:33.998Z</time></trkpt><trkpt lat="43.63776008989726" lon="11.4266555788589"><ele>269.2</ele><time>2026-04-04T10:36:35.998Z</time></trkpt><trkpt lat="43.637760925612916" lon="11.42653390506226"><ele>269.4</ele><time>2026-04-04T10:36:37.998Z</time></trkpt><trkpt lat="43.637775174094436" lon="11.426413448324302"><ele>269.6</ele><time>2026-04-04T10:36:39.998Z</time></trkpt><trkpt lat="43.637781243631174" lon="11.426293258794203"><ele>269.8</ele><time>2026-04-04T10:36:41.998Z</time></trkpt><trkpt lat="43.63778608453799" lon="11.426163934398808"><ele>270.0</ele><time>2026-04-04T10:36:43.998Z</time></trkpt><trkpt lat="43.6377845182011" lon="11.426020483569916"><ele>270.2</ele><time>2026-04-04T10:36:46Z</time></trkpt><trkpt lat="43.637785325125726" lon="11.42587973070172"><ele>270.4</ele><time>2026-04-04T10:36:48Z</time></trkpt><trkpt lat="43.63778288920248" lon="11.425724084471703"><ele>270.6</ele><time>2026-04-04T10:36:50Z</time></trkpt><trkpt lat="43.63777381908563" lon="11.425554571001705"><ele>270.8</ele><time>2026-04-04T10:36:52Z</time></trkpt><trkpt lat="43.637763933880294" lon="11.425457674287792"><ele>271.0</ele><time>2026-04-04T10:36:53Z</time></trkpt><trkpt lat="43.637747889819586" lon="11.425362929228761"><ele>271.0</ele><time>2026-04-04T10:36:54Z</time></trkpt><trkpt lat="43.63772626143717" lon="11.425266745431198"><ele>271.0</ele><time>2026-04-04T10:36:55Z</time></trkpt><trkpt lat="43.63770691160493" lon="11.425164878277473"><ele>271.0</ele><time>2026-04-04T10:36:56Z</time></trkpt><trkpt lat="43.637685226438116" lon="11.425062064054961"><ele>271.0</ele><time>2026-04-04T10:36:57Z</time></trkpt><trkpt lat="43.637658332357695" lon="11.424954052709722"><ele>271.0</ele><time>2026-04-04T10:36:58Z</time></trkpt><trkpt lat="43.63762965111204" lon="11.424845527916457"><ele>271.0</ele><time>2026-04-04T10:36:59Z</time></trkpt><trkpt lat="43.63759851383567" lon="11.424734354886498"><ele>270.16666666666663</ele><time>2026-04-04T10:37:00Z</time></trkpt><trkpt lat="43.63756895615244" lon="11.42462352166174"><ele>269.3333333333333</ele><time>2026-04-04T10:37:01Z</time></trkpt><trkpt lat="43.637540813115386" lon="11.424511436703318"><ele>268.5</ele><time>2026-04-04T10:37:02Z</time></trkpt><trkpt lat="43.63750899709629" lon="11.424396884186667"><ele>267.6666666666667</ele><time>2026-04-04T10:37:03Z</time></trkpt><trkpt lat="43.63748390101527" lon="11.424280010441395"><ele>266.83333333333337</ele><time>2026-04-04T10:37:04Z</time></trkpt><trkpt lat="43.63745766261459" lon="11.42417358635776"><ele>266.0</ele><time>2026-04-04T10:37:05Z</time></trkpt><trkpt lat="43.63745051133969" lon="11.424053065893643"><ele>266.0</ele><time>2026-04-04T10:37:06Z</time></trkpt><trkpt lat="43.637451991511554" lon="11.423935790074946"><ele>266.0</ele><time>2026-04-04T10:37:07Z</time></trkpt><trkpt lat="43.637463162009624" lon="11.423825274620691"><ele>266.0</ele><time>2026-04-04T10:37:08Z</time></trkpt><trkpt lat="43.63747105273884" lon="11.423719887649153"><ele>266.0</ele><time>2026-04-04T10:37:09Z</time></trkpt><trkpt lat="43.63749004065735" lon="11.423617399631388"><ele>266.0</ele><time>2026-04-04T10:37:10Z</time></trkpt><trkpt lat="43.6375077300229" lon="11.42351591755637"><ele>266.0</ele><time>2026-04-04T10:37:11Z</time></trkpt><trkpt lat="43.63752395056341" lon="11.423420714192979"><ele>266.5</ele><time>2026-04-04T10:37:12Z</time></trkpt><trkpt lat="43.637541472792826" lon="11.423329720578627"><ele>267.0</ele><time>2026-04-04T10:37:13Z</time></trkpt><trkpt lat="43.63756430104805" lon="11.423240216114841"><ele>267.5</ele><time>2026-04-04T10:37:14Z</time></trkpt><trkpt lat="43.63759606059206" lon="11.423157489844396"><ele>268.0</ele><time>2026-04-04T10:37:15Z</time></trkpt><trkpt lat="43.637631837009074" lon="11.423085910004794"><ele>268.5</ele><time>2026-04-04T10:37:16Z</time></trkpt><trkpt lat="43.637729814823714" lon="11.422996826583555"><ele>269.0</ele><time>2026-04-04T10:37:18Z</time></trkpt><trkpt lat="43.63782857526668" lon="11.422937881304943"><ele>270.0</ele><time>2026-04-04T10:37:20Z</time></trkpt><trkpt lat="43.63792871925689" lon="11.422896679058287"><ele>271.0</ele><time>2026-04-04T10:37:22Z</time></trkpt><trkpt lat="43.638022379763676" lon="11.42284842309471"><ele>272.0</ele><time>2026-04-04T10:37:23.999Z</time></trkpt><trkpt lat="43.63811851216859" lon="11.422805479920386"><ele>273.0</ele><time>2026-04-04T10:37:25.999Z</time></trkpt><trkpt lat="43.63821155155963" lon="11.422770930537071"><ele>274.0</ele><time>2026-04-04T10:37:27.999Z</time></trkpt><trkpt lat="43.63830753760117" lon="11.422746765209713"><ele>274.0</ele><time>2026-04-04T10:37:29.999Z</time></trkpt><trkpt lat="43.63839549258553" lon="11.42275308732612"><ele>274.0</ele><time>2026-04-04T10:37:31.999Z</time></trkpt><trkpt lat="43.63848190404439" lon="11.422771536284898"><ele>274.0</ele><time>2026-04-04T10:37:33.999Z</time></trkpt><trkpt lat="43.63855874406839" lon="11.422827213314989"><ele>274.0</ele><time>2026-04-04T10:37:35.999Z</time></trkpt><trkpt lat="43.638624254804995" lon="11.42289927337355"><ele>274.0</ele><time>2026-04-04T10:37:37.999Z</time></trkpt><trkpt lat="43.63868461953555" lon="11.422977652614922"><ele>274.0</ele><time>2026-04-04T10:37:39.999Z</time></trkpt><trkpt lat="43.63874153907412" lon="11.42305973295041"><ele>273.16666666666663</ele><time>2026-04-04T10:37:41.999Z</time></trkpt><trkpt lat="43.6387971919737" lon="11.423138329798485"><ele>272.3333333333333</ele><time>2026-04-04T10:37:43.999Z</time></trkpt><trkpt lat="43.638855714522556" lon="11.423210545626192"><ele>271.5</ele><time>2026-04-04T10:37:45.999Z</time></trkpt><trkpt lat="43.63891289209726" lon="11.423279732896718"><ele>270.6666666666667</ele><time>2026-04-04T10:37:47.999Z</time></trkpt><trkpt lat="43.63898078257355" lon="11.423336107825966"><ele>269.83333333333337</ele><time>2026-04-04T10:37:49.999Z</time></trkpt><trkpt lat="43.63905375458649" lon="11.423369835499635"><ele>269.0</ele><time>2026-04-04T10:37:51.999Z</time></trkpt><trkpt lat="43.63913372101097" lon="11.423385584421492"><ele>269.0</ele><time>2026-04-04T10:37:53.999Z</time></trkpt><trkpt lat="43.63920994064015" lon="11.423373262056204"><ele>269.0</ele><time>2026-04-04T10:37:55.999Z</time></trkpt><trkpt lat="43.63928733056276" lon="11.423331962058601"><ele>269.0</ele><time>2026-04-04T10:37:57.999Z</time></trkpt><trkpt lat="43.6393597711839" lon="11.423260463902533"><ele>269.0</ele><time>2026-04-04T10:37:59.999Z</time></trkpt><trkpt lat="43.63941885601456" lon="11.423165188910751"><ele>269.0</ele><time>2026-04-04T10:38:01.999Z</time></trkpt><trkpt lat="43.63946796830249" lon="11.423062910909879"><ele>269.0</ele><time>2026-04-04T10:38:03.999Z</time></trkpt><trkpt lat="43.6395137499216" lon="11.42294762438544"><ele>268.4</ele><time>2026-04-04T10:38:05.999Z</time></trkpt><trkpt lat="43.63954888206478" lon="11.42283583339819"><ele>267.79999999999995</ele><time>2026-04-04T10:38:07.999Z</time></trkpt><trkpt lat="43.63958187634341" lon="11.422712313700362"><ele>267.20000000000005</ele><time>2026-04-04T10:38:09.999Z</time></trkpt><trkpt lat="43.63963090265731" lon="11.422578971398748"><ele>266.6</ele><time>2026-04-04T10:38:11.999Z</time></trkpt><trkpt lat="43.63966897415126" lon="11.422448918077855"><ele>266.0</ele><time>2026-04-04T10:38:13.999Z</time></trkpt><trkpt lat="43.639714070179394" lon="11.422319165565002"><ele>266.0</ele><time>2026-04-04T10:38:15.999Z</time></trkpt><trkpt lat="43.6397541137273" lon="11.422190917283475"><ele>266.0</ele><time>2026-04-04T10:38:17.999Z</time></trkpt><trkpt lat="43.63979492823723" lon="11.42206552543403"><ele>266.0</ele><time>2026-04-04T10:38:19.999Z</time></trkpt><trkpt lat="43.639829798927" lon="11.421945324760742"><ele>266.0</ele><time>2026-04-04T10:38:21.999Z</time></trkpt><trkpt lat="43.63986416218218" lon="11.421832834413527"><ele>266.0</ele><time>2026-04-04T10:38:23.998Z</time></trkpt><trkpt lat="43.639894588197315" lon="11.421728702044431"><ele>267.0</ele><time>2026-04-04T10:38:25.998Z</time></trkpt><trkpt lat="43.639926576597134" lon="11.42163279094569"><ele>268.0</ele><time>2026-04-04T10:38:27.998Z</time></trkpt><trkpt lat="43.639951910406516" lon="11.421538858105817"><ele>269.0</ele><time>2026-04-04T10:38:29.998Z</time></trkpt><trkpt lat="43.639983975248825" lon="11.421449711955637"><ele>270.0</ele><time>2026-04-04T10:38:31.998Z</time></trkpt><trkpt lat="43.64001245625473" lon="11.421367821536585"><ele>271.0</ele><time>2026-04-04T10:38:33.998Z</time></trkpt><trkpt lat="43.6400519452107" lon="11.421262215331407"><ele>272.0</ele><time>2026-04-04T10:38:36.998Z</time></trkpt><trkpt lat="43.640086051789766" lon="11.42116587794505"><ele>271.85714285714283</ele><time>2026-04-04T10:38:39.998Z</time></trkpt><trkpt lat="43.64012043684646" lon="11.421070777259564"><ele>271.7142857142857</ele><time>2026-04-04T10:38:42.998Z</time></trkpt><trkpt lat="43.64015967653225" lon="11.420980089753387"><ele>271.57142857142856</ele><time>2026-04-04T10:38:45.998Z</time></trkpt><trkpt lat="43.64019544805743" lon="11.420894620511254"><ele>271.42857142857144</ele><time>2026-04-04T10:38:48.998Z</time></trkpt><trkpt lat="43.64023793003027" lon="11.420812499889859"><ele>271.2857142857143</ele><time>2026-04-04T10:38:52Z</time></trkpt><trkpt lat="43.64026991982542" lon="11.420735823149595"><ele>271.1428571428571</ele><time>2026-04-04T10:38:55Z</time></trkpt><trkpt lat="43.64030851241422" lon="11.420652898291856"><ele>271.0</ele><time>2026-04-04T10:38:58Z</time></trkpt><trkpt lat="43.64034252569089" lon="11.420574932100077"><ele>271.0</ele><time>2026-04-04T10:39:01Z</time></trkpt><trkpt lat="43.64038270085697" lon="11.420498427314996"><ele>271.0</ele><time>2026-04-04T10:39:04Z</time></trkpt><trkpt lat="43.64042492873757" lon="11.420420364638927"><ele>271.0</ele><time>2026-04-04T10:39:07Z</time></trkpt><trkpt lat="43.64046778886494" lon="11.420347447939474"><ele>271.0</ele><time>2026-04-04T10:39:10Z</time></trkpt><trkpt lat="43.64051083018111" lon="11.420271215039385"><ele>271.0</ele><time>2026-04-04T10:39:13Z</time></trkpt><trkpt lat="43.64055292207242" lon="11.420204340911978"><ele>271.0</ele><time>2026-04-04T10:39:16Z</time></trkpt><trkpt lat="43.64059907927051" lon="11.420137604391055"><ele>271.0</ele><time>2026-04-04T10:39:19Z</time></trkpt><trkpt lat="43.64064635028679" lon="11.420066286389766"><ele>272.42857142857144</ele><time>2026-04-04T10:39:22Z</time></trkpt><trkpt lat="43.64069427160515" lon="11.420007911033668"><ele>273.8571428571429</ele><time>2026-04-04T10:39:25Z</time></trkpt><trkpt lat="43.64073665304232" lon="11.419943491982838"><ele>275.28571428571433</ele><time>2026-04-04T10:39:28Z</time></trkpt><trkpt lat="43.64078621106938" lon="11.419880511527474"><ele>276.7142857142857</ele><time>2026-04-04T10:39:31Z</time></trkpt><trkpt lat="43.64083118273654" lon="11.419810247675908"><ele>278.14285714285717</ele><time>2026-04-04T10:39:34Z</time></trkpt><trkpt lat="43.64087585277486" lon="11.419735160108338"><ele>279.5714285714286</ele><time>2026-04-04T10:39:36.999Z</time></trkpt><trkpt lat="43.64093001064" lon="11.419671676186168"><ele>281.0</ele><time>2026-04-04T10:39:39.999Z</time></trkpt><trkpt lat="43.64096604750736" lon="11.41958713246653"><ele>280.8571428571429</ele><time>2026-04-04T10:39:42.999Z</time></trkpt><trkpt lat="43.64102481061025" lon="11.41952862031518"><ele>280.7142857142857</ele><time>2026-04-04T10:39:45.999Z</time></trkpt><trkpt lat="43.64106799286533" lon="11.419458482381389"><ele>280.57142857142856</ele><time>2026-04-04T10:39:48.999Z</time></trkpt><trkpt lat="43.641112486224436" lon="11.419388644432654"><ele>280.42857142857144</ele><time>2026-04-04T10:39:51.999Z</time></trkpt><trkpt lat="43.64115666855042" lon="11.419316033364032"><ele>280.2857142857143</ele><time>2026-04-04T10:39:54.999Z</time></trkpt><trkpt lat="43.641194772349664" lon="11.419246704833002"><ele>280.14285714285717</ele><time>2026-04-04T10:39:57.999Z</time></trkpt><trkpt lat="43.64123485358137" lon="11.419173899004594"><ele>280.0</ele><time>2026-04-04T10:40:00.999Z</time></trkpt><trkpt lat="43.64126785873281" lon="11.419090205873205"><ele>280.0</ele><time>2026-04-04T10:40:03.999Z</time></trkpt><trkpt lat="43.641301739550094" lon="11.419008403009055"><ele>280.0</ele><time>2026-04-04T10:40:06.999Z</time></trkpt><trkpt lat="43.64133015878319" lon="11.418922577551456"><ele>280.0</ele><time>2026-04-04T10:40:09.999Z</time></trkpt><trkpt lat="43.641351498689055" lon="11.418837072280972"><ele>280.0</ele><time>2026-04-04T10:40:12.999Z</time></trkpt><trkpt lat="43.64137148337817" lon="11.418749243069616"><ele>280.0</ele><time>2026-04-04T10:40:15.999Z</time></trkpt><trkpt lat="43.6413872983272" lon="11.418663384285308"><ele>280.0</ele><time>2026-04-04T10:40:18.999Z</time></trkpt><trkpt lat="43.64140797653182" lon="11.418548909585322"><ele>280.0</ele><time>2026-04-04T10:40:22.999Z</time></trkpt><trkpt lat="43.64141458776875" lon="11.41843091015835"><ele>281.0</ele><time>2026-04-04T10:40:26.999Z</time></trkpt><trkpt lat="43.64143169459021" lon="11.418343819268243"><ele>282.0</ele><time>2026-04-04T10:40:29.999Z</time></trkpt><trkpt lat="43.64143037006016" lon="11.418243124464166"><ele>283.0</ele><time>2026-04-04T10:40:32.999Z</time></trkpt><trkpt lat="43.64144037947061" lon="11.418133082429252"><ele>284.0</ele><time>2026-04-04T10:40:36.998Z</time></trkpt><trkpt lat="43.64144732661716" lon="11.418038794692194"><ele>285.0</ele><time>2026-04-04T10:40:39.998Z</time></trkpt><trkpt lat="43.6414483769549" lon="11.417923772424466"><ele>286.0</ele><time>2026-04-04T10:40:43.998Z</time></trkpt><trkpt lat="43.64144530076991" lon="11.417834558897649"><ele>287.0</ele><time>2026-04-04T10:40:46.998Z</time></trkpt><trkpt lat="43.64144163038262" lon="11.417737908941202"><ele>288.14285714285717</ele><time>2026-04-04T10:40:49.998Z</time></trkpt><trkpt lat="43.64145356202583" lon="11.417643328411053"><ele>289.2857142857143</ele><time>2026-04-04T10:40:52.998Z</time></trkpt><trkpt lat="43.64145249588237" lon="11.417547806200268"><ele>290.42857142857144</ele><time>2026-04-04T10:40:55.998Z</time></trkpt><trkpt lat="43.641460314570175" lon="11.417459382045218"><ele>291.57142857142856</ele><time>2026-04-04T10:40:59Z</time></trkpt><trkpt lat="43.64146975900354" lon="11.417373073916655"><ele>292.7142857142857</ele><time>2026-04-04T10:41:02Z</time></trkpt><trkpt lat="43.64148876784334" lon="11.417286155389958"><ele>293.8571428571429</ele><time>2026-04-04T10:41:05Z</time></trkpt><trkpt lat="43.64150916668251" lon="11.417198442729008"><ele>295.0</ele><time>2026-04-04T10:41:08Z</time></trkpt><trkpt lat="43.6415294278286" lon="11.417113788888495"><ele>296.5714285714286</ele><time>2026-04-04T10:41:11Z</time></trkpt><trkpt lat="43.64155451867834" lon="11.417030608868266"><ele>298.14285714285717</ele><time>2026-04-04T10:41:14Z</time></trkpt><trkpt lat="43.64158542526372" lon="11.416951572681787"><ele>299.7142857142857</ele><time>2026-04-04T10:41:17Z</time></trkpt><trkpt lat="43.64161384561096" lon="11.416861128514377"><ele>301.28571428571433</ele><time>2026-04-04T10:41:20Z</time></trkpt><trkpt lat="43.641644881727885" lon="11.41677885813635"><ele>302.8571428571429</ele><time>2026-04-04T10:41:23Z</time></trkpt><trkpt lat="43.64167093466424" lon="11.41669917457329"><ele>304.42857142857144</ele><time>2026-04-04T10:41:26Z</time></trkpt><trkpt lat="43.64172684291018" lon="11.416583843530043"><ele>306.0</ele><time>2026-04-04T10:41:29Z</time></trkpt><trkpt lat="43.64174794363643" lon="11.416496481562117"><ele>306.0</ele><time>2026-04-04T10:41:33Z</time></trkpt><trkpt lat="43.64178203770065" lon="11.416411145584224"><ele>306.0</ele><time>2026-04-04T10:41:36Z</time></trkpt><trkpt lat="43.64181060179184" lon="11.41632605715161"><ele>306.0</ele><time>2026-04-04T10:41:39Z</time></trkpt><trkpt lat="43.6418431754725" lon="11.416249737114324"><ele>306.0</ele><time>2026-04-04T10:41:42Z</time></trkpt><trkpt lat="43.6418768930936" lon="11.416148388807342"><ele>306.0</ele><time>2026-04-04T10:41:45.999Z</time></trkpt><trkpt lat="43.64191030554193" lon="11.416047136721813"><ele>306.0</ele><time>2026-04-04T10:41:49.999Z</time></trkpt><trkpt lat="43.641943606421904" lon="11.415944125210086"><ele>306.0</ele><time>2026-04-04T10:41:53.999Z</time></trkpt><trkpt lat="43.641973378227895" lon="11.41584242474846"><ele>305.5</ele><time>2026-04-04T10:41:57.999Z</time></trkpt><trkpt lat="43.642004459978544" lon="11.415745134805558"><ele>305.0</ele><time>2026-04-04T10:42:01.999Z</time></trkpt><trkpt lat="43.64203829450561" lon="11.415644330791022"><ele>304.5</ele><time>2026-04-04T10:42:05.999Z</time></trkpt><trkpt lat="43.64207098839751" lon="11.415552083510002"><ele>304.0</ele><time>2026-04-04T10:42:09.999Z</time></trkpt><trkpt lat="43.64210257116704" lon="11.415446945927387"><ele>303.5</ele><time>2026-04-04T10:42:13.999Z</time></trkpt><trkpt lat="43.64213363528787" lon="11.415352616963878"><ele>303.0</ele><time>2026-04-04T10:42:17.999Z</time></trkpt><trkpt lat="43.642166213597235" lon="11.415253624544519"><ele>304.0</ele><time>2026-04-04T10:42:21.999Z</time></trkpt><trkpt lat="43.642192212443" lon="11.415149968780971"><ele>305.0</ele><time>2026-04-04T10:42:25.999Z</time></trkpt><trkpt lat="43.642218801188804" lon="11.415050648633569"><ele>306.0</ele><time>2026-04-04T10:42:29.999Z</time></trkpt><trkpt lat="43.64225057457634" lon="11.41494388765894"><ele>307.0</ele><time>2026-04-04T10:42:33.999Z</time></trkpt><trkpt lat="43.64228744589887" lon="11.414857328588639"><ele>308.0</ele><time>2026-04-04T10:42:37.999Z</time></trkpt><trkpt lat="43.642325153898966" lon="11.414762285084176"><ele>309.0</ele><time>2026-04-04T10:42:41.998Z</time></trkpt><trkpt lat="43.64236189962567" lon="11.414667562651937"><ele>310.28571428571433</ele><time>2026-04-04T10:42:45.998Z</time></trkpt><trkpt lat="43.64239874186643" lon="11.414566800609792"><ele>311.57142857142856</ele><time>2026-04-04T10:42:49.998Z</time></trkpt><trkpt lat="43.64243328765994" lon="11.414467216845367"><ele>312.8571428571429</ele><time>2026-04-04T10:42:53.998Z</time></trkpt><trkpt lat="43.64246604441698" lon="11.414381222962124"><ele>314.14285714285717</ele><time>2026-04-04T10:42:57.998Z</time></trkpt><trkpt lat="43.642485434829595" lon="11.41429209793544"><ele>315.42857142857144</ele><time>2026-04-04T10:43:01.998Z</time></trkpt><trkpt lat="43.6425147968737" lon="11.414202280165208"><ele>316.7142857142857</ele><time>2026-04-04T10:43:06Z</time></trkpt><trkpt lat="43.6425482517791" lon="11.41411240681297"><ele>318.0</ele><time>2026-04-04T10:43:10Z</time></trkpt><trkpt lat="43.64257514192568" lon="11.414017138502153"><ele>318.0</ele><time>2026-04-04T10:43:14Z</time></trkpt><trkpt lat="43.6426084362661" lon="11.413935753199537"><ele>318.0</ele><time>2026-04-04T10:43:18Z</time></trkpt><trkpt lat="43.64263731819061" lon="11.413841551913"><ele>318.0</ele><time>2026-04-04T10:43:22Z</time></trkpt><trkpt lat="43.6426731510007" lon="11.41375996226796"><ele>318.0</ele><time>2026-04-04T10:43:26Z</time></trkpt><trkpt lat="43.64269833993503" lon="11.413669990823317"><ele>318.0</ele><time>2026-04-04T10:43:30Z</time></trkpt><trkpt lat="43.642723274635195" lon="11.413574180802105"><ele>318.0</ele><time>2026-04-04T10:43:34Z</time></trkpt><trkpt lat="43.64275144028293" lon="11.413487196785784"><ele>318.0</ele><time>2026-04-04T10:43:38Z</time></trkpt><trkpt lat="43.642780286549694" lon="11.41338924723615"><ele>318.1428571428571</ele><time>2026-04-04T10:43:42Z</time></trkpt><trkpt lat="43.642809586665145" lon="11.4132964406946"><ele>318.28571428571433</ele><time>2026-04-04T10:43:45.999Z</time></trkpt><trkpt lat="43.642839915984055" lon="11.413207335752777"><ele>318.42857142857144</ele><time>2026-04-04T10:43:49.999Z</time></trkpt><trkpt lat="43.642875129039695" lon="11.413119850403762"><ele>318.57142857142856</ele><time>2026-04-04T10:43:53.999Z</time></trkpt><trkpt lat="43.64291751276298" lon="11.413031672667547"><ele>318.71428571428567</ele><time>2026-04-04T10:43:57.999Z</time></trkpt><trkpt lat="43.64296163342704" lon="11.41295213490548"><ele>318.8571428571429</ele><time>2026-04-04T10:44:01.999Z</time></trkpt><trkpt lat="43.64302427862369" lon="11.41288888807249"><ele>319.0</ele><time>2026-04-04T10:44:05.999Z</time></trkpt><trkpt lat="43.643088998967634" lon="11.41283568047823"><ele>320.66666666666663</ele><time>2026-04-04T10:44:09.999Z</time></trkpt><trkpt lat="43.64316110613487" lon="11.4127913888242"><ele>322.3333333333333</ele><time>2026-04-04T10:44:13.999Z</time></trkpt><trkpt lat="43.64323631498247" lon="11.412751839692469"><ele>324.0</ele><time>2026-04-04T10:44:17.999Z</time></trkpt><trkpt lat="43.64330780144599" lon="11.412718805841047"><ele>325.6666666666667</ele><time>2026-04-04T10:44:21.999Z</time></trkpt><trkpt lat="43.64337972588169" lon="11.412692019533061"><ele>327.33333333333337</ele><time>2026-04-04T10:44:25.999Z</time></trkpt><trkpt lat="43.64344861246422" lon="11.412670777462125"><ele>329.0</ele><time>2026-04-04T10:44:29.999Z</time></trkpt><trkpt lat="43.64352001464425" lon="11.412642147647686"><ele>329.0</ele><time>2026-04-04T10:44:33.999Z</time></trkpt><trkpt lat="43.643593816666105" lon="11.412620633294688"><ele>329.0</ele><time>2026-04-04T10:44:37.999Z</time></trkpt><trkpt lat="43.643666512148805" lon="11.41258423978067"><ele>329.0</ele><time>2026-04-04T10:44:41.998Z</time></trkpt><trkpt lat="43.64373565125383" lon="11.412554116859388"><ele>329.0</ele><time>2026-04-04T10:44:45.998Z</time></trkpt><trkpt lat="43.643805377853774" lon="11.412514270047067"><ele>329.0</ele><time>2026-04-04T10:44:49.998Z</time></trkpt><trkpt lat="43.64387475724905" lon="11.412451349159447"><ele>329.0</ele><time>2026-04-04T10:44:53.998Z</time></trkpt><trkpt lat="43.64392871435698" lon="11.412378820258516"><ele>330.0</ele><time>2026-04-04T10:44:57.998Z</time></trkpt><trkpt lat="43.6439789514244" lon="11.412302043118684"><ele>331.0</ele><time>2026-04-04T10:45:01.998Z</time></trkpt><trkpt lat="43.64400599840411" lon="11.412207099012418"><ele>332.0</ele><time>2026-04-04T10:45:05.998Z</time></trkpt><trkpt lat="43.64402188186301" lon="11.412101803408548"><ele>333.0</ele><time>2026-04-04T10:45:10Z</time></trkpt><trkpt lat="43.64402758117178" lon="11.411987295004678"><ele>334.0</ele><time>2026-04-04T10:45:14Z</time></trkpt><trkpt lat="43.64402424054452" lon="11.411873735415865"><ele>335.0</ele><time>2026-04-04T10:45:18Z</time></trkpt><trkpt lat="43.64401497238607" lon="11.411786383021456"><ele>335.33333333333337</ele><time>2026-04-04T10:45:21Z</time></trkpt><trkpt lat="43.643998920045725" lon="11.411674908630111"><ele>335.6666666666667</ele><time>2026-04-04T10:45:25Z</time></trkpt><trkpt lat="43.643980863223625" lon="11.411573509738172"><ele>336.0</ele><time>2026-04-04T10:45:29Z</time></trkpt><trkpt lat="43.643966286361184" lon="11.41146505695426"><ele>336.3333333333333</ele><time>2026-04-04T10:45:33Z</time></trkpt><trkpt lat="43.64395012059478" lon="11.41136094458979"><ele>336.66666666666663</ele><time>2026-04-04T10:45:37Z</time></trkpt><trkpt lat="43.643930107146836" lon="11.411254485931101"><ele>337.0</ele><time>2026-04-04T10:45:41Z</time></trkpt><trkpt lat="43.64391955896674" lon="11.411151033868489"><ele>337.8333333333333</ele><time>2026-04-04T10:45:45Z</time></trkpt><trkpt lat="43.64389569436314" lon="11.411044539955341"><ele>338.66666666666663</ele><time>2026-04-04T10:45:48.999Z</time></trkpt><trkpt lat="43.643866880494144" lon="11.410945349595709"><ele>339.5</ele><time>2026-04-04T10:45:52.999Z</time></trkpt><trkpt lat="43.64383275145895" lon="11.410844944173704"><ele>340.3333333333333</ele><time>2026-04-04T10:45:56.999Z</time></trkpt><trkpt lat="43.6437884695231" lon="11.410750445929335"><ele>341.1666666666667</ele><time>2026-04-04T10:46:00.999Z</time></trkpt><trkpt lat="43.64375019091025" lon="11.410652937268685"><ele>342.0</ele><time>2026-04-04T10:46:04.999Z</time></trkpt><trkpt lat="43.643695514497836" lon="11.410575781928129"><ele>342.0</ele><time>2026-04-04T10:46:08.999Z</time></trkpt><trkpt lat="43.64363848482542" lon="11.410505318350316"><ele>342.0</ele><time>2026-04-04T10:46:12.999Z</time></trkpt><trkpt lat="43.64357733392376" lon="11.41042264266027"><ele>342.0</ele><time>2026-04-04T10:46:16.999Z</time></trkpt><trkpt lat="43.64352158396576" lon="11.410339054906357"><ele>342.0</ele><time>2026-04-04T10:46:20.999Z</time></trkpt><trkpt lat="43.64347269144844" lon="11.41028103055081"><ele>342.0</ele><time>2026-04-04T10:46:23.999Z</time></trkpt><trkpt lat="43.643416412114185" lon="11.410197274745984"><ele>342.0</ele><time>2026-04-04T10:46:27.999Z</time></trkpt><trkpt lat="43.643374505108966" lon="11.410131726840639"><ele>344.1666666666667</ele><time>2026-04-04T10:46:30.999Z</time></trkpt><trkpt lat="43.643324385727986" lon="11.410045628901015"><ele>346.3333333333333</ele><time>2026-04-04T10:46:34.999Z</time></trkpt><trkpt lat="43.64328128807742" lon="11.409959892316227"><ele>348.5</ele><time>2026-04-04T10:46:38.999Z</time></trkpt><trkpt lat="43.643249313668626" lon="11.409859999261302"><ele>350.66666666666663</ele><time>2026-04-04T10:46:42.999Z</time></trkpt><trkpt lat="43.64324476358308" lon="11.409764827278151"><ele>352.8333333333333</ele><time>2026-04-04T10:46:46.998Z</time></trkpt><trkpt lat="43.64325496069138" lon="11.409658071452359"><ele>355.0</ele><time>2026-04-04T10:46:50.998Z</time></trkpt><trkpt lat="43.64327374904907" lon="11.409551606114448"><ele>355.0</ele><time>2026-04-04T10:46:54.998Z</time></trkpt><trkpt lat="43.64329361702899" lon="11.409447142317845"><ele>355.0</ele><time>2026-04-04T10:46:58.998Z</time></trkpt><trkpt lat="43.64331587108834" lon="11.40934314037096"><ele>355.0</ele><time>2026-04-04T10:47:02.998Z</time></trkpt><trkpt lat="43.643334651719826" lon="11.409244092589896"><ele>355.0</ele><time>2026-04-04T10:47:06.998Z</time></trkpt><trkpt lat="43.64334124378903" lon="11.40914401579112"><ele>355.0</ele><time>2026-04-04T10:47:10.998Z</time></trkpt><trkpt lat="43.64334749253723" lon="11.409046876831162"><ele>355.0</ele><time>2026-04-04T10:47:15Z</time></trkpt><trkpt lat="43.64332877846627" lon="11.408960775932627"><ele>355.0</ele><time>2026-04-04T10:54:13.999Z</time></trkpt><trkpt lat="43.6432890800609" lon="11.408863697702774"><ele>354.66666666666663</ele><time>2026-04-04T10:54:20.999Z</time></trkpt><trkpt lat="43.64323663087377" lon="11.408781131414447"><ele>354.3333333333333</ele><time>2026-04-04T10:54:24.999Z</time></trkpt><trkpt lat="43.64320137077755" lon="11.408682770019094"><ele>354.0</ele><time>2026-04-04T10:54:28.999Z</time></trkpt><trkpt lat="43.643150811828015" lon="11.408628230292686"><ele>353.6666666666667</ele><time>2026-04-04T10:54:31.999Z</time></trkpt><trkpt lat="43.643092780975465" lon="11.408546002186432"><ele>353.33333333333337</ele><time>2026-04-04T10:54:35.999Z</time></trkpt><trkpt lat="43.64303248356735" lon="11.408465563737758"><ele>353.0</ele><time>2026-04-04T10:54:39.999Z</time></trkpt><trkpt lat="43.642984784646565" lon="11.408403785944335"><ele>353.0</ele><time>2026-04-04T10:54:42.999Z</time></trkpt><trkpt lat="43.642930425238895" lon="11.408318587387079"><ele>353.0</ele><time>2026-04-04T10:54:46.999Z</time></trkpt><trkpt lat="43.64289900155276" lon="11.408239996291728"><ele>353.0</ele><time>2026-04-04T10:54:49.999Z</time></trkpt><trkpt lat="43.64288377652751" lon="11.408153148785779"><ele>353.0</ele><time>2026-04-04T10:54:52.998Z</time></trkpt><trkpt lat="43.64287284915296" lon="11.408047655553725"><ele>353.0</ele><time>2026-04-04T10:54:56.998Z</time></trkpt><trkpt lat="43.64287366054646" lon="11.407939785933157"><ele>353.0</ele><time>2026-04-04T10:55:00.998Z</time></trkpt><trkpt lat="43.642894924007045" lon="11.407831238488189"><ele>353.0</ele><time>2026-04-04T10:55:04.998Z</time></trkpt><trkpt lat="43.64291116106437" lon="11.407727750540143"><ele>353.83333333333337</ele><time>2026-04-04T10:55:08.998Z</time></trkpt><trkpt lat="43.642936092588386" lon="11.40762000642305"><ele>354.6666666666667</ele><time>2026-04-04T10:55:12.998Z</time></trkpt><trkpt lat="43.642954771838035" lon="11.407510186812647"><ele>355.5</ele><time>2026-04-04T10:55:16.998Z</time></trkpt><trkpt lat="43.64297606834315" lon="11.40740197821406"><ele>356.3333333333333</ele><time>2026-04-04T10:55:20.998Z</time></trkpt><trkpt lat="43.642993856497036" lon="11.407297084599023"><ele>357.16666666666663</ele><time>2026-04-04T10:55:24.998Z</time></trkpt><trkpt lat="43.643016412602535" lon="11.407197230575035"><ele>358.0</ele><time>2026-04-04T10:55:28.998Z</time></trkpt><trkpt lat="43.64304199590106" lon="11.407084526277925"><ele>359.7142857142857</ele><time>2026-04-04T10:55:32.998Z</time></trkpt><trkpt lat="43.64306030791057" lon="11.40699971045424"><ele>361.42857142857144</ele><time>2026-04-04T10:55:36.998Z</time></trkpt><trkpt lat="43.64307480129747" lon="11.406904439175129"><ele>363.1428571428571</ele><time>2026-04-04T10:55:40.998Z</time></trkpt><trkpt lat="43.643081822239054" lon="11.406817787607752"><ele>364.8571428571429</ele><time>2026-04-04T10:55:44.998Z</time></trkpt><trkpt lat="43.64310762970889" lon="11.406712043144074"><ele>366.57142857142856</ele><time>2026-04-04T10:55:47.998Z</time></trkpt><trkpt lat="43.64313179993681" lon="11.406605920813215"><ele>368.2857142857143</ele><time>2026-04-04T10:55:51.998Z</time></trkpt><trkpt lat="43.64315157769881" lon="11.406495425057372"><ele>370.0</ele><time>2026-04-04T10:55:55.998Z</time></trkpt><trkpt lat="43.643166939923205" lon="11.406390401461"><ele>371.99999999999994</ele><time>2026-04-04T10:55:59.998Z</time></trkpt><trkpt lat="43.643184829430005" lon="11.406295154473568"><ele>374.0</ele><time>2026-04-04T10:56:03.999Z</time></trkpt><trkpt lat="43.643207124405144" lon="11.406199570857217"><ele>376.0</ele><time>2026-04-04T10:56:07.999Z</time></trkpt><trkpt lat="43.64322571878824" lon="11.406100171057105"><ele>378.0</ele><time>2026-04-04T10:56:11.999Z</time></trkpt><trkpt lat="43.64323956066396" lon="11.406003654766062"><ele>380.0</ele><time>2026-04-04T10:56:15.999Z</time></trkpt><trkpt lat="43.64324942775227" lon="11.405916093830136"><ele>381.99999999999994</ele><time>2026-04-04T10:56:19.999Z</time></trkpt><trkpt lat="43.64326003951561" lon="11.405817794072329"><ele>384.0</ele><time>2026-04-04T10:56:23.999Z</time></trkpt><trkpt lat="43.64326933408761" lon="11.405719852003505"><ele>383.99999999999994</ele><time>2026-04-04T10:56:27.999Z</time></trkpt><trkpt lat="43.64328067486932" lon="11.405613670796438"><ele>384.0</ele><time>2026-04-04T10:56:31.999Z</time></trkpt><trkpt lat="43.64330269495673" lon="11.405510661426295"><ele>384.0</ele><time>2026-04-04T10:56:35.999Z</time></trkpt><trkpt lat="43.643325279307234" lon="11.405421711523267"><ele>384.0</ele><time>2026-04-04T10:56:39.999Z</time></trkpt><trkpt lat="43.643386182153904" lon="11.40534480370824"><ele>384.0</ele><time>2026-04-04T10:56:43.999Z</time></trkpt><trkpt lat="43.64344990692144" lon="11.4052985451489"><ele>383.99999999999994</ele><time>2026-04-04T10:56:47.999Z</time></trkpt><trkpt lat="43.64351575509447" lon="11.405305694913643"><ele>384.0</ele><time>2026-04-04T10:56:50.999Z</time></trkpt><trkpt lat="43.6435786026301" lon="11.405313205606454"><ele>383.1428571428571</ele><time>2026-04-04T10:56:53.999Z</time></trkpt><trkpt lat="43.643639806018065" lon="11.405337434554168"><ele>382.2857142857143</ele><time>2026-04-04T10:56:56.999Z</time></trkpt><trkpt lat="43.64370456892366" lon="11.40536493156641"><ele>381.42857142857144</ele><time>2026-04-04T10:56:59.999Z</time></trkpt><trkpt lat="43.643785798502535" lon="11.40540703264734"><ele>380.57142857142856</ele><time>2026-04-04T10:57:03.999Z</time></trkpt><trkpt lat="43.643847081337604" lon="11.405437265249558"><ele>379.7142857142857</ele><time>2026-04-04T10:57:06.999Z</time></trkpt><trkpt lat="43.6439086705591" lon="11.405468078008422"><ele>378.85714285714283</ele><time>2026-04-04T10:57:09.999Z</time></trkpt><trkpt lat="43.643973175325684" lon="11.405488000615353"><ele>378.0</ele><time>2026-04-04T10:57:12.999Z</time></trkpt><trkpt lat="43.64403877871925" lon="11.405504989112673"><ele>378.0</ele><time>2026-04-04T10:57:15.999Z</time></trkpt><trkpt lat="43.64410337655103" lon="11.405501576067067"><ele>378.0</ele><time>2026-04-04T10:57:18.999Z</time></trkpt><trkpt lat="43.644169160454766" lon="11.40548971017497"><ele>378.0</ele><time>2026-04-04T10:57:21.999Z</time></trkpt><trkpt lat="43.64423564014421" lon="11.405468590938804"><ele>378.0</ele><time>2026-04-04T10:57:24.999Z</time></trkpt><trkpt lat="43.64430072923269" lon="11.405429707932178"><ele>378.0</ele><time>2026-04-04T10:57:27.999Z</time></trkpt><trkpt lat="43.64436079919303" lon="11.405376935581872"><ele>378.0</ele><time>2026-04-04T10:57:30.999Z</time></trkpt><trkpt lat="43.64441104699669" lon="11.405305978949858"><ele>378.0</ele><time>2026-04-04T10:57:33.999Z</time></trkpt><trkpt lat="43.644452759491124" lon="11.405234028357809"><ele>378.7142857142857</ele><time>2026-04-04T10:57:36.999Z</time></trkpt><trkpt lat="43.644488875702976" lon="11.405159066264885"><ele>379.42857142857144</ele><time>2026-04-04T10:57:39.999Z</time></trkpt><trkpt lat="43.644522480398834" lon="11.405080064838359"><ele>380.1428571428571</ele><time>2026-04-04T10:57:42.999Z</time></trkpt><trkpt lat="43.64456745634896" lon="11.404986310191381"><ele>380.8571428571429</ele><time>2026-04-04T10:57:46.998Z</time></trkpt><trkpt lat="43.644611275917605" lon="11.40489833080248"><ele>381.57142857142856</ele><time>2026-04-04T10:57:50.998Z</time></trkpt><trkpt lat="43.644654024244204" lon="11.404799705405981"><ele>382.2857142857143</ele><time>2026-04-04T10:57:54.998Z</time></trkpt><trkpt lat="43.64469687437778" lon="11.404720097383455"><ele>383.0</ele><time>2026-04-04T10:57:58.998Z</time></trkpt><trkpt lat="43.6447427117975" lon="11.404631684175241"><ele>387.0</ele><time>2026-04-04T10:58:02.999Z</time></trkpt><trkpt lat="43.64480193060703" lon="11.404562493650879"><ele>391.0</ele><time>2026-04-04T10:58:06.999Z</time></trkpt><trkpt lat="43.64486810241284" lon="11.404495507753342"><ele>395.0</ele><time>2026-04-04T10:58:10.999Z</time></trkpt><trkpt lat="43.64493339905344" lon="11.404450375436221"><ele>399.0</ele><time>2026-04-04T10:58:14.999Z</time></trkpt><trkpt lat="43.645009331777686" lon="11.404420827986403"><ele>402.99999999999994</ele><time>2026-04-04T10:58:18.999Z</time></trkpt><trkpt lat="43.64508170272152" lon="11.404394693828376"><ele>407.0</ele><time>2026-04-04T10:58:22.999Z</time></trkpt><trkpt lat="43.64515207164603" lon="11.404363127907443"><ele>406.99999999999994</ele><time>2026-04-04T10:58:26.999Z</time></trkpt><trkpt lat="43.645228877819285" lon="11.404330828395045"><ele>407.0</ele><time>2026-04-04T10:58:30.999Z</time></trkpt><trkpt lat="43.645300013708436" lon="11.404301036436213"><ele>407.0</ele><time>2026-04-04T10:58:34.999Z</time></trkpt><trkpt lat="43.64536545781746" lon="11.404257451565945"><ele>407.0</ele><time>2026-04-04T10:58:38.999Z</time></trkpt><trkpt lat="43.64541706811952" lon="11.40417066651634"><ele>406.99999999999994</ele><time>2026-04-04T10:58:42.999Z</time></trkpt><trkpt lat="43.64545147545598" lon="11.404080759237782"><ele>407.0</ele><time>2026-04-04T10:58:46.999Z</time></trkpt><trkpt lat="43.64547745620717" lon="11.403994290880616"><ele>406.42857142857144</ele><time>2026-04-04T10:58:49.999Z</time></trkpt><trkpt lat="43.64551142556195" lon="11.403889596272137"><ele>405.8571428571429</ele><time>2026-04-04T10:58:53.999Z</time></trkpt><trkpt lat="43.6455398881549" lon="11.403806883984602"><ele>405.28571428571433</ele><time>2026-04-04T10:58:56.999Z</time></trkpt><trkpt lat="43.64556208954183" lon="11.403698777326593"><ele>404.7142857142857</ele><time>2026-04-04T10:59:00.999Z</time></trkpt><trkpt lat="43.64558612608214" lon="11.40361827685333"><ele>404.1428571428571</ele><time>2026-04-04T10:59:03.999Z</time></trkpt><trkpt lat="43.64560931317126" lon="11.403536781621966"><ele>403.5714285714286</ele><time>2026-04-04T10:59:06.999Z</time></trkpt><trkpt lat="43.645635565458136" lon="11.403457366417099"><ele>403.0</ele><time>2026-04-04T10:59:09.999Z</time></trkpt><trkpt lat="43.645660302836085" lon="11.403354416534656"><ele>403.00000000000006</ele><time>2026-04-04T10:59:13.999Z</time></trkpt><trkpt lat="43.64569346205857" lon="11.403272851508257"><ele>403.0</ele><time>2026-04-04T10:59:16.999Z</time></trkpt><trkpt lat="43.64571385610783" lon="11.40317642273893"><ele>403.0</ele><time>2026-04-04T10:59:20.999Z</time></trkpt><trkpt lat="43.645730565817914" lon="11.403071416568702"><ele>403.0</ele><time>2026-04-04T10:59:24.999Z</time></trkpt><trkpt lat="43.64573542260704" lon="11.402967688522947"><ele>403.00000000000006</ele><time>2026-04-04T10:59:28.999Z</time></trkpt><trkpt lat="43.645742759657885" lon="11.402855172559677"><ele>403.0</ele><time>2026-04-04T10:59:32.999Z</time></trkpt><trkpt lat="43.64574015858316" lon="11.402744794584578"><ele>403.8571428571429</ele><time>2026-04-04T10:59:36.999Z</time></trkpt><trkpt lat="43.64574512437718" lon="11.40263033144018"><ele>404.71428571428567</ele><time>2026-04-04T10:59:40.999Z</time></trkpt><trkpt lat="43.645750558927205" lon="11.40254322539973"><ele>405.57142857142856</ele><time>2026-04-04T10:59:43.999Z</time></trkpt><trkpt lat="43.64575266881436" lon="11.402436375364672"><ele>406.42857142857144</ele><time>2026-04-04T10:59:47.999Z</time></trkpt><trkpt lat="43.64574915591663" lon="11.402332455271532"><ele>407.28571428571433</ele><time>2026-04-04T10:59:52Z</time></trkpt><trkpt lat="43.64575830153129" lon="11.40224049652433"><ele>408.1428571428571</ele><time>2026-04-04T10:59:56Z</time></trkpt><trkpt lat="43.645751112328746" lon="11.402132329304157"><ele>409.0</ele><time>2026-04-04T10:59:59Z</time></trkpt><trkpt lat="43.64576936581905" lon="11.402033660668314"><ele>410.7142857142857</ele><time>2026-04-04T11:00:03Z</time></trkpt><trkpt lat="43.64579475945582" lon="11.4019429997142"><ele>412.42857142857144</ele><time>2026-04-04T11:00:06Z</time></trkpt><trkpt lat="43.645827267267265" lon="11.401836526413222"><ele>414.14285714285717</ele><time>2026-04-04T11:00:10Z</time></trkpt><trkpt lat="43.64586838772261" lon="11.401739515201337"><ele>415.8571428571429</ele><time>2026-04-04T11:00:14Z</time></trkpt><trkpt lat="43.64589670528547" lon="11.401661150055022"><ele>417.57142857142856</ele><time>2026-04-04T11:00:17Z</time></trkpt><trkpt lat="43.64593021403915" lon="11.401581705350997"><ele>419.28571428571433</ele><time>2026-04-04T11:00:21Z</time></trkpt><trkpt lat="43.64596760282879" lon="11.401505851623748"><ele>421.0</ele><time>2026-04-04T11:00:24Z</time></trkpt><trkpt lat="43.64600207461853" lon="11.401419466314431"><ele>421.00000000000006</ele><time>2026-04-04T11:00:28Z</time></trkpt><trkpt lat="43.64605000357492" lon="11.401335926011363"><ele>421.0</ele><time>2026-04-04T11:00:32Z</time></trkpt><trkpt lat="43.646092096367035" lon="11.401248790834755"><ele>421.0</ele><time>2026-04-04T11:00:35Z</time></trkpt><trkpt lat="43.64613395906985" lon="11.401156448275302"><ele>421.0</ele><time>2026-04-04T11:00:39Z</time></trkpt><trkpt lat="43.646166899472625" lon="11.401073712762633"><ele>421.0</ele><time>2026-04-04T11:00:42Z</time></trkpt><trkpt lat="43.64619384760825" lon="11.400971919317566"><ele>421.00000000000006</ele><time>2026-04-04T11:00:46Z</time></trkpt><trkpt lat="43.64622762162768" lon="11.400890733725692"><ele>421.0</ele><time>2026-04-04T11:00:49Z</time></trkpt><trkpt lat="43.64625005799872" lon="11.400801094712168"><ele>421.42857142857144</ele><time>2026-04-04T11:00:52Z</time></trkpt><trkpt lat="43.64626798177376" lon="11.400698433701706"><ele>421.8571428571429</ele><time>2026-04-04T11:00:56Z</time></trkpt><trkpt lat="43.64628863660967" lon="11.400615512516305"><ele>422.28571428571433</ele><time>2026-04-04T11:00:59Z</time></trkpt><trkpt lat="43.646307189657534" lon="11.400523857406359"><ele>422.7142857142857</ele><time>2026-04-04T11:01:03Z</time></trkpt><trkpt lat="43.64634801413047" lon="11.400437124512203"><ele>423.1428571428571</ele><time>2026-04-04T11:01:06Z</time></trkpt><trkpt lat="43.6463876398746" lon="11.400366238932044"><ele>423.5714285714286</ele><time>2026-04-04T11:01:09Z</time></trkpt><trkpt lat="43.64644723946993" lon="11.400293573688081"><ele>424.0</ele><time>2026-04-04T11:01:13Z</time></trkpt><trkpt lat="43.64649590641245" lon="11.400236080593217"><ele>424.0</ele><time>2026-04-04T11:01:16Z</time></trkpt><trkpt lat="43.64654434564547" lon="11.400179111717105"><ele>424.0</ele><time>2026-04-04T11:01:19Z</time></trkpt><trkpt lat="43.646597005088495" lon="11.400103225761136"><ele>424.0</ele><time>2026-04-04T11:01:23Z</time></trkpt><trkpt lat="43.646647556455676" lon="11.400024014825984"><ele>424.0</ele><time>2026-04-04T11:01:27Z</time></trkpt><trkpt lat="43.646700465979926" lon="11.3999467540073"><ele>424.0</ele><time>2026-04-04T11:01:31Z</time></trkpt><trkpt lat="43.64674732956136" lon="11.399866307211152"><ele>424.0</ele><time>2026-04-04T11:01:35Z</time></trkpt><trkpt lat="43.64678509025086" lon="11.399774435319804"><ele>424.0</ele><time>2026-04-04T11:01:39Z</time></trkpt><trkpt lat="43.646817104547615" lon="11.399684134663838"><ele>426.0</ele><time>2026-04-04T11:01:43Z</time></trkpt><trkpt lat="43.64681866656228" lon="11.399591184400126"><ele>428.0</ele><time>2026-04-04T11:01:47Z</time></trkpt><trkpt lat="43.646824531405045" lon="11.399487838168561"><ele>430.0</ele><time>2026-04-04T11:01:51Z</time></trkpt><trkpt lat="43.64680270354232" lon="11.399401303479658"><ele>432.0</ele><time>2026-04-04T11:01:55Z</time></trkpt><trkpt lat="43.64680877087822" lon="11.399305497449928"><ele>434.0</ele><time>2026-04-04T11:01:58.001Z</time></trkpt><trkpt lat="43.64679073834317" lon="11.399200423941807"><ele>436.0</ele><time>2026-04-04T11:02:02.001Z</time></trkpt><trkpt lat="43.646787259659" lon="11.399097431304543"><ele>438.0</ele><time>2026-04-04T11:02:06.001Z</time></trkpt><trkpt lat="43.646773267894886" lon="11.399003540281868"><ele>438.0</ele><time>2026-04-04T11:02:10.001Z</time></trkpt><trkpt lat="43.64678072756205" lon="11.398901339344343"><ele>438.0</ele><time>2026-04-04T11:02:14.001Z</time></trkpt><trkpt lat="43.64680564125018" lon="11.398799650028065"><ele>438.0</ele><time>2026-04-04T11:02:19.001Z</time></trkpt><trkpt lat="43.64682519650118" lon="11.398707204531437"><ele>438.0</ele><time>2026-04-04T11:02:23.001Z</time></trkpt><trkpt lat="43.64685779683954" lon="11.398619588425362"><ele>438.0</ele><time>2026-04-04T11:02:27.001Z</time></trkpt><trkpt lat="43.64688559614933" lon="11.39853865860685"><ele>438.0</ele><time>2026-04-04T11:02:31Z</time></trkpt><trkpt lat="43.6469268559385" lon="11.398454937110873"><ele>438.0</ele><time>2026-04-04T11:02:35Z</time></trkpt><trkpt lat="43.64695767602355" lon="11.398362239524745"><ele>437.42857142857144</ele><time>2026-04-04T11:02:40Z</time></trkpt><trkpt lat="43.646989060749" lon="11.398283331035195"><ele>436.85714285714283</ele><time>2026-04-04T11:02:44Z</time></trkpt><trkpt lat="43.64702082586203" lon="11.398207835839226"><ele>436.2857142857143</ele><time>2026-04-04T11:02:48Z</time></trkpt><trkpt lat="43.647048178459166" lon="11.398126879102444"><ele>435.7142857142857</ele><time>2026-04-04T11:02:52Z</time></trkpt><trkpt lat="43.64707870649242" lon="11.39804771861741"><ele>435.1428571428571</ele><time>2026-04-04T11:02:56Z</time></trkpt><trkpt lat="43.64711375634334" lon="11.397952450864855"><ele>434.57142857142856</ele><time>2026-04-04T11:03:01Z</time></trkpt><trkpt lat="43.647139026695136" lon="11.397871253842592"><ele>434.0</ele><time>2026-04-04T11:03:05Z</time></trkpt><trkpt lat="43.647180340268086" lon="11.397774163948505"><ele>434.0</ele><time>2026-04-04T11:03:10Z</time></trkpt><trkpt lat="43.64721320440256" lon="11.397695834540668"><ele>434.0</ele><time>2026-04-04T11:03:14Z</time></trkpt><trkpt lat="43.64724151204203" lon="11.39760895891319"><ele>434.0</ele><time>2026-04-04T11:03:18Z</time></trkpt><trkpt lat="43.64727144790902" lon="11.397519163030776"><ele>434.0</ele><time>2026-04-04T11:03:22Z</time></trkpt><trkpt lat="43.647305272049465" lon="11.397423202906467"><ele>434.0</ele><time>2026-04-04T11:03:26Z</time></trkpt><trkpt lat="43.647328581798746" lon="11.39733947007008"><ele>434.0</ele><time>2026-04-04T11:03:29Z</time></trkpt><trkpt lat="43.64735156554003" lon="11.39725144344267"><ele>434.0</ele><time>2026-04-04T11:03:33Z</time></trkpt><trkpt lat="43.64737793086781" lon="11.397158098329687"><ele>436.0</ele><time>2026-04-04T11:03:37Z</time></trkpt><trkpt lat="43.64740667157596" lon="11.397068732831466"><ele>438.0</ele><time>2026-04-04T11:03:41Z</time></trkpt><trkpt lat="43.64742953365067" lon="11.396974398406076"><ele>440.0</ele><time>2026-04-04T11:03:45Z</time></trkpt><trkpt lat="43.64745427538457" lon="11.396882302526029"><ele>442.0</ele><time>2026-04-04T11:03:49Z</time></trkpt><trkpt lat="43.64748000352865" lon="11.396795969409554"><ele>444.0</ele><time>2026-04-04T11:03:53Z</time></trkpt><trkpt lat="43.64750269082847" lon="11.396704332382132"><ele>446.0</ele><time>2026-04-04T11:03:57Z</time></trkpt><trkpt lat="43.64752647694647" lon="11.396615333169803"><ele>448.0</ele><time>2026-04-04T11:04:01Z</time></trkpt><trkpt lat="43.64755082023802" lon="11.396530175187175"><ele>448.0</ele><time>2026-04-04T11:04:05.002Z</time></trkpt><trkpt lat="43.647582386106365" lon="11.39644131079047"><ele>448.0</ele><time>2026-04-04T11:04:09.002Z</time></trkpt><trkpt lat="43.64759852624115" lon="11.396351635147113"><ele>448.0</ele><time>2026-04-04T11:04:13.001Z</time></trkpt><trkpt lat="43.647618408338026" lon="11.396256708941328"><ele>448.0</ele><time>2026-04-04T11:04:17.001Z</time></trkpt><trkpt lat="43.64763041986651" lon="11.396166716481638"><ele>448.0</ele><time>2026-04-04T11:04:21.001Z</time></trkpt><trkpt lat="43.64763565922453" lon="11.39607443029619"><ele>448.0</ele><time>2026-04-04T11:04:25.001Z</time></trkpt><trkpt lat="43.64764849718024" lon="11.39597711995278"><ele>448.0</ele><time>2026-04-04T11:04:29.001Z</time></trkpt><trkpt lat="43.64766159873306" lon="11.395880304519173"><ele>450.42857142857144</ele><time>2026-04-04T11:04:33.001Z</time></trkpt><trkpt lat="43.647685360916014" lon="11.395772661790705"><ele>452.8571428571429</ele><time>2026-04-04T11:04:38.001Z</time></trkpt><trkpt lat="43.647695206469486" lon="11.395685931484456"><ele>455.2857142857143</ele><time>2026-04-04T11:04:42.001Z</time></trkpt><trkpt lat="43.647705427222256" lon="11.39559172636683"><ele>457.7142857142857</ele><time>2026-04-04T11:04:46.001Z</time></trkpt><trkpt lat="43.64773110123651" lon="11.3954796613491"><ele>460.14285714285717</ele><time>2026-04-04T11:04:50.001Z</time></trkpt><trkpt lat="43.647741025323185" lon="11.395372917298234"><ele>462.57142857142856</ele><time>2026-04-04T11:04:54Z</time></trkpt><trkpt lat="43.64775495653873" lon="11.395282003768882"><ele>465.0</ele><time>2026-04-04T11:04:58Z</time></trkpt><trkpt lat="43.64776264528949" lon="11.395193039996387"><ele>466.42857142857144</ele><time>2026-04-04T11:05:02Z</time></trkpt><trkpt lat="43.647764843648254" lon="11.395098024643877"><ele>467.8571428571429</ele><time>2026-04-04T11:05:06Z</time></trkpt><trkpt lat="43.6477683042225" lon="11.395004223795683"><ele>469.28571428571433</ele><time>2026-04-04T11:05:10Z</time></trkpt><trkpt lat="43.647766945352416" lon="11.394912842326312"><ele>470.7142857142857</ele><time>2026-04-04T11:05:14Z</time></trkpt><trkpt lat="43.64777962708461" lon="11.394826080261858"><ele>472.1428571428572</ele><time>2026-04-04T11:05:18Z</time></trkpt><trkpt lat="43.64777599860171" lon="11.394716203915669"><ele>473.5714285714286</ele><time>2026-04-04T11:05:23Z</time></trkpt><trkpt lat="43.64777305919058" lon="11.39462492828785"><ele>475.0</ele><time>2026-04-04T11:05:27Z</time></trkpt><trkpt lat="43.64777074958762" lon="11.39451711818299"><ele>475.8571428571429</ele><time>2026-04-04T11:05:32Z</time></trkpt><trkpt lat="43.64776464936882" lon="11.394430428115204"><ele>476.7142857142858</ele><time>2026-04-04T11:05:36Z</time></trkpt><trkpt lat="43.647758277690244" lon="11.394335315961364"><ele>477.57142857142856</ele><time>2026-04-04T11:05:40Z</time></trkpt><trkpt lat="43.64775355315818" lon="11.39424272213763"><ele>478.42857142857144</ele><time>2026-04-04T11:05:44Z</time></trkpt><trkpt lat="43.647752686772826" lon="11.394145022223281"><ele>479.2857142857143</ele><time>2026-04-04T11:05:49Z</time></trkpt><trkpt lat="43.64774343497343" lon="11.394047483869414"><ele>480.1428571428571</ele><time>2026-04-04T11:05:53Z</time></trkpt><trkpt lat="43.64773100776395" lon="11.39394921508611"><ele>480.99999999999994</ele><time>2026-04-04T11:05:58Z</time></trkpt><trkpt lat="43.64771661345925" lon="11.393845656437593"><ele>481.8571428571428</ele><time>2026-04-04T11:06:03Z</time></trkpt><trkpt lat="43.64770549349199" lon="11.393739430202865"><ele>482.71428571428567</ele><time>2026-04-04T11:06:08Z</time></trkpt><trkpt lat="43.64769496199338" lon="11.393653474450709"><ele>483.57142857142856</ele><time>2026-04-04T11:06:12.001Z</time></trkpt><trkpt lat="43.647691810267645" lon="11.393562536290373"><ele>484.4285714285714</ele><time>2026-04-04T11:06:16.001Z</time></trkpt><trkpt lat="43.647688237159095" lon="11.393472229336929"><ele>485.2857142857142</ele><time>2026-04-04T11:06:20.001Z</time></trkpt><trkpt lat="43.647678442180165" lon="11.393381184132583"><ele>486.14285714285717</ele><time>2026-04-04T11:06:24.001Z</time></trkpt><trkpt lat="43.64768046385471" lon="11.393272297049476"><ele>487.0</ele><time>2026-04-04T11:06:29.001Z</time></trkpt><trkpt lat="43.64768552018487" lon="11.393185503741211"><ele>487.0</ele><time>2026-04-04T11:06:33.001Z</time></trkpt><trkpt lat="43.647690374426155" lon="11.393095010464677"><ele>487.0</ele><time>2026-04-04T11:06:37.001Z</time></trkpt><trkpt lat="43.64770658544048" lon="11.39300463235385"><ele>487.0</ele><time>2026-04-04T11:06:41Z</time></trkpt><trkpt lat="43.64772858463723" lon="11.392916162487268"><ele>487.0</ele><time>2026-04-04T11:06:45Z</time></trkpt><trkpt lat="43.64775348436727" lon="11.392833193633342"><ele>487.0</ele><time>2026-04-04T11:06:49Z</time></trkpt><trkpt lat="43.64778880341255" lon="11.39274867786365"><ele>487.0</ele><time>2026-04-04T11:06:55Z</time></trkpt><trkpt lat="43.64782104700172" lon="11.392671887347522"><ele>487.0</ele><time>2026-04-04T11:06:59Z</time></trkpt><trkpt lat="43.64786130422859" lon="11.392582811722475"><ele>486.8571428571429</ele><time>2026-04-04T11:07:04Z</time></trkpt><trkpt lat="43.64791250833819" lon="11.392507484255463"><ele>486.71428571428567</ele><time>2026-04-04T11:07:09Z</time></trkpt><trkpt lat="43.6479682495548" lon="11.392462581889731"><ele>486.57142857142856</ele><time>2026-04-04T11:07:13Z</time></trkpt><trkpt lat="43.64802004629118" lon="11.39240165485622"><ele>486.42857142857144</ele><time>2026-04-04T11:07:17Z</time></trkpt><trkpt lat="43.648079580870686" lon="11.392337610937107"><ele>486.28571428571433</ele><time>2026-04-04T11:07:22Z</time></trkpt><trkpt lat="43.64813981541583" lon="11.392306510919173"><ele>486.1428571428571</ele><time>2026-04-04T11:07:26Z</time></trkpt><trkpt lat="43.64820277538784" lon="11.392276541282525"><ele>486.0</ele><time>2026-04-04T11:07:30Z</time></trkpt><trkpt lat="43.64827842526505" lon="11.392245262346956"><ele>486.0</ele><time>2026-04-04T11:07:35Z</time></trkpt><trkpt lat="43.64835638009949" lon="11.392224548433123"><ele>486.0</ele><time>2026-04-04T11:07:40Z</time></trkpt><trkpt lat="43.64842051449302" lon="11.392217576859924"><ele>486.0</ele><time>2026-04-04T11:07:44Z</time></trkpt><trkpt lat="43.648487199544675" lon="11.392219074632406"><ele>486.0</ele><time>2026-04-04T11:07:48Z</time></trkpt><trkpt lat="43.648551462098986" lon="11.39222722111627"><ele>486.0</ele><time>2026-04-04T11:07:52Z</time></trkpt><trkpt lat="43.648614816270076" lon="11.392240540476925"><ele>486.0</ele><time>2026-04-04T11:07:56Z</time></trkpt><trkpt lat="43.648687483486" lon="11.392255095335695"><ele>486.0</ele><time>2026-04-04T11:08:00Z</time></trkpt><trkpt lat="43.64876597618433" lon="11.392266221410418"><ele>486.85714285714283</ele><time>2026-04-04T11:08:04Z</time></trkpt><trkpt lat="43.64884107297848" lon="11.392286158676352"><ele>487.7142857142858</ele><time>2026-04-04T11:08:07.999Z</time></trkpt><trkpt lat="43.648918025485884" lon="11.392292988078555"><ele>488.5714285714286</ele><time>2026-04-04T11:08:11.999Z</time></trkpt><trkpt lat="43.6489924089041" lon="11.392310157532313"><ele>489.42857142857144</ele><time>2026-04-04T11:08:16.001Z</time></trkpt><trkpt lat="43.64897720401977" lon="11.392420649938755"><ele>490.28571428571433</ele><time>2026-04-04T11:08:20.001Z</time></trkpt><trkpt lat="43.648988867898176" lon="11.392507798885738"><ele>491.1428571428572</ele><time>2026-04-04T11:08:22.001Z</time></trkpt><trkpt lat="43.64903521992409" lon="11.392573949702982"><ele>492.00000000000006</ele><time>2026-04-04T11:08:29.001Z</time></trkpt><trkpt lat="43.64909584741624" lon="11.392540008019763"><ele>492.00000000000006</ele><time>2026-04-04T11:09:49Z</time></trkpt><trkpt lat="43.64916857385939" lon="11.392548291604479"><ele>492.0</ele><time>2026-04-04T11:09:54.999Z</time></trkpt><trkpt lat="43.64923387261382" lon="11.392558220516502"><ele>492.00000000000006</ele><time>2026-04-04T11:10:38Z</time></trkpt><trkpt lat="43.649307617250976" lon="11.392535084075924"><ele>492.00000000000006</ele><time>2026-04-04T11:10:42Z</time></trkpt><trkpt lat="43.649316902836574" lon="11.392441302631521"><ele>492.0</ele><time>2026-04-04T11:10:45Z</time></trkpt><trkpt lat="43.649376395456734" lon="11.392392610329777"><ele>492.00000000000006</ele><time>2026-04-04T11:10:48Z</time></trkpt><trkpt lat="43.649459594094516" lon="11.392394657135123"><ele>492.00000000000006</ele><time>2026-04-04T11:10:51Z</time></trkpt><trkpt lat="43.64954586874045" lon="11.392414720048198"><ele>492.8571428571429</ele><time>2026-04-04T11:10:54Z</time></trkpt><trkpt lat="43.64960895003945" lon="11.392423164105068"><ele>493.7142857142857</ele><time>2026-04-04T11:10:56Z</time></trkpt><trkpt lat="43.64967298404868" lon="11.392432349164126"><ele>494.57142857142856</ele><time>2026-04-04T11:10:58Z</time></trkpt><trkpt lat="43.64974160953676" lon="11.3924391698114"><ele>495.42857142857144</ele><time>2026-04-04T11:11:00Z</time></trkpt><trkpt lat="43.64980524530234" lon="11.392455389650909"><ele>496.2857142857142</ele><time>2026-04-04T11:11:02Z</time></trkpt><trkpt lat="43.64988308851266" lon="11.39248114508921"><ele>497.1428571428571</ele><time>2026-04-04T11:11:05Z</time></trkpt><trkpt lat="43.64997210003313" lon="11.39247834842629"><ele>498.0</ele><time>2026-04-04T11:11:31.999Z</time></trkpt><trkpt lat="43.65004881316921" lon="11.392496141721017"><ele>498.0</ele><time>2026-04-04T11:11:33.999Z</time></trkpt><trkpt lat="43.65012125457185" lon="11.392512237543093"><ele>497.99999999999994</ele><time>2026-04-04T11:11:35.999Z</time></trkpt><trkpt lat="43.65019911700614" lon="11.392539299531593"><ele>497.99999999999994</ele><time>2026-04-04T11:11:37.999Z</time></trkpt><trkpt lat="43.6502887739676" lon="11.392601189194345"><ele>498.0</ele><time>2026-04-04T11:11:39.999Z</time></trkpt><trkpt lat="43.65038004749021" lon="11.39269529999106"><ele>498.0</ele><time>2026-04-04T11:11:41.999Z</time></trkpt><trkpt lat="43.65045399305556" lon="11.39283970210272"><ele>496.6666666666667</ele><time>2026-04-04T11:11:43.999Z</time></trkpt><trkpt lat="43.650488217035196" lon="11.392925096676425"><ele>495.33333333333337</ele><time>2026-04-04T11:11:44.999Z</time></trkpt><trkpt lat="43.650518059857056" lon="11.393023643994772"><ele>494.0</ele><time>2026-04-04T11:11:45.999Z</time></trkpt><trkpt lat="43.65054667033742" lon="11.39313279934772"><ele>492.6666666666667</ele><time>2026-04-04T11:11:46.999Z</time></trkpt><trkpt lat="43.65058080981216" lon="11.393245366358338"><ele>491.33333333333337</ele><time>2026-04-04T11:11:47.999Z</time></trkpt><trkpt lat="43.650634459697756" lon="11.393347875737938"><ele>490.0</ele><time>2026-04-04T11:11:48.999Z</time></trkpt><trkpt lat="43.650700883245236" lon="11.393438405860959"><ele>490.0</ele><time>2026-04-04T11:11:49.999Z</time></trkpt><trkpt lat="43.650780398086305" lon="11.393513805072942"><ele>490.0</ele><time>2026-04-04T11:11:50.999Z</time></trkpt><trkpt lat="43.65086554544799" lon="11.39357388942092"><ele>490.0</ele><time>2026-04-04T11:11:51.999Z</time></trkpt><trkpt lat="43.65095932443593" lon="11.393607880749476"><ele>490.0</ele><time>2026-04-04T11:11:52.999Z</time></trkpt><trkpt lat="43.651050951681654" lon="11.393636602331334"><ele>490.0</ele><time>2026-04-04T11:11:53.999Z</time></trkpt><trkpt lat="43.65115080879796" lon="11.393649940224178"><ele>487.6</ele><time>2026-04-04T11:11:54.999Z</time></trkpt><trkpt lat="43.65124674379668" lon="11.393656262944264"><ele>485.2</ele><time>2026-04-04T11:11:55.999Z</time></trkpt><trkpt lat="43.651340726582355" lon="11.393665542966625"><ele>482.79999999999995</ele><time>2026-04-04T11:11:56.999Z</time></trkpt><trkpt lat="43.6514372102541" lon="11.39366864262685"><ele>480.4</ele><time>2026-04-04T11:11:57.999Z</time></trkpt><trkpt lat="43.65153505984411" lon="11.393664333179123"><ele>478.0</ele><time>2026-04-04T11:11:58.999Z</time></trkpt><trkpt lat="43.65163488672588" lon="11.393654737897045"><ele>478.0</ele><time>2026-04-04T11:11:59.999Z</time></trkpt><trkpt lat="43.651732855771876" lon="11.39364665378173"><ele>477.99999999999994</ele><time>2026-04-04T11:12:00.999Z</time></trkpt><trkpt lat="43.65183135388776" lon="11.39363465416149"><ele>477.99999999999994</ele><time>2026-04-04T11:12:01.999Z</time></trkpt><trkpt lat="43.65192990629095" lon="11.393620146325297"><ele>478.0</ele><time>2026-04-04T11:12:02.999Z</time></trkpt><trkpt lat="43.652027484495434" lon="11.39359408991118"><ele>478.0</ele><time>2026-04-04T11:12:03.999Z</time></trkpt><trkpt lat="43.65212107800159" lon="11.393565117121431"><ele>479.4</ele><time>2026-04-04T11:12:04.999Z</time></trkpt><trkpt lat="43.652208087202474" lon="11.3935181037718"><ele>480.79999999999995</ele><time>2026-04-04T11:12:05.999Z</time></trkpt><trkpt lat="43.65229004185302" lon="11.39345952765071"><ele>482.2</ele><time>2026-04-04T11:12:06.999Z</time></trkpt><trkpt lat="43.652365703814816" lon="11.393391133060764"><ele>483.6</ele><time>2026-04-04T11:12:07.999Z</time></trkpt><trkpt lat="43.65243574802051" lon="11.393307728436602"><ele>485.0</ele><time>2026-04-04T11:12:08.999Z</time></trkpt><trkpt lat="43.65249986048334" lon="11.3932129878936"><ele>485.0</ele><time>2026-04-04T11:12:09.999Z</time></trkpt><trkpt lat="43.65256657069304" lon="11.393114963700784"><ele>485.0</ele><time>2026-04-04T11:12:10.999Z</time></trkpt><trkpt lat="43.652633854532105" lon="11.393024841960214"><ele>485.0</ele><time>2026-04-04T11:12:11.999Z</time></trkpt><trkpt lat="43.65270581623712" lon="11.392929908155844"><ele>485.0</ele><time>2026-04-04T11:12:12.999Z</time></trkpt><trkpt lat="43.65277561841492" lon="11.39282549008893"><ele>485.0</ele><time>2026-04-04T11:12:13.999Z</time></trkpt><trkpt lat="43.65284828168898" lon="11.392734395528674"><ele>483.5</ele><time>2026-04-04T11:12:14.999Z</time></trkpt><trkpt lat="43.65292783001797" lon="11.392617590753497"><ele>482.0</ele><time>2026-04-04T11:12:15.999Z</time></trkpt><trkpt lat="43.65300364352662" lon="11.39250574322663"><ele>480.5</ele><time>2026-04-04T11:12:16.999Z</time></trkpt><trkpt lat="43.65308474007311" lon="11.392396649577604"><ele>479.0</ele><time>2026-04-04T11:12:17.999Z</time></trkpt><trkpt lat="43.653166633180234" lon="11.39228120878776"><ele>473.75</ele><time>2026-04-04T11:12:18.999Z</time></trkpt><trkpt lat="43.65325180162874" lon="11.392170075832157"><ele>468.5</ele><time>2026-04-04T11:12:19.999Z</time></trkpt><trkpt lat="43.65333563456443" lon="11.392057499359487"><ele>463.25</ele><time>2026-04-04T11:12:20.999Z</time></trkpt><trkpt lat="43.65341976979021" lon="11.39194261552312"><ele>458.0</ele><time>2026-04-04T11:12:21.999Z</time></trkpt><trkpt lat="43.65350879513257" lon="11.391819678565415"><ele>458.0</ele><time>2026-04-04T11:12:22.998Z</time></trkpt><trkpt lat="43.65359775150375" lon="11.391693806507426"><ele>458.0</ele><time>2026-04-04T11:12:23.998Z</time></trkpt><trkpt lat="43.65369308097812" lon="11.391580608593939"><ele>458.0</ele><time>2026-04-04T11:12:24.998Z</time></trkpt><trkpt lat="43.65380363341484" lon="11.391487108141803"><ele>458.0</ele><time>2026-04-04T11:12:25.998Z</time></trkpt><trkpt lat="43.65394246825224" lon="11.391482473747661"><ele>458.0</ele><time>2026-04-04T11:12:26.999Z</time></trkpt><trkpt lat="43.654067098430076" lon="11.391557995092231"><ele>458.0</ele><time>2026-04-04T11:12:27.999Z</time></trkpt><trkpt lat="43.65419328550142" lon="11.391651894933627"><ele>458.0</ele><time>2026-04-04T11:12:28.999Z</time></trkpt><trkpt lat="43.65431393935522" lon="11.391750000023379"><ele>458.0</ele><time>2026-04-04T11:12:29.999Z</time></trkpt><trkpt lat="43.65443830191899" lon="11.391841656482573"><ele>454.25</ele><time>2026-04-04T11:12:30.999Z</time></trkpt><trkpt lat="43.65456492656845" lon="11.391916128337904"><ele>450.5</ele><time>2026-04-04T11:12:31.999Z</time></trkpt><trkpt lat="43.654689308720215" lon="11.39198734221019"><ele>446.75</ele><time>2026-04-04T11:12:32.999Z</time></trkpt><trkpt lat="43.65481330419078" lon="11.392047593531009"><ele>443.0</ele><time>2026-04-04T11:12:33.999Z</time></trkpt><trkpt lat="43.654940193968244" lon="11.392115764307334"><ele>441.0</ele><time>2026-04-04T11:12:34.999Z</time></trkpt><trkpt lat="43.65506630338226" lon="11.392189513817554"><ele>439.0</ele><time>2026-04-04T11:12:35.999Z</time></trkpt><trkpt lat="43.65517837002651" lon="11.392295791441091"><ele>437.0</ele><time>2026-04-04T11:12:36.999Z</time></trkpt><trkpt lat="43.65528253252535" lon="11.392404845788402"><ele>435.0</ele><time>2026-04-04T11:12:37.999Z</time></trkpt><trkpt lat="43.65537746836996" lon="11.392541529721123"><ele>435.0</ele><time>2026-04-04T11:12:38.999Z</time></trkpt><trkpt lat="43.65543778646831" lon="11.392714506457228"><ele>435.0</ele><time>2026-04-04T11:12:39.999Z</time></trkpt><trkpt lat="43.65552120287722" lon="11.392871409609507"><ele>435.0</ele><time>2026-04-04T11:12:40.999Z</time></trkpt><trkpt lat="43.655578291832754" lon="11.393029927710467"><ele>435.0</ele><time>2026-04-04T11:12:41.999Z</time></trkpt><trkpt lat="43.65564723087424" lon="11.39316779836745"><ele>439.0</ele><time>2026-04-04T11:12:42.999Z</time></trkpt><trkpt lat="43.65574323089167" lon="11.393250372279189"><ele>443.0</ele><time>2026-04-04T11:12:43.999Z</time></trkpt><trkpt lat="43.65586737567159" lon="11.393251674482702"><ele>447.0</ele><time>2026-04-04T11:12:44.999Z</time></trkpt><trkpt lat="43.65598021184362" lon="11.393208481634897"><ele>451.0</ele><time>2026-04-04T11:12:45.999Z</time></trkpt><trkpt lat="43.65606697952095" lon="11.393132764648923"><ele>450.8</ele><time>2026-04-04T11:12:46.999Z</time></trkpt><trkpt lat="43.65613583833356" lon="11.39303082447558"><ele>450.6</ele><time>2026-04-04T11:12:47.999Z</time></trkpt><trkpt lat="43.65619875936741" lon="11.392923319764693"><ele>450.4</ele><time>2026-04-04T11:12:48.999Z</time></trkpt><trkpt lat="43.65625921584448" lon="11.392816469699312"><ele>450.2</ele><time>2026-04-04T11:12:49.999Z</time></trkpt><trkpt lat="43.65631693673485" lon="11.392703044991887"><ele>450.0</ele><time>2026-04-04T11:12:50.999Z</time></trkpt><trkpt lat="43.65637044598223" lon="11.39259192089076"><ele>450.0</ele><time>2026-04-04T11:12:51.999Z</time></trkpt><trkpt lat="43.656425248083785" lon="11.39248390015339"><ele>450.0</ele><time>2026-04-04T11:12:52.999Z</time></trkpt><trkpt lat="43.656484957355566" lon="11.39237336302308"><ele>450.0</ele><time>2026-04-04T11:12:53.999Z</time></trkpt><trkpt lat="43.65654294329562" lon="11.392264777103522"><ele>450.0</ele><time>2026-04-04T11:12:54.999Z</time></trkpt><trkpt lat="43.656600950475244" lon="11.392151774095689"><ele>450.0</ele><time>2026-04-04T11:12:55.999Z</time></trkpt><trkpt lat="43.65666015189052" lon="11.392041559066612"><ele>447.0</ele><time>2026-04-04T11:12:56.999Z</time></trkpt><trkpt lat="43.65672132767383" lon="11.39193048681086"><ele>444.0</ele><time>2026-04-04T11:12:57.999Z</time></trkpt><trkpt lat="43.65677928570049" lon="11.391816804565709"><ele>441.0</ele><time>2026-04-04T11:12:58.999Z</time></trkpt><trkpt lat="43.656837736655945" lon="11.391699541296363"><ele>438.0</ele><time>2026-04-04T11:12:59.999Z</time></trkpt><trkpt lat="43.65688927221234" lon="11.391578404051252"><ele>435.0</ele><time>2026-04-04T11:13:00.999Z</time></trkpt><trkpt lat="43.65693546394097" lon="11.391451973836004"><ele>440.0</ele><time>2026-04-04T11:13:01.999Z</time></trkpt><trkpt lat="43.656957850074456" lon="11.391307391092205"><ele>445.0</ele><time>2026-04-04T11:13:02.999Z</time></trkpt><trkpt lat="43.65696454465101" lon="11.391164787154667"><ele>450.0</ele><time>2026-04-04T11:13:03.999Z</time></trkpt><trkpt lat="43.65697052241348" lon="11.391014405160707"><ele>455.0</ele><time>2026-04-04T11:13:04.999Z</time></trkpt><trkpt lat="43.65698194479187" lon="11.390866113146776"><ele>460.0</ele><time>2026-04-04T11:13:05.999Z</time></trkpt><trkpt lat="43.656995288542774" lon="11.390715278156494"><ele>460.0</ele><time>2026-04-04T11:13:06.999Z</time></trkpt><trkpt lat="43.65702418497361" lon="11.390569735485348"><ele>460.0</ele><time>2026-04-04T11:13:07.999Z</time></trkpt><trkpt lat="43.65705217190196" lon="11.39042441594981"><ele>460.0</ele><time>2026-04-04T11:13:08.999Z</time></trkpt><trkpt lat="43.65708686635754" lon="11.390278867270132"><ele>460.0</ele><time>2026-04-04T11:13:09.999Z</time></trkpt><trkpt lat="43.657121018117095" lon="11.39012759915967"><ele>460.0</ele><time>2026-04-04T11:13:10.999Z</time></trkpt><trkpt lat="43.65713952486262" lon="11.389972690660123"><ele>456.5</ele><time>2026-04-04T11:13:11.999Z</time></trkpt><trkpt lat="43.65715402889397" lon="11.389804738549236"><ele>453.0</ele><time>2026-04-04T11:13:12.999Z</time></trkpt><trkpt lat="43.657147608952506" lon="11.389632405188866"><ele>449.5</ele><time>2026-04-04T11:13:13.999Z</time></trkpt><trkpt lat="43.65712848252809" lon="11.38946163758139"><ele>446.0</ele><time>2026-04-04T11:13:14.999Z</time></trkpt><trkpt lat="43.65710732317561" lon="11.389287893867763"><ele>443.75</ele><time>2026-04-04T11:13:15.999Z</time></trkpt><trkpt lat="43.65708569007819" lon="11.389113252701431"><ele>441.5</ele><time>2026-04-04T11:13:16.999Z</time></trkpt><trkpt lat="43.65707165734529" lon="11.388937735111753"><ele>439.25</ele><time>2026-04-04T11:13:17.999Z</time></trkpt><trkpt lat="43.6570711568746" lon="11.388757937790158"><ele>437.0</ele><time>2026-04-04T11:13:18.999Z</time></trkpt><trkpt lat="43.657099401462276" lon="11.388579670859261"><ele>434.25</ele><time>2026-04-04T11:13:19.999Z</time></trkpt><trkpt lat="43.65718064555464" lon="11.388427079589395"><ele>431.5</ele><time>2026-04-04T11:13:20.999Z</time></trkpt><trkpt lat="43.6572518930198" lon="11.388266808398006"><ele>428.75</ele><time>2026-04-04T11:13:21.999Z</time></trkpt><trkpt lat="43.65731213332837" lon="11.388098582256937"><ele>426.0</ele><time>2026-04-04T11:13:22.999Z</time></trkpt><trkpt lat="43.65735415823718" lon="11.38791859500707"><ele>424.75</ele><time>2026-04-04T11:13:23.999Z</time></trkpt><trkpt lat="43.65735087992902" lon="11.387720820675387"><ele>423.5</ele><time>2026-04-04T11:13:24.999Z</time></trkpt><trkpt lat="43.657339918177435" lon="11.387529291458996"><ele>422.25</ele><time>2026-04-04T11:13:25.999Z</time></trkpt><trkpt lat="43.65733019214087" lon="11.387339389896729"><ele>421.0</ele><time>2026-04-04T11:13:26.999Z</time></trkpt><trkpt lat="43.657320193128974" lon="11.38714473967742"><ele>419.75</ele><time>2026-04-04T11:13:27.999Z</time></trkpt><trkpt lat="43.65731152531138" lon="11.386953683122325"><ele>418.5</ele><time>2026-04-04T11:13:28.999Z</time></trkpt><trkpt lat="43.6572978919579" lon="11.386761813490027"><ele>417.25</ele><time>2026-04-04T11:13:29.999Z</time></trkpt><trkpt lat="43.65728492707994" lon="11.386568289986002"><ele>416.0</ele><time>2026-04-04T11:13:30.999Z</time></trkpt><trkpt lat="43.65727782694651" lon="11.38637693132868"><ele>413.25</ele><time>2026-04-04T11:13:31.999Z</time></trkpt><trkpt lat="43.657266231498" lon="11.38618706552567"><ele>410.5</ele><time>2026-04-04T11:13:32.999Z</time></trkpt><trkpt lat="43.65725168530404" lon="11.385997540086437"><ele>407.75</ele><time>2026-04-04T11:13:33.999Z</time></trkpt><trkpt lat="43.65724216898355" lon="11.385806236657793"><ele>405.0</ele><time>2026-04-04T11:13:34.999Z</time></trkpt><trkpt lat="43.65724305489593" lon="11.385614089512305"><ele>399.75</ele><time>2026-04-04T11:13:35.999Z</time></trkpt><trkpt lat="43.657266846222086" lon="11.385424836179418"><ele>394.5</ele><time>2026-04-04T11:13:36.999Z</time></trkpt><trkpt lat="43.65731374314493" lon="11.385243480672468"><ele>389.25</ele><time>2026-04-04T11:13:37.999Z</time></trkpt><trkpt lat="43.65739338047162" lon="11.38508233098709"><ele>384.0</ele><time>2026-04-04T11:13:38.999Z</time></trkpt><trkpt lat="43.65749239228173" lon="11.384941228106264"><ele>384.0</ele><time>2026-04-04T11:13:39.999Z</time></trkpt><trkpt lat="43.65759922116266" lon="11.38481128857216"><ele>384.0</ele><time>2026-04-04T11:13:40.999Z</time></trkpt><trkpt lat="43.65770245314593" lon="11.38468035873567"><ele>384.0</ele><time>2026-04-04T11:13:41.999Z</time></trkpt><trkpt lat="43.65781033086926" lon="11.3845505825446"><ele>384.0</ele><time>2026-04-04T11:13:42.999Z</time></trkpt><trkpt lat="43.65791867495227" lon="11.384427792802509"><ele>385.25</ele><time>2026-04-04T11:13:43.999Z</time></trkpt><trkpt lat="43.65802352666636" lon="11.38429485627158"><ele>386.5</ele><time>2026-04-04T11:13:44.999Z</time></trkpt><trkpt lat="43.658115449939416" lon="11.384145918139442"><ele>387.75</ele><time>2026-04-04T11:13:45.999Z</time></trkpt><trkpt lat="43.65818506632999" lon="11.383972751582151"><ele>389.0</ele><time>2026-04-04T11:13:46.999Z</time></trkpt><trkpt lat="43.65822908991527" lon="11.3837794989009"><ele>385.5</ele><time>2026-04-04T11:13:47.999Z</time></trkpt><trkpt lat="43.65825826875955" lon="11.383583323297808"><ele>382.0</ele><time>2026-04-04T11:13:48.999Z</time></trkpt><trkpt lat="43.65828280531891" lon="11.383389752130503"><ele>378.5</ele><time>2026-04-04T11:13:49.999Z</time></trkpt><trkpt lat="43.65832206920709" lon="11.383197323167256"><ele>375.0</ele><time>2026-04-04T11:13:50.999Z</time></trkpt><trkpt lat="43.65837113419738" lon="11.383010124915126"><ele>370.6666666666667</ele><time>2026-04-04T11:13:51.999Z</time></trkpt><trkpt lat="43.658436206778866" lon="11.382824214279248"><ele>366.33333333333337</ele><time>2026-04-04T11:13:52.999Z</time></trkpt><trkpt lat="43.65849814975427" lon="11.382640472233097"><ele>362.0</ele><time>2026-04-04T11:13:53.999Z</time></trkpt><trkpt lat="43.658564561388914" lon="11.382447151274137"><ele>368.33333333333337</ele><time>2026-04-04T11:13:54.999Z</time></trkpt><trkpt lat="43.65862281280216" lon="11.38226042428092"><ele>374.6666666666667</ele><time>2026-04-04T11:13:55.999Z</time></trkpt><trkpt lat="43.65868009970949" lon="11.38205493621241"><ele>381.0</ele><time>2026-04-04T11:13:56.999Z</time></trkpt><trkpt lat="43.658729732372265" lon="11.381855328418942"><ele>381.0</ele><time>2026-04-04T11:13:57.999Z</time></trkpt><trkpt lat="43.65876000971374" lon="11.381649426565625"><ele>381.0</ele><time>2026-04-04T11:13:58.999Z</time></trkpt><trkpt lat="43.65877228968397" lon="11.381446706252985"><ele>381.0</ele><time>2026-04-04T11:13:59.999Z</time></trkpt><trkpt lat="43.658792754515616" lon="11.381241301348203"><ele>381.0</ele><time>2026-04-04T11:14:00.999Z</time></trkpt><trkpt lat="43.6588045293671" lon="11.381041704372034"><ele>379.0</ele><time>2026-04-04T11:14:01.999Z</time></trkpt><trkpt lat="43.65882186555493" lon="11.380846106321377"><ele>377.0</ele><time>2026-04-04T11:14:02.999Z</time></trkpt><trkpt lat="43.6588415134829" lon="11.380653378405116"><ele>375.0</ele><time>2026-04-04T11:14:03.999Z</time></trkpt><trkpt lat="43.6588579076536" lon="11.380466095771434"><ele>373.0</ele><time>2026-04-04T11:14:04.999Z</time></trkpt><trkpt lat="43.65887481112039" lon="11.380281852730084"><ele>371.5</ele><time>2026-04-04T11:14:05.999Z</time></trkpt><trkpt lat="43.65889128113765" lon="11.380099632486031"><ele>370.0</ele><time>2026-04-04T11:14:06.999Z</time></trkpt><trkpt lat="43.65891322084076" lon="11.379920316057795"><ele>368.5</ele><time>2026-04-04T11:14:07.999Z</time></trkpt><trkpt lat="43.65892884849309" lon="11.379741504825645"><ele>367.0</ele><time>2026-04-04T11:14:08.999Z</time></trkpt><trkpt lat="43.65894341446098" lon="11.379562445463764"><ele>363.75</ele><time>2026-04-04T11:14:09.999Z</time></trkpt><trkpt lat="43.65895231335801" lon="11.37938119466253"><ele>360.5</ele><time>2026-04-04T11:14:10.999Z</time></trkpt><trkpt lat="43.65896747002174" lon="11.379201161038296"><ele>357.25</ele><time>2026-04-04T11:14:11.999Z</time></trkpt><trkpt lat="43.65898635466548" lon="11.379019898678244"><ele>354.0</ele><time>2026-04-04T11:14:12.999Z</time></trkpt><trkpt lat="43.65899416991137" lon="11.378834750072413"><ele>351.0</ele><time>2026-04-04T11:14:13.999Z</time></trkpt><trkpt lat="43.659004866681656" lon="11.378641680708299"><ele>348.0</ele><time>2026-04-04T11:14:14.999Z</time></trkpt><trkpt lat="43.65903339901943" lon="11.378446376363103"><ele>345.0</ele><time>2026-04-04T11:14:15.999Z</time></trkpt><trkpt lat="43.65908902829128" lon="11.37828021560955"><ele>342.0</ele><time>2026-04-04T11:14:16.999Z</time></trkpt><trkpt lat="43.65912870676289" lon="11.378105509900184"><ele>339.75</ele><time>2026-04-04T11:14:17.999Z</time></trkpt><trkpt lat="43.65918741338406" lon="11.377936234574296"><ele>337.5</ele><time>2026-04-04T11:14:18.999Z</time></trkpt><trkpt lat="43.65924963569345" lon="11.377782097565838"><ele>335.25</ele><time>2026-04-04T11:14:19.999Z</time></trkpt><trkpt lat="43.65931231474395" lon="11.377626191124495"><ele>333.0</ele><time>2026-04-04T11:14:20.999Z</time></trkpt><trkpt lat="43.659378032810615" lon="11.377476113323942"><ele>333.0</ele><time>2026-04-04T11:14:21.999Z</time></trkpt><trkpt lat="43.65944228594028" lon="11.377316148142334"><ele>333.0</ele><time>2026-04-04T11:14:22.999Z</time></trkpt><trkpt lat="43.65951009345413" lon="11.377157588145238"><ele>333.0</ele><time>2026-04-04T11:14:23.998Z</time></trkpt><trkpt lat="43.65958509629948" lon="11.377003644830342"><ele>333.0</ele><time>2026-04-04T11:14:24.998Z</time></trkpt><trkpt lat="43.659650107587034" lon="11.376846004789916"><ele>333.0</ele><time>2026-04-04T11:14:25.998Z</time></trkpt><trkpt lat="43.65971492580017" lon="11.376690307333009"><ele>333.0</ele><time>2026-04-04T11:14:26.998Z</time></trkpt><trkpt lat="43.65978180442956" lon="11.376535394156317"><ele>333.0</ele><time>2026-04-04T11:14:27.998Z</time></trkpt><trkpt lat="43.65984455608316" lon="11.376374600791364"><ele>333.0</ele><time>2026-04-04T11:14:28.998Z</time></trkpt><trkpt lat="43.659910971188175" lon="11.376210342665221"><ele>330.5</ele><time>2026-04-04T11:14:29.998Z</time></trkpt><trkpt lat="43.65998260148746" lon="11.376039270701323"><ele>328.0</ele><time>2026-04-04T11:14:30.998Z</time></trkpt><trkpt lat="43.66006659944762" lon="11.375887638348413"><ele>325.5</ele><time>2026-04-04T11:14:31.998Z</time></trkpt><trkpt lat="43.66015902922181" lon="11.375733387465123"><ele>323.0</ele><time>2026-04-04T11:14:33Z</time></trkpt><trkpt lat="43.66025843776835" lon="11.375584713975897"><ele>324.0</ele><time>2026-04-04T11:14:34Z</time></trkpt><trkpt lat="43.66035389530546" lon="11.375422392927417"><ele>325.0</ele><time>2026-04-04T11:14:35Z</time></trkpt><trkpt lat="43.660451359953406" lon="11.375266143736713"><ele>326.0</ele><time>2026-04-04T11:14:36Z</time></trkpt><trkpt lat="43.66054654243624" lon="11.375105716231898"><ele>326.0</ele><time>2026-04-04T11:14:37Z</time></trkpt><trkpt lat="43.660644106399204" lon="11.374942994285764"><ele>326.0</ele><time>2026-04-04T11:14:38Z</time></trkpt><trkpt lat="43.660743429737245" lon="11.374780986748094"><ele>326.0</ele><time>2026-04-04T11:14:39Z</time></trkpt><trkpt lat="43.66083967756167" lon="11.37460991305895"><ele>321.33333333333337</ele><time>2026-04-04T11:14:40Z</time></trkpt><trkpt lat="43.66093230539377" lon="11.374433812337967"><ele>316.6666666666667</ele><time>2026-04-04T11:14:41Z</time></trkpt><trkpt lat="43.6610214273111" lon="11.374263529668507"><ele>312.0</ele><time>2026-04-04T11:14:42Z</time></trkpt><trkpt lat="43.66110876238567" lon="11.374086516224681"><ele>314.3333333333333</ele><time>2026-04-04T11:14:43Z</time></trkpt><trkpt lat="43.66117577709256" lon="11.373890487268364"><ele>316.66666666666663</ele><time>2026-04-04T11:14:44Z</time></trkpt><trkpt lat="43.66125195716595" lon="11.373705199740435"><ele>319.0</ele><time>2026-04-04T11:14:45Z</time></trkpt><trkpt lat="43.661335403300455" lon="11.37353773811484"><ele>319.0</ele><time>2026-04-04T11:14:46Z</time></trkpt><trkpt lat="43.66142819813199" lon="11.373351331909065"><ele>319.0</ele><time>2026-04-04T11:14:47Z</time></trkpt><trkpt lat="43.66152000732536" lon="11.373183642023719"><ele>319.0</ele><time>2026-04-04T11:14:48Z</time></trkpt><trkpt lat="43.661619432555945" lon="11.373006838532998"><ele>313.3333333333333</ele><time>2026-04-04T11:14:49Z</time></trkpt><trkpt lat="43.661716192553214" lon="11.372828423519943"><ele>307.6666666666667</ele><time>2026-04-04T11:14:50Z</time></trkpt><trkpt lat="43.66181188384873" lon="11.372662063215945"><ele>302.0</ele><time>2026-04-04T11:14:51Z</time></trkpt><trkpt lat="43.66190658622439" lon="11.372500518733563"><ele>300.0</ele><time>2026-04-04T11:14:52Z</time></trkpt><trkpt lat="43.662014549380764" lon="11.372354890664818"><ele>298.0</ele><time>2026-04-04T11:14:53Z</time></trkpt><trkpt lat="43.662107123840784" lon="11.372202084258491"><ele>296.0</ele><time>2026-04-04T11:14:54Z</time></trkpt><trkpt lat="43.66224199803151" lon="11.372092542847303"><ele>296.0</ele><time>2026-04-04T11:14:55Z</time></trkpt><trkpt lat="43.66235511851161" lon="11.371959594900533"><ele>296.0</ele><time>2026-04-04T11:14:56Z</time></trkpt><trkpt lat="43.66247659804602" lon="11.371846582059975"><ele>296.0</ele><time>2026-04-04T11:14:57Z</time></trkpt><trkpt lat="43.66258658397928" lon="11.37172562406259"><ele>296.0</ele><time>2026-04-04T11:14:58Z</time></trkpt><trkpt lat="43.66269140154234" lon="11.371595800171708"><ele>296.0</ele><time>2026-04-04T11:14:59Z</time></trkpt><trkpt lat="43.662779039362384" lon="11.371439844506668"><ele>296.0</ele><time>2026-04-04T11:15:00Z</time></trkpt><trkpt lat="43.66286090955162" lon="11.371282843138145"><ele>296.0</ele><time>2026-04-04T11:15:01Z</time></trkpt><trkpt lat="43.662928643373164" lon="11.371121533204441"><ele>296.0</ele><time>2026-04-04T11:15:02Z</time></trkpt><trkpt lat="43.66300327552504" lon="11.370973005568395"><ele>295.25</ele><time>2026-04-04T11:15:03Z</time></trkpt><trkpt lat="43.66307666794336" lon="11.370822871089446"><ele>294.5</ele><time>2026-04-04T11:15:04Z</time></trkpt><trkpt lat="43.66315175273942" lon="11.370675561600144"><ele>293.75</ele><time>2026-04-04T11:15:05Z</time></trkpt><trkpt lat="43.66322684399143" lon="11.370543459427493"><ele>293.0</ele><time>2026-04-04T11:15:06Z</time></trkpt><trkpt lat="43.66330946571248" lon="11.370427457030589"><ele>293.0</ele><time>2026-04-04T11:15:07Z</time></trkpt><trkpt lat="43.66341703359975" lon="11.370369454388172"><ele>293.0</ele><time>2026-04-04T11:15:08Z</time></trkpt><trkpt lat="43.66353212747983" lon="11.370375517141785"><ele>293.0</ele><time>2026-04-04T11:15:09Z</time></trkpt><trkpt lat="43.66364224015841" lon="11.370388620703608"><ele>293.0</ele><time>2026-04-04T11:15:10Z</time></trkpt><trkpt lat="43.66374979024353" lon="11.370397700215232"><ele>293.0</ele><time>2026-04-04T11:15:11Z</time></trkpt><trkpt lat="43.66384686556716" lon="11.370434355441951"><ele>292.8</ele><time>2026-04-04T11:15:12Z</time></trkpt><trkpt lat="43.66394789101312" lon="11.370465029049159"><ele>292.6</ele><time>2026-04-04T11:15:13Z</time></trkpt><trkpt lat="43.6640471344549" lon="11.370487297709204"><ele>292.4</ele><time>2026-04-04T11:15:14Z</time></trkpt><trkpt lat="43.66414891516979" lon="11.370509681870182"><ele>292.2</ele><time>2026-04-04T11:15:15Z</time></trkpt><trkpt lat="43.66424733517314" lon="11.370537616044784"><ele>292.0</ele><time>2026-04-04T11:15:16Z</time></trkpt><trkpt lat="43.66434832545109" lon="11.37055830917626"><ele>287.6</ele><time>2026-04-04T11:15:17Z</time></trkpt><trkpt lat="43.66444899079168" lon="11.370585130817856"><ele>283.2</ele><time>2026-04-04T11:15:18Z</time></trkpt><trkpt lat="43.66455333244778" lon="11.37059859608033"><ele>278.8</ele><time>2026-04-04T11:15:19Z</time></trkpt><trkpt lat="43.66465461104766" lon="11.370608025943806"><ele>274.4</ele><time>2026-04-04T11:15:20Z</time></trkpt><trkpt lat="43.66475578930949" lon="11.370613441701886"><ele>270.0</ele><time>2026-04-04T11:15:21Z</time></trkpt><trkpt lat="43.6648537719951" lon="11.37060901540759"><ele>270.0</ele><time>2026-04-04T11:15:22Z</time></trkpt><trkpt lat="43.66494781621358" lon="11.370601267890642"><ele>270.0</ele><time>2026-04-04T11:15:23Z</time></trkpt><trkpt lat="43.66503536623158" lon="11.370570682855865"><ele>270.0</ele><time>2026-04-04T11:15:24Z</time></trkpt><trkpt lat="43.66511717099653" lon="11.370516530609283"><ele>270.0</ele><time>2026-04-04T11:15:25Z</time></trkpt><trkpt lat="43.665189624568036" lon="11.370446389298053"><ele>270.0</ele><time>2026-04-04T11:15:25.999Z</time></trkpt><trkpt lat="43.665254183814746" lon="11.37036869822175"><ele>270.0</ele><time>2026-04-04T11:15:26.999Z</time></trkpt><trkpt lat="43.66530925748048" lon="11.370281733019041"><ele>269.3333333333333</ele><time>2026-04-04T11:15:27.999Z</time></trkpt><trkpt lat="43.66537066225792" lon="11.370196992524322"><ele>268.6666666666667</ele><time>2026-04-04T11:15:28.999Z</time></trkpt><trkpt lat="43.66542688373444" lon="11.370110564227117"><ele>268.0</ele><time>2026-04-04T11:15:29.999Z</time></trkpt><trkpt lat="43.665485507540744" lon="11.370021038054452"><ele>267.33333333333337</ele><time>2026-04-04T11:15:30.999Z</time></trkpt><trkpt lat="43.66554031895547" lon="11.369931234855832"><ele>266.6666666666667</ele><time>2026-04-04T11:15:31.999Z</time></trkpt><trkpt lat="43.665598525253024" lon="11.36984154499965"><ele>266.0</ele><time>2026-04-04T11:15:32.999Z</time></trkpt><trkpt lat="43.66565241985038" lon="11.369748040329064"><ele>267.1666666666667</ele><time>2026-04-04T11:15:33.999Z</time></trkpt><trkpt lat="43.66570906628119" lon="11.369661205237493"><ele>268.33333333333337</ele><time>2026-04-04T11:15:34.999Z</time></trkpt><trkpt lat="43.66576961332416" lon="11.3695770585848"><ele>269.5</ele><time>2026-04-04T11:15:35.999Z</time></trkpt><trkpt lat="43.66582818134494" lon="11.369498278279135"><ele>270.6666666666667</ele><time>2026-04-04T11:15:36.999Z</time></trkpt><trkpt lat="43.665889375923726" lon="11.369417978769194"><ele>271.8333333333333</ele><time>2026-04-04T11:15:37.999Z</time></trkpt><trkpt lat="43.665952067668734" lon="11.369335075619427"><ele>273.0</ele><time>2026-04-04T11:15:38.999Z</time></trkpt><trkpt lat="43.66602192981193" lon="11.36925993558438"><ele>273.0</ele><time>2026-04-04T11:15:39.999Z</time></trkpt><trkpt lat="43.66609603425681" lon="11.369185760259013"><ele>273.0</ele><time>2026-04-04T11:15:40.999Z</time></trkpt><trkpt lat="43.66617901371577" lon="11.369117180832463"><ele>273.0</ele><time>2026-04-04T11:15:41.999Z</time></trkpt><trkpt lat="43.666266906324175" lon="11.369051627843296"><ele>273.0</ele><time>2026-04-04T11:15:42.999Z</time></trkpt><trkpt lat="43.66635914010268" lon="11.368982129048527"><ele>273.0</ele><time>2026-04-04T11:15:43.999Z</time></trkpt><trkpt lat="43.66645084122935" lon="11.368914520142205"><ele>270.8</ele><time>2026-04-04T11:15:44.999Z</time></trkpt><trkpt lat="43.666543682028724" lon="11.368843545078526"><ele>268.6</ele><time>2026-04-04T11:15:45.999Z</time></trkpt><trkpt lat="43.66663602211207" lon="11.368770903757314"><ele>266.4</ele><time>2026-04-04T11:15:46.999Z</time></trkpt><trkpt lat="43.66673009293849" lon="11.368696562336279"><ele>264.2</ele><time>2026-04-04T11:15:47.999Z</time></trkpt><trkpt lat="43.66682481819808" lon="11.368621893848484"><ele>262.0</ele><time>2026-04-04T11:15:48.999Z</time></trkpt><trkpt lat="43.66692056870589" lon="11.368547193726583"><ele>261.0</ele><time>2026-04-04T11:15:49.999Z</time></trkpt><trkpt lat="43.667016777252705" lon="11.368472890855141"><ele>260.0</ele><time>2026-04-04T11:15:50.999Z</time></trkpt><trkpt lat="43.66710654100443" lon="11.368404571162797"><ele>259.0</ele><time>2026-04-04T11:15:51.999Z</time></trkpt><trkpt lat="43.667196663128124" lon="11.36833436054328"><ele>258.0</ele><time>2026-04-04T11:15:52.999Z</time></trkpt><trkpt lat="43.66728350814363" lon="11.368268586913283"><ele>257.0</ele><time>2026-04-04T11:15:53.999Z</time></trkpt><trkpt lat="43.667365838559384" lon="11.368202512313356"><ele>257.0</ele><time>2026-04-04T11:15:54.999Z</time></trkpt><trkpt lat="43.66744586992492" lon="11.36813699801234"><ele>257.0</ele><time>2026-04-04T11:15:55.999Z</time></trkpt><trkpt lat="43.667521306939065" lon="11.368072216521655"><ele>257.0</ele><time>2026-04-04T11:15:56.999Z</time></trkpt><trkpt lat="43.66759256980401" lon="11.368003739987767"><ele>257.0</ele><time>2026-04-04T11:15:57.999Z</time></trkpt><trkpt lat="43.66765868426474" lon="11.367932911060274"><ele>257.0</ele><time>2026-04-04T11:15:58.999Z</time></trkpt><trkpt lat="43.66771559953296" lon="11.367852970077504"><ele>257.0</ele><time>2026-04-04T11:15:59.999Z</time></trkpt><trkpt lat="43.66777075304773" lon="11.367773439068051"><ele>257.6666666666667</ele><time>2026-04-04T11:16:00.999Z</time></trkpt><trkpt lat="43.6678207418127" lon="11.367685545164713"><ele>258.33333333333337</ele><time>2026-04-04T11:16:01.999Z</time></trkpt><trkpt lat="43.667863826218905" lon="11.367593810040766"><ele>259.0</ele><time>2026-04-04T11:16:02.999Z</time></trkpt><trkpt lat="43.66790469874188" lon="11.36749193581065"><ele>259.6666666666667</ele><time>2026-04-04T11:16:03.999Z</time></trkpt><trkpt lat="43.66794100260641" lon="11.36739501851589"><ele>260.3333333333333</ele><time>2026-04-04T11:16:04.999Z</time></trkpt><trkpt lat="43.66797543184372" lon="11.367298393882036"><ele>261.0</ele><time>2026-04-04T11:16:05.999Z</time></trkpt><trkpt lat="43.668007211581724" lon="11.367201220473643"><ele>259.3333333333333</ele><time>2026-04-04T11:16:06.999Z</time></trkpt><trkpt lat="43.668040352563075" lon="11.36710636901373"><ele>257.6666666666667</ele><time>2026-04-04T11:16:07.999Z</time></trkpt><trkpt lat="43.66807661932341" lon="11.367012179049002"><ele>256.0</ele><time>2026-04-04T11:16:08.999Z</time></trkpt><trkpt lat="43.6681154126106" lon="11.366921296933151"><ele>254.33333333333334</ele><time>2026-04-04T11:16:09.999Z</time></trkpt><trkpt lat="43.668154517616586" lon="11.366829190431883"><ele>252.66666666666669</ele><time>2026-04-04T11:16:10.999Z</time></trkpt><trkpt lat="43.66818791858268" lon="11.366732769548927"><ele>251.0</ele><time>2026-04-04T11:16:11.999Z</time></trkpt><trkpt lat="43.66822152234162" lon="11.366636787441074"><ele>251.00000000000003</ele><time>2026-04-04T11:16:12.999Z</time></trkpt><trkpt lat="43.66825696026719" lon="11.36653981831973"><ele>251.0</ele><time>2026-04-04T11:16:13.999Z</time></trkpt><trkpt lat="43.66829469679196" lon="11.366443563702441"><ele>251.0</ele><time>2026-04-04T11:16:14.999Z</time></trkpt><trkpt lat="43.66832898352162" lon="11.366349522155426"><ele>251.0</ele><time>2026-04-04T11:16:15.999Z</time></trkpt><trkpt lat="43.66836546448747" lon="11.36624676577674"><ele>251.00000000000003</ele><time>2026-04-04T11:16:16.999Z</time></trkpt><trkpt lat="43.668405577507734" lon="11.366150815220204"><ele>251.0</ele><time>2026-04-04T11:16:17.999Z</time></trkpt><trkpt lat="43.668447468545104" lon="11.366051896612817"><ele>251.00000000000003</ele><time>2026-04-04T11:16:18.999Z</time></trkpt><trkpt lat="43.66848400002428" lon="11.365951208241968"><ele>251.0</ele><time>2026-04-04T11:16:19.999Z</time></trkpt><trkpt lat="43.66852634599896" lon="11.365848609332222"><ele>251.0</ele><time>2026-04-04T11:16:20.999Z</time></trkpt><trkpt lat="43.668563497329664" lon="11.365749431681673"><ele>251.0</ele><time>2026-04-04T11:16:21.999Z</time></trkpt><trkpt lat="43.66860385804213" lon="11.365654921647709"><ele>251.00000000000003</ele><time>2026-04-04T11:16:22.999Z</time></trkpt><trkpt lat="43.66864613113568" lon="11.365557899704038"><ele>251.0</ele><time>2026-04-04T11:16:23.999Z</time></trkpt><trkpt lat="43.66868958234581" lon="11.365462922116016"><ele>250.16666666666669</ele><time>2026-04-04T11:16:24.999Z</time></trkpt><trkpt lat="43.66873191233912" lon="11.365370456987268"><ele>249.33333333333334</ele><time>2026-04-04T11:16:25.999Z</time></trkpt><trkpt lat="43.66878289062569" lon="11.365278938433956"><ele>248.5</ele><time>2026-04-04T11:16:26.999Z</time></trkpt><trkpt lat="43.66883528544155" lon="11.365189154489368"><ele>247.66666666666669</ele><time>2026-04-04T11:16:27.999Z</time></trkpt><trkpt lat="43.66888638293801" lon="11.365101380603813"><ele>246.83333333333334</ele><time>2026-04-04T11:16:28.999Z</time></trkpt><trkpt lat="43.66894449802846" lon="11.365017462657345"><ele>246.0</ele><time>2026-04-04T11:16:29.999Z</time></trkpt><trkpt lat="43.669003908983996" lon="11.36493653398836"><ele>246.0</ele><time>2026-04-04T11:16:30.999Z</time></trkpt><trkpt lat="43.66906346152158" lon="11.364857331784657"><ele>246.0</ele><time>2026-04-04T11:16:31.999Z</time></trkpt><trkpt lat="43.669125794706154" lon="11.364782604299064"><ele>246.0</ele><time>2026-04-04T11:16:32.999Z</time></trkpt><trkpt lat="43.66918664263176" lon="11.364707718067171"><ele>246.0</ele><time>2026-04-04T11:16:33.999Z</time></trkpt><trkpt lat="43.66924666528854" lon="11.364632957267089"><ele>246.0</ele><time>2026-04-04T11:16:34.999Z</time></trkpt><trkpt lat="43.66930916569268" lon="11.364556280141455"><ele>246.0</ele><time>2026-04-04T11:16:35.999Z</time></trkpt><trkpt lat="43.669372254432" lon="11.364482984033069"><ele>245.83333333333334</ele><time>2026-04-04T11:16:36.999Z</time></trkpt><trkpt lat="43.66943163196929" lon="11.364408836559026"><ele>245.66666666666669</ele><time>2026-04-04T11:16:37.999Z</time></trkpt><trkpt lat="43.66949182649752" lon="11.364335743276627"><ele>245.5</ele><time>2026-04-04T11:16:39Z</time></trkpt><trkpt lat="43.66954982713061" lon="11.364264064016528"><ele>245.33333333333334</ele><time>2026-04-04T11:16:40Z</time></trkpt><trkpt lat="43.66960953416975" lon="11.364196455639698"><ele>245.16666666666669</ele><time>2026-04-04T11:16:41Z</time></trkpt><trkpt lat="43.669665230280565" lon="11.36412756727348"><ele>245.0</ele><time>2026-04-04T11:16:42Z</time></trkpt><trkpt lat="43.669719178282925" lon="11.364059482568186"><ele>245.0</ele><time>2026-04-04T11:16:43Z</time></trkpt><trkpt lat="43.66977149642395" lon="11.363991899199435"><ele>245.0</ele><time>2026-04-04T11:16:44Z</time></trkpt><trkpt lat="43.669820518803924" lon="11.363922000006012"><ele>245.0</ele><time>2026-04-04T11:16:45Z</time></trkpt><trkpt lat="43.66987259788011" lon="11.363849829951706"><ele>245.0</ele><time>2026-04-04T11:16:46Z</time></trkpt><trkpt lat="43.66991599300834" lon="11.363765540337425"><ele>245.0</ele><time>2026-04-04T11:16:47Z</time></trkpt><trkpt lat="43.669954463116355" lon="11.363677782662492"><ele>245.0</ele><time>2026-04-04T11:16:48Z</time></trkpt><trkpt lat="43.669989760265786" lon="11.363582895307664"><ele>245.0</ele><time>2026-04-04T11:16:49Z</time></trkpt><trkpt lat="43.67001852974233" lon="11.363487846957034"><ele>244.66666666666669</ele><time>2026-04-04T11:16:50Z</time></trkpt><trkpt lat="43.67004171658077" lon="11.363392982418715"><ele>244.33333333333334</ele><time>2026-04-04T11:16:51Z</time></trkpt><trkpt lat="43.67007276857106" lon="11.363288898644347"><ele>244.0</ele><time>2026-04-04T11:16:52Z</time></trkpt><trkpt lat="43.67009861260915" lon="11.363185691926672"><ele>243.66666666666669</ele><time>2026-04-04T11:16:53Z</time></trkpt><trkpt lat="43.67012119271119" lon="11.363085116444454"><ele>243.33333333333334</ele><time>2026-04-04T11:16:54Z</time></trkpt><trkpt lat="43.670146649481374" lon="11.362983740909161"><ele>243.0</ele><time>2026-04-04T11:16:55Z</time></trkpt><trkpt lat="43.67016853403513" lon="11.362882274863125"><ele>243.0</ele><time>2026-04-04T11:16:56Z</time></trkpt><trkpt lat="43.67019094290488" lon="11.362781792659568"><ele>243.0</ele><time>2026-04-04T11:16:57Z</time></trkpt><trkpt lat="43.67021664510347" lon="11.36268161924279"><ele>243.0</ele><time>2026-04-04T11:16:58Z</time></trkpt><trkpt lat="43.67024108153655" lon="11.36257996058568"><ele>243.0</ele><time>2026-04-04T11:16:59Z</time></trkpt><trkpt lat="43.67026673978065" lon="11.362479360217598"><ele>243.0</ele><time>2026-04-04T11:17:00Z</time></trkpt><trkpt lat="43.670291024850215" lon="11.36237859254191"><ele>243.0</ele><time>2026-04-04T11:17:01Z</time></trkpt><trkpt lat="43.67031644110163" lon="11.362277518630655"><ele>242.0</ele><time>2026-04-04T11:17:02Z</time></trkpt><trkpt lat="43.670341445348186" lon="11.36217519271153"><ele>241.0</ele><time>2026-04-04T11:17:03Z</time></trkpt><trkpt lat="43.67036597823645" lon="11.36207115313737"><ele>240.0</ele><time>2026-04-04T11:17:04Z</time></trkpt><trkpt lat="43.67039282733718" lon="11.36196486924184"><ele>239.0</ele><time>2026-04-04T11:17:05Z</time></trkpt><trkpt lat="43.67041873956766" lon="11.361859599870218"><ele>238.0</ele><time>2026-04-04T11:17:06Z</time></trkpt><trkpt lat="43.67044743846823" lon="11.361752180626931"><ele>237.0</ele><time>2026-04-04T11:17:07Z</time></trkpt><trkpt lat="43.67047485104948" lon="11.361645529071216"><ele>237.0</ele><time>2026-04-04T11:17:08Z</time></trkpt><trkpt lat="43.67050677872136" lon="11.361539726925255"><ele>237.0</ele><time>2026-04-04T11:17:09Z</time></trkpt><trkpt lat="43.670538641711275" lon="11.361428781368039"><ele>237.0</ele><time>2026-04-04T11:17:10Z</time></trkpt><trkpt lat="43.670567391160525" lon="11.361321960494005"><ele>237.0</ele><time>2026-04-04T11:17:11Z</time></trkpt><trkpt lat="43.670594622293024" lon="11.36121400273578"><ele>237.0</ele><time>2026-04-04T11:17:12Z</time></trkpt><trkpt lat="43.67062347278511" lon="11.361106785104521"><ele>237.0</ele><time>2026-04-04T11:17:13Z</time></trkpt><trkpt lat="43.67064438740621" lon="11.360996502020674"><ele>237.0</ele><time>2026-04-04T11:17:14Z</time></trkpt><trkpt lat="43.670658653964594" lon="11.360885323067125"><ele>237.0</ele><time>2026-04-04T11:17:15Z</time></trkpt><trkpt lat="43.670687771636196" lon="11.360782156620308"><ele>237.0</ele><time>2026-04-04T11:17:16Z</time></trkpt><trkpt lat="43.67071948730899" lon="11.360680092993444"><ele>237.0</ele><time>2026-04-04T11:17:17Z</time></trkpt><trkpt lat="43.67075196912037" lon="11.360575383931632"><ele>237.0</ele><time>2026-04-04T11:17:18Z</time></trkpt><trkpt lat="43.67078711440668" lon="11.360472857501636"><ele>237.0</ele><time>2026-04-04T11:17:19Z</time></trkpt><trkpt lat="43.67081782705828" lon="11.360373889899043"><ele>237.0</ele><time>2026-04-04T11:17:20Z</time></trkpt><trkpt lat="43.67085171849909" lon="11.360268542156726"><ele>237.0</ele><time>2026-04-04T11:17:21Z</time></trkpt><trkpt lat="43.67087312099787" lon="11.36017018541696"><ele>237.0</ele><time>2026-04-04T11:17:22Z</time></trkpt><trkpt lat="43.67090177646381" lon="11.360071160412984"><ele>237.0</ele><time>2026-04-04T11:17:23Z</time></trkpt><trkpt lat="43.67092618658609" lon="11.35997200932381"><ele>237.0</ele><time>2026-04-04T11:17:24Z</time></trkpt><trkpt lat="43.67095556517966" lon="11.35987401448661"><ele>237.0</ele><time>2026-04-04T11:17:25Z</time></trkpt><trkpt lat="43.67097913318225" lon="11.359777978532913"><ele>236.57142857142856</ele><time>2026-04-04T11:17:26Z</time></trkpt><trkpt lat="43.67100455403582" lon="11.359681080003776"><ele>236.14285714285714</ele><time>2026-04-04T11:17:27Z</time></trkpt><trkpt lat="43.67102825197632" lon="11.359585317700224"><ele>235.71428571428572</ele><time>2026-04-04T11:17:28Z</time></trkpt><trkpt lat="43.67105408361398" lon="11.35948951009107"><ele>235.28571428571428</ele><time>2026-04-04T11:17:29Z</time></trkpt><trkpt lat="43.67108054480947" lon="11.359392162905426"><ele>234.8571428571429</ele><time>2026-04-04T11:17:30Z</time></trkpt><trkpt lat="43.6711088497571" lon="11.359300155049668"><ele>234.42857142857144</ele><time>2026-04-04T11:17:31Z</time></trkpt><trkpt lat="43.67113125285444" lon="11.359209543953382"><ele>234.0</ele><time>2026-04-04T11:17:32Z</time></trkpt><trkpt lat="43.67115660158962" lon="11.359071849273521"><ele>233.6</ele><time>2026-04-04T11:17:34Z</time></trkpt><trkpt lat="43.67118414153116" lon="11.358964010285924"><ele>233.2</ele><time>2026-04-04T11:17:36Z</time></trkpt><trkpt lat="43.6712165654415" lon="11.3588643089087"><ele>232.79999999999998</ele><time>2026-04-04T11:17:38Z</time></trkpt><trkpt lat="43.67124221981113" lon="11.358731475260981"><ele>232.39999999999998</ele><time>2026-04-04T11:17:40Z</time></trkpt><trkpt lat="43.6712783558574" lon="11.35860437673121"><ele>232.0</ele><time>2026-04-04T11:17:42Z</time></trkpt><trkpt lat="43.67131603280299" lon="11.35844753627397"><ele>231.8</ele><time>2026-04-04T11:17:44Z</time></trkpt><trkpt lat="43.671341831908904" lon="11.35829917856682"><ele>231.6</ele><time>2026-04-04T11:17:46Z</time></trkpt><trkpt lat="43.67137478705394" lon="11.358149669526306"><ele>231.40000000000003</ele><time>2026-04-04T11:17:48Z</time></trkpt><trkpt lat="43.67140768950575" lon="11.35800213390116"><ele>231.20000000000002</ele><time>2026-04-04T11:17:50Z</time></trkpt><trkpt lat="43.671436784425616" lon="11.357853892957039"><ele>231.0</ele><time>2026-04-04T11:17:52Z</time></trkpt><trkpt lat="43.67147487498752" lon="11.357712509722058"><ele>231.0</ele><time>2026-04-04T11:17:54Z</time></trkpt><trkpt lat="43.67150976842227" lon="11.3575749002941"><ele>231.00000000000003</ele><time>2026-04-04T11:17:55.999Z</time></trkpt><trkpt lat="43.67153887838993" lon="11.357434869069527"><ele>231.00000000000003</ele><time>2026-04-04T11:17:57.999Z</time></trkpt><trkpt lat="43.671558125282786" lon="11.357305423877678"><ele>231.0</ele><time>2026-04-04T11:17:59.999Z</time></trkpt><trkpt lat="43.671614891509655" lon="11.357254269650921"><ele>231.0</ele><time>2026-04-04T11:18:02.999Z</time></trkpt><trkpt lat="43.67160064617366" lon="11.357139652426143"><ele>230.83333333333334</ele><time>2026-04-04T11:18:06.999Z</time></trkpt><trkpt lat="43.67158210330404" lon="11.357033755913607"><ele>230.66666666666669</ele><time>2026-04-04T11:18:08.999Z</time></trkpt><trkpt lat="43.67156305336611" lon="11.356932218521184"><ele>230.5</ele><time>2026-04-04T11:18:10.999Z</time></trkpt><trkpt lat="43.67153661489354" lon="11.356811009331578"><ele>230.33333333333334</ele><time>2026-04-04T11:18:12.999Z</time></trkpt><trkpt lat="43.67152415090999" lon="11.356670821779938"><ele>230.16666666666669</ele><time>2026-04-04T11:18:14.999Z</time></trkpt><trkpt lat="43.67150971725319" lon="11.356537326213264"><ele>230.0</ele><time>2026-04-04T11:18:16.999Z</time></trkpt><trkpt lat="43.67149194546225" lon="11.356402176939126"><ele>230.0</ele><time>2026-04-04T11:18:18.999Z</time></trkpt><trkpt lat="43.67148380090238" lon="11.356253943916249"><ele>230.0</ele><time>2026-04-04T11:18:20.999Z</time></trkpt><trkpt lat="43.67146900950252" lon="11.356107855581575"><ele>230.0</ele><time>2026-04-04T11:18:22.999Z</time></trkpt><trkpt lat="43.671468846967436" lon="11.355958162139789"><ele>230.0</ele><time>2026-04-04T11:18:24.999Z</time></trkpt><trkpt lat="43.67147982732838" lon="11.355808192001481"><ele>230.0</ele><time>2026-04-04T11:18:26.999Z</time></trkpt><trkpt lat="43.67150691968634" lon="11.355672880346123"><ele>230.0</ele><time>2026-04-04T11:18:28.999Z</time></trkpt><trkpt lat="43.671529781250456" lon="11.355537248185676"><ele>230.0</ele><time>2026-04-04T11:18:30.999Z</time></trkpt><trkpt lat="43.671547041516696" lon="11.35540802332185"><ele>230.0</ele><time>2026-04-04T11:18:32.999Z</time></trkpt><trkpt lat="43.67156652751294" lon="11.35529056735164"><ele>230.0</ele><time>2026-04-04T11:18:34.999Z</time></trkpt><trkpt lat="43.67159241177331" lon="11.355172994771378"><ele>230.0</ele><time>2026-04-04T11:18:36.999Z</time></trkpt><trkpt lat="43.67160799820953" lon="11.355058931963555"><ele>230.00000000000003</ele><time>2026-04-04T11:18:38.999Z</time></trkpt><trkpt lat="43.67162699433913" lon="11.354955119386995"><ele>230.0</ele><time>2026-04-04T11:18:40.999Z</time></trkpt><trkpt lat="43.67163326311783" lon="11.354860046673473"><ele>230.0</ele><time>2026-04-04T11:18:42.999Z</time></trkpt><trkpt lat="43.67157509826913" lon="11.354727415039855"><ele>230.0</ele><time>2026-04-04T11:18:47.001Z</time></trkpt><trkpt lat="43.671510866285956" lon="11.354723742972574"><ele>230.00000000000003</ele><time>2026-04-04T11:20:06.999Z</time></trkpt><trkpt lat="43.67156924336538" lon="11.354765418912866"><ele>230.0</ele><time>2026-04-04T11:20:12.999Z</time></trkpt><trkpt lat="43.67162990834633" lon="11.354873590106468"><ele>230.00000000000003</ele><time>2026-04-04T11:20:31.999Z</time></trkpt><trkpt lat="43.67161590586148" lon="11.354983070264852"><ele>230.0</ele><time>2026-04-04T11:22:17.999Z</time></trkpt><trkpt lat="43.67159303946519" lon="11.35510383335601"><ele>230.0</ele><time>2026-04-04T11:22:20.999Z</time></trkpt><trkpt lat="43.67157641561679" lon="11.355197749907749"><ele>230.0</ele><time>2026-04-04T11:22:22.999Z</time></trkpt><trkpt lat="43.671558092973136" lon="11.355304150406642"><ele>230.00000000000003</ele><time>2026-04-04T11:22:24.999Z</time></trkpt><trkpt lat="43.671540916420255" lon="11.35540389609326"><ele>230.0</ele><time>2026-04-04T11:22:26.999Z</time></trkpt><trkpt lat="43.67152097491585" lon="11.355519030265699"><ele>230.00000000000003</ele><time>2026-04-04T11:22:28.999Z</time></trkpt><trkpt lat="43.67150568787704" lon="11.355622099024378"><ele>230.0</ele><time>2026-04-04T11:22:30.999Z</time></trkpt><trkpt lat="43.67148801725192" lon="11.355741238746472"><ele>230.0</ele><time>2026-04-04T11:22:32.999Z</time></trkpt><trkpt lat="43.67147338078438" lon="11.355847546551034"><ele>230.0</ele><time>2026-04-04T11:22:34.999Z</time></trkpt><trkpt lat="43.67146435020028" lon="11.355969842581635"><ele>230.00000000000003</ele><time>2026-04-04T11:22:36.999Z</time></trkpt><trkpt lat="43.67147064877149" lon="11.35608272980656"><ele>230.0</ele><time>2026-04-04T11:22:38.999Z</time></trkpt><trkpt lat="43.671484473983476" lon="11.356201711170778"><ele>230.00000000000003</ele><time>2026-04-04T11:22:40.999Z</time></trkpt><trkpt lat="43.67149686320504" lon="11.3563135847774"><ele>230.0</ele><time>2026-04-04T11:22:42.999Z</time></trkpt><trkpt lat="43.67150960643611" lon="11.35643345990571"><ele>230.0</ele><time>2026-04-04T11:22:44.999Z</time></trkpt><trkpt lat="43.67150738904413" lon="11.356546125381298"><ele>230.0</ele><time>2026-04-04T11:22:46.999Z</time></trkpt><trkpt lat="43.671522941155594" lon="11.356660309417745"><ele>230.00000000000003</ele><time>2026-04-04T11:22:48.999Z</time></trkpt><trkpt lat="43.67153295799494" lon="11.356767808820663"><ele>230.0</ele><time>2026-04-04T11:22:50.999Z</time></trkpt><trkpt lat="43.671563997421394" lon="11.356875214804761"><ele>230.00000000000003</ele><time>2026-04-04T11:22:52.999Z</time></trkpt><trkpt lat="43.671580890334845" lon="11.356979496838253"><ele>230.0</ele><time>2026-04-04T11:22:54.999Z</time></trkpt><trkpt lat="43.6715875551334" lon="11.357085263973477"><ele>230.0</ele><time>2026-04-04T11:22:56.999Z</time></trkpt><trkpt lat="43.671579311978896" lon="11.357189025822516"><ele>230.0</ele><time>2026-04-04T11:22:58.999Z</time></trkpt><trkpt lat="43.67160227529472" lon="11.357305893060976"><ele>230.00000000000003</ele><time>2026-04-04T11:23:01.999Z</time></trkpt><trkpt lat="43.67160383766707" lon="11.35741758351423"><ele>230.0</ele><time>2026-04-04T11:23:04.999Z</time></trkpt><trkpt lat="43.67165290556514" lon="11.357474935970234"><ele>230.00000000000003</ele><time>2026-04-04T11:24:07.999Z</time></trkpt><trkpt lat="43.67157377228052" lon="11.357455313641177"><ele>230.0</ele><time>2026-04-04T11:24:35.999Z</time></trkpt><trkpt lat="43.671582920016284" lon="11.357362449493964"><ele>230.0</ele><time>2026-04-04T12:01:34Z</time></trkpt><trkpt lat="43.67160748743283" lon="11.357253901974552"><ele>230.0</ele><time>2026-04-04T12:01:37Z</time></trkpt><trkpt lat="43.67161357400951" lon="11.357143605112277"><ele>230.00000000000003</ele><time>2026-04-04T12:01:40Z</time></trkpt><trkpt lat="43.67161767836466" lon="11.357029458876013"><ele>230.0</ele><time>2026-04-04T12:01:43Z</time></trkpt><trkpt lat="43.6715848428704" lon="11.356911283652751"><ele>230.00000000000003</ele><time>2026-04-04T12:01:46Z</time></trkpt><trkpt lat="43.6715690552549" lon="11.356824071111406"><ele>230.0</ele><time>2026-04-04T12:01:48Z</time></trkpt><trkpt lat="43.67154585276492" lon="11.356717965722632"><ele>230.0</ele><time>2026-04-04T12:01:50Z</time></trkpt><trkpt lat="43.67152431933987" lon="11.356605358823055"><ele>230.0</ele><time>2026-04-04T12:01:52Z</time></trkpt><trkpt lat="43.67150691425357" lon="11.356483464710866"><ele>230.00000000000003</ele><time>2026-04-04T12:01:54Z</time></trkpt><trkpt lat="43.67149210380291" lon="11.356355413897763"><ele>230.0</ele><time>2026-04-04T12:01:56Z</time></trkpt><trkpt lat="43.67147975892747" lon="11.35621751985155"><ele>230.0</ele><time>2026-04-04T12:01:58Z</time></trkpt><trkpt lat="43.671471431954835" lon="11.356082528254957"><ele>230.0</ele><time>2026-04-04T12:02:00Z</time></trkpt><trkpt lat="43.671468871611125" lon="11.355944276162559"><ele>230.0</ele><time>2026-04-04T12:02:02Z</time></trkpt><trkpt lat="43.67147291406501" lon="11.355811631887738"><ele>230.0</ele><time>2026-04-04T12:02:04Z</time></trkpt><trkpt lat="43.67150668885276" lon="11.355690011401876"><ele>230.0</ele><time>2026-04-04T12:02:06Z</time></trkpt><trkpt lat="43.671527406105064" lon="11.355577980215605"><ele>229.99999999999997</ele><time>2026-04-04T12:02:08Z</time></trkpt><trkpt lat="43.67154677664935" lon="11.355470644652417"><ele>230.0</ele><time>2026-04-04T12:02:10Z</time></trkpt><trkpt lat="43.67156535076737" lon="11.355367046681707"><ele>229.99999999999997</ele><time>2026-04-04T12:02:12Z</time></trkpt><trkpt lat="43.67158385402041" lon="11.355271369442798"><ele>229.99999999999997</ele><time>2026-04-04T12:02:14Z</time></trkpt><trkpt lat="43.67159662104134" lon="11.355173073333363"><ele>230.0</ele><time>2026-04-04T12:02:16Z</time></trkpt><trkpt lat="43.67161283540809" lon="11.3550813005935"><ele>229.99999999999997</ele><time>2026-04-04T12:02:18Z</time></trkpt><trkpt lat="43.671625440007624" lon="11.354990693352562"><ele>229.99999999999997</ele><time>2026-04-04T12:02:20Z</time></trkpt><trkpt lat="43.67161911363128" lon="11.354895879221965"><ele>230.00000000000003</ele><time>2026-04-04T12:02:22Z</time></trkpt><trkpt lat="43.67158240149365" lon="11.354815707119073"><ele>230.0</ele><time>2026-04-04T12:02:24Z</time></trkpt><trkpt lat="43.67152583394341" lon="11.354725582977434"><ele>230.0</ele><time>2026-04-04T12:02:27Z</time></trkpt><trkpt lat="43.671466708010996" lon="11.354682458161468"><ele>230.0</ele><time>2026-04-04T12:02:29Z</time></trkpt><trkpt lat="43.671401208352236" lon="11.354595550935224"><ele>230.00000000000003</ele><time>2026-04-04T12:02:32Z</time></trkpt><trkpt lat="43.671334029175576" lon="11.354524303937247"><ele>230.0</ele><time>2026-04-04T12:02:35Z</time></trkpt><trkpt lat="43.671271258350224" lon="11.35443867136423"><ele>230.00000000000003</ele><time>2026-04-04T12:02:38Z</time></trkpt><trkpt lat="43.671213032746635" lon="11.354380359053986"><ele>230.0</ele><time>2026-04-04T12:02:40Z</time></trkpt><trkpt lat="43.67115618531305" lon="11.35431657346805"><ele>230.0</ele><time>2026-04-04T12:02:42Z</time></trkpt><trkpt lat="43.67109790030829" lon="11.35423981149596"><ele>230.0</ele><time>2026-04-04T12:02:44Z</time></trkpt><trkpt lat="43.671032617268736" lon="11.354171241253665"><ele>230.00000000000003</ele><time>2026-04-04T12:02:46Z</time></trkpt><trkpt lat="43.67096928190642" lon="11.354085448642774"><ele>230.0</ele><time>2026-04-04T12:02:48Z</time></trkpt><trkpt lat="43.670908570536625" lon="11.354008254101705"><ele>229.6</ele><time>2026-04-04T12:02:50Z</time></trkpt><trkpt lat="43.670842991402274" lon="11.353923748695024"><ele>229.2</ele><time>2026-04-04T12:02:52Z</time></trkpt><trkpt lat="43.67077030428319" lon="11.35383034910344"><ele>228.8</ele><time>2026-04-04T12:02:54Z</time></trkpt><trkpt lat="43.670704763113456" lon="11.353744309090734"><ele>228.4</ele><time>2026-04-04T12:02:56Z</time></trkpt><trkpt lat="43.67062944986608" lon="11.35365394843199"><ele>228.0</ele><time>2026-04-04T12:02:58Z</time></trkpt><trkpt lat="43.67056059255209" lon="11.35356018286866"><ele>229.0</ele><time>2026-04-04T12:03:00Z</time></trkpt><trkpt lat="43.670484420234494" lon="11.353465692965342"><ele>230.0</ele><time>2026-04-04T12:03:02Z</time></trkpt><trkpt lat="43.670411861144835" lon="11.353378815555708"><ele>231.0</ele><time>2026-04-04T12:03:04Z</time></trkpt><trkpt lat="43.67033961272823" lon="11.353290224634339"><ele>232.0</ele><time>2026-04-04T12:03:06Z</time></trkpt><trkpt lat="43.67026889779555" lon="11.353203791363306"><ele>233.0</ele><time>2026-04-04T12:03:08Z</time></trkpt><trkpt lat="43.67019670782031" lon="11.353116497975016"><ele>236.2</ele><time>2026-04-04T12:03:10Z</time></trkpt><trkpt lat="43.670119479152355" lon="11.353033199448019"><ele>239.4</ele><time>2026-04-04T12:03:12Z</time></trkpt><trkpt lat="43.6700517193703" lon="11.352953866506569"><ele>242.59999999999997</ele><time>2026-04-04T12:03:14Z</time></trkpt><trkpt lat="43.669972240834625" lon="11.352884765588303"><ele>245.79999999999998</ele><time>2026-04-04T12:03:16Z</time></trkpt><trkpt lat="43.66989277371042" lon="11.352816000431027"><ele>249.0</ele><time>2026-04-04T12:03:18Z</time></trkpt><trkpt lat="43.6697920720225" lon="11.352782449483854"><ele>249.0</ele><time>2026-04-04T12:03:20Z</time></trkpt><trkpt lat="43.669691495798" lon="11.352778899284825"><ele>248.99999999999997</ele><time>2026-04-04T12:03:22Z</time></trkpt><trkpt lat="43.66958643905045" lon="11.352803286709179"><ele>248.99999999999997</ele><time>2026-04-04T12:03:24Z</time></trkpt><trkpt lat="43.66948426153861" lon="11.352850951282285"><ele>249.0</ele><time>2026-04-04T12:03:26Z</time></trkpt><trkpt lat="43.66938242540549" lon="11.352889755246164"><ele>249.0</ele><time>2026-04-04T12:03:28Z</time></trkpt><trkpt lat="43.66928976328745" lon="11.352946698628894"><ele>249.6</ele><time>2026-04-04T12:03:30Z</time></trkpt><trkpt lat="43.66919395482116" lon="11.352984373697621"><ele>250.2</ele><time>2026-04-04T12:03:32Z</time></trkpt><trkpt lat="43.66910345872889" lon="11.353037427104338"><ele>250.79999999999998</ele><time>2026-04-04T12:03:34Z</time></trkpt><trkpt lat="43.66902030235796" lon="11.353083302847635"><ele>251.39999999999998</ele><time>2026-04-04T12:03:36Z</time></trkpt><trkpt lat="43.66894340911139" lon="11.353129995250747"><ele>252.0</ele><time>2026-04-04T12:03:38Z</time></trkpt><trkpt lat="43.66886610783041" lon="11.353174649333713"><ele>249.0</ele><time>2026-04-04T12:03:40Z</time></trkpt><trkpt lat="43.66878474180369" lon="11.353226515172013"><ele>246.0</ele><time>2026-04-04T12:03:42Z</time></trkpt><trkpt lat="43.668698905289" lon="11.353264548480732"><ele>243.0</ele><time>2026-04-04T12:03:44Z</time></trkpt><trkpt lat="43.668609632744015" lon="11.35331959241847"><ele>240.0</ele><time>2026-04-04T12:03:46Z</time></trkpt><trkpt lat="43.66852039538562" lon="11.35335307159438"><ele>237.0</ele><time>2026-04-04T12:03:48Z</time></trkpt><trkpt lat="43.66842040697142" lon="11.353375939514699"><ele>237.0</ele><time>2026-04-04T12:03:50Z</time></trkpt><trkpt lat="43.66832711558441" lon="11.35338528446556"><ele>237.0</ele><time>2026-04-04T12:03:52Z</time></trkpt><trkpt lat="43.66822661947645" lon="11.353358609317507"><ele>237.0</ele><time>2026-04-04T12:03:54Z</time></trkpt><trkpt lat="43.66813842856247" lon="11.353291135182896"><ele>237.0</ele><time>2026-04-04T12:03:56Z</time></trkpt><trkpt lat="43.66806079306852" lon="11.353190698976707"><ele>237.0</ele><time>2026-04-04T12:03:58Z</time></trkpt><trkpt lat="43.66800201007532" lon="11.353071863166303"><ele>237.6</ele><time>2026-04-04T12:04:00Z</time></trkpt><trkpt lat="43.66795519664849" lon="11.35293905178686"><ele>238.2</ele><time>2026-04-04T12:04:02Z</time></trkpt><trkpt lat="43.66790573752035" lon="11.352797092324545"><ele>238.8</ele><time>2026-04-04T12:04:04Z</time></trkpt><trkpt lat="43.667857543857785" lon="11.352661046280058"><ele>239.4</ele><time>2026-04-04T12:04:06Z</time></trkpt><trkpt lat="43.66780344346452" lon="11.352533776750949"><ele>240.0</ele><time>2026-04-04T12:04:08Z</time></trkpt><trkpt lat="43.66777833087258" lon="11.35244179382881"><ele>240.0</ele><time>2026-04-04T12:04:10Z</time></trkpt><trkpt lat="43.66778434140743" lon="11.352579658429802"><ele>240.0</ele><time>2026-04-04T12:04:16Z</time></trkpt><trkpt lat="43.667811100086304" lon="11.352671287029516"><ele>240.0</ele><time>2026-04-04T12:04:18Z</time></trkpt><trkpt lat="43.66784945805689" lon="11.352757186419694"><ele>240.0</ele><time>2026-04-04T12:04:20Z</time></trkpt><trkpt lat="43.66787415279558" lon="11.352843159173815"><ele>240.0</ele><time>2026-04-04T12:04:22Z</time></trkpt><trkpt lat="43.66791911631191" lon="11.352945572253802"><ele>240.0</ele><time>2026-04-04T12:04:25Z</time></trkpt><trkpt lat="43.66793559993447" lon="11.352846380821932"><ele>240.0</ele><time>2026-04-04T12:04:30Z</time></trkpt><trkpt lat="43.66789025393637" lon="11.352744733933271"><ele>240.0</ele><time>2026-04-04T12:04:33Z</time></trkpt><trkpt lat="43.66785313691868" lon="11.352671340680462"><ele>240.0</ele><time>2026-04-04T12:04:51Z</time></trkpt><trkpt lat="43.66781549872177" lon="11.352585563280083"><ele>240.0</ele><time>2026-04-04T12:04:54Z</time></trkpt><trkpt lat="43.66778777744057" lon="11.352501420233917"><ele>240.0</ele><time>2026-04-04T12:04:56Z</time></trkpt><trkpt lat="43.66775662116192" lon="11.35240789984127"><ele>240.0</ele><time>2026-04-04T12:04:58.001Z</time></trkpt><trkpt lat="43.667728041323535" lon="11.352296450129035"><ele>237.8</ele><time>2026-04-04T12:05:00.001Z</time></trkpt><trkpt lat="43.66773587461966" lon="11.35216260565504"><ele>235.6</ele><time>2026-04-04T12:05:02.001Z</time></trkpt><trkpt lat="43.667798654329744" lon="11.352045623802884"><ele>233.39999999999998</ele><time>2026-04-04T12:05:04.001Z</time></trkpt><trkpt lat="43.667891627105696" lon="11.351974278483615"><ele>231.2</ele><time>2026-04-04T12:05:06.001Z</time></trkpt><trkpt lat="43.66799421880446" lon="11.351938885266208"><ele>229.0</ele><time>2026-04-04T12:05:08.001Z</time></trkpt><trkpt lat="43.668096417198655" lon="11.351908255954783"><ele>229.0</ele><time>2026-04-04T12:05:10.001Z</time></trkpt><trkpt lat="43.66820133128247" lon="11.351864606868585"><ele>228.99999999999997</ele><time>2026-04-04T12:05:12Z</time></trkpt><trkpt lat="43.66828858205312" lon="11.35178474222613"><ele>228.99999999999997</ele><time>2026-04-04T12:05:14Z</time></trkpt><trkpt lat="43.668360146264675" lon="11.351671247246204"><ele>229.0</ele><time>2026-04-04T12:05:16Z</time></trkpt><trkpt lat="43.66841078780066" lon="11.351532136847526"><ele>229.0</ele><time>2026-04-04T12:05:18Z</time></trkpt><trkpt lat="43.66844289033016" lon="11.351378292333782"><ele>227.25</ele><time>2026-04-04T12:05:20Z</time></trkpt><trkpt lat="43.66846955136877" lon="11.351220663430807"><ele>225.5</ele><time>2026-04-04T12:05:22Z</time></trkpt><trkpt lat="43.66850190343133" lon="11.351064673408803"><ele>223.75</ele><time>2026-04-04T12:05:24Z</time></trkpt><trkpt lat="43.66853551828912" lon="11.350908338314126"><ele>222.0</ele><time>2026-04-04T12:05:26Z</time></trkpt><trkpt lat="43.66858850555865" lon="11.350759946539709"><ele>224.25</ele><time>2026-04-04T12:05:28Z</time></trkpt><trkpt lat="43.668662371237225" lon="11.350625870492879"><ele>226.5</ele><time>2026-04-04T12:05:30Z</time></trkpt><trkpt lat="43.66873833896305" lon="11.350492622589663"><ele>228.75</ele><time>2026-04-04T12:05:32Z</time></trkpt><trkpt lat="43.66881680412929" lon="11.350362132833393"><ele>231.0</ele><time>2026-04-04T12:05:34Z</time></trkpt><trkpt lat="43.66891278591368" lon="11.35025585054015"><ele>231.0</ele><time>2026-04-04T12:05:36Z</time></trkpt><trkpt lat="43.669004252452716" lon="11.350144486875209"><ele>231.0</ele><time>2026-04-04T12:05:38Z</time></trkpt><trkpt lat="43.669091865870655" lon="11.350036742606239"><ele>231.0</ele><time>2026-04-04T12:05:40Z</time></trkpt><trkpt lat="43.6691813281702" lon="11.349931908049708"><ele>231.0</ele><time>2026-04-04T12:05:42Z</time></trkpt><trkpt lat="43.669271531548546" lon="11.349827050870502"><ele>231.0</ele><time>2026-04-04T12:05:44Z</time></trkpt><trkpt lat="43.669365727172796" lon="11.349721823217266"><ele>231.0</ele><time>2026-04-04T12:05:46Z</time></trkpt><trkpt lat="43.669412832696764" lon="11.349662342866202"><ele>231.0</ele><time>2026-04-04T12:05:47Z</time></trkpt><trkpt lat="43.669469637745195" lon="11.349622081097724"><ele>231.0</ele><time>2026-04-04T12:05:48Z</time></trkpt><trkpt lat="43.66950634983379" lon="11.349545151318559"><ele>231.0</ele><time>2026-04-04T12:05:49Z</time></trkpt><trkpt lat="43.66955474731436" lon="11.349487019255639"><ele>231.0</ele><time>2026-04-04T12:05:50Z</time></trkpt><trkpt lat="43.66964069114468" lon="11.349359355737004"><ele>233.0</ele><time>2026-04-04T12:05:52Z</time></trkpt><trkpt lat="43.66968175553411" lon="11.349291126005637"><ele>235.0</ele><time>2026-04-04T12:05:53Z</time></trkpt><trkpt lat="43.66971932720392" lon="11.349220090636127"><ele>237.0</ele><time>2026-04-04T12:05:54Z</time></trkpt><trkpt lat="43.66975309736707" lon="11.349145788438888"><ele>239.0</ele><time>2026-04-04T12:05:55Z</time></trkpt><trkpt lat="43.66978283235725" lon="11.3490668991641"><ele>241.0</ele><time>2026-04-04T12:05:56Z</time></trkpt><trkpt lat="43.66981139525657" lon="11.348986026149161"><ele>243.0</ele><time>2026-04-04T12:05:57Z</time></trkpt><trkpt lat="43.66983201927856" lon="11.348897400384502"><ele>245.0</ele><time>2026-04-04T12:05:58Z</time></trkpt><trkpt lat="43.669848371374286" lon="11.348811135149232"><ele>245.0</ele><time>2026-04-04T12:05:59Z</time></trkpt><trkpt lat="43.66985784957966" lon="11.348724273325356"><ele>245.0</ele><time>2026-04-04T12:06:00Z</time></trkpt><trkpt lat="43.66986436951946" lon="11.348635347018718"><ele>245.0</ele><time>2026-04-04T12:06:01Z</time></trkpt><trkpt lat="43.669860019342075" lon="11.348540930018787"><ele>245.0</ele><time>2026-04-04T12:06:02Z</time></trkpt><trkpt lat="43.66984612048843" lon="11.34845196702686"><ele>245.0</ele><time>2026-04-04T12:06:03Z</time></trkpt><trkpt lat="43.66982098239929" lon="11.348364263190707"><ele>245.0</ele><time>2026-04-04T12:06:04Z</time></trkpt><trkpt lat="43.66978060844801" lon="11.348289763944935"><ele>245.0</ele><time>2026-04-04T12:06:05Z</time></trkpt><trkpt lat="43.66972934306727" lon="11.348227148971961"><ele>245.0</ele><time>2026-04-04T12:06:06Z</time></trkpt><trkpt lat="43.669674810563265" lon="11.348173393382199"><ele>245.0</ele><time>2026-04-04T12:06:07Z</time></trkpt><trkpt lat="43.6696139422838" lon="11.34812609330561"><ele>245.0</ele><time>2026-04-04T12:06:08Z</time></trkpt><trkpt lat="43.66955356291596" lon="11.348078178926068"><ele>245.0</ele><time>2026-04-04T12:06:09Z</time></trkpt><trkpt lat="43.66949884554385" lon="11.348029896748308"><ele>245.0</ele><time>2026-04-04T12:06:10Z</time></trkpt><trkpt lat="43.669438359856336" lon="11.347986761613477"><ele>245.0</ele><time>2026-04-04T12:06:11Z</time></trkpt><trkpt lat="43.669381732711614" lon="11.347943490441734"><ele>245.0</ele><time>2026-04-04T12:06:12Z</time></trkpt><trkpt lat="43.66931838498761" lon="11.347904539648917"><ele>243.00000000000003</ele><time>2026-04-04T12:06:13Z</time></trkpt><trkpt lat="43.66925673323436" lon="11.347865105642937"><ele>241.0</ele><time>2026-04-04T12:06:14Z</time></trkpt><trkpt lat="43.66919692987657" lon="11.34782712576335"><ele>239.0</ele><time>2026-04-04T12:06:15Z</time></trkpt><trkpt lat="43.66913367490813" lon="11.347796352334633"><ele>237.0</ele><time>2026-04-04T12:06:16Z</time></trkpt><trkpt lat="43.66906498076966" lon="11.34778840335453"><ele>235.00000000000003</ele><time>2026-04-04T12:06:17Z</time></trkpt><trkpt lat="43.6689493742875" lon="11.347725811107491"><ele>233.0</ele><time>2026-04-04T12:06:19Z</time></trkpt><trkpt lat="43.668849735304505" lon="11.347625563457008"><ele>233.0</ele><time>2026-04-04T12:06:21Z</time></trkpt><trkpt lat="43.668812560654516" lon="11.347554273992367"><ele>233.0</ele><time>2026-04-04T12:06:22Z</time></trkpt><trkpt lat="43.66878815114371" lon="11.347472650776304"><ele>233.0</ele><time>2026-04-04T12:06:23Z</time></trkpt><trkpt lat="43.66877426323508" lon="11.347302555504559"><ele>233.0</ele><time>2026-04-04T12:06:25Z</time></trkpt><trkpt lat="43.668774802717756" lon="11.347214492997637"><ele>233.0</ele><time>2026-04-04T12:06:26Z</time></trkpt><trkpt lat="43.66877072402611" lon="11.347125784420097"><ele>233.0</ele><time>2026-04-04T12:06:27Z</time></trkpt><trkpt lat="43.6687675079809" lon="11.347035742540873"><ele>233.0</ele><time>2026-04-04T12:06:28Z</time></trkpt><trkpt lat="43.668763086855215" lon="11.346948028779543"><ele>235.0</ele><time>2026-04-04T12:06:29Z</time></trkpt><trkpt lat="43.668763528841154" lon="11.346858721743526"><ele>237.0</ele><time>2026-04-04T12:06:30Z</time></trkpt><trkpt lat="43.668757495178546" lon="11.34676939320845"><ele>239.0</ele><time>2026-04-04T12:06:31Z</time></trkpt><trkpt lat="43.66874710098646" lon="11.346674508902156"><ele>241.0</ele><time>2026-04-04T12:06:32Z</time></trkpt><trkpt lat="43.668737300126445" lon="11.34657877248605"><ele>243.0</ele><time>2026-04-04T12:06:33Z</time></trkpt><trkpt lat="43.66872568054572" lon="11.346490572715398"><ele>245.0</ele><time>2026-04-04T12:06:34Z</time></trkpt><trkpt lat="43.668715390655514" lon="11.346399034023321"><ele>247.0</ele><time>2026-04-04T12:06:35Z</time></trkpt><trkpt lat="43.66870085611206" lon="11.346305727201443"><ele>247.57142857142858</ele><time>2026-04-04T12:06:36Z</time></trkpt><trkpt lat="43.66869218093358" lon="11.346211492542311"><ele>248.1428571428571</ele><time>2026-04-04T12:06:37Z</time></trkpt><trkpt lat="43.66868257925251" lon="11.346117492755043"><ele>248.7142857142857</ele><time>2026-04-04T12:06:38Z</time></trkpt><trkpt lat="43.66866657649275" lon="11.346024687569498"><ele>249.28571428571428</ele><time>2026-04-04T12:06:39Z</time></trkpt><trkpt lat="43.6686516469224" lon="11.345930621320989"><ele>249.85714285714283</ele><time>2026-04-04T12:06:40Z</time></trkpt><trkpt lat="43.66863844370719" lon="11.345836169542453"><ele>250.4285714285714</ele><time>2026-04-04T12:06:41Z</time></trkpt><trkpt lat="43.6686252209771" lon="11.345741557702766"><ele>250.99999999999997</ele><time>2026-04-04T12:06:42Z</time></trkpt><trkpt lat="43.66861087713189" lon="11.345647589085521"><ele>246.1428571428571</ele><time>2026-04-04T12:06:43Z</time></trkpt><trkpt lat="43.66859541846261" lon="11.345554052321724"><ele>241.28571428571428</ele><time>2026-04-04T12:06:44Z</time></trkpt><trkpt lat="43.66857865444909" lon="11.34545884525984"><ele>236.42857142857142</ele><time>2026-04-04T12:06:45Z</time></trkpt><trkpt lat="43.66856638971568" lon="11.345362830609147"><ele>231.57142857142856</ele><time>2026-04-04T12:06:46Z</time></trkpt><trkpt lat="43.6685581474434" lon="11.345263835580472"><ele>226.71428571428572</ele><time>2026-04-04T12:06:47Z</time></trkpt><trkpt lat="43.66855265050433" lon="11.34516349540559"><ele>221.85714285714286</ele><time>2026-04-04T12:06:48Z</time></trkpt><trkpt lat="43.66855163743189" lon="11.345063516342785"><ele>217.0</ele><time>2026-04-04T12:06:49Z</time></trkpt><trkpt lat="43.668553768586044" lon="11.344962748119512"><ele>216.57142857142858</ele><time>2026-04-04T12:06:50Z</time></trkpt><trkpt lat="43.668561693514704" lon="11.3448625132569"><ele>216.14285714285714</ele><time>2026-04-04T12:06:51Z</time></trkpt><trkpt lat="43.6685716596717" lon="11.34476645766872"><ele>215.71428571428572</ele><time>2026-04-04T12:06:52Z</time></trkpt><trkpt lat="43.6685796446986" lon="11.344668285761417"><ele>215.28571428571428</ele><time>2026-04-04T12:06:53Z</time></trkpt><trkpt lat="43.66858977742774" lon="11.34456425427863"><ele>214.85714285714286</ele><time>2026-04-04T12:06:54Z</time></trkpt><trkpt lat="43.66859304160737" lon="11.344462807282383"><ele>214.42857142857144</ele><time>2026-04-04T12:06:55Z</time></trkpt><trkpt lat="43.66859295394881" lon="11.34436215286159"><ele>214.0</ele><time>2026-04-04T12:06:56Z</time></trkpt><trkpt lat="43.66859022834649" lon="11.34426252035005"><ele>213.2857142857143</ele><time>2026-04-04T12:06:57Z</time></trkpt><trkpt lat="43.668585353113144" lon="11.344163129559389"><ele>212.57142857142858</ele><time>2026-04-04T12:06:58Z</time></trkpt><trkpt lat="43.66857317396444" lon="11.344064206433448"><ele>211.85714285714286</ele><time>2026-04-04T12:06:59Z</time></trkpt><trkpt lat="43.66856470634247" lon="11.343963130083047"><ele>211.14285714285717</ele><time>2026-04-04T12:07:00Z</time></trkpt><trkpt lat="43.668550748119394" lon="11.343865440276264"><ele>210.42857142857142</ele><time>2026-04-04T12:07:01Z</time></trkpt><trkpt lat="43.668540816820325" lon="11.343764173726502"><ele>209.71428571428572</ele><time>2026-04-04T12:07:02Z</time></trkpt><trkpt lat="43.66853388000619" lon="11.343660955860758"><ele>209.0</ele><time>2026-04-04T12:07:03.001Z</time></trkpt><trkpt lat="43.66853795361261" lon="11.343550637788603"><ele>208.50000000000003</ele><time>2026-04-04T12:07:04.001Z</time></trkpt><trkpt lat="43.66856334980216" lon="11.343445424363377"><ele>208.0</ele><time>2026-04-04T12:07:05.001Z</time></trkpt><trkpt lat="43.66860023739247" lon="11.343347573369826"><ele>207.5</ele><time>2026-04-04T12:07:06.001Z</time></trkpt><trkpt lat="43.668638097141915" lon="11.343250707672583"><ele>207.0</ele><time>2026-04-04T12:07:07.001Z</time></trkpt><trkpt lat="43.668672826437785" lon="11.34314807995781"><ele>206.50000000000003</ele><time>2026-04-04T12:07:08.001Z</time></trkpt><trkpt lat="43.66870727215835" lon="11.343051433556559"><ele>206.0</ele><time>2026-04-04T12:07:09.001Z</time></trkpt><trkpt lat="43.66874043734408" lon="11.342951936877235"><ele>209.28571428571428</ele><time>2026-04-04T12:07:10.001Z</time></trkpt><trkpt lat="43.668770516797025" lon="11.342852854274133"><ele>212.57142857142856</ele><time>2026-04-04T12:07:11.001Z</time></trkpt><trkpt lat="43.668790299938735" lon="11.342752649714663"><ele>215.85714285714283</ele><time>2026-04-04T12:07:12.001Z</time></trkpt><trkpt lat="43.668802642932285" lon="11.342650940075815"><ele>219.14285714285714</ele><time>2026-04-04T12:07:13.001Z</time></trkpt><trkpt lat="43.66880912859817" lon="11.342545508555522"><ele>222.42857142857144</ele><time>2026-04-04T12:07:14.001Z</time></trkpt><trkpt lat="43.668807744916776" lon="11.342446172377254"><ele>225.7142857142857</ele><time>2026-04-04T12:07:15.001Z</time></trkpt><trkpt lat="43.66879978418761" lon="11.342346186822505"><ele>229.0</ele><time>2026-04-04T12:07:16.001Z</time></trkpt><trkpt lat="43.668796079979074" lon="11.342245757289149"><ele>228.71428571428572</ele><time>2026-04-04T12:07:17.001Z</time></trkpt><trkpt lat="43.66878794613233" lon="11.342142835289213"><ele>228.42857142857144</ele><time>2026-04-04T12:07:18Z</time></trkpt><trkpt lat="43.668772166976076" lon="11.342043493525887"><ele>228.14285714285717</ele><time>2026-04-04T12:07:19Z</time></trkpt><trkpt lat="43.66875790988161" lon="11.341945963741813"><ele>227.85714285714286</ele><time>2026-04-04T12:07:20Z</time></trkpt><trkpt lat="43.66874644173596" lon="11.341838260161726"><ele>227.5714285714286</ele><time>2026-04-04T12:07:21Z</time></trkpt><trkpt lat="43.66873269183252" lon="11.341740272876708"><ele>227.2857142857143</ele><time>2026-04-04T12:07:22Z</time></trkpt><trkpt lat="43.668717803100265" lon="11.341647342623313"><ele>227.0</ele><time>2026-04-04T12:07:23Z</time></trkpt><trkpt lat="43.66870173282741" lon="11.341548366877868"><ele>227.0</ele><time>2026-04-04T12:07:24Z</time></trkpt><trkpt lat="43.66868739679736" lon="11.341449802515394"><ele>227.00000000000003</ele><time>2026-04-04T12:07:25Z</time></trkpt><trkpt lat="43.66866856852528" lon="11.341355778626484"><ele>227.0</ele><time>2026-04-04T12:07:26Z</time></trkpt><trkpt lat="43.66865202892617" lon="11.341257478823035"><ele>227.0</ele><time>2026-04-04T12:07:27Z</time></trkpt><trkpt lat="43.668636449534326" lon="11.341156995125287"><ele>227.00000000000003</ele><time>2026-04-04T12:07:28Z</time></trkpt><trkpt lat="43.668621745409446" lon="11.341055623058454"><ele>227.0</ele><time>2026-04-04T12:07:29Z</time></trkpt><trkpt lat="43.66860085087015" lon="11.34095579106807"><ele>227.0</ele><time>2026-04-04T12:07:30Z</time></trkpt><trkpt lat="43.6685763661142" lon="11.340860303904421"><ele>226.00000000000003</ele><time>2026-04-04T12:07:31Z</time></trkpt><trkpt lat="43.66854243793834" lon="11.34076848155696"><ele>225.0</ele><time>2026-04-04T12:07:32Z</time></trkpt><trkpt lat="43.668501500798634" lon="11.340677171765062"><ele>224.0</ele><time>2026-04-04T12:07:33Z</time></trkpt><trkpt lat="43.66846444142463" lon="11.340584636468453"><ele>223.0</ele><time>2026-04-04T12:07:34Z</time></trkpt><trkpt lat="43.668417561671276" lon="11.340500605695828"><ele>222.00000000000003</ele><time>2026-04-04T12:07:35Z</time></trkpt><trkpt lat="43.66837275460901" lon="11.340416741556337"><ele>221.0</ele><time>2026-04-04T12:07:36Z</time></trkpt><trkpt lat="43.668325161302526" lon="11.340330087256332"><ele>221.00000000000003</ele><time>2026-04-04T12:07:37Z</time></trkpt><trkpt lat="43.66827413582331" lon="11.340238868007464"><ele>221.0</ele><time>2026-04-04T12:07:38Z</time></trkpt><trkpt lat="43.668240445266335" lon="11.340165038465342"><ele>221.0</ele><time>2026-04-04T12:07:39Z</time></trkpt><trkpt lat="43.66818363571227" lon="11.340090837682071"><ele>221.0</ele><time>2026-04-04T12:07:40Z</time></trkpt><trkpt lat="43.66812269139488" lon="11.340030106296627"><ele>221.00000000000003</ele><time>2026-04-04T12:07:41Z</time></trkpt><trkpt lat="43.668058308197644" lon="11.339967679304698"><ele>221.0</ele><time>2026-04-04T12:07:42Z</time></trkpt><trkpt lat="43.668000897473675" lon="11.339906951074607"><ele>221.00000000000003</ele><time>2026-04-04T12:07:43Z</time></trkpt><trkpt lat="43.66794409358064" lon="11.339835016689443"><ele>221.0</ele><time>2026-04-04T12:07:44Z</time></trkpt><trkpt lat="43.66788726226887" lon="11.3397655360685"><ele>221.0</ele><time>2026-04-04T12:07:45Z</time></trkpt><trkpt lat="43.667842762825856" lon="11.339683332642565"><ele>221.0</ele><time>2026-04-04T12:07:46Z</time></trkpt><trkpt lat="43.667795933691394" lon="11.339605507933452"><ele>221.0</ele><time>2026-04-04T12:07:47Z</time></trkpt><trkpt lat="43.66775364482149" lon="11.339521906848057"><ele>221.00000000000003</ele><time>2026-04-04T12:07:48Z</time></trkpt><trkpt lat="43.66772315488558" lon="11.33943307344091"><ele>221.0</ele><time>2026-04-04T12:07:49Z</time></trkpt><trkpt lat="43.667690885358326" lon="11.339341563800064"><ele>217.16666666666669</ele><time>2026-04-04T12:07:50Z</time></trkpt><trkpt lat="43.66766178774565" lon="11.339251745746944"><ele>213.33333333333334</ele><time>2026-04-04T12:07:51Z</time></trkpt><trkpt lat="43.66764916803418" lon="11.339152684494636"><ele>209.5</ele><time>2026-04-04T12:07:52Z</time></trkpt><trkpt lat="43.66765491209358" lon="11.33904475012112"><ele>205.66666666666669</ele><time>2026-04-04T12:07:53Z</time></trkpt><trkpt lat="43.667654450265736" lon="11.338943758405913"><ele>201.83333333333334</ele><time>2026-04-04T12:07:54Z</time></trkpt><trkpt lat="43.667640135293524" lon="11.338837444764621"><ele>198.0</ele><time>2026-04-04T12:07:55Z</time></trkpt><trkpt lat="43.66764359034538" lon="11.338732048659637"><ele>197.83333333333334</ele><time>2026-04-04T12:07:56Z</time></trkpt><trkpt lat="43.66764733993917" lon="11.338622130752551"><ele>197.66666666666669</ele><time>2026-04-04T12:07:57Z</time></trkpt><trkpt lat="43.66763673320663" lon="11.338504728909818"><ele>197.5</ele><time>2026-04-04T12:07:58Z</time></trkpt><trkpt lat="43.667643729135975" lon="11.338399737915303"><ele>197.33333333333334</ele><time>2026-04-04T12:07:59Z</time></trkpt><trkpt lat="43.66764303522131" lon="11.338287451949425"><ele>197.16666666666669</ele><time>2026-04-04T12:08:00Z</time></trkpt><trkpt lat="43.66764995610978" lon="11.338175484779576"><ele>197.0</ele><time>2026-04-04T12:08:01Z</time></trkpt><trkpt lat="43.66766635337026" lon="11.338063153443347"><ele>195.66666666666669</ele><time>2026-04-04T12:08:02Z</time></trkpt><trkpt lat="43.66769178986594" lon="11.337955427489701"><ele>194.33333333333334</ele><time>2026-04-04T12:08:03Z</time></trkpt><trkpt lat="43.667727414807096" lon="11.337849610239969"><ele>193.0</ele><time>2026-04-04T12:08:04Z</time></trkpt><trkpt lat="43.66777264266495" lon="11.337744338335389"><ele>191.66666666666669</ele><time>2026-04-04T12:08:05Z</time></trkpt><trkpt lat="43.66781540581434" lon="11.337643935419322"><ele>190.33333333333334</ele><time>2026-04-04T12:08:06Z</time></trkpt><trkpt lat="43.66785887001565" lon="11.33754109003458"><ele>189.0</ele><time>2026-04-04T12:08:07Z</time></trkpt><trkpt lat="43.66790681415153" lon="11.337439355992606"><ele>193.5</ele><time>2026-04-04T12:08:08Z</time></trkpt><trkpt lat="43.66795098238114" lon="11.337335498545988"><ele>198.0</ele><time>2026-04-04T12:08:09Z</time></trkpt><trkpt lat="43.66800193028128" lon="11.337238119853057"><ele>202.5</ele><time>2026-04-04T12:08:10Z</time></trkpt><trkpt lat="43.668031080312964" lon="11.337126857803236"><ele>207.0</ele><time>2026-04-04T12:08:11Z</time></trkpt><trkpt lat="43.668057687813025" lon="11.337005698586221"><ele>211.5</ele><time>2026-04-04T12:08:12Z</time></trkpt><trkpt lat="43.668069916609745" lon="11.3368802567883"><ele>216.0</ele><time>2026-04-04T12:08:13Z</time></trkpt><trkpt lat="43.66806896220421" lon="11.336754477623472"><ele>216.0</ele><time>2026-04-04T12:08:14Z</time></trkpt><trkpt lat="43.66805578743526" lon="11.336626019747499"><ele>216.00000000000003</ele><time>2026-04-04T12:08:15Z</time></trkpt><trkpt lat="43.66804397495099" lon="11.33649537354118"><ele>216.00000000000003</ele><time>2026-04-04T12:08:16Z</time></trkpt><trkpt lat="43.66803293118773" lon="11.336366641649763"><ele>216.0</ele><time>2026-04-04T12:08:17Z</time></trkpt><trkpt lat="43.668026393811154" lon="11.33623100791368"><ele>216.0</ele><time>2026-04-04T12:08:18Z</time></trkpt><trkpt lat="43.66800244476479" lon="11.336104428918402"><ele>216.4</ele><time>2026-04-04T12:08:19Z</time></trkpt><trkpt lat="43.66797269833509" lon="11.335972312283728"><ele>216.8</ele><time>2026-04-04T12:08:20Z</time></trkpt><trkpt lat="43.66793913555996" lon="11.335844713991783"><ele>217.20000000000002</ele><time>2026-04-04T12:08:21Z</time></trkpt><trkpt lat="43.66790767300711" lon="11.335719790224081"><ele>217.60000000000002</ele><time>2026-04-04T12:08:22Z</time></trkpt><trkpt lat="43.667865939926564" lon="11.335592824411398"><ele>218.0</ele><time>2026-04-04T12:08:23Z</time></trkpt><trkpt lat="43.667823902640414" lon="11.335469375781756"><ele>218.0</ele><time>2026-04-04T12:08:24Z</time></trkpt><trkpt lat="43.6677781800093" lon="11.335346491082271"><ele>218.0</ele><time>2026-04-04T12:08:25Z</time></trkpt><trkpt lat="43.667731982751945" lon="11.335223405687934"><ele>218.0</ele><time>2026-04-04T12:08:26Z</time></trkpt><trkpt lat="43.66768725632758" lon="11.335094758652765"><ele>218.0</ele><time>2026-04-04T12:08:27Z</time></trkpt><trkpt lat="43.66763883202039" lon="11.33496760075836"><ele>218.0</ele><time>2026-04-04T12:08:28Z</time></trkpt><trkpt lat="43.667583007045565" lon="11.334849164224021"><ele>210.2</ele><time>2026-04-04T12:08:29Z</time></trkpt><trkpt lat="43.66756172734368" lon="11.334705158370301"><ele>202.4</ele><time>2026-04-04T12:08:30Z</time></trkpt><trkpt lat="43.66756134928207" lon="11.334561488771175"><ele>194.6</ele><time>2026-04-04T12:08:31Z</time></trkpt><trkpt lat="43.66765597471336" lon="11.33444858006301"><ele>186.79999999999998</ele><time>2026-04-04T12:08:32Z</time></trkpt><trkpt lat="43.66771529032746" lon="11.334322062644993"><ele>179.0</ele><time>2026-04-04T12:08:33Z</time></trkpt><trkpt lat="43.667773405186544" lon="11.334200954027779"><ele>178.0</ele><time>2026-04-04T12:08:34Z</time></trkpt><trkpt lat="43.66778868789273" lon="11.334036242099916"><ele>177.0</ele><time>2026-04-04T12:08:35Z</time></trkpt><trkpt lat="43.66778676181707" lon="11.333901628125158"><ele>176.0</ele><time>2026-04-04T12:08:36Z</time></trkpt><trkpt lat="43.66777623466102" lon="11.333775045143234"><ele>175.0</ele><time>2026-04-04T12:08:37Z</time></trkpt><trkpt lat="43.667767234140655" lon="11.333628417782323"><ele>174.0</ele><time>2026-04-04T12:08:38Z</time></trkpt><trkpt lat="43.66777035898563" lon="11.333498717094134"><ele>173.79999999999998</ele><time>2026-04-04T12:08:39Z</time></trkpt><trkpt lat="43.66781824258639" lon="11.333362742755083"><ele>173.6</ele><time>2026-04-04T12:08:40Z</time></trkpt><trkpt lat="43.66787384457368" lon="11.333245012933732"><ele>173.4</ele><time>2026-04-04T12:08:41Z</time></trkpt><trkpt lat="43.66794153573964" lon="11.333131754101705"><ele>173.2</ele><time>2026-04-04T12:08:42Z</time></trkpt><trkpt lat="43.66801883546709" lon="11.333037613703171"><ele>173.0</ele><time>2026-04-04T12:08:43Z</time></trkpt><trkpt lat="43.668105540592755" lon="11.332960277594252"><ele>173.0</ele><time>2026-04-04T12:08:44Z</time></trkpt><trkpt lat="43.66820096831662" lon="11.332911564790056"><ele>173.0</ele><time>2026-04-04T12:08:45Z</time></trkpt><trkpt lat="43.66829317971076" lon="11.332866202157428"><ele>173.0</ele><time>2026-04-04T12:08:46Z</time></trkpt><trkpt lat="43.66839285081372" lon="11.332831322927863"><ele>173.0</ele><time>2026-04-04T12:08:47Z</time></trkpt><trkpt lat="43.668489213885714" lon="11.332796649832725"><ele>173.0</ele><time>2026-04-04T12:08:48Z</time></trkpt><trkpt lat="43.66858092374414" lon="11.332759296013036"><ele>175.0</ele><time>2026-04-04T12:08:49Z</time></trkpt><trkpt lat="43.66867184865241" lon="11.33272097227658"><ele>177.0</ele><time>2026-04-04T12:08:50Z</time></trkpt><trkpt lat="43.668765800583785" lon="11.332689840340025"><ele>179.0</ele><time>2026-04-04T12:08:51Z</time></trkpt><trkpt lat="43.66885623362622" lon="11.33266632162359"><ele>181.0</ele><time>2026-04-04T12:08:52Z</time></trkpt><trkpt lat="43.66894623629602" lon="11.33263615158863"><ele>183.0</ele><time>2026-04-04T12:08:53Z</time></trkpt><trkpt lat="43.66903412637815" lon="11.332594296145713"><ele>183.0</ele><time>2026-04-04T12:08:54Z</time></trkpt><trkpt lat="43.66912483516138" lon="11.332552586062784"><ele>183.0</ele><time>2026-04-04T12:08:55Z</time></trkpt><trkpt lat="43.66920317418403" lon="11.332477790908664"><ele>183.0</ele><time>2026-04-04T12:08:56Z</time></trkpt><trkpt lat="43.66926608283494" lon="11.332382121168996"><ele>183.0</ele><time>2026-04-04T12:08:57Z</time></trkpt><trkpt lat="43.6693212638825" lon="11.332278219757107"><ele>183.0</ele><time>2026-04-04T12:08:58Z</time></trkpt><trkpt lat="43.669363686399045" lon="11.332154875280805"><ele>181.2</ele><time>2026-04-04T12:08:59Z</time></trkpt><trkpt lat="43.66937984702294" lon="11.332021401121063"><ele>179.4</ele><time>2026-04-04T12:09:00Z</time></trkpt><trkpt lat="43.66937646671891" lon="11.331886025890244"><ele>177.6</ele><time>2026-04-04T12:09:01Z</time></trkpt><trkpt lat="43.66935102892028" lon="11.331754956000884"><ele>175.79999999999998</ele><time>2026-04-04T12:09:02Z</time></trkpt><trkpt lat="43.66930632577002" lon="11.331632231295785"><ele>174.0</ele><time>2026-04-04T12:09:03Z</time></trkpt><trkpt lat="43.669236692767974" lon="11.331535545376571"><ele>174.0</ele><time>2026-04-04T12:09:04Z</time></trkpt><trkpt lat="43.669153787403545" lon="11.331471209002231"><ele>174.0</ele><time>2026-04-04T12:09:05Z</time></trkpt><trkpt lat="43.66906134611073" lon="11.331439252702417"><ele>174.0</ele><time>2026-04-04T12:09:06Z</time></trkpt><trkpt lat="43.66897554328458" lon="11.331428426802924"><ele>174.0</ele><time>2026-04-04T12:09:07Z</time></trkpt><trkpt lat="43.668889620100494" lon="11.331421531832799"><ele>174.0</ele><time>2026-04-04T12:09:08Z</time></trkpt><trkpt lat="43.668802005990514" lon="11.331415945528915"><ele>174.0</ele><time>2026-04-04T12:09:09Z</time></trkpt><trkpt lat="43.66871736706188" lon="11.331411279221472"><ele>174.0</ele><time>2026-04-04T12:09:10Z</time></trkpt><trkpt lat="43.668635860051424" lon="11.33139943080823"><ele>174.0</ele><time>2026-04-04T12:09:11Z</time></trkpt><trkpt lat="43.66855295012248" lon="11.331384751662144"><ele>174.0</ele><time>2026-04-04T12:09:12Z</time></trkpt><trkpt lat="43.668471708746914" lon="11.331367600911712"><ele>174.0</ele><time>2026-04-04T12:09:13Z</time></trkpt><trkpt lat="43.66839231072396" lon="11.331342173608855"><ele>174.0</ele><time>2026-04-04T12:09:14Z</time></trkpt><trkpt lat="43.668313963797914" lon="11.331309377013907"><ele>174.33333333333334</ele><time>2026-04-04T12:09:15Z</time></trkpt><trkpt lat="43.66824131186718" lon="11.33126423512119"><ele>174.66666666666666</ele><time>2026-04-04T12:09:16Z</time></trkpt><trkpt lat="43.668165335622305" lon="11.331221573371437"><ele>175.0</ele><time>2026-04-04T12:09:17Z</time></trkpt><trkpt lat="43.66809427632616" lon="11.33116784244019"><ele>175.33333333333331</ele><time>2026-04-04T12:09:18Z</time></trkpt><trkpt lat="43.668026055259546" lon="11.33110390818271"><ele>175.66666666666666</ele><time>2026-04-04T12:09:19Z</time></trkpt><trkpt lat="43.66795991439733" lon="11.331035003280633"><ele>176.0</ele><time>2026-04-04T12:09:20Z</time></trkpt><trkpt lat="43.6678925139518" lon="11.330963499452503"><ele>176.0</ele><time>2026-04-04T12:09:21Z</time></trkpt><trkpt lat="43.66782099217316" lon="11.330896688645336"><ele>176.0</ele><time>2026-04-04T12:09:22Z</time></trkpt><trkpt lat="43.6677534910949" lon="11.330822550225484"><ele>176.0</ele><time>2026-04-04T12:09:23Z</time></trkpt><trkpt lat="43.667683958962236" lon="11.330746273712181"><ele>176.0</ele><time>2026-04-04T12:09:24Z</time></trkpt><trkpt lat="43.66760960366694" lon="11.33066784768252"><ele>176.0</ele><time>2026-04-04T12:09:25Z</time></trkpt><trkpt lat="43.66753613589041" lon="11.33058728572007"><ele>176.0</ele><time>2026-04-04T12:09:26Z</time></trkpt><trkpt lat="43.667462042729504" lon="11.330511109440078"><ele>175.4</ele><time>2026-04-04T12:09:27Z</time></trkpt><trkpt lat="43.6673872945951" lon="11.3304296248387"><ele>174.8</ele><time>2026-04-04T12:09:28Z</time></trkpt><trkpt lat="43.66731823443705" lon="11.330349632791387"><ele>174.20000000000002</ele><time>2026-04-04T12:09:29Z</time></trkpt><trkpt lat="43.66724228979048" lon="11.330278669823027"><ele>173.60000000000002</ele><time>2026-04-04T12:09:30Z</time></trkpt><trkpt lat="43.66717372364681" lon="11.330196834736464"><ele>173.0</ele><time>2026-04-04T12:09:31Z</time></trkpt><trkpt lat="43.66710911564655" lon="11.330108511170927"><ele>173.0</ele><time>2026-04-04T12:09:32Z</time></trkpt><trkpt lat="43.66704662054421" lon="11.33001831515737"><ele>173.0</ele><time>2026-04-04T12:09:33Z</time></trkpt><trkpt lat="43.66699595451836" lon="11.32992007792707"><ele>173.0</ele><time>2026-04-04T12:09:34Z</time></trkpt><trkpt lat="43.66695128664443" lon="11.329821946168982"><ele>173.0</ele><time>2026-04-04T12:09:35Z</time></trkpt><trkpt lat="43.66690018910755" lon="11.329732417985374"><ele>173.0</ele><time>2026-04-04T12:09:36Z</time></trkpt><trkpt lat="43.666851875724525" lon="11.329640271597997"><ele>173.0</ele><time>2026-04-04T12:09:37Z</time></trkpt><trkpt lat="43.66680462901688" lon="11.329548913829337"><ele>171.83333333333331</ele><time>2026-04-04T12:09:38Z</time></trkpt><trkpt lat="43.666755947694284" lon="11.329457039782481"><ele>170.66666666666666</ele><time>2026-04-04T12:09:39Z</time></trkpt><trkpt lat="43.66670421847074" lon="11.32937091957334"><ele>169.5</ele><time>2026-04-04T12:09:40Z</time></trkpt><trkpt lat="43.66665680259844" lon="11.329283751900213"><ele>168.33333333333334</ele><time>2026-04-04T12:09:41Z</time></trkpt><trkpt lat="43.66660857136525" lon="11.329197472569989"><ele>167.16666666666669</ele><time>2026-04-04T12:09:42Z</time></trkpt><trkpt lat="43.66656279642751" lon="11.329108437054728"><ele>166.0</ele><time>2026-04-04T12:09:43Z</time></trkpt><trkpt lat="43.66651359059488" lon="11.32902510130331"><ele>166.0</ele><time>2026-04-04T12:09:44Z</time></trkpt><trkpt lat="43.66646755602276" lon="11.328942400720324"><ele>166.0</ele><time>2026-04-04T12:09:45Z</time></trkpt><trkpt lat="43.66642347176154" lon="11.328863958168641"><ele>166.0</ele><time>2026-04-04T12:09:46Z</time></trkpt><trkpt lat="43.66637434452459" lon="11.328789000223878"><ele>166.0</ele><time>2026-04-04T12:09:47Z</time></trkpt><trkpt lat="43.66633104595063" lon="11.32870832257346"><ele>166.0</ele><time>2026-04-04T12:09:48Z</time></trkpt><trkpt lat="43.66629030671285" lon="11.328630942772707"><ele>166.0</ele><time>2026-04-04T12:09:49Z</time></trkpt><trkpt lat="43.66624975029698" lon="11.328553102378999"><ele>166.0</ele><time>2026-04-04T12:09:50Z</time></trkpt><trkpt lat="43.666208832943916" lon="11.328477458571305"><ele>165.7142857142857</ele><time>2026-04-04T12:09:51Z</time></trkpt><trkpt lat="43.66616414118765" lon="11.328407876749479"><ele>165.42857142857144</ele><time>2026-04-04T12:09:52Z</time></trkpt><trkpt lat="43.6661247001604" lon="11.328331497117157"><ele>165.14285714285714</ele><time>2026-04-04T12:09:53Z</time></trkpt><trkpt lat="43.6660820849035" lon="11.328258481855372"><ele>164.85714285714283</ele><time>2026-04-04T12:09:54Z</time></trkpt><trkpt lat="43.666042115111104" lon="11.328183748762381"><ele>164.57142857142856</ele><time>2026-04-04T12:09:55Z</time></trkpt><trkpt lat="43.666005611589334" lon="11.328105845250066"><ele>164.28571428571428</ele><time>2026-04-04T12:09:56Z</time></trkpt><trkpt lat="43.665973588523634" lon="11.328025668281391"><ele>164.0</ele><time>2026-04-04T12:09:57Z</time></trkpt><trkpt lat="43.66594144535358" lon="11.327945900601687"><ele>163.85714285714283</ele><time>2026-04-04T12:09:58Z</time></trkpt><trkpt lat="43.665918952327985" lon="11.327856779283456"><ele>163.71428571428572</ele><time>2026-04-04T12:09:59Z</time></trkpt><trkpt lat="43.665904895283134" lon="11.327762920364796"><ele>163.57142857142856</ele><time>2026-04-04T12:10:00Z</time></trkpt><trkpt lat="43.665893541285826" lon="11.327666567564043"><ele>163.42857142857142</ele><time>2026-04-04T12:10:01Z</time></trkpt><trkpt lat="43.66588451630764" lon="11.327571777144215"><ele>163.28571428571428</ele><time>2026-04-04T12:10:02Z</time></trkpt><trkpt lat="43.66587916268756" lon="11.327477190621167"><ele>163.14285714285714</ele><time>2026-04-04T12:10:03Z</time></trkpt><trkpt lat="43.66587486734999" lon="11.327378781455648"><ele>163.0</ele><time>2026-04-04T12:10:04Z</time></trkpt><trkpt lat="43.665870471131285" lon="11.327283757107653"><ele>163.14285714285714</ele><time>2026-04-04T12:10:05Z</time></trkpt><trkpt lat="43.665864431015486" lon="11.327189308464899"><ele>163.28571428571428</ele><time>2026-04-04T12:10:06Z</time></trkpt><trkpt lat="43.665862485223045" lon="11.32709501031068"><ele>163.42857142857142</ele><time>2026-04-04T12:10:07Z</time></trkpt><trkpt lat="43.66585976806348" lon="11.327007637550244"><ele>163.57142857142856</ele><time>2026-04-04T12:10:08Z</time></trkpt><trkpt lat="43.66585642349898" lon="11.326918951722943"><ele>163.71428571428572</ele><time>2026-04-04T12:10:09Z</time></trkpt><trkpt lat="43.66585479019965" lon="11.326826037854454"><ele>163.85714285714283</ele><time>2026-04-04T12:10:10Z</time></trkpt><trkpt lat="43.66585467384554" lon="11.326734512661323"><ele>164.0</ele><time>2026-04-04T12:10:11Z</time></trkpt><trkpt lat="43.6658591355749" lon="11.326642077831611"><ele>164.0</ele><time>2026-04-04T12:10:12Z</time></trkpt><trkpt lat="43.6658770593992" lon="11.326554370143647"><ele>164.0</ele><time>2026-04-04T12:10:13Z</time></trkpt><trkpt lat="43.66589743254261" lon="11.32646685103282"><ele>164.0</ele><time>2026-04-04T12:10:14Z</time></trkpt><trkpt lat="43.66592570684928" lon="11.326296729492244"><ele>164.0</ele><time>2026-04-04T12:10:16Z</time></trkpt><trkpt lat="43.66594386358758" lon="11.326204754959624"><ele>164.0</ele><time>2026-04-04T12:10:17Z</time></trkpt><trkpt lat="43.66595867287129" lon="11.326116398032735"><ele>164.0</ele><time>2026-04-04T12:10:18Z</time></trkpt><trkpt lat="43.66597166741491" lon="11.326026497590695"><ele>164.0</ele><time>2026-04-04T12:10:19Z</time></trkpt><trkpt lat="43.66598289575249" lon="11.325935674849534"><ele>164.0</ele><time>2026-04-04T12:10:20Z</time></trkpt><trkpt lat="43.66599479434008" lon="11.325844492247983"><ele>164.0</ele><time>2026-04-04T12:10:21Z</time></trkpt><trkpt lat="43.66600020616804" lon="11.325751741408336"><ele>164.0</ele><time>2026-04-04T12:10:22Z</time></trkpt><trkpt lat="43.66600487934829" lon="11.325661017722332"><ele>164.0</ele><time>2026-04-04T12:10:23Z</time></trkpt><trkpt lat="43.66600551216131" lon="11.325572127158948"><ele>164.0</ele><time>2026-04-04T12:10:24Z</time></trkpt><trkpt lat="43.666011944354636" lon="11.325397153647987"><ele>164.0</ele><time>2026-04-04T12:10:26Z</time></trkpt><trkpt lat="43.66601041303376" lon="11.325222940183895"><ele>164.0</ele><time>2026-04-04T12:10:28Z</time></trkpt><trkpt lat="43.66601889094585" lon="11.325052180702619"><ele>164.0</ele><time>2026-04-04T12:10:30Z</time></trkpt><trkpt lat="43.666022753896605" lon="11.324877727058732"><ele>164.0</ele><time>2026-04-04T12:10:32Z</time></trkpt><trkpt lat="43.66602379650916" lon="11.324786476808383"><ele>164.0</ele><time>2026-04-04T12:10:33Z</time></trkpt><trkpt lat="43.666027297555374" lon="11.32469453843944"><ele>163.99999999999997</ele><time>2026-04-04T12:10:34Z</time></trkpt><trkpt lat="43.666031813135895" lon="11.324605645009177"><ele>164.0</ele><time>2026-04-04T12:10:35Z</time></trkpt><trkpt lat="43.666045397505115" lon="11.32451997289313"><ele>164.0</ele><time>2026-04-04T12:10:36Z</time></trkpt><trkpt lat="43.66606322864132" lon="11.324435115799869"><ele>164.0</ele><time>2026-04-04T12:10:37Z</time></trkpt><trkpt lat="43.66608694646147" lon="11.32434980335013"><ele>164.0</ele><time>2026-04-04T12:10:38Z</time></trkpt><trkpt lat="43.66611251805871" lon="11.324265832829896"><ele>163.99999999999997</ele><time>2026-04-04T12:10:39Z</time></trkpt><trkpt lat="43.66614751875999" lon="11.324187413417174"><ele>164.0</ele><time>2026-04-04T12:10:40Z</time></trkpt><trkpt lat="43.66618435163258" lon="11.324112374504425"><ele>163.99999999999997</ele><time>2026-04-04T12:10:41Z</time></trkpt><trkpt lat="43.66622375114865" lon="11.324033044398425"><ele>164.0</ele><time>2026-04-04T12:10:42Z</time></trkpt><trkpt lat="43.66626061377159" lon="11.32395778263333"><ele>164.0</ele><time>2026-04-04T12:10:43Z</time></trkpt><trkpt lat="43.666300894778" lon="11.32388564236198"><ele>164.0</ele><time>2026-04-04T12:10:44Z</time></trkpt><trkpt lat="43.66633956659612" lon="11.323815339550837"><ele>164.0</ele><time>2026-04-04T12:10:45Z</time></trkpt><trkpt lat="43.66637658383686" lon="11.323740199686057"><ele>163.99999999999997</ele><time>2026-04-04T12:10:46Z</time></trkpt><trkpt lat="43.66641251515539" lon="11.32366555193376"><ele>164.0</ele><time>2026-04-04T12:10:47Z</time></trkpt><trkpt lat="43.66644905113661" lon="11.323592553462815"><ele>162.99999999999997</ele><time>2026-04-04T12:10:48Z</time></trkpt><trkpt lat="43.66648516824044" lon="11.323520760899717"><ele>162.0</ele><time>2026-04-04T12:10:49Z</time></trkpt><trkpt lat="43.666521319766055" lon="11.323447694813352"><ele>161.0</ele><time>2026-04-04T12:10:50Z</time></trkpt><trkpt lat="43.666556753721956" lon="11.323373765052741"><ele>160.0</ele><time>2026-04-04T12:10:51Z</time></trkpt><trkpt lat="43.666592208319926" lon="11.323299041473456"><ele>159.0</ele><time>2026-04-04T12:10:52Z</time></trkpt><trkpt lat="43.66662763244204" lon="11.323223854698677"><ele>157.99999999999997</ele><time>2026-04-04T12:10:53Z</time></trkpt><trkpt lat="43.666663391618364" lon="11.3231487324286"><ele>157.0</ele><time>2026-04-04T12:10:54Z</time></trkpt><trkpt lat="43.66669591080791" lon="11.32307193873423"><ele>156.33333333333334</ele><time>2026-04-04T12:10:55Z</time></trkpt><trkpt lat="43.66672328751866" lon="11.32299152768917"><ele>155.66666666666669</ele><time>2026-04-04T12:10:56Z</time></trkpt><trkpt lat="43.66674338458812" lon="11.32290816308448"><ele>155.0</ele><time>2026-04-04T12:10:56.999Z</time></trkpt><trkpt lat="43.66678446903752" lon="11.322831902495908"><ele>154.33333333333334</ele><time>2026-04-04T12:10:57.999Z</time></trkpt><trkpt lat="43.66679414468578" lon="11.322744844305383"><ele>153.66666666666666</ele><time>2026-04-04T12:10:58.999Z</time></trkpt><trkpt lat="43.66681451307904" lon="11.322659609016787"><ele>153.0</ele><time>2026-04-04T12:10:59.999Z</time></trkpt><trkpt lat="43.666849244075514" lon="11.32249088460827"><ele>153.0</ele><time>2026-04-04T12:11:01.999Z</time></trkpt><trkpt lat="43.666856484136964" lon="11.322402887260541"><ele>153.0</ele><time>2026-04-04T12:11:02.999Z</time></trkpt><trkpt lat="43.66686264099923" lon="11.32223198501393"><ele>153.0</ele><time>2026-04-04T12:11:04.999Z</time></trkpt><trkpt lat="43.66686214857551" lon="11.322061088968233"><ele>153.0</ele><time>2026-04-04T12:11:06.999Z</time></trkpt><trkpt lat="43.66685229772833" lon="11.321972981995284"><ele>153.0</ele><time>2026-04-04T12:11:07.999Z</time></trkpt><trkpt lat="43.66684738037884" lon="11.32188289065713"><ele>153.0</ele><time>2026-04-04T12:11:08.999Z</time></trkpt><trkpt lat="43.66684471114407" lon="11.321793294228488"><ele>152.71428571428572</ele><time>2026-04-04T12:11:09.999Z</time></trkpt><trkpt lat="43.666825607367805" lon="11.321706744618405"><ele>152.42857142857144</ele><time>2026-04-04T12:11:10.999Z</time></trkpt><trkpt lat="43.666810095268474" lon="11.321619901357257"><ele>152.14285714285717</ele><time>2026-04-04T12:11:11.999Z</time></trkpt><trkpt lat="43.66679431458359" lon="11.321532977100368"><ele>151.85714285714286</ele><time>2026-04-04T12:11:12.999Z</time></trkpt><trkpt lat="43.666773173713715" lon="11.32145051602858"><ele>151.57142857142858</ele><time>2026-04-04T12:11:13.999Z</time></trkpt><trkpt lat="43.666745870204934" lon="11.321367522321607"><ele>151.2857142857143</ele><time>2026-04-04T12:11:15Z</time></trkpt><trkpt lat="43.666722478749215" lon="11.321283236404794"><ele>151.0</ele><time>2026-04-04T12:11:16Z</time></trkpt><trkpt lat="43.6667028119716" lon="11.321197756439352"><ele>150.8</ele><time>2026-04-04T12:11:17Z</time></trkpt><trkpt lat="43.66668592258546" lon="11.321112695346134"><ele>150.6</ele><time>2026-04-04T12:11:18Z</time></trkpt><trkpt lat="43.66666711266484" lon="11.321028276089557"><ele>150.4</ele><time>2026-04-04T12:11:19Z</time></trkpt><trkpt lat="43.66662417214481" lon="11.320873624812027"><ele>150.2</ele><time>2026-04-04T12:11:21Z</time></trkpt><trkpt lat="43.666590797556765" lon="11.320705274120705"><ele>150.0</ele><time>2026-04-04T12:11:23Z</time></trkpt><trkpt lat="43.66655377743661" lon="11.320541836926568"><ele>149.99999999999997</ele><time>2026-04-04T12:11:25Z</time></trkpt><trkpt lat="43.666532370028214" lon="11.320458133412904"><ele>150.0</ele><time>2026-04-04T12:11:26Z</time></trkpt><trkpt lat="43.66651398355534" lon="11.320373823115492"><ele>150.0</ele><time>2026-04-04T12:11:27Z</time></trkpt><trkpt lat="43.66649473737627" lon="11.320288858413784"><ele>150.0</ele><time>2026-04-04T12:11:28Z</time></trkpt><trkpt lat="43.6664729677827" lon="11.32019699855584"><ele>150.0</ele><time>2026-04-04T12:11:29Z</time></trkpt><trkpt lat="43.66644574244427" lon="11.320110304621714"><ele>149.99999999999997</ele><time>2026-04-04T12:11:30Z</time></trkpt><trkpt lat="43.66642229530692" lon="11.320017410113861"><ele>150.0</ele><time>2026-04-04T12:11:31Z</time></trkpt><trkpt lat="43.66640479186107" lon="11.319923362200658"><ele>150.0</ele><time>2026-04-04T12:11:32Z</time></trkpt><trkpt lat="43.66638034973746" lon="11.31983869123847"><ele>150.0</ele><time>2026-04-04T12:11:33Z</time></trkpt><trkpt lat="43.66635621383704" lon="11.319749167043964"><ele>150.0</ele><time>2026-04-04T12:11:34Z</time></trkpt><trkpt lat="43.6663309441759" lon="11.319658792419958"><ele>150.0</ele><time>2026-04-04T12:11:35Z</time></trkpt><trkpt lat="43.666316374821804" lon="11.319564278592939"><ele>150.0</ele><time>2026-04-04T12:11:36Z</time></trkpt><trkpt lat="43.66627665899468" lon="11.319397827533228"><ele>150.0</ele><time>2026-04-04T12:11:38Z</time></trkpt><trkpt lat="43.666236616591696" lon="11.319237978459183"><ele>150.5</ele><time>2026-04-04T12:11:40Z</time></trkpt><trkpt lat="43.66620081866319" lon="11.31908079629433"><ele>151.0</ele><time>2026-04-04T12:11:42Z</time></trkpt><trkpt lat="43.6661637103034" lon="11.318921042900023"><ele>151.5</ele><time>2026-04-04T12:11:44Z</time></trkpt><trkpt lat="43.666135348772045" lon="11.318760575643642"><ele>152.0</ele><time>2026-04-04T12:11:46Z</time></trkpt><trkpt lat="43.66609745837867" lon="11.318605091839077"><ele>150.75</ele><time>2026-04-04T12:11:48Z</time></trkpt><trkpt lat="43.66606257645481" lon="11.318459591238826"><ele>149.5</ele><time>2026-04-04T12:11:50Z</time></trkpt><trkpt lat="43.66602819157335" lon="11.31830460316671"><ele>148.25</ele><time>2026-04-04T12:11:52Z</time></trkpt><trkpt lat="43.66599587503177" lon="11.318148839176974"><ele>147.0</ele><time>2026-04-04T12:11:54Z</time></trkpt><trkpt lat="43.66595929714627" lon="11.317998701368134"><ele>147.0</ele><time>2026-04-04T12:11:56Z</time></trkpt><trkpt lat="43.665922335894116" lon="11.31783766632023"><ele>147.0</ele><time>2026-04-04T12:11:58Z</time></trkpt><trkpt lat="43.66588641836807" lon="11.317674934473866"><ele>147.0</ele><time>2026-04-04T12:12:00Z</time></trkpt><trkpt lat="43.66584890666658" lon="11.317510912333116"><ele>147.0</ele><time>2026-04-04T12:12:02Z</time></trkpt><trkpt lat="43.66582749203191" lon="11.317427943852985"><ele>147.0</ele><time>2026-04-04T12:12:03Z</time></trkpt><trkpt lat="43.665805699995694" lon="11.317346235614188"><ele>147.0</ele><time>2026-04-04T12:12:04Z</time></trkpt><trkpt lat="43.66578342425867" lon="11.317260904757235"><ele>147.0</ele><time>2026-04-04T12:12:05Z</time></trkpt><trkpt lat="43.66576324969417" lon="11.317175308076232"><ele>147.0</ele><time>2026-04-04T12:12:06Z</time></trkpt><trkpt lat="43.66574201622322" lon="11.31708619039093"><ele>147.0</ele><time>2026-04-04T12:12:07Z</time></trkpt><trkpt lat="43.66572141224628" lon="11.317000286302838"><ele>147.0</ele><time>2026-04-04T12:12:08Z</time></trkpt><trkpt lat="43.66570028288565" lon="11.316914808433623"><ele>147.0</ele><time>2026-04-04T12:12:09Z</time></trkpt><trkpt lat="43.66568225169723" lon="11.316829648543187"><ele>147.0</ele><time>2026-04-04T12:12:10Z</time></trkpt><trkpt lat="43.66566231637387" lon="11.3167411394779"><ele>146.85714285714286</ele><time>2026-04-04T12:12:11Z</time></trkpt><trkpt lat="43.66564327737458" lon="11.316653164943117"><ele>146.71428571428572</ele><time>2026-04-04T12:12:12Z</time></trkpt><trkpt lat="43.66562385499655" lon="11.316562918518638"><ele>146.57142857142856</ele><time>2026-04-04T12:12:13Z</time></trkpt><trkpt lat="43.665605545980384" lon="11.316475231280974"><ele>146.42857142857144</ele><time>2026-04-04T12:12:14Z</time></trkpt><trkpt lat="43.66558419567934" lon="11.316386436935469"><ele>146.28571428571428</ele><time>2026-04-04T12:12:15Z</time></trkpt><trkpt lat="43.66556172299319" lon="11.316300547097773"><ele>146.14285714285714</ele><time>2026-04-04T12:12:16Z</time></trkpt><trkpt lat="43.66553997598109" lon="11.316214340433152"><ele>146.0</ele><time>2026-04-04T12:12:17Z</time></trkpt><trkpt lat="43.66551867411314" lon="11.316124104632125"><ele>146.0</ele><time>2026-04-04T12:12:18Z</time></trkpt><trkpt lat="43.66549766730909" lon="11.316031964004718"><ele>146.0</ele><time>2026-04-04T12:12:19Z</time></trkpt><trkpt lat="43.66547654099959" lon="11.315941116511196"><ele>146.0</ele><time>2026-04-04T12:12:20Z</time></trkpt><trkpt lat="43.66545447948501" lon="11.315847654963173"><ele>146.0</ele><time>2026-04-04T12:12:21Z</time></trkpt><trkpt lat="43.6654286832896" lon="11.315758956023325"><ele>146.0</ele><time>2026-04-04T12:12:22Z</time></trkpt><trkpt lat="43.66540623239414" lon="11.315665991395175"><ele>146.0</ele><time>2026-04-04T12:12:23Z</time></trkpt><trkpt lat="43.66538579434322" lon="11.315578782969867"><ele>146.0</ele><time>2026-04-04T12:12:24Z</time></trkpt><trkpt lat="43.66536907574707" lon="11.315488335853955"><ele>145.33333333333331</ele><time>2026-04-04T12:12:25Z</time></trkpt><trkpt lat="43.66534456792153" lon="11.315388219510599"><ele>144.66666666666666</ele><time>2026-04-04T12:12:26Z</time></trkpt><trkpt lat="43.6653100786128" lon="11.315305228822327"><ele>144.0</ele><time>2026-04-04T12:12:27Z</time></trkpt><trkpt lat="43.665282699891435" lon="11.315224144973502"><ele>143.33333333333334</ele><time>2026-04-04T12:12:28Z</time></trkpt><trkpt lat="43.665252263276344" lon="11.315138878460568"><ele>142.66666666666669</ele><time>2026-04-04T12:12:29Z</time></trkpt><trkpt lat="43.665208647358256" lon="11.315065422330054"><ele>142.0</ele><time>2026-04-04T12:12:30Z</time></trkpt><trkpt lat="43.66512101154699" lon="11.314940632797645"><ele>141.79999999999998</ele><time>2026-04-04T12:12:32Z</time></trkpt><trkpt lat="43.66502048106714" lon="11.314845496564105"><ele>141.6</ele><time>2026-04-04T12:12:34Z</time></trkpt><trkpt lat="43.66492385572701" lon="11.314768775429577"><ele>141.39999999999998</ele><time>2026-04-04T12:12:36Z</time></trkpt><trkpt lat="43.66482542307472" lon="11.314705083114383"><ele>141.2</ele><time>2026-04-04T12:12:38Z</time></trkpt><trkpt lat="43.664732725339206" lon="11.314658839405809"><ele>141.0</ele><time>2026-04-04T12:12:40Z</time></trkpt><trkpt lat="43.66464184627754" lon="11.314632239538282"><ele>140.83333333333334</ele><time>2026-04-04T12:12:42Z</time></trkpt><trkpt lat="43.66455460180692" lon="11.314612885936508"><ele>140.66666666666666</ele><time>2026-04-04T12:12:44Z</time></trkpt><trkpt lat="43.66447435447868" lon="11.31460209187801"><ele>140.5</ele><time>2026-04-04T12:12:46Z</time></trkpt><trkpt lat="43.664401068295305" lon="11.314588163635973"><ele>140.33333333333331</ele><time>2026-04-04T12:12:48Z</time></trkpt><trkpt lat="43.66432625372171" lon="11.314570934730273"><ele>140.16666666666666</ele><time>2026-04-04T12:12:49.999Z</time></trkpt><trkpt lat="43.66424964895466" lon="11.314554836678981"><ele>140.0</ele><time>2026-04-04T12:12:51.999Z</time></trkpt><trkpt lat="43.66417490438337" lon="11.314532694451326"><ele>140.57142857142858</ele><time>2026-04-04T12:12:53.999Z</time></trkpt><trkpt lat="43.66409539195859" lon="11.314524675467219"><ele>141.14285714285714</ele><time>2026-04-04T12:12:55.999Z</time></trkpt><trkpt lat="43.66401622376387" lon="11.314505086991435"><ele>141.71428571428572</ele><time>2026-04-04T12:12:57.999Z</time></trkpt><trkpt lat="43.66393917775826" lon="11.314491854546528"><ele>142.28571428571428</ele><time>2026-04-04T12:12:59.999Z</time></trkpt><trkpt lat="43.66386444234771" lon="11.314491746098833"><ele>142.85714285714286</ele><time>2026-04-04T12:13:01.999Z</time></trkpt><trkpt lat="43.66379529801617" lon="11.314505100496934"><ele>143.42857142857144</ele><time>2026-04-04T12:13:03.999Z</time></trkpt><trkpt lat="43.66373019990643" lon="11.314501757973789"><ele>144.0</ele><time>2026-04-04T12:13:05.999Z</time></trkpt><trkpt lat="43.6636704565528" lon="11.314559301403305"><ele>144.33333333333334</ele><time>2026-04-04T12:13:07.999Z</time></trkpt><trkpt lat="43.663611099881216" lon="11.314588775535045"><ele>144.66666666666666</ele><time>2026-04-04T12:13:09.999Z</time></trkpt><trkpt lat="43.66352427041687" lon="11.314636638889887"><ele>145.0</ele><time>2026-04-04T12:13:12.999Z</time></trkpt><trkpt lat="43.6634391417423" lon="11.3146872861404"><ele>145.33333333333331</ele><time>2026-04-04T12:13:15.999Z</time></trkpt><trkpt lat="43.6633604766112" lon="11.314737483525915"><ele>145.66666666666666</ele><time>2026-04-04T12:13:18.999Z</time></trkpt><trkpt lat="43.66327213759978" lon="11.314783559368625"><ele>146.0</ele><time>2026-04-04T12:13:22Z</time></trkpt><trkpt lat="43.66318847973614" lon="11.314825437929962"><ele>146.0</ele><time>2026-04-04T12:13:25Z</time></trkpt><trkpt lat="43.663102780942424" lon="11.314847282050158"><ele>146.0</ele><time>2026-04-04T12:13:28Z</time></trkpt><trkpt lat="43.66301341678418" lon="11.31485122415046"><ele>146.0</ele><time>2026-04-04T12:13:31Z</time></trkpt><trkpt lat="43.66292542531195" lon="11.314851560142273"><ele>146.0</ele><time>2026-04-04T12:13:34Z</time></trkpt><trkpt lat="43.66283889106714" lon="11.314833806098395"><ele>146.0</ele><time>2026-04-04T12:13:37Z</time></trkpt><trkpt lat="43.66275290544903" lon="11.314808099001468"><ele>146.0</ele><time>2026-04-04T12:13:40Z</time></trkpt><trkpt lat="43.66267124530682" lon="11.314770995895874"><ele>146.28571428571428</ele><time>2026-04-04T12:13:43Z</time></trkpt><trkpt lat="43.662591801467485" lon="11.314738992498627"><ele>146.57142857142858</ele><time>2026-04-04T12:13:46Z</time></trkpt><trkpt lat="43.66251628513262" lon="11.314696724234489"><ele>146.85714285714286</ele><time>2026-04-04T12:13:49Z</time></trkpt><trkpt lat="43.662449304108314" lon="11.31465363112861"><ele>147.14285714285714</ele><time>2026-04-04T12:13:52Z</time></trkpt><trkpt lat="43.662384781273055" lon="11.314611424896578"><ele>147.42857142857142</ele><time>2026-04-04T12:13:55Z</time></trkpt><trkpt lat="43.662324449515154" lon="11.314565225858438"><ele>147.71428571428572</ele><time>2026-04-04T12:13:58Z</time></trkpt><trkpt lat="43.66226384210123" lon="11.314517776866364"><ele>148.0</ele><time>2026-04-04T12:14:01Z</time></trkpt><trkpt lat="43.66220382004311" lon="11.314465572903403"><ele>149.14285714285714</ele><time>2026-04-04T12:14:04Z</time></trkpt><trkpt lat="43.66214433530898" lon="11.314423126540792"><ele>150.28571428571428</ele><time>2026-04-04T12:14:07Z</time></trkpt><trkpt lat="43.66208328175766" lon="11.314380423387975"><ele>151.42857142857144</ele><time>2026-04-04T12:14:10Z</time></trkpt><trkpt lat="43.662021363813125" lon="11.314341286560136"><ele>152.57142857142856</ele><time>2026-04-04T12:14:13Z</time></trkpt><trkpt lat="43.661958954903774" lon="11.31430503736848"><ele>153.7142857142857</ele><time>2026-04-04T12:14:16Z</time></trkpt><trkpt lat="43.661893730148954" lon="11.31426778839124"><ele>154.85714285714286</ele><time>2026-04-04T12:14:19Z</time></trkpt><trkpt lat="43.661830882539405" lon="11.314234554385795"><ele>156.0</ele><time>2026-04-04T12:14:22Z</time></trkpt><trkpt lat="43.661767870191156" lon="11.314192101517564"><ele>156.0</ele><time>2026-04-04T12:14:25Z</time></trkpt><trkpt lat="43.66170202110935" lon="11.314168467398245"><ele>156.0</ele><time>2026-04-04T12:14:28Z</time></trkpt><trkpt lat="43.66163561398053" lon="11.314135219559729"><ele>156.0</ele><time>2026-04-04T12:14:31Z</time></trkpt><trkpt lat="43.66156766190018" lon="11.314102953511233"><ele>156.0</ele><time>2026-04-04T12:14:34Z</time></trkpt><trkpt lat="43.66150218084991" lon="11.314071468745539"><ele>156.0</ele><time>2026-04-04T12:14:37Z</time></trkpt><trkpt lat="43.66144269279692" lon="11.314035592053578"><ele>156.0</ele><time>2026-04-04T12:14:40Z</time></trkpt><trkpt lat="43.66138070752916" lon="11.314007496741821"><ele>156.0</ele><time>2026-04-04T12:14:43Z</time></trkpt><trkpt lat="43.66131884110129" lon="11.313980975490184"><ele>156.0</ele><time>2026-04-04T12:14:46Z</time></trkpt><trkpt lat="43.66125743694144" lon="11.313955384584888"><ele>156.0</ele><time>2026-04-04T12:14:48.999Z</time></trkpt><trkpt lat="43.66119618010627" lon="11.313928777920907"><ele>156.0</ele><time>2026-04-04T12:14:51.999Z</time></trkpt><trkpt lat="43.66113139070137" lon="11.313904464079153"><ele>156.0</ele><time>2026-04-04T12:14:54.999Z</time></trkpt><trkpt lat="43.6610648740578" lon="11.313883529512132"><ele>156.0</ele><time>2026-04-04T12:14:57.999Z</time></trkpt><trkpt lat="43.66100270118163" lon="11.313854515694183"><ele>156.0</ele><time>2026-04-04T12:15:00.999Z</time></trkpt><trkpt lat="43.66093269077662" lon="11.313846402605591"><ele>156.0</ele><time>2026-04-04T12:15:03.999Z</time></trkpt><trkpt lat="43.66086471990837" lon="11.31383476887429"><ele>158.85714285714286</ele><time>2026-04-04T12:15:06.999Z</time></trkpt><trkpt lat="43.660797377399106" lon="11.313829808440445"><ele>161.7142857142857</ele><time>2026-04-04T12:15:09.999Z</time></trkpt><trkpt lat="43.66072734230553" lon="11.313825783197766"><ele>164.57142857142856</ele><time>2026-04-04T12:15:12.999Z</time></trkpt><trkpt lat="43.6606586536678" lon="11.313826373647649"><ele>167.42857142857144</ele><time>2026-04-04T12:15:15.999Z</time></trkpt><trkpt lat="43.660593011650356" lon="11.313812411272135"><ele>170.28571428571428</ele><time>2026-04-04T12:15:18.999Z</time></trkpt><trkpt lat="43.66052668191986" lon="11.313813828533455"><ele>173.14285714285714</ele><time>2026-04-04T12:15:21.999Z</time></trkpt><trkpt lat="43.66045936247649" lon="11.313803184658097"><ele>176.0</ele><time>2026-04-04T12:15:24.999Z</time></trkpt><trkpt lat="43.66039250325985" lon="11.313806401489488"><ele>176.0</ele><time>2026-04-04T12:15:28.001Z</time></trkpt><trkpt lat="43.66032480409279" lon="11.313801921260279"><ele>176.0</ele><time>2026-04-04T12:15:31Z</time></trkpt><trkpt lat="43.66025509676115" lon="11.31379775478549"><ele>176.0</ele><time>2026-04-04T12:15:34Z</time></trkpt><trkpt lat="43.66018812125134" lon="11.313797754791814"><ele>176.0</ele><time>2026-04-04T12:15:37Z</time></trkpt><trkpt lat="43.660125175888425" lon="11.313779101048729"><ele>176.0</ele><time>2026-04-04T12:15:40Z</time></trkpt><trkpt lat="43.660060293750576" lon="11.31376406786175"><ele>176.0</ele><time>2026-04-04T12:15:43Z</time></trkpt><trkpt lat="43.65999656552727" lon="11.313742664771926"><ele>176.0</ele><time>2026-04-04T12:15:46Z</time></trkpt><trkpt lat="43.65993446515778" lon="11.313711601087748"><ele>175.71428571428572</ele><time>2026-04-04T12:15:49Z</time></trkpt><trkpt lat="43.659873857869734" lon="11.313680230412482"><ele>175.42857142857142</ele><time>2026-04-04T12:15:52Z</time></trkpt><trkpt lat="43.65981331318001" lon="11.313639683208313"><ele>175.14285714285714</ele><time>2026-04-04T12:15:55Z</time></trkpt><trkpt lat="43.6597542616239" lon="11.313607730375157"><ele>174.85714285714286</ele><time>2026-04-04T12:15:58Z</time></trkpt><trkpt lat="43.65969784150093" lon="11.31356910712808"><ele>174.57142857142858</ele><time>2026-04-04T12:16:01Z</time></trkpt><trkpt lat="43.65963676913768" lon="11.31354225300792"><ele>174.28571428571428</ele><time>2026-04-04T12:16:04Z</time></trkpt><trkpt lat="43.65958114424042" lon="11.313498924198264"><ele>174.0</ele><time>2026-04-04T12:16:07Z</time></trkpt><trkpt lat="43.65950386257342" lon="11.31345233897845"><ele>173.28571428571428</ele><time>2026-04-04T12:16:11Z</time></trkpt><trkpt lat="43.65944622559054" lon="11.313416993439821"><ele>172.57142857142858</ele><time>2026-04-04T12:16:14Z</time></trkpt><trkpt lat="43.65938818251709" lon="11.313378192769047"><ele>171.85714285714286</ele><time>2026-04-04T12:16:17Z</time></trkpt><trkpt lat="43.65932657778353" lon="11.313336727259708"><ele>171.14285714285714</ele><time>2026-04-04T12:16:20Z</time></trkpt><trkpt lat="43.65926681803781" lon="11.313281388097705"><ele>170.42857142857142</ele><time>2026-04-04T12:16:23Z</time></trkpt><trkpt lat="43.65920646330691" lon="11.313236604973046"><ele>169.71428571428572</ele><time>2026-04-04T12:16:26Z</time></trkpt><trkpt lat="43.659151268891335" lon="11.313178000778576"><ele>169.0</ele><time>2026-04-04T12:16:29Z</time></trkpt><trkpt lat="43.65909601524697" lon="11.313125745250021"><ele>170.57142857142858</ele><time>2026-04-04T12:16:32Z</time></trkpt><trkpt lat="43.659045417429866" lon="11.313070515676062"><ele>172.14285714285714</ele><time>2026-04-04T12:16:35Z</time></trkpt><trkpt lat="43.65898858189659" lon="11.313004072111939"><ele>173.71428571428572</ele><time>2026-04-04T12:16:38Z</time></trkpt><trkpt lat="43.658942920334944" lon="11.31294030158658"><ele>175.28571428571428</ele><time>2026-04-04T12:16:41Z</time></trkpt><trkpt lat="43.658894782141665" lon="11.312873532551356"><ele>176.85714285714286</ele><time>2026-04-04T12:16:44Z</time></trkpt><trkpt lat="43.6588470811124" lon="11.312810416370063"><ele>178.42857142857142</ele><time>2026-04-04T12:16:47Z</time></trkpt><trkpt lat="43.65880268838589" lon="11.312744315540387"><ele>180.0</ele><time>2026-04-04T12:16:50Z</time></trkpt><trkpt lat="43.65875791164879" lon="11.312678787639058"><ele>180.0</ele><time>2026-04-04T12:16:53Z</time></trkpt><trkpt lat="43.65870904165548" lon="11.312615501300863"><ele>180.0</ele><time>2026-04-04T12:16:56Z</time></trkpt><trkpt lat="43.658666918157145" lon="11.312550176067983"><ele>180.0</ele><time>2026-04-04T12:16:59Z</time></trkpt><trkpt lat="43.65862575041095" lon="11.3124811227065"><ele>180.0</ele><time>2026-04-04T12:17:01.999Z</time></trkpt><trkpt lat="43.65857949520315" lon="11.31241998301441"><ele>180.0</ele><time>2026-04-04T12:17:04.999Z</time></trkpt><trkpt lat="43.65853374799581" lon="11.312356014940171"><ele>180.0</ele><time>2026-04-04T12:17:07.999Z</time></trkpt><trkpt lat="43.65847712611765" lon="11.312269799422872"><ele>180.0</ele><time>2026-04-04T12:17:11.999Z</time></trkpt><trkpt lat="43.658420916790575" lon="11.312185010505738"><ele>180.42857142857142</ele><time>2026-04-04T12:17:15.999Z</time></trkpt><trkpt lat="43.65836436564743" lon="11.312100478073656"><ele>180.85714285714286</ele><time>2026-04-04T12:17:19.999Z</time></trkpt><trkpt lat="43.65831421588327" lon="11.312036638097934"><ele>181.28571428571428</ele><time>2026-04-04T12:17:22.999Z</time></trkpt><trkpt lat="43.65827094934817" lon="11.311968974501905"><ele>181.71428571428572</ele><time>2026-04-04T12:17:25.999Z</time></trkpt><trkpt lat="43.65822160100985" lon="11.311902180890115"><ele>182.14285714285717</ele><time>2026-04-04T12:17:28.999Z</time></trkpt><trkpt lat="43.658179092965554" lon="11.311834207706761"><ele>182.57142857142858</ele><time>2026-04-04T12:17:31.999Z</time></trkpt><trkpt lat="43.65811758936584" lon="11.31175298111623"><ele>183.0</ele><time>2026-04-04T12:17:36.001Z</time></trkpt><trkpt lat="43.6580780157968" lon="11.31168467576429"><ele>183.0</ele><time>2026-04-04T12:17:39.001Z</time></trkpt><trkpt lat="43.658020625590986" lon="11.311602225542003"><ele>183.0</ele><time>2026-04-04T12:17:43.001Z</time></trkpt><trkpt lat="43.65796951031076" lon="11.311511947390175"><ele>183.0</ele><time>2026-04-04T12:17:47.001Z</time></trkpt><trkpt lat="43.65792912246508" lon="11.311411643410889"><ele>183.0</ele><time>2026-04-04T12:17:51Z</time></trkpt><trkpt lat="43.65790025709362" lon="11.311327769356907"><ele>183.0</ele><time>2026-04-04T12:17:54Z</time></trkpt><trkpt lat="43.657892743646734" lon="11.311238862528661"><ele>183.0</ele><time>2026-04-04T12:17:57Z</time></trkpt><trkpt lat="43.657883424027084" lon="11.311149799975922"><ele>183.0</ele><time>2026-04-04T12:18:00Z</time></trkpt><trkpt lat="43.657872806979526" lon="11.31103857015631"><ele>184.57142857142858</ele><time>2026-04-04T12:18:04Z</time></trkpt><trkpt lat="43.65785874128313" lon="11.310925443168397"><ele>186.14285714285717</ele><time>2026-04-04T12:18:08Z</time></trkpt><trkpt lat="43.65785763793698" lon="11.310811236632624"><ele>187.71428571428572</ele><time>2026-04-04T12:18:12Z</time></trkpt><trkpt lat="43.65783860343001" lon="11.31069854954492"><ele>189.28571428571428</ele><time>2026-04-04T12:18:16Z</time></trkpt><trkpt lat="43.657825441608466" lon="11.31061065206553"><ele>190.85714285714286</ele><time>2026-04-04T12:18:19Z</time></trkpt><trkpt lat="43.65779361280592" lon="11.310528833071762"><ele>192.42857142857142</ele><time>2026-04-04T12:18:22Z</time></trkpt><trkpt lat="43.65775114318967" lon="11.310461436547918"><ele>194.0</ele><time>2026-04-04T12:18:25Z</time></trkpt><trkpt lat="43.65769126043812" lon="11.310411729772573"><ele>194.0</ele><time>2026-04-04T12:18:28Z</time></trkpt><trkpt lat="43.65763027231035" lon="11.31036921835478"><ele>194.0</ele><time>2026-04-04T12:18:31Z</time></trkpt><trkpt lat="43.65756530884411" lon="11.310340931560372"><ele>194.0</ele><time>2026-04-04T12:18:34Z</time></trkpt><trkpt lat="43.657498770264134" lon="11.310319810060339"><ele>194.0</ele><time>2026-04-04T12:18:37Z</time></trkpt><trkpt lat="43.6574143366596" lon="11.310305719973329"><ele>194.0</ele><time>2026-04-04T12:18:41Z</time></trkpt><trkpt lat="43.65735123750045" lon="11.31029083041702"><ele>194.0</ele><time>2026-04-04T12:18:44Z</time></trkpt><trkpt lat="43.65727460106083" lon="11.310277163504567"><ele>194.0</ele><time>2026-04-04T12:18:48Z</time></trkpt><trkpt lat="43.657201860420436" lon="11.310261593802414"><ele>194.00000000000003</ele><time>2026-04-04T12:18:52Z</time></trkpt><trkpt lat="43.65713111697102" lon="11.310224708814173"><ele>194.0</ele><time>2026-04-04T12:18:56Z</time></trkpt><trkpt lat="43.65705798739951" lon="11.31017817894905"><ele>194.0</ele><time>2026-04-04T12:19:00Z</time></trkpt><trkpt lat="43.65698782477505" lon="11.310130945838418"><ele>194.0</ele><time>2026-04-04T12:19:04Z</time></trkpt><trkpt lat="43.65691807742301" lon="11.31006790228825"><ele>194.00000000000003</ele><time>2026-04-04T12:19:07.999Z</time></trkpt><trkpt lat="43.6568674915133" lon="11.310010816381315"><ele>194.0</ele><time>2026-04-04T12:19:10.999Z</time></trkpt><trkpt lat="43.65679628245876" lon="11.309949384792366"><ele>193.28571428571428</ele><time>2026-04-04T12:19:14.999Z</time></trkpt><trkpt lat="43.65674616017782" lon="11.309892007012968"><ele>192.57142857142858</ele><time>2026-04-04T12:19:17.999Z</time></trkpt><trkpt lat="43.65669310184594" lon="11.309842356773995"><ele>191.85714285714286</ele><time>2026-04-04T12:19:20.999Z</time></trkpt><trkpt lat="43.65663898099799" lon="11.309795427571197"><ele>191.14285714285714</ele><time>2026-04-04T12:19:23.999Z</time></trkpt><trkpt lat="43.656583575681694" lon="11.30974404586975"><ele>190.42857142857144</ele><time>2026-04-04T12:19:26.999Z</time></trkpt><trkpt lat="43.65653247473261" lon="11.30969097630081"><ele>189.71428571428572</ele><time>2026-04-04T12:19:29.999Z</time></trkpt><trkpt lat="43.65647684524584" lon="11.309644686120693"><ele>189.0</ele><time>2026-04-04T12:19:32.999Z</time></trkpt><trkpt lat="43.656422270989076" lon="11.309595499640357"><ele>190.57142857142858</ele><time>2026-04-04T12:19:35.999Z</time></trkpt><trkpt lat="43.65636790650223" lon="11.309545772748132"><ele>192.14285714285714</ele><time>2026-04-04T12:19:39Z</time></trkpt><trkpt lat="43.656295256980584" lon="11.309488733553355"><ele>193.71428571428572</ele><time>2026-04-04T12:19:43Z</time></trkpt><trkpt lat="43.65623843764099" lon="11.3094464745206"><ele>195.28571428571428</ele><time>2026-04-04T12:19:46Z</time></trkpt><trkpt lat="43.6561620462157" lon="11.309396962751473"><ele>196.85714285714286</ele><time>2026-04-04T12:19:50Z</time></trkpt><trkpt lat="43.65610199085517" lon="11.309360955052265"><ele>198.42857142857144</ele><time>2026-04-04T12:19:53Z</time></trkpt><trkpt lat="43.65604394780213" lon="11.30932281558884"><ele>200.0</ele><time>2026-04-04T12:19:56Z</time></trkpt><trkpt lat="43.655968156166516" lon="11.309289313164976"><ele>200.00000000000003</ele><time>2026-04-04T12:20:00Z</time></trkpt><trkpt lat="43.65589322334655" lon="11.309249155129145"><ele>200.0</ele><time>2026-04-04T12:20:04Z</time></trkpt><trkpt lat="43.65582093646697" lon="11.309201031905804"><ele>200.0</ele><time>2026-04-04T12:20:08Z</time></trkpt><trkpt lat="43.65574747459299" lon="11.309154279654866"><ele>200.0</ele><time>2026-04-04T12:20:12Z</time></trkpt><trkpt lat="43.65567389442013" lon="11.309115208143837"><ele>200.00000000000003</ele><time>2026-04-04T12:20:16Z</time></trkpt><trkpt lat="43.65560321947259" lon="11.309065916725485"><ele>200.0</ele><time>2026-04-04T12:20:20Z</time></trkpt><trkpt lat="43.65552736252316" lon="11.309028808610458"><ele>200.00000000000003</ele><time>2026-04-04T12:20:24Z</time></trkpt><trkpt lat="43.655453253870924" lon="11.308987169851678"><ele>200.0</ele><time>2026-04-04T12:20:28Z</time></trkpt><trkpt lat="43.65537746996408" lon="11.308946217560289"><ele>200.0</ele><time>2026-04-04T12:20:32Z</time></trkpt><trkpt lat="43.65531696450039" lon="11.308916059495875"><ele>200.0</ele><time>2026-04-04T12:20:35Z</time></trkpt><trkpt lat="43.65523805864646" lon="11.308886575325076"><ele>200.00000000000003</ele><time>2026-04-04T12:20:39Z</time></trkpt><trkpt lat="43.6551650717615" lon="11.308851016350868"><ele>200.0</ele><time>2026-04-04T12:20:43Z</time></trkpt><trkpt lat="43.65508816822284" lon="11.308818421992136"><ele>201.66666666666669</ele><time>2026-04-04T12:20:47Z</time></trkpt><trkpt lat="43.655018568273455" lon="11.308783374670313"><ele>203.33333333333334</ele><time>2026-04-04T12:20:51Z</time></trkpt><trkpt lat="43.65494650538555" lon="11.308751114859039"><ele>205.0</ele><time>2026-04-04T12:20:55Z</time></trkpt><trkpt lat="43.65487277237631" lon="11.30872653251132"><ele>206.66666666666669</ele><time>2026-04-04T12:20:58.999Z</time></trkpt><trkpt lat="43.65478357516956" lon="11.308693101172414"><ele>208.33333333333334</ele><time>2026-04-04T12:21:03.999Z</time></trkpt><trkpt lat="43.65471246986899" lon="11.30865992518607"><ele>210.0</ele><time>2026-04-04T12:21:07.999Z</time></trkpt><trkpt lat="43.654638349078475" lon="11.308628536886332"><ele>210.0</ele><time>2026-04-04T12:21:11.999Z</time></trkpt><trkpt lat="43.654560893812125" lon="11.308597504125974"><ele>210.0</ele><time>2026-04-04T12:21:15.999Z</time></trkpt><trkpt lat="43.65448268395377" lon="11.308565914161008"><ele>210.0</ele><time>2026-04-04T12:21:19.999Z</time></trkpt><trkpt lat="43.654405090109094" lon="11.30853146438306"><ele>210.0</ele><time>2026-04-04T12:21:23.999Z</time></trkpt><trkpt lat="43.65432853542169" lon="11.308498363043846"><ele>210.0</ele><time>2026-04-04T12:21:27.999Z</time></trkpt><trkpt lat="43.65426810838345" lon="11.308471951738602"><ele>210.0</ele><time>2026-04-04T12:21:30.999Z</time></trkpt><trkpt lat="43.65418820240608" lon="11.308437233957424"><ele>209.83333333333334</ele><time>2026-04-04T12:21:34.999Z</time></trkpt><trkpt lat="43.65410884462879" lon="11.308401454983207"><ele>209.66666666666669</ele><time>2026-04-04T12:21:38.999Z</time></trkpt><trkpt lat="43.654033256063" lon="11.308368383179506"><ele>209.5</ele><time>2026-04-04T12:21:42.999Z</time></trkpt><trkpt lat="43.65397220887185" lon="11.308344126582917"><ele>209.33333333333334</ele><time>2026-04-04T12:21:46Z</time></trkpt><trkpt lat="43.65389271976919" lon="11.308313486834574"><ele>209.16666666666669</ele><time>2026-04-04T12:21:50Z</time></trkpt><trkpt lat="43.65381593465808" lon="11.308281593288191"><ele>209.0</ele><time>2026-04-04T12:21:54Z</time></trkpt><trkpt lat="43.6537367863599" lon="11.308251833367448"><ele>209.00000000000003</ele><time>2026-04-04T12:21:58Z</time></trkpt><trkpt lat="43.65365751513049" lon="11.308239925204763"><ele>209.0</ele><time>2026-04-04T12:22:02Z</time></trkpt><trkpt lat="43.65358062114377" lon="11.308227826016283"><ele>209.0</ele><time>2026-04-04T12:22:06Z</time></trkpt><trkpt lat="43.6535006129182" lon="11.30821565038752"><ele>209.0</ele><time>2026-04-04T12:22:10Z</time></trkpt><trkpt lat="43.65342166593375" lon="11.308199547930657"><ele>209.00000000000003</ele><time>2026-04-04T12:22:14Z</time></trkpt><trkpt lat="43.65334242797331" lon="11.308178395791655"><ele>209.0</ele><time>2026-04-04T12:22:18Z</time></trkpt><trkpt lat="43.65326474015745" lon="11.30817460411819"><ele>209.50000000000003</ele><time>2026-04-04T12:22:22Z</time></trkpt><trkpt lat="43.65318508565142" lon="11.308160386462724"><ele>210.0</ele><time>2026-04-04T12:22:26Z</time></trkpt><trkpt lat="43.65310990132726" lon="11.308137317204391"><ele>210.5</ele><time>2026-04-04T12:22:30Z</time></trkpt><trkpt lat="43.65303026264558" lon="11.308117579352558"><ele>211.0</ele><time>2026-04-04T12:22:34Z</time></trkpt><trkpt lat="43.65300098642219" lon="11.30803099950994"><ele>211.50000000000003</ele><time>2026-04-04T12:22:38Z</time></trkpt><trkpt lat="43.653073427188154" lon="11.307990656222513"><ele>212.0</ele><time>2026-04-04T12:22:41Z</time></trkpt><trkpt lat="43.65313344131844" lon="11.307956442503624"><ele>213.0</ele><time>2026-04-04T12:22:43.999Z</time></trkpt><trkpt lat="43.653192760473594" lon="11.307917706264698"><ele>214.0</ele><time>2026-04-04T12:22:46.999Z</time></trkpt><trkpt lat="43.65325778695017" lon="11.307889613385006"><ele>215.0</ele><time>2026-04-04T12:22:49.999Z</time></trkpt><trkpt lat="43.653321819292536" lon="11.307860480888008"><ele>216.0</ele><time>2026-04-04T12:22:52.999Z</time></trkpt><trkpt lat="43.65338170206789" lon="11.307819293999914"><ele>217.0</ele><time>2026-04-04T12:22:55.999Z</time></trkpt><trkpt lat="43.65344949658215" lon="11.307782686450496"><ele>218.0</ele><time>2026-04-04T12:22:58.999Z</time></trkpt><trkpt lat="43.65351895014246" lon="11.30774816809118"><ele>219.0</ele><time>2026-04-04T12:23:01.999Z</time></trkpt><trkpt lat="43.65358281193713" lon="11.307715480018203"><ele>219.2857142857143</ele><time>2026-04-04T12:23:04.999Z</time></trkpt><trkpt lat="43.653654475601954" lon="11.307686014031674"><ele>219.57142857142856</ele><time>2026-04-04T12:23:07.999Z</time></trkpt><trkpt lat="43.653718715223214" lon="11.307647077827816"><ele>219.85714285714286</ele><time>2026-04-04T12:23:10.999Z</time></trkpt><trkpt lat="43.65379046378323" lon="11.307629257348092"><ele>220.14285714285717</ele><time>2026-04-04T12:23:13.999Z</time></trkpt><trkpt lat="43.653859324644706" lon="11.30760516858594"><ele>220.42857142857144</ele><time>2026-04-04T12:23:16.999Z</time></trkpt><trkpt lat="43.65393239937482" lon="11.307579822578273"><ele>220.71428571428572</ele><time>2026-04-04T12:23:19.999Z</time></trkpt><trkpt lat="43.65400773702335" lon="11.307552166737636"><ele>221.0</ele><time>2026-04-04T12:23:22.999Z</time></trkpt><trkpt lat="43.654087183117355" lon="11.307523749082712"><ele>221.00000000000003</ele><time>2026-04-04T12:23:25.999Z</time></trkpt><trkpt lat="43.65416348446769" lon="11.30749457834838"><ele>221.0</ele><time>2026-04-04T12:23:28.999Z</time></trkpt><trkpt lat="43.65423765147167" lon="11.307466242064528"><ele>221.0</ele><time>2026-04-04T12:23:31.999Z</time></trkpt><trkpt lat="43.6543143220836" lon="11.30743694233055"><ele>221.0</ele><time>2026-04-04T12:23:34.999Z</time></trkpt><trkpt lat="43.65438711973381" lon="11.307407321916545"><ele>221.00000000000003</ele><time>2026-04-04T12:23:37.999Z</time></trkpt><trkpt lat="43.65446002708773" lon="11.307380779716526"><ele>221.0</ele><time>2026-04-04T12:23:40.999Z</time></trkpt><trkpt lat="43.654527883786166" lon="11.307351705967013"><ele>221.2857142857143</ele><time>2026-04-04T12:23:43.999Z</time></trkpt><trkpt lat="43.654589013130064" lon="11.307299582507241"><ele>221.57142857142858</ele><time>2026-04-04T12:23:46.999Z</time></trkpt><trkpt lat="43.65464394107709" lon="11.30723097510553"><ele>221.85714285714286</ele><time>2026-04-04T12:23:49.999Z</time></trkpt><trkpt lat="43.65469192596492" lon="11.30715383015015"><ele>222.14285714285717</ele><time>2026-04-04T12:23:53Z</time></trkpt><trkpt lat="43.65473571785915" lon="11.307076972043768"><ele>222.42857142857142</ele><time>2026-04-04T12:23:56Z</time></trkpt><trkpt lat="43.654771063600364" lon="11.306996270030009"><ele>222.71428571428572</ele><time>2026-04-04T12:23:59Z</time></trkpt><trkpt lat="43.65481530502044" lon="11.306901235782158"><ele>223.0</ele><time>2026-04-04T12:24:02Z</time></trkpt><trkpt lat="43.65485265282389" lon="11.30680535181844"><ele>222.85714285714286</ele><time>2026-04-04T12:24:04Z</time></trkpt><trkpt lat="43.65490225838458" lon="11.30671544941043"><ele>222.71428571428572</ele><time>2026-04-04T12:24:06Z</time></trkpt><trkpt lat="43.65494598587285" lon="11.306635134354924"><ele>222.57142857142856</ele><time>2026-04-04T12:24:08Z</time></trkpt><trkpt lat="43.65498205424933" lon="11.306548792125875"><ele>222.42857142857144</ele><time>2026-04-04T12:24:10Z</time></trkpt><trkpt lat="43.65502157005711" lon="11.30646182789752"><ele>222.2857142857143</ele><time>2026-04-04T12:24:12Z</time></trkpt><trkpt lat="43.65505935799938" lon="11.30638562542026"><ele>222.14285714285714</ele><time>2026-04-04T12:24:14Z</time></trkpt><trkpt lat="43.65509398376593" lon="11.306306418134382"><ele>222.0</ele><time>2026-04-04T12:24:16Z</time></trkpt><trkpt lat="43.65513826646579" lon="11.306225052180128"><ele>222.0</ele><time>2026-04-04T12:24:18Z</time></trkpt><trkpt lat="43.65518002100508" lon="11.306135326861789"><ele>222.0</ele><time>2026-04-04T12:24:20Z</time></trkpt><trkpt lat="43.655217196657404" lon="11.306036265876969"><ele>222.0</ele><time>2026-04-04T12:24:22Z</time></trkpt><trkpt lat="43.65525379193882" lon="11.305940271862374"><ele>222.0</ele><time>2026-04-04T12:24:24Z</time></trkpt><trkpt lat="43.65528726220847" lon="11.305855407727915"><ele>222.0</ele><time>2026-04-04T12:24:26Z</time></trkpt><trkpt lat="43.65531865067743" lon="11.30577188434513"><ele>222.0</ele><time>2026-04-04T12:24:28Z</time></trkpt><trkpt lat="43.655347345763886" lon="11.305688418447591"><ele>222.0</ele><time>2026-04-04T12:24:30Z</time></trkpt><trkpt lat="43.65538769986168" lon="11.305576481185103"><ele>223.66666666666666</ele><time>2026-04-04T12:24:33Z</time></trkpt><trkpt lat="43.65542287420331" lon="11.305467994054942"><ele>225.33333333333331</ele><time>2026-04-04T12:24:36Z</time></trkpt><trkpt lat="43.65545073531489" lon="11.305362822947"><ele>227.0</ele><time>2026-04-04T12:24:39Z</time></trkpt><trkpt lat="43.65548208103806" lon="11.30526263284643"><ele>228.66666666666666</ele><time>2026-04-04T12:24:41.999Z</time></trkpt><trkpt lat="43.6555095201882" lon="11.305168772586082"><ele>230.33333333333331</ele><time>2026-04-04T12:24:44.999Z</time></trkpt><trkpt lat="43.65554010842244" lon="11.305081025132116"><ele>232.0</ele><time>2026-04-04T12:24:47.999Z</time></trkpt><trkpt lat="43.655571919448796" lon="11.304997990354387"><ele>232.00000000000003</ele><time>2026-04-04T12:24:50.999Z</time></trkpt><trkpt lat="43.65560115890479" lon="11.304916519662013"><ele>232.0</ele><time>2026-04-04T12:24:53.999Z</time></trkpt><trkpt lat="43.655634978778686" lon="11.30483735021192"><ele>232.00000000000003</ele><time>2026-04-04T12:24:56.999Z</time></trkpt><trkpt lat="43.655663502132" lon="11.304759697931567"><ele>232.00000000000003</ele><time>2026-04-04T12:24:59.999Z</time></trkpt><trkpt lat="43.65568981262785" lon="11.30467085730515"><ele>232.0</ele><time>2026-04-04T12:25:02.999Z</time></trkpt><trkpt lat="43.65571174608182" lon="11.304582770838351"><ele>232.00000000000003</ele><time>2026-04-04T12:25:05.999Z</time></trkpt><trkpt lat="43.65573675669258" lon="11.304502105184227"><ele>232.00000000000003</ele><time>2026-04-04T12:25:08.999Z</time></trkpt><trkpt lat="43.65575192651702" lon="11.304391786451383"><ele>231.99999999999997</ele><time>2026-04-04T12:25:12.999Z</time></trkpt><trkpt lat="43.6557790573343" lon="11.304288614153723"><ele>232.0</ele><time>2026-04-04T12:25:16.999Z</time></trkpt><trkpt lat="43.65580746194577" lon="11.304192625723202"><ele>232.0</ele><time>2026-04-04T12:25:20.999Z</time></trkpt><trkpt lat="43.655844616712166" lon="11.3040937059272"><ele>232.0</ele><time>2026-04-04T12:25:24.999Z</time></trkpt><trkpt lat="43.65586185371314" lon="11.30399512263707"><ele>231.99999999999997</ele><time>2026-04-04T12:25:28.999Z</time></trkpt><trkpt lat="43.655896759369654" lon="11.303898243793425"><ele>232.0</ele><time>2026-04-04T12:25:32.999Z</time></trkpt><trkpt lat="43.65592897850932" lon="11.303795334129315"><ele>232.66666666666666</ele><time>2026-04-04T12:25:36.999Z</time></trkpt><trkpt lat="43.65595748649788" lon="11.30368704967794"><ele>233.33333333333331</ele><time>2026-04-04T12:25:40.999Z</time></trkpt><trkpt lat="43.65598240347638" lon="11.303590745219148"><ele>234.0</ele><time>2026-04-04T12:25:44.999Z</time></trkpt><trkpt lat="43.65600668429659" lon="11.303494168060858"><ele>234.66666666666669</ele><time>2026-04-04T12:25:48.999Z</time></trkpt><trkpt lat="43.65603732648478" lon="11.303393958169487"><ele>235.33333333333334</ele><time>2026-04-04T12:25:53.999Z</time></trkpt><trkpt lat="43.65606702794981" lon="11.303304472313172"><ele>236.0</ele><time>2026-04-04T12:25:58Z</time></trkpt><trkpt lat="43.6560931679226" lon="11.303205867504555"><ele>236.0</ele><time>2026-04-04T12:26:02Z</time></trkpt><trkpt lat="43.6561185660184" lon="11.3031259538135"><ele>236.0</ele><time>2026-04-04T12:26:05Z</time></trkpt><trkpt lat="43.656151681065744" lon="11.303025763343605"><ele>236.0</ele><time>2026-04-04T12:26:09Z</time></trkpt><trkpt lat="43.656179815197255" lon="11.302929239123033"><ele>236.0</ele><time>2026-04-04T12:26:13Z</time></trkpt><trkpt lat="43.65620715794364" lon="11.30283380232637"><ele>236.0</ele><time>2026-04-04T12:26:17Z</time></trkpt><trkpt lat="43.656235449855934" lon="11.302733637410771"><ele>236.0</ele><time>2026-04-04T12:26:21Z</time></trkpt><trkpt lat="43.656271302526726" lon="11.30266141576307"><ele>236.0</ele><time>2026-04-04T12:26:24Z</time></trkpt><trkpt lat="43.65630850038622" lon="11.302583670200846"><ele>236.66666666666669</ele><time>2026-04-04T12:26:27Z</time></trkpt><trkpt lat="43.65633815814903" lon="11.302496681939651"><ele>237.33333333333334</ele><time>2026-04-04T12:26:30Z</time></trkpt><trkpt lat="43.65637820417939" lon="11.302384657452713"><ele>238.0</ele><time>2026-04-04T12:26:33Z</time></trkpt><trkpt lat="43.656415668335505" lon="11.30229192240879"><ele>238.66666666666669</ele><time>2026-04-04T12:26:36Z</time></trkpt><trkpt lat="43.65645562163473" lon="11.3021839203559"><ele>239.33333333333334</ele><time>2026-04-04T12:26:39Z</time></trkpt><trkpt lat="43.6564882266796" lon="11.30210025636817"><ele>240.0</ele><time>2026-04-04T12:26:41Z</time></trkpt><trkpt lat="43.656526181848854" lon="11.30200577482013"><ele>240.0</ele><time>2026-04-04T12:26:43Z</time></trkpt><trkpt lat="43.656581613262766" lon="11.301899491857073"><ele>240.0</ele><time>2026-04-04T12:26:45Z</time></trkpt><trkpt lat="43.656634758574654" lon="11.301776003167998"><ele>240.0</ele><time>2026-04-04T12:26:47Z</time></trkpt><trkpt lat="43.65669179787825" lon="11.301649809825733"><ele>240.0</ele><time>2026-04-04T12:26:48.999Z</time></trkpt><trkpt lat="43.65674712463761" lon="11.30150769602203"><ele>240.0</ele><time>2026-04-04T12:26:50.999Z</time></trkpt><trkpt lat="43.656811307533346" lon="11.301375686125786"><ele>239.0</ele><time>2026-04-04T12:26:52.999Z</time></trkpt><trkpt lat="43.65686363917668" lon="11.301234705106092"><ele>238.0</ele><time>2026-04-04T12:26:54.999Z</time></trkpt><trkpt lat="43.65692150111086" lon="11.3011139366727"><ele>237.0</ele><time>2026-04-04T12:26:56.999Z</time></trkpt><trkpt lat="43.656984686758996" lon="11.300990634122185"><ele>236.0</ele><time>2026-04-04T12:26:58.999Z</time></trkpt><trkpt lat="43.657040877535465" lon="11.300862968712103"><ele>235.0</ele><time>2026-04-04T12:27:00.999Z</time></trkpt><trkpt lat="43.65709709021294" lon="11.300738797607899"><ele>235.0</ele><time>2026-04-04T12:27:02.999Z</time></trkpt><trkpt lat="43.65715350446249" lon="11.300616721446518"><ele>235.0</ele><time>2026-04-04T12:27:04.999Z</time></trkpt><trkpt lat="43.657203223658456" lon="11.300492670139603"><ele>235.0</ele><time>2026-04-04T12:27:06.999Z</time></trkpt><trkpt lat="43.65726052209091" lon="11.30037697280825"><ele>235.0</ele><time>2026-04-04T12:27:08.999Z</time></trkpt><trkpt lat="43.6573111997425" lon="11.300259910191706"><ele>235.0</ele><time>2026-04-04T12:27:10.999Z</time></trkpt><trkpt lat="43.65735726058784" lon="11.300143050806506"><ele>235.49999999999997</ele><time>2026-04-04T12:27:12.999Z</time></trkpt><trkpt lat="43.65740124745478" lon="11.300031467224091"><ele>236.0</ele><time>2026-04-04T12:27:14.999Z</time></trkpt><trkpt lat="43.65744883693283" lon="11.299925460645046"><ele>236.5</ele><time>2026-04-04T12:27:16.999Z</time></trkpt><trkpt lat="43.65749837052647" lon="11.299825785385805"><ele>237.0</ele><time>2026-04-04T12:27:18.999Z</time></trkpt><trkpt lat="43.65754583764924" lon="11.299722129809672"><ele>237.49999999999997</ele><time>2026-04-04T12:27:20.999Z</time></trkpt><trkpt lat="43.6575935240119" lon="11.299626056974725"><ele>238.0</ele><time>2026-04-04T12:27:22.999Z</time></trkpt><trkpt lat="43.657637234247744" lon="11.299540877729658"><ele>238.28571428571428</ele><time>2026-04-04T12:27:24.999Z</time></trkpt><trkpt lat="43.65767071076405" lon="11.299451591707863"><ele>238.57142857142856</ele><time>2026-04-04T12:27:26.999Z</time></trkpt><trkpt lat="43.657712356799166" lon="11.299367408279565"><ele>238.85714285714286</ele><time>2026-04-04T12:27:28.999Z</time></trkpt><trkpt lat="43.657749295765704" lon="11.299279580455302"><ele>239.14285714285714</ele><time>2026-04-04T12:27:30.999Z</time></trkpt><trkpt lat="43.65778388872548" lon="11.299195956185109"><ele>239.42857142857142</ele><time>2026-04-04T12:27:32.999Z</time></trkpt><trkpt lat="43.65782606536207" lon="11.299121635833613"><ele>239.71428571428572</ele><time>2026-04-04T12:27:34.999Z</time></trkpt><trkpt lat="43.657862005160894" lon="11.299039396065595"><ele>240.0</ele><time>2026-04-04T12:27:36.999Z</time></trkpt><trkpt lat="43.65789424313336" lon="11.29895886522994"><ele>240.85714285714286</ele><time>2026-04-04T12:27:38.999Z</time></trkpt><trkpt lat="43.65792316705755" lon="11.298869996317388"><ele>241.71428571428572</ele><time>2026-04-04T12:27:40.999Z</time></trkpt><trkpt lat="43.65795214499389" lon="11.29877874765874"><ele>242.57142857142858</ele><time>2026-04-04T12:27:42.999Z</time></trkpt><trkpt lat="43.65798500354254" lon="11.298689310258887"><ele>243.42857142857144</ele><time>2026-04-04T12:27:44.999Z</time></trkpt><trkpt lat="43.65801804990978" lon="11.298601838501336"><ele>244.28571428571428</ele><time>2026-04-04T12:27:46.999Z</time></trkpt><trkpt lat="43.65805920324403" lon="11.298521482921357"><ele>245.14285714285717</ele><time>2026-04-04T12:27:48.999Z</time></trkpt><trkpt lat="43.65808955484782" lon="11.29843015220491"><ele>246.00000000000003</ele><time>2026-04-04T12:27:50.999Z</time></trkpt><trkpt lat="43.65811804918404" lon="11.298350458263766"><ele>246.0</ele><time>2026-04-04T12:27:52.999Z</time></trkpt><trkpt lat="43.65816147044496" lon="11.29823622997082"><ele>246.0</ele><time>2026-04-04T12:27:55.999Z</time></trkpt><trkpt lat="43.65820304811149" lon="11.298138119188915"><ele>246.0</ele><time>2026-04-04T12:27:58.999Z</time></trkpt><trkpt lat="43.65823884187494" lon="11.298036552195875"><ele>246.0</ele><time>2026-04-04T12:28:01.999Z</time></trkpt><trkpt lat="43.65829091187195" lon="11.297975115251127"><ele>246.0</ele><time>2026-04-04T12:28:05Z</time></trkpt><trkpt lat="43.65833236785215" lon="11.297898705250372"><ele>246.0</ele><time>2026-04-04T12:28:08Z</time></trkpt><trkpt lat="43.658366925528846" lon="11.297799003028285"><ele>246.0</ele><time>2026-04-04T12:28:11Z</time></trkpt><trkpt lat="43.658409034227425" lon="11.297694689728774"><ele>246.0</ele><time>2026-04-04T12:28:14Z</time></trkpt><trkpt lat="43.65845291444675" lon="11.297587830106364"><ele>246.0</ele><time>2026-04-04T12:28:17Z</time></trkpt><trkpt lat="43.658491606930724" lon="11.297517620681292"><ele>246.0</ele><time>2026-04-04T12:28:19Z</time></trkpt><trkpt lat="43.658562391373195" lon="11.29741973833948"><ele>246.0</ele><time>2026-04-04T12:28:22Z</time></trkpt><trkpt lat="43.65863241946406" lon="11.297350941252107"><ele>246.0</ele><time>2026-04-04T12:28:24Z</time></trkpt><trkpt lat="43.65871751473908" lon="11.297262920071601"><ele>245.0</ele><time>2026-04-04T12:28:26Z</time></trkpt><trkpt lat="43.65882614599763" lon="11.297185815495874"><ele>244.0</ele><time>2026-04-04T12:28:28Z</time></trkpt><trkpt lat="43.65888521064958" lon="11.297138952589307"><ele>243.0</ele><time>2026-04-04T12:28:29Z</time></trkpt><trkpt lat="43.65894266657538" lon="11.29708264147631"><ele>242.0</ele><time>2026-04-04T12:28:30Z</time></trkpt><trkpt lat="43.65899820389341" lon="11.297024064767855"><ele>241.0</ele><time>2026-04-04T12:28:31Z</time></trkpt><trkpt lat="43.65906449130297" lon="11.296994589147499"><ele>240.0</ele><time>2026-04-04T12:28:32Z</time></trkpt><trkpt lat="43.65911597280613" lon="11.296921530063699"><ele>240.0</ele><time>2026-04-04T12:28:33Z</time></trkpt><trkpt lat="43.65916873812482" lon="11.29685610231243"><ele>240.0</ele><time>2026-04-04T12:28:34Z</time></trkpt><trkpt lat="43.65922023494571" lon="11.29678372697325"><ele>240.0</ele><time>2026-04-04T12:28:35Z</time></trkpt><trkpt lat="43.65927114919318" lon="11.296718434274009"><ele>240.0</ele><time>2026-04-04T12:28:36Z</time></trkpt><trkpt lat="43.659331598945116" lon="11.296674005115019"><ele>240.0</ele><time>2026-04-04T12:28:37Z</time></trkpt><trkpt lat="43.659388056027886" lon="11.296611802703545"><ele>240.0</ele><time>2026-04-04T12:28:38Z</time></trkpt><trkpt lat="43.659502678302175" lon="11.296502322289964"><ele>240.16666666666666</ele><time>2026-04-04T12:28:40Z</time></trkpt><trkpt lat="43.65955742218603" lon="11.296454256047792"><ele>240.33333333333331</ele><time>2026-04-04T12:28:41Z</time></trkpt><trkpt lat="43.65961456608366" lon="11.296411962132982"><ele>240.5</ele><time>2026-04-04T12:28:42Z</time></trkpt><trkpt lat="43.65970759984465" lon="11.296315955944962"><ele>240.66666666666666</ele><time>2026-04-04T12:28:44Z</time></trkpt><trkpt lat="43.6597826597196" lon="11.296217034863204"><ele>240.83333333333331</ele><time>2026-04-04T12:28:46Z</time></trkpt><trkpt lat="43.659851670726255" lon="11.296129346293773"><ele>241.0</ele><time>2026-04-04T12:28:48Z</time></trkpt><trkpt lat="43.659930696366665" lon="11.29606837291538"><ele>240.99999999999997</ele><time>2026-04-04T12:28:50Z</time></trkpt><trkpt lat="43.65998907161479" lon="11.295982487862583"><ele>241.0</ele><time>2026-04-04T12:28:52Z</time></trkpt><trkpt lat="43.660049391218664" lon="11.295913672976281"><ele>241.0</ele><time>2026-04-04T12:28:54Z</time></trkpt><trkpt lat="43.66010646887168" lon="11.295854865520498"><ele>241.0</ele><time>2026-04-04T12:28:56Z</time></trkpt><trkpt lat="43.66015547306397" lon="11.295789328693163"><ele>240.99999999999997</ele><time>2026-04-04T12:28:58Z</time></trkpt><trkpt lat="43.66020851312025" lon="11.295739002803325"><ele>241.0</ele><time>2026-04-04T12:29:00Z</time></trkpt><trkpt lat="43.66028929039693" lon="11.295673963387104"><ele>241.14285714285717</ele><time>2026-04-04T12:29:03Z</time></trkpt><trkpt lat="43.66034965174158" lon="11.295629259509093"><ele>241.2857142857143</ele><time>2026-04-04T12:29:05Z</time></trkpt><trkpt lat="43.66040467326861" lon="11.295577279761227"><ele>241.42857142857144</ele><time>2026-04-04T12:29:06.999Z</time></trkpt><trkpt lat="43.66046018832308" lon="11.295526230382503"><ele>241.57142857142856</ele><time>2026-04-04T12:29:08.999Z</time></trkpt><trkpt lat="43.66051743212092" lon="11.29548433591759"><ele>241.7142857142857</ele><time>2026-04-04T12:29:10.999Z</time></trkpt><trkpt lat="43.660532824591826" lon="11.295372241687197"><ele>241.85714285714283</ele><time>2026-04-04T12:29:12.999Z</time></trkpt><trkpt lat="43.660509243799694" lon="11.295285822435567"><ele>242.0</ele><time>2026-04-04T12:29:14.999Z</time></trkpt><trkpt lat="43.6604620313313" lon="11.295219368379957"><ele>242.00000000000003</ele><time>2026-04-04T12:29:16.999Z</time></trkpt><trkpt lat="43.66041496320995" lon="11.295156165811111"><ele>242.0</ele><time>2026-04-04T12:29:18.999Z</time></trkpt><trkpt lat="43.660358933188334" lon="11.295100684022625"><ele>242.0</ele><time>2026-04-04T12:29:20.999Z</time></trkpt><trkpt lat="43.66027940163417" lon="11.295056797529272"><ele>242.0</ele><time>2026-04-04T12:29:23.999Z</time></trkpt><trkpt lat="43.660272672965085" lon="11.294899468665447"><ele>242.00000000000003</ele><time>2026-04-04T12:29:25.999Z</time></trkpt><trkpt lat="43.66021779200132" lon="11.294830788859379"><ele>242.0</ele><time>2026-04-04T12:29:27.999Z</time></trkpt><trkpt lat="43.66016759246641" lon="11.294716157756577"><ele>241.0</ele><time>2026-04-04T12:29:29.999Z</time></trkpt><trkpt lat="43.66011349374615" lon="11.294592922515298"><ele>240.0</ele><time>2026-04-04T12:29:31.999Z</time></trkpt><trkpt lat="43.66005031938387" lon="11.294467126191389"><ele>239.0</ele><time>2026-04-04T12:29:33.999Z</time></trkpt><trkpt lat="43.6599773058411" lon="11.294339973804261"><ele>238.0</ele><time>2026-04-04T12:29:35.999Z</time></trkpt><trkpt lat="43.659926193904475" lon="11.29428311938445"><ele>237.0</ele><time>2026-04-04T12:29:36.999Z</time></trkpt><trkpt lat="43.65987290569335" lon="11.294225942844962"><ele>236.99999999999997</ele><time>2026-04-04T12:29:37.999Z</time></trkpt><trkpt lat="43.65981659728183" lon="11.294164315430185"><ele>237.0</ele><time>2026-04-04T12:29:38.999Z</time></trkpt><trkpt lat="43.659761838422" lon="11.29409781983632"><ele>236.99999999999997</ele><time>2026-04-04T12:29:39.999Z</time></trkpt><trkpt lat="43.659706749547134" lon="11.294033893148976"><ele>236.99999999999997</ele><time>2026-04-04T12:29:40.999Z</time></trkpt><trkpt lat="43.659655275335105" lon="11.293973587846454"><ele>237.0</ele><time>2026-04-04T12:29:41.999Z</time></trkpt><trkpt lat="43.6596145952948" lon="11.293898154155162"><ele>236.99999999999997</ele><time>2026-04-04T12:29:42.999Z</time></trkpt><trkpt lat="43.659569401097876" lon="11.293818870706193"><ele>236.99999999999997</ele><time>2026-04-04T12:29:43.999Z</time></trkpt><trkpt lat="43.659521444779976" lon="11.293738405627753"><ele>235.39999999999998</ele><time>2026-04-04T12:29:44.999Z</time></trkpt><trkpt lat="43.659465971091066" lon="11.293638889264672"><ele>233.79999999999998</ele><time>2026-04-04T12:29:45.999Z</time></trkpt><trkpt lat="43.65942117672875" lon="11.29351600895785"><ele>232.2</ele><time>2026-04-04T12:29:46.999Z</time></trkpt><trkpt lat="43.659386371154724" lon="11.29341662443524"><ele>230.6</ele><time>2026-04-04T12:29:47.999Z</time></trkpt><trkpt lat="43.6593164442759" lon="11.29333362458605"><ele>229.0</ele><time>2026-04-04T12:29:48.999Z</time></trkpt><trkpt lat="43.65921912879547" lon="11.293307547638175"><ele>228.39999999999998</ele><time>2026-04-04T12:29:49.999Z</time></trkpt><trkpt lat="43.659123860430284" lon="11.293307426794032"><ele>227.79999999999998</ele><time>2026-04-04T12:29:50.999Z</time></trkpt><trkpt lat="43.65903603795173" lon="11.293272585637268"><ele>227.20000000000002</ele><time>2026-04-04T12:29:51.999Z</time></trkpt><trkpt lat="43.65895749214474" lon="11.293202121831406"><ele>226.60000000000002</ele><time>2026-04-04T12:29:52.999Z</time></trkpt><trkpt lat="43.65888841791252" lon="11.293131625001168"><ele>226.0</ele><time>2026-04-04T12:29:53.999Z</time></trkpt><trkpt lat="43.65881843533374" lon="11.293056191663723"><ele>224.99999999999997</ele><time>2026-04-04T12:29:54.999Z</time></trkpt><trkpt lat="43.65875853350964" lon="11.292973111081169"><ele>224.0</ele><time>2026-04-04T12:29:55.999Z</time></trkpt><trkpt lat="43.65870544153571" lon="11.292884989710076"><ele>223.0</ele><time>2026-04-04T12:29:56.999Z</time></trkpt><trkpt lat="43.65864758545661" lon="11.292808385958017"><ele>222.0</ele><time>2026-04-04T12:29:57.999Z</time></trkpt><trkpt lat="43.658604361542466" lon="11.292720983069835"><ele>220.99999999999997</ele><time>2026-04-04T12:29:58.999Z</time></trkpt><trkpt lat="43.658592963479045" lon="11.292618046220907"><ele>220.0</ele><time>2026-04-04T12:29:59.999Z</time></trkpt><trkpt lat="43.65860449782168" lon="11.292512732799691"><ele>219.49999999999997</ele><time>2026-04-04T12:30:00.999Z</time></trkpt><trkpt lat="43.65860915719646" lon="11.292412520709506"><ele>219.0</ele><time>2026-04-04T12:30:01.999Z</time></trkpt><trkpt lat="43.658615907158705" lon="11.292300879855413"><ele>218.5</ele><time>2026-04-04T12:30:02.999Z</time></trkpt><trkpt lat="43.65864018638893" lon="11.292192982559243"><ele>218.0</ele><time>2026-04-04T12:30:03.999Z</time></trkpt><trkpt lat="43.65866518042433" lon="11.292081384044945"><ele>217.49999999999997</ele><time>2026-04-04T12:30:04.999Z</time></trkpt><trkpt lat="43.65869710675848" lon="11.29196579452409"><ele>217.0</ele><time>2026-04-04T12:30:05.999Z</time></trkpt><trkpt lat="43.65873238931725" lon="11.291850243647799"><ele>217.0</ele><time>2026-04-04T12:30:06.999Z</time></trkpt><trkpt lat="43.658768556140394" lon="11.29174058321024"><ele>217.0</ele><time>2026-04-04T12:30:07.999Z</time></trkpt><trkpt lat="43.65880714668616" lon="11.291624002178859"><ele>217.0</ele><time>2026-04-04T12:30:09Z</time></trkpt><trkpt lat="43.65884689665757" lon="11.29150957828028"><ele>217.0</ele><time>2026-04-04T12:30:10Z</time></trkpt><trkpt lat="43.65888379413794" lon="11.291393876526051"><ele>217.0</ele><time>2026-04-04T12:30:11Z</time></trkpt><trkpt lat="43.65892419246256" lon="11.291283320312894"><ele>216.83333333333331</ele><time>2026-04-04T12:30:12Z</time></trkpt><trkpt lat="43.658959700707435" lon="11.291171296580247"><ele>216.66666666666666</ele><time>2026-04-04T12:30:13Z</time></trkpt><trkpt lat="43.65900243358834" lon="11.291065421140766"><ele>216.5</ele><time>2026-04-04T12:30:14Z</time></trkpt><trkpt lat="43.65904602248701" lon="11.29096383604486"><ele>216.33333333333331</ele><time>2026-04-04T12:30:15Z</time></trkpt><trkpt lat="43.65908981521872" lon="11.290861394619435"><ele>216.16666666666666</ele><time>2026-04-04T12:30:16Z</time></trkpt><trkpt lat="43.65913631893635" lon="11.29076091483341"><ele>216.0</ele><time>2026-04-04T12:30:17Z</time></trkpt><trkpt lat="43.659190744932374" lon="11.290661644948225"><ele>216.20000000000002</ele><time>2026-04-04T12:30:18Z</time></trkpt><trkpt lat="43.659250537589266" lon="11.290563387627103"><ele>216.40000000000003</ele><time>2026-04-04T12:30:19Z</time></trkpt><trkpt lat="43.65931761031916" lon="11.290472531441592"><ele>216.6</ele><time>2026-04-04T12:30:20Z</time></trkpt><trkpt lat="43.6593872463931" lon="11.290385268037364"><ele>216.8</ele><time>2026-04-04T12:30:21Z</time></trkpt><trkpt lat="43.65945990838744" lon="11.29030125037206"><ele>217.0</ele><time>2026-04-04T12:30:22Z</time></trkpt><trkpt lat="43.65953586499422" lon="11.290219330831155"><ele>215.0</ele><time>2026-04-04T12:30:23Z</time></trkpt><trkpt lat="43.65960819465683" lon="11.290134422423977"><ele>213.0</ele><time>2026-04-04T12:30:24Z</time></trkpt><trkpt lat="43.65968102988756" lon="11.290050218813116"><ele>211.0</ele><time>2026-04-04T12:30:25Z</time></trkpt><trkpt lat="43.65975360761464" lon="11.28997029610543"><ele>209.0</ele><time>2026-04-04T12:30:26Z</time></trkpt><trkpt lat="43.65982528714155" lon="11.289886315892623"><ele>207.0</ele><time>2026-04-04T12:30:27Z</time></trkpt><trkpt lat="43.659898696833096" lon="11.28980592228587"><ele>207.8</ele><time>2026-04-04T12:30:28Z</time></trkpt><trkpt lat="43.659967996149625" lon="11.289719704732697"><ele>208.6</ele><time>2026-04-04T12:30:29Z</time></trkpt><trkpt lat="43.66003913847544" lon="11.289635088633121"><ele>209.4</ele><time>2026-04-04T12:30:30Z</time></trkpt><trkpt lat="43.66011257251542" lon="11.289551753893518"><ele>210.20000000000002</ele><time>2026-04-04T12:30:31Z</time></trkpt><trkpt lat="43.66018637670777" lon="11.28946643719272"><ele>211.0</ele><time>2026-04-04T12:30:32Z</time></trkpt><trkpt lat="43.66025982658342" lon="11.289382120477187"><ele>208.60000000000002</ele><time>2026-04-04T12:30:33Z</time></trkpt><trkpt lat="43.66033479988864" lon="11.289297997027456"><ele>206.2</ele><time>2026-04-04T12:30:34Z</time></trkpt><trkpt lat="43.660408559021505" lon="11.289213298701736"><ele>203.8</ele><time>2026-04-04T12:30:35Z</time></trkpt><trkpt lat="43.660481040455686" lon="11.289124984760273"><ele>201.39999999999998</ele><time>2026-04-04T12:30:36Z</time></trkpt><trkpt lat="43.66055470576526" lon="11.289036401635503"><ele>199.0</ele><time>2026-04-04T12:30:37Z</time></trkpt><trkpt lat="43.660629760496214" lon="11.28894876163356"><ele>199.6</ele><time>2026-04-04T12:30:38Z</time></trkpt><trkpt lat="43.660705038042515" lon="11.288860877231365"><ele>200.2</ele><time>2026-04-04T12:30:39Z</time></trkpt><trkpt lat="43.66077983693087" lon="11.288772012520168"><ele>200.79999999999998</ele><time>2026-04-04T12:30:40Z</time></trkpt><trkpt lat="43.66085176654875" lon="11.288680753759273"><ele>201.39999999999998</ele><time>2026-04-04T12:30:41Z</time></trkpt><trkpt lat="43.66091722300353" lon="11.288578545976398"><ele>202.0</ele><time>2026-04-04T12:30:42Z</time></trkpt><trkpt lat="43.66098033278984" lon="11.288473358665703"><ele>202.0</ele><time>2026-04-04T12:30:43Z</time></trkpt><trkpt lat="43.6610396646618" lon="11.288365386466936"><ele>202.0</ele><time>2026-04-04T12:30:44Z</time></trkpt><trkpt lat="43.66109210533139" lon="11.288251905236475"><ele>202.0</ele><time>2026-04-04T12:30:45Z</time></trkpt><trkpt lat="43.661142184675406" lon="11.28813591039264"><ele>202.0</ele><time>2026-04-04T12:30:46Z</time></trkpt><trkpt lat="43.661195572065694" lon="11.288020385840362"><ele>202.0</ele><time>2026-04-04T12:30:46.999Z</time></trkpt><trkpt lat="43.66124707723543" lon="11.28790212179871"><ele>200.0</ele><time>2026-04-04T12:30:47.999Z</time></trkpt><trkpt lat="43.66130242424141" lon="11.2877858908718"><ele>198.0</ele><time>2026-04-04T12:30:48.999Z</time></trkpt><trkpt lat="43.661358539284514" lon="11.287667481582497"><ele>196.0</ele><time>2026-04-04T12:30:49.999Z</time></trkpt><trkpt lat="43.661411722008985" lon="11.287542999755539"><ele>194.0</ele><time>2026-04-04T12:30:50.999Z</time></trkpt><trkpt lat="43.66146277250587" lon="11.287423627330767"><ele>192.0</ele><time>2026-04-04T12:30:51.999Z</time></trkpt><trkpt lat="43.66151648935065" lon="11.287300265899738"><ele>192.39999999999998</ele><time>2026-04-04T12:30:52.999Z</time></trkpt><trkpt lat="43.66157031094154" lon="11.287178073663872"><ele>192.79999999999998</ele><time>2026-04-04T12:30:53.999Z</time></trkpt><trkpt lat="43.661625578300374" lon="11.287054311395641"><ele>193.2</ele><time>2026-04-04T12:30:54.999Z</time></trkpt><trkpt lat="43.66168847305862" lon="11.286938489295542"><ele>193.6</ele><time>2026-04-04T12:30:55.999Z</time></trkpt><trkpt lat="43.66174521134235" lon="11.286817223654511"><ele>194.0</ele><time>2026-04-04T12:30:56.999Z</time></trkpt><trkpt lat="43.661800839258866" lon="11.28669719429957"><ele>194.0</ele><time>2026-04-04T12:30:57.999Z</time></trkpt><trkpt lat="43.66185613929106" lon="11.286570934434552"><ele>194.0</ele><time>2026-04-04T12:30:58.999Z</time></trkpt><trkpt lat="43.66188900884616" lon="11.286435762821327"><ele>194.0</ele><time>2026-04-04T12:30:59.999Z</time></trkpt><trkpt lat="43.66190705132108" lon="11.286292598143328"><ele>194.0</ele><time>2026-04-04T12:31:00.999Z</time></trkpt><trkpt lat="43.66190075163017" lon="11.286144257161752"><ele>194.0</ele><time>2026-04-04T12:31:01.999Z</time></trkpt><trkpt lat="43.66187030048813" lon="11.285998220034294"><ele>193.2</ele><time>2026-04-04T12:31:02.999Z</time></trkpt><trkpt lat="43.66182272950623" lon="11.285865023138573"><ele>192.39999999999998</ele><time>2026-04-04T12:31:03.999Z</time></trkpt><trkpt lat="43.66176567803726" lon="11.285739228451908"><ele>191.6</ele><time>2026-04-04T12:31:04.999Z</time></trkpt><trkpt lat="43.66171283531302" lon="11.285607806415856"><ele>190.8</ele><time>2026-04-04T12:31:05.999Z</time></trkpt><trkpt lat="43.661662130110265" lon="11.285477946160016"><ele>190.0</ele><time>2026-04-04T12:31:06.999Z</time></trkpt><trkpt lat="43.661611738452024" lon="11.285346850989116"><ele>188.4</ele><time>2026-04-04T12:31:07.999Z</time></trkpt><trkpt lat="43.66156101529436" lon="11.285214624445974"><ele>186.8</ele><time>2026-04-04T12:31:08.999Z</time></trkpt><trkpt lat="43.66150992327799" lon="11.285085835384612"><ele>185.2</ele><time>2026-04-04T12:31:09.999Z</time></trkpt><trkpt lat="43.66146073329692" lon="11.28495782191445"><ele>183.6</ele><time>2026-04-04T12:31:10.999Z</time></trkpt><trkpt lat="43.6614156090046" lon="11.284826064298564"><ele>182.0</ele><time>2026-04-04T12:31:11.999Z</time></trkpt><trkpt lat="43.66136754551712" lon="11.284689737822104"><ele>180.6</ele><time>2026-04-04T12:31:12.999Z</time></trkpt><trkpt lat="43.66133613689506" lon="11.284544590734384"><ele>179.2</ele><time>2026-04-04T12:31:13.999Z</time></trkpt><trkpt lat="43.661323360339004" lon="11.284395815978373"><ele>177.8</ele><time>2026-04-04T12:31:14.999Z</time></trkpt><trkpt lat="43.6613247410994" lon="11.284245790253204"><ele>176.4</ele><time>2026-04-04T12:31:15.999Z</time></trkpt><trkpt lat="43.66133331541048" lon="11.284099416652857"><ele>175.0</ele><time>2026-04-04T12:31:16.999Z</time></trkpt><trkpt lat="43.661336434928224" lon="11.283953472254098"><ele>174.4</ele><time>2026-04-04T12:31:17.999Z</time></trkpt><trkpt lat="43.66134166600588" lon="11.283804745102342"><ele>173.8</ele><time>2026-04-04T12:31:18.999Z</time></trkpt><trkpt lat="43.66134080128959" lon="11.283663013821933"><ele>173.2</ele><time>2026-04-04T12:31:19.999Z</time></trkpt><trkpt lat="43.66133300547003" lon="11.283524873623271"><ele>172.6</ele><time>2026-04-04T12:31:20.999Z</time></trkpt><trkpt lat="43.6613185263509" lon="11.283387688709203"><ele>172.0</ele><time>2026-04-04T12:31:21.999Z</time></trkpt><trkpt lat="43.6612960008451" lon="11.283252621164738"><ele>172.0</ele><time>2026-04-04T12:31:22.999Z</time></trkpt><trkpt lat="43.661275470635495" lon="11.283120361508772"><ele>172.0</ele><time>2026-04-04T12:31:23.999Z</time></trkpt><trkpt lat="43.66125680723337" lon="11.282985440962833"><ele>172.0</ele><time>2026-04-04T12:31:24.999Z</time></trkpt><trkpt lat="43.66123805768069" lon="11.282850175214271"><ele>172.0</ele><time>2026-04-04T12:31:25.999Z</time></trkpt><trkpt lat="43.66122182011396" lon="11.282713991673226"><ele>172.0</ele><time>2026-04-04T12:31:26.999Z</time></trkpt><trkpt lat="43.661203845338115" lon="11.28257706185725"><ele>171.6</ele><time>2026-04-04T12:31:27.999Z</time></trkpt><trkpt lat="43.66118366747218" lon="11.282440529126609"><ele>171.2</ele><time>2026-04-04T12:31:28.999Z</time></trkpt><trkpt lat="43.66116105039962" lon="11.282306954054645"><ele>170.8</ele><time>2026-04-04T12:31:29.999Z</time></trkpt><trkpt lat="43.661139928008225" lon="11.28217166132847"><ele>170.4</ele><time>2026-04-04T12:31:30.999Z</time></trkpt><trkpt lat="43.66111609126596" lon="11.282039223334804"><ele>170.0</ele><time>2026-04-04T12:31:31.999Z</time></trkpt><trkpt lat="43.66109314350174" lon="11.281908825618965"><ele>170.2</ele><time>2026-04-04T12:31:32.999Z</time></trkpt><trkpt lat="43.66106408194686" lon="11.281775457197535"><ele>170.4</ele><time>2026-04-04T12:31:33.999Z</time></trkpt><trkpt lat="43.66103518822664" lon="11.281638818959975"><ele>170.60000000000002</ele><time>2026-04-04T12:31:34.999Z</time></trkpt><trkpt lat="43.66100474696017" lon="11.281507745747211"><ele>170.8</ele><time>2026-04-04T12:31:35.999Z</time></trkpt><trkpt lat="43.66097796578184" lon="11.281376889447444"><ele>171.0</ele><time>2026-04-04T12:31:36.999Z</time></trkpt><trkpt lat="43.66094904217062" lon="11.281246474933393"><ele>171.0</ele><time>2026-04-04T12:31:37.999Z</time></trkpt><trkpt lat="43.660921628962605" lon="11.281114594956493"><ele>171.0</ele><time>2026-04-04T12:31:38.999Z</time></trkpt><trkpt lat="43.66089214600737" lon="11.280986455441917"><ele>171.0</ele><time>2026-04-04T12:31:39.999Z</time></trkpt><trkpt lat="43.6608663634583" lon="11.280858812578478"><ele>171.0</ele><time>2026-04-04T12:31:40.999Z</time></trkpt><trkpt lat="43.66084256463114" lon="11.280727676972125"><ele>171.0</ele><time>2026-04-04T12:31:41.999Z</time></trkpt><trkpt lat="43.6608133783755" lon="11.280600909923775"><ele>169.60000000000002</ele><time>2026-04-04T12:31:42.999Z</time></trkpt><trkpt lat="43.660785432122225" lon="11.280472571483461"><ele>168.2</ele><time>2026-04-04T12:31:43.999Z</time></trkpt><trkpt lat="43.66075707255484" lon="11.28034184457745"><ele>166.8</ele><time>2026-04-04T12:31:44.999Z</time></trkpt><trkpt lat="43.66072914709216" lon="11.280220780232236"><ele>165.39999999999998</ele><time>2026-04-04T12:31:45.999Z</time></trkpt><trkpt lat="43.66070543376924" lon="11.28009532902419"><ele>164.0</ele><time>2026-04-04T12:31:46.999Z</time></trkpt><trkpt lat="43.660674903903505" lon="11.279971370107818"><ele>164.0</ele><time>2026-04-04T12:31:47.999Z</time></trkpt><trkpt lat="43.66064332503989" lon="11.27984949089963"><ele>164.0</ele><time>2026-04-04T12:31:48.999Z</time></trkpt><trkpt lat="43.660599594133544" lon="11.279732639911556"><ele>164.0</ele><time>2026-04-04T12:31:49.999Z</time></trkpt><trkpt lat="43.66054042138386" lon="11.27962921283089"><ele>164.0</ele><time>2026-04-04T12:31:50.999Z</time></trkpt><trkpt lat="43.6604801637146" lon="11.279530170989377"><ele>164.0</ele><time>2026-04-04T12:31:51.999Z</time></trkpt><trkpt lat="43.66041075683303" lon="11.279428809203212"><ele>164.0</ele><time>2026-04-04T12:31:52.999Z</time></trkpt><trkpt lat="43.6603435681913" lon="11.279332548368718"><ele>164.0</ele><time>2026-04-04T12:31:53.999Z</time></trkpt><trkpt lat="43.660274444500836" lon="11.279239096039507"><ele>164.0</ele><time>2026-04-04T12:31:54.999Z</time></trkpt><trkpt lat="43.660206230835605" lon="11.279129154412804"><ele>164.0</ele><time>2026-04-04T12:31:55.999Z</time></trkpt><trkpt lat="43.66015497752232" lon="11.27901219538354"><ele>164.0</ele><time>2026-04-04T12:31:56.999Z</time></trkpt><trkpt lat="43.660118650323916" lon="11.278894395177325"><ele>163.0</ele><time>2026-04-04T12:31:57.999Z</time></trkpt><trkpt lat="43.660094296611256" lon="11.278745973144149"><ele>162.0</ele><time>2026-04-04T12:31:58.999Z</time></trkpt><trkpt lat="43.66007360679994" lon="11.278614609729795"><ele>161.0</ele><time>2026-04-04T12:31:59.999Z</time></trkpt><trkpt lat="43.66005278209139" lon="11.278483509546438"><ele>160.0</ele><time>2026-04-04T12:32:00.999Z</time></trkpt><trkpt lat="43.66004034247034" lon="11.278354634057388"><ele>159.0</ele><time>2026-04-04T12:32:01.999Z</time></trkpt><trkpt lat="43.66002407969048" lon="11.27823044976303"><ele>159.0</ele><time>2026-04-04T12:32:02.999Z</time></trkpt><trkpt lat="43.66000691900766" lon="11.278104040634782"><ele>159.0</ele><time>2026-04-04T12:32:03.999Z</time></trkpt><trkpt lat="43.65998795736991" lon="11.277981602339121"><ele>159.0</ele><time>2026-04-04T12:32:04.999Z</time></trkpt><trkpt lat="43.65997059580135" lon="11.277868087624237"><ele>159.0</ele><time>2026-04-04T12:32:05.999Z</time></trkpt><trkpt lat="43.65995311558207" lon="11.277753506067492"><ele>159.0</ele><time>2026-04-04T12:32:06.999Z</time></trkpt><trkpt lat="43.65993879890804" lon="11.277639449277773"><ele>159.0</ele><time>2026-04-04T12:32:07.999Z</time></trkpt><trkpt lat="43.659928278269" lon="11.277525501816209"><ele>159.0</ele><time>2026-04-04T12:32:08.999Z</time></trkpt><trkpt lat="43.6599216871935" lon="11.277411317525717"><ele>159.0</ele><time>2026-04-04T12:32:09.999Z</time></trkpt><trkpt lat="43.65991865648876" lon="11.2772975413409"><ele>159.0</ele><time>2026-04-04T12:32:10.999Z</time></trkpt><trkpt lat="43.65991730181503" lon="11.277182803353432"><ele>159.0</ele><time>2026-04-04T12:32:11.999Z</time></trkpt><trkpt lat="43.659922100734555" lon="11.277066705921246"><ele>159.0</ele><time>2026-04-04T12:32:12.999Z</time></trkpt><trkpt lat="43.659927426933585" lon="11.27695149513486"><ele>159.0</ele><time>2026-04-04T12:32:13.999Z</time></trkpt><trkpt lat="43.65993331547525" lon="11.276835418608487"><ele>159.0</ele><time>2026-04-04T12:32:15Z</time></trkpt><trkpt lat="43.65993750305699" lon="11.276720707982427"><ele>159.0</ele><time>2026-04-04T12:32:16Z</time></trkpt><trkpt lat="43.65994300068246" lon="11.27660830079008"><ele>159.0</ele><time>2026-04-04T12:32:17Z</time></trkpt><trkpt lat="43.6599485456031" lon="11.276496966271504"><ele>159.0</ele><time>2026-04-04T12:32:18Z</time></trkpt><trkpt lat="43.65994711215232" lon="11.27638566208108"><ele>159.0</ele><time>2026-04-04T12:32:19Z</time></trkpt><trkpt lat="43.65993283565005" lon="11.276274398191648"><ele>159.0</ele><time>2026-04-04T12:32:20Z</time></trkpt><trkpt lat="43.65990919309812" lon="11.276168377299467"><ele>159.16666666666666</ele><time>2026-04-04T12:32:21Z</time></trkpt><trkpt lat="43.65988350271282" lon="11.276064115773288"><ele>159.33333333333334</ele><time>2026-04-04T12:32:22Z</time></trkpt><trkpt lat="43.6598578415524" lon="11.275961089186673"><ele>159.5</ele><time>2026-04-04T12:32:23Z</time></trkpt><trkpt lat="43.65983161776722" lon="11.275854454570656"><ele>159.66666666666669</ele><time>2026-04-04T12:32:24Z</time></trkpt><trkpt lat="43.659802434364856" lon="11.275755553825034"><ele>159.83333333333334</ele><time>2026-04-04T12:32:25Z</time></trkpt><trkpt lat="43.65978265611675" lon="11.275651416375647"><ele>160.0</ele><time>2026-04-04T12:32:26Z</time></trkpt><trkpt lat="43.65976197935392" lon="11.275546713795276"><ele>159.5</ele><time>2026-04-04T12:32:27Z</time></trkpt><trkpt lat="43.65975209336389" lon="11.275440663232818"><ele>159.0</ele><time>2026-04-04T12:32:28Z</time></trkpt><trkpt lat="43.659751551179504" lon="11.275330887540264"><ele>158.5</ele><time>2026-04-04T12:32:29Z</time></trkpt><trkpt lat="43.65975961140539" lon="11.27522445353671"><ele>158.0</ele><time>2026-04-04T12:32:30Z</time></trkpt><trkpt lat="43.65977867896235" lon="11.275119267189403"><ele>157.5</ele><time>2026-04-04T12:32:31Z</time></trkpt><trkpt lat="43.65981248303547" lon="11.275023162276234"><ele>157.0</ele><time>2026-04-04T12:32:32Z</time></trkpt><trkpt lat="43.65984458213633" lon="11.274925403113766"><ele>156.99999999999997</ele><time>2026-04-04T12:32:33Z</time></trkpt><trkpt lat="43.65988086407175" lon="11.27482922608841"><ele>157.0</ele><time>2026-04-04T12:32:34Z</time></trkpt><trkpt lat="43.65991765098091" lon="11.274737649419801"><ele>157.0</ele><time>2026-04-04T12:32:35Z</time></trkpt><trkpt lat="43.659953213138806" lon="11.274646790424104"><ele>157.0</ele><time>2026-04-04T12:32:36Z</time></trkpt><trkpt lat="43.659988229983625" lon="11.274558343000294"><ele>157.0</ele><time>2026-04-04T12:32:37Z</time></trkpt><trkpt lat="43.66002459926607" lon="11.274468944364974"><ele>156.99999999999997</ele><time>2026-04-04T12:32:38Z</time></trkpt><trkpt lat="43.66005650826122" lon="11.274382389138333"><ele>157.0</ele><time>2026-04-04T12:32:39Z</time></trkpt><trkpt lat="43.660085147311044" lon="11.274292561187442"><ele>156.66666666666669</ele><time>2026-04-04T12:32:40Z</time></trkpt><trkpt lat="43.66011059221099" lon="11.274200457372123"><ele>156.33333333333334</ele><time>2026-04-04T12:32:41Z</time></trkpt><trkpt lat="43.66013189558559" lon="11.274109229739896"><ele>156.0</ele><time>2026-04-04T12:32:42Z</time></trkpt><trkpt lat="43.660144525130924" lon="11.274015919896778"><ele>155.66666666666666</ele><time>2026-04-04T12:32:43Z</time></trkpt><trkpt lat="43.66015375452538" lon="11.27392905340833"><ele>155.33333333333331</ele><time>2026-04-04T12:32:44Z</time></trkpt><trkpt lat="43.660156441065354" lon="11.273842091665545"><ele>155.0</ele><time>2026-04-04T12:32:45Z</time></trkpt><trkpt lat="43.660167191051215" lon="11.27367095552897"><ele>155.0</ele><time>2026-04-04T12:32:47Z</time></trkpt><trkpt lat="43.66016877974608" lon="11.273580485524334"><ele>155.0</ele><time>2026-04-04T12:32:48Z</time></trkpt><trkpt lat="43.660169917614844" lon="11.273491302585853"><ele>155.0</ele><time>2026-04-04T12:32:49Z</time></trkpt><trkpt lat="43.6601758074321" lon="11.273402017600576"><ele>155.0</ele><time>2026-04-04T12:32:50Z</time></trkpt><trkpt lat="43.66017946922203" lon="11.273312828449507"><ele>155.0</ele><time>2026-04-04T12:32:51Z</time></trkpt><trkpt lat="43.66018437261087" lon="11.27322326549843"><ele>155.0</ele><time>2026-04-04T12:32:52Z</time></trkpt><trkpt lat="43.66018911879935" lon="11.27313325767438"><ele>155.0</ele><time>2026-04-04T12:32:53Z</time></trkpt><trkpt lat="43.66019692537865" lon="11.273042620581695"><ele>155.0</ele><time>2026-04-04T12:32:54Z</time></trkpt><trkpt lat="43.66021727142815" lon="11.272952162678903"><ele>155.0</ele><time>2026-04-04T12:32:55Z</time></trkpt><trkpt lat="43.66023560325419" lon="11.272863440478265"><ele>155.0</ele><time>2026-04-04T12:32:56Z</time></trkpt><trkpt lat="43.66026383902106" lon="11.272777246569055"><ele>155.0</ele><time>2026-04-04T12:32:57Z</time></trkpt><trkpt lat="43.66029371463358" lon="11.27269236961574"><ele>155.0</ele><time>2026-04-04T12:32:58Z</time></trkpt><trkpt lat="43.66032974018656" lon="11.272612074848869"><ele>155.0</ele><time>2026-04-04T12:32:59Z</time></trkpt><trkpt lat="43.66036992681622" lon="11.272539081427606"><ele>155.0</ele><time>2026-04-04T12:33:00Z</time></trkpt><trkpt lat="43.660407838679674" lon="11.272458212177968"><ele>154.71428571428572</ele><time>2026-04-04T12:33:01Z</time></trkpt><trkpt lat="43.660449198038535" lon="11.27238439362836"><ele>154.42857142857142</ele><time>2026-04-04T12:33:02Z</time></trkpt><trkpt lat="43.66049216326719" lon="11.272309669478505"><ele>154.14285714285714</ele><time>2026-04-04T12:33:03Z</time></trkpt><trkpt lat="43.66053335055688" lon="11.272230242167689"><ele>153.85714285714286</ele><time>2026-04-04T12:33:04Z</time></trkpt><trkpt lat="43.6605752822583" lon="11.272152341575348"><ele>153.57142857142858</ele><time>2026-04-04T12:33:05Z</time></trkpt><trkpt lat="43.660618149773704" lon="11.272074904673259"><ele>153.28571428571428</ele><time>2026-04-04T12:33:06Z</time></trkpt><trkpt lat="43.660661587949676" lon="11.271996826561818"><ele>153.0</ele><time>2026-04-04T12:33:07Z</time></trkpt><trkpt lat="43.66070491835893" lon="11.271920309129376"><ele>153.0</ele><time>2026-04-04T12:33:08Z</time></trkpt><trkpt lat="43.66074720296527" lon="11.271844891486301"><ele>153.0</ele><time>2026-04-04T12:33:09Z</time></trkpt><trkpt lat="43.66078579353082" lon="11.271765976370164"><ele>153.0</ele><time>2026-04-04T12:33:10Z</time></trkpt><trkpt lat="43.6608244402723" lon="11.271687723908054"><ele>153.0</ele><time>2026-04-04T12:33:11Z</time></trkpt><trkpt lat="43.6608520370131" lon="11.271607227732327"><ele>153.0</ele><time>2026-04-04T12:33:11.999Z</time></trkpt><trkpt lat="43.66087263353748" lon="11.27152382627487"><ele>153.0</ele><time>2026-04-04T12:33:12.999Z</time></trkpt><trkpt lat="43.660890564851165" lon="11.271439307978255"><ele>153.0</ele><time>2026-04-04T12:33:13.999Z</time></trkpt><trkpt lat="43.66089981990286" lon="11.271352879676384"><ele>152.5</ele><time>2026-04-04T12:33:14.999Z</time></trkpt><trkpt lat="43.66090931278282" lon="11.271181735164715"><ele>152.0</ele><time>2026-04-04T12:33:16.999Z</time></trkpt><trkpt lat="43.660903153753026" lon="11.271016465608078"><ele>151.5</ele><time>2026-04-04T12:33:18.999Z</time></trkpt><trkpt lat="43.660891337118265" lon="11.270854554599527"><ele>151.0</ele><time>2026-04-04T12:33:20.999Z</time></trkpt><trkpt lat="43.66087763626743" lon="11.270696570334989"><ele>150.25</ele><time>2026-04-04T12:33:22.999Z</time></trkpt><trkpt lat="43.66086448106964" lon="11.270539399599604"><ele>149.5</ele><time>2026-04-04T12:33:24.999Z</time></trkpt><trkpt lat="43.66085595804026" lon="11.270379232263506"><ele>148.75</ele><time>2026-04-04T12:33:26.999Z</time></trkpt><trkpt lat="43.660844041731345" lon="11.270217250941798"><ele>148.0</ele><time>2026-04-04T12:33:28.999Z</time></trkpt><trkpt lat="43.66083239610647" lon="11.270052380369513"><ele>148.0</ele><time>2026-04-04T12:33:30.999Z</time></trkpt><trkpt lat="43.66081903604086" lon="11.269888097321862"><ele>148.0</ele><time>2026-04-04T12:33:32.999Z</time></trkpt><trkpt lat="43.66079941785054" lon="11.269725654049685"><ele>148.0</ele><time>2026-04-04T12:33:34.999Z</time></trkpt><trkpt lat="43.66077723163132" lon="11.269565485550585"><ele>148.0</ele><time>2026-04-04T12:33:36.999Z</time></trkpt><trkpt lat="43.66073546271074" lon="11.269413733005921"><ele>147.75</ele><time>2026-04-04T12:33:38.999Z</time></trkpt><trkpt lat="43.660683681012266" lon="11.269270653443717"><ele>147.5</ele><time>2026-04-04T12:33:40.999Z</time></trkpt><trkpt lat="43.66061314117625" lon="11.269142906236993"><ele>147.25</ele><time>2026-04-04T12:33:42.999Z</time></trkpt><trkpt lat="43.66055434280717" lon="11.269006124518214"><ele>147.0</ele><time>2026-04-04T12:33:44.999Z</time></trkpt><trkpt lat="43.66049135321065" lon="11.268865993511435"><ele>148.25</ele><time>2026-04-04T12:33:46.999Z</time></trkpt><trkpt lat="43.660440438709486" lon="11.268716247933677"><ele>149.5</ele><time>2026-04-04T12:33:48.999Z</time></trkpt><trkpt lat="43.660408493083914" lon="11.268550721874627"><ele>150.75</ele><time>2026-04-04T12:33:50.999Z</time></trkpt><trkpt lat="43.66038909223871" lon="11.268379948275554"><ele>152.0</ele><time>2026-04-04T12:33:52.999Z</time></trkpt><trkpt lat="43.6603778605115" lon="11.268215006021297"><ele>153.75</ele><time>2026-04-04T12:33:54.999Z</time></trkpt><trkpt lat="43.66036116441214" lon="11.268047984562784"><ele>155.5</ele><time>2026-04-04T12:33:56.999Z</time></trkpt><trkpt lat="43.66032148556144" lon="11.267891159363222"><ele>157.25</ele><time>2026-04-04T12:33:58.999Z</time></trkpt><trkpt lat="43.66026249689847" lon="11.267745678994626"><ele>159.0</ele><time>2026-04-04T12:34:00.999Z</time></trkpt><trkpt lat="43.66020667597055" lon="11.267608545584359"><ele>156.0</ele><time>2026-04-04T12:34:02.999Z</time></trkpt><trkpt lat="43.66014051049429" lon="11.267470854473148"><ele>153.0</ele><time>2026-04-04T12:34:04.999Z</time></trkpt><trkpt lat="43.66007191056254" lon="11.267334908381489"><ele>150.0</ele><time>2026-04-04T12:34:06.999Z</time></trkpt><trkpt lat="43.659997341665935" lon="11.26719917117461"><ele>147.0</ele><time>2026-04-04T12:34:08.999Z</time></trkpt><trkpt lat="43.659919641891996" lon="11.267062429464099"><ele>147.0</ele><time>2026-04-04T12:34:10.999Z</time></trkpt><trkpt lat="43.65984797880887" lon="11.26692382843369"><ele>147.0</ele><time>2026-04-04T12:34:12.999Z</time></trkpt><trkpt lat="43.65977905026072" lon="11.266779871310387"><ele>147.0</ele><time>2026-04-04T12:34:14.999Z</time></trkpt><trkpt lat="43.6597200656925" lon="11.266633840169398"><ele>147.0</ele><time>2026-04-04T12:34:16.999Z</time></trkpt><trkpt lat="43.659668303625025" lon="11.26647588739711"><ele>147.5</ele><time>2026-04-04T12:34:18.999Z</time></trkpt><trkpt lat="43.65962003837186" lon="11.266318810546414"><ele>148.0</ele><time>2026-04-04T12:34:21Z</time></trkpt><trkpt lat="43.65957267116355" lon="11.266157971911907"><ele>148.5</ele><time>2026-04-04T12:34:23Z</time></trkpt><trkpt lat="43.659554228287874" lon="11.266074650185939"><ele>149.0</ele><time>2026-04-04T12:34:24Z</time></trkpt><trkpt lat="43.65952856979052" lon="11.265993684065974"><ele>149.5</ele><time>2026-04-04T12:34:25Z</time></trkpt><trkpt lat="43.65950553298802" lon="11.265909583570647"><ele>150.0</ele><time>2026-04-04T12:34:26Z</time></trkpt><trkpt lat="43.659483254787254" lon="11.265824656877092"><ele>150.0</ele><time>2026-04-04T12:34:27Z</time></trkpt><trkpt lat="43.659470880907534" lon="11.26573853488036"><ele>150.0</ele><time>2026-04-04T12:34:28Z</time></trkpt><trkpt lat="43.65945622485357" lon="11.265650324386012"><ele>150.0</ele><time>2026-04-04T12:34:29Z</time></trkpt><trkpt lat="43.65944371231348" lon="11.265562819816582"><ele>150.0</ele><time>2026-04-04T12:34:30Z</time></trkpt><trkpt lat="43.659431442146946" lon="11.265389813066635"><ele>150.0</ele><time>2026-04-04T12:34:32Z</time></trkpt><trkpt lat="43.659423579334515" lon="11.265218989894777"><ele>150.0</ele><time>2026-04-04T12:34:34Z</time></trkpt><trkpt lat="43.65941170869355" lon="11.265048325227555"><ele>148.5</ele><time>2026-04-04T12:34:36Z</time></trkpt><trkpt lat="43.65939262541803" lon="11.264878825202441"><ele>147.0</ele><time>2026-04-04T12:34:38Z</time></trkpt><trkpt lat="43.659373156244726" lon="11.264795895363372"><ele>145.5</ele><time>2026-04-04T12:34:39Z</time></trkpt><trkpt lat="43.65931917356861" lon="11.264639342989087"><ele>144.0</ele><time>2026-04-04T12:34:41Z</time></trkpt><trkpt lat="43.65928372012878" lon="11.264565340910915"><ele>142.5</ele><time>2026-04-04T12:34:42Z</time></trkpt><trkpt lat="43.6592453879185" lon="11.264495270256182"><ele>141.0</ele><time>2026-04-04T12:34:43Z</time></trkpt><trkpt lat="43.65920632485955" lon="11.264423693436717"><ele>141.0</ele><time>2026-04-04T12:34:44Z</time></trkpt><trkpt lat="43.65916510842901" lon="11.264351701520605"><ele>141.0</ele><time>2026-04-04T12:34:45Z</time></trkpt><trkpt lat="43.659122976361914" lon="11.264278941905593"><ele>141.0</ele><time>2026-04-04T12:34:46Z</time></trkpt><trkpt lat="43.65908166924372" lon="11.264204442029877"><ele>141.0</ele><time>2026-04-04T12:34:47Z</time></trkpt><trkpt lat="43.659043046270675" lon="11.264128772434555"><ele>141.0</ele><time>2026-04-04T12:34:48Z</time></trkpt><trkpt lat="43.659001911356526" lon="11.264051222287554"><ele>141.0</ele><time>2026-04-04T12:34:49Z</time></trkpt><trkpt lat="43.65896198318061" lon="11.263974557327177"><ele>141.0</ele><time>2026-04-04T12:34:50Z</time></trkpt><trkpt lat="43.658919836536064" lon="11.263895951844823"><ele>140.71428571428572</ele><time>2026-04-04T12:34:51Z</time></trkpt><trkpt lat="43.65887720335005" lon="11.26381549894462"><ele>140.42857142857142</ele><time>2026-04-04T12:34:52Z</time></trkpt><trkpt lat="43.658833031926896" lon="11.263732126729519"><ele>140.14285714285714</ele><time>2026-04-04T12:34:53Z</time></trkpt><trkpt lat="43.65878879196915" lon="11.26365104195115"><ele>139.85714285714286</ele><time>2026-04-04T12:34:54Z</time></trkpt><trkpt lat="43.65874385662052" lon="11.263567278777433"><ele>139.57142857142858</ele><time>2026-04-04T12:34:55Z</time></trkpt><trkpt lat="43.65870190358648" lon="11.263484359675719"><ele>139.28571428571428</ele><time>2026-04-04T12:34:56Z</time></trkpt><trkpt lat="43.6586600242032" lon="11.26340189586733"><ele>139.0</ele><time>2026-04-04T12:34:57Z</time></trkpt><trkpt lat="43.65861787183412" lon="11.26331725727501"><ele>139.0</ele><time>2026-04-04T12:34:58Z</time></trkpt><trkpt lat="43.658576968867195" lon="11.263228902928653"><ele>139.0</ele><time>2026-04-04T12:34:59Z</time></trkpt><trkpt lat="43.658540620065686" lon="11.263141523332598"><ele>139.0</ele><time>2026-04-04T12:35:00Z</time></trkpt><trkpt lat="43.65850531606967" lon="11.263053301238953"><ele>139.0</ele><time>2026-04-04T12:35:01Z</time></trkpt><trkpt lat="43.65848059596143" lon="11.26295739434036"><ele>139.0</ele><time>2026-04-04T12:35:02Z</time></trkpt><trkpt lat="43.65844694384309" lon="11.262764647142319"><ele>139.0</ele><time>2026-04-04T12:35:04Z</time></trkpt><trkpt lat="43.65843381245383" lon="11.26266728428929"><ele>138.71428571428572</ele><time>2026-04-04T12:35:05Z</time></trkpt><trkpt lat="43.658426119165796" lon="11.26256911013015"><ele>138.42857142857144</ele><time>2026-04-04T12:35:06Z</time></trkpt><trkpt lat="43.658412287758665" lon="11.262470822473471"><ele>138.14285714285717</ele><time>2026-04-04T12:35:07Z</time></trkpt><trkpt lat="43.65839794567753" lon="11.262374405833134"><ele>137.85714285714286</ele><time>2026-04-04T12:35:08Z</time></trkpt><trkpt lat="43.65838619744169" lon="11.262276228739758"><ele>137.57142857142858</ele><time>2026-04-04T12:35:09Z</time></trkpt><trkpt lat="43.65837145281539" lon="11.26217956899204"><ele>137.2857142857143</ele><time>2026-04-04T12:35:10Z</time></trkpt><trkpt lat="43.65835644012274" lon="11.262082301013828"><ele>137.0</ele><time>2026-04-04T12:35:11Z</time></trkpt><trkpt lat="43.658342391684215" lon="11.261984510375473"><ele>137.00000000000003</ele><time>2026-04-04T12:35:12Z</time></trkpt><trkpt lat="43.65832799445401" lon="11.261886634522822"><ele>137.0</ele><time>2026-04-04T12:35:13Z</time></trkpt><trkpt lat="43.65831430699288" lon="11.261789295442796"><ele>137.0</ele><time>2026-04-04T12:35:14Z</time></trkpt><trkpt lat="43.65830113629675" lon="11.261694428680144"><ele>137.0</ele><time>2026-04-04T12:35:15Z</time></trkpt><trkpt lat="43.658289478488335" lon="11.261599490122101"><ele>137.0</ele><time>2026-04-04T12:35:16Z</time></trkpt><trkpt lat="43.658274533630454" lon="11.261504764328075"><ele>137.00000000000003</ele><time>2026-04-04T12:35:17Z</time></trkpt><trkpt lat="43.65826251854606" lon="11.26141146073884"><ele>137.0</ele><time>2026-04-04T12:35:18Z</time></trkpt><trkpt lat="43.65824810692827" lon="11.261317422055475"><ele>137.14285714285717</ele><time>2026-04-04T12:35:19Z</time></trkpt><trkpt lat="43.65823250631937" lon="11.26122475349017"><ele>137.28571428571428</ele><time>2026-04-04T12:35:20Z</time></trkpt><trkpt lat="43.6582203860384" lon="11.261130762042061"><ele>137.42857142857144</ele><time>2026-04-04T12:35:21Z</time></trkpt><trkpt lat="43.65820735267293" lon="11.261035267080297"><ele>137.57142857142858</ele><time>2026-04-04T12:35:22Z</time></trkpt><trkpt lat="43.65819461412199" lon="11.260939257749735"><ele>137.71428571428572</ele><time>2026-04-04T12:35:23Z</time></trkpt><trkpt lat="43.65817985657327" lon="11.26084507502401"><ele>137.85714285714286</ele><time>2026-04-04T12:35:24Z</time></trkpt><trkpt lat="43.65816580493592" lon="11.260748618870272"><ele>138.0</ele><time>2026-04-04T12:35:25Z</time></trkpt><trkpt lat="43.65815792035197" lon="11.260651426352007"><ele>137.85714285714286</ele><time>2026-04-04T12:35:26Z</time></trkpt><trkpt lat="43.65815311377997" lon="11.260554207217556"><ele>137.71428571428572</ele><time>2026-04-04T12:35:26.999Z</time></trkpt><trkpt lat="43.65815186457861" lon="11.26045779079233"><ele>137.57142857142858</ele><time>2026-04-04T12:35:27.999Z</time></trkpt><trkpt lat="43.65815295970435" lon="11.260362766131554"><ele>137.42857142857144</ele><time>2026-04-04T12:35:28.999Z</time></trkpt><trkpt lat="43.65815337237453" lon="11.260265673196493"><ele>137.28571428571428</ele><time>2026-04-04T12:35:29.999Z</time></trkpt><trkpt lat="43.658152977207735" lon="11.260170123759979"><ele>137.14285714285717</ele><time>2026-04-04T12:35:30.999Z</time></trkpt><trkpt lat="43.65815086599504" lon="11.260074487180267"><ele>137.0</ele><time>2026-04-04T12:35:31.999Z</time></trkpt><trkpt lat="43.6581485838881" lon="11.259977775704355"><ele>137.00000000000003</ele><time>2026-04-04T12:35:32.999Z</time></trkpt><trkpt lat="43.65814835523277" lon="11.25988206745348"><ele>137.0</ele><time>2026-04-04T12:35:33.999Z</time></trkpt><trkpt lat="43.65814712268787" lon="11.259785237821767"><ele>137.0</ele><time>2026-04-04T12:35:34.999Z</time></trkpt><trkpt lat="43.65814647641339" lon="11.259690598016999"><ele>137.0</ele><time>2026-04-04T12:35:35.999Z</time></trkpt><trkpt lat="43.65814765497913" lon="11.259597328295984"><ele>137.0</ele><time>2026-04-04T12:35:36.999Z</time></trkpt><trkpt lat="43.658147418093975" lon="11.259505687156972"><ele>137.00000000000003</ele><time>2026-04-04T12:35:37.999Z</time></trkpt><trkpt lat="43.65814643990284" lon="11.259415471271572"><ele>137.0</ele><time>2026-04-04T12:35:38.999Z</time></trkpt><trkpt lat="43.6581419387196" lon="11.259324201188058"><ele>136.83333333333331</ele><time>2026-04-04T12:35:39.999Z</time></trkpt><trkpt lat="43.65813767627194" lon="11.259233059671397"><ele>136.66666666666666</ele><time>2026-04-04T12:35:40.999Z</time></trkpt><trkpt lat="43.65813556715255" lon="11.259143573225069"><ele>136.5</ele><time>2026-04-04T12:35:41.999Z</time></trkpt><trkpt lat="43.65813607891037" lon="11.259056336000409"><ele>136.33333333333334</ele><time>2026-04-04T12:35:42.999Z</time></trkpt><trkpt lat="43.658133910095" lon="11.25888720014612"><ele>136.16666666666669</ele><time>2026-04-04T12:35:44.999Z</time></trkpt><trkpt lat="43.6581349329413" lon="11.258729207908083"><ele>136.0</ele><time>2026-04-04T12:35:46.999Z</time></trkpt><trkpt lat="43.65812974270906" lon="11.258576406031377"><ele>135.83333333333334</ele><time>2026-04-04T12:35:48.999Z</time></trkpt><trkpt lat="43.658120776142304" lon="11.25843426143623"><ele>135.66666666666669</ele><time>2026-04-04T12:35:50.999Z</time></trkpt><trkpt lat="43.65811717643507" lon="11.258304331911617"><ele>135.5</ele><time>2026-04-04T12:35:52.999Z</time></trkpt><trkpt lat="43.6581254770441" lon="11.25818250589144"><ele>135.33333333333334</ele><time>2026-04-04T12:35:54.999Z</time></trkpt><trkpt lat="43.65813395221574" lon="11.25806996822816"><ele>135.16666666666666</ele><time>2026-04-04T12:35:56.999Z</time></trkpt><trkpt lat="43.65814848175632" lon="11.257981074517701"><ele>135.0</ele><time>2026-04-04T12:35:58.999Z</time></trkpt><trkpt lat="43.65822204146135" lon="11.25789249193352"><ele>135.0</ele><time>2026-04-04T12:36:00.999Z</time></trkpt><trkpt lat="43.65828036997735" lon="11.257807190190437"><ele>135.0</ele><time>2026-04-04T12:36:02.999Z</time></trkpt><trkpt lat="43.65834839608552" lon="11.257730473319054"><ele>135.0</ele><time>2026-04-04T12:36:04.999Z</time></trkpt><trkpt lat="43.65841354605475" lon="11.257647097225817"><ele>135.0</ele><time>2026-04-04T12:36:06.999Z</time></trkpt><trkpt lat="43.65847938530441" lon="11.257564210744247"><ele>135.0</ele><time>2026-04-04T12:36:08.999Z</time></trkpt><trkpt lat="43.658549838244205" lon="11.257478261236363"><ele>135.0</ele><time>2026-04-04T12:36:10.999Z</time></trkpt><trkpt lat="43.65862254870435" lon="11.257390765244086"><ele>135.0</ele><time>2026-04-04T12:36:12.999Z</time></trkpt><trkpt lat="43.65868847518082" lon="11.257295557338077"><ele>135.0</ele><time>2026-04-04T12:36:14.999Z</time></trkpt><trkpt lat="43.658764699891705" lon="11.257211370818965"><ele>135.0</ele><time>2026-04-04T12:36:16.999Z</time></trkpt><trkpt lat="43.658834512543095" lon="11.257112700388877"><ele>135.0</ele><time>2026-04-04T12:36:18.999Z</time></trkpt><trkpt lat="43.658899877683304" lon="11.257006790814488"><ele>135.0</ele><time>2026-04-04T12:36:20.999Z</time></trkpt><trkpt lat="43.6589543011142" lon="11.256890407929673"><ele>135.2</ele><time>2026-04-04T12:36:22.999Z</time></trkpt><trkpt lat="43.659004935142434" lon="11.256773382189804"><ele>135.4</ele><time>2026-04-04T12:36:24.999Z</time></trkpt><trkpt lat="43.6590294993552" lon="11.25664258410806"><ele>135.6</ele><time>2026-04-04T12:36:27Z</time></trkpt><trkpt lat="43.65904884543556" lon="11.25651051901788"><ele>135.8</ele><time>2026-04-04T12:36:29Z</time></trkpt><trkpt lat="43.65905776432252" lon="11.256375603431104"><ele>136.0</ele><time>2026-04-04T12:36:31Z</time></trkpt><trkpt lat="43.65906379330146" lon="11.256245956931874"><ele>136.0</ele><time>2026-04-04T12:36:33Z</time></trkpt><trkpt lat="43.659060351927266" lon="11.256119156432971"><ele>136.0</ele><time>2026-04-04T12:36:35Z</time></trkpt><trkpt lat="43.65905198499075" lon="11.25598667309454"><ele>136.0</ele><time>2026-04-04T12:36:37Z</time></trkpt><trkpt lat="43.65904386363936" lon="11.255849369371942"><ele>136.0</ele><time>2026-04-04T12:36:39Z</time></trkpt><trkpt lat="43.65903861324574" lon="11.25571191254037"><ele>136.0</ele><time>2026-04-04T12:36:41Z</time></trkpt><trkpt lat="43.6590299859405" lon="11.255569853082669"><ele>135.8</ele><time>2026-04-04T12:36:43Z</time></trkpt><trkpt lat="43.659023140705614" lon="11.25542644405548"><ele>135.6</ele><time>2026-04-04T12:36:45Z</time></trkpt><trkpt lat="43.65901475668699" lon="11.255282521229748"><ele>135.4</ele><time>2026-04-04T12:36:47Z</time></trkpt><trkpt lat="43.6590077829635" lon="11.2551424127229"><ele>135.2</ele><time>2026-04-04T12:36:49Z</time></trkpt><trkpt lat="43.65900018897796" lon="11.255000363603411"><ele>135.0</ele><time>2026-04-04T12:36:51Z</time></trkpt><trkpt lat="43.65899197774841" lon="11.254855384561"><ele>134.4</ele><time>2026-04-04T12:36:53Z</time></trkpt><trkpt lat="43.65898409871068" lon="11.254713206520465"><ele>133.8</ele><time>2026-04-04T12:36:55Z</time></trkpt><trkpt lat="43.658973971808656" lon="11.254569145730377"><ele>133.2</ele><time>2026-04-04T12:36:57Z</time></trkpt><trkpt lat="43.65896436348844" lon="11.25442419579587"><ele>132.6</ele><time>2026-04-04T12:36:59Z</time></trkpt><trkpt lat="43.65895596721464" lon="11.254279107375135"><ele>132.0</ele><time>2026-04-04T12:37:01Z</time></trkpt><trkpt lat="43.65894668773346" lon="11.254135410925674"><ele>132.0</ele><time>2026-04-04T12:37:03Z</time></trkpt><trkpt lat="43.658938656916725" lon="11.253994305462657"><ele>132.0</ele><time>2026-04-04T12:37:05Z</time></trkpt><trkpt lat="43.65892786903515" lon="11.253852164501797"><ele>132.0</ele><time>2026-04-04T12:37:07Z</time></trkpt><trkpt lat="43.658919600730734" lon="11.253709065263383"><ele>132.0</ele><time>2026-04-04T12:37:09Z</time></trkpt><trkpt lat="43.658909338118804" lon="11.253563257606904"><ele>132.0</ele><time>2026-04-04T12:37:11Z</time></trkpt><trkpt lat="43.658901103253925" lon="11.253416212235322"><ele>132.0</ele><time>2026-04-04T12:37:13Z</time></trkpt><trkpt lat="43.65888893639953" lon="11.253268696482483"><ele>132.0</ele><time>2026-04-04T12:37:15Z</time></trkpt><trkpt lat="43.65887870539" lon="11.253122631305091"><ele>132.0</ele><time>2026-04-04T12:37:17Z</time></trkpt><trkpt lat="43.658872065285486" lon="11.252974964828748"><ele>132.0</ele><time>2026-04-04T12:37:19Z</time></trkpt><trkpt lat="43.65886072843448" lon="11.252828288502315"><ele>132.0</ele><time>2026-04-04T12:37:21Z</time></trkpt><trkpt lat="43.65885281780903" lon="11.252682378754104"><ele>132.2</ele><time>2026-04-04T12:37:23Z</time></trkpt><trkpt lat="43.65884326684126" lon="11.252536849537927"><ele>132.39999999999998</ele><time>2026-04-04T12:37:25Z</time></trkpt><trkpt lat="43.658834427938636" lon="11.252386668844814"><ele>132.60000000000002</ele><time>2026-04-04T12:37:27Z</time></trkpt><trkpt lat="43.65882445097739" lon="11.252233662841112"><ele>132.8</ele><time>2026-04-04T12:37:29Z</time></trkpt><trkpt lat="43.65881336986393" lon="11.252082172078206"><ele>133.0</ele><time>2026-04-04T12:37:31Z</time></trkpt><trkpt lat="43.65880313292534" lon="11.251931176477889"><ele>133.0</ele><time>2026-04-04T12:37:33Z</time></trkpt><trkpt lat="43.65880029288386" lon="11.251781504503967"><ele>133.0</ele><time>2026-04-04T12:37:35Z</time></trkpt><trkpt lat="43.65879248271427" lon="11.251637622820823"><ele>133.0</ele><time>2026-04-04T12:37:37Z</time></trkpt><trkpt lat="43.65878435731082" lon="11.251495928299104"><ele>133.0</ele><time>2026-04-04T12:37:38.999Z</time></trkpt><trkpt lat="43.65877579241756" lon="11.251351573492256"><ele>133.0</ele><time>2026-04-04T12:37:40.999Z</time></trkpt><trkpt lat="43.65876417748046" lon="11.25120803082009"><ele>132.8</ele><time>2026-04-04T12:37:42.999Z</time></trkpt><trkpt lat="43.65875736684539" lon="11.251063201169892"><ele>132.60000000000002</ele><time>2026-04-04T12:37:44.999Z</time></trkpt><trkpt lat="43.65874932595004" lon="11.250918421791123"><ele>132.39999999999998</ele><time>2026-04-04T12:37:46.999Z</time></trkpt><trkpt lat="43.65873979452191" lon="11.250777425058931"><ele>132.2</ele><time>2026-04-04T12:37:48.999Z</time></trkpt><trkpt lat="43.658729705386904" lon="11.250639209582754"><ele>132.0</ele><time>2026-04-04T12:37:50.999Z</time></trkpt><trkpt lat="43.65872189472862" lon="11.25050021077454"><ele>131.79999999999998</ele><time>2026-04-04T12:37:52.999Z</time></trkpt><trkpt lat="43.658712077482036" lon="11.250360040263388"><ele>131.6</ele><time>2026-04-04T12:37:54.999Z</time></trkpt><trkpt lat="43.658704498783074" lon="11.25021765642565"><ele>131.39999999999998</ele><time>2026-04-04T12:37:56.999Z</time></trkpt><trkpt lat="43.658696758458824" lon="11.250075515643148"><ele>131.2</ele><time>2026-04-04T12:37:58.999Z</time></trkpt><trkpt lat="43.65870450761475" lon="11.24993162011217"><ele>131.0</ele><time>2026-04-04T12:38:00.999Z</time></trkpt><trkpt lat="43.65870889947005" lon="11.249787546634877"><ele>131.0</ele><time>2026-04-04T12:38:02.999Z</time></trkpt><trkpt lat="43.658717597819226" lon="11.249644060416927"><ele>131.0</ele><time>2026-04-04T12:38:04.999Z</time></trkpt><trkpt lat="43.65872689896137" lon="11.249504746955632"><ele>131.0</ele><time>2026-04-04T12:38:06.999Z</time></trkpt><trkpt lat="43.65873375430361" lon="11.24936511644555"><ele>131.0</ele><time>2026-04-04T12:38:08.999Z</time></trkpt><trkpt lat="43.658738336720745" lon="11.249228616782702"><ele>131.0</ele><time>2026-04-04T12:38:10.999Z</time></trkpt><trkpt lat="43.65874494031489" lon="11.24909167400286"><ele>131.6</ele><time>2026-04-04T12:38:12.999Z</time></trkpt><trkpt lat="43.65875196033873" lon="11.248958706521584"><ele>132.2</ele><time>2026-04-04T12:38:14.999Z</time></trkpt><trkpt lat="43.65876139218753" lon="11.24882581298009"><ele>132.8</ele><time>2026-04-04T12:38:16.999Z</time></trkpt><trkpt lat="43.65876848229907" lon="11.248691564274512"><ele>133.4</ele><time>2026-04-04T12:38:18.999Z</time></trkpt><trkpt lat="43.658774030124576" lon="11.248552623684613"><ele>134.0</ele><time>2026-04-04T12:38:20.999Z</time></trkpt><trkpt lat="43.658784020111256" lon="11.248412727868832"><ele>134.0</ele><time>2026-04-04T12:38:22.999Z</time></trkpt><trkpt lat="43.65879206659936" lon="11.248270537377667"><ele>134.0</ele><time>2026-04-04T12:38:24.999Z</time></trkpt><trkpt lat="43.658799652115825" lon="11.24812700312417"><ele>134.0</ele><time>2026-04-04T12:38:26.999Z</time></trkpt><trkpt lat="43.6588055323908" lon="11.247979416931761"><ele>134.0</ele><time>2026-04-04T12:38:28.999Z</time></trkpt><trkpt lat="43.65881451611739" lon="11.247828807575617"><ele>134.0</ele><time>2026-04-04T12:38:30.999Z</time></trkpt><trkpt lat="43.65882048493571" lon="11.247682082363234"><ele>133.4</ele><time>2026-04-04T12:38:33Z</time></trkpt><trkpt lat="43.65882631888808" lon="11.247533543327458"><ele>132.8</ele><time>2026-04-04T12:38:35Z</time></trkpt><trkpt lat="43.6588344697986" lon="11.247387888287559"><ele>132.2</ele><time>2026-04-04T12:38:37Z</time></trkpt><trkpt lat="43.658843859602534" lon="11.247246756861356"><ele>131.6</ele><time>2026-04-04T12:38:39Z</time></trkpt><trkpt lat="43.658852977202095" lon="11.247106556925363"><ele>131.0</ele><time>2026-04-04T12:38:41Z</time></trkpt><trkpt lat="43.6588594418992" lon="11.246964559246365"><ele>131.0</ele><time>2026-04-04T12:38:43Z</time></trkpt><trkpt lat="43.658867190509" lon="11.246826960187759"><ele>131.0</ele><time>2026-04-04T12:38:45Z</time></trkpt><trkpt lat="43.65887070502542" lon="11.246685232406268"><ele>131.0</ele><time>2026-04-04T12:38:47Z</time></trkpt><trkpt lat="43.65887954176728" lon="11.246539601477512"><ele>131.0</ele><time>2026-04-04T12:38:49Z</time></trkpt><trkpt lat="43.658885116702116" lon="11.24639085549812"><ele>131.0</ele><time>2026-04-04T12:38:51Z</time></trkpt><trkpt lat="43.65889513736763" lon="11.246248632448568"><ele>131.2</ele><time>2026-04-04T12:38:53Z</time></trkpt><trkpt lat="43.658903377197824" lon="11.246104723253278"><ele>131.39999999999998</ele><time>2026-04-04T12:38:55Z</time></trkpt><trkpt lat="43.65891224302152" lon="11.245962400337072"><ele>131.6</ele><time>2026-04-04T12:38:57Z</time></trkpt><trkpt lat="43.6589257682481" lon="11.24581616968942"><ele>131.79999999999998</ele><time>2026-04-04T12:38:59Z</time></trkpt><trkpt lat="43.65892953890818" lon="11.245671406771173"><ele>132.0</ele><time>2026-04-04T12:39:01Z</time></trkpt><trkpt lat="43.65893241549009" lon="11.245525827482265"><ele>132.4</ele><time>2026-04-04T12:39:03Z</time></trkpt><trkpt lat="43.65893534763418" lon="11.245385804027036"><ele>132.79999999999998</ele><time>2026-04-04T12:39:05Z</time></trkpt><trkpt lat="43.65893161638567" lon="11.245242389016802"><ele>133.2</ele><time>2026-04-04T12:39:07Z</time></trkpt><trkpt lat="43.6589254316911" lon="11.245105102812774"><ele>133.6</ele><time>2026-04-04T12:39:09Z</time></trkpt><trkpt lat="43.65890786426621" lon="11.244966972208895"><ele>134.0</ele><time>2026-04-04T12:39:11Z</time></trkpt><trkpt lat="43.6588803362854" lon="11.244833144968517"><ele>133.8</ele><time>2026-04-04T12:39:13Z</time></trkpt><trkpt lat="43.65884869181757" lon="11.24470267928253"><ele>133.60000000000002</ele><time>2026-04-04T12:39:15Z</time></trkpt><trkpt lat="43.65881334106665" lon="11.24457638128593"><ele>133.4</ele><time>2026-04-04T12:39:17Z</time></trkpt><trkpt lat="43.658775196242466" lon="11.244454278676214"><ele>133.20000000000002</ele><time>2026-04-04T12:39:19Z</time></trkpt><trkpt lat="43.65873460903332" lon="11.244330185863793"><ele>133.0</ele><time>2026-04-04T12:39:21Z</time></trkpt><trkpt lat="43.65869278963453" lon="11.24420493359817"><ele>133.0</ele><time>2026-04-04T12:39:23Z</time></trkpt><trkpt lat="43.65865208766167" lon="11.244080429234671"><ele>133.0</ele><time>2026-04-04T12:39:25Z</time></trkpt><trkpt lat="43.65861023969082" lon="11.243959561120334"><ele>133.0</ele><time>2026-04-04T12:39:27Z</time></trkpt><trkpt lat="43.65856589243483" lon="11.243830008497811"><ele>133.0</ele><time>2026-04-04T12:39:29Z</time></trkpt><trkpt lat="43.65852477699887" lon="11.24370200289477"><ele>133.0</ele><time>2026-04-04T12:39:31Z</time></trkpt><trkpt lat="43.65848053803626" lon="11.24357348554083"><ele>131.8</ele><time>2026-04-04T12:39:33Z</time></trkpt><trkpt lat="43.65843757420051" lon="11.243441692426723"><ele>130.60000000000002</ele><time>2026-04-04T12:39:35Z</time></trkpt><trkpt lat="43.6583960076932" lon="11.24331131155944"><ele>129.39999999999998</ele><time>2026-04-04T12:39:37Z</time></trkpt><trkpt lat="43.65835713771801" lon="11.243183354997237"><ele>128.2</ele><time>2026-04-04T12:39:39Z</time></trkpt><trkpt lat="43.65832094038628" lon="11.243058045870594"><ele>127.0</ele><time>2026-04-04T12:39:41Z</time></trkpt><trkpt lat="43.65828652188984" lon="11.242924678778303"><ele>127.0</ele><time>2026-04-04T12:39:43Z</time></trkpt><trkpt lat="43.65826428785494" lon="11.24278615664187"><ele>126.99999999999999</ele><time>2026-04-04T12:39:45Z</time></trkpt><trkpt lat="43.658245390025314" lon="11.24263965230813"><ele>126.99999999999999</ele><time>2026-04-04T12:39:47Z</time></trkpt><trkpt lat="43.6582396298902" lon="11.242491667693857"><ele>127.0</ele><time>2026-04-04T12:39:49Z</time></trkpt><trkpt lat="43.65824623144343" lon="11.242341311474263"><ele>127.0</ele><time>2026-04-04T12:39:51Z</time></trkpt><trkpt lat="43.65826714281267" lon="11.242188056173086"><ele>126.5</ele><time>2026-04-04T12:39:53Z</time></trkpt><trkpt lat="43.65830396483464" lon="11.24203908372132"><ele>126.0</ele><time>2026-04-04T12:39:55Z</time></trkpt><trkpt lat="43.65835414446837" lon="11.241896747061816"><ele>125.5</ele><time>2026-04-04T12:39:57Z</time></trkpt><trkpt lat="43.65842404659191" lon="11.241766266848899"><ele>125.0</ele><time>2026-04-04T12:39:59Z</time></trkpt><trkpt lat="43.6585004834805" lon="11.241643153700588"><ele>125.0</ele><time>2026-04-04T12:40:01Z</time></trkpt><trkpt lat="43.65859204538672" lon="11.241535131783014"><ele>125.0</ele><time>2026-04-04T12:40:03Z</time></trkpt><trkpt lat="43.65868889789813" lon="11.241431619135025"><ele>125.0</ele><time>2026-04-04T12:40:05Z</time></trkpt><trkpt lat="43.6587880821974" lon="11.24133612138499"><ele>125.0</ele><time>2026-04-04T12:40:06.999Z</time></trkpt><trkpt lat="43.65889529974386" lon="11.241257930003304"><ele>124.25</ele><time>2026-04-04T12:40:08.999Z</time></trkpt><trkpt lat="43.659004595707096" lon="11.241189596074543"><ele>123.5</ele><time>2026-04-04T12:40:10.999Z</time></trkpt><trkpt lat="43.65911400627373" lon="11.241130070877395"><ele>122.75</ele><time>2026-04-04T12:40:12.999Z</time></trkpt><trkpt lat="43.65922538556461" lon="11.241076317584609"><ele>122.0</ele><time>2026-04-04T12:40:14.999Z</time></trkpt><trkpt lat="43.65933681311693" lon="11.241024933897293"><ele>122.75</ele><time>2026-04-04T12:40:16.999Z</time></trkpt><trkpt lat="43.6594515380679" lon="11.240992186964533"><ele>123.5</ele><time>2026-04-04T12:40:18.999Z</time></trkpt><trkpt lat="43.65956512453751" lon="11.240958500531624"><ele>124.25</ele><time>2026-04-04T12:40:20.999Z</time></trkpt><trkpt lat="43.659675606926875" lon="11.240932050590578"><ele>125.0</ele><time>2026-04-04T12:40:22.999Z</time></trkpt><trkpt lat="43.65979079349753" lon="11.240904560599548"><ele>125.0</ele><time>2026-04-04T12:40:24.999Z</time></trkpt><trkpt lat="43.659903564434615" lon="11.240872981304472"><ele>125.0</ele><time>2026-04-04T12:40:26.999Z</time></trkpt><trkpt lat="43.66001605695234" lon="11.240842177980074"><ele>125.0</ele><time>2026-04-04T12:40:28.999Z</time></trkpt><trkpt lat="43.66012392142786" lon="11.240813213340319"><ele>125.0</ele><time>2026-04-04T12:40:30.999Z</time></trkpt><trkpt lat="43.66023084697977" lon="11.240787913464265"><ele>125.0</ele><time>2026-04-04T12:40:32.999Z</time></trkpt><trkpt lat="43.66033526359007" lon="11.240763187411764"><ele>124.6</ele><time>2026-04-04T12:40:34.999Z</time></trkpt><trkpt lat="43.66044117066707" lon="11.240734743857406"><ele>124.2</ele><time>2026-04-04T12:40:36.999Z</time></trkpt><trkpt lat="43.66054899806516" lon="11.240703745622598"><ele>123.80000000000001</ele><time>2026-04-04T12:40:39.001Z</time></trkpt><trkpt lat="43.66065412862828" lon="11.240676663105745"><ele>123.4</ele><time>2026-04-04T12:40:41.001Z</time></trkpt><trkpt lat="43.660764983832095" lon="11.240649665579877"><ele>123.0</ele><time>2026-04-04T12:40:43.001Z</time></trkpt><trkpt lat="43.660873995044646" lon="11.240629274457818"><ele>123.0</ele><time>2026-04-04T12:40:45.001Z</time></trkpt><trkpt lat="43.66098209848536" lon="11.240600023491508"><ele>123.00000000000001</ele><time>2026-04-04T12:40:47.001Z</time></trkpt><trkpt lat="43.661088753906455" lon="11.240570322287642"><ele>123.00000000000001</ele><time>2026-04-04T12:40:49.001Z</time></trkpt><trkpt lat="43.66119930205311" lon="11.240539827458596"><ele>123.0</ele><time>2026-04-04T12:40:51.001Z</time></trkpt><trkpt lat="43.661309876767" lon="11.240507769403107"><ele>123.0</ele><time>2026-04-04T12:40:53Z</time></trkpt><trkpt lat="43.66142407365725" lon="11.240476921660061"><ele>122.75</ele><time>2026-04-04T12:40:55Z</time></trkpt><trkpt lat="43.661536440517956" lon="11.240449325012696"><ele>122.5</ele><time>2026-04-04T12:40:57Z</time></trkpt><trkpt lat="43.66165177751028" lon="11.240422931481891"><ele>122.25</ele><time>2026-04-04T12:40:59Z</time></trkpt><trkpt lat="43.66176798853375" lon="11.240390374969106"><ele>122.0</ele><time>2026-04-04T12:41:01Z</time></trkpt><trkpt lat="43.66188284063812" lon="11.240363512170953"><ele>123.0</ele><time>2026-04-04T12:41:03Z</time></trkpt><trkpt lat="43.66199615753784" lon="11.240335288776524"><ele>124.0</ele><time>2026-04-04T12:41:05Z</time></trkpt><trkpt lat="43.66210945357003" lon="11.240310209454048"><ele>125.0</ele><time>2026-04-04T12:41:07Z</time></trkpt><trkpt lat="43.6622173154728" lon="11.240288077562587"><ele>126.0</ele><time>2026-04-04T12:41:09Z</time></trkpt><trkpt lat="43.662330759022936" lon="11.240264103851922"><ele>126.0</ele><time>2026-04-04T12:41:11Z</time></trkpt><trkpt lat="43.662439819411716" lon="11.24024874844986"><ele>126.0</ele><time>2026-04-04T12:41:13Z</time></trkpt><trkpt lat="43.662544306013" lon="11.240238202994982"><ele>126.0</ele><time>2026-04-04T12:41:15Z</time></trkpt><trkpt lat="43.66264464036776" lon="11.240232678731667"><ele>126.0</ele><time>2026-04-04T12:41:17Z</time></trkpt><trkpt lat="43.66274413752154" lon="11.240227135022044"><ele>126.0</ele><time>2026-04-04T12:41:19Z</time></trkpt><trkpt lat="43.66284687238005" lon="11.240230758145678"><ele>125.6</ele><time>2026-04-04T12:41:21Z</time></trkpt><trkpt lat="43.66295031884892" lon="11.240235885717498"><ele>125.19999999999999</ele><time>2026-04-04T12:41:23Z</time></trkpt><trkpt lat="43.663053728053605" lon="11.240242268896441"><ele>124.80000000000001</ele><time>2026-04-04T12:41:25Z</time></trkpt><trkpt lat="43.66316004985696" lon="11.240262680250284"><ele>124.4</ele><time>2026-04-04T12:41:27Z</time></trkpt><trkpt lat="43.66326455661079" lon="11.240288062933322"><ele>124.0</ele><time>2026-04-04T12:41:29Z</time></trkpt><trkpt lat="43.66336156850186" lon="11.240306870661147"><ele>124.0</ele><time>2026-04-04T12:41:31Z</time></trkpt><trkpt lat="43.66346301521315" lon="11.240329216651991"><ele>124.0</ele><time>2026-04-04T12:41:33Z</time></trkpt><trkpt lat="43.66356273791038" lon="11.240359910609085"><ele>124.0</ele><time>2026-04-04T12:41:35Z</time></trkpt><trkpt lat="43.66365952356873" lon="11.240409305383071"><ele>124.0</ele><time>2026-04-04T12:41:37Z</time></trkpt><trkpt lat="43.66375492586695" lon="11.240465044218658"><ele>124.0</ele><time>2026-04-04T12:41:39Z</time></trkpt><trkpt lat="43.66385460376264" lon="11.240510970113272"><ele>124.4</ele><time>2026-04-04T12:41:41Z</time></trkpt><trkpt lat="43.663958774047174" lon="11.240570693802804"><ele>124.80000000000001</ele><time>2026-04-04T12:41:43Z</time></trkpt><trkpt lat="43.66406013182648" lon="11.24062831919222"><ele>125.19999999999999</ele><time>2026-04-04T12:41:45Z</time></trkpt><trkpt lat="43.66417149358679" lon="11.240651819769237"><ele>125.6</ele><time>2026-04-04T12:41:47Z</time></trkpt><trkpt lat="43.66428169658708" lon="11.240626239617795"><ele>126.0</ele><time>2026-04-04T12:41:49Z</time></trkpt><trkpt lat="43.66438494105154" lon="11.240581289237245"><ele>126.8</ele><time>2026-04-04T12:41:51Z</time></trkpt><trkpt lat="43.66448164742025" lon="11.240524227194147"><ele>127.6</ele><time>2026-04-04T12:41:53Z</time></trkpt><trkpt lat="43.664566962076016" lon="11.240443796865172"><ele>128.4</ele><time>2026-04-04T12:41:55Z</time></trkpt><trkpt lat="43.664641331972085" lon="11.24035170469"><ele>129.2</ele><time>2026-04-04T12:41:57Z</time></trkpt><trkpt lat="43.66470040363948" lon="11.240243718879515"><ele>130.0</ele><time>2026-04-04T12:41:59Z</time></trkpt><trkpt lat="43.66474624886544" lon="11.240129983199104"><ele>130.0</ele><time>2026-04-04T12:42:01Z</time></trkpt><trkpt lat="43.664786511360624" lon="11.24000513436215"><ele>130.0</ele><time>2026-04-04T12:42:03Z</time></trkpt><trkpt lat="43.66481656508066" lon="11.239878327047231"><ele>130.0</ele><time>2026-04-04T12:42:05Z</time></trkpt><trkpt lat="43.664853002379814" lon="11.23975251930075"><ele>130.0</ele><time>2026-04-04T12:42:07Z</time></trkpt><trkpt lat="43.66488698512145" lon="11.239625403407832"><ele>130.0</ele><time>2026-04-04T12:42:09Z</time></trkpt><trkpt lat="43.66491986549869" lon="11.23949941852272"><ele>129.0</ele><time>2026-04-04T12:42:10.999Z</time></trkpt><trkpt lat="43.66495358715327" lon="11.239376814770232"><ele>128.0</ele><time>2026-04-04T12:42:12.999Z</time></trkpt><trkpt lat="43.66498897441235" lon="11.239252125726823"><ele>127.0</ele><time>2026-04-04T12:42:14.999Z</time></trkpt><trkpt lat="43.66502107425067" lon="11.23912766812398"><ele>126.0</ele><time>2026-04-04T12:42:16.999Z</time></trkpt><trkpt lat="43.665054284211614" lon="11.239001411471497"><ele>125.0</ele><time>2026-04-04T12:42:18.999Z</time></trkpt><trkpt lat="43.665086334178945" lon="11.238873201301399"><ele>124.2</ele><time>2026-04-04T12:42:20.999Z</time></trkpt><trkpt lat="43.665119697893715" lon="11.238745346375227"><ele>123.4</ele><time>2026-04-04T12:42:22.999Z</time></trkpt><trkpt lat="43.66515403239918" lon="11.23861794440201"><ele>122.6</ele><time>2026-04-04T12:42:24.999Z</time></trkpt><trkpt lat="43.6651876245574" lon="11.238487322449224"><ele>121.8</ele><time>2026-04-04T12:42:26.999Z</time></trkpt><trkpt lat="43.665219325413595" lon="11.238358873955937"><ele>121.0</ele><time>2026-04-04T12:42:28.999Z</time></trkpt><trkpt lat="43.66525333475712" lon="11.238232714912986"><ele>124.0</ele><time>2026-04-04T12:42:30.999Z</time></trkpt><trkpt lat="43.66528948830102" lon="11.238106572006492"><ele>127.0</ele><time>2026-04-04T12:42:32.999Z</time></trkpt><trkpt lat="43.66532566252927" lon="11.237980707446717"><ele>130.0</ele><time>2026-04-04T12:42:34.999Z</time></trkpt><trkpt lat="43.66535838590477" lon="11.23784934283931"><ele>133.0</ele><time>2026-04-04T12:42:36.999Z</time></trkpt><trkpt lat="43.66539310253706" lon="11.23772187896011"><ele>136.0</ele><time>2026-04-04T12:42:38.999Z</time></trkpt><trkpt lat="43.66542805713077" lon="11.237591948403656"><ele>136.0</ele><time>2026-04-04T12:42:40.999Z</time></trkpt><trkpt lat="43.66546063180002" lon="11.237460599870735"><ele>136.0</ele><time>2026-04-04T12:42:42.999Z</time></trkpt><trkpt lat="43.66549350074989" lon="11.237329693589325"><ele>136.0</ele><time>2026-04-04T12:42:45.001Z</time></trkpt><trkpt lat="43.66553017875654" lon="11.237198557666359"><ele>136.0</ele><time>2026-04-04T12:42:47.001Z</time></trkpt><trkpt lat="43.665564214393655" lon="11.237073267602781"><ele>136.0</ele><time>2026-04-04T12:42:49.001Z</time></trkpt><trkpt lat="43.665594354889954" lon="11.236953015366382"><ele>135.5</ele><time>2026-04-04T12:42:51.001Z</time></trkpt><trkpt lat="43.66562299852459" lon="11.236840139699769"><ele>135.0</ele><time>2026-04-04T12:42:53.001Z</time></trkpt><trkpt lat="43.66565078202774" lon="11.23672742528945"><ele>134.5</ele><time>2026-04-04T12:42:55.001Z</time></trkpt><trkpt lat="43.6656813830495" lon="11.236612802839302"><ele>134.0</ele><time>2026-04-04T12:42:57.001Z</time></trkpt><trkpt lat="43.665710788909394" lon="11.236494169318922"><ele>133.5</ele><time>2026-04-04T12:42:59.001Z</time></trkpt><trkpt lat="43.665739977114995" lon="11.236372410546352"><ele>133.0</ele><time>2026-04-04T12:43:01.001Z</time></trkpt><trkpt lat="43.66577170619253" lon="11.236247028324799"><ele>132.20000000000002</ele><time>2026-04-04T12:43:03Z</time></trkpt><trkpt lat="43.66580556646303" lon="11.236122667974149"><ele>131.4</ele><time>2026-04-04T12:43:05Z</time></trkpt><trkpt lat="43.66583662800456" lon="11.23599514019223"><ele>130.60000000000002</ele><time>2026-04-04T12:43:07Z</time></trkpt><trkpt lat="43.66587141886577" lon="11.23586494454946"><ele>129.8</ele><time>2026-04-04T12:43:09Z</time></trkpt><trkpt lat="43.6659078565221" lon="11.235732617161812"><ele>129.0</ele><time>2026-04-04T12:43:11Z</time></trkpt><trkpt lat="43.66594556961471" lon="11.235593439277483"><ele>127.25</ele><time>2026-04-04T12:43:13Z</time></trkpt><trkpt lat="43.66598138546481" lon="11.23545098121508"><ele>125.5</ele><time>2026-04-04T12:43:15Z</time></trkpt><trkpt lat="43.66602012072055" lon="11.23530242659408"><ele>123.75</ele><time>2026-04-04T12:43:17Z</time></trkpt><trkpt lat="43.66606184296248" lon="11.235155409982688"><ele>122.0</ele><time>2026-04-04T12:43:19Z</time></trkpt><trkpt lat="43.66609841738289" lon="11.235007322062476"><ele>125.25</ele><time>2026-04-04T12:43:21Z</time></trkpt><trkpt lat="43.66614167014242" lon="11.23486346163495"><ele>128.5</ele><time>2026-04-04T12:43:23Z</time></trkpt><trkpt lat="43.66618248656355" lon="11.234713434132416"><ele>131.75</ele><time>2026-04-04T12:43:25Z</time></trkpt><trkpt lat="43.66622016118979" lon="11.23456102669884"><ele>135.0</ele><time>2026-04-04T12:43:27Z</time></trkpt><trkpt lat="43.66626134962731" lon="11.234414450923975"><ele>135.0</ele><time>2026-04-04T12:43:29Z</time></trkpt><trkpt lat="43.66630125627362" lon="11.23427437187226"><ele>135.0</ele><time>2026-04-04T12:43:31Z</time></trkpt><trkpt lat="43.666339948204374" lon="11.23412634063383"><ele>135.0</ele><time>2026-04-04T12:43:33Z</time></trkpt><trkpt lat="43.6663765575686" lon="11.233978571229832"><ele>135.0</ele><time>2026-04-04T12:43:35Z</time></trkpt><trkpt lat="43.666413384166894" lon="11.233833796955013"><ele>135.0</ele><time>2026-04-04T12:43:37Z</time></trkpt><trkpt lat="43.666447322916845" lon="11.233691750271372"><ele>133.6</ele><time>2026-04-04T12:43:39Z</time></trkpt><trkpt lat="43.666478571130824" lon="11.233542512779144"><ele>132.2</ele><time>2026-04-04T12:43:41Z</time></trkpt><trkpt lat="43.666501299206374" lon="11.233393159251216"><ele>130.8</ele><time>2026-04-04T12:43:43Z</time></trkpt><trkpt lat="43.66650913659562" lon="11.233253815719275"><ele>129.4</ele><time>2026-04-04T12:43:45Z</time></trkpt><trkpt lat="43.66651215081792" lon="11.23312199697534"><ele>128.0</ele><time>2026-04-04T12:43:47Z</time></trkpt><trkpt lat="43.66650929708471" lon="11.232986156998829"><ele>127.60000000000001</ele><time>2026-04-04T12:43:49Z</time></trkpt><trkpt lat="43.66650495055335" lon="11.232845380462834"><ele>127.20000000000002</ele><time>2026-04-04T12:43:51Z</time></trkpt><trkpt lat="43.66649891132043" lon="11.232703692408593"><ele>126.8</ele><time>2026-04-04T12:43:53Z</time></trkpt><trkpt lat="43.66649813996767" lon="11.23255807963249"><ele>126.4</ele><time>2026-04-04T12:43:55Z</time></trkpt><trkpt lat="43.666494384423736" lon="11.23241643376947"><ele>126.0</ele><time>2026-04-04T12:43:57Z</time></trkpt><trkpt lat="43.66648925079103" lon="11.232274123744963"><ele>126.0</ele><time>2026-04-04T12:43:59Z</time></trkpt><trkpt lat="43.66648780990758" lon="11.232131474850375"><ele>126.0</ele><time>2026-04-04T12:44:01Z</time></trkpt><trkpt lat="43.66648147055446" lon="11.231985060938067"><ele>126.0</ele><time>2026-04-04T12:44:03Z</time></trkpt><trkpt lat="43.666479477646185" lon="11.231840532003549"><ele>126.0</ele><time>2026-04-04T12:44:05Z</time></trkpt><trkpt lat="43.666475281294105" lon="11.231689855340788"><ele>126.0</ele><time>2026-04-04T12:44:07Z</time></trkpt><trkpt lat="43.66647233277774" lon="11.231541306143281"><ele>126.8</ele><time>2026-04-04T12:44:08.999Z</time></trkpt><trkpt lat="43.66646983876838" lon="11.231395440648113"><ele>127.6</ele><time>2026-04-04T12:44:10.999Z</time></trkpt><trkpt lat="43.66646126362203" lon="11.231244671775446"><ele>128.4</ele><time>2026-04-04T12:44:12.999Z</time></trkpt><trkpt lat="43.666460238674766" lon="11.23109841703781"><ele>129.2</ele><time>2026-04-04T12:44:14.999Z</time></trkpt><trkpt lat="43.6664567356388" lon="11.230951521056626"><ele>130.0</ele><time>2026-04-04T12:44:16.999Z</time></trkpt><trkpt lat="43.66645246800193" lon="11.230805553588777"><ele>130.0</ele><time>2026-04-04T12:44:18.999Z</time></trkpt><trkpt lat="43.666447828563854" lon="11.230659899919845"><ele>130.0</ele><time>2026-04-04T12:44:20.999Z</time></trkpt><trkpt lat="43.66644391885167" lon="11.230511581502688"><ele>130.0</ele><time>2026-04-04T12:44:22.999Z</time></trkpt><trkpt lat="43.66643914873758" lon="11.230360583105744"><ele>130.0</ele><time>2026-04-04T12:44:24.999Z</time></trkpt><trkpt lat="43.66643589500196" lon="11.23020934909924"><ele>130.0</ele><time>2026-04-04T12:44:26.999Z</time></trkpt><trkpt lat="43.666431314238885" lon="11.230058529082"><ele>130.0</ele><time>2026-04-04T12:44:28.999Z</time></trkpt><trkpt lat="43.66642382161579" lon="11.229907291548257"><ele>130.0</ele><time>2026-04-04T12:44:30.999Z</time></trkpt><trkpt lat="43.66642293704566" lon="11.229753608974843"><ele>130.0</ele><time>2026-04-04T12:44:32.999Z</time></trkpt><trkpt lat="43.66641893390139" lon="11.229602203591929"><ele>130.0</ele><time>2026-04-04T12:44:34.999Z</time></trkpt><trkpt lat="43.666413359855746" lon="11.229450068148996"><ele>130.0</ele><time>2026-04-04T12:44:36.999Z</time></trkpt><trkpt lat="43.66640621977241" lon="11.229296032470964"><ele>129.2</ele><time>2026-04-04T12:44:38.999Z</time></trkpt><trkpt lat="43.66640308378633" lon="11.229141055038278"><ele>128.4</ele><time>2026-04-04T12:44:40.999Z</time></trkpt><trkpt lat="43.66640252487723" lon="11.228988169854613"><ele>127.6</ele><time>2026-04-04T12:44:42.999Z</time></trkpt><trkpt lat="43.66640283035216" lon="11.228836948647237"><ele>126.8</ele><time>2026-04-04T12:44:44.999Z</time></trkpt><trkpt lat="43.66641081004234" lon="11.228684188667751"><ele>126.0</ele><time>2026-04-04T12:44:46.999Z</time></trkpt><trkpt lat="43.666423235366715" lon="11.228535956332616"><ele>125.6</ele><time>2026-04-04T12:44:48.999Z</time></trkpt><trkpt lat="43.66644160876558" lon="11.228393196625815"><ele>125.19999999999999</ele><time>2026-04-04T12:44:51.001Z</time></trkpt><trkpt lat="43.666470565893285" lon="11.228258313149986"><ele>124.80000000000001</ele><time>2026-04-04T12:44:53.001Z</time></trkpt><trkpt lat="43.666502835730746" lon="11.228127478858317"><ele>124.4</ele><time>2026-04-04T12:44:55.001Z</time></trkpt><trkpt lat="43.666535750831116" lon="11.22799168303506"><ele>124.0</ele><time>2026-04-04T12:44:57.001Z</time></trkpt><trkpt lat="43.66657127872447" lon="11.227851245237591"><ele>123.80000000000001</ele><time>2026-04-04T12:44:59.001Z</time></trkpt><trkpt lat="43.6666080955412" lon="11.227707112563666"><ele>123.60000000000001</ele><time>2026-04-04T12:45:01.001Z</time></trkpt><trkpt lat="43.666644607901645" lon="11.227562181804638"><ele>123.4</ele><time>2026-04-04T12:45:03Z</time></trkpt><trkpt lat="43.6666793574056" lon="11.227418789792832"><ele>123.2</ele><time>2026-04-04T12:45:05Z</time></trkpt><trkpt lat="43.66671425952105" lon="11.227276914033482"><ele>123.0</ele><time>2026-04-04T12:45:07Z</time></trkpt><trkpt lat="43.66674749503764" lon="11.227141892961603"><ele>122.2</ele><time>2026-04-04T12:45:09Z</time></trkpt><trkpt lat="43.66678383724385" lon="11.227012903471659"><ele>121.4</ele><time>2026-04-04T12:45:11Z</time></trkpt><trkpt lat="43.66681464135781" lon="11.226873404485097"><ele>120.60000000000001</ele><time>2026-04-04T12:45:13Z</time></trkpt><trkpt lat="43.66684560023871" lon="11.226730040095113"><ele>119.80000000000001</ele><time>2026-04-04T12:45:15Z</time></trkpt><trkpt lat="43.66686846366722" lon="11.226585740945193"><ele>119.0</ele><time>2026-04-04T12:45:17Z</time></trkpt><trkpt lat="43.66687141220762" lon="11.226441103183035"><ele>119.0</ele><time>2026-04-04T12:45:19Z</time></trkpt><trkpt lat="43.66686082504833" lon="11.226304640289145"><ele>119.0</ele><time>2026-04-04T12:45:21Z</time></trkpt><trkpt lat="43.66684235674072" lon="11.226158674646582"><ele>119.0</ele><time>2026-04-04T12:45:23Z</time></trkpt><trkpt lat="43.6668250364062" lon="11.226000580495784"><ele>119.0</ele><time>2026-04-04T12:45:25Z</time></trkpt><trkpt lat="43.66680430206278" lon="11.225842164868357"><ele>119.0</ele><time>2026-04-04T12:45:27Z</time></trkpt><trkpt lat="43.66678974569563" lon="11.225682978067436"><ele>119.25</ele><time>2026-04-04T12:45:29Z</time></trkpt><trkpt lat="43.66677117117377" lon="11.225524778263246"><ele>119.5</ele><time>2026-04-04T12:45:31Z</time></trkpt><trkpt lat="43.66675857742049" lon="11.225370801856897"><ele>119.75</ele><time>2026-04-04T12:45:33Z</time></trkpt><trkpt lat="43.66674966261931" lon="11.225218267096416"><ele>120.0</ele><time>2026-04-04T12:45:35Z</time></trkpt><trkpt lat="43.66673339794582" lon="11.225061907733746"><ele>120.0</ele><time>2026-04-04T12:45:37Z</time></trkpt><trkpt lat="43.666718042342694" lon="11.224903996919858"><ele>120.0</ele><time>2026-04-04T12:45:39Z</time></trkpt><trkpt lat="43.666700352339916" lon="11.224748984888492"><ele>120.0</ele><time>2026-04-04T12:45:41Z</time></trkpt><trkpt lat="43.66668612397213" lon="11.224596430365834"><ele>120.0</ele><time>2026-04-04T12:45:43Z</time></trkpt><trkpt lat="43.66666789805439" lon="11.224441053192832"><ele>119.8</ele><time>2026-04-04T12:45:45Z</time></trkpt><trkpt lat="43.66665315517997" lon="11.22428683270346"><ele>119.6</ele><time>2026-04-04T12:45:47Z</time></trkpt><trkpt lat="43.66663577581738" lon="11.224137217938805"><ele>119.4</ele><time>2026-04-04T12:45:49Z</time></trkpt><trkpt lat="43.666621775728125" lon="11.223985256327287"><ele>119.2</ele><time>2026-04-04T12:45:51Z</time></trkpt><trkpt lat="43.666604605671154" lon="11.22383899536945"><ele>119.0</ele><time>2026-04-04T12:45:53Z</time></trkpt><trkpt lat="43.66659023337546" lon="11.223690979577237"><ele>119.0</ele><time>2026-04-04T12:45:55Z</time></trkpt><trkpt lat="43.66657546963395" lon="11.223549607276093"><ele>119.0</ele><time>2026-04-04T12:45:57Z</time></trkpt><trkpt lat="43.66655993902137" lon="11.223399523523963"><ele>119.0</ele><time>2026-04-04T12:45:58.999Z</time></trkpt><trkpt lat="43.666547992531285" lon="11.223253788495372"><ele>119.0</ele><time>2026-04-04T12:46:00.999Z</time></trkpt><trkpt lat="43.66653241006702" lon="11.223108688472793"><ele>119.0</ele><time>2026-04-04T12:46:02.999Z</time></trkpt><trkpt lat="43.66651897111651" lon="11.222957286127436"><ele>118.80000000000001</ele><time>2026-04-04T12:46:04.999Z</time></trkpt><trkpt lat="43.666504949333536" lon="11.222806020634327"><ele>118.60000000000001</ele><time>2026-04-04T12:46:06.999Z</time></trkpt><trkpt lat="43.66648978883367" lon="11.222653514636297"><ele>118.4</ele><time>2026-04-04T12:46:08.999Z</time></trkpt><trkpt lat="43.666472393091496" lon="11.22250239289565"><ele>118.2</ele><time>2026-04-04T12:46:10.999Z</time></trkpt><trkpt lat="43.66645577130039" lon="11.222347191366646"><ele>118.0</ele><time>2026-04-04T12:46:12.999Z</time></trkpt><trkpt lat="43.66644577051855" lon="11.222195455933145"><ele>118.0</ele><time>2026-04-04T12:46:14.999Z</time></trkpt><trkpt lat="43.66643353085657" lon="11.222053654362837"><ele>118.00000000000001</ele><time>2026-04-04T12:46:16.999Z</time></trkpt><trkpt lat="43.66642291968177" lon="11.221901384441525"><ele>118.00000000000001</ele><time>2026-04-04T12:46:18.999Z</time></trkpt><trkpt lat="43.66642467533812" lon="11.221754397196614"><ele>118.0</ele><time>2026-04-04T12:46:20.999Z</time></trkpt><trkpt lat="43.666428573961646" lon="11.221617245396233"><ele>118.0</ele><time>2026-04-04T12:46:22.999Z</time></trkpt><trkpt lat="43.666437830001335" lon="11.221485573096365"><ele>118.16666666666667</ele><time>2026-04-04T12:46:24.999Z</time></trkpt><trkpt lat="43.66645418653524" lon="11.22136004871667"><ele>118.33333333333334</ele><time>2026-04-04T12:46:26.999Z</time></trkpt><trkpt lat="43.66647212537308" lon="11.221236856256452"><ele>118.5</ele><time>2026-04-04T12:46:28.999Z</time></trkpt><trkpt lat="43.666500443902216" lon="11.22112191750657"><ele>118.66666666666666</ele><time>2026-04-04T12:46:30.999Z</time></trkpt><trkpt lat="43.66653054508924" lon="11.22100837030819"><ele>118.83333333333333</ele><time>2026-04-04T12:46:32.999Z</time></trkpt><trkpt lat="43.666563189583606" lon="11.220894630033301"><ele>119.0</ele><time>2026-04-04T12:46:34.999Z</time></trkpt><trkpt lat="43.66659501344513" lon="11.220777043166285"><ele>118.99999999999999</ele><time>2026-04-04T12:46:36.999Z</time></trkpt><trkpt lat="43.66662730058912" lon="11.220656924143062"><ele>119.0</ele><time>2026-04-04T12:46:38.999Z</time></trkpt><trkpt lat="43.66665502633846" lon="11.22053749219138"><ele>119.0</ele><time>2026-04-04T12:46:40.999Z</time></trkpt><trkpt lat="43.666680998917926" lon="11.220420417320534"><ele>119.0</ele><time>2026-04-04T12:46:42.999Z</time></trkpt><trkpt lat="43.66670663371727" lon="11.220306570813833"><ele>118.99999999999999</ele><time>2026-04-04T12:46:44.999Z</time></trkpt><trkpt lat="43.66672655412804" lon="11.220193113171977"><ele>119.0</ele><time>2026-04-04T12:46:46.999Z</time></trkpt><trkpt lat="43.66674512836913" lon="11.220077230565801"><ele>118.6</ele><time>2026-04-04T12:46:48.999Z</time></trkpt><trkpt lat="43.66675266131637" lon="11.219955841874816"><ele>118.2</ele><time>2026-04-04T12:46:50.999Z</time></trkpt><trkpt lat="43.666758315140385" lon="11.21983427029976"><ele>117.79999999999998</ele><time>2026-04-04T12:46:52.999Z</time></trkpt><trkpt lat="43.66676305011091" lon="11.219707827899636"><ele>117.39999999999999</ele><time>2026-04-04T12:46:54.999Z</time></trkpt><trkpt lat="43.66676445081526" lon="11.219579117846699"><ele>117.0</ele><time>2026-04-04T12:46:57Z</time></trkpt><trkpt lat="43.666762305561406" lon="11.2194479346373"><ele>116.8</ele><time>2026-04-04T12:46:59Z</time></trkpt><trkpt lat="43.66676215041401" lon="11.219315446505634"><ele>116.6</ele><time>2026-04-04T12:47:01Z</time></trkpt><trkpt lat="43.66676545669945" lon="11.219185267905544"><ele>116.39999999999999</ele><time>2026-04-04T12:47:03Z</time></trkpt><trkpt lat="43.666769158412876" lon="11.21905760642162"><ele>116.19999999999999</ele><time>2026-04-04T12:47:05Z</time></trkpt><trkpt lat="43.66676983290096" lon="11.218933658497848"><ele>116.0</ele><time>2026-04-04T12:47:07Z</time></trkpt><trkpt lat="43.666775783992065" lon="11.21880866569119"><ele>116.0</ele><time>2026-04-04T12:47:09Z</time></trkpt><trkpt lat="43.66678130985893" lon="11.218683332393395"><ele>116.0</ele><time>2026-04-04T12:47:11Z</time></trkpt><trkpt lat="43.66678967918992" lon="11.2185582656425"><ele>116.0</ele><time>2026-04-04T12:47:13Z</time></trkpt><trkpt lat="43.66679690488108" lon="11.218436249964615"><ele>116.0</ele><time>2026-04-04T12:47:15Z</time></trkpt><trkpt lat="43.66680211334817" lon="11.218312493112135"><ele>116.0</ele><time>2026-04-04T12:47:17Z</time></trkpt><trkpt lat="43.66681187922768" lon="11.218185066513124"><ele>115.19999999999999</ele><time>2026-04-04T12:47:19Z</time></trkpt><trkpt lat="43.666818447465495" lon="11.218053413707384"><ele>114.39999999999999</ele><time>2026-04-04T12:47:21Z</time></trkpt><trkpt lat="43.66682464123347" lon="11.217922120279962"><ele>113.6</ele><time>2026-04-04T12:47:23Z</time></trkpt><trkpt lat="43.666839306589935" lon="11.217792875092252"><ele>112.8</ele><time>2026-04-04T12:47:25Z</time></trkpt><trkpt lat="43.66684913103897" lon="11.217660654444733"><ele>112.0</ele><time>2026-04-04T12:47:27Z</time></trkpt><trkpt lat="43.6668607717135" lon="11.217527637893646"><ele>112.0</ele><time>2026-04-04T12:47:29Z</time></trkpt><trkpt lat="43.666867096894926" lon="11.217392489723473"><ele>111.99999999999999</ele><time>2026-04-04T12:47:31Z</time></trkpt><trkpt lat="43.66688402771196" lon="11.21725252103568"><ele>111.99999999999999</ele><time>2026-04-04T12:47:33Z</time></trkpt><trkpt lat="43.66691181547189" lon="11.217117334007387"><ele>112.0</ele><time>2026-04-04T12:47:35Z</time></trkpt><trkpt lat="43.666942989680585" lon="11.216988540017795"><ele>112.0</ele><time>2026-04-04T12:47:37Z</time></trkpt><trkpt lat="43.66697920161312" lon="11.216864700314426"><ele>112.6</ele><time>2026-04-04T12:47:39Z</time></trkpt><trkpt lat="43.66702497204517" lon="11.216751147277769"><ele>113.19999999999999</ele><time>2026-04-04T12:47:41Z</time></trkpt><trkpt lat="43.66707589329641" lon="11.21663809305461"><ele>113.8</ele><time>2026-04-04T12:47:43Z</time></trkpt><trkpt lat="43.6671344005177" lon="11.216530995270304"><ele>114.4</ele><time>2026-04-04T12:47:45Z</time></trkpt><trkpt lat="43.66719026597522" lon="11.21642416173492"><ele>115.0</ele><time>2026-04-04T12:47:47Z</time></trkpt><trkpt lat="43.667248107343525" lon="11.216317445613873"><ele>115.0</ele><time>2026-04-04T12:47:49Z</time></trkpt><trkpt lat="43.66730416550924" lon="11.216208912407952"><ele>115.0</ele><time>2026-04-04T12:47:51Z</time></trkpt><trkpt lat="43.66736035830759" lon="11.216101550586004"><ele>115.0</ele><time>2026-04-04T12:47:53Z</time></trkpt><trkpt lat="43.66741741890301" lon="11.215995059027758"><ele>115.0</ele><time>2026-04-04T12:47:55Z</time></trkpt><trkpt lat="43.66747150128176" lon="11.215885651092325"><ele>115.0</ele><time>2026-04-04T12:47:56.999Z</time></trkpt><trkpt lat="43.667525596064166" lon="11.215777682071023"><ele>115.0</ele><time>2026-04-04T12:47:58.999Z</time></trkpt><trkpt lat="43.667580804502656" lon="11.215671907633217"><ele>115.0</ele><time>2026-04-04T12:48:00.999Z</time></trkpt><trkpt lat="43.66763880259521" lon="11.215571097364421"><ele>115.0</ele><time>2026-04-04T12:48:02.999Z</time></trkpt><trkpt lat="43.6676919910026" lon="11.215461288548823"><ele>115.0</ele><time>2026-04-04T12:48:04.999Z</time></trkpt><trkpt lat="43.66775285334507" lon="11.215353386198627"><ele>115.0</ele><time>2026-04-04T12:48:06.999Z</time></trkpt><trkpt lat="43.66782579130545" lon="11.215256387126628"><ele>114.6</ele><time>2026-04-04T12:48:08.999Z</time></trkpt><trkpt lat="43.66790036152344" lon="11.21515566727971"><ele>114.2</ele><time>2026-04-04T12:48:10.999Z</time></trkpt><trkpt lat="43.66798675347319" lon="11.215066488182083"><ele>113.80000000000001</ele><time>2026-04-04T12:48:12.999Z</time></trkpt><trkpt lat="43.668082362557854" lon="11.214990683366509"><ele>113.4</ele><time>2026-04-04T12:48:14.999Z</time></trkpt><trkpt lat="43.668185481874325" lon="11.214930554673348"><ele>113.0</ele><time>2026-04-04T12:48:16.999Z</time></trkpt><trkpt lat="43.668295931739856" lon="11.214896438878206"><ele>113.0</ele><time>2026-04-04T12:48:18.999Z</time></trkpt><trkpt lat="43.66840521028287" lon="11.214866608074445"><ele>113.00000000000001</ele><time>2026-04-04T12:48:20.999Z</time></trkpt><trkpt lat="43.668518729570565" lon="11.214841559412939"><ele>113.00000000000001</ele><time>2026-04-04T12:48:22.999Z</time></trkpt><trkpt lat="43.668629660467715" lon="11.214815360737921"><ele>113.0</ele><time>2026-04-04T12:48:24.999Z</time></trkpt><trkpt lat="43.668733266600114" lon="11.214786048812616"><ele>113.0</ele><time>2026-04-04T12:48:26.999Z</time></trkpt><trkpt lat="43.66883689261971" lon="11.214765174200389"><ele>113.0</ele><time>2026-04-04T12:48:28.999Z</time></trkpt><trkpt lat="43.66894009337965" lon="11.214741075598235"><ele>113.00000000000001</ele><time>2026-04-04T12:48:30.999Z</time></trkpt><trkpt lat="43.66905201655747" lon="11.214725626985217"><ele>113.00000000000001</ele><time>2026-04-04T12:48:32.999Z</time></trkpt><trkpt lat="43.669155232419264" lon="11.214700363045994"><ele>113.0</ele><time>2026-04-04T12:48:34.999Z</time></trkpt><trkpt lat="43.66925763311552" lon="11.214671716575568"><ele>113.0</ele><time>2026-04-04T12:48:36.999Z</time></trkpt><trkpt lat="43.669360443406994" lon="11.21464436830509"><ele>112.2</ele><time>2026-04-04T12:48:38.999Z</time></trkpt><trkpt lat="43.669465510883455" lon="11.214609395655112"><ele>111.4</ele><time>2026-04-04T12:48:40.999Z</time></trkpt><trkpt lat="43.669570667970255" lon="11.214583477228674"><ele>110.60000000000001</ele><time>2026-04-04T12:48:42.999Z</time></trkpt><trkpt lat="43.66967353867481" lon="11.214557982716093"><ele>109.80000000000001</ele><time>2026-04-04T12:48:44.999Z</time></trkpt><trkpt lat="43.66977970074578" lon="11.2145311513495"><ele>109.0</ele><time>2026-04-04T12:48:46.999Z</time></trkpt><trkpt lat="43.669891454897844" lon="11.214502144658114"><ele>109.0</ele><time>2026-04-04T12:48:48.999Z</time></trkpt><trkpt lat="43.66999855160353" lon="11.214480505913905"><ele>109.0</ele><time>2026-04-04T12:48:50.999Z</time></trkpt><trkpt lat="43.670110372758764" lon="11.214451555580807"><ele>109.0</ele><time>2026-04-04T12:48:52.999Z</time></trkpt><trkpt lat="43.670216655921024" lon="11.214429219345327"><ele>109.0</ele><time>2026-04-04T12:48:54.999Z</time></trkpt><trkpt lat="43.67033120831819" lon="11.214406052608737"><ele>109.0</ele><time>2026-04-04T12:48:56.999Z</time></trkpt><trkpt lat="43.67043929893535" lon="11.214387484317825"><ele>109.25</ele><time>2026-04-04T12:48:58.999Z</time></trkpt><trkpt lat="43.67055208905099" lon="11.214355398957267"><ele>109.5</ele><time>2026-04-04T12:49:00.999Z</time></trkpt><trkpt lat="43.67066975946645" lon="11.214342969466395"><ele>109.75</ele><time>2026-04-04T12:49:03Z</time></trkpt><trkpt lat="43.67078237263235" lon="11.214324316059615"><ele>110.0</ele><time>2026-04-04T12:49:05Z</time></trkpt><trkpt lat="43.670897493912975" lon="11.214305244428605"><ele>110.0</ele><time>2026-04-04T12:49:07Z</time></trkpt><trkpt lat="43.67101685964106" lon="11.214291611940462"><ele>110.0</ele><time>2026-04-04T12:49:09Z</time></trkpt><trkpt lat="43.67113286321132" lon="11.214261937389015"><ele>110.0</ele><time>2026-04-04T12:49:11Z</time></trkpt><trkpt lat="43.67125037863291" lon="11.214236026007876"><ele>110.0</ele><time>2026-04-04T12:49:13Z</time></trkpt><trkpt lat="43.671369276852936" lon="11.214206047579378"><ele>110.66666666666666</ele><time>2026-04-04T12:49:15Z</time></trkpt><trkpt lat="43.671434678237404" lon="11.214190851601103"><ele>111.33333333333333</ele><time>2026-04-04T12:49:16Z</time></trkpt><trkpt lat="43.67150140337083" lon="11.214177744367914"><ele>112.0</ele><time>2026-04-04T12:49:17Z</time></trkpt><trkpt lat="43.67156602775162" lon="11.21416280235546"><ele>112.66666666666666</ele><time>2026-04-04T12:49:18Z</time></trkpt><trkpt lat="43.67163334215003" lon="11.214146263622215"><ele>113.33333333333333</ele><time>2026-04-04T12:49:19Z</time></trkpt><trkpt lat="43.67170091740778" lon="11.21412944751172"><ele>114.0</ele><time>2026-04-04T12:49:20Z</time></trkpt><trkpt lat="43.67183010851402" lon="11.214078433818175"><ele>114.0</ele><time>2026-04-04T12:49:22Z</time></trkpt><trkpt lat="43.67190171976748" lon="11.214067350786914"><ele>113.99999999999999</ele><time>2026-04-04T12:49:23Z</time></trkpt><trkpt lat="43.67197360173682" lon="11.214044631617995"><ele>114.0</ele><time>2026-04-04T12:49:24Z</time></trkpt><trkpt lat="43.67204036682954" lon="11.214050864746444"><ele>114.0</ele><time>2026-04-04T12:49:25Z</time></trkpt><trkpt lat="43.67211822551578" lon="11.214035646647918"><ele>113.99999999999999</ele><time>2026-04-04T12:49:26Z</time></trkpt><trkpt lat="43.67219426073883" lon="11.214021985551277"><ele>114.0</ele><time>2026-04-04T12:49:27Z</time></trkpt><trkpt lat="43.67227141124702" lon="11.214025449788432"><ele>114.0</ele><time>2026-04-04T12:49:28Z</time></trkpt><trkpt lat="43.672344825118856" lon="11.214043902039588"><ele>113.16666666666667</ele><time>2026-04-04T12:49:29Z</time></trkpt><trkpt lat="43.67241940370471" lon="11.21408921282769"><ele>112.33333333333334</ele><time>2026-04-04T12:49:30Z</time></trkpt><trkpt lat="43.672489772946335" lon="11.214122899698987"><ele>111.5</ele><time>2026-04-04T12:49:31Z</time></trkpt><trkpt lat="43.672562695715214" lon="11.214157287470705"><ele>110.66666666666667</ele><time>2026-04-04T12:49:32Z</time></trkpt><trkpt lat="43.67262607607792" lon="11.214193538630747"><ele>109.83333333333334</ele><time>2026-04-04T12:49:33Z</time></trkpt><trkpt lat="43.672692762846715" lon="11.214237242667714"><ele>109.0</ele><time>2026-04-04T12:49:34Z</time></trkpt><trkpt lat="43.672763412856305" lon="11.214283646142313"><ele>108.42857142857143</ele><time>2026-04-04T12:49:35Z</time></trkpt><trkpt lat="43.67282895683521" lon="11.21433045134448"><ele>107.85714285714286</ele><time>2026-04-04T12:49:36Z</time></trkpt><trkpt lat="43.6728955618503" lon="11.214382906063419"><ele>107.28571428571428</ele><time>2026-04-04T12:49:37Z</time></trkpt><trkpt lat="43.67296023562232" lon="11.214435640557229"><ele>106.71428571428572</ele><time>2026-04-04T12:49:38Z</time></trkpt><trkpt lat="43.67301267294635" lon="11.214489874691186"><ele>106.14285714285714</ele><time>2026-04-04T12:49:39Z</time></trkpt><trkpt lat="43.67306977830825" lon="11.21456098044543"><ele>105.57142857142857</ele><time>2026-04-04T12:49:40Z</time></trkpt><trkpt lat="43.67311686892105" lon="11.21463773036738"><ele>105.0</ele><time>2026-04-04T12:49:41Z</time></trkpt><trkpt lat="43.67315880073955" lon="11.214722293742806"><ele>105.0</ele><time>2026-04-04T12:49:42Z</time></trkpt><trkpt lat="43.673195910884935" lon="11.214800760776676"><ele>105.0</ele><time>2026-04-04T12:49:43Z</time></trkpt><trkpt lat="43.67323355413114" lon="11.214875731743112"><ele>105.0</ele><time>2026-04-04T12:49:44Z</time></trkpt><trkpt lat="43.67327240377809" lon="11.214950657548657"><ele>105.0</ele><time>2026-04-04T12:49:45Z</time></trkpt><trkpt lat="43.67331586723864" lon="11.21502346317414"><ele>105.0</ele><time>2026-04-04T12:49:46Z</time></trkpt><trkpt lat="43.67336170072745" lon="11.215094333031475"><ele>105.0</ele><time>2026-04-04T12:49:47Z</time></trkpt><trkpt lat="43.67340308737023" lon="11.215163218390261"><ele>105.0</ele><time>2026-04-04T12:49:48Z</time></trkpt><trkpt lat="43.673447189233805" lon="11.215231458784546"><ele>105.0</ele><time>2026-04-04T12:49:49Z</time></trkpt><trkpt lat="43.67353632297412" lon="11.215351051109097"><ele>105.0</ele><time>2026-04-04T12:49:51Z</time></trkpt><trkpt lat="43.67358803832676" lon="11.215413726689185"><ele>105.0</ele><time>2026-04-04T12:49:52Z</time></trkpt><trkpt lat="43.673641350092346" lon="11.215472053159079"><ele>105.0</ele><time>2026-04-04T12:49:53Z</time></trkpt><trkpt lat="43.67369370670306" lon="11.215524480140935"><ele>105.0</ele><time>2026-04-04T12:49:53.999Z</time></trkpt><trkpt lat="43.67374912159137" lon="11.215574175765035"><ele>105.0</ele><time>2026-04-04T12:49:54.999Z</time></trkpt><trkpt lat="43.67385835823906" lon="11.215670831405307"><ele>105.0</ele><time>2026-04-04T12:49:56.999Z</time></trkpt><trkpt lat="43.673913370206904" lon="11.215716739839385"><ele>105.0</ele><time>2026-04-04T12:49:57.999Z</time></trkpt><trkpt lat="43.67397107807324" lon="11.215759360181575"><ele>105.0</ele><time>2026-04-04T12:49:58.999Z</time></trkpt><trkpt lat="43.674031320304735" lon="11.215796988905714"><ele>105.0</ele><time>2026-04-04T12:49:59.999Z</time></trkpt><trkpt lat="43.6741452022673" lon="11.21585937533228"><ele>105.0</ele><time>2026-04-04T12:50:01.999Z</time></trkpt><trkpt lat="43.67420688308181" lon="11.215886870526067"><ele>105.0</ele><time>2026-04-04T12:50:02.999Z</time></trkpt><trkpt lat="43.67432239706847" lon="11.21592549220489"><ele>105.0</ele><time>2026-04-04T12:50:04.999Z</time></trkpt><trkpt lat="43.67443548528032" lon="11.21596895694865"><ele>105.0</ele><time>2026-04-04T12:50:06.999Z</time></trkpt><trkpt lat="43.674547784366375" lon="11.215994510921782"><ele>105.0</ele><time>2026-04-04T12:50:08.999Z</time></trkpt><trkpt lat="43.674655545457966" lon="11.216010919951701"><ele>105.0</ele><time>2026-04-04T12:50:10.999Z</time></trkpt><trkpt lat="43.67476672770948" lon="11.215984546568286"><ele>105.8</ele><time>2026-04-04T12:50:12.999Z</time></trkpt><trkpt lat="43.67488007694359" lon="11.215948665804895"><ele>106.6</ele><time>2026-04-04T12:50:14.999Z</time></trkpt><trkpt lat="43.67499271909164" lon="11.215899308246245"><ele>107.4</ele><time>2026-04-04T12:50:16.999Z</time></trkpt><trkpt lat="43.6750937281859" lon="11.215861556019094"><ele>108.2</ele><time>2026-04-04T12:50:18.999Z</time></trkpt><trkpt lat="43.67518854452971" lon="11.215801850063805"><ele>109.0</ele><time>2026-04-04T12:50:20.999Z</time></trkpt><trkpt lat="43.67528333380754" lon="11.215730185231743"><ele>108.6</ele><time>2026-04-04T12:50:22.999Z</time></trkpt><trkpt lat="43.675367688401714" lon="11.21563756959406"><ele>108.2</ele><time>2026-04-04T12:50:24.999Z</time></trkpt><trkpt lat="43.6754635315494" lon="11.215562966113733"><ele>107.79999999999998</ele><time>2026-04-04T12:50:26.999Z</time></trkpt><trkpt lat="43.67555584644679" lon="11.21547673416031"><ele>107.39999999999999</ele><time>2026-04-04T12:50:28.999Z</time></trkpt><trkpt lat="43.675645517881904" lon="11.215372423119959"><ele>107.0</ele><time>2026-04-04T12:50:30.999Z</time></trkpt><trkpt lat="43.675734582634476" lon="11.21527137287659"><ele>107.0</ele><time>2026-04-04T12:50:32.999Z</time></trkpt><trkpt lat="43.67581649486358" lon="11.215151138174665"><ele>107.0</ele><time>2026-04-04T12:50:34.999Z</time></trkpt><trkpt lat="43.67589071564705" lon="11.21501527034453"><ele>107.0</ele><time>2026-04-04T12:50:36.999Z</time></trkpt><trkpt lat="43.67595718410951" lon="11.214870207292895"><ele>107.0</ele><time>2026-04-04T12:50:38.999Z</time></trkpt><trkpt lat="43.676017074679464" lon="11.214724242328053"><ele>106.25</ele><time>2026-04-04T12:50:40.999Z</time></trkpt><trkpt lat="43.67607198146873" lon="11.214569246478723"><ele>105.5</ele><time>2026-04-04T12:50:42.999Z</time></trkpt><trkpt lat="43.676119963340504" lon="11.214408344965564"><ele>104.75</ele><time>2026-04-04T12:50:44.999Z</time></trkpt><trkpt lat="43.676159405669125" lon="11.214244831763203"><ele>104.0</ele><time>2026-04-04T12:50:46.999Z</time></trkpt><trkpt lat="43.67618377451519" lon="11.214081894136854"><ele>104.0</ele><time>2026-04-04T12:50:48.999Z</time></trkpt><trkpt lat="43.67620324015165" lon="11.213931020408541"><ele>104.0</ele><time>2026-04-04T12:50:50.999Z</time></trkpt><trkpt lat="43.67621279764899" lon="11.213777922977616"><ele>104.0</ele><time>2026-04-04T12:50:52.999Z</time></trkpt><trkpt lat="43.676209265916754" lon="11.21362554083617"><ele>104.0</ele><time>2026-04-04T12:50:54.999Z</time></trkpt><trkpt lat="43.67615400762818" lon="11.213508345349851"><ele>104.0</ele><time>2026-04-04T12:50:56.999Z</time></trkpt><trkpt lat="43.67597302802908" lon="11.213576223390897"><ele>104.0</ele><time>2026-04-04T12:50:59.998Z</time></trkpt><trkpt lat="43.67590410940093" lon="11.213644043898466"><ele>104.0</ele><time>2026-04-04T12:51:00.998Z</time></trkpt><trkpt lat="43.67585627199003" lon="11.213772866970201"><ele>104.0</ele><time>2026-04-04T12:51:03.998Z</time></trkpt><trkpt lat="43.67578362355267" lon="11.213845681293307"><ele>104.0</ele><time>2026-04-04T12:51:05.998Z</time></trkpt><trkpt lat="43.67570424725411" lon="11.213906914143724"><ele>104.0</ele><time>2026-04-04T12:51:07.998Z</time></trkpt><trkpt lat="43.675631988761594" lon="11.213971236165335"><ele>103.99999999999999</ele><time>2026-04-04T12:51:10Z</time></trkpt><trkpt lat="43.67555449620371" lon="11.214033107096618"><ele>104.0</ele><time>2026-04-04T12:51:12Z</time></trkpt><trkpt lat="43.67550134901417" lon="11.214083408038116"><ele>104.0</ele><time>2026-04-04T12:51:14Z</time></trkpt><trkpt lat="43.675446222333015" lon="11.214160836379314"><ele>104.0</ele><time>2026-04-04T12:54:26.999Z</time></trkpt><trkpt lat="43.67538652046914" lon="11.214211647890822"><ele>103.99999999999999</ele><time>2026-04-04T12:54:29.999Z</time></trkpt><trkpt lat="43.6753094631328" lon="11.21426948775429"><ele>104.0</ele><time>2026-04-04T12:54:32.999Z</time></trkpt><trkpt lat="43.67523608947171" lon="11.21432121923855"><ele>104.71428571428571</ele><time>2026-04-04T12:54:35.999Z</time></trkpt><trkpt lat="43.67516388532404" lon="11.214358034993786"><ele>105.42857142857143</ele><time>2026-04-04T12:54:38.999Z</time></trkpt><trkpt lat="43.67509341506933" lon="11.214387733610847"><ele>106.14285714285714</ele><time>2026-04-04T12:54:41.999Z</time></trkpt><trkpt lat="43.67502539246019" lon="11.214403744901432"><ele>106.85714285714286</ele><time>2026-04-04T12:54:44.999Z</time></trkpt><trkpt lat="43.674957522207755" lon="11.214414170126034"><ele>107.57142857142858</ele><time>2026-04-04T12:54:47.999Z</time></trkpt><trkpt lat="43.674888871999954" lon="11.214415290820726"><ele>108.28571428571429</ele><time>2026-04-04T12:54:50.999Z</time></trkpt><trkpt lat="43.67481921263418" lon="11.214411024422008"><ele>109.0</ele><time>2026-04-04T12:54:53.998Z</time></trkpt><trkpt lat="43.67475328638111" lon="11.214391184758234"><ele>109.0</ele><time>2026-04-04T12:54:56.998Z</time></trkpt><trkpt lat="43.674682488675444" lon="11.214365587226212"><ele>109.0</ele><time>2026-04-04T12:54:59.998Z</time></trkpt><trkpt lat="43.67461617425242" lon="11.214333952038656"><ele>109.0</ele><time>2026-04-04T12:55:02.998Z</time></trkpt><trkpt lat="43.67455410542602" lon="11.214288471910546"><ele>109.0</ele><time>2026-04-04T12:55:05.998Z</time></trkpt><trkpt lat="43.67449065809264" lon="11.214245738840305"><ele>109.0</ele><time>2026-04-04T12:55:08.998Z</time></trkpt><trkpt lat="43.67443558345841" lon="11.21419421317697"><ele>109.0</ele><time>2026-04-04T12:55:11.998Z</time></trkpt><trkpt lat="43.67438513444234" lon="11.21413436368703"><ele>109.0</ele><time>2026-04-04T12:55:14.998Z</time></trkpt><trkpt lat="43.67433868936346" lon="11.214069187733505"><ele>108.85714285714286</ele><time>2026-04-04T12:55:17.998Z</time></trkpt><trkpt lat="43.674296621598444" lon="11.213992365651595"><ele>108.71428571428572</ele><time>2026-04-04T12:55:20.999Z</time></trkpt><trkpt lat="43.674260475510415" lon="11.213914374276209"><ele>108.57142857142857</ele><time>2026-04-04T12:55:23.999Z</time></trkpt><trkpt lat="43.674216287337" lon="11.2138356758776"><ele>108.42857142857143</ele><time>2026-04-04T12:55:26.999Z</time></trkpt><trkpt lat="43.67418298774077" lon="11.213761723921527"><ele>108.28571428571428</ele><time>2026-04-04T12:55:29.999Z</time></trkpt><trkpt lat="43.674147089217236" lon="11.213678077829886"><ele>108.14285714285714</ele><time>2026-04-04T12:55:32.999Z</time></trkpt><trkpt lat="43.674111822290364" lon="11.213604301248079"><ele>108.0</ele><time>2026-04-04T12:55:35.999Z</time></trkpt><trkpt lat="43.67408552684125" lon="11.213511688570076"><ele>110.28571428571428</ele><time>2026-04-04T12:55:38.999Z</time></trkpt><trkpt lat="43.67405345488961" lon="11.21343345643261"><ele>112.57142857142857</ele><time>2026-04-04T12:55:41.999Z</time></trkpt><trkpt lat="43.674022038452115" lon="11.213349254726564"><ele>114.85714285714286</ele><time>2026-04-04T12:55:44.999Z</time></trkpt><trkpt lat="43.67398928157706" lon="11.213267520908337"><ele>117.14285714285714</ele><time>2026-04-04T12:55:47.999Z</time></trkpt><trkpt lat="43.673965254190335" lon="11.213176790876807"><ele>119.42857142857144</ele><time>2026-04-04T12:55:50.999Z</time></trkpt><trkpt lat="43.67394029473412" lon="11.213090399231124"><ele>121.71428571428572</ele><time>2026-04-04T12:55:53.999Z</time></trkpt><trkpt lat="43.67391070181501" lon="11.213008405590875"><ele>124.0</ele><time>2026-04-04T12:55:56.999Z</time></trkpt><trkpt lat="43.67388610106379" lon="11.212926064580987"><ele>125.16666666666667</ele><time>2026-04-04T12:55:59.999Z</time></trkpt><trkpt lat="43.6738623790184" lon="11.21282741045572"><ele>126.33333333333334</ele><time>2026-04-04T12:56:03.999Z</time></trkpt><trkpt lat="43.67383109151782" lon="11.212723427207505"><ele>127.5</ele><time>2026-04-04T12:56:07.999Z</time></trkpt><trkpt lat="43.673802697403445" lon="11.21261476385367"><ele>128.66666666666666</ele><time>2026-04-04T12:56:11.999Z</time></trkpt><trkpt lat="43.67379559704199" lon="11.212525066242243"><ele>129.83333333333331</ele><time>2026-04-04T12:56:14.999Z</time></trkpt><trkpt lat="43.67379079496064" lon="11.212409471627941"><ele>131.0</ele><time>2026-04-04T12:56:18.999Z</time></trkpt><trkpt lat="43.67378311785209" lon="11.212320661233097"><ele>131.42857142857144</ele><time>2026-04-04T12:56:21.999Z</time></trkpt><trkpt lat="43.67378126796118" lon="11.212227833995097"><ele>131.85714285714286</ele><time>2026-04-04T12:56:24.999Z</time></trkpt><trkpt lat="43.673785075992946" lon="11.212139223988666"><ele>132.28571428571428</ele><time>2026-04-04T12:56:27.999Z</time></trkpt><trkpt lat="43.673777052692536" lon="11.212049854213879"><ele>132.71428571428572</ele><time>2026-04-04T12:56:30.999Z</time></trkpt><trkpt lat="43.67377139376591" lon="11.211961932820785"><ele>133.14285714285714</ele><time>2026-04-04T12:56:33.999Z</time></trkpt><trkpt lat="43.67375189428266" lon="11.211873756522603"><ele>133.57142857142858</ele><time>2026-04-04T12:56:36.999Z</time></trkpt><trkpt lat="43.67371567766807" lon="11.211771602577802"><ele>134.0</ele><time>2026-04-04T12:56:40.999Z</time></trkpt><trkpt lat="43.67368410896487" lon="11.211688089960978"><ele>134.0</ele><time>2026-04-04T12:56:43.999Z</time></trkpt><trkpt lat="43.673642689990935" lon="11.21161866277184"><ele>134.0</ele><time>2026-04-04T12:56:46.999Z</time></trkpt><trkpt lat="43.67359597803641" lon="11.211555550690301"><ele>134.0</ele><time>2026-04-04T12:56:49.999Z</time></trkpt><trkpt lat="43.67354805823982" lon="11.211493974118808"><ele>134.0</ele><time>2026-04-04T12:56:52.999Z</time></trkpt><trkpt lat="43.673477525867185" lon="11.211428959402866"><ele>134.0</ele><time>2026-04-04T12:56:56.999Z</time></trkpt><trkpt lat="43.673423535272946" lon="11.211379362878123"><ele>134.0</ele><time>2026-04-04T12:56:59.999Z</time></trkpt><trkpt lat="43.673374200953695" lon="11.211320224874061"><ele>134.0</ele><time>2026-04-04T12:57:02.999Z</time></trkpt><trkpt lat="43.673310679563215" lon="11.211251432579939"><ele>133.33333333333331</ele><time>2026-04-04T12:57:06.999Z</time></trkpt><trkpt lat="43.67324474895537" lon="11.21118210591823"><ele>132.66666666666666</ele><time>2026-04-04T12:57:10.999Z</time></trkpt><trkpt lat="43.67317684080555" lon="11.21112172453129"><ele>132.0</ele><time>2026-04-04T12:57:14.999Z</time></trkpt><trkpt lat="43.673106268036946" lon="11.211061138859737"><ele>131.33333333333334</ele><time>2026-04-04T12:57:18.999Z</time></trkpt><trkpt lat="43.67303588013501" lon="11.211009219740044"><ele>130.66666666666669</ele><time>2026-04-04T12:57:22.998Z</time></trkpt><trkpt lat="43.672956109512086" lon="11.210977059084733"><ele>130.0</ele><time>2026-04-04T12:57:26.999Z</time></trkpt><trkpt lat="43.67287937280125" lon="11.2109457091269"><ele>130.0</ele><time>2026-04-04T12:57:31Z</time></trkpt><trkpt lat="43.67280124363629" lon="11.21091021353743"><ele>130.0</ele><time>2026-04-04T12:57:35Z</time></trkpt><trkpt lat="43.67272238567535" lon="11.210881263333954"><ele>130.0</ele><time>2026-04-04T12:57:39Z</time></trkpt><trkpt lat="43.6726412918167" lon="11.21086044042958"><ele>130.0</ele><time>2026-04-04T12:57:43Z</time></trkpt><trkpt lat="43.67256418189697" lon="11.210848561332334"><ele>130.0</ele><time>2026-04-04T12:57:47Z</time></trkpt><trkpt lat="43.67248608048577" lon="11.210843540025634"><ele>130.0</ele><time>2026-04-04T12:57:51Z</time></trkpt><trkpt lat="43.67240665700768" lon="11.210839930016489"><ele>130.16666666666669</ele><time>2026-04-04T12:57:55Z</time></trkpt><trkpt lat="43.6723252741501" lon="11.210837918403065"><ele>130.33333333333334</ele><time>2026-04-04T12:57:59Z</time></trkpt><trkpt lat="43.6722463778965" lon="11.21084045564118"><ele>130.5</ele><time>2026-04-04T12:58:03Z</time></trkpt><trkpt lat="43.6721636863128" lon="11.210845779847913"><ele>130.66666666666666</ele><time>2026-04-04T12:58:07Z</time></trkpt><trkpt lat="43.67208333427089" lon="11.210858357233565"><ele>130.83333333333331</ele><time>2026-04-04T12:58:11Z</time></trkpt><trkpt lat="43.671998631480555" lon="11.210860342255291"><ele>131.0</ele><time>2026-04-04T12:58:15Z</time></trkpt><trkpt lat="43.671917591903" lon="11.210861000505687"><ele>132.14285714285714</ele><time>2026-04-04T12:58:19Z</time></trkpt><trkpt lat="43.671837148385436" lon="11.210875506934562"><ele>133.2857142857143</ele><time>2026-04-04T12:58:22.999Z</time></trkpt><trkpt lat="43.671772083611096" lon="11.210874024659518"><ele>134.42857142857144</ele><time>2026-04-04T12:58:25.999Z</time></trkpt><trkpt lat="43.67170863452677" lon="11.210872368757935"><ele>135.57142857142858</ele><time>2026-04-04T12:58:28.999Z</time></trkpt><trkpt lat="43.671643164873856" lon="11.210875833716392"><ele>136.71428571428572</ele><time>2026-04-04T12:58:31.999Z</time></trkpt><trkpt lat="43.671574257180346" lon="11.210886167910877"><ele>137.85714285714286</ele><time>2026-04-04T12:58:34.999Z</time></trkpt><trkpt lat="43.67150823623768" lon="11.210919632231807"><ele>139.0</ele><time>2026-04-04T12:58:37.999Z</time></trkpt><trkpt lat="43.671439946023675" lon="11.210954368963263"><ele>139.0</ele><time>2026-04-04T12:58:40.999Z</time></trkpt><trkpt lat="43.67137864576175" lon="11.21101229495051"><ele>139.0</ele><time>2026-04-04T12:58:43.999Z</time></trkpt><trkpt lat="43.67131548057924" lon="11.211083173414671"><ele>139.0</ele><time>2026-04-04T12:58:46.999Z</time></trkpt><trkpt lat="43.671262276533625" lon="11.211151710750814"><ele>139.0</ele><time>2026-04-04T12:58:49.999Z</time></trkpt><trkpt lat="43.67120729318446" lon="11.21123213111872"><ele>139.0</ele><time>2026-04-04T12:58:52.999Z</time></trkpt><trkpt lat="43.6711510735328" lon="11.211311147685542"><ele>139.0</ele><time>2026-04-04T12:58:55.999Z</time></trkpt><trkpt lat="43.67109682874744" lon="11.21137834887528"><ele>138.5</ele><time>2026-04-04T12:58:58.999Z</time></trkpt><trkpt lat="43.67104036066007" lon="11.21143185059674"><ele>138.0</ele><time>2026-04-04T12:59:01.999Z</time></trkpt><trkpt lat="43.67097903847597" lon="11.211458600663304"><ele>137.5</ele><time>2026-04-04T12:59:04.999Z</time></trkpt><trkpt lat="43.67089533285383" lon="11.211488307868299"><ele>137.0</ele><time>2026-04-04T12:59:08.999Z</time></trkpt><trkpt lat="43.670811156448984" lon="11.211491921971879"><ele>136.5</ele><time>2026-04-04T12:59:12.999Z</time></trkpt><trkpt lat="43.67074329645467" lon="11.211489852386118"><ele>136.0</ele><time>2026-04-04T12:59:15.999Z</time></trkpt><trkpt lat="43.67065834749117" lon="11.211462080829017"><ele>137.14285714285714</ele><time>2026-04-04T12:59:19.999Z</time></trkpt><trkpt lat="43.67059380888513" lon="11.211435641679245"><ele>138.28571428571428</ele><time>2026-04-04T12:59:22.999Z</time></trkpt><trkpt lat="43.6705309079283" lon="11.211409582167134"><ele>139.42857142857144</ele><time>2026-04-04T12:59:25.999Z</time></trkpt><trkpt lat="43.6704642474081" lon="11.211388573666081"><ele>140.57142857142856</ele><time>2026-04-04T12:59:28.999Z</time></trkpt><trkpt lat="43.67040257249005" lon="11.211362465969955"><ele>141.71428571428572</ele><time>2026-04-04T12:59:32Z</time></trkpt><trkpt lat="43.670338131911436" lon="11.21133647881945"><ele>142.85714285714286</ele><time>2026-04-04T12:59:35Z</time></trkpt><trkpt lat="43.67027405807138" lon="11.21131126155572"><ele>144.0</ele><time>2026-04-04T12:59:38Z</time></trkpt><trkpt lat="43.67021043710422" lon="11.211273302930197"><ele>144.00000000000003</ele><time>2026-04-04T12:59:41Z</time></trkpt><trkpt lat="43.67014879408065" lon="11.211234619402346"><ele>144.0</ele><time>2026-04-04T12:59:44Z</time></trkpt><trkpt lat="43.67008771600427" lon="11.211196078817128"><ele>144.0</ele><time>2026-04-04T12:59:47Z</time></trkpt><trkpt lat="43.67003137118502" lon="11.211154723511058"><ele>144.0</ele><time>2026-04-04T12:59:50Z</time></trkpt><trkpt lat="43.66997500859196" lon="11.211107297959892"><ele>144.0</ele><time>2026-04-04T12:59:53Z</time></trkpt><trkpt lat="43.669919567314444" lon="11.211061828400968"><ele>144.00000000000003</ele><time>2026-04-04T12:59:56Z</time></trkpt><trkpt lat="43.66986618215962" lon="11.211012470247327"><ele>144.0</ele><time>2026-04-04T12:59:59Z</time></trkpt><trkpt lat="43.66980857802144" lon="11.21096165588207"><ele>144.00000000000003</ele><time>2026-04-04T13:00:02Z</time></trkpt><trkpt lat="43.669758073582514" lon="11.210908396640892"><ele>144.0</ele><time>2026-04-04T13:00:05Z</time></trkpt><trkpt lat="43.669702457845574" lon="11.2108603041645"><ele>144.0</ele><time>2026-04-04T13:00:08Z</time></trkpt><trkpt lat="43.669651414981445" lon="11.210808213905466"><ele>144.0</ele><time>2026-04-04T13:00:11Z</time></trkpt><trkpt lat="43.669596299025656" lon="11.210759987048354"><ele>144.0</ele><time>2026-04-04T13:00:14Z</time></trkpt><trkpt lat="43.66954203640843" lon="11.210697638339122"><ele>144.00000000000003</ele><time>2026-04-04T13:00:17Z</time></trkpt><trkpt lat="43.66948843542249" lon="11.21064822002231"><ele>144.0</ele><time>2026-04-04T13:00:20Z</time></trkpt><trkpt lat="43.669434335271724" lon="11.210594657458232"><ele>145.57142857142858</ele><time>2026-04-04T13:00:23Z</time></trkpt><trkpt lat="43.669379159989106" lon="11.210541222019502"><ele>147.14285714285714</ele><time>2026-04-04T13:00:26Z</time></trkpt><trkpt lat="43.669310586133356" lon="11.210478926997148"><ele>148.71428571428572</ele><time>2026-04-04T13:00:30Z</time></trkpt><trkpt lat="43.66925331256098" lon="11.210430838641923"><ele>150.28571428571428</ele><time>2026-04-04T13:00:33Z</time></trkpt><trkpt lat="43.66919329372184" lon="11.210384966523403"><ele>151.85714285714286</ele><time>2026-04-04T13:00:36Z</time></trkpt><trkpt lat="43.66913156302125" lon="11.210338288716589"><ele>153.42857142857144</ele><time>2026-04-04T13:00:39Z</time></trkpt><trkpt lat="43.669069290505355" lon="11.21030709800004"><ele>155.0</ele><time>2026-04-04T13:00:42Z</time></trkpt><trkpt lat="43.669009305479534" lon="11.210265695090118"><ele>155.0</ele><time>2026-04-04T13:00:45Z</time></trkpt><trkpt lat="43.668926911234806" lon="11.21023040982617"><ele>155.0</ele><time>2026-04-04T13:00:49Z</time></trkpt><trkpt lat="43.66884875413671" lon="11.210177181789375"><ele>155.0</ele><time>2026-04-04T13:00:53Z</time></trkpt><trkpt lat="43.668786076981704" lon="11.210167364605221"><ele>155.0</ele><time>2026-04-04T13:00:56Z</time></trkpt><trkpt lat="43.66871689852135" lon="11.21014910190361"><ele>155.0</ele><time>2026-04-04T13:00:58.999Z</time></trkpt><trkpt lat="43.66865175497848" lon="11.21013815653423"><ele>155.0</ele><time>2026-04-04T13:01:01.999Z</time></trkpt><trkpt lat="43.668582167642334" lon="11.210125062546751"><ele>155.0</ele><time>2026-04-04T13:01:04.999Z</time></trkpt><trkpt lat="43.668512608666724" lon="11.21012188419381"><ele>155.14285714285714</ele><time>2026-04-04T13:01:07.999Z</time></trkpt><trkpt lat="43.668441366599886" lon="11.210113126016548"><ele>155.28571428571428</ele><time>2026-04-04T13:01:10.999Z</time></trkpt><trkpt lat="43.668373535478146" lon="11.210106944545487"><ele>155.42857142857144</ele><time>2026-04-04T13:01:13.999Z</time></trkpt><trkpt lat="43.66830312264132" lon="11.21009903066705"><ele>155.57142857142856</ele><time>2026-04-04T13:01:16.999Z</time></trkpt><trkpt lat="43.66823578701215" lon="11.210095662229074"><ele>155.7142857142857</ele><time>2026-04-04T13:01:19.999Z</time></trkpt><trkpt lat="43.66816987169527" lon="11.210093134699052"><ele>155.85714285714286</ele><time>2026-04-04T13:01:22.999Z</time></trkpt><trkpt lat="43.66810673474194" lon="11.21009077489573"><ele>156.0</ele><time>2026-04-04T13:01:25.999Z</time></trkpt><trkpt lat="43.66803534900976" lon="11.210086697297932"><ele>156.0</ele><time>2026-04-04T13:01:28.999Z</time></trkpt><trkpt lat="43.667947016341344" lon="11.210078256401546"><ele>156.0</ele><time>2026-04-04T13:01:32.999Z</time></trkpt><trkpt lat="43.667879532902155" lon="11.210076586892361"><ele>156.0</ele><time>2026-04-04T13:01:35.999Z</time></trkpt><trkpt lat="43.667810767637334" lon="11.210073903109388"><ele>156.0</ele><time>2026-04-04T13:01:39Z</time></trkpt><trkpt lat="43.667743351424505" lon="11.210070602407184"><ele>156.0</ele><time>2026-04-04T13:01:42Z</time></trkpt><trkpt lat="43.667671687293534" lon="11.210071454225186"><ele>156.0</ele><time>2026-04-04T13:01:45Z</time></trkpt><trkpt lat="43.667600786531914" lon="11.210060336065647"><ele>156.0</ele><time>2026-04-04T13:01:48Z</time></trkpt><trkpt lat="43.66752986567216" lon="11.210062603642497"><ele>156.33333333333334</ele><time>2026-04-04T13:01:51Z</time></trkpt><trkpt lat="43.66745915181915" lon="11.210041527383884"><ele>156.66666666666666</ele><time>2026-04-04T13:01:54Z</time></trkpt><trkpt lat="43.667394977739356" lon="11.20999223809369"><ele>157.0</ele><time>2026-04-04T13:01:57Z</time></trkpt><trkpt lat="43.66733985375949" lon="11.209928511464172"><ele>157.33333333333331</ele><time>2026-04-04T13:02:00Z</time></trkpt><trkpt lat="43.6672910064763" lon="11.209858823266865"><ele>157.66666666666666</ele><time>2026-04-04T13:02:03Z</time></trkpt><trkpt lat="43.66726036107574" lon="11.209755068377802"><ele>158.0</ele><time>2026-04-04T13:02:07Z</time></trkpt><trkpt lat="43.66725167847713" lon="11.209643113627592"><ele>159.83333333333331</ele><time>2026-04-04T13:02:11Z</time></trkpt><trkpt lat="43.66727466739663" lon="11.20950125758184"><ele>161.66666666666666</ele><time>2026-04-04T13:02:15Z</time></trkpt><trkpt lat="43.6673162765875" lon="11.20939845759077"><ele>163.5</ele><time>2026-04-04T13:02:19Z</time></trkpt><trkpt lat="43.66735394252295" lon="11.209313545164537"><ele>165.33333333333334</ele><time>2026-04-04T13:02:22Z</time></trkpt><trkpt lat="43.667406350882075" lon="11.209228528562107"><ele>167.16666666666669</ele><time>2026-04-04T13:02:26Z</time></trkpt><trkpt lat="43.66746718419523" lon="11.20915536655735"><ele>169.0</ele><time>2026-04-04T13:02:30Z</time></trkpt><trkpt lat="43.66753010875493" lon="11.20908821130952"><ele>169.0</ele><time>2026-04-04T13:02:34Z</time></trkpt><trkpt lat="43.66758826139151" lon="11.209020127139896"><ele>169.0</ele><time>2026-04-04T13:02:38Z</time></trkpt><trkpt lat="43.66764228016728" lon="11.208958010379984"><ele>169.0</ele><time>2026-04-04T13:02:42Z</time></trkpt><trkpt lat="43.66770468108167" lon="11.208903189721035"><ele>169.0</ele><time>2026-04-04T13:02:46Z</time></trkpt><trkpt lat="43.667766358679096" lon="11.208846797604203"><ele>169.0</ele><time>2026-04-04T13:02:49.999Z</time></trkpt><trkpt lat="43.667832985909726" lon="11.208789642376807"><ele>169.0</ele><time>2026-04-04T13:02:53.999Z</time></trkpt><trkpt lat="43.66790262878182" lon="11.20873736781361"><ele>168.83333333333334</ele><time>2026-04-04T13:02:57.999Z</time></trkpt><trkpt lat="43.66797072664586" lon="11.208681478974569"><ele>168.66666666666669</ele><time>2026-04-04T13:03:01.999Z</time></trkpt><trkpt lat="43.668042238306164" lon="11.208631391951917"><ele>168.5</ele><time>2026-04-04T13:03:05.999Z</time></trkpt><trkpt lat="43.66811870601257" lon="11.208582195323116"><ele>168.33333333333334</ele><time>2026-04-04T13:03:09.999Z</time></trkpt><trkpt lat="43.6681936153424" lon="11.20854006836325"><ele>168.16666666666666</ele><time>2026-04-04T13:03:13.999Z</time></trkpt><trkpt lat="43.668253677138075" lon="11.208513258780119"><ele>168.0</ele><time>2026-04-04T13:03:16.999Z</time></trkpt><trkpt lat="43.668315175394085" lon="11.208494280252733"><ele>168.0</ele><time>2026-04-04T13:03:19.999Z</time></trkpt><trkpt lat="43.668380626164854" lon="11.208470234770303"><ele>168.0</ele><time>2026-04-04T13:03:22.999Z</time></trkpt><trkpt lat="43.668446851351185" lon="11.208444315198394"><ele>168.0</ele><time>2026-04-04T13:03:25.999Z</time></trkpt><trkpt lat="43.66851918603198" lon="11.208423714156279"><ele>168.0</ele><time>2026-04-04T13:03:28.999Z</time></trkpt><trkpt lat="43.668590465181495" lon="11.2083983160429"><ele>168.0</ele><time>2026-04-04T13:03:31.999Z</time></trkpt><trkpt lat="43.66866503339596" lon="11.208382723469363"><ele>168.0</ele><time>2026-04-04T13:03:34.999Z</time></trkpt><trkpt lat="43.668736408379566" lon="11.2083579495385"><ele>168.0</ele><time>2026-04-04T13:03:37.999Z</time></trkpt><trkpt lat="43.668809973563015" lon="11.208347729696493"><ele>168.14285714285714</ele><time>2026-04-04T13:03:40.999Z</time></trkpt><trkpt lat="43.66888725998855" lon="11.208343273151767"><ele>168.28571428571428</ele><time>2026-04-04T13:03:44Z</time></trkpt><trkpt lat="43.66895163996807" lon="11.208311457691027"><ele>168.42857142857144</ele><time>2026-04-04T13:03:47Z</time></trkpt><trkpt lat="43.669021105554194" lon="11.208283519945672"><ele>168.57142857142856</ele><time>2026-04-04T13:03:50Z</time></trkpt><trkpt lat="43.66908909023214" lon="11.208262567984335"><ele>168.71428571428572</ele><time>2026-04-04T13:03:53Z</time></trkpt><trkpt lat="43.669162055209824" lon="11.20825636411205"><ele>168.85714285714286</ele><time>2026-04-04T13:03:56Z</time></trkpt><trkpt lat="43.669232404986516" lon="11.20824272134726"><ele>169.0</ele><time>2026-04-04T13:03:59Z</time></trkpt><trkpt lat="43.66930479783464" lon="11.20822429832372"><ele>169.0</ele><time>2026-04-04T13:04:02Z</time></trkpt><trkpt lat="43.669377083309534" lon="11.208207591983575"><ele>169.0</ele><time>2026-04-04T13:04:05Z</time></trkpt><trkpt lat="43.669448844456205" lon="11.208189542547307"><ele>169.0</ele><time>2026-04-04T13:04:08Z</time></trkpt><trkpt lat="43.66952006101958" lon="11.208169323102945"><ele>169.0</ele><time>2026-04-04T13:04:11Z</time></trkpt><trkpt lat="43.669595245069424" lon="11.208149221025574"><ele>169.0</ele><time>2026-04-04T13:04:14Z</time></trkpt><trkpt lat="43.66966991463854" lon="11.20812912727819"><ele>169.0</ele><time>2026-04-04T13:04:17Z</time></trkpt><trkpt lat="43.66974541918676" lon="11.208108576917725"><ele>169.0</ele><time>2026-04-04T13:04:20Z</time></trkpt><trkpt lat="43.66981580718232" lon="11.208084711966597"><ele>169.57142857142858</ele><time>2026-04-04T13:04:23Z</time></trkpt><trkpt lat="43.66988853758878" lon="11.208062741062289"><ele>170.14285714285714</ele><time>2026-04-04T13:04:26Z</time></trkpt><trkpt lat="43.66995677907167" lon="11.208040568373223"><ele>170.71428571428572</ele><time>2026-04-04T13:04:29Z</time></trkpt><trkpt lat="43.67002651287129" lon="11.208014556875085"><ele>171.28571428571428</ele><time>2026-04-04T13:04:32Z</time></trkpt><trkpt lat="43.67009390503233" lon="11.207985529694799"><ele>171.85714285714286</ele><time>2026-04-04T13:04:35Z</time></trkpt><trkpt lat="43.67016553179855" lon="11.207952556183502"><ele>172.42857142857142</ele><time>2026-04-04T13:04:38Z</time></trkpt><trkpt lat="43.67022996577853" lon="11.2079188608666"><ele>173.0</ele><time>2026-04-04T13:04:40.999Z</time></trkpt><trkpt lat="43.67028979723109" lon="11.207876630524785"><ele>174.28571428571428</ele><time>2026-04-04T13:04:43.999Z</time></trkpt><trkpt lat="43.67033740537907" lon="11.207818090388772"><ele>175.57142857142858</ele><time>2026-04-04T13:04:46.999Z</time></trkpt><trkpt lat="43.670388185589346" lon="11.207758239159373"><ele>176.85714285714286</ele><time>2026-04-04T13:04:49.999Z</time></trkpt><trkpt lat="43.670428534375674" lon="11.20768930669321"><ele>178.14285714285714</ele><time>2026-04-04T13:04:52.999Z</time></trkpt><trkpt lat="43.670463463282225" lon="11.20761544248054"><ele>179.42857142857144</ele><time>2026-04-04T13:04:55.999Z</time></trkpt><trkpt lat="43.67050171281557" lon="11.207514038451075"><ele>180.71428571428572</ele><time>2026-04-04T13:04:59.999Z</time></trkpt><trkpt lat="43.67052138189801" lon="11.20743126009755"><ele>182.0</ele><time>2026-04-04T13:05:02.999Z</time></trkpt><trkpt lat="43.670531320790126" lon="11.207344434389347"><ele>183.5</ele><time>2026-04-04T13:05:05.999Z</time></trkpt><trkpt lat="43.67053290986843" lon="11.207229547876102"><ele>185.0</ele><time>2026-04-04T13:05:09.999Z</time></trkpt><trkpt lat="43.670525357614615" lon="11.207121602956477"><ele>186.5</ele><time>2026-04-04T13:05:13.999Z</time></trkpt><trkpt lat="43.67050128749121" lon="11.20702844067817"><ele>188.0</ele><time>2026-04-04T13:05:17.999Z</time></trkpt><trkpt lat="43.67046141252348" lon="11.206928186736366"><ele>189.5</ele><time>2026-04-04T13:05:21.999Z</time></trkpt><trkpt lat="43.67040239503446" lon="11.206846960082284"><ele>191.0</ele><time>2026-04-04T13:05:25.999Z</time></trkpt><trkpt lat="43.67033185495794" lon="11.206787471936323"><ele>189.57142857142858</ele><time>2026-04-04T13:05:29.999Z</time></trkpt><trkpt lat="43.67027164243586" lon="11.206745493296923"><ele>188.14285714285714</ele><time>2026-04-04T13:05:32.999Z</time></trkpt><trkpt lat="43.67019639906071" lon="11.20669612462648"><ele>186.71428571428572</ele><time>2026-04-04T13:05:36.999Z</time></trkpt><trkpt lat="43.67013583337275" lon="11.206653605991574"><ele>185.28571428571428</ele><time>2026-04-04T13:05:39.999Z</time></trkpt><trkpt lat="43.67006695627396" lon="11.206623633205623"><ele>183.85714285714283</ele><time>2026-04-04T13:05:42.999Z</time></trkpt><trkpt lat="43.66999870103272" lon="11.206595708831605"><ele>182.42857142857142</ele><time>2026-04-04T13:05:45.999Z</time></trkpt><trkpt lat="43.66993842487739" lon="11.206563623237413"><ele>181.0</ele><time>2026-04-04T13:05:48.999Z</time></trkpt><trkpt lat="43.66987032145636" lon="11.206543255687322"><ele>181.0</ele><time>2026-04-04T13:05:52Z</time></trkpt><trkpt lat="43.669808128724085" lon="11.20651734232872"><ele>181.0</ele><time>2026-04-04T13:05:55Z</time></trkpt><trkpt lat="43.66974724684904" lon="11.206494777615044"><ele>181.0</ele><time>2026-04-04T13:05:58Z</time></trkpt><trkpt lat="43.669681615903315" lon="11.206472122287035"><ele>181.0</ele><time>2026-04-04T13:06:01Z</time></trkpt><trkpt lat="43.66961850041966" lon="11.206451246975465"><ele>181.0</ele><time>2026-04-04T13:06:04Z</time></trkpt><trkpt lat="43.669556406138206" lon="11.206431427431301"><ele>181.0</ele><time>2026-04-04T13:06:07Z</time></trkpt><trkpt lat="43.6694949118463" lon="11.206404895011524"><ele>181.0</ele><time>2026-04-04T13:06:10Z</time></trkpt><trkpt lat="43.669428368777396" lon="11.206382373493835"><ele>182.66666666666669</ele><time>2026-04-04T13:06:13Z</time></trkpt><trkpt lat="43.66934550959349" lon="11.206359638905246"><ele>184.33333333333334</ele><time>2026-04-04T13:06:17Z</time></trkpt><trkpt lat="43.66928129076394" lon="11.206340689989824"><ele>186.0</ele><time>2026-04-04T13:06:20Z</time></trkpt><trkpt lat="43.66921785770808" lon="11.206323795793837"><ele>187.66666666666666</ele><time>2026-04-04T13:06:23Z</time></trkpt><trkpt lat="43.66913884584247" lon="11.206296872611892"><ele>189.33333333333331</ele><time>2026-04-04T13:06:27Z</time></trkpt><trkpt lat="43.66906001520401" lon="11.206270088923015"><ele>191.0</ele><time>2026-04-04T13:06:31Z</time></trkpt><trkpt lat="43.668981146509296" lon="11.206248542176722"><ele>191.0</ele><time>2026-04-04T13:06:35Z</time></trkpt><trkpt lat="43.66890298733158" lon="11.206225728154541"><ele>191.0</ele><time>2026-04-04T13:06:39Z</time></trkpt><trkpt lat="43.66882534860987" lon="11.206205263250755"><ele>191.0</ele><time>2026-04-04T13:06:43Z</time></trkpt><trkpt lat="43.668762751652565" lon="11.206189760156525"><ele>191.0</ele><time>2026-04-04T13:06:46Z</time></trkpt><trkpt lat="43.66868547715905" lon="11.206178125039898"><ele>191.0</ele><time>2026-04-04T13:06:50Z</time></trkpt><trkpt lat="43.668610054122475" lon="11.206170621872474"><ele>191.0</ele><time>2026-04-04T13:06:54Z</time></trkpt><trkpt lat="43.6685322755774" lon="11.206168220427239"><ele>192.0</ele><time>2026-04-04T13:06:58Z</time></trkpt><trkpt lat="43.66845321819785" lon="11.206177632524062"><ele>193.0</ele><time>2026-04-04T13:07:02Z</time></trkpt><trkpt lat="43.66837695411319" lon="11.206183328250306"><ele>194.0</ele><time>2026-04-04T13:07:06Z</time></trkpt><trkpt lat="43.66829851515168" lon="11.206200302600516"><ele>195.0</ele><time>2026-04-04T13:07:10Z</time></trkpt><trkpt lat="43.66822830332045" lon="11.206227723093098"><ele>196.00000000000003</ele><time>2026-04-04T13:07:14Z</time></trkpt><trkpt lat="43.668154466375924" lon="11.206253216814568"><ele>197.0</ele><time>2026-04-04T13:07:17.999Z</time></trkpt><trkpt lat="43.66807778562229" lon="11.206273469530863"><ele>197.00000000000003</ele><time>2026-04-04T13:07:21.999Z</time></trkpt><trkpt lat="43.66800201707389" lon="11.206299380302791"><ele>197.0</ele><time>2026-04-04T13:07:25.999Z</time></trkpt><trkpt lat="43.667923621684174" lon="11.206323987665153"><ele>197.0</ele><time>2026-04-04T13:07:29.999Z</time></trkpt><trkpt lat="43.66784707308892" lon="11.206346730884011"><ele>197.0</ele><time>2026-04-04T13:07:33.999Z</time></trkpt><trkpt lat="43.667770271324336" lon="11.206369592553953"><ele>197.00000000000003</ele><time>2026-04-04T13:07:37.999Z</time></trkpt><trkpt lat="43.667688473964965" lon="11.206392531403159"><ele>197.0</ele><time>2026-04-04T13:07:41.999Z</time></trkpt><trkpt lat="43.66760996991796" lon="11.206418000089272"><ele>196.33333333333334</ele><time>2026-04-04T13:07:45.999Z</time></trkpt><trkpt lat="43.667534289293975" lon="11.206439042099008"><ele>195.66666666666669</ele><time>2026-04-04T13:07:49.999Z</time></trkpt><trkpt lat="43.66745878654606" lon="11.206466298954076"><ele>195.0</ele><time>2026-04-04T13:07:53.999Z</time></trkpt><trkpt lat="43.66738075438196" lon="11.206492690046806"><ele>194.33333333333331</ele><time>2026-04-04T13:07:58.001Z</time></trkpt><trkpt lat="43.66730944894507" lon="11.206524147011878"><ele>193.66666666666666</ele><time>2026-04-04T13:08:02.001Z</time></trkpt><trkpt lat="43.667235734327576" lon="11.206559084763892"><ele>193.0</ele><time>2026-04-04T13:08:06.001Z</time></trkpt><trkpt lat="43.66716579290358" lon="11.206604677995212"><ele>193.00000000000003</ele><time>2026-04-04T13:08:10.001Z</time></trkpt><trkpt lat="43.66709469263395" lon="11.2066504751533"><ele>193.0</ele><time>2026-04-04T13:08:14.001Z</time></trkpt><trkpt lat="43.66702991460458" lon="11.206713174345989"><ele>193.0</ele><time>2026-04-04T13:08:18Z</time></trkpt><trkpt lat="43.66695943536792" lon="11.206776212896218"><ele>193.0</ele><time>2026-04-04T13:08:22Z</time></trkpt><trkpt lat="43.66691079627139" lon="11.20683282780556"><ele>193.0</ele><time>2026-04-04T13:08:25Z</time></trkpt><trkpt lat="43.66685671872209" lon="11.206888735407391"><ele>193.00000000000003</ele><time>2026-04-04T13:08:28Z</time></trkpt><trkpt lat="43.66680588303183" lon="11.206944488364064"><ele>193.0</ele><time>2026-04-04T13:08:31Z</time></trkpt><trkpt lat="43.66674190790072" lon="11.207021636072952"><ele>193.57142857142858</ele><time>2026-04-04T13:08:35Z</time></trkpt><trkpt lat="43.6666807089703" lon="11.207094914313043"><ele>194.14285714285714</ele><time>2026-04-04T13:08:39Z</time></trkpt><trkpt lat="43.66661220233275" lon="11.207161109268844"><ele>194.71428571428572</ele><time>2026-04-04T13:08:43Z</time></trkpt><trkpt lat="43.66656058077887" lon="11.207217244387138"><ele>195.28571428571428</ele><time>2026-04-04T13:08:46Z</time></trkpt><trkpt lat="43.66650585638419" lon="11.207285089756287"><ele>195.85714285714286</ele><time>2026-04-04T13:08:49Z</time></trkpt><trkpt lat="43.66645400101845" lon="11.207335043996322"><ele>196.42857142857144</ele><time>2026-04-04T13:08:52Z</time></trkpt><trkpt lat="43.66640299744167" lon="11.20739290391477"><ele>197.0</ele><time>2026-04-04T13:08:55Z</time></trkpt><trkpt lat="43.666349692649426" lon="11.207445051076105"><ele>197.00000000000003</ele><time>2026-04-04T13:08:58Z</time></trkpt><trkpt lat="43.66628288459799" lon="11.207498766665523"><ele>197.0</ele><time>2026-04-04T13:09:01Z</time></trkpt><trkpt lat="43.66622364014936" lon="11.20754370790577"><ele>197.0</ele><time>2026-04-04T13:09:04Z</time></trkpt><trkpt lat="43.66616019998943" lon="11.207570345157045"><ele>197.0</ele><time>2026-04-04T13:09:07Z</time></trkpt><trkpt lat="43.6660807190722" lon="11.207586356920391"><ele>197.00000000000003</ele><time>2026-04-04T13:09:11Z</time></trkpt><trkpt lat="43.666001001116506" lon="11.20758134899697"><ele>197.0</ele><time>2026-04-04T13:09:15Z</time></trkpt><trkpt lat="43.66592047704337" lon="11.207563037783578"><ele>198.28571428571428</ele><time>2026-04-04T13:09:19Z</time></trkpt><trkpt lat="43.66586164090918" lon="11.207528388393133"><ele>199.57142857142858</ele><time>2026-04-04T13:09:22Z</time></trkpt><trkpt lat="43.66580620812169" lon="11.207475659072035"><ele>200.85714285714283</ele><time>2026-04-04T13:09:25Z</time></trkpt><trkpt lat="43.66575342316464" lon="11.207409843665722"><ele>202.14285714285714</ele><time>2026-04-04T13:09:27.999Z</time></trkpt><trkpt lat="43.66571107188038" lon="11.207331443188492"><ele>203.42857142857142</ele><time>2026-04-04T13:09:30.999Z</time></trkpt><trkpt lat="43.665679117226155" lon="11.207252527628269"><ele>204.7142857142857</ele><time>2026-04-04T13:09:33.999Z</time></trkpt><trkpt lat="43.6656498494273" lon="11.207146978453789"><ele>206.0</ele><time>2026-04-04T13:09:37.999Z</time></trkpt><trkpt lat="43.665631316452846" lon="11.207035178116623"><ele>206.99999999999997</ele><time>2026-04-04T13:09:41.999Z</time></trkpt><trkpt lat="43.66562632167583" lon="11.206920745443568"><ele>208.0</ele><time>2026-04-04T13:09:45.999Z</time></trkpt><trkpt lat="43.66561705918853" lon="11.206830920266407"><ele>209.0</ele><time>2026-04-04T13:09:48.999Z</time></trkpt><trkpt lat="43.665609019274854" lon="11.206739758356775"><ele>210.0</ele><time>2026-04-04T13:09:51.999Z</time></trkpt><trkpt lat="43.66559600502915" lon="11.20665261643826"><ele>211.0</ele><time>2026-04-04T13:09:54.999Z</time></trkpt><trkpt lat="43.66558946786367" lon="11.206562737146381"><ele>211.99999999999997</ele><time>2026-04-04T13:09:57.999Z</time></trkpt><trkpt lat="43.665585433892815" lon="11.206468630022592"><ele>213.0</ele><time>2026-04-04T13:10:00.999Z</time></trkpt><trkpt lat="43.66558230378574" lon="11.206378467731653"><ele>214.28571428571428</ele><time>2026-04-04T13:10:04.001Z</time></trkpt><trkpt lat="43.665577173646646" lon="11.206285654902674"><ele>215.57142857142856</ele><time>2026-04-04T13:10:07.001Z</time></trkpt><trkpt lat="43.66557172197815" lon="11.206196719506986"><ele>216.85714285714283</ele><time>2026-04-04T13:10:10Z</time></trkpt><trkpt lat="43.66557390654643" lon="11.206108226787194"><ele>218.14285714285714</ele><time>2026-04-04T13:10:13Z</time></trkpt><trkpt lat="43.66557317229836" lon="11.206017008266874"><ele>219.42857142857144</ele><time>2026-04-04T13:10:16Z</time></trkpt><trkpt lat="43.6655727673441" lon="11.205924374195975"><ele>220.7142857142857</ele><time>2026-04-04T13:10:19Z</time></trkpt><trkpt lat="43.665577848069816" lon="11.205834521433333"><ele>222.0</ele><time>2026-04-04T13:10:22Z</time></trkpt><trkpt lat="43.66558976402356" lon="11.205738395952388"><ele>222.83333333333334</ele><time>2026-04-04T13:10:25Z</time></trkpt><trkpt lat="43.66560718386815" lon="11.205634113583761"><ele>223.66666666666669</ele><time>2026-04-04T13:10:28Z</time></trkpt><trkpt lat="43.66562617245921" lon="11.20552986281645"><ele>224.5</ele><time>2026-04-04T13:10:31Z</time></trkpt><trkpt lat="43.66562526303577" lon="11.205442780285678"><ele>225.33333333333334</ele><time>2026-04-04T13:10:33Z</time></trkpt><trkpt lat="43.665656002989614" lon="11.205332383509464"><ele>226.16666666666669</ele><time>2026-04-04T13:10:36Z</time></trkpt><trkpt lat="43.66566469736191" lon="11.205223285015656"><ele>227.0</ele><time>2026-04-04T13:10:39Z</time></trkpt><trkpt lat="43.6656762756056" lon="11.205130092112292"><ele>227.00000000000003</ele><time>2026-04-04T13:10:42Z</time></trkpt><trkpt lat="43.66568387535443" lon="11.205041177725635"><ele>227.0</ele><time>2026-04-04T13:10:45Z</time></trkpt><trkpt lat="43.66567400651672" lon="11.204926532484885"><ele>227.0</ele><time>2026-04-04T13:10:49Z</time></trkpt><trkpt lat="43.66567811767063" lon="11.204814748889387"><ele>227.0</ele><time>2026-04-04T13:10:53Z</time></trkpt><trkpt lat="43.66567058157904" lon="11.204727263209955"><ele>227.00000000000003</ele><time>2026-04-04T13:10:56Z</time></trkpt><trkpt lat="43.66565132381434" lon="11.204620006853737"><ele>227.0</ele><time>2026-04-04T13:11:00Z</time></trkpt><trkpt lat="43.66563173935467" lon="11.20451316986377"><ele>228.16666666666669</ele><time>2026-04-04T13:11:04Z</time></trkpt><trkpt lat="43.66560633972413" lon="11.204431800280014"><ele>229.33333333333334</ele><time>2026-04-04T13:11:07Z</time></trkpt><trkpt lat="43.66557325545566" lon="11.204325946646138"><ele>230.5</ele><time>2026-04-04T13:11:10.999Z</time></trkpt><trkpt lat="43.665550583636325" lon="11.204243586694501"><ele>231.66666666666669</ele><time>2026-04-04T13:11:13.999Z</time></trkpt><trkpt lat="43.665516212202476" lon="11.204138023110664"><ele>232.83333333333334</ele><time>2026-04-04T13:11:17.999Z</time></trkpt><trkpt lat="43.665489932963844" lon="11.204039837060215"><ele>234.0</ele><time>2026-04-04T13:11:21.999Z</time></trkpt><trkpt lat="43.665466330850805" lon="11.203931617236252"><ele>235.14285714285717</ele><time>2026-04-04T13:11:25.999Z</time></trkpt><trkpt lat="43.665439142725745" lon="11.203825637306583"><ele>236.2857142857143</ele><time>2026-04-04T13:11:29.999Z</time></trkpt><trkpt lat="43.665414584564786" lon="11.203745369820503"><ele>237.42857142857144</ele><time>2026-04-04T13:11:32.999Z</time></trkpt><trkpt lat="43.665392868218035" lon="11.203663153493501"><ele>238.57142857142856</ele><time>2026-04-04T13:11:35.999Z</time></trkpt><trkpt lat="43.66537450900351" lon="11.203579636912899"><ele>239.7142857142857</ele><time>2026-04-04T13:11:38.999Z</time></trkpt><trkpt lat="43.66535353289436" lon="11.203496890039"><ele>240.85714285714283</ele><time>2026-04-04T13:11:41.999Z</time></trkpt><trkpt lat="43.665329196513845" lon="11.20341501625026"><ele>242.0</ele><time>2026-04-04T13:11:44.999Z</time></trkpt><trkpt lat="43.66531782629663" lon="11.203303198782743"><ele>242.0</ele><time>2026-04-04T13:11:48.999Z</time></trkpt><trkpt lat="43.66531053849855" lon="11.203216304621268"><ele>241.99999999999997</ele><time>2026-04-04T13:11:51.999Z</time></trkpt><trkpt lat="43.665306245108916" lon="11.203115390003092"><ele>242.0</ele><time>2026-04-04T13:11:55.999Z</time></trkpt><trkpt lat="43.66530760657455" lon="11.203022373762058"><ele>242.0</ele><time>2026-04-04T13:11:58.999Z</time></trkpt><trkpt lat="43.66531459512425" lon="11.202932954926895"><ele>241.99999999999997</ele><time>2026-04-04T13:12:01.999Z</time></trkpt><trkpt lat="43.66531257104041" lon="11.202842529137827"><ele>242.0</ele><time>2026-04-04T13:12:04.999Z</time></trkpt><trkpt lat="43.66532825733988" lon="11.202753668550201"><ele>242.0</ele><time>2026-04-04T13:12:08Z</time></trkpt><trkpt lat="43.665351623226556" lon="11.202641977585431"><ele>241.85714285714283</ele><time>2026-04-04T13:12:12Z</time></trkpt><trkpt lat="43.665371772669836" lon="11.202558063287364"><ele>241.7142857142857</ele><time>2026-04-04T13:12:15Z</time></trkpt><trkpt lat="43.66539855301031" lon="11.202473682287717"><ele>241.57142857142856</ele><time>2026-04-04T13:12:18Z</time></trkpt><trkpt lat="43.66542530802003" lon="11.202393367913492"><ele>241.42857142857144</ele><time>2026-04-04T13:12:21Z</time></trkpt><trkpt lat="43.66545162694312" lon="11.20231140310363"><ele>241.2857142857143</ele><time>2026-04-04T13:12:24Z</time></trkpt><trkpt lat="43.66547757182839" lon="11.202231853786099"><ele>241.14285714285717</ele><time>2026-04-04T13:12:27Z</time></trkpt><trkpt lat="43.66551229127481" lon="11.202132217721024"><ele>241.0</ele><time>2026-04-04T13:12:31Z</time></trkpt><trkpt lat="43.66553481002494" lon="11.202050138631352"><ele>240.99999999999997</ele><time>2026-04-04T13:12:34Z</time></trkpt><trkpt lat="43.665561511214754" lon="11.201940817296272"><ele>241.0</ele><time>2026-04-04T13:12:38Z</time></trkpt><trkpt lat="43.66557817696898" lon="11.201854469178757"><ele>241.0</ele><time>2026-04-04T13:12:41Z</time></trkpt><trkpt lat="43.66559093381956" lon="11.201740466558439"><ele>241.0</ele><time>2026-04-04T13:12:45Z</time></trkpt><trkpt lat="43.665597463827865" lon="11.201626624202841"><ele>240.99999999999997</ele><time>2026-04-04T13:12:49Z</time></trkpt><trkpt lat="43.665602459645015" lon="11.201537073532908"><ele>241.0</ele><time>2026-04-04T13:12:52Z</time></trkpt><trkpt lat="43.66560184601698" lon="11.201423205393855"><ele>240.99999999999997</ele><time>2026-04-04T13:12:55.999Z</time></trkpt><trkpt lat="43.665605878725515" lon="11.201312657658752"><ele>241.0</ele><time>2026-04-04T13:12:59.999Z</time></trkpt><trkpt lat="43.665611776084724" lon="11.201199692354805"><ele>241.0</ele><time>2026-04-04T13:13:03.999Z</time></trkpt><trkpt lat="43.66562080064095" lon="11.201111552417828"><ele>241.0</ele><time>2026-04-04T13:13:06.999Z</time></trkpt><trkpt lat="43.66563049219189" lon="11.200997398565057"><ele>240.99999999999997</ele><time>2026-04-04T13:13:10.999Z</time></trkpt><trkpt lat="43.66564286506291" lon="11.200889340705283"><ele>241.0</ele><time>2026-04-04T13:13:14.999Z</time></trkpt><trkpt lat="43.66566236437875" lon="11.200802664200792"><ele>240.99999999999997</ele><time>2026-04-04T13:13:17.999Z</time></trkpt><trkpt lat="43.66568285872832" lon="11.200720136424076"><ele>241.0</ele><time>2026-04-04T13:13:20.999Z</time></trkpt><trkpt lat="43.66570912722779" lon="11.20063958132607"><ele>241.0</ele><time>2026-04-04T13:13:23.999Z</time></trkpt><trkpt lat="43.665741611550985" lon="11.2005342540469"><ele>241.0</ele><time>2026-04-04T13:13:27.999Z</time></trkpt><trkpt lat="43.66578377811376" lon="11.20043176976746"><ele>240.99999999999997</ele><time>2026-04-04T13:13:31.999Z</time></trkpt><trkpt lat="43.66582273531423" lon="11.200332913712671"><ele>241.0</ele><time>2026-04-04T13:13:35.999Z</time></trkpt><trkpt lat="43.66586098446607" lon="11.200234421787151"><ele>240.16666666666666</ele><time>2026-04-04T13:13:39.999Z</time></trkpt><trkpt lat="43.66589261985151" lon="11.200132458409726"><ele>239.33333333333331</ele><time>2026-04-04T13:13:43.999Z</time></trkpt><trkpt lat="43.66592029838103" lon="11.200033047877929"><ele>238.5</ele><time>2026-04-04T13:13:47.999Z</time></trkpt><trkpt lat="43.66594147306273" lon="11.199950618259946"><ele>237.66666666666669</ele><time>2026-04-04T13:13:50.999Z</time></trkpt><trkpt lat="43.66595833126941" lon="11.19983999644602"><ele>236.83333333333334</ele><time>2026-04-04T13:13:54.999Z</time></trkpt><trkpt lat="43.66597562852151" lon="11.199736434259504"><ele>236.0</ele><time>2026-04-04T13:13:58.999Z</time></trkpt><trkpt lat="43.66599961877864" lon="11.199627468029991"><ele>235.28571428571428</ele><time>2026-04-04T13:14:02.999Z</time></trkpt><trkpt lat="43.66602378035659" lon="11.199544845903674"><ele>234.57142857142858</ele><time>2026-04-04T13:14:05.999Z</time></trkpt><trkpt lat="43.66605035275676" lon="11.199462202138275"><ele>233.85714285714286</ele><time>2026-04-04T13:14:08.999Z</time></trkpt><trkpt lat="43.66608379190977" lon="11.199385472057005"><ele>233.14285714285714</ele><time>2026-04-04T13:14:11.999Z</time></trkpt><trkpt lat="43.6661199497279" lon="11.199310050198596"><ele>232.42857142857144</ele><time>2026-04-04T13:14:14.999Z</time></trkpt><trkpt lat="43.666161840712896" lon="11.199236227156586"><ele>231.71428571428572</ele><time>2026-04-04T13:14:17.999Z</time></trkpt><trkpt lat="43.6662102646869" lon="11.199172053235046"><ele>231.0</ele><time>2026-04-04T13:14:20.999Z</time></trkpt><trkpt lat="43.66625363655897" lon="11.199095559505754"><ele>234.14285714285714</ele><time>2026-04-04T13:14:23.999Z</time></trkpt><trkpt lat="43.66629625956022" lon="11.199026297255148"><ele>237.28571428571428</ele><time>2026-04-04T13:14:27Z</time></trkpt><trkpt lat="43.666333236586674" lon="11.198953097746546"><ele>240.42857142857144</ele><time>2026-04-04T13:14:30Z</time></trkpt><trkpt lat="43.66636727756922" lon="11.198877856278628"><ele>243.57142857142858</ele><time>2026-04-04T13:14:33Z</time></trkpt><trkpt lat="43.66641120233141" lon="11.198773626044106"><ele>246.71428571428572</ele><time>2026-04-04T13:14:37Z</time></trkpt><trkpt lat="43.66643287749704" lon="11.198678566534882"><ele>249.8571428571429</ele><time>2026-04-04T13:14:39.999Z</time></trkpt><trkpt lat="43.666435674360834" lon="11.198584445636536"><ele>253.00000000000003</ele><time>2026-04-04T13:14:42.999Z</time></trkpt><trkpt lat="43.666442923840776" lon="11.19847849760568"><ele>253.00000000000003</ele><time>2026-04-04T13:14:45.999Z</time></trkpt><trkpt lat="43.66644116515412" lon="11.198377151116432"><ele>253.0</ele><time>2026-04-04T13:14:48.999Z</time></trkpt><trkpt lat="43.66642484922878" lon="11.198273151962658"><ele>253.00000000000003</ele><time>2026-04-04T13:14:51.999Z</time></trkpt><trkpt lat="43.666402979954185" lon="11.198180198104572"><ele>253.00000000000003</ele><time>2026-04-04T13:14:54.999Z</time></trkpt><trkpt lat="43.666372373344906" lon="11.198094802680414"><ele>253.0</ele><time>2026-04-04T13:14:57.999Z</time></trkpt><trkpt lat="43.66633582057193" lon="11.198019125509445"><ele>253.00000000000003</ele><time>2026-04-04T13:15:00.999Z</time></trkpt><trkpt lat="43.66628678197599" lon="11.197959335408425"><ele>253.00000000000003</ele><time>2026-04-04T13:15:03.999Z</time></trkpt><trkpt lat="43.6662364224318" lon="11.19789906992776"><ele>252.42857142857144</ele><time>2026-04-04T13:15:06.999Z</time></trkpt><trkpt lat="43.66617463474713" lon="11.197852177937747"><ele>251.85714285714286</ele><time>2026-04-04T13:15:09.999Z</time></trkpt><trkpt lat="43.66611214347207" lon="11.197814145877903"><ele>251.28571428571428</ele><time>2026-04-04T13:15:12.999Z</time></trkpt><trkpt lat="43.66604862914313" lon="11.197780304838076"><ele>250.71428571428572</ele><time>2026-04-04T13:15:15.999Z</time></trkpt><trkpt lat="43.66598018260594" lon="11.19775275468307"><ele>250.1428571428571</ele><time>2026-04-04T13:15:18.999Z</time></trkpt><trkpt lat="43.66591705948818" lon="11.197711476397886"><ele>249.57142857142856</ele><time>2026-04-04T13:15:21.999Z</time></trkpt><trkpt lat="43.665857336465315" lon="11.197672529058046"><ele>249.0</ele><time>2026-04-04T13:15:24.999Z</time></trkpt><trkpt lat="43.66579170621803" lon="11.197631235081879"><ele>249.0</ele><time>2026-04-04T13:15:27.999Z</time></trkpt><trkpt lat="43.66574596534298" lon="11.197567376272286"><ele>248.99999999999997</ele><time>2026-04-04T13:15:30.999Z</time></trkpt><trkpt lat="43.66569471753346" lon="11.197495012261525"><ele>249.0</ele><time>2026-04-04T13:15:33.999Z</time></trkpt><trkpt lat="43.66566085476882" lon="11.197408833364527"><ele>249.0</ele><time>2026-04-04T13:15:36.999Z</time></trkpt><trkpt lat="43.66562639044083" lon="11.19733129352082"><ele>248.99999999999997</ele><time>2026-04-04T13:15:39.999Z</time></trkpt><trkpt lat="43.665604619779096" lon="11.197247144338947"><ele>249.0</ele><time>2026-04-04T13:15:42.999Z</time></trkpt><trkpt lat="43.665589384686236" lon="11.197157036678053"><ele>249.0</ele><time>2026-04-04T13:15:45.999Z</time></trkpt><trkpt lat="43.665575238320045" lon="11.197056181111078"><ele>250.66666666666666</ele><time>2026-04-04T13:15:48.999Z</time></trkpt><trkpt lat="43.66557125034285" lon="11.196940226384624"><ele>252.33333333333331</ele><time>2026-04-04T13:15:52.999Z</time></trkpt><trkpt lat="43.665566910385394" lon="11.196826378223353"><ele>254.0</ele><time>2026-04-04T13:15:56.999Z</time></trkpt><trkpt lat="43.66555489357016" lon="11.196714555912761"><ele>255.66666666666666</ele><time>2026-04-04T13:16:00.999Z</time></trkpt><trkpt lat="43.66553345261751" lon="11.19660633050188"><ele>257.3333333333333</ele><time>2026-04-04T13:16:04.999Z</time></trkpt><trkpt lat="43.66551002052952" lon="11.19652047209765"><ele>259.0</ele><time>2026-04-04T13:16:07.999Z</time></trkpt><trkpt lat="43.66548113288765" lon="11.196441577743073"><ele>258.14285714285717</ele><time>2026-04-04T13:16:10.999Z</time></trkpt><trkpt lat="43.665434643142966" lon="11.196342259791656"><ele>257.2857142857143</ele><time>2026-04-04T13:16:14.999Z</time></trkpt><trkpt lat="43.66539503765591" lon="11.196274077629516"><ele>256.42857142857144</ele><time>2026-04-04T13:16:17.999Z</time></trkpt><trkpt lat="43.66535506110884" lon="11.196195514025073"><ele>255.57142857142858</ele><time>2026-04-04T13:16:20.999Z</time></trkpt><trkpt lat="43.665315476388756" lon="11.196120029730826"><ele>254.71428571428572</ele><time>2026-04-04T13:16:23.999Z</time></trkpt><trkpt lat="43.665276423066935" lon="11.196050798746578"><ele>253.8571428571429</ele><time>2026-04-04T13:16:26.999Z</time></trkpt><trkpt lat="43.66523640985139" lon="11.195981234845496"><ele>253.00000000000003</ele><time>2026-04-04T13:16:29.999Z</time></trkpt><trkpt lat="43.66519060804166" lon="11.195908403977178"><ele>253.00000000000003</ele><time>2026-04-04T13:16:32.999Z</time></trkpt><trkpt lat="43.66514967542494" lon="11.195837449850043"><ele>253.0</ele><time>2026-04-04T13:16:35.999Z</time></trkpt><trkpt lat="43.66510439705542" lon="11.195760159507634"><ele>253.00000000000003</ele><time>2026-04-04T13:16:38.999Z</time></trkpt><trkpt lat="43.66506441509673" lon="11.195685236425218"><ele>253.00000000000003</ele><time>2026-04-04T13:16:41.999Z</time></trkpt><trkpt lat="43.66502334395774" lon="11.195614263331072"><ele>253.0</ele><time>2026-04-04T13:16:44.999Z</time></trkpt><trkpt lat="43.66498606819656" lon="11.195540952676497"><ele>253.00000000000003</ele><time>2026-04-04T13:16:47.999Z</time></trkpt><trkpt lat="43.66495631902231" lon="11.195461092456501"><ele>253.00000000000003</ele><time>2026-04-04T13:16:50.999Z</time></trkpt><trkpt lat="43.66493064934349" lon="11.195379474091633"><ele>254.71428571428575</ele><time>2026-04-04T13:16:53.999Z</time></trkpt><trkpt lat="43.66490619271783" lon="11.195267666917758"><ele>256.42857142857144</ele><time>2026-04-04T13:16:57.999Z</time></trkpt><trkpt lat="43.66488734470221" lon="11.195182979435096"><ele>258.1428571428571</ele><time>2026-04-04T13:17:00.999Z</time></trkpt><trkpt lat="43.66486834270769" lon="11.19509678887641"><ele>259.8571428571429</ele><time>2026-04-04T13:17:03.999Z</time></trkpt><trkpt lat="43.664860559026216" lon="11.19500839899077"><ele>261.57142857142856</ele><time>2026-04-04T13:17:06.999Z</time></trkpt><trkpt lat="43.66485406946593" lon="11.194919512931722"><ele>263.2857142857143</ele><time>2026-04-04T13:17:09.999Z</time></trkpt><trkpt lat="43.66485670669981" lon="11.194827117969888"><ele>265.0</ele><time>2026-04-04T13:17:12.999Z</time></trkpt><trkpt lat="43.664858931769956" lon="11.194723137539718"><ele>265.57142857142856</ele><time>2026-04-04T13:17:15.999Z</time></trkpt><trkpt lat="43.66486994383586" lon="11.194632326294908"><ele>266.1428571428571</ele><time>2026-04-04T13:17:18.999Z</time></trkpt><trkpt lat="43.66487907910964" lon="11.1945387403819"><ele>266.7142857142857</ele><time>2026-04-04T13:17:21.999Z</time></trkpt><trkpt lat="43.66489029432642" lon="11.194445206476235"><ele>267.2857142857143</ele><time>2026-04-04T13:17:24.999Z</time></trkpt><trkpt lat="43.66490171852425" lon="11.194350902329978"><ele>267.8571428571429</ele><time>2026-04-04T13:17:28.999Z</time></trkpt><trkpt lat="43.66491576180024" lon="11.194263069644196"><ele>268.42857142857144</ele><time>2026-04-04T13:17:31.999Z</time></trkpt><trkpt lat="43.664920741012054" lon="11.194174162351235"><ele>269.0</ele><time>2026-04-04T13:17:34.999Z</time></trkpt><trkpt lat="43.66492815125237" lon="11.194087608487067"><ele>269.5</ele><time>2026-04-04T13:17:37.999Z</time></trkpt><trkpt lat="43.66493587392821" lon="11.193973819153722"><ele>270.0</ele><time>2026-04-04T13:17:41.999Z</time></trkpt><trkpt lat="43.66494915820842" lon="11.19385982671476"><ele>270.5</ele><time>2026-04-04T13:17:45.999Z</time></trkpt><trkpt lat="43.66495856032132" lon="11.193738566799698"><ele>271.0</ele><time>2026-04-04T13:17:49.999Z</time></trkpt><trkpt lat="43.66496732131826" lon="11.193624741690606"><ele>271.5</ele><time>2026-04-04T13:17:53.999Z</time></trkpt><trkpt lat="43.66495520649484" lon="11.19351651214925"><ele>272.0</ele><time>2026-04-04T13:17:57.999Z</time></trkpt><trkpt lat="43.664934746680565" lon="11.193414160016422"><ele>272.0</ele><time>2026-04-04T13:18:01.999Z</time></trkpt><trkpt lat="43.66490738992435" lon="11.193310180911942"><ele>272.0</ele><time>2026-04-04T13:18:05.999Z</time></trkpt><trkpt lat="43.664867352208" lon="11.193212389348089"><ele>272.0</ele><time>2026-04-04T13:18:09.999Z</time></trkpt><trkpt lat="43.66481731310053" lon="11.193126470066618"><ele>272.0</ele><time>2026-04-04T13:18:13.999Z</time></trkpt><trkpt lat="43.66476319962241" lon="11.19304516869061"><ele>272.0</ele><time>2026-04-04T13:18:17.999Z</time></trkpt><trkpt lat="43.664704490689665" lon="11.192962505695327"><ele>272.0</ele><time>2026-04-04T13:18:21.999Z</time></trkpt><trkpt lat="43.66465647523953" lon="11.192899084893803"><ele>272.1428571428571</ele><time>2026-04-04T13:18:24.999Z</time></trkpt><trkpt lat="43.66460853119124" lon="11.192837754813187"><ele>272.2857142857143</ele><time>2026-04-04T13:18:27.999Z</time></trkpt><trkpt lat="43.664558073770436" lon="11.192770639767492"><ele>272.42857142857144</ele><time>2026-04-04T13:18:30.999Z</time></trkpt><trkpt lat="43.66451018549238" lon="11.192708270920768"><ele>272.57142857142856</ele><time>2026-04-04T13:18:33.999Z</time></trkpt><trkpt lat="43.66446191223657" lon="11.192642802565807"><ele>272.7142857142857</ele><time>2026-04-04T13:18:36.999Z</time></trkpt><trkpt lat="43.66441561755835" lon="11.192579535093769"><ele>272.85714285714283</ele><time>2026-04-04T13:18:39.999Z</time></trkpt><trkpt lat="43.664364915853156" lon="11.192518854758525"><ele>273.0</ele><time>2026-04-04T13:18:42.999Z</time></trkpt><trkpt lat="43.66432193725823" lon="11.192451923269475"><ele>273.0</ele><time>2026-04-04T13:18:45.999Z</time></trkpt><trkpt lat="43.66427890344113" lon="11.192380541611247"><ele>273.0</ele><time>2026-04-04T13:18:48.999Z</time></trkpt><trkpt lat="43.66422574445933" lon="11.1923181370045"><ele>273.0</ele><time>2026-04-04T13:18:51.999Z</time></trkpt><trkpt lat="43.664187710164626" lon="11.192244638524057"><ele>273.0</ele><time>2026-04-04T13:18:54.999Z</time></trkpt><trkpt lat="43.66413818111473" lon="11.192174755077977"><ele>273.0</ele><time>2026-04-04T13:18:57.999Z</time></trkpt><trkpt lat="43.66408375767695" lon="11.192083055103891"><ele>273.0</ele><time>2026-04-04T13:19:01.999Z</time></trkpt><trkpt lat="43.664039739281655" lon="11.192018852329278"><ele>273.0</ele><time>2026-04-04T13:19:04.999Z</time></trkpt><trkpt lat="43.6639810516159" lon="11.191945284058933"><ele>274.14285714285717</ele><time>2026-04-04T13:19:08.999Z</time></trkpt><trkpt lat="43.66391868915693" lon="11.191879118599951"><ele>275.2857142857143</ele><time>2026-04-04T13:19:12.999Z</time></trkpt><trkpt lat="43.6638468905533" lon="11.191827482075988"><ele>276.42857142857144</ele><time>2026-04-04T13:19:16.999Z</time></trkpt><trkpt lat="43.663771375498534" lon="11.19177949857324"><ele>277.57142857142856</ele><time>2026-04-04T13:19:20.999Z</time></trkpt><trkpt lat="43.66371656115466" lon="11.19173077132829"><ele>278.7142857142857</ele><time>2026-04-04T13:19:23.999Z</time></trkpt><trkpt lat="43.66365147700053" lon="11.191712019690778"><ele>279.8571428571429</ele><time>2026-04-04T13:19:26.999Z</time></trkpt><trkpt lat="43.663589063235385" lon="11.191697263633516"><ele>281.0</ele><time>2026-04-04T13:19:29.999Z</time></trkpt><trkpt lat="43.66352816451905" lon="11.191670560752648"><ele>281.00000000000006</ele><time>2026-04-04T13:19:32.999Z</time></trkpt><trkpt lat="43.66346619721347" lon="11.191652861582085"><ele>281.0</ele><time>2026-04-04T13:19:35.999Z</time></trkpt><trkpt lat="43.663389135271345" lon="11.19162303114414"><ele>281.0</ele><time>2026-04-04T13:19:39.999Z</time></trkpt><trkpt lat="43.6633128346511" lon="11.19159168006184"><ele>281.0</ele><time>2026-04-04T13:19:43.999Z</time></trkpt><trkpt lat="43.663250141278425" lon="11.191568861344605"><ele>281.0</ele><time>2026-04-04T13:19:46.999Z</time></trkpt><trkpt lat="43.66318970958348" lon="11.191541730239797"><ele>281.00000000000006</ele><time>2026-04-04T13:19:49.999Z</time></trkpt><trkpt lat="43.66312773763621" lon="11.19151973012598"><ele>281.0</ele><time>2026-04-04T13:19:52.999Z</time></trkpt><trkpt lat="43.66306610094444" lon="11.191491416018588"><ele>281.00000000000006</ele><time>2026-04-04T13:19:55.999Z</time></trkpt><trkpt lat="43.66300422377996" lon="11.191466768716646"><ele>281.0</ele><time>2026-04-04T13:19:58.999Z</time></trkpt><trkpt lat="43.66293047141118" lon="11.191447098505273"><ele>281.0</ele><time>2026-04-04T13:20:02.999Z</time></trkpt><trkpt lat="43.662852758695216" lon="11.191447046817336"><ele>281.0</ele><time>2026-04-04T13:20:06.999Z</time></trkpt><trkpt lat="43.66276819024855" lon="11.191459200608886"><ele>281.0</ele><time>2026-04-04T13:20:10.999Z</time></trkpt><trkpt lat="43.66270597305866" lon="11.191477372458886"><ele>281.00000000000006</ele><time>2026-04-04T13:20:13.999Z</time></trkpt><trkpt lat="43.66262757617169" lon="11.191490693543455"><ele>281.0</ele><time>2026-04-04T13:20:17.999Z</time></trkpt><trkpt lat="43.6625623753146" lon="11.191493282956593"><ele>281.6666666666667</ele><time>2026-04-04T13:20:20.999Z</time></trkpt><trkpt lat="43.66250128793876" lon="11.191467559470915"><ele>282.33333333333337</ele><time>2026-04-04T13:20:23.999Z</time></trkpt><trkpt lat="43.66244476265125" lon="11.191427775475898"><ele>283.0</ele><time>2026-04-04T13:20:26.999Z</time></trkpt><trkpt lat="43.66241305770954" lon="11.191347205483057"><ele>283.6666666666667</ele><time>2026-04-04T13:20:30.999Z</time></trkpt><trkpt lat="43.662410323382424" lon="11.191218588805562"><ele>284.3333333333333</ele><time>2026-04-04T13:20:33.999Z</time></trkpt><trkpt lat="43.66238637914196" lon="11.191112034388754"><ele>285.0</ele><time>2026-04-04T13:20:35.999Z</time></trkpt><trkpt lat="43.6623492793529" lon="11.19100338884762"><ele>285.0</ele><time>2026-04-04T13:20:37.999Z</time></trkpt><trkpt lat="43.66231180837383" lon="11.1909015847013"><ele>285.0</ele><time>2026-04-04T13:20:39.999Z</time></trkpt><trkpt lat="43.66229241870483" lon="11.190798598377885"><ele>285.0</ele><time>2026-04-04T13:20:41.999Z</time></trkpt><trkpt lat="43.662282643742415" lon="11.190708539282321"><ele>285.0</ele><time>2026-04-04T13:20:43.999Z</time></trkpt><trkpt lat="43.6622652140216" lon="11.190608573810549"><ele>285.0</ele><time>2026-04-04T13:20:45.999Z</time></trkpt><trkpt lat="43.66224220064201" lon="11.190509435464968"><ele>285.0</ele><time>2026-04-04T13:20:47.999Z</time></trkpt><trkpt lat="43.6622066249661" lon="11.190403769969237"><ele>283.6666666666667</ele><time>2026-04-04T13:20:49.999Z</time></trkpt><trkpt lat="43.66215713433846" lon="11.190290582429336"><ele>282.3333333333333</ele><time>2026-04-04T13:20:51.999Z</time></trkpt><trkpt lat="43.66210117278673" lon="11.190150444162821"><ele>281.0</ele><time>2026-04-04T13:20:53.999Z</time></trkpt><trkpt lat="43.662066364755326" lon="11.190075485203318"><ele>279.66666666666663</ele><time>2026-04-04T13:20:54.999Z</time></trkpt><trkpt lat="43.66202826942054" lon="11.189998106216466"><ele>278.3333333333333</ele><time>2026-04-04T13:20:55.999Z</time></trkpt><trkpt lat="43.66199317492704" lon="11.189909790639183"><ele>277.0</ele><time>2026-04-04T13:20:56.999Z</time></trkpt><trkpt lat="43.66196243936305" lon="11.189816149618716"><ele>277.16666666666663</ele><time>2026-04-04T13:20:57.999Z</time></trkpt><trkpt lat="43.661931672041405" lon="11.189713363206577"><ele>277.3333333333333</ele><time>2026-04-04T13:20:58.999Z</time></trkpt><trkpt lat="43.66191860168733" lon="11.189597941681889"><ele>277.5</ele><time>2026-04-04T13:20:59.999Z</time></trkpt><trkpt lat="43.661916670350216" lon="11.189477789517946"><ele>277.6666666666667</ele><time>2026-04-04T13:21:00.999Z</time></trkpt><trkpt lat="43.66193280806043" lon="11.189351312704279"><ele>277.83333333333337</ele><time>2026-04-04T13:21:01.999Z</time></trkpt><trkpt lat="43.66196828394743" lon="11.189231028708992"><ele>278.0</ele><time>2026-04-04T13:21:02.999Z</time></trkpt><trkpt lat="43.66202029589813" lon="11.189121313291306"><ele>278.8</ele><time>2026-04-04T13:21:03.999Z</time></trkpt><trkpt lat="43.66208147319374" lon="11.189024265479091"><ele>279.6</ele><time>2026-04-04T13:21:04.999Z</time></trkpt><trkpt lat="43.66215689104265" lon="11.188940066262683"><ele>280.4</ele><time>2026-04-04T13:21:05.999Z</time></trkpt><trkpt lat="43.662240783993745" lon="11.188879347065848"><ele>281.2</ele><time>2026-04-04T13:21:06.999Z</time></trkpt><trkpt lat="43.66232838242197" lon="11.188839351909836"><ele>282.0</ele><time>2026-04-04T13:21:07.999Z</time></trkpt><trkpt lat="43.66242170173042" lon="11.188826578728863"><ele>282.0</ele><time>2026-04-04T13:21:08.999Z</time></trkpt><trkpt lat="43.66251171736351" lon="11.188824688466593"><ele>282.0</ele><time>2026-04-04T13:21:09.999Z</time></trkpt><trkpt lat="43.66259802964192" lon="11.18882634646706"><ele>282.0</ele><time>2026-04-04T13:21:10.999Z</time></trkpt><trkpt lat="43.66268275448736" lon="11.188827351994423"><ele>282.0</ele><time>2026-04-04T13:21:11.999Z</time></trkpt><trkpt lat="43.662765306239955" lon="11.188821554977048"><ele>282.0</ele><time>2026-04-04T13:21:12.999Z</time></trkpt><trkpt lat="43.66284514122868" lon="11.18881468721084"><ele>282.0</ele><time>2026-04-04T13:21:13.999Z</time></trkpt><trkpt lat="43.66292241111791" lon="11.188812713397676"><ele>281.7142857142857</ele><time>2026-04-04T13:21:14.999Z</time></trkpt><trkpt lat="43.6630002398358" lon="11.188809368783296"><ele>281.42857142857144</ele><time>2026-04-04T13:21:15.999Z</time></trkpt><trkpt lat="43.66307451412505" lon="11.188805087357542"><ele>281.1428571428571</ele><time>2026-04-04T13:21:16.999Z</time></trkpt><trkpt lat="43.66314538505959" lon="11.188800738261387"><ele>280.8571428571429</ele><time>2026-04-04T13:21:17.999Z</time></trkpt><trkpt lat="43.663213139502766" lon="11.188798253584842"><ele>280.57142857142856</ele><time>2026-04-04T13:21:18.999Z</time></trkpt><trkpt lat="43.66327789724459" lon="11.188794148897895"><ele>280.2857142857143</ele><time>2026-04-04T13:21:19.999Z</time></trkpt><trkpt lat="43.66334123772298" lon="11.188796195079776"><ele>280.0</ele><time>2026-04-04T13:21:20.999Z</time></trkpt><trkpt lat="43.66346317598945" lon="11.188791591861117"><ele>280.0</ele><time>2026-04-04T13:21:22.999Z</time></trkpt><trkpt lat="43.663576761453285" lon="11.188787178774355"><ele>280.0</ele><time>2026-04-04T13:21:24.999Z</time></trkpt><trkpt lat="43.66368079266962" lon="11.188787625850662"><ele>280.0</ele><time>2026-04-04T13:21:26.999Z</time></trkpt><trkpt lat="43.66376855240523" lon="11.188788063684393"><ele>280.0</ele><time>2026-04-04T13:21:28.999Z</time></trkpt><trkpt lat="43.663854242301944" lon="11.188781982791776"><ele>280.0</ele><time>2026-04-04T13:21:30.999Z</time></trkpt><trkpt lat="43.6639308947736" lon="11.188775924282366"><ele>280.5</ele><time>2026-04-04T13:21:32.999Z</time></trkpt><trkpt lat="43.66400223665212" lon="11.188771993802707"><ele>281.0</ele><time>2026-04-04T13:21:34.999Z</time></trkpt><trkpt lat="43.664090123567306" lon="11.18876927908904"><ele>281.5</ele><time>2026-04-04T13:21:37.999Z</time></trkpt><trkpt lat="43.66416976818433" lon="11.188767971401468"><ele>282.0</ele><time>2026-04-04T13:21:40.999Z</time></trkpt><trkpt lat="43.664247432631434" lon="11.18875873355505"><ele>282.5</ele><time>2026-04-04T13:21:43.999Z</time></trkpt><trkpt lat="43.664329984762645" lon="11.1887513821282"><ele>283.0</ele><time>2026-04-04T13:21:46.999Z</time></trkpt><trkpt lat="43.66440959356935" lon="11.188753129759256"><ele>283.3333333333333</ele><time>2026-04-04T13:21:49.999Z</time></trkpt><trkpt lat="43.66448586014979" lon="11.188745946291387"><ele>283.66666666666663</ele><time>2026-04-04T13:21:52.999Z</time></trkpt><trkpt lat="43.66456454121169" lon="11.188741051040685"><ele>284.0</ele><time>2026-04-04T13:21:55.999Z</time></trkpt><trkpt lat="43.66464016388674" lon="11.188742345609812"><ele>284.3333333333333</ele><time>2026-04-04T13:21:58.999Z</time></trkpt><trkpt lat="43.66471912285379" lon="11.188746826059843"><ele>284.6666666666667</ele><time>2026-04-04T13:22:01.999Z</time></trkpt><trkpt lat="43.66479591397601" lon="11.188740125959967"><ele>285.0</ele><time>2026-04-04T13:22:04.999Z</time></trkpt><trkpt lat="43.6648718069479" lon="11.188734390218059"><ele>285.0</ele><time>2026-04-04T13:22:07.999Z</time></trkpt><trkpt lat="43.66494680841178" lon="11.188733757710777"><ele>285.0</ele><time>2026-04-04T13:22:10.999Z</time></trkpt><trkpt lat="43.665027821030804" lon="11.188727243672503"><ele>285.0</ele><time>2026-04-04T13:22:13.999Z</time></trkpt><trkpt lat="43.66510843749153" lon="11.188723967787638"><ele>285.0</ele><time>2026-04-04T13:22:16.999Z</time></trkpt><trkpt lat="43.665188524897964" lon="11.188716876273563"><ele>285.0</ele><time>2026-04-04T13:22:19.999Z</time></trkpt><trkpt lat="43.6652662287917" lon="11.188715641174003"><ele>285.0</ele><time>2026-04-04T13:22:22.999Z</time></trkpt><trkpt lat="43.66534878987035" lon="11.188713578923592"><ele>284.8333333333333</ele><time>2026-04-04T13:22:25.999Z</time></trkpt><trkpt lat="43.66542697393895" lon="11.188708092988383"><ele>284.6666666666667</ele><time>2026-04-04T13:22:28.999Z</time></trkpt><trkpt lat="43.665509895177685" lon="11.188698555556558"><ele>284.5</ele><time>2026-04-04T13:22:31.999Z</time></trkpt><trkpt lat="43.665590632886335" lon="11.188688278366442"><ele>284.33333333333337</ele><time>2026-04-04T13:22:34.999Z</time></trkpt><trkpt lat="43.665674131002575" lon="11.188692649634362"><ele>284.1666666666667</ele><time>2026-04-04T13:22:38Z</time></trkpt><trkpt lat="43.66575726605879" lon="11.188696091181027"><ele>284.0</ele><time>2026-04-04T13:22:41Z</time></trkpt><trkpt lat="43.6658427666531" lon="11.188681462162506"><ele>284.0</ele><time>2026-04-04T13:22:44Z</time></trkpt><trkpt lat="43.66593207400098" lon="11.188646478827023"><ele>284.0</ele><time>2026-04-04T13:22:47Z</time></trkpt><trkpt lat="43.66601723178228" lon="11.188596101613316"><ele>284.0</ele><time>2026-04-04T13:22:50Z</time></trkpt><trkpt lat="43.666071335351816" lon="11.188544618089413"><ele>284.0</ele><time>2026-04-04T13:22:52Z</time></trkpt><trkpt lat="43.666119964269186" lon="11.188489276359865"><ele>284.0</ele><time>2026-04-04T13:22:54Z</time></trkpt><trkpt lat="43.66617221342639" lon="11.18840992626905"><ele>284.0</ele><time>2026-04-04T13:22:57Z</time></trkpt><trkpt lat="43.666224109058255" lon="11.188309135533402"><ele>283.57142857142856</ele><time>2026-04-04T13:23:00Z</time></trkpt><trkpt lat="43.66625481939732" lon="11.18823272030029"><ele>283.1428571428571</ele><time>2026-04-04T13:23:02Z</time></trkpt><trkpt lat="43.66628090963484" lon="11.188150750418684"><ele>282.7142857142857</ele><time>2026-04-04T13:23:04Z</time></trkpt><trkpt lat="43.66629770036118" lon="11.188064697721952"><ele>282.2857142857143</ele><time>2026-04-04T13:23:06Z</time></trkpt><trkpt lat="43.666310961368914" lon="11.187973543933479"><ele>281.8571428571429</ele><time>2026-04-04T13:23:08Z</time></trkpt><trkpt lat="43.66631158109984" lon="11.18787959957543"><ele>281.42857142857144</ele><time>2026-04-04T13:23:10Z</time></trkpt><trkpt lat="43.66630208971385" lon="11.187747067449811"><ele>281.0</ele><time>2026-04-04T13:23:13Z</time></trkpt><trkpt lat="43.6662751700814" lon="11.18765583486635"><ele>280.1666666666667</ele><time>2026-04-04T13:23:15Z</time></trkpt><trkpt lat="43.666251593359675" lon="11.187565427638672"><ele>279.33333333333337</ele><time>2026-04-04T13:23:17Z</time></trkpt><trkpt lat="43.66621558000653" lon="11.18747646981458"><ele>278.5</ele><time>2026-04-04T13:23:19Z</time></trkpt><trkpt lat="43.66617327750222" lon="11.187394052317584"><ele>277.6666666666667</ele><time>2026-04-04T13:23:21Z</time></trkpt><trkpt lat="43.666112297630285" lon="11.18731260838849"><ele>276.8333333333333</ele><time>2026-04-04T13:23:23Z</time></trkpt><trkpt lat="43.66604307690804" lon="11.187242142470284"><ele>276.0</ele><time>2026-04-04T13:23:25Z</time></trkpt><trkpt lat="43.6659653223974" lon="11.187182527514924"><ele>275.6666666666667</ele><time>2026-04-04T13:23:27Z</time></trkpt><trkpt lat="43.66588262376788" lon="11.187133563930592"><ele>275.3333333333333</ele><time>2026-04-04T13:23:29Z</time></trkpt><trkpt lat="43.66579924089947" lon="11.187093628344572"><ele>275.0</ele><time>2026-04-04T13:23:31Z</time></trkpt><trkpt lat="43.66571459482737" lon="11.187053565296926"><ele>274.66666666666663</ele><time>2026-04-04T13:23:33Z</time></trkpt><trkpt lat="43.665627595183764" lon="11.187015320388253"><ele>274.3333333333333</ele><time>2026-04-04T13:23:35Z</time></trkpt><trkpt lat="43.66554224232721" lon="11.186974616600263"><ele>274.0</ele><time>2026-04-04T13:23:37Z</time></trkpt><trkpt lat="43.66545409556682" lon="11.1869349875121"><ele>274.0</ele><time>2026-04-04T13:23:39Z</time></trkpt><trkpt lat="43.66536427704213" lon="11.18689676369861"><ele>274.0</ele><time>2026-04-04T13:23:41Z</time></trkpt><trkpt lat="43.665272586471964" lon="11.186854684148418"><ele>274.0</ele><time>2026-04-04T13:23:43Z</time></trkpt><trkpt lat="43.66518353597494" lon="11.186809692923378"><ele>274.0</ele><time>2026-04-04T13:23:45Z</time></trkpt><trkpt lat="43.6650896217984" lon="11.186771680665913"><ele>274.0</ele><time>2026-04-04T13:23:47Z</time></trkpt><trkpt lat="43.66499956200401" lon="11.186727193767771"><ele>275.8</ele><time>2026-04-04T13:23:49Z</time></trkpt><trkpt lat="43.66490968517164" lon="11.186689811803609"><ele>277.59999999999997</ele><time>2026-04-04T13:23:51Z</time></trkpt><trkpt lat="43.66482038546269" lon="11.18664973423587"><ele>279.4</ele><time>2026-04-04T13:23:53Z</time></trkpt><trkpt lat="43.66473067801723" lon="11.186609322035101"><ele>281.2</ele><time>2026-04-04T13:23:55Z</time></trkpt><trkpt lat="43.66464206797693" lon="11.186570580717943"><ele>283.0</ele><time>2026-04-04T13:23:57Z</time></trkpt><trkpt lat="43.664550465105336" lon="11.186534802592346"><ele>280.6</ele><time>2026-04-04T13:23:59Z</time></trkpt><trkpt lat="43.66446061432597" lon="11.186493482500023"><ele>278.20000000000005</ele><time>2026-04-04T13:24:01Z</time></trkpt><trkpt lat="43.66436358849876" lon="11.186463541128546"><ele>275.8</ele><time>2026-04-04T13:24:03Z</time></trkpt><trkpt lat="43.664268566583026" lon="11.186432742524921"><ele>273.40000000000003</ele><time>2026-04-04T13:24:05Z</time></trkpt><trkpt lat="43.66417069468574" lon="11.186403013967984"><ele>271.0</ele><time>2026-04-04T13:24:07Z</time></trkpt><trkpt lat="43.66406520519574" lon="11.186370075202381"><ele>271.0</ele><time>2026-04-04T13:24:09Z</time></trkpt><trkpt lat="43.66395991169023" lon="11.186336270223363"><ele>271.0</ele><time>2026-04-04T13:24:11Z</time></trkpt><trkpt lat="43.66384970859729" lon="11.186305452184582"><ele>271.0</ele><time>2026-04-04T13:24:13Z</time></trkpt><trkpt lat="43.663739413393046" lon="11.186263668716645"><ele>271.0</ele><time>2026-04-04T13:24:15Z</time></trkpt><trkpt lat="43.663634712784955" lon="11.186225962497378"><ele>271.0</ele><time>2026-04-04T13:24:17Z</time></trkpt><trkpt lat="43.66353383620621" lon="11.186192780392128"><ele>272.8</ele><time>2026-04-04T13:24:19Z</time></trkpt><trkpt lat="43.663434977403156" lon="11.186159755666516"><ele>274.6</ele><time>2026-04-04T13:24:21Z</time></trkpt><trkpt lat="43.66334368997391" lon="11.186123900926358"><ele>276.4</ele><time>2026-04-04T13:24:23Z</time></trkpt><trkpt lat="43.6632496366084" lon="11.186093995243201"><ele>278.2</ele><time>2026-04-04T13:24:25Z</time></trkpt><trkpt lat="43.663151786757865" lon="11.1860670140938"><ele>280.0</ele><time>2026-04-04T13:24:27Z</time></trkpt><trkpt lat="43.66305281369236" lon="11.186035802082005"><ele>280.0</ele><time>2026-04-04T13:24:29Z</time></trkpt><trkpt lat="43.662949405793825" lon="11.186002935748869"><ele>280.0</ele><time>2026-04-04T13:24:31Z</time></trkpt><trkpt lat="43.66284233649641" lon="11.185968682191515"><ele>280.0</ele><time>2026-04-04T13:24:33Z</time></trkpt><trkpt lat="43.66273486582551" lon="11.185930893150841"><ele>280.0</ele><time>2026-04-04T13:24:35Z</time></trkpt><trkpt lat="43.662629802921046" lon="11.18589254816791"><ele>280.0</ele><time>2026-04-04T13:24:37Z</time></trkpt><trkpt lat="43.662531224733044" lon="11.185838511904022"><ele>279.6</ele><time>2026-04-04T13:24:39Z</time></trkpt><trkpt lat="43.66244809176099" lon="11.185772128863741"><ele>279.2</ele><time>2026-04-04T13:24:41Z</time></trkpt><trkpt lat="43.66237313331652" lon="11.185688172621202"><ele>278.8</ele><time>2026-04-04T13:24:43Z</time></trkpt><trkpt lat="43.662312542723946" lon="11.185595222301812"><ele>278.4</ele><time>2026-04-04T13:24:45.001Z</time></trkpt><trkpt lat="43.66226450423598" lon="11.18548414438602"><ele>278.0</ele><time>2026-04-04T13:24:47.001Z</time></trkpt><trkpt lat="43.66222462983379" lon="11.185368135495713"><ele>278.0</ele><time>2026-04-04T13:24:49.001Z</time></trkpt><trkpt lat="43.662202816209835" lon="11.185243588843655"><ele>278.0</ele><time>2026-04-04T13:24:51.001Z</time></trkpt><trkpt lat="43.66218709123363" lon="11.185109261268504"><ele>278.0</ele><time>2026-04-04T13:24:53.001Z</time></trkpt><trkpt lat="43.66218463609542" lon="11.184961267943265"><ele>278.0</ele><time>2026-04-04T13:24:55.001Z</time></trkpt><trkpt lat="43.66218507990257" lon="11.184810508963457"><ele>278.0</ele><time>2026-04-04T13:24:57Z</time></trkpt><trkpt lat="43.66220127146165" lon="11.18466753575124"><ele>279.1666666666667</ele><time>2026-04-04T13:24:59Z</time></trkpt><trkpt lat="43.66222408351175" lon="11.18453241224253"><ele>280.33333333333337</ele><time>2026-04-04T13:25:01Z</time></trkpt><trkpt lat="43.662248528468346" lon="11.184417898248045"><ele>281.5</ele><time>2026-04-04T13:25:03Z</time></trkpt><trkpt lat="43.66226777575738" lon="11.184328901742205"><ele>282.6666666666667</ele><time>2026-04-04T13:25:05Z</time></trkpt><trkpt lat="43.662307628728186" lon="11.184249390015735"><ele>283.8333333333333</ele><time>2026-04-04T13:25:08Z</time></trkpt><trkpt lat="43.66235280479995" lon="11.184165187692916"><ele>285.0</ele><time>2026-04-04T13:25:11Z</time></trkpt><trkpt lat="43.66242431737374" lon="11.1840808635969"><ele>285.0</ele><time>2026-04-04T13:25:14Z</time></trkpt><trkpt lat="43.662491405850744" lon="11.184034281192123"><ele>285.0</ele><time>2026-04-04T13:25:16Z</time></trkpt><trkpt lat="43.662565632384506" lon="11.184006351583264"><ele>285.0</ele><time>2026-04-04T13:25:18Z</time></trkpt><trkpt lat="43.662649937435205" lon="11.183983826789602"><ele>285.0</ele><time>2026-04-04T13:25:20Z</time></trkpt><trkpt lat="43.662743559762944" lon="11.18398491763864"><ele>285.0</ele><time>2026-04-04T13:25:22Z</time></trkpt><trkpt lat="43.66284305600122" lon="11.184004533692073"><ele>285.0</ele><time>2026-04-04T13:25:24Z</time></trkpt><trkpt lat="43.66293703307603" lon="11.18403938730298"><ele>284.4</ele><time>2026-04-04T13:25:26Z</time></trkpt><trkpt lat="43.66303811756537" lon="11.184062971343556"><ele>283.8</ele><time>2026-04-04T13:25:28Z</time></trkpt><trkpt lat="43.66313598336346" lon="11.184111960112167"><ele>283.2</ele><time>2026-04-04T13:25:30Z</time></trkpt><trkpt lat="43.663251595257954" lon="11.184156670940766"><ele>282.6</ele><time>2026-04-04T13:25:32Z</time></trkpt><trkpt lat="43.663367120096346" lon="11.18419348530717"><ele>282.0</ele><time>2026-04-04T13:25:34Z</time></trkpt><trkpt lat="43.66348905330224" lon="11.184237777842695"><ele>282.0</ele><time>2026-04-04T13:25:36Z</time></trkpt><trkpt lat="43.663604614762306" lon="11.184284565143777"><ele>282.0</ele><time>2026-04-04T13:25:38Z</time></trkpt><trkpt lat="43.663666143877705" lon="11.184304281984586"><ele>282.0</ele><time>2026-04-04T13:25:39Z</time></trkpt><trkpt lat="43.66372975789812" lon="11.184322274927487"><ele>282.0</ele><time>2026-04-04T13:25:40Z</time></trkpt><trkpt lat="43.6637950599777" lon="11.184349634155803"><ele>282.0</ele><time>2026-04-04T13:25:41Z</time></trkpt><trkpt lat="43.663859204105826" lon="11.184378138008626"><ele>282.0</ele><time>2026-04-04T13:25:42Z</time></trkpt><trkpt lat="43.663922897291904" lon="11.184398609163283"><ele>282.0</ele><time>2026-04-04T13:25:43Z</time></trkpt><trkpt lat="43.664042058762014" lon="11.18443594308922"><ele>282.0</ele><time>2026-04-04T13:25:45Z</time></trkpt><trkpt lat="43.664105411054436" lon="11.18444331817432"><ele>282.0</ele><time>2026-04-04T13:25:46Z</time></trkpt><trkpt lat="43.66416888356826" lon="11.184448023849985"><ele>282.0</ele><time>2026-04-04T13:25:47Z</time></trkpt><trkpt lat="43.664284324104266" lon="11.184452514981304"><ele>282.0</ele><time>2026-04-04T13:25:49Z</time></trkpt><trkpt lat="43.66444555645886" lon="11.18440001509665"><ele>282.0</ele><time>2026-04-04T13:25:52Z</time></trkpt><trkpt lat="43.66453468804409" lon="11.18431566341221"><ele>280.2</ele><time>2026-04-04T13:25:54Z</time></trkpt><trkpt lat="43.66460909875538" lon="11.184215268473702"><ele>278.4</ele><time>2026-04-04T13:25:56Z</time></trkpt><trkpt lat="43.66466416535325" lon="11.184092054241669"><ele>276.6</ele><time>2026-04-04T13:25:58Z</time></trkpt><trkpt lat="43.66469935974978" lon="11.183961082421257"><ele>274.8</ele><time>2026-04-04T13:26:00Z</time></trkpt><trkpt lat="43.66471165268437" lon="11.183829826838364"><ele>273.0</ele><time>2026-04-04T13:26:02Z</time></trkpt><trkpt lat="43.664709917113" lon="11.183704437998381"><ele>273.0</ele><time>2026-04-04T13:26:04Z</time></trkpt><trkpt lat="43.664692736613844" lon="11.18359042220492"><ele>273.0</ele><time>2026-04-04T13:26:06Z</time></trkpt><trkpt lat="43.66466178268352" lon="11.183481901771106"><ele>273.0</ele><time>2026-04-04T13:26:08Z</time></trkpt><trkpt lat="43.664627732615216" lon="11.183384505652683"><ele>273.0</ele><time>2026-04-04T13:26:10Z</time></trkpt><trkpt lat="43.66459409446432" lon="11.183304065132154"><ele>273.0</ele><time>2026-04-04T13:26:12Z</time></trkpt><trkpt lat="43.66455613227733" lon="11.183233985325398"><ele>273.0</ele><time>2026-04-04T13:26:14Z</time></trkpt><trkpt lat="43.6645181413898" lon="11.183158578772169"><ele>273.0</ele><time>2026-04-04T13:26:16Z</time></trkpt><trkpt lat="43.664471329190114" lon="11.183055046532852"><ele>275.3333333333333</ele><time>2026-04-04T13:26:19Z</time></trkpt><trkpt lat="43.66442333541054" lon="11.182963354289534"><ele>277.6666666666667</ele><time>2026-04-04T13:26:22Z</time></trkpt><trkpt lat="43.664376718432784" lon="11.182872219445553"><ele>280.0</ele><time>2026-04-04T13:26:25Z</time></trkpt><trkpt lat="43.66433565694478" lon="11.182777878424844"><ele>282.33333333333337</ele><time>2026-04-04T13:26:28Z</time></trkpt><trkpt lat="43.66429391953576" lon="11.18268930077724"><ele>284.6666666666667</ele><time>2026-04-04T13:26:31Z</time></trkpt><trkpt lat="43.66424370461891" lon="11.1826107384837"><ele>287.0</ele><time>2026-04-04T13:26:34Z</time></trkpt><trkpt lat="43.66420234629812" lon="11.182516777637435"><ele>287.0</ele><time>2026-04-04T13:26:37Z</time></trkpt><trkpt lat="43.66415912993683" lon="11.182425382998307"><ele>287.0</ele><time>2026-04-04T13:26:40Z</time></trkpt><trkpt lat="43.66411171249908" lon="11.182332299592087"><ele>287.0</ele><time>2026-04-04T13:26:43Z</time></trkpt><trkpt lat="43.66406136735873" lon="11.182238269770092"><ele>287.0</ele><time>2026-04-04T13:26:46Z</time></trkpt><trkpt lat="43.66401332695346" lon="11.182144847127924"><ele>287.0</ele><time>2026-04-04T13:26:49Z</time></trkpt><trkpt lat="43.66396710921996" lon="11.182045775700743"><ele>287.0</ele><time>2026-04-04T13:26:52.001Z</time></trkpt><trkpt lat="43.663918703229854" lon="11.1819444132193"><ele>287.0</ele><time>2026-04-04T13:26:55.001Z</time></trkpt><trkpt lat="43.66386791980077" lon="11.181844004228322"><ele>287.0</ele><time>2026-04-04T13:26:58.001Z</time></trkpt><trkpt lat="43.663814588179214" lon="11.18174640580695"><ele>287.0</ele><time>2026-04-04T13:27:01.001Z</time></trkpt><trkpt lat="43.663779426389574" lon="11.181672257213922"><ele>287.0</ele><time>2026-04-04T13:27:03.001Z</time></trkpt><trkpt lat="43.663752908476894" lon="11.181590930633961"><ele>287.0</ele><time>2026-04-04T13:27:05Z</time></trkpt><trkpt lat="43.66372439547323" lon="11.181509807305428"><ele>287.0</ele><time>2026-04-04T13:27:07Z</time></trkpt><trkpt lat="43.6637106131377" lon="11.18141734581816"><ele>287.0</ele><time>2026-04-04T13:27:09Z</time></trkpt><trkpt lat="43.66370061543914" lon="11.181330561801031"><ele>287.0</ele><time>2026-04-04T13:27:11Z</time></trkpt><trkpt lat="43.663707663279716" lon="11.1812433923104"><ele>287.0</ele><time>2026-04-04T13:27:13Z</time></trkpt><trkpt lat="43.66372627052203" lon="11.18111375001524"><ele>287.0</ele><time>2026-04-04T13:27:16Z</time></trkpt><trkpt lat="43.66375039241679" lon="11.181032120598516"><ele>287.0</ele><time>2026-04-04T13:27:18Z</time></trkpt><trkpt lat="43.66378122948534" lon="11.180955494961536"><ele>287.0</ele><time>2026-04-04T13:27:20Z</time></trkpt><trkpt lat="43.66381925674858" lon="11.180883107434104"><ele>287.0</ele><time>2026-04-04T13:27:22Z</time></trkpt><trkpt lat="43.66386357620342" lon="11.18081470286284"><ele>287.0</ele><time>2026-04-04T13:27:24Z</time></trkpt><trkpt lat="43.66391720797414" lon="11.180758761609786"><ele>287.0</ele><time>2026-04-04T13:27:26Z</time></trkpt><trkpt lat="43.66397434865793" lon="11.180720880062552"><ele>287.0</ele><time>2026-04-04T13:27:28Z</time></trkpt><trkpt lat="43.664034357944985" lon="11.180685640095705"><ele>287.0</ele><time>2026-04-04T13:27:30Z</time></trkpt><trkpt lat="43.66412139931174" lon="11.180657606216432"><ele>287.0</ele><time>2026-04-04T13:27:33Z</time></trkpt><trkpt lat="43.66418388870115" lon="11.18063717337044"><ele>287.0</ele><time>2026-04-04T13:27:35Z</time></trkpt><trkpt lat="43.66424614357181" lon="11.180620290957135"><ele>287.0</ele><time>2026-04-04T13:27:37Z</time></trkpt><trkpt lat="43.664335532978285" lon="11.180642939002864"><ele>287.0</ele><time>2026-04-04T13:27:40Z</time></trkpt><trkpt lat="43.664424175949016" lon="11.180657293253628"><ele>288.57142857142856</ele><time>2026-04-04T13:27:43Z</time></trkpt><trkpt lat="43.66446977823171" lon="11.180596276656788"><ele>290.1428571428571</ele><time>2026-04-04T13:27:45Z</time></trkpt><trkpt lat="43.664489557461614" lon="11.180470802294575"><ele>291.7142857142857</ele><time>2026-04-04T13:27:48Z</time></trkpt><trkpt lat="43.66446148698369" lon="11.180347852905827"><ele>293.2857142857143</ele><time>2026-04-04T13:27:51Z</time></trkpt><trkpt lat="43.66441310172614" lon="11.180292155106143"><ele>294.85714285714283</ele><time>2026-04-04T13:27:53Z</time></trkpt><trkpt lat="43.66435276183934" lon="11.18025800116174"><ele>296.42857142857144</ele><time>2026-04-04T13:27:55Z</time></trkpt><trkpt lat="43.6642907589222" lon="11.180235147547679"><ele>298.0</ele><time>2026-04-04T13:27:57Z</time></trkpt><trkpt lat="43.66422510571552" lon="11.180226176320192"><ele>298.0</ele><time>2026-04-04T13:27:59Z</time></trkpt><trkpt lat="43.66415799038809" lon="11.180227884538574"><ele>298.0</ele><time>2026-04-04T13:28:01Z</time></trkpt><trkpt lat="43.66409514644322" lon="11.180213598816568"><ele>298.0</ele><time>2026-04-04T13:28:03Z</time></trkpt><trkpt lat="43.66400809803095" lon="11.180209883284197"><ele>298.0</ele><time>2026-04-04T13:28:06Z</time></trkpt><trkpt lat="43.66392872330269" lon="11.180203080224107"><ele>298.0</ele><time>2026-04-04T13:28:09Z</time></trkpt><trkpt lat="43.66385361787582" lon="11.18019699193287"><ele>298.0</ele><time>2026-04-04T13:28:12Z</time></trkpt><trkpt lat="43.66378535744363" lon="11.180196509679744"><ele>298.0</ele><time>2026-04-04T13:28:15Z</time></trkpt><trkpt lat="43.66372169744152" lon="11.180206480387916"><ele>298.0</ele><time>2026-04-04T13:28:18Z</time></trkpt><trkpt lat="43.66366024725982" lon="11.180228264473138"><ele>298.0</ele><time>2026-04-04T13:28:21Z</time></trkpt><trkpt lat="43.663585321043556" lon="11.180268622938936"><ele>298.0</ele><time>2026-04-04T13:28:25Z</time></trkpt><trkpt lat="43.66352180088474" lon="11.180299689846741"><ele>298.0</ele><time>2026-04-04T13:28:28Z</time></trkpt><trkpt lat="43.66346193366766" lon="11.180327973125138"><ele>298.0</ele><time>2026-04-04T13:28:31Z</time></trkpt><trkpt lat="43.663398792361725" lon="11.180348049406385"><ele>298.0</ele><time>2026-04-04T13:28:34Z</time></trkpt><trkpt lat="43.663333301675316" lon="11.180369718538289"><ele>298.0</ele><time>2026-04-04T13:28:37Z</time></trkpt><trkpt lat="43.66325812070048" lon="11.180345942786289"><ele>298.0</ele><time>2026-04-04T13:28:41Z</time></trkpt><trkpt lat="43.663181918252626" lon="11.180311769686735"><ele>298.0</ele><time>2026-04-04T13:28:45Z</time></trkpt><trkpt lat="43.66312522321315" lon="11.180272849232358"><ele>298.0</ele><time>2026-04-04T13:28:48Z</time></trkpt><trkpt lat="43.663062564004434" lon="11.180211160265973"><ele>298.0</ele><time>2026-04-04T13:28:52Z</time></trkpt><trkpt lat="43.663006199175626" lon="11.180132744180735"><ele>298.0</ele><time>2026-04-04T13:28:56Z</time></trkpt><trkpt lat="43.66295598746128" lon="11.180070878373352"><ele>298.0</ele><time>2026-04-04T13:28:59Z</time></trkpt><trkpt lat="43.662908665129244" lon="11.18000784406106"><ele>298.0</ele><time>2026-04-04T13:29:02Z</time></trkpt><trkpt lat="43.662859021435295" lon="11.179938834044293"><ele>298.0</ele><time>2026-04-04T13:29:05Z</time></trkpt><trkpt lat="43.66279541886354" lon="11.17985779053593"><ele>298.0</ele><time>2026-04-04T13:29:09Z</time></trkpt><trkpt lat="43.66275062222793" lon="11.179771607938314"><ele>298.0</ele><time>2026-04-04T13:29:12Z</time></trkpt><trkpt lat="43.66275096678836" lon="11.179678597444417"><ele>298.0</ele><time>2026-04-04T13:29:15Z</time></trkpt><trkpt lat="43.662738692206624" lon="11.179573411040469"><ele>298.0</ele><time>2026-04-04T13:29:20Z</time></trkpt><trkpt lat="43.662788690878564" lon="11.179499504680052"><ele>298.0</ele><time>2026-04-04T13:29:23Z</time></trkpt><trkpt lat="43.662831416341525" lon="11.179396019920398"><ele>298.85714285714283</ele><time>2026-04-04T13:29:26Z</time></trkpt><trkpt lat="43.66288353562858" lon="11.179285966789356"><ele>299.71428571428567</ele><time>2026-04-04T13:29:29Z</time></trkpt><trkpt lat="43.662935374160995" lon="11.179225929405282"><ele>300.57142857142856</ele><time>2026-04-04T13:29:31Z</time></trkpt><trkpt lat="43.66298221397316" lon="11.179157601720032"><ele>301.42857142857144</ele><time>2026-04-04T13:29:33Z</time></trkpt><trkpt lat="43.663032970425476" lon="11.179095469878495"><ele>302.28571428571433</ele><time>2026-04-04T13:29:35Z</time></trkpt><trkpt lat="43.66308599800706" lon="11.17903916846917"><ele>303.1428571428571</ele><time>2026-04-04T13:29:37Z</time></trkpt><trkpt lat="43.66313401374627" lon="11.178979759881102"><ele>304.0</ele><time>2026-04-04T13:29:39Z</time></trkpt><trkpt lat="43.66318862535424" lon="11.178921558454814"><ele>304.66666666666663</ele><time>2026-04-04T13:29:41Z</time></trkpt><trkpt lat="43.663240939565135" lon="11.17887290346392"><ele>305.3333333333333</ele><time>2026-04-04T13:29:43Z</time></trkpt><trkpt lat="43.66329809298059" lon="11.178817484237962"><ele>306.0</ele><time>2026-04-04T13:29:45Z</time></trkpt><trkpt lat="43.663353417221465" lon="11.178754417075295"><ele>306.6666666666667</ele><time>2026-04-04T13:29:47Z</time></trkpt><trkpt lat="43.66340300814699" lon="11.178694973884118"><ele>307.33333333333337</ele><time>2026-04-04T13:29:49Z</time></trkpt><trkpt lat="43.66346051769113" lon="11.178594360485254"><ele>308.0</ele><time>2026-04-04T13:29:52Z</time></trkpt><trkpt lat="43.663509273191345" lon="11.178488768451059"><ele>308.0</ele><time>2026-04-04T13:29:55Z</time></trkpt><trkpt lat="43.66355328862473" lon="11.17838506755572"><ele>308.0</ele><time>2026-04-04T13:29:58Z</time></trkpt><trkpt lat="43.66359415044165" lon="11.178278547079922"><ele>308.0</ele><time>2026-04-04T13:30:01Z</time></trkpt><trkpt lat="43.66363815231097" lon="11.178173163660318"><ele>308.0</ele><time>2026-04-04T13:30:04Z</time></trkpt><trkpt lat="43.663689135619826" lon="11.178099924935825"><ele>308.0</ele><time>2026-04-04T13:30:06Z</time></trkpt><trkpt lat="43.66375699308866" lon="11.178019740253616"><ele>308.0</ele><time>2026-04-04T13:30:08Z</time></trkpt><trkpt lat="43.66386040534308" lon="11.177966052901361"><ele>306.25</ele><time>2026-04-04T13:30:10Z</time></trkpt><trkpt lat="43.66397019214645" lon="11.177891922832869"><ele>304.5</ele><time>2026-04-04T13:30:12Z</time></trkpt><trkpt lat="43.66408427947762" lon="11.177829860515473"><ele>302.75</ele><time>2026-04-04T13:30:14Z</time></trkpt><trkpt lat="43.6641949983953" lon="11.177759404550036"><ele>301.0</ele><time>2026-04-04T13:30:16Z</time></trkpt><trkpt lat="43.66430816319375" lon="11.177700367741156"><ele>301.0</ele><time>2026-04-04T13:30:18Z</time></trkpt><trkpt lat="43.664424707531374" lon="11.177647465073346"><ele>301.0</ele><time>2026-04-04T13:30:20Z</time></trkpt><trkpt lat="43.664533615319684" lon="11.177589655530943"><ele>301.0</ele><time>2026-04-04T13:30:22Z</time></trkpt><trkpt lat="43.66464850472254" lon="11.17752913603127"><ele>301.0</ele><time>2026-04-04T13:30:24Z</time></trkpt><trkpt lat="43.66475793159684" lon="11.177467395289982"><ele>301.40000000000003</ele><time>2026-04-04T13:30:26Z</time></trkpt><trkpt lat="43.66486669231993" lon="11.177410410683592"><ele>301.8</ele><time>2026-04-04T13:30:28Z</time></trkpt><trkpt lat="43.664971591163756" lon="11.17735428960756"><ele>302.20000000000005</ele><time>2026-04-04T13:30:30Z</time></trkpt><trkpt lat="43.665069401674565" lon="11.177298784310835"><ele>302.6</ele><time>2026-04-04T13:30:32Z</time></trkpt><trkpt lat="43.66516948669398" lon="11.177236949728796"><ele>303.0</ele><time>2026-04-04T13:30:34Z</time></trkpt><trkpt lat="43.66526108744306" lon="11.177165657980074"><ele>302.8</ele><time>2026-04-04T13:30:36Z</time></trkpt><trkpt lat="43.66534963680958" lon="11.177074999277245"><ele>302.6</ele><time>2026-04-04T13:30:38Z</time></trkpt><trkpt lat="43.66543571067638" lon="11.176970624088224"><ele>302.4</ele><time>2026-04-04T13:30:40Z</time></trkpt><trkpt lat="43.66547696300584" lon="11.176901351692193"><ele>302.2</ele><time>2026-04-04T13:30:41Z</time></trkpt><trkpt lat="43.665531161243116" lon="11.176839571541205"><ele>302.0</ele><time>2026-04-04T13:30:42Z</time></trkpt><trkpt lat="43.66560517058703" lon="11.176714706730726"><ele>302.0</ele><time>2026-04-04T13:30:44Z</time></trkpt><trkpt lat="43.66566459464841" lon="11.176580263698396"><ele>302.0</ele><time>2026-04-04T13:30:46Z</time></trkpt><trkpt lat="43.66571727620777" lon="11.176450809517219"><ele>302.0</ele><time>2026-04-04T13:30:48Z</time></trkpt><trkpt lat="43.6657418803178" lon="11.17632430445907"><ele>302.0</ele><time>2026-04-04T13:30:50Z</time></trkpt><trkpt lat="43.665750003270645" lon="11.176196873478059"><ele>302.0</ele><time>2026-04-04T13:30:52Z</time></trkpt><trkpt lat="43.665749323886295" lon="11.176070821007748"><ele>302.0</ele><time>2026-04-04T13:30:54Z</time></trkpt><trkpt lat="43.665733793431606" lon="11.175936583392572"><ele>302.0</ele><time>2026-04-04T13:30:56Z</time></trkpt><trkpt lat="43.66572155565507" lon="11.175802072732456"><ele>302.0</ele><time>2026-04-04T13:30:58Z</time></trkpt><trkpt lat="43.66570620564753" lon="11.17566394811223"><ele>302.0</ele><time>2026-04-04T13:31:00Z</time></trkpt><trkpt lat="43.665680812497904" lon="11.17551810619064"><ele>302.0</ele><time>2026-04-04T13:31:02Z</time></trkpt><trkpt lat="43.665653358799325" lon="11.175350318997845"><ele>302.1666666666667</ele><time>2026-04-04T13:31:04Z</time></trkpt><trkpt lat="43.66562907768424" lon="11.175172678592316"><ele>302.33333333333337</ele><time>2026-04-04T13:31:06Z</time></trkpt><trkpt lat="43.66561581363543" lon="11.175081763691459"><ele>302.5</ele><time>2026-04-04T13:31:07Z</time></trkpt><trkpt lat="43.66560076774964" lon="11.174989279596621"><ele>302.6666666666667</ele><time>2026-04-04T13:31:08Z</time></trkpt><trkpt lat="43.6655866040392" lon="11.174893173625337"><ele>302.8333333333333</ele><time>2026-04-04T13:31:09Z</time></trkpt><trkpt lat="43.665568671035864" lon="11.174800708520493"><ele>303.0</ele><time>2026-04-04T13:31:10Z</time></trkpt><trkpt lat="43.66555117145365" lon="11.174706370357322"><ele>303.6666666666667</ele><time>2026-04-04T13:31:11Z</time></trkpt><trkpt lat="43.66552713193954" lon="11.174617794903387"><ele>304.3333333333333</ele><time>2026-04-04T13:31:12Z</time></trkpt><trkpt lat="43.6654965514301" lon="11.174533904766577"><ele>305.0</ele><time>2026-04-04T13:31:13Z</time></trkpt><trkpt lat="43.66545662343115" lon="11.17445638340311"><ele>305.66666666666663</ele><time>2026-04-04T13:31:14Z</time></trkpt><trkpt lat="43.66541345372457" lon="11.174389031398508"><ele>306.3333333333333</ele><time>2026-04-04T13:31:15Z</time></trkpt><trkpt lat="43.66534275226702" lon="11.174250256806845"><ele>307.0</ele><time>2026-04-04T13:31:17Z</time></trkpt><trkpt lat="43.66530346665925" lon="11.174177534482311"><ele>305.1428571428571</ele><time>2026-04-04T13:31:18Z</time></trkpt><trkpt lat="43.665259056979345" lon="11.174107411113614"><ele>303.2857142857143</ele><time>2026-04-04T13:31:19Z</time></trkpt><trkpt lat="43.66522085041815" lon="11.174034958755357"><ele>301.42857142857144</ele><time>2026-04-04T13:31:20Z</time></trkpt><trkpt lat="43.66519299917841" lon="11.173947102152948"><ele>299.57142857142856</ele><time>2026-04-04T13:31:21Z</time></trkpt><trkpt lat="43.665169496665946" lon="11.173856542650826"><ele>297.7142857142857</ele><time>2026-04-04T13:31:22Z</time></trkpt><trkpt lat="43.6651657655189" lon="11.1737634401088"><ele>295.85714285714283</ele><time>2026-04-04T13:31:23Z</time></trkpt><trkpt lat="43.66515300853035" lon="11.173674594472907"><ele>294.0</ele><time>2026-04-04T13:31:24Z</time></trkpt><trkpt lat="43.665136153401576" lon="11.173590245914419"><ele>294.0</ele><time>2026-04-04T13:31:25Z</time></trkpt><trkpt lat="43.66512979749676" lon="11.17350331304045"><ele>294.0</ele><time>2026-04-04T13:31:26Z</time></trkpt><trkpt lat="43.66510850122001" lon="11.173342821139352"><ele>294.0</ele><time>2026-04-04T13:31:28Z</time></trkpt><trkpt lat="43.66509362555951" lon="11.173186479432514"><ele>294.0</ele><time>2026-04-04T13:31:30Z</time></trkpt><trkpt lat="43.6650802489022" lon="11.17303892391105"><ele>294.0</ele><time>2026-04-04T13:31:32Z</time></trkpt><trkpt lat="43.665061330400746" lon="11.172898446434013"><ele>295.0</ele><time>2026-04-04T13:31:34Z</time></trkpt><trkpt lat="43.66504203872805" lon="11.172759332882515"><ele>296.0</ele><time>2026-04-04T13:31:36Z</time></trkpt><trkpt lat="43.66502185513231" lon="11.172625073413036"><ele>297.0</ele><time>2026-04-04T13:31:38Z</time></trkpt><trkpt lat="43.66500550859688" lon="11.172496991925957"><ele>298.0</ele><time>2026-04-04T13:31:40Z</time></trkpt><trkpt lat="43.66499222253417" lon="11.172371308797631"><ele>299.0</ele><time>2026-04-04T13:31:42Z</time></trkpt><trkpt lat="43.664969209225795" lon="11.172255580511907"><ele>299.0</ele><time>2026-04-04T13:31:44Z</time></trkpt><trkpt lat="43.66495484186084" lon="11.17213765815104"><ele>299.0</ele><time>2026-04-04T13:31:46Z</time></trkpt><trkpt lat="43.6649395802749" lon="11.172018856652501"><ele>299.0</ele><time>2026-04-04T13:31:48Z</time></trkpt><trkpt lat="43.66492813825022" lon="11.171908123246581"><ele>299.0</ele><time>2026-04-04T13:31:50Z</time></trkpt><trkpt lat="43.664918124696705" lon="11.171802966388618"><ele>299.0</ele><time>2026-04-04T13:31:52Z</time></trkpt><trkpt lat="43.66491060514762" lon="11.1717042215792"><ele>299.0</ele><time>2026-04-04T13:31:54Z</time></trkpt><trkpt lat="43.66490164800733" lon="11.171609817497712"><ele>299.42857142857144</ele><time>2026-04-04T13:31:56Z</time></trkpt><trkpt lat="43.66489156959062" lon="11.171517526399175"><ele>299.8571428571429</ele><time>2026-04-04T13:31:58Z</time></trkpt><trkpt lat="43.66488608650998" lon="11.171424798864562"><ele>300.28571428571433</ele><time>2026-04-04T13:32:00Z</time></trkpt><trkpt lat="43.664878763123454" lon="11.171332077013163"><ele>300.7142857142857</ele><time>2026-04-04T13:32:02Z</time></trkpt><trkpt lat="43.664876110050585" lon="11.17123861515959"><ele>301.14285714285717</ele><time>2026-04-04T13:32:04Z</time></trkpt><trkpt lat="43.664874834619035" lon="11.171139651140445"><ele>301.5714285714286</ele><time>2026-04-04T13:32:06Z</time></trkpt><trkpt lat="43.66486660030888" lon="11.171033391753515"><ele>302.0</ele><time>2026-04-04T13:32:08Z</time></trkpt><trkpt lat="43.664872562820236" lon="11.17093274551533"><ele>302.0</ele><time>2026-04-04T13:32:10Z</time></trkpt><trkpt lat="43.6648665356768" lon="11.17083517412505"><ele>302.0</ele><time>2026-04-04T13:32:12Z</time></trkpt><trkpt lat="43.66485480105401" lon="11.170719570071281"><ele>302.0</ele><time>2026-04-04T13:32:14Z</time></trkpt><trkpt lat="43.664834156404275" lon="11.1706019413121"><ele>302.0</ele><time>2026-04-04T13:32:16Z</time></trkpt><trkpt lat="43.664808958863155" lon="11.17045751075201"><ele>302.0</ele><time>2026-04-04T13:32:18Z</time></trkpt><trkpt lat="43.66477915354846" lon="11.170308689417615"><ele>301.1666666666667</ele><time>2026-04-04T13:32:20Z</time></trkpt><trkpt lat="43.66473628600581" lon="11.170153898188499"><ele>300.33333333333337</ele><time>2026-04-04T13:32:22Z</time></trkpt><trkpt lat="43.6647085312885" lon="11.170069212255928"><ele>299.5</ele><time>2026-04-04T13:32:23Z</time></trkpt><trkpt lat="43.66467970305083" lon="11.16998199877594"><ele>298.6666666666667</ele><time>2026-04-04T13:32:24Z</time></trkpt><trkpt lat="43.66464175207294" lon="11.169898116466516"><ele>297.8333333333333</ele><time>2026-04-04T13:32:25Z</time></trkpt><trkpt lat="43.66459562485754" lon="11.169810987003228"><ele>297.0</ele><time>2026-04-04T13:32:26Z</time></trkpt><trkpt lat="43.66454054266278" lon="11.169728516919516"><ele>296.6666666666667</ele><time>2026-04-04T13:32:27Z</time></trkpt><trkpt lat="43.66448485072956" lon="11.169641079682023"><ele>296.3333333333333</ele><time>2026-04-04T13:32:28Z</time></trkpt><trkpt lat="43.66443249619099" lon="11.169554729008675"><ele>296.0</ele><time>2026-04-04T13:32:29Z</time></trkpt><trkpt lat="43.66438521192534" lon="11.169468438815354"><ele>295.66666666666663</ele><time>2026-04-04T13:32:30Z</time></trkpt><trkpt lat="43.6643408710068" lon="11.169377937989847"><ele>295.3333333333333</ele><time>2026-04-04T13:32:31Z</time></trkpt><trkpt lat="43.66430215658685" lon="11.169293619059589"><ele>295.0</ele><time>2026-04-04T13:32:32Z</time></trkpt><trkpt lat="43.664268195142675" lon="11.169208071017119"><ele>295.0</ele><time>2026-04-04T13:32:33Z</time></trkpt><trkpt lat="43.66423998864536" lon="11.169122216044839"><ele>295.0</ele><time>2026-04-04T13:32:34Z</time></trkpt><trkpt lat="43.66420697319014" lon="11.169046468802566"><ele>295.0</ele><time>2026-04-04T13:32:35Z</time></trkpt><trkpt lat="43.664160968347495" lon="11.168889683767578"><ele>295.0</ele><time>2026-04-04T13:32:37Z</time></trkpt><trkpt lat="43.664140900703345" lon="11.168731428016617"><ele>295.0</ele><time>2026-04-04T13:32:39Z</time></trkpt><trkpt lat="43.66414334291476" lon="11.168580166716248"><ele>295.4</ele><time>2026-04-04T13:32:40.999Z</time></trkpt><trkpt lat="43.6641545908244" lon="11.168432470975583"><ele>295.8</ele><time>2026-04-04T13:32:42.999Z</time></trkpt><trkpt lat="43.66416997546365" lon="11.168286551240092"><ele>296.2</ele><time>2026-04-04T13:32:44.999Z</time></trkpt><trkpt lat="43.66418665005236" lon="11.168145813689993"><ele>296.6</ele><time>2026-04-04T13:32:46.999Z</time></trkpt><trkpt lat="43.6641980196686" lon="11.168004401206158"><ele>297.0</ele><time>2026-04-04T13:32:48.999Z</time></trkpt><trkpt lat="43.664213492096614" lon="11.167864398920909"><ele>298.0</ele><time>2026-04-04T13:32:50.999Z</time></trkpt><trkpt lat="43.664246245528894" lon="11.16772682076376"><ele>299.0</ele><time>2026-04-04T13:32:52.999Z</time></trkpt><trkpt lat="43.66429721595148" lon="11.16760034647729"><ele>300.0</ele><time>2026-04-04T13:32:54.999Z</time></trkpt><trkpt lat="43.66437357501324" lon="11.167492299967849"><ele>301.0</ele><time>2026-04-04T13:32:56.999Z</time></trkpt><trkpt lat="43.664433935935634" lon="11.167394629466726"><ele>302.0</ele><time>2026-04-04T13:32:58.999Z</time></trkpt><trkpt lat="43.66448888925806" lon="11.16730280405474"><ele>302.1666666666667</ele><time>2026-04-04T13:33:00.999Z</time></trkpt><trkpt lat="43.66453936689905" lon="11.167224327366831"><ele>302.33333333333337</ele><time>2026-04-04T13:33:02.999Z</time></trkpt><trkpt lat="43.66458713874446" lon="11.167157305020371"><ele>302.5</ele><time>2026-04-04T13:33:04.999Z</time></trkpt><trkpt lat="43.66462741748015" lon="11.167089558596999"><ele>302.6666666666667</ele><time>2026-04-04T13:33:06.999Z</time></trkpt><trkpt lat="43.664683252324856" lon="11.166981994462715"><ele>302.8333333333333</ele><time>2026-04-04T13:33:10Z</time></trkpt><trkpt lat="43.66473381978783" lon="11.166874675797551"><ele>303.0</ele><time>2026-04-04T13:33:13Z</time></trkpt><trkpt lat="43.66478538459595" lon="11.166767676305984"><ele>303.0</ele><time>2026-04-04T13:33:16Z</time></trkpt><trkpt lat="43.66482336143832" lon="11.166695355274868"><ele>303.0</ele><time>2026-04-04T13:33:18Z</time></trkpt><trkpt lat="43.66486049902973" lon="11.166620123777161"><ele>303.0</ele><time>2026-04-04T13:33:20Z</time></trkpt><trkpt lat="43.66490081073194" lon="11.166547028143613"><ele>303.0</ele><time>2026-04-04T13:33:22Z</time></trkpt><trkpt lat="43.664946157507806" lon="11.166473625125311"><ele>303.0</ele><time>2026-04-04T13:33:24Z</time></trkpt><trkpt lat="43.66499882152526" lon="11.16639985108724"><ele>303.0</ele><time>2026-04-04T13:33:26Z</time></trkpt><trkpt lat="43.665055543908245" lon="11.166324817837603"><ele>303.0</ele><time>2026-04-04T13:33:28Z</time></trkpt><trkpt lat="43.665108780557645" lon="11.16623788075094"><ele>303.0</ele><time>2026-04-04T13:33:30Z</time></trkpt><trkpt lat="43.6651705033358" lon="11.166146038985556"><ele>303.0</ele><time>2026-04-04T13:33:32Z</time></trkpt><trkpt lat="43.665235468095695" lon="11.166058926956815"><ele>303.0</ele><time>2026-04-04T13:33:34Z</time></trkpt><trkpt lat="43.66530400100649" lon="11.165950198778123"><ele>303.0</ele><time>2026-04-04T13:33:36Z</time></trkpt><trkpt lat="43.66538181008167" lon="11.165824035560398"><ele>303.0</ele><time>2026-04-04T13:33:38Z</time></trkpt><trkpt lat="43.66547064981717" lon="11.165686277197262"><ele>302.1666666666667</ele><time>2026-04-04T13:33:40Z</time></trkpt><trkpt lat="43.66552044323668" lon="11.165610398070564"><ele>301.3333333333333</ele><time>2026-04-04T13:33:41Z</time></trkpt><trkpt lat="43.6655727301119" lon="11.165532848109285"><ele>300.5</ele><time>2026-04-04T13:33:42Z</time></trkpt><trkpt lat="43.66562359319237" lon="11.165451183075604"><ele>299.66666666666663</ele><time>2026-04-04T13:33:43Z</time></trkpt><trkpt lat="43.665681881093846" lon="11.165362962107444"><ele>298.8333333333333</ele><time>2026-04-04T13:33:44Z</time></trkpt><trkpt lat="43.665734236135386" lon="11.16527629362523"><ele>298.0</ele><time>2026-04-04T13:33:45Z</time></trkpt><trkpt lat="43.66579676239778" lon="11.16518991115091"><ele>298.0</ele><time>2026-04-04T13:33:46Z</time></trkpt><trkpt lat="43.66585814241425" lon="11.165103209485633"><ele>298.0</ele><time>2026-04-04T13:33:47Z</time></trkpt><trkpt lat="43.665920882724286" lon="11.165022033251818"><ele>298.0</ele><time>2026-04-04T13:33:48Z</time></trkpt><trkpt lat="43.66598714038776" lon="11.164947069334367"><ele>298.0</ele><time>2026-04-04T13:33:49Z</time></trkpt><trkpt lat="43.666058379164944" lon="11.164882942439608"><ele>298.0</ele><time>2026-04-04T13:33:50Z</time></trkpt><trkpt lat="43.66613091495567" lon="11.16481549637869"><ele>298.0</ele><time>2026-04-04T13:33:51Z</time></trkpt><trkpt lat="43.66621200411148" lon="11.16475539729907"><ele>297.5</ele><time>2026-04-04T13:33:52Z</time></trkpt><trkpt lat="43.66628692130238" lon="11.164696780934191"><ele>297.0</ele><time>2026-04-04T13:33:53Z</time></trkpt><trkpt lat="43.66636642405664" lon="11.164640064670355"><ele>296.5</ele><time>2026-04-04T13:33:54Z</time></trkpt><trkpt lat="43.66644440236955" lon="11.164568882180616"><ele>296.0</ele><time>2026-04-04T13:33:55Z</time></trkpt><trkpt lat="43.66651657376903" lon="11.164513607617007"><ele>295.5</ele><time>2026-04-04T13:33:56Z</time></trkpt><trkpt lat="43.66658196740474" lon="11.164455188633443"><ele>295.0</ele><time>2026-04-04T13:33:57Z</time></trkpt><trkpt lat="43.66665478718623" lon="11.164401204793919"><ele>295.0</ele><time>2026-04-04T13:33:58Z</time></trkpt><trkpt lat="43.66672875398516" lon="11.164345205576623"><ele>295.0</ele><time>2026-04-04T13:33:59Z</time></trkpt><trkpt lat="43.666798882730085" lon="11.164288590220279"><ele>295.0</ele><time>2026-04-04T13:34:00Z</time></trkpt><trkpt lat="43.666868775702774" lon="11.16423186815889"><ele>295.0</ele><time>2026-04-04T13:34:01Z</time></trkpt><trkpt lat="43.66693701157234" lon="11.164177913756467"><ele>295.0</ele><time>2026-04-04T13:34:02Z</time></trkpt><trkpt lat="43.66701006252991" lon="11.164124043412189"><ele>295.0</ele><time>2026-04-04T13:34:03Z</time></trkpt><trkpt lat="43.66708054011377" lon="11.164062414608587"><ele>293.8333333333333</ele><time>2026-04-04T13:34:04Z</time></trkpt><trkpt lat="43.66714980687278" lon="11.164006053985002"><ele>292.66666666666663</ele><time>2026-04-04T13:34:05Z</time></trkpt><trkpt lat="43.66721703588292" lon="11.163947722882275"><ele>291.5</ele><time>2026-04-04T13:34:06Z</time></trkpt><trkpt lat="43.667282643881904" lon="11.163884595168824"><ele>290.3333333333333</ele><time>2026-04-04T13:34:07Z</time></trkpt><trkpt lat="43.667345889891116" lon="11.163818956948658"><ele>289.1666666666667</ele><time>2026-04-04T13:34:08Z</time></trkpt><trkpt lat="43.66740847078763" lon="11.163752750775254"><ele>288.0</ele><time>2026-04-04T13:34:09Z</time></trkpt><trkpt lat="43.66747406272097" lon="11.163687973521117"><ele>288.0</ele><time>2026-04-04T13:34:10Z</time></trkpt><trkpt lat="43.667537827598586" lon="11.163627803381292"><ele>288.0</ele><time>2026-04-04T13:34:11Z</time></trkpt><trkpt lat="43.667606375100256" lon="11.163561600130938"><ele>288.0</ele><time>2026-04-04T13:34:12Z</time></trkpt><trkpt lat="43.66766933581513" lon="11.16350728623648"><ele>288.0</ele><time>2026-04-04T13:34:13Z</time></trkpt><trkpt lat="43.66773256798954" lon="11.163435334547133"><ele>288.0</ele><time>2026-04-04T13:34:14Z</time></trkpt><trkpt lat="43.66779496239978" lon="11.163356925609385"><ele>288.0</ele><time>2026-04-04T13:34:15Z</time></trkpt><trkpt lat="43.6678532616682" lon="11.16329033470783"><ele>288.0</ele><time>2026-04-04T13:34:16Z</time></trkpt><trkpt lat="43.667917912540275" lon="11.163225300236125"><ele>288.0</ele><time>2026-04-04T13:34:17Z</time></trkpt><trkpt lat="43.6679824317778" lon="11.16315933161407"><ele>288.0</ele><time>2026-04-04T13:34:18Z</time></trkpt><trkpt lat="43.66804012114102" lon="11.163090390141264"><ele>288.0</ele><time>2026-04-04T13:34:19Z</time></trkpt><trkpt lat="43.668103554483146" lon="11.163025788917787"><ele>288.0</ele><time>2026-04-04T13:34:20Z</time></trkpt><trkpt lat="43.66816326478291" lon="11.162961971504384"><ele>288.0</ele><time>2026-04-04T13:34:21Z</time></trkpt><trkpt lat="43.66822267439223" lon="11.16289754154083"><ele>287.42857142857144</ele><time>2026-04-04T13:34:22Z</time></trkpt><trkpt lat="43.66828252769219" lon="11.162832311801104"><ele>286.8571428571429</ele><time>2026-04-04T13:34:23Z</time></trkpt><trkpt lat="43.668340447408376" lon="11.162765291658925"><ele>286.2857142857143</ele><time>2026-04-04T13:34:24Z</time></trkpt><trkpt lat="43.66839357440533" lon="11.162697176974406"><ele>285.7142857142857</ele><time>2026-04-04T13:34:25Z</time></trkpt><trkpt lat="43.66844012005984" lon="11.162624792436018"><ele>285.1428571428571</ele><time>2026-04-04T13:34:26Z</time></trkpt><trkpt lat="43.668483214407935" lon="11.162556717717974"><ele>284.57142857142856</ele><time>2026-04-04T13:34:27Z</time></trkpt><trkpt lat="43.668518826326995" lon="11.162483023698375"><ele>284.0</ele><time>2026-04-04T13:34:28Z</time></trkpt><trkpt lat="43.668552657336654" lon="11.162407289500072"><ele>286.0</ele><time>2026-04-04T13:34:29Z</time></trkpt><trkpt lat="43.66861209724131" lon="11.162258391192694"><ele>288.0</ele><time>2026-04-04T13:34:31Z</time></trkpt><trkpt lat="43.668651441294635" lon="11.162101512541568"><ele>290.0</ele><time>2026-04-04T13:34:33Z</time></trkpt><trkpt lat="43.66868225075954" lon="11.161948665235881"><ele>292.0</ele><time>2026-04-04T13:34:35Z</time></trkpt><trkpt lat="43.66870905793385" lon="11.161802833886359"><ele>292.0</ele><time>2026-04-04T13:34:37Z</time></trkpt><trkpt lat="43.66873060442042" lon="11.161668902380017"><ele>292.0</ele><time>2026-04-04T13:34:39Z</time></trkpt><trkpt lat="43.66875639086242" lon="11.161540178333373"><ele>292.0</ele><time>2026-04-04T13:34:41Z</time></trkpt><trkpt lat="43.66878269699957" lon="11.161411682090142"><ele>292.0</ele><time>2026-04-04T13:34:43Z</time></trkpt><trkpt lat="43.66881018767584" lon="11.161293691638775"><ele>292.0</ele><time>2026-04-04T13:34:45Z</time></trkpt><trkpt lat="43.66883258059291" lon="11.161185107974815"><ele>292.16666666666663</ele><time>2026-04-04T13:34:47Z</time></trkpt><trkpt lat="43.668858322541254" lon="11.161078406242373"><ele>292.3333333333333</ele><time>2026-04-04T13:34:49Z</time></trkpt><trkpt lat="43.668881778458626" lon="11.160972406459049"><ele>292.5</ele><time>2026-04-04T13:34:51Z</time></trkpt><trkpt lat="43.66891379528388" lon="11.160872881178811"><ele>292.6666666666667</ele><time>2026-04-04T13:34:53Z</time></trkpt><trkpt lat="43.66894482522877" lon="11.160765959132474"><ele>292.83333333333337</ele><time>2026-04-04T13:34:55Z</time></trkpt><trkpt lat="43.6689737470233" lon="11.160663718234767"><ele>293.0</ele><time>2026-04-04T13:34:57Z</time></trkpt><trkpt lat="43.66900405637897" lon="11.160555549959403"><ele>292.6666666666667</ele><time>2026-04-04T13:34:59Z</time></trkpt><trkpt lat="43.66903652923512" lon="11.160450456667878"><ele>292.33333333333337</ele><time>2026-04-04T13:35:01Z</time></trkpt><trkpt lat="43.66906920988696" lon="11.160347276516992"><ele>292.0</ele><time>2026-04-04T13:35:03Z</time></trkpt><trkpt lat="43.66909788951977" lon="11.160239668284083"><ele>291.6666666666667</ele><time>2026-04-04T13:35:05Z</time></trkpt><trkpt lat="43.669114452988346" lon="11.160142730832572"><ele>291.3333333333333</ele><time>2026-04-04T13:35:07Z</time></trkpt><trkpt lat="43.66914235545292" lon="11.160053824670081"><ele>291.0</ele><time>2026-04-04T13:35:09Z</time></trkpt><trkpt lat="43.66918320804351" lon="11.15992645325444"><ele>290.3333333333333</ele><time>2026-04-04T13:35:11.999Z</time></trkpt><trkpt lat="43.66920719989213" lon="11.159833657948738"><ele>289.6666666666667</ele><time>2026-04-04T13:35:14Z</time></trkpt><trkpt lat="43.669236323989544" lon="11.159739083721833"><ele>289.0</ele><time>2026-04-04T13:35:16Z</time></trkpt><trkpt lat="43.669263958574156" lon="11.159646515377442"><ele>288.33333333333337</ele><time>2026-04-04T13:35:18Z</time></trkpt><trkpt lat="43.66929398139145" lon="11.159548320304658"><ele>287.6666666666667</ele><time>2026-04-04T13:35:20Z</time></trkpt><trkpt lat="43.669325109926" lon="11.159442951155473"><ele>287.0</ele><time>2026-04-04T13:35:22Z</time></trkpt><trkpt lat="43.669355439267164" lon="11.15934543138865"><ele>287.0</ele><time>2026-04-04T13:35:24Z</time></trkpt><trkpt lat="43.66939227296359" lon="11.159249528772145"><ele>287.0</ele><time>2026-04-04T13:35:26Z</time></trkpt><trkpt lat="43.669413263933976" lon="11.15916537853628"><ele>287.0</ele><time>2026-04-04T13:35:28Z</time></trkpt><trkpt lat="43.66944004275425" lon="11.159080592727909"><ele>287.0</ele><time>2026-04-04T13:35:30Z</time></trkpt><trkpt lat="43.66946054533764" lon="11.158993953120957"><ele>287.0</ele><time>2026-04-04T13:35:32Z</time></trkpt><trkpt lat="43.669484558924594" lon="11.158901497830469"><ele>287.0</ele><time>2026-04-04T13:35:34Z</time></trkpt><trkpt lat="43.66951711717787" lon="11.15881725782772"><ele>287.0</ele><time>2026-04-04T13:35:36Z</time></trkpt><trkpt lat="43.669550317342164" lon="11.158728949155405"><ele>287.0</ele><time>2026-04-04T13:35:38Z</time></trkpt><trkpt lat="43.66958789657201" lon="11.158630653747707"><ele>287.0</ele><time>2026-04-04T13:35:40Z</time></trkpt><trkpt lat="43.66963861686591" lon="11.15851812025566"><ele>287.0</ele><time>2026-04-04T13:35:42Z</time></trkpt><trkpt lat="43.669702906662366" lon="11.158399079416164"><ele>287.0</ele><time>2026-04-04T13:35:44Z</time></trkpt><trkpt lat="43.66975842457328" lon="11.158289794990985"><ele>287.0</ele><time>2026-04-04T13:35:46Z</time></trkpt><trkpt lat="43.66979947948021" lon="11.158212744323247"><ele>285.5</ele><time>2026-04-04T13:35:48Z</time></trkpt><trkpt lat="43.669844492201136" lon="11.158105945718592"><ele>284.0</ele><time>2026-04-04T13:36:00Z</time></trkpt><trkpt lat="43.66989528827725" lon="11.15801474417555"><ele>282.5</ele><time>2026-04-04T13:36:02Z</time></trkpt><trkpt lat="43.669947277375414" lon="11.157925704882597"><ele>281.0</ele><time>2026-04-04T13:36:04Z</time></trkpt><trkpt lat="43.67001312657295" lon="11.157943108320744"><ele>279.5</ele><time>2026-04-04T13:36:21Z</time></trkpt><trkpt lat="43.67008395575384" lon="11.15796297422927"><ele>278.0</ele><time>2026-04-04T13:36:28Z</time></trkpt><trkpt lat="43.67016079790307" lon="11.157944338884574"><ele>278.0</ele><time>2026-04-04T13:44:49.999Z</time></trkpt><trkpt lat="43.6701011016476" lon="11.157984635330944"><ele>278.0</ele><time>2026-04-04T14:42:09.998Z</time></trkpt><trkpt lat="43.67004098637093" lon="11.157940261387484"><ele>278.0</ele><time>2026-04-04T14:42:33Z</time></trkpt><trkpt lat="43.669977684433036" lon="11.157948280004371"><ele>278.0</ele><time>2026-04-04T14:42:39Z</time></trkpt><trkpt lat="43.66998561192446" lon="11.15783191236878"><ele>278.0</ele><time>2026-04-04T14:42:51Z</time></trkpt><trkpt lat="43.6700385363211" lon="11.15773690004862"><ele>278.0</ele><time>2026-04-04T14:42:53Z</time></trkpt><trkpt lat="43.67010942478326" lon="11.157608445268291"><ele>278.0</ele><time>2026-04-04T14:42:55Z</time></trkpt><trkpt lat="43.670153191191105" lon="11.157532771544693"><ele>278.0</ele><time>2026-04-04T14:42:56Z</time></trkpt><trkpt lat="43.67019674440938" lon="11.157448422313376"><ele>278.0</ele><time>2026-04-04T14:42:57Z</time></trkpt><trkpt lat="43.670247606179" lon="11.1573580120455"><ele>278.0</ele><time>2026-04-04T14:42:57.999Z</time></trkpt><trkpt lat="43.670301134622605" lon="11.157260203093726"><ele>278.0</ele><time>2026-04-04T14:42:58.999Z</time></trkpt><trkpt lat="43.670356922716365" lon="11.157158337770822"><ele>278.0</ele><time>2026-04-04T14:42:59.999Z</time></trkpt><trkpt lat="43.67041836898198" lon="11.157047792246988"><ele>275.8</ele><time>2026-04-04T14:43:00.999Z</time></trkpt><trkpt lat="43.67048217556581" lon="11.156932506172584"><ele>273.6</ele><time>2026-04-04T14:43:01.999Z</time></trkpt><trkpt lat="43.67054487586787" lon="11.156811124870503"><ele>271.4</ele><time>2026-04-04T14:43:02.999Z</time></trkpt><trkpt lat="43.670613319887565" lon="11.156694848165923"><ele>269.2</ele><time>2026-04-04T14:43:03.999Z</time></trkpt><trkpt lat="43.670679138282765" lon="11.156572799500106"><ele>267.0</ele><time>2026-04-04T14:43:04.999Z</time></trkpt><trkpt lat="43.67075246302891" lon="11.156451116712221"><ele>265.6</ele><time>2026-04-04T14:43:05.999Z</time></trkpt><trkpt lat="43.670826976724626" lon="11.156335468801014"><ele>264.2</ele><time>2026-04-04T14:43:06.999Z</time></trkpt><trkpt lat="43.67090605718698" lon="11.15622584519685"><ele>262.8</ele><time>2026-04-04T14:43:07.999Z</time></trkpt><trkpt lat="43.67098953549029" lon="11.156124448611582"><ele>261.4</ele><time>2026-04-04T14:43:08.999Z</time></trkpt><trkpt lat="43.67107848445582" lon="11.156027811930997"><ele>260.0</ele><time>2026-04-04T14:43:09.999Z</time></trkpt><trkpt lat="43.67117794818465" lon="11.155938611781048"><ele>260.0</ele><time>2026-04-04T14:43:10.999Z</time></trkpt><trkpt lat="43.67127524041382" lon="11.155848962615561"><ele>260.0</ele><time>2026-04-04T14:43:11.999Z</time></trkpt><trkpt lat="43.67138310639831" lon="11.155772593220455"><ele>260.0</ele><time>2026-04-04T14:43:12.999Z</time></trkpt><trkpt lat="43.67149482664805" lon="11.155696256749222"><ele>260.0</ele><time>2026-04-04T14:43:13.999Z</time></trkpt><trkpt lat="43.67160760334569" lon="11.155618927655883"><ele>258.0</ele><time>2026-04-04T14:43:14.999Z</time></trkpt><trkpt lat="43.671719952125684" lon="11.1555402715766"><ele>256.0</ele><time>2026-04-04T14:43:15.999Z</time></trkpt><trkpt lat="43.671835313900544" lon="11.155460338217727"><ele>254.0</ele><time>2026-04-04T14:43:16.999Z</time></trkpt><trkpt lat="43.67194734939986" lon="11.155381353173853"><ele>252.0</ele><time>2026-04-04T14:43:17.999Z</time></trkpt><trkpt lat="43.67206083403038" lon="11.155302279577258"><ele>251.5</ele><time>2026-04-04T14:43:18.999Z</time></trkpt><trkpt lat="43.67217243951454" lon="11.15522395133136"><ele>251.0</ele><time>2026-04-04T14:43:19.999Z</time></trkpt><trkpt lat="43.672281330378055" lon="11.155143239204843"><ele>250.5</ele><time>2026-04-04T14:43:20.999Z</time></trkpt><trkpt lat="43.67238954871294" lon="11.15505975760278"><ele>250.0</ele><time>2026-04-04T14:43:21.999Z</time></trkpt><trkpt lat="43.67250110728458" lon="11.154975802841479"><ele>250.0</ele><time>2026-04-04T14:43:22.999Z</time></trkpt><trkpt lat="43.6726070820509" lon="11.154893116946406"><ele>250.0</ele><time>2026-04-04T14:43:23.999Z</time></trkpt><trkpt lat="43.672711484207426" lon="11.154809823170662"><ele>250.0</ele><time>2026-04-04T14:43:24.999Z</time></trkpt><trkpt lat="43.672812981482195" lon="11.154724584823905"><ele>250.0</ele><time>2026-04-04T14:43:25.999Z</time></trkpt><trkpt lat="43.67291149535946" lon="11.15464021979858"><ele>249.2</ele><time>2026-04-04T14:43:26.999Z</time></trkpt><trkpt lat="43.673008576148334" lon="11.154565809473095"><ele>248.4</ele><time>2026-04-04T14:43:27.999Z</time></trkpt><trkpt lat="43.67310680793538" lon="11.154484087702228"><ele>247.60000000000002</ele><time>2026-04-04T14:43:28.999Z</time></trkpt><trkpt lat="43.67319936859239" lon="11.154415765552962"><ele>246.8</ele><time>2026-04-04T14:43:29.999Z</time></trkpt><trkpt lat="43.67329363792623" lon="11.15437591722372"><ele>246.0</ele><time>2026-04-04T14:43:30.999Z</time></trkpt><trkpt lat="43.67338820827218" lon="11.154325477740683"><ele>246.0</ele><time>2026-04-04T14:43:31.999Z</time></trkpt><trkpt lat="43.67347829839704" lon="11.154279468959613"><ele>246.00000000000003</ele><time>2026-04-04T14:43:32.999Z</time></trkpt><trkpt lat="43.673563841525045" lon="11.15422703642433"><ele>246.00000000000003</ele><time>2026-04-04T14:43:33.999Z</time></trkpt><trkpt lat="43.67364652408009" lon="11.154171941957287"><ele>246.0</ele><time>2026-04-04T14:43:34.999Z</time></trkpt><trkpt lat="43.67372214875532" lon="11.154113474679615"><ele>246.0</ele><time>2026-04-04T14:43:35.999Z</time></trkpt><trkpt lat="43.673797446605185" lon="11.154058755104488"><ele>245.16666666666666</ele><time>2026-04-04T14:43:36.999Z</time></trkpt><trkpt lat="43.67387098106065" lon="11.15400475148026"><ele>244.33333333333331</ele><time>2026-04-04T14:43:37.999Z</time></trkpt><trkpt lat="43.673940241101" lon="11.15395122538049"><ele>243.5</ele><time>2026-04-04T14:43:38.999Z</time></trkpt><trkpt lat="43.67400809352144" lon="11.153894461670347"><ele>242.66666666666666</ele><time>2026-04-04T14:43:39.999Z</time></trkpt><trkpt lat="43.674071802456076" lon="11.153838504734154"><ele>241.83333333333331</ele><time>2026-04-04T14:43:40.999Z</time></trkpt><trkpt lat="43.674136323440315" lon="11.153784968895724"><ele>241.0</ele><time>2026-04-04T14:43:41.999Z</time></trkpt><trkpt lat="43.67420065537425" lon="11.15373435965072"><ele>240.99999999999997</ele><time>2026-04-04T14:43:42.999Z</time></trkpt><trkpt lat="43.67426110423253" lon="11.15368251885543"><ele>241.0</ele><time>2026-04-04T14:43:43.999Z</time></trkpt><trkpt lat="43.674316556300845" lon="11.153631444796162"><ele>241.0</ele><time>2026-04-04T14:43:44.999Z</time></trkpt><trkpt lat="43.67437367137621" lon="11.153585887068715"><ele>241.0</ele><time>2026-04-04T14:43:45.999Z</time></trkpt><trkpt lat="43.67447643105167" lon="11.153491655349013"><ele>240.99999999999997</ele><time>2026-04-04T14:43:47.999Z</time></trkpt><trkpt lat="43.674577981770796" lon="11.153409105198328"><ele>241.0</ele><time>2026-04-04T14:43:49.999Z</time></trkpt><trkpt lat="43.67466876682759" lon="11.153331298905337"><ele>240.60000000000002</ele><time>2026-04-04T14:43:51.999Z</time></trkpt><trkpt lat="43.67475573607027" lon="11.153258008516827"><ele>240.20000000000002</ele><time>2026-04-04T14:43:53.999Z</time></trkpt><trkpt lat="43.674834808174914" lon="11.153188086939831"><ele>239.79999999999998</ele><time>2026-04-04T14:43:55.999Z</time></trkpt><trkpt lat="43.674909610130705" lon="11.153120971557938"><ele>239.39999999999998</ele><time>2026-04-04T14:43:57.998Z</time></trkpt><trkpt lat="43.674988212528035" lon="11.153059297020157"><ele>239.0</ele><time>2026-04-04T14:43:59.998Z</time></trkpt><trkpt lat="43.67505558585316" lon="11.153006084357072"><ele>239.00000000000003</ele><time>2026-04-04T14:44:01.998Z</time></trkpt><trkpt lat="43.675124629297514" lon="11.152946499123265"><ele>239.0</ele><time>2026-04-04T14:44:03.998Z</time></trkpt><trkpt lat="43.67519636294863" lon="11.152884407568735"><ele>239.0</ele><time>2026-04-04T14:44:05.998Z</time></trkpt><trkpt lat="43.67526077708027" lon="11.152838269701743"><ele>239.0</ele><time>2026-04-04T14:44:07.998Z</time></trkpt><trkpt lat="43.67533215714396" lon="11.152781457066101"><ele>239.00000000000003</ele><time>2026-04-04T14:44:09.998Z</time></trkpt><trkpt lat="43.67539961852346" lon="11.15272370555509"><ele>239.0</ele><time>2026-04-04T14:44:11.998Z</time></trkpt><trkpt lat="43.67546720401209" lon="11.152665478357886"><ele>240.2</ele><time>2026-04-04T14:44:13.998Z</time></trkpt><trkpt lat="43.67553515051329" lon="11.152597439296411"><ele>241.39999999999998</ele><time>2026-04-04T14:44:15.998Z</time></trkpt><trkpt lat="43.675609795830894" lon="11.152520892545825"><ele>242.6</ele><time>2026-04-04T14:44:17.999Z</time></trkpt><trkpt lat="43.67568119659861" lon="11.152432785442173"><ele>243.8</ele><time>2026-04-04T14:44:19.999Z</time></trkpt><trkpt lat="43.67575740279301" lon="11.152337828900922"><ele>245.0</ele><time>2026-04-04T14:44:21.999Z</time></trkpt><trkpt lat="43.67583393968863" lon="11.15223331442354"><ele>245.00000000000003</ele><time>2026-04-04T14:44:23.999Z</time></trkpt><trkpt lat="43.675923313206724" lon="11.152119893818966"><ele>245.0</ele><time>2026-04-04T14:44:25.999Z</time></trkpt><trkpt lat="43.6759719894979" lon="11.152056547666021"><ele>245.0</ele><time>2026-04-04T14:44:26.999Z</time></trkpt><trkpt lat="43.67602269776207" lon="11.151990657914089"><ele>245.0</ele><time>2026-04-04T14:44:27.999Z</time></trkpt><trkpt lat="43.67607717642669" lon="11.151915895605528"><ele>245.00000000000003</ele><time>2026-04-04T14:44:28.999Z</time></trkpt><trkpt lat="43.67613750594283" lon="11.151840639384432"><ele>245.0</ele><time>2026-04-04T14:44:29.999Z</time></trkpt><trkpt lat="43.676204107428894" lon="11.151760480197344"><ele>243.8</ele><time>2026-04-04T14:44:30.999Z</time></trkpt><trkpt lat="43.67627491688732" lon="11.151678406650362"><ele>242.6</ele><time>2026-04-04T14:44:31.999Z</time></trkpt><trkpt lat="43.67635293036315" lon="11.151590910488714"><ele>241.39999999999998</ele><time>2026-04-04T14:44:32.999Z</time></trkpt><trkpt lat="43.67643923406216" lon="11.15150685317261"><ele>240.2</ele><time>2026-04-04T14:44:33.999Z</time></trkpt><trkpt lat="43.67652150657113" lon="11.151417996448131"><ele>239.0</ele><time>2026-04-04T14:44:34.999Z</time></trkpt><trkpt lat="43.6765966462382" lon="11.151310388943726"><ele>239.0</ele><time>2026-04-04T14:44:35.999Z</time></trkpt><trkpt lat="43.67666642427864" lon="11.151186219063352"><ele>239.0</ele><time>2026-04-04T14:44:36.999Z</time></trkpt><trkpt lat="43.67672476925693" lon="11.151043597209531"><ele>239.0</ele><time>2026-04-04T14:44:37.999Z</time></trkpt><trkpt lat="43.67677360487946" lon="11.150894834593604"><ele>239.0</ele><time>2026-04-04T14:44:38.999Z</time></trkpt><trkpt lat="43.67683184663609" lon="11.150757063822535"><ele>238.2</ele><time>2026-04-04T14:44:39.999Z</time></trkpt><trkpt lat="43.67690039970935" lon="11.150628454587126"><ele>237.39999999999998</ele><time>2026-04-04T14:44:40.999Z</time></trkpt><trkpt lat="43.67698767872645" lon="11.150529253442356"><ele>236.6</ele><time>2026-04-04T14:44:41.999Z</time></trkpt><trkpt lat="43.67707161491062" lon="11.150437420523069"><ele>235.8</ele><time>2026-04-04T14:44:42.999Z</time></trkpt><trkpt lat="43.677149365745656" lon="11.150336648461574"><ele>235.0</ele><time>2026-04-04T14:44:43.999Z</time></trkpt><trkpt lat="43.677217907280884" lon="11.150236755685043"><ele>235.0</ele><time>2026-04-04T14:44:44.999Z</time></trkpt><trkpt lat="43.67728683743576" lon="11.150136388670711"><ele>235.0</ele><time>2026-04-04T14:44:45.999Z</time></trkpt><trkpt lat="43.67737164829885" lon="11.150046717266912"><ele>235.0</ele><time>2026-04-04T14:44:46.999Z</time></trkpt><trkpt lat="43.677438998095056" lon="11.149961345290151"><ele>235.0</ele><time>2026-04-04T14:44:47.999Z</time></trkpt><trkpt lat="43.67750652501224" lon="11.149874651715733"><ele>235.0</ele><time>2026-04-04T14:44:48.999Z</time></trkpt><trkpt lat="43.677578348864394" lon="11.149787407150846"><ele>234.66666666666666</ele><time>2026-04-04T14:44:49.999Z</time></trkpt><trkpt lat="43.67764926202423" lon="11.1497118400165"><ele>234.33333333333331</ele><time>2026-04-04T14:44:50.999Z</time></trkpt><trkpt lat="43.67771644453726" lon="11.149637945228918"><ele>234.0</ele><time>2026-04-04T14:44:51.999Z</time></trkpt><trkpt lat="43.67777993137559" lon="11.149562368159433"><ele>233.66666666666669</ele><time>2026-04-04T14:44:52.999Z</time></trkpt><trkpt lat="43.67784305222725" lon="11.149490214522157"><ele>233.33333333333334</ele><time>2026-04-04T14:44:53.999Z</time></trkpt><trkpt lat="43.677906430306926" lon="11.149421171725585"><ele>233.0</ele><time>2026-04-04T14:44:54.999Z</time></trkpt><trkpt lat="43.677963759030305" lon="11.149346159868477"><ele>233.00000000000003</ele><time>2026-04-04T14:44:55.999Z</time></trkpt><trkpt lat="43.678026413984576" lon="11.149272881564627"><ele>233.0</ele><time>2026-04-04T14:44:56.999Z</time></trkpt><trkpt lat="43.678085142697356" lon="11.149201089209804"><ele>233.0</ele><time>2026-04-04T14:44:57.999Z</time></trkpt><trkpt lat="43.678145528450884" lon="11.149131119340938"><ele>233.0</ele><time>2026-04-04T14:44:58.999Z</time></trkpt><trkpt lat="43.67820340974514" lon="11.149063993759537"><ele>233.00000000000003</ele><time>2026-04-04T14:44:59.999Z</time></trkpt><trkpt lat="43.67825896524172" lon="11.148995422795574"><ele>233.0</ele><time>2026-04-04T14:45:00.999Z</time></trkpt><trkpt lat="43.67831620241229" lon="11.148930662360398"><ele>233.16666666666669</ele><time>2026-04-04T14:45:01.999Z</time></trkpt><trkpt lat="43.67836732029749" lon="11.14886822922645"><ele>233.33333333333334</ele><time>2026-04-04T14:45:02.999Z</time></trkpt><trkpt lat="43.67841905397211" lon="11.148808813146683"><ele>233.5</ele><time>2026-04-04T14:45:03.999Z</time></trkpt><trkpt lat="43.67846611728292" lon="11.148750790816802"><ele>233.66666666666669</ele><time>2026-04-04T14:45:04.999Z</time></trkpt><trkpt lat="43.67851501770586" lon="11.148692369440802"><ele>233.83333333333334</ele><time>2026-04-04T14:45:05.999Z</time></trkpt><trkpt lat="43.67859590784843" lon="11.148577849464978"><ele>234.0</ele><time>2026-04-04T14:45:07.999Z</time></trkpt><trkpt lat="43.67866846146941" lon="11.148456150528215"><ele>234.39999999999998</ele><time>2026-04-04T14:45:09.999Z</time></trkpt><trkpt lat="43.67872916882997" lon="11.148330981515196"><ele>234.79999999999998</ele><time>2026-04-04T14:45:11.999Z</time></trkpt><trkpt lat="43.678780030994574" lon="11.148210022201757"><ele>235.20000000000002</ele><time>2026-04-04T14:45:13.999Z</time></trkpt><trkpt lat="43.67882480247432" lon="11.148083846898043"><ele>235.60000000000002</ele><time>2026-04-04T14:45:15.999Z</time></trkpt><trkpt lat="43.67886146554394" lon="11.147961564948291"><ele>236.0</ele><time>2026-04-04T14:45:17.999Z</time></trkpt><trkpt lat="43.67889922065351" lon="11.147839257003133"><ele>236.20000000000002</ele><time>2026-04-04T14:45:19.999Z</time></trkpt><trkpt lat="43.67893724467181" lon="11.147720750298198"><ele>236.40000000000003</ele><time>2026-04-04T14:45:21.999Z</time></trkpt><trkpt lat="43.67897095179399" lon="11.147598576509417"><ele>236.6</ele><time>2026-04-04T14:45:23.999Z</time></trkpt><trkpt lat="43.67900415152812" lon="11.147472891059207"><ele>236.8</ele><time>2026-04-04T14:45:25.999Z</time></trkpt><trkpt lat="43.67903420295214" lon="11.147338072674286"><ele>237.0</ele><time>2026-04-04T14:45:27.999Z</time></trkpt><trkpt lat="43.679051176395305" lon="11.147186146279797"><ele>236.39999999999998</ele><time>2026-04-04T14:45:29.999Z</time></trkpt><trkpt lat="43.67906496710562" lon="11.14703804168009"><ele>235.79999999999998</ele><time>2026-04-04T14:45:31.999Z</time></trkpt><trkpt lat="43.67907872413467" lon="11.146876482555959"><ele>235.2</ele><time>2026-04-04T14:45:33.999Z</time></trkpt><trkpt lat="43.67908625394336" lon="11.146709746165062"><ele>234.6</ele><time>2026-04-04T14:45:35.999Z</time></trkpt><trkpt lat="43.67908995465796" lon="11.146620329243058"><ele>234.0</ele><time>2026-04-04T14:45:36.999Z</time></trkpt><trkpt lat="43.679091676128586" lon="11.146529181406212"><ele>232.71428571428572</ele><time>2026-04-04T14:45:37.999Z</time></trkpt><trkpt lat="43.679095502231434" lon="11.14643774919077"><ele>231.42857142857144</ele><time>2026-04-04T14:45:38.999Z</time></trkpt><trkpt lat="43.679098982139664" lon="11.146342611666244"><ele>230.14285714285717</ele><time>2026-04-04T14:45:39.999Z</time></trkpt><trkpt lat="43.679104003494984" lon="11.146244420132916"><ele>228.8571428571429</ele><time>2026-04-04T14:45:40.999Z</time></trkpt><trkpt lat="43.67910661977212" lon="11.1461409755484"><ele>227.57142857142858</ele><time>2026-04-04T14:45:41.999Z</time></trkpt><trkpt lat="43.67911259445413" lon="11.146032184161715"><ele>226.28571428571433</ele><time>2026-04-04T14:45:42.999Z</time></trkpt><trkpt lat="43.679118050052146" lon="11.145919716891145"><ele>225.00000000000003</ele><time>2026-04-04T14:45:43.999Z</time></trkpt><trkpt lat="43.679124525230726" lon="11.145800836084748"><ele>224.2</ele><time>2026-04-04T14:45:44.999Z</time></trkpt><trkpt lat="43.679130746745365" lon="11.145677937800146"><ele>223.4</ele><time>2026-04-04T14:45:45.999Z</time></trkpt><trkpt lat="43.67913686502709" lon="11.145551269372977"><ele>222.60000000000002</ele><time>2026-04-04T14:45:46.999Z</time></trkpt><trkpt lat="43.679142397448196" lon="11.145419928633329"><ele>221.8</ele><time>2026-04-04T14:45:47.999Z</time></trkpt><trkpt lat="43.679148225096355" lon="11.145279321396243"><ele>221.0</ele><time>2026-04-04T14:45:48.999Z</time></trkpt><trkpt lat="43.679160662063836" lon="11.14513440898426"><ele>221.0</ele><time>2026-04-04T14:45:49.999Z</time></trkpt><trkpt lat="43.67919113741457" lon="11.144991238125272"><ele>221.0</ele><time>2026-04-04T14:45:50.999Z</time></trkpt><trkpt lat="43.67924259541788" lon="11.144851058695997"><ele>221.0</ele><time>2026-04-04T14:45:51.998Z</time></trkpt><trkpt lat="43.679313266758086" lon="11.144724106107425"><ele>221.0</ele><time>2026-04-04T14:45:52.998Z</time></trkpt><trkpt lat="43.679406040056115" lon="11.144615629405369"><ele>218.75</ele><time>2026-04-04T14:45:53.998Z</time></trkpt><trkpt lat="43.6795093956739" lon="11.144523256932063"><ele>216.5</ele><time>2026-04-04T14:45:54.998Z</time></trkpt><trkpt lat="43.679622150642096" lon="11.144445310047628"><ele>214.25</ele><time>2026-04-04T14:45:55.998Z</time></trkpt><trkpt lat="43.67974033370427" lon="11.144354915549597"><ele>212.0</ele><time>2026-04-04T14:45:56.998Z</time></trkpt><trkpt lat="43.67985520966297" lon="11.144254611089568"><ele>212.0</ele><time>2026-04-04T14:45:57.998Z</time></trkpt><trkpt lat="43.67996599307812" lon="11.14414755891705"><ele>212.0</ele><time>2026-04-04T14:45:58.998Z</time></trkpt><trkpt lat="43.680074892845354" lon="11.144036518466192"><ele>212.0</ele><time>2026-04-04T14:45:59.998Z</time></trkpt><trkpt lat="43.680184365908005" lon="11.143918008867903"><ele>212.0</ele><time>2026-04-04T14:46:00.998Z</time></trkpt><trkpt lat="43.68029341264417" lon="11.14380405828048"><ele>209.0</ele><time>2026-04-04T14:46:01.998Z</time></trkpt><trkpt lat="43.68040738575534" lon="11.143684607351341"><ele>206.0</ele><time>2026-04-04T14:46:02.998Z</time></trkpt><trkpt lat="43.680522139781274" lon="11.143566926396232"><ele>203.0</ele><time>2026-04-04T14:46:03.998Z</time></trkpt><trkpt lat="43.680636175414406" lon="11.143450900251514"><ele>200.0</ele><time>2026-04-04T14:46:04.998Z</time></trkpt><trkpt lat="43.68075539441836" lon="11.143333490069507"><ele>202.5</ele><time>2026-04-04T14:46:05.998Z</time></trkpt><trkpt lat="43.6808751466143" lon="11.143209916513172"><ele>205.0</ele><time>2026-04-04T14:46:06.998Z</time></trkpt><trkpt lat="43.68098505821667" lon="11.143085180049544"><ele>207.5</ele><time>2026-04-04T14:46:07.998Z</time></trkpt><trkpt lat="43.6811040461936" lon="11.142972691070968"><ele>210.0</ele><time>2026-04-04T14:46:08.998Z</time></trkpt><trkpt lat="43.68122038741125" lon="11.142867360586049"><ele>203.75</ele><time>2026-04-04T14:46:09.998Z</time></trkpt><trkpt lat="43.681318162716124" lon="11.14274721481773"><ele>197.5</ele><time>2026-04-04T14:46:10.998Z</time></trkpt><trkpt lat="43.68141838349842" lon="11.142642518817599"><ele>191.25</ele><time>2026-04-04T14:46:11.998Z</time></trkpt><trkpt lat="43.681511950151766" lon="11.1425266687111"><ele>185.0</ele><time>2026-04-04T14:46:12.998Z</time></trkpt><trkpt lat="43.68159677236013" lon="11.14239472126763"><ele>185.5</ele><time>2026-04-04T14:46:13.998Z</time></trkpt><trkpt lat="43.68168059641897" lon="11.142255462129164"><ele>186.0</ele><time>2026-04-04T14:46:14.998Z</time></trkpt><trkpt lat="43.681740183621535" lon="11.142088164378722"><ele>186.5</ele><time>2026-04-04T14:46:15.998Z</time></trkpt><trkpt lat="43.68178170714099" lon="11.141905425277905"><ele>187.0</ele><time>2026-04-04T14:46:16.998Z</time></trkpt><trkpt lat="43.68182241997525" lon="11.14172826846562"><ele>187.0</ele><time>2026-04-04T14:46:17.998Z</time></trkpt><trkpt lat="43.68188221276441" lon="11.141552036378604"><ele>187.0</ele><time>2026-04-04T14:46:18.998Z</time></trkpt><trkpt lat="43.681976261651776" lon="11.141393828896074"><ele>187.0</ele><time>2026-04-04T14:46:19.998Z</time></trkpt><trkpt lat="43.68209369963378" lon="11.141264325728825"><ele>187.0</ele><time>2026-04-04T14:46:20.998Z</time></trkpt><trkpt lat="43.682226196154645" lon="11.14117824427922"><ele>183.0</ele><time>2026-04-04T14:46:21.998Z</time></trkpt><trkpt lat="43.682365756305394" lon="11.141118439435367"><ele>179.0</ele><time>2026-04-04T14:46:22.998Z</time></trkpt><trkpt lat="43.682494383862874" lon="11.1410560987788"><ele>175.0</ele><time>2026-04-04T14:46:23.999Z</time></trkpt><trkpt lat="43.68260614821523" lon="11.140984118255798"><ele>171.0</ele><time>2026-04-04T14:46:24.999Z</time></trkpt><trkpt lat="43.68269312294552" lon="11.140883825806897"><ele>171.0</ele><time>2026-04-04T14:46:25.999Z</time></trkpt><trkpt lat="43.68275336478653" lon="11.14073404001698"><ele>171.0</ele><time>2026-04-04T14:46:26.999Z</time></trkpt><trkpt lat="43.682773907919284" lon="11.140553594173403"><ele>171.0</ele><time>2026-04-04T14:46:27.999Z</time></trkpt><trkpt lat="43.68275104076666" lon="11.140370123576984"><ele>171.0</ele><time>2026-04-04T14:46:28.999Z</time></trkpt><trkpt lat="43.68271715639325" lon="11.140214141601474"><ele>169.5</ele><time>2026-04-04T14:46:29.999Z</time></trkpt><trkpt lat="43.68269233450565" lon="11.14008176381446"><ele>168.0</ele><time>2026-04-04T14:46:30.999Z</time></trkpt><trkpt lat="43.682662545496875" lon="11.139889872216266"><ele>166.5</ele><time>2026-04-04T14:46:31.999Z</time></trkpt><trkpt lat="43.682677322606665" lon="11.139707242625937"><ele>165.0</ele><time>2026-04-04T14:46:32.999Z</time></trkpt><trkpt lat="43.68273321983442" lon="11.139543856593129"><ele>160.0</ele><time>2026-04-04T14:46:33.999Z</time></trkpt><trkpt lat="43.68277536523745" lon="11.139375612065736"><ele>155.0</ele><time>2026-04-04T14:46:34.999Z</time></trkpt><trkpt lat="43.68280365317146" lon="11.139207604191682"><ele>150.0</ele><time>2026-04-04T14:46:35.999Z</time></trkpt><trkpt lat="43.68283524694701" lon="11.139033017490815"><ele>145.0</ele><time>2026-04-04T14:46:37Z</time></trkpt><trkpt lat="43.682863860197635" lon="11.138871251838346"><ele>144.5</ele><time>2026-04-04T14:46:38Z</time></trkpt><trkpt lat="43.682882969484595" lon="11.138702694524708"><ele>144.0</ele><time>2026-04-04T14:46:39Z</time></trkpt><trkpt lat="43.6829014292791" lon="11.138527996731362"><ele>143.5</ele><time>2026-04-04T14:46:40Z</time></trkpt><trkpt lat="43.68291662882117" lon="11.138362908114134"><ele>143.0</ele><time>2026-04-04T14:46:41Z</time></trkpt><trkpt lat="43.68293543833456" lon="11.138199432553655"><ele>141.75</ele><time>2026-04-04T14:46:42Z</time></trkpt><trkpt lat="43.68296169719887" lon="11.13803307747168"><ele>140.5</ele><time>2026-04-04T14:46:43Z</time></trkpt><trkpt lat="43.682995089470005" lon="11.137865933381136"><ele>139.25</ele><time>2026-04-04T14:46:44Z</time></trkpt><trkpt lat="43.68302982511802" lon="11.137710467487873"><ele>138.0</ele><time>2026-04-04T14:46:45Z</time></trkpt><trkpt lat="43.68306694656051" lon="11.137550399367838"><ele>138.0</ele><time>2026-04-04T14:46:46Z</time></trkpt><trkpt lat="43.68310228094677" lon="11.13738688852668"><ele>138.0</ele><time>2026-04-04T14:46:47Z</time></trkpt><trkpt lat="43.68313852262147" lon="11.13723049728669"><ele>138.0</ele><time>2026-04-04T14:46:48Z</time></trkpt><trkpt lat="43.683177576828506" lon="11.13707298863747"><ele>138.0</ele><time>2026-04-04T14:46:49Z</time></trkpt><trkpt lat="43.68321664642232" lon="11.136917026094835"><ele>137.5</ele><time>2026-04-04T14:46:50Z</time></trkpt><trkpt lat="43.68325398905884" lon="11.136755593304228"><ele>137.0</ele><time>2026-04-04T14:46:51Z</time></trkpt><trkpt lat="43.68328588400146" lon="11.13659521940957"><ele>136.5</ele><time>2026-04-04T14:46:52Z</time></trkpt><trkpt lat="43.68330671219778" lon="11.13643404116057"><ele>136.0</ele><time>2026-04-04T14:46:53Z</time></trkpt><trkpt lat="43.683299888176286" lon="11.136267233979417"><ele>134.5</ele><time>2026-04-04T14:46:53.999Z</time></trkpt><trkpt lat="43.683245344841744" lon="11.136123540659517"><ele>133.0</ele><time>2026-04-04T14:46:54.999Z</time></trkpt><trkpt lat="43.68317168533358" lon="11.135992684960783"><ele>131.5</ele><time>2026-04-04T14:46:55.999Z</time></trkpt><trkpt lat="43.6830951173305" lon="11.1358653796545"><ele>130.0</ele><time>2026-04-04T14:46:56.999Z</time></trkpt><trkpt lat="43.683020840145524" lon="11.135733779325877"><ele>127.75</ele><time>2026-04-04T14:46:57.999Z</time></trkpt><trkpt lat="43.6829514637671" lon="11.135595041047402"><ele>125.5</ele><time>2026-04-04T14:46:58.999Z</time></trkpt><trkpt lat="43.68289867711832" lon="11.135440022381115"><ele>123.25</ele><time>2026-04-04T14:46:59.999Z</time></trkpt><trkpt lat="43.682856126383015" lon="11.135276287124013"><ele>121.0</ele><time>2026-04-04T14:47:00.999Z</time></trkpt><trkpt lat="43.682831626954936" lon="11.135097860051772"><ele>121.0</ele><time>2026-04-04T14:47:01.999Z</time></trkpt><trkpt lat="43.68280737764271" lon="11.134923212163757"><ele>121.0</ele><time>2026-04-04T14:47:02.999Z</time></trkpt><trkpt lat="43.68277955187895" lon="11.134754669857161"><ele>121.0</ele><time>2026-04-04T14:47:03.999Z</time></trkpt><trkpt lat="43.68275561143262" lon="11.134584861154709"><ele>121.0</ele><time>2026-04-04T14:47:04.999Z</time></trkpt><trkpt lat="43.68274463585903" lon="11.134408883806515"><ele>120.25</ele><time>2026-04-04T14:47:05.999Z</time></trkpt><trkpt lat="43.68274436640845" lon="11.134238579328883"><ele>119.5</ele><time>2026-04-04T14:47:06.999Z</time></trkpt><trkpt lat="43.682755502402046" lon="11.134064365412543"><ele>118.75</ele><time>2026-04-04T14:47:07.999Z</time></trkpt><trkpt lat="43.68277618022815" lon="11.133893177860468"><ele>118.0</ele><time>2026-04-04T14:47:08.999Z</time></trkpt><trkpt lat="43.682796978470996" lon="11.133722433706104"><ele>115.5</ele><time>2026-04-04T14:47:09.999Z</time></trkpt><trkpt lat="43.6828176544573" lon="11.133555198080193"><ele>113.0</ele><time>2026-04-04T14:47:10.999Z</time></trkpt><trkpt lat="43.68283297851959" lon="11.133383926762999"><ele>110.5</ele><time>2026-04-04T14:47:11.999Z</time></trkpt><trkpt lat="43.68284631828152" lon="11.133206593003647"><ele>108.0</ele><time>2026-04-04T14:47:12.999Z</time></trkpt><trkpt lat="43.682861056742155" lon="11.133022191157398"><ele>105.5</ele><time>2026-04-04T14:47:13.999Z</time></trkpt><trkpt lat="43.68286852517699" lon="11.132838505458453"><ele>103.0</ele><time>2026-04-04T14:47:14.999Z</time></trkpt><trkpt lat="43.68286765512712" lon="11.13264632001952"><ele>100.5</ele><time>2026-04-04T14:47:15.999Z</time></trkpt><trkpt lat="43.68285835459334" lon="11.132455094810714"><ele>98.0</ele><time>2026-04-04T14:47:16.999Z</time></trkpt><trkpt lat="43.68285662730476" lon="11.132261422840443"><ele>97.0</ele><time>2026-04-04T14:47:17.999Z</time></trkpt><trkpt lat="43.6828504720319" lon="11.132067163498716"><ele>96.0</ele><time>2026-04-04T14:47:18.999Z</time></trkpt><trkpt lat="43.68284310478203" lon="11.131863533735302"><ele>95.0</ele><time>2026-04-04T14:47:19.999Z</time></trkpt><trkpt lat="43.682835388671855" lon="11.131655606901164"><ele>94.0</ele><time>2026-04-04T14:47:20.999Z</time></trkpt><trkpt lat="43.682827945711054" lon="11.131450641594542"><ele>92.33333333333333</ele><time>2026-04-04T14:47:21.999Z</time></trkpt><trkpt lat="43.68281980626351" lon="11.13124083003262"><ele>90.66666666666667</ele><time>2026-04-04T14:47:22.999Z</time></trkpt><trkpt lat="43.68280996593408" lon="11.13103044795986"><ele>89.0</ele><time>2026-04-04T14:47:23.999Z</time></trkpt><trkpt lat="43.68280443446357" lon="11.130823646084705"><ele>88.0</ele><time>2026-04-04T14:47:24.999Z</time></trkpt><trkpt lat="43.68279877764938" lon="11.13061596332079"><ele>87.0</ele><time>2026-04-04T14:47:25.999Z</time></trkpt><trkpt lat="43.682790983513165" lon="11.130417191871855"><ele>86.0</ele><time>2026-04-04T14:47:26.999Z</time></trkpt><trkpt lat="43.68278929388382" lon="11.130222501633689"><ele>85.0</ele><time>2026-04-04T14:47:27.999Z</time></trkpt><trkpt lat="43.68281472012077" lon="11.130031432593544"><ele>84.25</ele><time>2026-04-04T14:47:28.999Z</time></trkpt><trkpt lat="43.68289970001662" lon="11.129874039460935"><ele>83.5</ele><time>2026-04-04T14:47:29.999Z</time></trkpt><trkpt lat="43.68299893061226" lon="11.129742914879207"><ele>82.75</ele><time>2026-04-04T14:47:30.999Z</time></trkpt><trkpt lat="43.683098456563265" lon="11.129630968685436"><ele>82.0</ele><time>2026-04-04T14:47:31.999Z</time></trkpt><trkpt lat="43.68319401556108" lon="11.129548095430993"><ele>82.0</ele><time>2026-04-04T14:47:32.999Z</time></trkpt><trkpt lat="43.68328835732874" lon="11.129460416511263"><ele>82.0</ele><time>2026-04-04T14:47:33.999Z</time></trkpt><trkpt lat="43.68337825550306" lon="11.129367147393243"><ele>82.0</ele><time>2026-04-04T14:47:34.999Z</time></trkpt><trkpt lat="43.6834679230859" lon="11.129283257751148"><ele>82.0</ele><time>2026-04-04T14:47:35.999Z</time></trkpt><trkpt lat="43.68355803132101" lon="11.129205760344622"><ele>82.0</ele><time>2026-04-04T14:47:36.999Z</time></trkpt><trkpt lat="43.683642508503574" lon="11.129129961633414"><ele>82.0</ele><time>2026-04-04T14:47:37.999Z</time></trkpt><trkpt lat="43.683726930579795" lon="11.129054405443126"><ele>82.0</ele><time>2026-04-04T14:47:38.999Z</time></trkpt><trkpt lat="43.683809094452016" lon="11.128975813163363"><ele>82.0</ele><time>2026-04-04T14:47:39.999Z</time></trkpt><trkpt lat="43.683889427605244" lon="11.128897598975806"><ele>82.0</ele><time>2026-04-04T14:47:40.999Z</time></trkpt><trkpt lat="43.68397235985941" lon="11.12882606269265"><ele>82.0</ele><time>2026-04-04T14:47:41.999Z</time></trkpt><trkpt lat="43.68405029663546" lon="11.128752977035576"><ele>82.0</ele><time>2026-04-04T14:47:42.999Z</time></trkpt><trkpt lat="43.68412457332387" lon="11.128674916559028"><ele>82.0</ele><time>2026-04-04T14:47:43.999Z</time></trkpt><trkpt lat="43.684196546803534" lon="11.128604687781069"><ele>82.0</ele><time>2026-04-04T14:47:44.999Z</time></trkpt><trkpt lat="43.684265079423106" lon="11.128531176889936"><ele>82.0</ele><time>2026-04-04T14:47:45.999Z</time></trkpt><trkpt lat="43.68433621157174" lon="11.12845863586785"><ele>82.0</ele><time>2026-04-04T14:47:46.999Z</time></trkpt><trkpt lat="43.684390833338426" lon="11.128393962625097"><ele>82.0</ele><time>2026-04-04T14:47:47.999Z</time></trkpt><trkpt lat="43.684463162432436" lon="11.128318683321158"><ele>82.0</ele><time>2026-04-04T14:47:49.999Z</time></trkpt><trkpt lat="43.68451830924623" lon="11.128212365296408"><ele>82.0</ele><time>2026-04-04T14:47:52.999Z</time></trkpt><trkpt lat="43.6845017493776" lon="11.128082232387317"><ele>82.0</ele><time>2026-04-04T14:47:54.999Z</time></trkpt><trkpt lat="43.68445764932584" lon="11.127970781836975"><ele>82.0</ele><time>2026-04-04T14:47:56.999Z</time></trkpt><trkpt lat="43.68441942805193" lon="11.127839833353455"><ele>82.0</ele><time>2026-04-04T14:47:58.999Z</time></trkpt><trkpt lat="43.68446837124045" lon="11.127697604932616"><ele>82.5</ele><time>2026-04-04T14:48:00.999Z</time></trkpt><trkpt lat="43.68451503335444" lon="11.127558295284526"><ele>83.0</ele><time>2026-04-04T14:48:02.999Z</time></trkpt><trkpt lat="43.68456780676286" lon="11.127418730239242"><ele>83.5</ele><time>2026-04-04T14:48:04.999Z</time></trkpt><trkpt lat="43.68463135449318" lon="11.12727790798757"><ele>84.0</ele><time>2026-04-04T14:48:06.999Z</time></trkpt><trkpt lat="43.68470909469461" lon="11.12715099188974"><ele>83.2</ele><time>2026-04-04T14:48:08.999Z</time></trkpt><trkpt lat="43.68475437011176" lon="11.127089722964929"><ele>82.4</ele><time>2026-04-04T14:48:09.999Z</time></trkpt><trkpt lat="43.68483445828106" lon="11.126974772139382"><ele>81.6</ele><time>2026-04-04T14:48:11.999Z</time></trkpt><trkpt lat="43.68491701846541" lon="11.126852245826047"><ele>80.8</ele><time>2026-04-04T14:48:13.999Z</time></trkpt><trkpt lat="43.685001767719115" lon="11.126759831953233"><ele>80.0</ele><time>2026-04-04T14:48:15.998Z</time></trkpt><trkpt lat="43.68509318557323" lon="11.126675613522282"><ele>80.0</ele><time>2026-04-04T14:48:17.998Z</time></trkpt><trkpt lat="43.68518364603425" lon="11.126590726956424"><ele>80.0</ele><time>2026-04-04T14:48:19.998Z</time></trkpt><trkpt lat="43.68527132198851" lon="11.126508419824585"><ele>80.0</ele><time>2026-04-04T14:48:21.998Z</time></trkpt><trkpt lat="43.68536020954182" lon="11.126424504703184"><ele>80.0</ele><time>2026-04-04T14:48:23.998Z</time></trkpt><trkpt lat="43.68544933642749" lon="11.12633054338563"><ele>80.0</ele><time>2026-04-04T14:48:25.998Z</time></trkpt><trkpt lat="43.68553934629289" lon="11.126244890505923"><ele>79.6</ele><time>2026-04-04T14:48:27.998Z</time></trkpt><trkpt lat="43.68562780993677" lon="11.126168812118115"><ele>79.2</ele><time>2026-04-04T14:48:30Z</time></trkpt><trkpt lat="43.68571909476171" lon="11.126110220842019"><ele>78.8</ele><time>2026-04-04T14:48:32Z</time></trkpt><trkpt lat="43.68580210505859" lon="11.126020391164323"><ele>78.4</ele><time>2026-04-04T14:48:34Z</time></trkpt><trkpt lat="43.68589321887527" lon="11.125942481992777"><ele>78.0</ele><time>2026-04-04T14:48:36Z</time></trkpt><trkpt lat="43.685989362420315" lon="11.125851520274114"><ele>78.0</ele><time>2026-04-04T14:48:38Z</time></trkpt><trkpt lat="43.68607448127563" lon="11.125772555588089"><ele>78.0</ele><time>2026-04-04T14:48:40Z</time></trkpt><trkpt lat="43.68616386377113" lon="11.12568677235521"><ele>78.0</ele><time>2026-04-04T14:48:42Z</time></trkpt><trkpt lat="43.68624971603799" lon="11.125591213984938"><ele>78.0</ele><time>2026-04-04T14:48:44Z</time></trkpt><trkpt lat="43.686336295913726" lon="11.125487723089533"><ele>78.0</ele><time>2026-04-04T14:48:46Z</time></trkpt><trkpt lat="43.686426820532105" lon="11.125379997139222"><ele>77.8</ele><time>2026-04-04T14:48:48Z</time></trkpt><trkpt lat="43.68651281776158" lon="11.12526503003412"><ele>77.6</ele><time>2026-04-04T14:48:50Z</time></trkpt><trkpt lat="43.68659905050241" lon="11.12514705347919"><ele>77.4</ele><time>2026-04-04T14:48:52Z</time></trkpt><trkpt lat="43.68664719125302" lon="11.125090648538498"><ele>77.2</ele><time>2026-04-04T14:48:53Z</time></trkpt><trkpt lat="43.686693535848484" lon="11.125028512696145"><ele>77.0</ele><time>2026-04-04T14:48:54Z</time></trkpt><trkpt lat="43.686782938446356" lon="11.124910592175635"><ele>77.2</ele><time>2026-04-04T14:48:56Z</time></trkpt><trkpt lat="43.686874242468924" lon="11.124796900664062"><ele>77.4</ele><time>2026-04-04T14:48:58Z</time></trkpt><trkpt lat="43.686963130642916" lon="11.124677869724788"><ele>77.6</ele><time>2026-04-04T14:49:00Z</time></trkpt><trkpt lat="43.687009850704314" lon="11.124616497741748"><ele>77.8</ele><time>2026-04-04T14:49:01Z</time></trkpt><trkpt lat="43.68709979301326" lon="11.124500051108937"><ele>78.0</ele><time>2026-04-04T14:49:03Z</time></trkpt><trkpt lat="43.6871470855003" lon="11.12444008521184"><ele>78.0</ele><time>2026-04-04T14:49:04Z</time></trkpt><trkpt lat="43.68724074585209" lon="11.124328161027654"><ele>78.0</ele><time>2026-04-04T14:49:06Z</time></trkpt><trkpt lat="43.68728490689742" lon="11.12426572513564"><ele>78.0</ele><time>2026-04-04T14:49:07Z</time></trkpt><trkpt lat="43.687330521820215" lon="11.124204586101257"><ele>78.0</ele><time>2026-04-04T14:49:07.999Z</time></trkpt><trkpt lat="43.68741472871148" lon="11.124093150995284"><ele>78.0</ele><time>2026-04-04T14:49:09.999Z</time></trkpt><trkpt lat="43.68750587442456" lon="11.123974690654594"><ele>78.5</ele><time>2026-04-04T14:49:11.999Z</time></trkpt><trkpt lat="43.687593132134694" lon="11.123864480656513"><ele>79.0</ele><time>2026-04-04T14:49:13.999Z</time></trkpt><trkpt lat="43.687678685747905" lon="11.12375556298694"><ele>79.5</ele><time>2026-04-04T14:49:15.999Z</time></trkpt><trkpt lat="43.68776678730101" lon="11.123647547018908"><ele>80.0</ele><time>2026-04-04T14:49:17.999Z</time></trkpt><trkpt lat="43.6878495379761" lon="11.123540534335103"><ele>80.0</ele><time>2026-04-04T14:49:19.999Z</time></trkpt><trkpt lat="43.68793596286172" lon="11.123428884658255"><ele>80.0</ele><time>2026-04-04T14:49:21.999Z</time></trkpt><trkpt lat="43.68802353431004" lon="11.123320373250898"><ele>80.0</ele><time>2026-04-04T14:49:23.999Z</time></trkpt><trkpt lat="43.688098343090495" lon="11.123207532536215"><ele>80.0</ele><time>2026-04-04T14:49:25.999Z</time></trkpt><trkpt lat="43.68816791285442" lon="11.1230937065269"><ele>79.16666666666667</ele><time>2026-04-04T14:49:27.999Z</time></trkpt><trkpt lat="43.68822843068296" lon="11.122969682253876"><ele>78.33333333333334</ele><time>2026-04-04T14:49:29.999Z</time></trkpt><trkpt lat="43.688287289946366" lon="11.122836074979809"><ele>77.5</ele><time>2026-04-04T14:49:31.999Z</time></trkpt><trkpt lat="43.688330625591504" lon="11.122771659126602"><ele>76.66666666666667</ele><time>2026-04-04T14:49:32.999Z</time></trkpt><trkpt lat="43.68837935309824" lon="11.12270801751233"><ele>75.83333333333333</ele><time>2026-04-04T14:49:33.999Z</time></trkpt><trkpt lat="43.68843177176248" lon="11.122644849950065"><ele>75.0</ele><time>2026-04-04T14:49:34.999Z</time></trkpt><trkpt lat="43.688491220292484" lon="11.122589770933045"><ele>74.99999999999999</ele><time>2026-04-04T14:49:35.999Z</time></trkpt><trkpt lat="43.68855043399936" lon="11.122527617918834"><ele>75.0</ele><time>2026-04-04T14:49:36.999Z</time></trkpt><trkpt lat="43.68860961347796" lon="11.122467161757791"><ele>75.0</ele><time>2026-04-04T14:49:37.999Z</time></trkpt><trkpt lat="43.688664368694134" lon="11.122409895541095"><ele>75.0</ele><time>2026-04-04T14:49:38.999Z</time></trkpt><trkpt lat="43.68871875232618" lon="11.122347045651527"><ele>75.0</ele><time>2026-04-04T14:49:39.999Z</time></trkpt><trkpt lat="43.68877557891171" lon="11.122286783586963"><ele>74.99999999999999</ele><time>2026-04-04T14:49:40.999Z</time></trkpt><trkpt lat="43.68883061019664" lon="11.12223082739168"><ele>75.0</ele><time>2026-04-04T14:49:41.999Z</time></trkpt><trkpt lat="43.68888245306809" lon="11.122172190013634"><ele>74.83333333333333</ele><time>2026-04-04T14:49:42.999Z</time></trkpt><trkpt lat="43.688930732342406" lon="11.122116045631277"><ele>74.66666666666667</ele><time>2026-04-04T14:49:43.999Z</time></trkpt><trkpt lat="43.68897697384896" lon="11.122054933996658"><ele>74.5</ele><time>2026-04-04T14:49:44.999Z</time></trkpt><trkpt lat="43.68901935283964" lon="11.1219867017954"><ele>74.33333333333334</ele><time>2026-04-04T14:49:45.999Z</time></trkpt><trkpt lat="43.68908128309577" lon="11.121843185840497"><ele>74.16666666666667</ele><time>2026-04-04T14:49:47.999Z</time></trkpt><trkpt lat="43.68910798148629" lon="11.121762051074098"><ele>74.0</ele><time>2026-04-04T14:49:48.999Z</time></trkpt><trkpt lat="43.68914966839417" lon="11.121611608416247"><ele>73.75</ele><time>2026-04-04T14:49:50.999Z</time></trkpt><trkpt lat="43.68918125583222" lon="11.121451580117574"><ele>73.5</ele><time>2026-04-04T14:49:52.999Z</time></trkpt><trkpt lat="43.68921132484712" lon="11.121296545776929"><ele>73.25</ele><time>2026-04-04T14:49:54.999Z</time></trkpt><trkpt lat="43.68924186193781" lon="11.121150566595007"><ele>73.0</ele><time>2026-04-04T14:49:56.999Z</time></trkpt><trkpt lat="43.68927390136808" lon="11.121001159311545"><ele>73.0</ele><time>2026-04-04T14:49:58.999Z</time></trkpt><trkpt lat="43.68930959597146" lon="11.12086013064164"><ele>73.0</ele><time>2026-04-04T14:50:00.999Z</time></trkpt><trkpt lat="43.6893414495138" lon="11.120722199361479"><ele>73.0</ele><time>2026-04-04T14:50:02.999Z</time></trkpt><trkpt lat="43.689372071471496" lon="11.120583562363441"><ele>73.0</ele><time>2026-04-04T14:50:04.999Z</time></trkpt><trkpt lat="43.68939710468839" lon="11.120431191284302"><ele>73.0</ele><time>2026-04-04T14:50:06.999Z</time></trkpt><trkpt lat="43.689410662299004" lon="11.120272176028829"><ele>72.75</ele><time>2026-04-04T14:50:08.999Z</time></trkpt><trkpt lat="43.68940137463592" lon="11.120112002992096"><ele>72.5</ele><time>2026-04-04T14:50:10.999Z</time></trkpt><trkpt lat="43.68939084068042" lon="11.119944033101362"><ele>72.25</ele><time>2026-04-04T14:50:12.999Z</time></trkpt><trkpt lat="43.68937050994372" lon="11.119782129589884"><ele>72.0</ele><time>2026-04-04T14:50:14.999Z</time></trkpt><trkpt lat="43.68935864111684" lon="11.11961513069939"><ele>72.0</ele><time>2026-04-04T14:50:16.999Z</time></trkpt><trkpt lat="43.68935992573412" lon="11.119446935067911"><ele>72.0</ele><time>2026-04-04T14:50:18.999Z</time></trkpt><trkpt lat="43.689364292075695" lon="11.119359679961395"><ele>72.0</ele><time>2026-04-04T14:50:19.999Z</time></trkpt><trkpt lat="43.689398950506074" lon="11.119195761879235"><ele>72.0</ele><time>2026-04-04T14:50:21.999Z</time></trkpt><trkpt lat="43.68945217303463" lon="11.119041678240126"><ele>72.0</ele><time>2026-04-04T14:50:23.999Z</time></trkpt><trkpt lat="43.689528228339405" lon="11.118904517383642"><ele>72.0</ele><time>2026-04-04T14:50:25.999Z</time></trkpt><trkpt lat="43.689617448799176" lon="11.118791044910298"><ele>72.0</ele><time>2026-04-04T14:50:27.998Z</time></trkpt><trkpt lat="43.68972344052337" lon="11.118706653069248"><ele>72.0</ele><time>2026-04-04T14:50:29.998Z</time></trkpt><trkpt lat="43.68982492991621" lon="11.118624524541342"><ele>72.0</ele><time>2026-04-04T14:50:31.998Z</time></trkpt><trkpt lat="43.68992391957322" lon="11.118533655501631"><ele>72.0</ele><time>2026-04-04T14:50:33.998Z</time></trkpt><trkpt lat="43.690023126926356" lon="11.118437660057428"><ele>72.0</ele><time>2026-04-04T14:50:36Z</time></trkpt><trkpt lat="43.690120177093966" lon="11.118344781535598"><ele>72.0</ele><time>2026-04-04T14:50:38Z</time></trkpt><trkpt lat="43.690205434532224" lon="11.118238411887853"><ele>72.0</ele><time>2026-04-04T14:50:40Z</time></trkpt><trkpt lat="43.69028698400351" lon="11.118122775060616"><ele>71.8</ele><time>2026-04-04T14:50:42Z</time></trkpt><trkpt lat="43.690360341340224" lon="11.11800630778487"><ele>71.6</ele><time>2026-04-04T14:50:44Z</time></trkpt><trkpt lat="43.690432360854594" lon="11.117886291199452"><ele>71.39999999999999</ele><time>2026-04-04T14:50:46Z</time></trkpt><trkpt lat="43.690503694960924" lon="11.117766572545023"><ele>71.2</ele><time>2026-04-04T14:50:48Z</time></trkpt><trkpt lat="43.69056556886618" lon="11.117640155149168"><ele>71.0</ele><time>2026-04-04T14:50:50Z</time></trkpt><trkpt lat="43.69062794518247" lon="11.117521075539457"><ele>71.0</ele><time>2026-04-04T14:50:52Z</time></trkpt><trkpt lat="43.69068717779967" lon="11.117403545514353"><ele>71.0</ele><time>2026-04-04T14:50:54Z</time></trkpt><trkpt lat="43.69074064259705" lon="11.117285560000605"><ele>71.0</ele><time>2026-04-04T14:50:56Z</time></trkpt><trkpt lat="43.69078390290252" lon="11.117158819322333"><ele>71.0</ele><time>2026-04-04T14:50:58Z</time></trkpt><trkpt lat="43.69082717935475" lon="11.117035245573225"><ele>71.0</ele><time>2026-04-04T14:51:00Z</time></trkpt><trkpt lat="43.69086471005677" lon="11.116901748672852"><ele>71.0</ele><time>2026-04-04T14:51:02Z</time></trkpt><trkpt lat="43.690899466515795" lon="11.116772939845843"><ele>71.0</ele><time>2026-04-04T14:51:04Z</time></trkpt><trkpt lat="43.69093605323621" lon="11.116639709669386"><ele>71.0</ele><time>2026-04-04T14:51:06Z</time></trkpt><trkpt lat="43.69097286953657" lon="11.116509156225588"><ele>71.0</ele><time>2026-04-04T14:51:08Z</time></trkpt><trkpt lat="43.69101326473591" lon="11.11637871922608"><ele>71.0</ele><time>2026-04-04T14:51:10Z</time></trkpt><trkpt lat="43.6910504756871" lon="11.116247916128144"><ele>71.0</ele><time>2026-04-04T14:51:12Z</time></trkpt><trkpt lat="43.69110295342622" lon="11.11612883572406"><ele>71.0</ele><time>2026-04-04T14:51:14Z</time></trkpt><trkpt lat="43.691151953214785" lon="11.11600365005297"><ele>71.0</ele><time>2026-04-04T14:51:16Z</time></trkpt><trkpt lat="43.69120275780955" lon="11.115885261219928"><ele>71.0</ele><time>2026-04-04T14:51:18Z</time></trkpt><trkpt lat="43.69125450126753" lon="11.115770365159971"><ele>71.0</ele><time>2026-04-04T14:51:20Z</time></trkpt><trkpt lat="43.691304098780876" lon="11.115648518025187"><ele>71.0</ele><time>2026-04-04T14:51:22Z</time></trkpt><trkpt lat="43.69135254860461" lon="11.115534578091728"><ele>71.0</ele><time>2026-04-04T14:51:23.999Z</time></trkpt><trkpt lat="43.691398814700754" lon="11.115424699612023"><ele>71.0</ele><time>2026-04-04T14:51:25.999Z</time></trkpt><trkpt lat="43.69144288862506" lon="11.11531817139402"><ele>71.0</ele><time>2026-04-04T14:51:27.999Z</time></trkpt><trkpt lat="43.691493862325146" lon="11.11521015581285"><ele>71.0</ele><time>2026-04-04T14:51:29.999Z</time></trkpt><trkpt lat="43.691536246001036" lon="11.115094946752246"><ele>71.0</ele><time>2026-04-04T14:51:31.999Z</time></trkpt><trkpt lat="43.69158627587999" lon="11.114990199006005"><ele>71.0</ele><time>2026-04-04T14:51:33.999Z</time></trkpt><trkpt lat="43.69163538836852" lon="11.114892583443982"><ele>71.0</ele><time>2026-04-04T14:51:35.999Z</time></trkpt><trkpt lat="43.69168392669803" lon="11.114797435945865"><ele>71.0</ele><time>2026-04-04T14:51:37.999Z</time></trkpt><trkpt lat="43.691735071553545" lon="11.114707299769378"><ele>71.0</ele><time>2026-04-04T14:51:39.999Z</time></trkpt><trkpt lat="43.69178622310115" lon="11.114621432360893"><ele>71.0</ele><time>2026-04-04T14:51:41.999Z</time></trkpt><trkpt lat="43.6918365425583" lon="11.11453384140442"><ele>70.66666666666667</ele><time>2026-04-04T14:51:43.999Z</time></trkpt><trkpt lat="43.69189116990104" lon="11.114449577641068"><ele>70.33333333333334</ele><time>2026-04-04T14:51:45.999Z</time></trkpt><trkpt lat="43.69194105136336" lon="11.114360800696593"><ele>70.0</ele><time>2026-04-04T14:51:47.999Z</time></trkpt><trkpt lat="43.69199258423855" lon="11.11428009625528"><ele>69.66666666666667</ele><time>2026-04-04T14:51:49.999Z</time></trkpt><trkpt lat="43.69204458712219" lon="11.114204991267977"><ele>69.33333333333333</ele><time>2026-04-04T14:51:51.999Z</time></trkpt><trkpt lat="43.69209469397442" lon="11.114132470073123"><ele>69.0</ele><time>2026-04-04T14:51:53.999Z</time></trkpt><trkpt lat="43.69213584610721" lon="11.114063879908864"><ele>69.66666666666667</ele><time>2026-04-04T14:51:55.999Z</time></trkpt><trkpt lat="43.69218685399637" lon="11.11399066237624"><ele>70.33333333333333</ele><time>2026-04-04T14:51:57.999Z</time></trkpt><trkpt lat="43.692237710269964" lon="11.113912645946794"><ele>71.0</ele><time>2026-04-04T14:51:59.999Z</time></trkpt><trkpt lat="43.692292608263166" lon="11.113838751812036"><ele>71.66666666666666</ele><time>2026-04-04T14:52:01.999Z</time></trkpt><trkpt lat="43.692349691573405" lon="11.113759063208363"><ele>72.33333333333333</ele><time>2026-04-04T14:52:03.999Z</time></trkpt><trkpt lat="43.69240802672891" lon="11.11367548337357"><ele>73.0</ele><time>2026-04-04T14:52:05.999Z</time></trkpt><trkpt lat="43.69247249967828" lon="11.113589514764717"><ele>73.0</ele><time>2026-04-04T14:52:07.999Z</time></trkpt><trkpt lat="43.69253208372963" lon="11.11349890568659"><ele>73.0</ele><time>2026-04-04T14:52:09.999Z</time></trkpt><trkpt lat="43.69259485742663" lon="11.113412244749986"><ele>73.0</ele><time>2026-04-04T14:52:11.999Z</time></trkpt><trkpt lat="43.69266883489695" lon="11.11332492166347"><ele>73.0</ele><time>2026-04-04T14:52:13.999Z</time></trkpt><trkpt lat="43.692729029161306" lon="11.113249647551065"><ele>73.0</ele><time>2026-04-04T14:52:15.999Z</time></trkpt><trkpt lat="43.69279729479376" lon="11.113171524898641"><ele>73.0</ele><time>2026-04-04T14:52:17.999Z</time></trkpt><trkpt lat="43.69286350548305" lon="11.113098576642885"><ele>73.66666666666666</ele><time>2026-04-04T14:52:19.999Z</time></trkpt><trkpt lat="43.69291843630834" lon="11.113016621928594"><ele>74.33333333333333</ele><time>2026-04-04T14:52:21.999Z</time></trkpt><trkpt lat="43.692969683450094" lon="11.112928879128761"><ele>75.0</ele><time>2026-04-04T14:52:23.999Z</time></trkpt><trkpt lat="43.69301667192703" lon="11.112836893114231"><ele>75.66666666666667</ele><time>2026-04-04T14:52:25.999Z</time></trkpt><trkpt lat="43.69306453504394" lon="11.112742930058987"><ele>76.33333333333334</ele><time>2026-04-04T14:52:27.999Z</time></trkpt><trkpt lat="43.693113822364765" lon="11.112652805679463"><ele>77.0</ele><time>2026-04-04T14:52:29.999Z</time></trkpt><trkpt lat="43.69316394629115" lon="11.112559950887949"><ele>77.0</ele><time>2026-04-04T14:52:31.999Z</time></trkpt><trkpt lat="43.693218181985216" lon="11.112473298579816"><ele>77.0</ele><time>2026-04-04T14:52:33.999Z</time></trkpt><trkpt lat="43.69326960495308" lon="11.112387707275612"><ele>77.0</ele><time>2026-04-04T14:52:35.999Z</time></trkpt><trkpt lat="43.69332205508238" lon="11.11230557017199"><ele>77.0</ele><time>2026-04-04T14:52:37.999Z</time></trkpt><trkpt lat="43.69336982459161" lon="11.112215917177958"><ele>77.0</ele><time>2026-04-04T14:52:39.999Z</time></trkpt><trkpt lat="43.69341551175792" lon="11.112130770122302"><ele>77.0</ele><time>2026-04-04T14:52:42Z</time></trkpt><trkpt lat="43.69346810354429" lon="11.112046919412409"><ele>77.16666666666667</ele><time>2026-04-04T14:52:44Z</time></trkpt><trkpt lat="43.693513294164156" lon="11.111964485769487"><ele>77.33333333333334</ele><time>2026-04-04T14:52:46Z</time></trkpt><trkpt lat="43.6935595473713" lon="11.111883058963048"><ele>77.5</ele><time>2026-04-04T14:52:48Z</time></trkpt><trkpt lat="43.693602871025995" lon="11.111799647576742"><ele>77.66666666666667</ele><time>2026-04-04T14:52:50Z</time></trkpt><trkpt lat="43.69364405770081" lon="11.111713315091059"><ele>77.83333333333333</ele><time>2026-04-04T14:52:52Z</time></trkpt><trkpt lat="43.69368353382739" lon="11.111614900253649"><ele>78.0</ele><time>2026-04-04T14:52:54Z</time></trkpt><trkpt lat="43.6937135705725" lon="11.111499617559847"><ele>77.4</ele><time>2026-04-04T14:52:56Z</time></trkpt><trkpt lat="43.69372501476859" lon="11.111367885273577"><ele>76.8</ele><time>2026-04-04T14:52:58Z</time></trkpt><trkpt lat="43.69374051125568" lon="11.1112258772366"><ele>76.2</ele><time>2026-04-04T14:53:00Z</time></trkpt><trkpt lat="43.69375804496376" lon="11.111071003090712"><ele>75.6</ele><time>2026-04-04T14:53:02Z</time></trkpt><trkpt lat="43.6937756965303" lon="11.110913219550877"><ele>75.0</ele><time>2026-04-04T14:53:04Z</time></trkpt><trkpt lat="43.69379274907282" lon="11.110750895842127"><ele>74.66666666666667</ele><time>2026-04-04T14:53:06Z</time></trkpt><trkpt lat="43.69382128132326" lon="11.110586920749524"><ele>74.33333333333333</ele><time>2026-04-04T14:53:08Z</time></trkpt><trkpt lat="43.69384222623593" lon="11.110496972337268"><ele>74.0</ele><time>2026-04-04T14:53:09Z</time></trkpt><trkpt lat="43.69386583886485" lon="11.11040746838651"><ele>73.66666666666666</ele><time>2026-04-04T14:53:10Z</time></trkpt><trkpt lat="43.69389143939128" lon="11.110321541196305"><ele>73.33333333333333</ele><time>2026-04-04T14:53:11Z</time></trkpt><trkpt lat="43.69391981612853" lon="11.110228790948911"><ele>73.0</ele><time>2026-04-04T14:53:12Z</time></trkpt><trkpt lat="43.69394889437188" lon="11.110136553272307"><ele>73.0</ele><time>2026-04-04T14:53:13Z</time></trkpt><trkpt lat="43.693978327457366" lon="11.110043039531595"><ele>73.0</ele><time>2026-04-04T14:53:14Z</time></trkpt><trkpt lat="43.694011671774575" lon="11.10995176505924"><ele>73.0</ele><time>2026-04-04T14:53:15Z</time></trkpt><trkpt lat="43.69404917474616" lon="11.10986379316871"><ele>73.0</ele><time>2026-04-04T14:53:16Z</time></trkpt><trkpt lat="43.69408690771598" lon="11.109777108861035"><ele>73.0</ele><time>2026-04-04T14:53:17Z</time></trkpt><trkpt lat="43.69412102230221" lon="11.109691526054974"><ele>73.0</ele><time>2026-04-04T14:53:18Z</time></trkpt><trkpt lat="43.69415625822996" lon="11.109606836072732"><ele>73.0</ele><time>2026-04-04T14:53:19Z</time></trkpt><trkpt lat="43.694192707920536" lon="11.109524102559389"><ele>72.83333333333333</ele><time>2026-04-04T14:53:20Z</time></trkpt><trkpt lat="43.69422937092003" lon="11.109440505329589"><ele>72.66666666666666</ele><time>2026-04-04T14:53:21Z</time></trkpt><trkpt lat="43.69426352173966" lon="11.109357001681254"><ele>72.5</ele><time>2026-04-04T14:53:22Z</time></trkpt><trkpt lat="43.694302817497835" lon="11.109277218407625"><ele>72.33333333333333</ele><time>2026-04-04T14:53:23Z</time></trkpt><trkpt lat="43.69433948382497" lon="11.109199044694456"><ele>72.16666666666667</ele><time>2026-04-04T14:53:24Z</time></trkpt><trkpt lat="43.69437329621963" lon="11.109121522803868"><ele>72.0</ele><time>2026-04-04T14:53:25Z</time></trkpt><trkpt lat="43.69444057891163" lon="11.108978647333313"><ele>72.0</ele><time>2026-04-04T14:53:27Z</time></trkpt><trkpt lat="43.694497974296304" lon="11.108829723803298"><ele>72.0</ele><time>2026-04-04T14:53:28.999Z</time></trkpt><trkpt lat="43.694536309982915" lon="11.108677854582382"><ele>72.0</ele><time>2026-04-04T14:53:30.999Z</time></trkpt><trkpt lat="43.69457180700765" lon="11.10852346413791"><ele>72.0</ele><time>2026-04-04T14:53:32.999Z</time></trkpt><trkpt lat="43.69460741590376" lon="11.108368188401297"><ele>71.2</ele><time>2026-04-04T14:53:34.999Z</time></trkpt><trkpt lat="43.69463715546062" lon="11.108206119564715"><ele>70.4</ele><time>2026-04-04T14:53:36.999Z</time></trkpt><trkpt lat="43.69466363177943" lon="11.108045554328895"><ele>69.6</ele><time>2026-04-04T14:53:38.999Z</time></trkpt><trkpt lat="43.694687580899476" lon="11.107882349119476"><ele>68.8</ele><time>2026-04-04T14:53:40.999Z</time></trkpt><trkpt lat="43.694702485386046" lon="11.10779686956541"><ele>68.0</ele><time>2026-04-04T14:53:41.999Z</time></trkpt><trkpt lat="43.69473290110334" lon="11.107632076748875"><ele>68.0</ele><time>2026-04-04T14:53:43.999Z</time></trkpt><trkpt lat="43.69476317034047" lon="11.107470644482197"><ele>68.0</ele><time>2026-04-04T14:53:45.999Z</time></trkpt><trkpt lat="43.69479802121065" lon="11.107305120008865"><ele>68.0</ele><time>2026-04-04T14:53:47.999Z</time></trkpt><trkpt lat="43.69481720009487" lon="11.10722186491563"><ele>68.0</ele><time>2026-04-04T14:53:48.999Z</time></trkpt><trkpt lat="43.69483522510716" lon="11.107129864921507"><ele>68.0</ele><time>2026-04-04T14:53:49.999Z</time></trkpt><trkpt lat="43.69485741405261" lon="11.107036187161471"><ele>68.0</ele><time>2026-04-04T14:53:50.999Z</time></trkpt><trkpt lat="43.694880358303166" lon="11.106948414244675"><ele>67.99999999999999</ele><time>2026-04-04T14:53:51.999Z</time></trkpt><trkpt lat="43.694903628403246" lon="11.106857796350027"><ele>68.0</ele><time>2026-04-04T14:53:52.999Z</time></trkpt><trkpt lat="43.6949256313301" lon="11.10676272791217"><ele>68.0</ele><time>2026-04-04T14:53:53.999Z</time></trkpt><trkpt lat="43.69494902321197" lon="11.10667011527572"><ele>68.0</ele><time>2026-04-04T14:53:54.999Z</time></trkpt><trkpt lat="43.694972774703565" lon="11.106582068558287"><ele>68.0</ele><time>2026-04-04T14:53:55.999Z</time></trkpt><trkpt lat="43.69499216125924" lon="11.1064890529889"><ele>67.99999999999999</ele><time>2026-04-04T14:53:56.999Z</time></trkpt><trkpt lat="43.695010931250046" lon="11.106395985576176"><ele>68.0</ele><time>2026-04-04T14:53:57.999Z</time></trkpt><trkpt lat="43.69502594642411" lon="11.106301650650495"><ele>67.85714285714285</ele><time>2026-04-04T14:53:58.999Z</time></trkpt><trkpt lat="43.69504121647253" lon="11.106203793638773"><ele>67.71428571428571</ele><time>2026-04-04T14:53:59.999Z</time></trkpt><trkpt lat="43.69505793376196" lon="11.10610908294046"><ele>67.57142857142857</ele><time>2026-04-04T14:54:00.999Z</time></trkpt><trkpt lat="43.695076965882706" lon="11.106015359480581"><ele>67.42857142857142</ele><time>2026-04-04T14:54:01.999Z</time></trkpt><trkpt lat="43.6950915007837" lon="11.105919143321303"><ele>67.28571428571428</ele><time>2026-04-04T14:54:02.999Z</time></trkpt><trkpt lat="43.695107944306365" lon="11.105825020316605"><ele>67.14285714285714</ele><time>2026-04-04T14:54:03.999Z</time></trkpt><trkpt lat="43.69512133139433" lon="11.105735130165442"><ele>67.0</ele><time>2026-04-04T14:54:04.999Z</time></trkpt><trkpt lat="43.69513728043797" lon="11.105646360507597"><ele>66.83333333333333</ele><time>2026-04-04T14:54:05.999Z</time></trkpt><trkpt lat="43.69515624918552" lon="11.10556043266463"><ele>66.66666666666666</ele><time>2026-04-04T14:54:06.999Z</time></trkpt><trkpt lat="43.69516712701911" lon="11.105472179622671"><ele>66.5</ele><time>2026-04-04T14:54:07.999Z</time></trkpt><trkpt lat="43.69518227012485" lon="11.10538753965235"><ele>66.33333333333333</ele><time>2026-04-04T14:54:08.999Z</time></trkpt><trkpt lat="43.69519767536828" lon="11.105302213995332"><ele>66.16666666666667</ele><time>2026-04-04T14:54:09.999Z</time></trkpt><trkpt lat="43.695226908112446" lon="11.105134877613537"><ele>66.0</ele><time>2026-04-04T14:54:11.999Z</time></trkpt><trkpt lat="43.69526005724392" lon="11.104974553693177"><ele>66.39999999999999</ele><time>2026-04-04T14:54:13.999Z</time></trkpt><trkpt lat="43.695298058986275" lon="11.104820128756675"><ele>66.8</ele><time>2026-04-04T14:54:15.999Z</time></trkpt><trkpt lat="43.695360609143144" lon="11.104779513078663"><ele>67.19999999999999</ele><time>2026-04-04T14:54:16.999Z</time></trkpt><trkpt lat="43.69543265822173" lon="11.104669777221902"><ele>67.6</ele><time>2026-04-04T14:54:18.999Z</time></trkpt><trkpt lat="43.695432283844944" lon="11.104516680362135"><ele>68.0</ele><time>2026-04-04T14:54:20.999Z</time></trkpt><trkpt lat="43.695404174289095" lon="11.104373466293026"><ele>68.0</ele><time>2026-04-04T14:54:22.999Z</time></trkpt><trkpt lat="43.69538501969128" lon="11.104220358752938"><ele>68.0</ele><time>2026-04-04T14:54:24.999Z</time></trkpt><trkpt lat="43.69537760528999" lon="11.104076225408557"><ele>68.0</ele><time>2026-04-04T14:54:26.999Z</time></trkpt><trkpt lat="43.69544370069938" lon="11.103995792076757"><ele>68.0</ele><time>2026-04-04T14:54:27.999Z</time></trkpt><trkpt lat="43.695470600085194" lon="11.10384393909653"><ele>68.0</ele><time>2026-04-04T14:54:29.999Z</time></trkpt><trkpt lat="43.69550026889462" lon="11.103694021062926"><ele>67.6</ele><time>2026-04-04T14:54:31.999Z</time></trkpt><trkpt lat="43.695529860824095" lon="11.103539978574837"><ele>67.19999999999999</ele><time>2026-04-04T14:54:33.999Z</time></trkpt><trkpt lat="43.69555783070719" lon="11.103384894117083"><ele>66.8</ele><time>2026-04-04T14:54:35.999Z</time></trkpt><trkpt lat="43.695586474195736" lon="11.103236240573539"><ele>66.39999999999999</ele><time>2026-04-04T14:54:37.999Z</time></trkpt><trkpt lat="43.69561334542935" lon="11.103092828123904"><ele>66.0</ele><time>2026-04-04T14:54:39.999Z</time></trkpt><trkpt lat="43.69565087853808" lon="11.102950091572746"><ele>65.8</ele><time>2026-04-04T14:54:41.999Z</time></trkpt><trkpt lat="43.69568966495818" lon="11.102814783774416"><ele>65.6</ele><time>2026-04-04T14:54:43.999Z</time></trkpt><trkpt lat="43.695728728263525" lon="11.10267657972474"><ele>65.4</ele><time>2026-04-04T14:54:45.999Z</time></trkpt><trkpt lat="43.69578192297798" lon="11.1025541251821"><ele>65.2</ele><time>2026-04-04T14:54:48Z</time></trkpt><trkpt lat="43.695837330602146" lon="11.102429381046615"><ele>65.0</ele><time>2026-04-04T14:54:50Z</time></trkpt><trkpt lat="43.69589938141646" lon="11.102312290445308"><ele>65.0</ele><time>2026-04-04T14:54:52Z</time></trkpt><trkpt lat="43.69596662157969" lon="11.102196964218859"><ele>65.0</ele><time>2026-04-04T14:54:54Z</time></trkpt><trkpt lat="43.69603554654667" lon="11.102086179670925"><ele>65.0</ele><time>2026-04-04T14:54:56Z</time></trkpt><trkpt lat="43.69617955656533" lon="11.101872160903152"><ele>65.0</ele><time>2026-04-04T14:55:00Z</time></trkpt><trkpt lat="43.69624862263219" lon="11.10175689653441"><ele>65.0</ele><time>2026-04-04T14:55:02Z</time></trkpt><trkpt lat="43.69631022457352" lon="11.101633279419282"><ele>65.0</ele><time>2026-04-04T14:55:04Z</time></trkpt><trkpt lat="43.69637209303272" lon="11.10151006556028"><ele>65.0</ele><time>2026-04-04T14:55:06Z</time></trkpt><trkpt lat="43.696433310896225" lon="11.101394731193716"><ele>65.0</ele><time>2026-04-04T14:55:08Z</time></trkpt><trkpt lat="43.69649607940327" lon="11.101286034566261"><ele>65.0</ele><time>2026-04-04T14:55:10Z</time></trkpt><trkpt lat="43.69655529938888" lon="11.101171314130294"><ele>64.6</ele><time>2026-04-04T14:55:12Z</time></trkpt><trkpt lat="43.69661714549994" lon="11.101055020180727"><ele>64.2</ele><time>2026-04-04T14:55:14Z</time></trkpt><trkpt lat="43.69668345475007" lon="11.10094695516589"><ele>63.8</ele><time>2026-04-04T14:55:16Z</time></trkpt><trkpt lat="43.69674882453575" lon="11.100836297436876"><ele>63.4</ele><time>2026-04-04T14:55:18Z</time></trkpt><trkpt lat="43.696804010349425" lon="11.10071969860066"><ele>63.0</ele><time>2026-04-04T14:55:20Z</time></trkpt><trkpt lat="43.69684079301471" lon="11.10059216262443"><ele>63.2</ele><time>2026-04-04T14:55:22Z</time></trkpt><trkpt lat="43.69687524214938" lon="11.100456727062625"><ele>63.4</ele><time>2026-04-04T14:55:24Z</time></trkpt><trkpt lat="43.696920528409414" lon="11.100327430845528"><ele>63.60000000000001</ele><time>2026-04-04T14:55:26Z</time></trkpt><trkpt lat="43.697009702960145" lon="11.100243860486732"><ele>63.800000000000004</ele><time>2026-04-04T14:55:28Z</time></trkpt><trkpt lat="43.69710834946833" lon="11.100165761418683"><ele>64.0</ele><time>2026-04-04T14:55:30Z</time></trkpt><trkpt lat="43.69716901339634" lon="11.100035594189297"><ele>63.25</ele><time>2026-04-04T14:55:32Z</time></trkpt><trkpt lat="43.69719523841189" lon="11.09980786789396"><ele>62.5</ele><time>2026-04-04T14:55:35Z</time></trkpt><trkpt lat="43.697252640895826" lon="11.099676158479289"><ele>61.75</ele><time>2026-04-04T14:55:37Z</time></trkpt><trkpt lat="43.69733058306013" lon="11.099571373602023"><ele>61.0</ele><time>2026-04-04T14:55:39Z</time></trkpt><trkpt lat="43.69740411546784" lon="11.099471138766967"><ele>61.0</ele><time>2026-04-04T14:55:41Z</time></trkpt><trkpt lat="43.697470730347824" lon="11.099364301219337"><ele>60.99999999999999</ele><time>2026-04-04T14:55:43Z</time></trkpt><trkpt lat="43.697530950613995" lon="11.099264162046136"><ele>60.99999999999999</ele><time>2026-04-04T14:55:45Z</time></trkpt><trkpt lat="43.69758014248044" lon="11.099166752306482"><ele>61.0</ele><time>2026-04-04T14:55:47Z</time></trkpt><trkpt lat="43.69763165711643" lon="11.099058955322937"><ele>61.0</ele><time>2026-04-04T14:55:49Z</time></trkpt><trkpt lat="43.69767456765151" lon="11.098936470066736"><ele>60.83333333333333</ele><time>2026-04-04T14:55:51Z</time></trkpt><trkpt lat="43.697717675353125" lon="11.098811728016974"><ele>60.666666666666664</ele><time>2026-04-04T14:55:52.999Z</time></trkpt><trkpt lat="43.69775300924894" lon="11.098684645341073"><ele>60.5</ele><time>2026-04-04T14:55:54.999Z</time></trkpt><trkpt lat="43.697778547012895" lon="11.09858315535958"><ele>60.33333333333333</ele><time>2026-04-04T14:55:56.999Z</time></trkpt><trkpt lat="43.69779941425873" lon="11.098487895722316"><ele>60.166666666666664</ele><time>2026-04-04T14:56:04.999Z</time></trkpt><trkpt lat="43.69782536026825" lon="11.098361381019483"><ele>60.0</ele><time>2026-04-04T14:56:07.999Z</time></trkpt><trkpt lat="43.697842590927344" lon="11.098263963249138"><ele>60.0</ele><time>2026-04-04T14:56:09.999Z</time></trkpt><trkpt lat="43.69785886056415" lon="11.098151965276855"><ele>60.0</ele><time>2026-04-04T14:56:11.999Z</time></trkpt><trkpt lat="43.69787385405468" lon="11.098033917742507"><ele>60.0</ele><time>2026-04-04T14:56:13.999Z</time></trkpt><trkpt lat="43.697887783091176" lon="11.097908391666182"><ele>60.0</ele><time>2026-04-04T14:56:15.999Z</time></trkpt><trkpt lat="43.697898927675574" lon="11.097779389114098"><ele>60.0</ele><time>2026-04-04T14:56:17.999Z</time></trkpt><trkpt lat="43.69790887160718" lon="11.097646251253831"><ele>60.0</ele><time>2026-04-04T14:56:19.999Z</time></trkpt><trkpt lat="43.69791560430064" lon="11.097513079704811"><ele>60.0</ele><time>2026-04-04T14:56:21.999Z</time></trkpt><trkpt lat="43.697920836907095" lon="11.097371825021705"><ele>60.0</ele><time>2026-04-04T14:56:23.999Z</time></trkpt><trkpt lat="43.69792481842841" lon="11.097227447574614"><ele>60.0</ele><time>2026-04-04T14:56:25.999Z</time></trkpt><trkpt lat="43.69792765754009" lon="11.09707712162104"><ele>60.0</ele><time>2026-04-04T14:56:27.999Z</time></trkpt><trkpt lat="43.69793106455901" lon="11.096921754659762"><ele>59.5</ele><time>2026-04-04T14:56:29.999Z</time></trkpt><trkpt lat="43.697935700596354" lon="11.096762610535631"><ele>59.0</ele><time>2026-04-04T14:56:31.999Z</time></trkpt><trkpt lat="43.69794191184871" lon="11.09660666198001"><ele>58.5</ele><time>2026-04-04T14:56:33.999Z</time></trkpt><trkpt lat="43.6979481580515" lon="11.096449835857584"><ele>58.0</ele><time>2026-04-04T14:56:35.999Z</time></trkpt><trkpt lat="43.69795410755804" lon="11.096300459031491"><ele>58.0</ele><time>2026-04-04T14:56:37.999Z</time></trkpt><trkpt lat="43.69796184617185" lon="11.096147268641696"><ele>58.0</ele><time>2026-04-04T14:56:39.999Z</time></trkpt><trkpt lat="43.69797351486543" lon="11.095993971723761"><ele>58.0</ele><time>2026-04-04T14:56:41.999Z</time></trkpt><trkpt lat="43.69798958705365" lon="11.095853546733464"><ele>58.0</ele><time>2026-04-04T14:56:43.999Z</time></trkpt><trkpt lat="43.69801127141332" lon="11.095708955670146"><ele>58.0</ele><time>2026-04-04T14:56:45.999Z</time></trkpt><trkpt lat="43.69803455047628" lon="11.095574256920719"><ele>57.8</ele><time>2026-04-04T14:56:47.999Z</time></trkpt><trkpt lat="43.69806158660109" lon="11.095437791428854"><ele>57.599999999999994</ele><time>2026-04-04T14:56:49.999Z</time></trkpt><trkpt lat="43.698089979707774" lon="11.095303047057634"><ele>57.400000000000006</ele><time>2026-04-04T14:56:51.999Z</time></trkpt><trkpt lat="43.69812132648967" lon="11.095168175635937"><ele>57.2</ele><time>2026-04-04T14:56:54.001Z</time></trkpt><trkpt lat="43.69815824548864" lon="11.095032005113348"><ele>57.0</ele><time>2026-04-04T14:56:56.001Z</time></trkpt><trkpt lat="43.6982023660583" lon="11.09490044389917"><ele>56.8</ele><time>2026-04-04T14:56:58.001Z</time></trkpt><trkpt lat="43.69825136518137" lon="11.094772763023885"><ele>56.6</ele><time>2026-04-04T14:57:00.001Z</time></trkpt><trkpt lat="43.69830095304655" lon="11.09465453577991"><ele>56.39999999999999</ele><time>2026-04-04T14:57:02Z</time></trkpt><trkpt lat="43.69835179481009" lon="11.094537462215612"><ele>56.199999999999996</ele><time>2026-04-04T14:57:04Z</time></trkpt><trkpt lat="43.69840224086841" lon="11.094421299328957"><ele>56.0</ele><time>2026-04-04T14:57:06Z</time></trkpt><trkpt lat="43.69845598912679" lon="11.094303499301637"><ele>56.0</ele><time>2026-04-04T14:57:08Z</time></trkpt><trkpt lat="43.69851389230541" lon="11.09418785562192"><ele>55.99999999999999</ele><time>2026-04-04T14:57:10Z</time></trkpt><trkpt lat="43.69857422856596" lon="11.094078588953913"><ele>55.99999999999999</ele><time>2026-04-04T14:57:12Z</time></trkpt><trkpt lat="43.698639496637696" lon="11.093970930653906"><ele>56.0</ele><time>2026-04-04T14:57:14Z</time></trkpt><trkpt lat="43.69870522745436" lon="11.093868550930566"><ele>56.0</ele><time>2026-04-04T14:57:16Z</time></trkpt><trkpt lat="43.698777116990215" lon="11.093763666012618"><ele>56.199999999999996</ele><time>2026-04-04T14:57:18Z</time></trkpt><trkpt lat="43.69888343771698" lon="11.093617250976031"><ele>56.39999999999999</ele><time>2026-04-04T14:57:21Z</time></trkpt><trkpt lat="43.69895128542259" lon="11.0935251814669"><ele>56.6</ele><time>2026-04-04T14:57:23Z</time></trkpt><trkpt lat="43.699020465610914" lon="11.093428601899113"><ele>56.8</ele><time>2026-04-04T14:57:25Z</time></trkpt><trkpt lat="43.69909254835499" lon="11.093327556258158"><ele>57.0</ele><time>2026-04-04T14:57:27Z</time></trkpt><trkpt lat="43.699163846082804" lon="11.093227610959122"><ele>57.0</ele><time>2026-04-04T14:57:29Z</time></trkpt><trkpt lat="43.69924013667497" lon="11.093125008742147"><ele>57.0</ele><time>2026-04-04T14:57:31Z</time></trkpt><trkpt lat="43.69931771843746" lon="11.093023726509328"><ele>57.0</ele><time>2026-04-04T14:57:33Z</time></trkpt><trkpt lat="43.699397289852755" lon="11.092922981366135"><ele>57.0</ele><time>2026-04-04T14:57:35Z</time></trkpt><trkpt lat="43.699477448024815" lon="11.092825019178264"><ele>57.0</ele><time>2026-04-04T14:57:37Z</time></trkpt><trkpt lat="43.69955807223765" lon="11.092726487297401"><ele>57.0</ele><time>2026-04-04T14:57:39Z</time></trkpt><trkpt lat="43.6996333161339" lon="11.092631229522803"><ele>57.0</ele><time>2026-04-04T14:57:41Z</time></trkpt><trkpt lat="43.69970713343885" lon="11.092535729888475"><ele>57.0</ele><time>2026-04-04T14:57:43Z</time></trkpt><trkpt lat="43.699781680553016" lon="11.092437805084213"><ele>57.0</ele><time>2026-04-04T14:57:45Z</time></trkpt><trkpt lat="43.69985901914947" lon="11.09233495342744"><ele>57.0</ele><time>2026-04-04T14:57:47Z</time></trkpt><trkpt lat="43.699932177068796" lon="11.092236948670344"><ele>57.0</ele><time>2026-04-04T14:57:49Z</time></trkpt><trkpt lat="43.70000455402831" lon="11.092137567913069"><ele>57.0</ele><time>2026-04-04T14:57:51Z</time></trkpt><trkpt lat="43.700078369709594" lon="11.09203345758815"><ele>57.0</ele><time>2026-04-04T14:57:53Z</time></trkpt><trkpt lat="43.700147526702196" lon="11.091931335835234"><ele>57.0</ele><time>2026-04-04T14:57:55Z</time></trkpt><trkpt lat="43.70021629914814" lon="11.091828712249871"><ele>57.0</ele><time>2026-04-04T14:57:57Z</time></trkpt><trkpt lat="43.70028418561391" lon="11.091725455863127"><ele>57.0</ele><time>2026-04-04T14:57:58.999Z</time></trkpt><trkpt lat="43.70034979006025" lon="11.091624231625351"><ele>57.0</ele><time>2026-04-04T14:58:00.999Z</time></trkpt><trkpt lat="43.70041394863465" lon="11.09152111315121"><ele>57.0</ele><time>2026-04-04T14:58:02.999Z</time></trkpt><trkpt lat="43.700475223699115" lon="11.09141747114071"><ele>57.0</ele><time>2026-04-04T14:58:04.999Z</time></trkpt><trkpt lat="43.70053473300734" lon="11.091310983980966"><ele>57.0</ele><time>2026-04-04T14:58:06.999Z</time></trkpt><trkpt lat="43.700591978150705" lon="11.091202594430497"><ele>57.0</ele><time>2026-04-04T14:58:08.999Z</time></trkpt><trkpt lat="43.70064925943568" lon="11.091091677352821"><ele>57.0</ele><time>2026-04-04T14:58:10.999Z</time></trkpt><trkpt lat="43.70070444912519" lon="11.090984810425848"><ele>57.0</ele><time>2026-04-04T14:58:12.999Z</time></trkpt><trkpt lat="43.700759252745705" lon="11.090876804405468"><ele>57.0</ele><time>2026-04-04T14:58:14.999Z</time></trkpt><trkpt lat="43.70081378660631" lon="11.090767011968229"><ele>57.0</ele><time>2026-04-04T14:58:16.999Z</time></trkpt><trkpt lat="43.700867109160605" lon="11.090655116711131"><ele>56.6</ele><time>2026-04-04T14:58:18.999Z</time></trkpt><trkpt lat="43.70092079137505" lon="11.090542466805493"><ele>56.2</ele><time>2026-04-04T14:58:20.999Z</time></trkpt><trkpt lat="43.7009747346376" lon="11.090429269008126"><ele>55.8</ele><time>2026-04-04T14:58:22.999Z</time></trkpt><trkpt lat="43.70107867159011" lon="11.090363123184169"><ele>55.4</ele><time>2026-04-04T14:58:24.999Z</time></trkpt><trkpt lat="43.70113229232594" lon="11.090250230220047"><ele>55.0</ele><time>2026-04-04T14:58:26.999Z</time></trkpt><trkpt lat="43.70118504535365" lon="11.09013449289298"><ele>55.0</ele><time>2026-04-04T14:58:28.999Z</time></trkpt><trkpt lat="43.70124757107524" lon="11.09002340117615"><ele>55.0</ele><time>2026-04-04T14:58:30.999Z</time></trkpt><trkpt lat="43.701301481993475" lon="11.08990074001046"><ele>55.0</ele><time>2026-04-04T14:58:32.999Z</time></trkpt><trkpt lat="43.70135880103931" lon="11.08978236592315"><ele>55.0</ele><time>2026-04-04T14:58:34.999Z</time></trkpt><trkpt lat="43.701417646805275" lon="11.089668011969273"><ele>55.0</ele><time>2026-04-04T14:58:36.999Z</time></trkpt><trkpt lat="43.70147979528829" lon="11.08955595335311"><ele>55.0</ele><time>2026-04-04T14:58:38.999Z</time></trkpt><trkpt lat="43.70154229633283" lon="11.089446105897354"><ele>55.0</ele><time>2026-04-04T14:58:40.999Z</time></trkpt><trkpt lat="43.701604295890235" lon="11.089335054966382"><ele>55.0</ele><time>2026-04-04T14:58:42.999Z</time></trkpt><trkpt lat="43.701670837455744" lon="11.08922549545997"><ele>55.0</ele><time>2026-04-04T14:58:44.999Z</time></trkpt><trkpt lat="43.70173404021994" lon="11.089118008083926"><ele>55.0</ele><time>2026-04-04T14:58:46.999Z</time></trkpt><trkpt lat="43.70180451052191" lon="11.089015108473381"><ele>55.0</ele><time>2026-04-04T14:58:48.999Z</time></trkpt><trkpt lat="43.701871576423315" lon="11.088909038801425"><ele>55.0</ele><time>2026-04-04T14:58:50.999Z</time></trkpt><trkpt lat="43.701940410170636" lon="11.088809904894928"><ele>55.0</ele><time>2026-04-04T14:58:52.999Z</time></trkpt><trkpt lat="43.70201499483721" lon="11.08871957995348"><ele>55.0</ele><time>2026-04-04T14:58:54.999Z</time></trkpt><trkpt lat="43.70208872912225" lon="11.088629131170487"><ele>55.0</ele><time>2026-04-04T14:58:56.999Z</time></trkpt><trkpt lat="43.70217037325594" lon="11.088539413190478"><ele>54.8</ele><time>2026-04-04T14:58:58.999Z</time></trkpt><trkpt lat="43.702251564205184" lon="11.088456538884"><ele>54.6</ele><time>2026-04-04T14:59:01Z</time></trkpt><trkpt lat="43.70233825887156" lon="11.088371964760613"><ele>54.400000000000006</ele><time>2026-04-04T14:59:03Z</time></trkpt><trkpt lat="43.70242622658" lon="11.08829122664015"><ele>54.2</ele><time>2026-04-04T14:59:05Z</time></trkpt><trkpt lat="43.702513429953264" lon="11.088215512565966"><ele>54.0</ele><time>2026-04-04T14:59:07Z</time></trkpt><trkpt lat="43.70260058852782" lon="11.088143604727636"><ele>54.0</ele><time>2026-04-04T14:59:09Z</time></trkpt><trkpt lat="43.70269216669606" lon="11.088085037830796"><ele>54.00000000000001</ele><time>2026-04-04T14:59:11Z</time></trkpt><trkpt lat="43.70278515728093" lon="11.088025081939621"><ele>54.00000000000001</ele><time>2026-04-04T14:59:13Z</time></trkpt><trkpt lat="43.702878625782354" lon="11.08796644160606"><ele>54.0</ele><time>2026-04-04T14:59:15Z</time></trkpt><trkpt lat="43.70297107476767" lon="11.087920845749093"><ele>54.0</ele><time>2026-04-04T14:59:17Z</time></trkpt><trkpt lat="43.703064591645024" lon="11.087870777162491"><ele>53.800000000000004</ele><time>2026-04-04T14:59:19Z</time></trkpt><trkpt lat="43.70316103280275" lon="11.087828507431832"><ele>53.60000000000001</ele><time>2026-04-04T14:59:21Z</time></trkpt><trkpt lat="43.703261216829745" lon="11.087791380620592"><ele>53.4</ele><time>2026-04-04T14:59:23Z</time></trkpt><trkpt lat="43.7033615153517" lon="11.087754081784432"><ele>53.2</ele><time>2026-04-04T14:59:25Z</time></trkpt><trkpt lat="43.70345838879725" lon="11.087728579712543"><ele>53.0</ele><time>2026-04-04T14:59:27Z</time></trkpt><trkpt lat="43.703560914989204" lon="11.087705867857823"><ele>53.4</ele><time>2026-04-04T14:59:29Z</time></trkpt><trkpt lat="43.703604854041494" lon="11.087624947954584"><ele>53.8</ele><time>2026-04-04T14:59:30Z</time></trkpt><trkpt lat="43.70370657384178" lon="11.087610311079485"><ele>54.2</ele><time>2026-04-04T14:59:32Z</time></trkpt><trkpt lat="43.703804819263894" lon="11.087599487465777"><ele>54.6</ele><time>2026-04-04T14:59:34Z</time></trkpt><trkpt lat="43.703901246634025" lon="11.087593290486929"><ele>55.0</ele><time>2026-04-04T14:59:36Z</time></trkpt><trkpt lat="43.703997349820405" lon="11.087589966602065"><ele>55.0</ele><time>2026-04-04T14:59:38Z</time></trkpt><trkpt lat="43.7040930764472" lon="11.087587186717453"><ele>55.0</ele><time>2026-04-04T14:59:40Z</time></trkpt><trkpt lat="43.704181523974434" lon="11.087584618199"><ele>55.0</ele><time>2026-04-04T14:59:42Z</time></trkpt><trkpt lat="43.70424132827108" lon="11.087616576372685"><ele>55.0</ele><time>2026-04-04T14:59:46Z</time></trkpt><trkpt lat="43.70453760956302" lon="11.087679142830792"><ele>55.0</ele><time>2026-04-04T14:59:47Z</time></trkpt><trkpt lat="43.70428243954277" lon="11.08805931015103"><ele>55.0</ele><time>2026-04-04T14:59:48Z</time></trkpt><trkpt lat="43.704340724979346" lon="11.08818949188791"><ele>63.33333333333333</ele><time>2026-04-04T14:59:50Z</time></trkpt><trkpt lat="43.70454496878912" lon="11.088349944774631"><ele>71.66666666666667</ele><time>2026-04-04T14:59:52Z</time></trkpt><trkpt lat="43.704594941941" lon="11.088448020878321"><ele>80.0</ele><time>2026-04-04T14:59:56.999Z</time></trkpt><trkpt lat="43.70469807700798" lon="11.08833064285063"><ele>77.33333333333334</ele><time>2026-04-04T14:59:59.999Z</time></trkpt><trkpt lat="43.704714050062336" lon="11.08820525182158"><ele>74.66666666666667</ele><time>2026-04-04T15:00:01.999Z</time></trkpt><trkpt lat="43.70472688334233" lon="11.088073779361894"><ele>72.0</ele><time>2026-04-04T15:00:03.999Z</time></trkpt><trkpt lat="43.704745665129735" lon="11.087953514562338"><ele>69.33333333333333</ele><time>2026-04-04T15:00:05.999Z</time></trkpt><trkpt lat="43.70477486992978" lon="11.087838868003088"><ele>66.66666666666666</ele><time>2026-04-04T15:00:07.999Z</time></trkpt><trkpt lat="43.704811811993096" lon="11.087767776428647"><ele>64.0</ele><time>2026-04-04T15:00:19.999Z</time></trkpt><trkpt lat="43.70486361528424" lon="11.087656134177426"><ele>63.99999999999999</ele><time>2026-04-04T15:00:23.999Z</time></trkpt><trkpt lat="43.70490663047335" lon="11.08759055395506"><ele>64.0</ele><time>2026-04-04T15:00:25.999Z</time></trkpt><trkpt lat="43.70491482269424" lon="11.0874899480679"><ele>64.0</ele><time>2026-04-04T15:00:27.999Z</time></trkpt><trkpt lat="43.70502600640425" lon="11.087465608468204"><ele>64.0</ele><time>2026-04-04T15:00:29.999Z</time></trkpt><trkpt lat="43.70511802417425" lon="11.087448972888147"><ele>63.99999999999999</ele><time>2026-04-04T15:00:31.999Z</time></trkpt><trkpt lat="43.70520620221287" lon="11.087405686342601"><ele>64.0</ele><time>2026-04-04T15:00:33.999Z</time></trkpt><trkpt lat="43.70528857601271" lon="11.087328075638627"><ele>62.6</ele><time>2026-04-04T15:00:35.999Z</time></trkpt><trkpt lat="43.705372011301264" lon="11.087251854154736"><ele>61.2</ele><time>2026-04-04T15:00:37.999Z</time></trkpt><trkpt lat="43.705455527209885" lon="11.08716920515525"><ele>59.800000000000004</ele><time>2026-04-04T15:00:39.999Z</time></trkpt><trkpt lat="43.70553665891151" lon="11.087086289483592"><ele>58.400000000000006</ele><time>2026-04-04T15:00:41.999Z</time></trkpt><trkpt lat="43.705613338699195" lon="11.08699223371528"><ele>57.0</ele><time>2026-04-04T15:00:43.999Z</time></trkpt><trkpt lat="43.70568566022607" lon="11.086888715601953"><ele>57.0</ele><time>2026-04-04T15:00:45.999Z</time></trkpt><trkpt lat="43.705746202482636" lon="11.08676859439601"><ele>57.0</ele><time>2026-04-04T15:00:47.999Z</time></trkpt><trkpt lat="43.705798627362675" lon="11.08663634366836"><ele>57.0</ele><time>2026-04-04T15:00:49.999Z</time></trkpt><trkpt lat="43.70582891393681" lon="11.086495341551746"><ele>57.0</ele><time>2026-04-04T15:00:51.999Z</time></trkpt><trkpt lat="43.70586436821848" lon="11.086282579968696"><ele>56.6</ele><time>2026-04-04T15:00:54.999Z</time></trkpt><trkpt lat="43.70588454815014" lon="11.08614398211174"><ele>56.2</ele><time>2026-04-04T15:00:56.999Z</time></trkpt><trkpt lat="43.70590273858085" lon="11.086003166235981"><ele>55.8</ele><time>2026-04-04T15:00:58.999Z</time></trkpt><trkpt lat="43.70592838506785" lon="11.08585871353451"><ele>55.4</ele><time>2026-04-04T15:01:00.999Z</time></trkpt><trkpt lat="43.705953519089604" lon="11.085703917147304"><ele>55.0</ele><time>2026-04-04T15:01:02.999Z</time></trkpt><trkpt lat="43.70597725077706" lon="11.085546697911061"><ele>55.0</ele><time>2026-04-04T15:01:04.998Z</time></trkpt><trkpt lat="43.70600630592373" lon="11.085390471689294"><ele>55.0</ele><time>2026-04-04T15:01:07Z</time></trkpt><trkpt lat="43.70602591996577" lon="11.085222359286295"><ele>55.0</ele><time>2026-04-04T15:01:09Z</time></trkpt><trkpt lat="43.70604726476877" lon="11.085054463061534"><ele>55.0</ele><time>2026-04-04T15:01:10.999Z</time></trkpt><trkpt lat="43.70606951042735" lon="11.08488580466048"><ele>56.8</ele><time>2026-04-04T15:01:13Z</time></trkpt><trkpt lat="43.70608022630392" lon="11.084795596264277"><ele>58.6</ele><time>2026-04-04T15:01:14Z</time></trkpt><trkpt lat="43.70609982970986" lon="11.084628788242345"><ele>60.400000000000006</ele><time>2026-04-04T15:01:16Z</time></trkpt><trkpt lat="43.70612317812266" lon="11.084462489993983"><ele>62.2</ele><time>2026-04-04T15:01:18Z</time></trkpt><trkpt lat="43.706142220513506" lon="11.084314677453687"><ele>64.0</ele><time>2026-04-04T15:01:20Z</time></trkpt><trkpt lat="43.70616456541796" lon="11.084156348741212"><ele>64.2</ele><time>2026-04-04T15:01:22Z</time></trkpt><trkpt lat="43.70618134126727" lon="11.083996011582686"><ele>64.4</ele><time>2026-04-04T15:01:24Z</time></trkpt><trkpt lat="43.706196735008085" lon="11.083846743168895"><ele>64.6</ele><time>2026-04-04T15:01:26Z</time></trkpt><trkpt lat="43.70619221588049" lon="11.083694649696486"><ele>64.8</ele><time>2026-04-04T15:01:28Z</time></trkpt><trkpt lat="43.706187191210816" lon="11.083539044797867"><ele>65.0</ele><time>2026-04-04T15:01:30Z</time></trkpt><trkpt lat="43.706172500302095" lon="11.083394450389825"><ele>65.2</ele><time>2026-04-04T15:01:32Z</time></trkpt><trkpt lat="43.706152764776995" lon="11.083253989746686"><ele>65.4</ele><time>2026-04-04T15:01:34Z</time></trkpt><trkpt lat="43.70612396370587" lon="11.083103679803937"><ele>65.6</ele><time>2026-04-04T15:01:36Z</time></trkpt><trkpt lat="43.70610517145811" lon="11.082951753515657"><ele>65.8</ele><time>2026-04-04T15:01:38Z</time></trkpt><trkpt lat="43.70611594832065" lon="11.082804059485749"><ele>66.0</ele><time>2026-04-04T15:01:40Z</time></trkpt><trkpt lat="43.70613177094428" lon="11.082656499294897"><ele>66.0</ele><time>2026-04-04T15:01:42Z</time></trkpt><trkpt lat="43.70615517177816" lon="11.082514220912387"><ele>66.0</ele><time>2026-04-04T15:01:44Z</time></trkpt><trkpt lat="43.7061805998247" lon="11.082373965115554"><ele>66.0</ele><time>2026-04-04T15:01:45.999Z</time></trkpt><trkpt lat="43.70620532398704" lon="11.08224293172712"><ele>66.0</ele><time>2026-04-04T15:01:47.999Z</time></trkpt><trkpt lat="43.7062293315948" lon="11.082125828263997"><ele>66.0</ele><time>2026-04-04T15:01:49.999Z</time></trkpt><trkpt lat="43.70624556517709" lon="11.08200848143291"><ele>65.83333333333333</ele><time>2026-04-04T15:01:51.999Z</time></trkpt><trkpt lat="43.706264427594" lon="11.081897303517424"><ele>65.66666666666667</ele><time>2026-04-04T15:01:53.999Z</time></trkpt><trkpt lat="43.706281964989564" lon="11.08178250428897"><ele>65.5</ele><time>2026-04-04T15:01:55.999Z</time></trkpt><trkpt lat="43.706299925074205" lon="11.081664353309222"><ele>65.33333333333334</ele><time>2026-04-04T15:01:57.999Z</time></trkpt><trkpt lat="43.70631455632019" lon="11.08155016925656"><ele>65.16666666666667</ele><time>2026-04-04T15:01:59.999Z</time></trkpt><trkpt lat="43.706335551663265" lon="11.081437292160839"><ele>65.0</ele><time>2026-04-04T15:02:01.999Z</time></trkpt><trkpt lat="43.70636563035295" lon="11.08131656246127"><ele>64.4</ele><time>2026-04-04T15:02:03.999Z</time></trkpt><trkpt lat="43.70637621704726" lon="11.081189553812221"><ele>63.8</ele><time>2026-04-04T15:02:05.999Z</time></trkpt><trkpt lat="43.70639811847954" lon="11.081061177085122"><ele>63.2</ele><time>2026-04-04T15:02:07.999Z</time></trkpt><trkpt lat="43.706421510901606" lon="11.080931339997381"><ele>62.6</ele><time>2026-04-04T15:02:09.999Z</time></trkpt><trkpt lat="43.706444067875026" lon="11.080794457593356"><ele>62.0</ele><time>2026-04-04T15:02:11.999Z</time></trkpt><trkpt lat="43.70646604299792" lon="11.080660313788194"><ele>61.0</ele><time>2026-04-04T15:02:13.999Z</time></trkpt><trkpt lat="43.706493316354944" lon="11.080519843861095"><ele>60.0</ele><time>2026-04-04T15:02:15.999Z</time></trkpt><trkpt lat="43.70651605147727" lon="11.080377963686807"><ele>59.0</ele><time>2026-04-04T15:02:17.999Z</time></trkpt><trkpt lat="43.706540555316295" lon="11.080230450810735"><ele>58.0</ele><time>2026-04-04T15:02:19.999Z</time></trkpt><trkpt lat="43.70658438390342" lon="11.080101205926052"><ele>57.0</ele><time>2026-04-04T15:02:21.999Z</time></trkpt><trkpt lat="43.70664012929009" lon="11.079973234971904"><ele>56.8</ele><time>2026-04-04T15:02:23.999Z</time></trkpt><trkpt lat="43.70670430255068" lon="11.079873779733031"><ele>56.6</ele><time>2026-04-04T15:02:25.999Z</time></trkpt><trkpt lat="43.70678360182861" lon="11.079794787838855"><ele>56.39999999999999</ele><time>2026-04-04T15:02:27.999Z</time></trkpt><trkpt lat="43.706854205326124" lon="11.079728977255366"><ele>56.199999999999996</ele><time>2026-04-04T15:02:29.999Z</time></trkpt><trkpt lat="43.706925548530656" lon="11.079655321673213"><ele>56.0</ele><time>2026-04-04T15:02:31.999Z</time></trkpt><trkpt lat="43.70698923846571" lon="11.07958420701424"><ele>56.8</ele><time>2026-04-04T15:02:33.999Z</time></trkpt><trkpt lat="43.70703978776914" lon="11.079481141800724"><ele>57.599999999999994</ele><time>2026-04-04T15:02:35.999Z</time></trkpt><trkpt lat="43.70707245133706" lon="11.079349933642456"><ele>58.4</ele><time>2026-04-04T15:02:37.999Z</time></trkpt><trkpt lat="43.70710526727949" lon="11.079211453681275"><ele>59.2</ele><time>2026-04-04T15:02:39.999Z</time></trkpt><trkpt lat="43.70714243427382" lon="11.07907977251555"><ele>60.0</ele><time>2026-04-04T15:02:41.999Z</time></trkpt><trkpt lat="43.707168417472126" lon="11.078935020245577"><ele>60.0</ele><time>2026-04-04T15:02:43.999Z</time></trkpt><trkpt lat="43.7072005472164" lon="11.078792449403094"><ele>60.0</ele><time>2026-04-04T15:02:45.999Z</time></trkpt><trkpt lat="43.707234467294555" lon="11.078648331713884"><ele>60.0</ele><time>2026-04-04T15:02:47.999Z</time></trkpt><trkpt lat="43.70727276723429" lon="11.078505132345496"><ele>60.0</ele><time>2026-04-04T15:02:49.999Z</time></trkpt><trkpt lat="43.707302551764656" lon="11.078362159523941"><ele>60.0</ele><time>2026-04-04T15:02:51.999Z</time></trkpt><trkpt lat="43.70734482176146" lon="11.078228788475542"><ele>59.4</ele><time>2026-04-04T15:02:53.999Z</time></trkpt><trkpt lat="43.70739159244949" lon="11.078097668332976"><ele>58.8</ele><time>2026-04-04T15:02:55.999Z</time></trkpt><trkpt lat="43.70742955549647" lon="11.077954160255368"><ele>58.2</ele><time>2026-04-04T15:02:57.999Z</time></trkpt><trkpt lat="43.70746532857682" lon="11.077821231940952"><ele>57.6</ele><time>2026-04-04T15:02:59.999Z</time></trkpt><trkpt lat="43.707509098989235" lon="11.07768937270399"><ele>57.0</ele><time>2026-04-04T15:03:01.999Z</time></trkpt><trkpt lat="43.707544734600944" lon="11.077539255085975"><ele>56.6</ele><time>2026-04-04T15:03:03.998Z</time></trkpt><trkpt lat="43.707582785940104" lon="11.077410375150107"><ele>56.2</ele><time>2026-04-04T15:03:05.998Z</time></trkpt><trkpt lat="43.70762846170478" lon="11.077284069376308"><ele>55.8</ele><time>2026-04-04T15:03:07.998Z</time></trkpt><trkpt lat="43.707676102639994" lon="11.077161160719356"><ele>55.4</ele><time>2026-04-04T15:03:09.998Z</time></trkpt><trkpt lat="43.707723059539916" lon="11.077040273161176"><ele>55.0</ele><time>2026-04-04T15:03:12Z</time></trkpt><trkpt lat="43.707773089486665" lon="11.076924792437257"><ele>56.4</ele><time>2026-04-04T15:03:14Z</time></trkpt><trkpt lat="43.707820786867636" lon="11.076803314046856"><ele>57.8</ele><time>2026-04-04T15:03:16Z</time></trkpt><trkpt lat="43.70785664108918" lon="11.076665883821589"><ele>59.2</ele><time>2026-04-04T15:03:18Z</time></trkpt><trkpt lat="43.70789835657641" lon="11.076540826039444"><ele>60.6</ele><time>2026-04-04T15:03:20Z</time></trkpt><trkpt lat="43.70794465511976" lon="11.076422223086592"><ele>62.0</ele><time>2026-04-04T15:03:22Z</time></trkpt><trkpt lat="43.70798756657983" lon="11.076305740181304"><ele>62.0</ele><time>2026-04-04T15:03:24Z</time></trkpt><trkpt lat="43.70801710558303" lon="11.076164834726434"><ele>62.0</ele><time>2026-04-04T15:03:26Z</time></trkpt><trkpt lat="43.708045274065796" lon="11.076008855562693"><ele>62.0</ele><time>2026-04-04T15:03:28Z</time></trkpt><trkpt lat="43.708078329076564" lon="11.075856768752882"><ele>62.0</ele><time>2026-04-04T15:03:30Z</time></trkpt><trkpt lat="43.70810667470707" lon="11.075693346507627"><ele>61.400000000000006</ele><time>2026-04-04T15:03:32Z</time></trkpt><trkpt lat="43.70813319390915" lon="11.07553656526392"><ele>60.800000000000004</ele><time>2026-04-04T15:03:34Z</time></trkpt><trkpt lat="43.7081571554096" lon="11.075383174095961"><ele>60.2</ele><time>2026-04-04T15:03:36Z</time></trkpt><trkpt lat="43.70818826914592" lon="11.075239325919998"><ele>59.6</ele><time>2026-04-04T15:03:38Z</time></trkpt><trkpt lat="43.70820563019886" lon="11.075088066194315"><ele>59.0</ele><time>2026-04-04T15:03:40Z</time></trkpt><trkpt lat="43.70822547142038" lon="11.074941390335548"><ele>58.6</ele><time>2026-04-04T15:03:42Z</time></trkpt><trkpt lat="43.70823693262071" lon="11.07479430395999"><ele>58.2</ele><time>2026-04-04T15:03:44Z</time></trkpt><trkpt lat="43.70825526186363" lon="11.074652058317275"><ele>57.800000000000004</ele><time>2026-04-04T15:03:46Z</time></trkpt><trkpt lat="43.70827387538231" lon="11.074515314023587"><ele>57.400000000000006</ele><time>2026-04-04T15:03:48Z</time></trkpt><trkpt lat="43.708292384684334" lon="11.074386505978255"><ele>57.0</ele><time>2026-04-04T15:03:50Z</time></trkpt><trkpt lat="43.708329746355815" lon="11.074276800511713"><ele>57.0</ele><time>2026-04-04T15:03:52Z</time></trkpt><trkpt lat="43.708368781432696" lon="11.074167191854606"><ele>57.0</ele><time>2026-04-04T15:03:54Z</time></trkpt><trkpt lat="43.708404104395164" lon="11.074018144572007"><ele>57.0</ele><time>2026-04-04T15:03:56Z</time></trkpt><trkpt lat="43.70844909917288" lon="11.073858001135045"><ele>57.0</ele><time>2026-04-04T15:03:58Z</time></trkpt><trkpt lat="43.70848206292996" lon="11.073782688484634"><ele>57.0</ele><time>2026-04-04T15:03:59Z</time></trkpt><trkpt lat="43.708503049948796" lon="11.073692280366599"><ele>57.5</ele><time>2026-04-04T15:04:00Z</time></trkpt><trkpt lat="43.70852056539123" lon="11.073594801468195"><ele>58.0</ele><time>2026-04-04T15:04:01Z</time></trkpt><trkpt lat="43.70856383880779" lon="11.073524457322904"><ele>58.5</ele><time>2026-04-04T15:04:02Z</time></trkpt><trkpt lat="43.708585245817645" lon="11.073431433499813"><ele>59.0</ele><time>2026-04-04T15:04:03Z</time></trkpt><trkpt lat="43.70860793514693" lon="11.073343603891777"><ele>59.5</ele><time>2026-04-04T15:04:03.999Z</time></trkpt><trkpt lat="43.708632018440184" lon="11.073253353122968"><ele>60.0</ele><time>2026-04-04T15:04:04.999Z</time></trkpt><trkpt lat="43.708683317509475" lon="11.07308878905291"><ele>60.0</ele><time>2026-04-04T15:04:06.999Z</time></trkpt><trkpt lat="43.708735527282734" lon="11.07293774593271"><ele>60.0</ele><time>2026-04-04T15:04:08.999Z</time></trkpt><trkpt lat="43.70877799391248" lon="11.072789531713688"><ele>60.0</ele><time>2026-04-04T15:04:10.999Z</time></trkpt><trkpt lat="43.70882411765527" lon="11.07266165974205"><ele>60.0</ele><time>2026-04-04T15:04:12.999Z</time></trkpt><trkpt lat="43.708857697976896" lon="11.072530316561014"><ele>60.0</ele><time>2026-04-04T15:04:14.999Z</time></trkpt><trkpt lat="43.708904070657475" lon="11.072410730734887"><ele>59.0</ele><time>2026-04-04T15:04:16.999Z</time></trkpt><trkpt lat="43.708943904602464" lon="11.072281999503984"><ele>58.0</ele><time>2026-04-04T15:04:18.999Z</time></trkpt><trkpt lat="43.7090147799049" lon="11.07217870029463"><ele>57.0</ele><time>2026-04-04T15:04:20.999Z</time></trkpt><trkpt lat="43.709066347428845" lon="11.072072162553297"><ele>56.0</ele><time>2026-04-04T15:04:22.999Z</time></trkpt><trkpt lat="43.709125832211285" lon="11.07194979769616"><ele>55.0</ele><time>2026-04-04T15:04:24.999Z</time></trkpt><trkpt lat="43.70917574311447" lon="11.071839281305975"><ele>54.99999999999999</ele><time>2026-04-04T15:04:26.999Z</time></trkpt><trkpt lat="43.709215351576866" lon="11.07172076719924"><ele>55.0</ele><time>2026-04-04T15:04:28.999Z</time></trkpt><trkpt lat="43.70924023495214" lon="11.071596497236042"><ele>55.0</ele><time>2026-04-04T15:04:30.999Z</time></trkpt><trkpt lat="43.70925742245502" lon="11.071458500352932"><ele>55.0</ele><time>2026-04-04T15:04:32.999Z</time></trkpt><trkpt lat="43.70928075403647" lon="11.07137632187181"><ele>54.99999999999999</ele><time>2026-04-04T15:04:33.999Z</time></trkpt><trkpt lat="43.70931547284688" lon="11.071302202982558"><ele>55.0</ele><time>2026-04-04T15:04:34.999Z</time></trkpt><trkpt lat="43.709368227702456" lon="11.07115816822831"><ele>56.5</ele><time>2026-04-04T15:04:36.999Z</time></trkpt><trkpt lat="43.70941424223413" lon="11.071016460812512"><ele>58.0</ele><time>2026-04-04T15:04:38.999Z</time></trkpt><trkpt lat="43.709424665556746" lon="11.070859008602675"><ele>59.5</ele><time>2026-04-04T15:04:40.999Z</time></trkpt><trkpt lat="43.70944487898565" lon="11.070706022224941"><ele>61.0</ele><time>2026-04-04T15:04:42.999Z</time></trkpt><trkpt lat="43.70946395964504" lon="11.070546657164869"><ele>61.0</ele><time>2026-04-04T15:04:44.999Z</time></trkpt><trkpt lat="43.70948785185467" lon="11.070386915804077"><ele>61.0</ele><time>2026-04-04T15:04:46.999Z</time></trkpt><trkpt lat="43.70952064911598" lon="11.07023225004652"><ele>61.0</ele><time>2026-04-04T15:04:48.999Z</time></trkpt><trkpt lat="43.70954470436548" lon="11.070075756292564"><ele>61.0</ele><time>2026-04-04T15:04:50.999Z</time></trkpt><trkpt lat="43.70957205326304" lon="11.069926326026177"><ele>59.599999999999994</ele><time>2026-04-04T15:04:52.999Z</time></trkpt><trkpt lat="43.709595474921" lon="11.069783953707265"><ele>58.199999999999996</ele><time>2026-04-04T15:04:54.999Z</time></trkpt><trkpt lat="43.70962104657896" lon="11.069633716934819"><ele>56.800000000000004</ele><time>2026-04-04T15:04:56.999Z</time></trkpt><trkpt lat="43.7096551637609" lon="11.069487532101958"><ele>55.400000000000006</ele><time>2026-04-04T15:04:58.999Z</time></trkpt><trkpt lat="43.70970925123925" lon="11.0693528102611"><ele>54.0</ele><time>2026-04-04T15:05:00.999Z</time></trkpt><trkpt lat="43.7097680171897" lon="11.06923525609613"><ele>53.0</ele><time>2026-04-04T15:05:02.999Z</time></trkpt><trkpt lat="43.7098254658395" lon="11.06910848149866"><ele>52.00000000000001</ele><time>2026-04-04T15:05:04.999Z</time></trkpt><trkpt lat="43.70988516135712" lon="11.068987359572777"><ele>51.0</ele><time>2026-04-04T15:05:06.999Z</time></trkpt><trkpt lat="43.70993924200602" lon="11.068866527966755"><ele>50.0</ele><time>2026-04-04T15:05:08.999Z</time></trkpt><trkpt lat="43.709993462428315" lon="11.06874935535643"><ele>49.0</ele><time>2026-04-04T15:05:10.999Z</time></trkpt><trkpt lat="43.71004610932029" lon="11.068643765761378"><ele>48.99999999999999</ele><time>2026-04-04T15:05:12.999Z</time></trkpt><trkpt lat="43.710092445025495" lon="11.068563017203058"><ele>49.0</ele><time>2026-04-04T15:05:14.999Z</time></trkpt><trkpt lat="43.71013930214007" lon="11.068461790170877"><ele>49.0</ele><time>2026-04-04T15:05:16.998Z</time></trkpt><trkpt lat="43.71020368025454" lon="11.068373012853026"><ele>49.0</ele><time>2026-04-04T15:05:19Z</time></trkpt><trkpt lat="43.71027933663436" lon="11.06829985730879"><ele>48.99999999999999</ele><time>2026-04-04T15:05:21Z</time></trkpt><trkpt lat="43.710342584363325" lon="11.068216451783282"><ele>49.0</ele><time>2026-04-04T15:05:23Z</time></trkpt><trkpt lat="43.71039343668156" lon="11.068156495672579"><ele>49.49999999999999</ele><time>2026-04-04T15:05:26Z</time></trkpt><trkpt lat="43.71050477670932" lon="11.068261472819747"><ele>50.0</ele><time>2026-04-04T15:05:28Z</time></trkpt><trkpt lat="43.71056967325084" lon="11.068280088306356"><ele>50.5</ele><time>2026-04-04T15:05:31Z</time></trkpt><trkpt lat="43.71050018413709" lon="11.068246416552656"><ele>51.0</ele><time>2026-04-04T15:06:30.999Z</time></trkpt><trkpt lat="43.71051366509435" lon="11.068159408769914"><ele>51.49999999999999</ele><time>2026-04-04T15:06:53.999Z</time></trkpt><trkpt lat="43.71054786485175" lon="11.068251733533813"><ele>52.0</ele><time>2026-04-04T15:10:05Z</time></trkpt><trkpt lat="43.71047975978293" lon="11.068195492273817"><ele>51.99999999999999</ele><time>2026-04-04T15:18:43.999Z</time></trkpt><trkpt lat="43.71041701103238" lon="11.068147436505827"><ele>52.0</ele><time>2026-04-04T15:18:47.999Z</time></trkpt><trkpt lat="43.71040708725583" lon="11.06804602133291"><ele>52.0</ele><time>2026-04-04T15:18:51.999Z</time></trkpt><trkpt lat="43.710457100020214" lon="11.06795964917407"><ele>52.0</ele><time>2026-04-04T15:18:53.999Z</time></trkpt><trkpt lat="43.71050381713504" lon="11.067865314065179"><ele>51.99999999999999</ele><time>2026-04-04T15:18:55.999Z</time></trkpt><trkpt lat="43.710541164680194" lon="11.067753586475568"><ele>52.0</ele><time>2026-04-04T15:18:57.999Z</time></trkpt><trkpt lat="43.710579332847445" lon="11.06763569967697"><ele>52.0</ele><time>2026-04-04T15:18:59.999Z</time></trkpt><trkpt lat="43.71062240717163" lon="11.067517909588787"><ele>52.0</ele><time>2026-04-04T15:19:01.999Z</time></trkpt><trkpt lat="43.71065639620751" lon="11.067379382860711"><ele>52.0</ele><time>2026-04-04T15:19:03.999Z</time></trkpt><trkpt lat="43.71068812473408" lon="11.06723627986587"><ele>52.0</ele><time>2026-04-04T15:19:05.999Z</time></trkpt><trkpt lat="43.71071543110289" lon="11.067092558510332"><ele>52.0</ele><time>2026-04-04T15:19:07.999Z</time></trkpt><trkpt lat="43.710739198023816" lon="11.066952879246161"><ele>51.8</ele><time>2026-04-04T15:19:09.999Z</time></trkpt><trkpt lat="43.71076432514673" lon="11.066805143105427"><ele>51.6</ele><time>2026-04-04T15:19:11.999Z</time></trkpt><trkpt lat="43.71079340200972" lon="11.066664903557816"><ele>51.4</ele><time>2026-04-04T15:19:13.999Z</time></trkpt><trkpt lat="43.710819900618006" lon="11.066529548718615"><ele>51.199999999999996</ele><time>2026-04-04T15:19:15.999Z</time></trkpt><trkpt lat="43.71084715725219" lon="11.066400563304354"><ele>51.0</ele><time>2026-04-04T15:19:17.999Z</time></trkpt><trkpt lat="43.710872016074035" lon="11.066277238671875"><ele>51.0</ele><time>2026-04-04T15:19:19.999Z</time></trkpt><trkpt lat="43.71090053676394" lon="11.066152533107363"><ele>51.0</ele><time>2026-04-04T15:19:21.999Z</time></trkpt><trkpt lat="43.710923068128466" lon="11.066027459842326"><ele>51.0</ele><time>2026-04-04T15:19:23.999Z</time></trkpt><trkpt lat="43.71095315591053" lon="11.06591231724349"><ele>51.0</ele><time>2026-04-04T15:19:25.999Z</time></trkpt><trkpt lat="43.71098452057798" lon="11.065806027052776"><ele>51.0</ele><time>2026-04-04T15:19:27.999Z</time></trkpt><trkpt lat="43.71101872003289" lon="11.06570753629622"><ele>51.0</ele><time>2026-04-04T15:19:29.999Z</time></trkpt><trkpt lat="43.711049874466106" lon="11.065602716376256"><ele>53.0</ele><time>2026-04-04T15:19:31.999Z</time></trkpt><trkpt lat="43.71107882172038" lon="11.065479399771103"><ele>55.0</ele><time>2026-04-04T15:19:33.999Z</time></trkpt><trkpt lat="43.71110935528257" lon="11.06535400664036"><ele>56.99999999999999</ele><time>2026-04-04T15:19:35.999Z</time></trkpt><trkpt lat="43.71114158933944" lon="11.065233895277409"><ele>59.0</ele><time>2026-04-04T15:19:37.999Z</time></trkpt><trkpt lat="43.71116715116132" lon="11.065111800801828"><ele>61.0</ele><time>2026-04-04T15:19:39.999Z</time></trkpt><trkpt lat="43.71119371638049" lon="11.064983292683985"><ele>60.0</ele><time>2026-04-04T15:19:41.999Z</time></trkpt><trkpt lat="43.711216167749164" lon="11.064849577710387"><ele>58.99999999999999</ele><time>2026-04-04T15:19:43.999Z</time></trkpt><trkpt lat="43.711233844634" lon="11.064712871177994"><ele>57.99999999999999</ele><time>2026-04-04T15:19:45.998Z</time></trkpt><trkpt lat="43.71124738213279" lon="11.064577519239766"><ele>57.0</ele><time>2026-04-04T15:19:47.998Z</time></trkpt><trkpt lat="43.71126823541802" lon="11.064445174085202"><ele>56.0</ele><time>2026-04-04T15:19:49.998Z</time></trkpt><trkpt lat="43.71128006722717" lon="11.064305246590523"><ele>56.0</ele><time>2026-04-04T15:19:51.998Z</time></trkpt><trkpt lat="43.71129552401651" lon="11.064172718336417"><ele>55.99999999999999</ele><time>2026-04-04T15:19:53.998Z</time></trkpt><trkpt lat="43.71131032277948" lon="11.064039775550537"><ele>55.99999999999999</ele><time>2026-04-04T15:19:55.998Z</time></trkpt><trkpt lat="43.711316614161674" lon="11.063905473437003"><ele>56.0</ele><time>2026-04-04T15:19:57.998Z</time></trkpt><trkpt lat="43.71132839772436" lon="11.06376925063051"><ele>56.0</ele><time>2026-04-04T15:19:59.999Z</time></trkpt><trkpt lat="43.711342032822984" lon="11.06363643556853"><ele>55.199999999999996</ele><time>2026-04-04T15:20:01.999Z</time></trkpt><trkpt lat="43.71135760913764" lon="11.063502459631064"><ele>54.39999999999999</ele><time>2026-04-04T15:20:04Z</time></trkpt><trkpt lat="43.71136812940759" lon="11.063369350612234"><ele>53.6</ele><time>2026-04-04T15:20:06Z</time></trkpt><trkpt lat="43.711382807228034" lon="11.063234838872955"><ele>52.8</ele><time>2026-04-04T15:20:08Z</time></trkpt><trkpt lat="43.71139471273268" lon="11.063104722103475"><ele>52.0</ele><time>2026-04-04T15:20:10Z</time></trkpt><trkpt lat="43.71140504164468" lon="11.062975228817143"><ele>51.400000000000006</ele><time>2026-04-04T15:20:12Z</time></trkpt><trkpt lat="43.71141002280172" lon="11.062851465740643"><ele>50.800000000000004</ele><time>2026-04-04T15:20:14Z</time></trkpt><trkpt lat="43.71142680326206" lon="11.062722999335962"><ele>50.2</ele><time>2026-04-04T15:20:16Z</time></trkpt><trkpt lat="43.71144775259581" lon="11.062588717772112"><ele>49.6</ele><time>2026-04-04T15:20:18Z</time></trkpt><trkpt lat="43.71146870216123" lon="11.062458772461392"><ele>49.0</ele><time>2026-04-04T15:20:20Z</time></trkpt><trkpt lat="43.7114936067536" lon="11.062334378044612"><ele>48.83333333333333</ele><time>2026-04-04T15:20:22Z</time></trkpt><trkpt lat="43.71152142154541" lon="11.062228962838333"><ele>48.666666666666664</ele><time>2026-04-04T15:20:24Z</time></trkpt><trkpt lat="43.71154611504468" lon="11.062132060211782"><ele>48.5</ele><time>2026-04-04T15:20:26Z</time></trkpt><trkpt lat="43.711568321924" lon="11.062044175515755"><ele>48.33333333333333</ele><time>2026-04-04T15:20:28Z</time></trkpt><trkpt lat="43.71163382806669" lon="11.061978288670094"><ele>48.166666666666664</ele><time>2026-04-04T15:20:31Z</time></trkpt><trkpt lat="43.71169221862759" lon="11.061907895201813"><ele>48.0</ele><time>2026-04-04T15:20:34Z</time></trkpt><trkpt lat="43.711737971960666" lon="11.061833273852857"><ele>48.0</ele><time>2026-04-04T15:20:37Z</time></trkpt><trkpt lat="43.7117898970295" lon="11.061764954110007"><ele>48.0</ele><time>2026-04-04T15:20:39.999Z</time></trkpt><trkpt lat="43.71184473516923" lon="11.061687643877855"><ele>48.0</ele><time>2026-04-04T15:20:42.999Z</time></trkpt><trkpt lat="43.71189978238192" lon="11.061613329284365"><ele>48.0</ele><time>2026-04-04T15:20:46.999Z</time></trkpt><trkpt lat="43.71194239803997" lon="11.061522346547678"><ele>48.0</ele><time>2026-04-04T15:20:50.999Z</time></trkpt><trkpt lat="43.71199532891265" lon="11.061419143845304"><ele>48.0</ele><time>2026-04-04T15:20:53.999Z</time></trkpt><trkpt lat="43.71203785844123" lon="11.06135156073624"><ele>48.5</ele><time>2026-04-04T15:20:55.999Z</time></trkpt><trkpt lat="43.712080342183086" lon="11.061268793787267"><ele>49.0</ele><time>2026-04-04T15:20:57.999Z</time></trkpt><trkpt lat="43.712132086918935" lon="11.061189951249986"><ele>49.5</ele><time>2026-04-04T15:20:59.999Z</time></trkpt><trkpt lat="43.71218081463903" lon="11.061105993713788"><ele>50.0</ele><time>2026-04-04T15:21:01.999Z</time></trkpt><trkpt lat="43.712235144460855" lon="11.061021792912648"><ele>50.5</ele><time>2026-04-04T15:21:03.999Z</time></trkpt><trkpt lat="43.71228665744285" lon="11.060925222975772"><ele>51.0</ele><time>2026-04-04T15:21:05.999Z</time></trkpt><trkpt lat="43.71233511536947" lon="11.060843916850928"><ele>50.833333333333336</ele><time>2026-04-04T15:21:07.999Z</time></trkpt><trkpt lat="43.71238998827392" lon="11.060746636108933"><ele>50.66666666666667</ele><time>2026-04-04T15:21:09.999Z</time></trkpt><trkpt lat="43.71245434698754" lon="11.060669810963702"><ele>50.5</ele><time>2026-04-04T15:21:11.999Z</time></trkpt><trkpt lat="43.71250364632659" lon="11.060568186583323"><ele>50.333333333333336</ele><time>2026-04-04T15:21:13.999Z</time></trkpt><trkpt lat="43.712547950439436" lon="11.06046564741508"><ele>50.16666666666667</ele><time>2026-04-04T15:21:15.999Z</time></trkpt><trkpt lat="43.71258906339617" lon="11.060366485530945"><ele>50.0</ele><time>2026-04-04T15:21:17.999Z</time></trkpt><trkpt lat="43.71262849200995" lon="11.06027526797822"><ele>50.00000000000001</ele><time>2026-04-04T15:21:19.999Z</time></trkpt><trkpt lat="43.71266990076791" lon="11.060179428745059"><ele>50.0</ele><time>2026-04-04T15:21:21.999Z</time></trkpt><trkpt lat="43.71270687226517" lon="11.06007823165044"><ele>50.0</ele><time>2026-04-04T15:21:23.999Z</time></trkpt><trkpt lat="43.71274311873737" lon="11.059970763701719"><ele>50.0</ele><time>2026-04-04T15:21:25.999Z</time></trkpt><trkpt lat="43.71277838226754" lon="11.059859683067335"><ele>50.00000000000001</ele><time>2026-04-04T15:21:27.999Z</time></trkpt><trkpt lat="43.712814111124686" lon="11.059749617742492"><ele>50.0</ele><time>2026-04-04T15:21:29.999Z</time></trkpt><trkpt lat="43.712847825283234" lon="11.059637710931506"><ele>52.0</ele><time>2026-04-04T15:21:31.999Z</time></trkpt><trkpt lat="43.71288071029384" lon="11.059523797611865"><ele>54.0</ele><time>2026-04-04T15:21:33.999Z</time></trkpt><trkpt lat="43.71291585993969" lon="11.059409782783678"><ele>56.0</ele><time>2026-04-04T15:21:35.999Z</time></trkpt><trkpt lat="43.71295027612459" lon="11.059293959831988"><ele>58.0</ele><time>2026-04-04T15:21:37.999Z</time></trkpt><trkpt lat="43.71298755267132" lon="11.059177404092452"><ele>60.0</ele><time>2026-04-04T15:21:39.999Z</time></trkpt><trkpt lat="43.713018396610785" lon="11.059057978610872"><ele>60.0</ele><time>2026-04-04T15:21:41.999Z</time></trkpt><trkpt lat="43.71305048594931" lon="11.058937276347454"><ele>60.0</ele><time>2026-04-04T15:21:43.999Z</time></trkpt><trkpt lat="43.71308415125504" lon="11.058820191022043"><ele>60.0</ele><time>2026-04-04T15:21:45.999Z</time></trkpt><trkpt lat="43.71311548047019" lon="11.0587049078774"><ele>60.0</ele><time>2026-04-04T15:21:47.999Z</time></trkpt><trkpt lat="43.713140437796596" lon="11.058585411284415"><ele>60.0</ele><time>2026-04-04T15:21:49.999Z</time></trkpt><trkpt lat="43.71316507576505" lon="11.058467506105089"><ele>60.0</ele><time>2026-04-04T15:21:51.999Z</time></trkpt><trkpt lat="43.71318878195157" lon="11.058348329392079"><ele>60.0</ele><time>2026-04-04T15:21:53.999Z</time></trkpt><trkpt lat="43.713211150391" lon="11.05822181364197"><ele>60.0</ele><time>2026-04-04T15:21:55.999Z</time></trkpt><trkpt lat="43.71323544482601" lon="11.058092048331162"><ele>60.0</ele><time>2026-04-04T15:21:57.999Z</time></trkpt><trkpt lat="43.71325725523095" lon="11.057958583936962"><ele>60.0</ele><time>2026-04-04T15:21:59.999Z</time></trkpt><trkpt lat="43.713282007013206" lon="11.057825961816215"><ele>58.8</ele><time>2026-04-04T15:22:01.999Z</time></trkpt><trkpt lat="43.71330444143842" lon="11.05769112826965"><ele>57.6</ele><time>2026-04-04T15:22:03.999Z</time></trkpt><trkpt lat="43.71333865169768" lon="11.057562176704982"><ele>56.400000000000006</ele><time>2026-04-04T15:22:06Z</time></trkpt><trkpt lat="43.71338110387384" lon="11.057440323967159"><ele>55.2</ele><time>2026-04-04T15:22:08Z</time></trkpt><trkpt lat="43.71342398287354" lon="11.057319491738895"><ele>54.0</ele><time>2026-04-04T15:22:10Z</time></trkpt><trkpt lat="43.713468023819544" lon="11.05720112038518"><ele>53.0</ele><time>2026-04-04T15:22:12Z</time></trkpt><trkpt lat="43.71351304476202" lon="11.057084068284901"><ele>52.00000000000001</ele><time>2026-04-04T15:22:14Z</time></trkpt><trkpt lat="43.71355996285523" lon="11.056968284652108"><ele>51.0</ele><time>2026-04-04T15:22:16Z</time></trkpt><trkpt lat="43.7136083877708" lon="11.056852722713913"><ele>50.0</ele><time>2026-04-04T15:22:18Z</time></trkpt><trkpt lat="43.71365426253631" lon="11.05673515000064"><ele>49.0</ele><time>2026-04-04T15:22:20Z</time></trkpt><trkpt lat="43.7137038329029" lon="11.056616041710411"><ele>51.2</ele><time>2026-04-04T15:22:22Z</time></trkpt><trkpt lat="43.71375264262988" lon="11.0564979887021"><ele>53.400000000000006</ele><time>2026-04-04T15:22:24Z</time></trkpt><trkpt lat="43.713800620551154" lon="11.056378755393359"><ele>55.6</ele><time>2026-04-04T15:22:26Z</time></trkpt><trkpt lat="43.71384899793847" lon="11.056260016317143"><ele>57.8</ele><time>2026-04-04T15:22:28Z</time></trkpt><trkpt lat="43.713897164079114" lon="11.05614439545071"><ele>60.0</ele><time>2026-04-04T15:22:30Z</time></trkpt><trkpt lat="43.71394478139672" lon="11.05602602181973"><ele>60.0</ele><time>2026-04-04T15:22:32Z</time></trkpt><trkpt lat="43.71398849501212" lon="11.055907324633125"><ele>60.0</ele><time>2026-04-04T15:22:34Z</time></trkpt><trkpt lat="43.71403910417353" lon="11.0557902455018"><ele>60.0</ele><time>2026-04-04T15:22:36Z</time></trkpt><trkpt lat="43.71408864710918" lon="11.055672904076298"><ele>60.0</ele><time>2026-04-04T15:22:38Z</time></trkpt><trkpt lat="43.71413759817974" lon="11.055552949156752"><ele>60.0</ele><time>2026-04-04T15:22:40Z</time></trkpt><trkpt lat="43.71418646049227" lon="11.055435378693355"><ele>59.8</ele><time>2026-04-04T15:22:42Z</time></trkpt><trkpt lat="43.71423705251279" lon="11.055318366638321"><ele>59.6</ele><time>2026-04-04T15:22:44Z</time></trkpt><trkpt lat="43.714283041516445" lon="11.055201967188573"><ele>59.400000000000006</ele><time>2026-04-04T15:22:46Z</time></trkpt><trkpt lat="43.714328893740195" lon="11.055083117863365"><ele>59.2</ele><time>2026-04-04T15:22:48Z</time></trkpt><trkpt lat="43.714377122382515" lon="11.054965971398195"><ele>59.0</ele><time>2026-04-04T15:22:50Z</time></trkpt><trkpt lat="43.71442836495803" lon="11.054851706430735"><ele>60.0</ele><time>2026-04-04T15:22:52Z</time></trkpt><trkpt lat="43.714474410178866" lon="11.054734938064193"><ele>61.00000000000001</ele><time>2026-04-04T15:22:54Z</time></trkpt><trkpt lat="43.71451853349948" lon="11.054622044260393"><ele>62.00000000000001</ele><time>2026-04-04T15:22:56Z</time></trkpt><trkpt lat="43.71456222068967" lon="11.054512956810587"><ele>63.0</ele><time>2026-04-04T15:22:58Z</time></trkpt><trkpt lat="43.714604598663485" lon="11.054403694095813"><ele>64.0</ele><time>2026-04-04T15:23:00Z</time></trkpt><trkpt lat="43.71465014584835" lon="11.05429745630384"><ele>64.0</ele><time>2026-04-04T15:23:02Z</time></trkpt><trkpt lat="43.71469401916657" lon="11.054187809882844"><ele>64.0</ele><time>2026-04-04T15:23:03.999Z</time></trkpt><trkpt lat="43.714738333733905" lon="11.054077231798617"><ele>64.0</ele><time>2026-04-04T15:23:05.999Z</time></trkpt><trkpt lat="43.71478389013418" lon="11.053966172311805"><ele>64.0</ele><time>2026-04-04T15:23:07.999Z</time></trkpt><trkpt lat="43.714826860534224" lon="11.05385027198806"><ele>64.0</ele><time>2026-04-04T15:23:09.999Z</time></trkpt><trkpt lat="43.714876895981" lon="11.053737743832588"><ele>62.400000000000006</ele><time>2026-04-04T15:23:11.999Z</time></trkpt><trkpt lat="43.714922129856085" lon="11.05361922179339"><ele>60.800000000000004</ele><time>2026-04-04T15:23:13.999Z</time></trkpt><trkpt lat="43.71496836435608" lon="11.05350615381354"><ele>59.199999999999996</ele><time>2026-04-04T15:23:15.999Z</time></trkpt><trkpt lat="43.7150153523622" lon="11.053394240722026"><ele>57.599999999999994</ele><time>2026-04-04T15:23:17.999Z</time></trkpt><trkpt lat="43.7150603363873" lon="11.053281308256722"><ele>56.0</ele><time>2026-04-04T15:23:19.999Z</time></trkpt><trkpt lat="43.7151104801567" lon="11.053171886844266"><ele>54.8</ele><time>2026-04-04T15:23:21.999Z</time></trkpt><trkpt lat="43.71515500497873" lon="11.05305398623529"><ele>53.599999999999994</ele><time>2026-04-04T15:23:23.999Z</time></trkpt><trkpt lat="43.71519992129372" lon="11.052941486836556"><ele>52.4</ele><time>2026-04-04T15:23:25.999Z</time></trkpt><trkpt lat="43.715199038271244" lon="11.05281375609608"><ele>51.2</ele><time>2026-04-04T15:23:27.999Z</time></trkpt><trkpt lat="43.71510612459175" lon="11.052776451257328"><ele>50.0</ele><time>2026-04-04T15:23:29.999Z</time></trkpt><trkpt lat="43.71507200713728" lon="11.052897627048283"><ele>50.00000000000001</ele><time>2026-04-04T15:23:31.999Z</time></trkpt><trkpt lat="43.71506056383234" lon="11.053011310199153"><ele>50.0</ele><time>2026-04-04T15:23:33.999Z</time></trkpt><trkpt lat="43.71501788227033" lon="11.053104832668387"><ele>50.0</ele><time>2026-04-04T15:23:35.999Z</time></trkpt><trkpt lat="43.714964600356474" lon="11.053190834127063"><ele>50.0</ele><time>2026-04-04T15:23:37.999Z</time></trkpt><trkpt lat="43.71490978952696" lon="11.053266177819944"><ele>50.00000000000001</ele><time>2026-04-04T15:23:39.999Z</time></trkpt><trkpt lat="43.71486672918919" lon="11.053343839194973"><ele>50.0</ele><time>2026-04-04T15:23:41.999Z</time></trkpt><trkpt lat="43.71481235008706" lon="11.053436305933763"><ele>50.00000000000001</ele><time>2026-04-04T15:23:44.999Z</time></trkpt><trkpt lat="43.71476855277698" lon="11.053508156519273"><ele>50.0</ele><time>2026-04-04T15:23:47.999Z</time></trkpt><trkpt lat="43.71477818449917" lon="11.053378465090923"><ele>50.0</ele><time>2026-04-04T15:24:16Z</time></trkpt><trkpt lat="43.714773829706694" lon="11.053286203929808"><ele>50.0</ele><time>2026-04-04T15:24:43Z</time></trkpt><trkpt lat="43.71485522596556" lon="11.053286023176128"><ele>50.00000000000001</ele><time>2026-04-04T15:24:47Z</time></trkpt><trkpt lat="43.71476878858269" lon="11.053338862686502"><ele>50.0</ele><time>2026-04-04T15:24:52Z</time></trkpt><trkpt lat="43.71484109204631" lon="11.053140191371604"><ele>51.00000000000001</ele><time>2026-04-04T15:24:54Z</time></trkpt><trkpt lat="43.71482339159163" lon="11.053294797400167"><ele>52.0</ele><time>2026-04-04T15:26:22.999Z</time></trkpt><trkpt lat="43.71479542816807" lon="11.05338311296162"><ele>53.0</ele><time>2026-04-04T15:26:39.001Z</time></trkpt><trkpt lat="43.71472703182667" lon="11.053489631150557"><ele>54.0</ele><time>2026-04-04T15:28:27.999Z</time></trkpt><trkpt lat="43.71475043321788" lon="11.053407162840033"><ele>55.00000000000001</ele><time>2026-04-04T15:29:48.999Z</time></trkpt><trkpt lat="43.71481906199519" lon="11.053382696285114"><ele>56.0</ele><time>2026-04-04T15:29:54.999Z</time></trkpt><trkpt lat="43.71476097187042" lon="11.053432679325981"><ele>56.00000000000001</ele><time>2026-04-04T15:30:05.999Z</time></trkpt><trkpt lat="43.71474488455928" lon="11.05352009635309"><ele>56.0</ele><time>2026-04-04T15:30:50Z</time></trkpt><trkpt lat="43.71480835097593" lon="11.053489947572636"><ele>56.0</ele><time>2026-04-04T15:31:24Z</time></trkpt><trkpt lat="43.714856386497424" lon="11.053383867658336"><ele>56.0</ele><time>2026-04-04T15:31:28Z</time></trkpt><trkpt lat="43.71490269115558" lon="11.05328540025728"><ele>56.00000000000001</ele><time>2026-04-04T15:31:31Z</time></trkpt><trkpt lat="43.714975858708186" lon="11.053219943748498"><ele>56.0</ele><time>2026-04-04T15:31:34Z</time></trkpt><trkpt lat="43.71502996186891" lon="11.053119185603636"><ele>55.142857142857146</ele><time>2026-04-04T15:31:36.999Z</time></trkpt><trkpt lat="43.715073116833224" lon="11.053049644854946"><ele>54.285714285714285</ele><time>2026-04-04T15:31:38.999Z</time></trkpt><trkpt lat="43.71511325501114" lon="11.05297155686932"><ele>53.42857142857143</ele><time>2026-04-04T15:31:40.999Z</time></trkpt><trkpt lat="43.715154232385665" lon="11.052883559680511"><ele>52.57142857142857</ele><time>2026-04-04T15:31:43.999Z</time></trkpt><trkpt lat="43.71522794632917" lon="11.052812505410321"><ele>51.714285714285715</ele><time>2026-04-04T15:31:59.999Z</time></trkpt><trkpt lat="43.71527853591721" lon="11.052759780420816"><ele>50.85714285714286</ele><time>2026-04-04T15:32:01.999Z</time></trkpt><trkpt lat="43.71532226951016" lon="11.052664991136133"><ele>50.0</ele><time>2026-04-04T15:32:03.999Z</time></trkpt><trkpt lat="43.71536341397266" lon="11.052564843319049"><ele>51.0</ele><time>2026-04-04T15:32:05.999Z</time></trkpt><trkpt lat="43.71540319378212" lon="11.052458048483771"><ele>52.0</ele><time>2026-04-04T15:32:07.999Z</time></trkpt><trkpt lat="43.71545068319514" lon="11.052338586413219"><ele>53.0</ele><time>2026-04-04T15:32:09.999Z</time></trkpt><trkpt lat="43.71549372660797" lon="11.052213492442458"><ele>54.0</ele><time>2026-04-04T15:32:11.999Z</time></trkpt><trkpt lat="43.71554047821843" lon="11.052081721802232"><ele>55.0</ele><time>2026-04-04T15:32:13.999Z</time></trkpt><trkpt lat="43.7155885741074" lon="11.051944439565123"><ele>54.99999999999999</ele><time>2026-04-04T15:32:15.999Z</time></trkpt><trkpt lat="43.715638415236484" lon="11.05179851273242"><ele>55.0</ele><time>2026-04-04T15:32:17.999Z</time></trkpt><trkpt lat="43.715690335623506" lon="11.05164232833373"><ele>55.0</ele><time>2026-04-04T15:32:19.999Z</time></trkpt><trkpt lat="43.71571865208418" lon="11.051560487907578"><ele>55.0</ele><time>2026-04-04T15:32:20.999Z</time></trkpt><trkpt lat="43.715747655015946" lon="11.051477292181074"><ele>54.99999999999999</ele><time>2026-04-04T15:32:21.999Z</time></trkpt><trkpt lat="43.71577766823094" lon="11.051389766968931"><ele>55.0</ele><time>2026-04-04T15:32:22.999Z</time></trkpt><trkpt lat="43.71580506230692" lon="11.051302419326584"><ele>53.99999999999999</ele><time>2026-04-04T15:32:23.999Z</time></trkpt><trkpt lat="43.71583379501062" lon="11.051214858106981"><ele>53.0</ele><time>2026-04-04T15:32:24.999Z</time></trkpt><trkpt lat="43.715861208231956" lon="11.051125969146598"><ele>52.0</ele><time>2026-04-04T15:32:25.999Z</time></trkpt><trkpt lat="43.71589213892557" lon="11.051040004435231"><ele>51.0</ele><time>2026-04-04T15:32:26.999Z</time></trkpt><trkpt lat="43.715920992337786" lon="11.050952156403348"><ele>50.0</ele><time>2026-04-04T15:32:27.999Z</time></trkpt><trkpt lat="43.715951559796295" lon="11.050865434698624"><ele>48.99999999999999</ele><time>2026-04-04T15:32:28.999Z</time></trkpt><trkpt lat="43.71598072922595" lon="11.050776601974963"><ele>48.0</ele><time>2026-04-04T15:32:29.999Z</time></trkpt><trkpt lat="43.716008446378204" lon="11.05069164247106"><ele>47.285714285714285</ele><time>2026-04-04T15:32:30.999Z</time></trkpt><trkpt lat="43.71603425267296" lon="11.050605784377284"><ele>46.57142857142857</ele><time>2026-04-04T15:32:31.999Z</time></trkpt><trkpt lat="43.71606003359474" lon="11.050520335745658"><ele>45.85714285714286</ele><time>2026-04-04T15:32:32.999Z</time></trkpt><trkpt lat="43.716087159401454" lon="11.05043760812075"><ele>45.14285714285714</ele><time>2026-04-04T15:32:33.999Z</time></trkpt><trkpt lat="43.71611470300581" lon="11.050355545236783"><ele>44.42857142857143</ele><time>2026-04-04T15:32:34.999Z</time></trkpt><trkpt lat="43.71614198212394" lon="11.050273315534394"><ele>43.714285714285715</ele><time>2026-04-04T15:32:35.998Z</time></trkpt><trkpt lat="43.716168358593244" lon="11.0501913023829"><ele>43.0</ele><time>2026-04-04T15:32:36.998Z</time></trkpt><trkpt lat="43.71622022690134" lon="11.050031747526738"><ele>44.0</ele><time>2026-04-04T15:32:38.998Z</time></trkpt><trkpt lat="43.716245024300065" lon="11.049949462512684"><ele>45.0</ele><time>2026-04-04T15:32:39.998Z</time></trkpt><trkpt lat="43.716295433063166" lon="11.04979021839401"><ele>46.0</ele><time>2026-04-04T15:32:41.998Z</time></trkpt><trkpt lat="43.716318596554075" lon="11.049705622024186"><ele>47.0</ele><time>2026-04-04T15:32:43Z</time></trkpt><trkpt lat="43.716345571807096" lon="11.049624103511963"><ele>47.99999999999999</ele><time>2026-04-04T15:32:44Z</time></trkpt><trkpt lat="43.71637018018153" lon="11.049540349866827"><ele>49.0</ele><time>2026-04-04T15:32:45Z</time></trkpt><trkpt lat="43.71639138433293" lon="11.049453637551881"><ele>48.99999999999999</ele><time>2026-04-04T15:32:46Z</time></trkpt><trkpt lat="43.71641474320901" lon="11.049368855013904"><ele>49.0</ele><time>2026-04-04T15:32:47Z</time></trkpt><trkpt lat="43.71644218566552" lon="11.04928916077231"><ele>49.0</ele><time>2026-04-04T15:32:48Z</time></trkpt><trkpt lat="43.71646781022504" lon="11.049207008771763"><ele>49.0</ele><time>2026-04-04T15:32:49Z</time></trkpt><trkpt lat="43.716513495913986" lon="11.049047777932339"><ele>48.99999999999999</ele><time>2026-04-04T15:32:51Z</time></trkpt><trkpt lat="43.71655484779976" lon="11.048890900149997"><ele>49.0</ele><time>2026-04-04T15:32:53Z</time></trkpt><trkpt lat="43.71659320320169" lon="11.048734276735473"><ele>48.285714285714285</ele><time>2026-04-04T15:32:55Z</time></trkpt><trkpt lat="43.716612141404" lon="11.048649913579524"><ele>47.57142857142857</ele><time>2026-04-04T15:32:56Z</time></trkpt><trkpt lat="43.716633551044815" lon="11.04856247210889"><ele>46.85714285714286</ele><time>2026-04-04T15:32:57Z</time></trkpt><trkpt lat="43.71665753052714" lon="11.048468389897124"><ele>46.14285714285714</ele><time>2026-04-04T15:32:58Z</time></trkpt><trkpt lat="43.71668394800771" lon="11.048374997738739"><ele>45.42857142857143</ele><time>2026-04-04T15:32:59Z</time></trkpt><trkpt lat="43.71670869323491" lon="11.048284021705781"><ele>44.714285714285715</ele><time>2026-04-04T15:33:00Z</time></trkpt><trkpt lat="43.71673545249692" lon="11.048194893231742"><ele>44.0</ele><time>2026-04-04T15:33:01Z</time></trkpt><trkpt lat="43.71676291847337" lon="11.048106620068163"><ele>43.83333333333333</ele><time>2026-04-04T15:33:02Z</time></trkpt><trkpt lat="43.71679576559008" lon="11.04802655569759"><ele>43.666666666666664</ele><time>2026-04-04T15:33:03Z</time></trkpt><trkpt lat="43.71682399699959" lon="11.047941276834443"><ele>43.5</ele><time>2026-04-04T15:33:04Z</time></trkpt><trkpt lat="43.71684930393334" lon="11.047859664086157"><ele>43.333333333333336</ele><time>2026-04-04T15:33:05Z</time></trkpt><trkpt lat="43.7169085059548" lon="11.04771015948907"><ele>43.16666666666667</ele><time>2026-04-04T15:33:07Z</time></trkpt><trkpt lat="43.716966486027715" lon="11.047565063043855"><ele>43.0</ele><time>2026-04-04T15:33:09Z</time></trkpt><trkpt lat="43.71702061984413" lon="11.047428348463457"><ele>45.75</ele><time>2026-04-04T15:33:11Z</time></trkpt><trkpt lat="43.717081741318296" lon="11.047293438368316"><ele>48.5</ele><time>2026-04-04T15:33:13Z</time></trkpt><trkpt lat="43.71714637137778" lon="11.0471518457337"><ele>51.25</ele><time>2026-04-04T15:33:14.999Z</time></trkpt><trkpt lat="43.71720909387985" lon="11.047003526409915"><ele>54.0</ele><time>2026-04-04T15:33:16.999Z</time></trkpt><trkpt lat="43.717276809889874" lon="11.046858150105919"><ele>54.0</ele><time>2026-04-04T15:33:18.999Z</time></trkpt><trkpt lat="43.717319761002855" lon="11.046789990262017"><ele>54.0</ele><time>2026-04-04T15:33:19.999Z</time></trkpt><trkpt lat="43.71735294793154" lon="11.046715658549491"><ele>54.0</ele><time>2026-04-04T15:33:20.999Z</time></trkpt><trkpt lat="43.717387662560725" lon="11.046642593668306"><ele>54.0</ele><time>2026-04-04T15:33:21.999Z</time></trkpt><trkpt lat="43.71742429281499" lon="11.046571531670427"><ele>54.0</ele><time>2026-04-04T15:33:22.999Z</time></trkpt><trkpt lat="43.71749422621545" lon="11.046424470929786"><ele>54.0</ele><time>2026-04-04T15:33:24.999Z</time></trkpt><trkpt lat="43.717568760351575" lon="11.04629149791676"><ele>55.5</ele><time>2026-04-04T15:33:26.999Z</time></trkpt><trkpt lat="43.7176407583983" lon="11.046166571632837"><ele>57.0</ele><time>2026-04-04T15:33:28.999Z</time></trkpt><trkpt lat="43.71771252160978" lon="11.046034207391399"><ele>58.5</ele><time>2026-04-04T15:33:30.999Z</time></trkpt><trkpt lat="43.71778830182756" lon="11.045914519614504"><ele>60.0</ele><time>2026-04-04T15:33:32.999Z</time></trkpt><trkpt lat="43.71786499852918" lon="11.045798395698371"><ele>56.25</ele><time>2026-04-04T15:33:34.999Z</time></trkpt><trkpt lat="43.717943105485446" lon="11.045676531563956"><ele>52.5</ele><time>2026-04-04T15:33:36.999Z</time></trkpt><trkpt lat="43.718016734712805" lon="11.045560737242537"><ele>48.75</ele><time>2026-04-04T15:33:38.999Z</time></trkpt><trkpt lat="43.718089066016354" lon="11.045443344231645"><ele>45.0</ele><time>2026-04-04T15:33:40.999Z</time></trkpt><trkpt lat="43.71815900870429" lon="11.045326264090178"><ele>45.0</ele><time>2026-04-04T15:33:42.999Z</time></trkpt><trkpt lat="43.718233206989545" lon="11.04521552248102"><ele>45.0</ele><time>2026-04-04T15:33:44.999Z</time></trkpt><trkpt lat="43.71830918372534" lon="11.045099371605875"><ele>45.0</ele><time>2026-04-04T15:33:46.999Z</time></trkpt><trkpt lat="43.71838270488926" lon="11.044975767611543"><ele>45.0</ele><time>2026-04-04T15:33:48.999Z</time></trkpt><trkpt lat="43.71845751000681" lon="11.044855429200814"><ele>46.0</ele><time>2026-04-04T15:33:50.999Z</time></trkpt><trkpt lat="43.71853202531608" lon="11.044740723459007"><ele>47.0</ele><time>2026-04-04T15:33:52.999Z</time></trkpt><trkpt lat="43.71859328150653" lon="11.044619720053738"><ele>48.0</ele><time>2026-04-04T15:33:54.999Z</time></trkpt><trkpt lat="43.718649913109694" lon="11.044485204322608"><ele>49.0</ele><time>2026-04-04T15:33:56.999Z</time></trkpt><trkpt lat="43.71869771055338" lon="11.044344956094829"><ele>50.0</ele><time>2026-04-04T15:33:58.999Z</time></trkpt><trkpt lat="43.71874154158083" lon="11.044200115936277"><ele>48.6</ele><time>2026-04-04T15:34:00.999Z</time></trkpt><trkpt lat="43.71878819467873" lon="11.044042530110033"><ele>47.2</ele><time>2026-04-04T15:34:02.999Z</time></trkpt><trkpt lat="43.718831941586295" lon="11.043881429188373"><ele>45.8</ele><time>2026-04-04T15:34:04.999Z</time></trkpt><trkpt lat="43.718877029452806" lon="11.043719725800097"><ele>44.4</ele><time>2026-04-04T15:34:06.999Z</time></trkpt><trkpt lat="43.71890143901345" lon="11.043638350077233"><ele>43.0</ele><time>2026-04-04T15:34:07.999Z</time></trkpt><trkpt lat="43.718947732676384" lon="11.043480374593017"><ele>43.0</ele><time>2026-04-04T15:34:09.999Z</time></trkpt><trkpt lat="43.718994384962606" lon="11.043323110874951"><ele>43.0</ele><time>2026-04-04T15:34:11.999Z</time></trkpt><trkpt lat="43.719038945651214" lon="11.043166429076614"><ele>43.0</ele><time>2026-04-04T15:34:13.999Z</time></trkpt><trkpt lat="43.71908296550178" lon="11.043011471619531"><ele>43.0</ele><time>2026-04-04T15:34:15.999Z</time></trkpt><trkpt lat="43.71912814658042" lon="11.04285830684497"><ele>42.8</ele><time>2026-04-04T15:34:17.999Z</time></trkpt><trkpt lat="43.71917220759715" lon="11.042709307943504"><ele>42.599999999999994</ele><time>2026-04-04T15:34:19.999Z</time></trkpt><trkpt lat="43.71921191167779" lon="11.042563259026604"><ele>42.400000000000006</ele><time>2026-04-04T15:34:21.999Z</time></trkpt><trkpt lat="43.71925261717305" lon="11.042428777537259"><ele>42.2</ele><time>2026-04-04T15:34:23.998Z</time></trkpt><trkpt lat="43.719287911687914" lon="11.042296675091961"><ele>42.0</ele><time>2026-04-04T15:34:25.998Z</time></trkpt><trkpt lat="43.71932506826895" lon="11.042169937420292"><ele>42.0</ele><time>2026-04-04T15:34:27.998Z</time></trkpt><trkpt lat="43.71935909625177" lon="11.042040942444599"><ele>42.0</ele><time>2026-04-04T15:34:29.998Z</time></trkpt><trkpt lat="43.719399173953406" lon="11.04191241781481"><ele>42.0</ele><time>2026-04-04T15:34:31.998Z</time></trkpt><trkpt lat="43.71943822288886" lon="11.041776423254676"><ele>42.0</ele><time>2026-04-04T15:34:33.998Z</time></trkpt><trkpt lat="43.71947572980031" lon="11.041641816617654"><ele>42.0</ele><time>2026-04-04T15:34:35.998Z</time></trkpt><trkpt lat="43.719516046164124" lon="11.041492147128915"><ele>42.25</ele><time>2026-04-04T15:34:37.998Z</time></trkpt><trkpt lat="43.719558302769336" lon="11.041350121924792"><ele>42.5</ele><time>2026-04-04T15:34:39.998Z</time></trkpt><trkpt lat="43.71960001084978" lon="11.041202901225"><ele>42.75</ele><time>2026-04-04T15:34:41.998Z</time></trkpt><trkpt lat="43.719642176483184" lon="11.041055854797401"><ele>43.0</ele><time>2026-04-04T15:34:43.998Z</time></trkpt><trkpt lat="43.719683693922626" lon="11.04090517386126"><ele>42.0</ele><time>2026-04-04T15:34:45.998Z</time></trkpt><trkpt lat="43.71972501060284" lon="11.04075283500368"><ele>41.0</ele><time>2026-04-04T15:34:47.998Z</time></trkpt><trkpt lat="43.719767891373294" lon="11.040594367246676"><ele>40.0</ele><time>2026-04-04T15:34:50Z</time></trkpt><trkpt lat="43.71981606103247" lon="11.04043461954183"><ele>39.0</ele><time>2026-04-04T15:34:52Z</time></trkpt><trkpt lat="43.71986227981863" lon="11.040279853787686"><ele>39.0</ele><time>2026-04-04T15:34:54Z</time></trkpt><trkpt lat="43.719885678802164" lon="11.040194619464145"><ele>39.0</ele><time>2026-04-04T15:34:55Z</time></trkpt><trkpt lat="43.719908156802134" lon="11.04010974387447"><ele>39.0</ele><time>2026-04-04T15:34:56Z</time></trkpt><trkpt lat="43.719930742181006" lon="11.040022944383812"><ele>39.0</ele><time>2026-04-04T15:34:57Z</time></trkpt><trkpt lat="43.719952614679464" lon="11.039940683364287"><ele>39.0</ele><time>2026-04-04T15:34:58Z</time></trkpt><trkpt lat="43.71997468358091" lon="11.039855915678695"><ele>39.0</ele><time>2026-04-04T15:34:59Z</time></trkpt><trkpt lat="43.71999780270379" lon="11.039772575528993"><ele>39.0</ele><time>2026-04-04T15:35:00Z</time></trkpt><trkpt lat="43.72004796216021" lon="11.039617112586749"><ele>38.666666666666664</ele><time>2026-04-04T15:35:02Z</time></trkpt><trkpt lat="43.720072388589585" lon="11.039536373658603"><ele>38.333333333333336</ele><time>2026-04-04T15:35:03Z</time></trkpt><trkpt lat="43.72010283982405" lon="11.039459053774658"><ele>38.0</ele><time>2026-04-04T15:35:04Z</time></trkpt><trkpt lat="43.720144125432654" lon="11.039393109335082"><ele>37.66666666666667</ele><time>2026-04-04T15:35:05Z</time></trkpt><trkpt lat="43.72022785281339" lon="11.039268103494921"><ele>37.333333333333336</ele><time>2026-04-04T15:35:07Z</time></trkpt><trkpt lat="43.720322697348045" lon="11.03915980791447"><ele>37.0</ele><time>2026-04-04T15:35:09Z</time></trkpt><trkpt lat="43.72043102210244" lon="11.039078669006214"><ele>37.0</ele><time>2026-04-04T15:35:11Z</time></trkpt><trkpt lat="43.72053832415084" lon="11.03900704987706"><ele>37.0</ele><time>2026-04-04T15:35:13Z</time></trkpt><trkpt lat="43.720653918278416" lon="11.038933970066488"><ele>37.0</ele><time>2026-04-04T15:35:15Z</time></trkpt><trkpt lat="43.720766934596256" lon="11.038866342268813"><ele>37.0</ele><time>2026-04-04T15:35:17Z</time></trkpt><trkpt lat="43.72082431730701" lon="11.038828614996913"><ele>37.0</ele><time>2026-04-04T15:35:18Z</time></trkpt><trkpt lat="43.720881839604374" lon="11.038791516677472"><ele>37.0</ele><time>2026-04-04T15:35:19Z</time></trkpt><trkpt lat="43.720997039618155" lon="11.0387211753463"><ele>37.0</ele><time>2026-04-04T15:35:21Z</time></trkpt><trkpt lat="43.721106749458244" lon="11.03865464323181"><ele>37.0</ele><time>2026-04-04T15:35:23Z</time></trkpt><trkpt lat="43.72121233932702" lon="11.038585614960796"><ele>37.0</ele><time>2026-04-04T15:35:25Z</time></trkpt><trkpt lat="43.72131729141375" lon="11.03852549876763"><ele>36.800000000000004</ele><time>2026-04-04T15:35:27Z</time></trkpt><trkpt lat="43.72141646508561" lon="11.038460622096613"><ele>36.6</ele><time>2026-04-04T15:35:29Z</time></trkpt><trkpt lat="43.721515200765616" lon="11.0383944401123"><ele>36.400000000000006</ele><time>2026-04-04T15:35:31Z</time></trkpt><trkpt lat="43.721611674918044" lon="11.038319191339268"><ele>36.2</ele><time>2026-04-04T15:35:32.999Z</time></trkpt><trkpt lat="43.72170829358914" lon="11.038242363730033"><ele>36.0</ele><time>2026-04-04T15:35:34.999Z</time></trkpt><trkpt lat="43.721808571562086" lon="11.038174332697576"><ele>38.75</ele><time>2026-04-04T15:35:36.999Z</time></trkpt><trkpt lat="43.72190366380874" lon="11.038089374066468"><ele>41.5</ele><time>2026-04-04T15:35:38.999Z</time></trkpt><trkpt lat="43.7219995783507" lon="11.037987368894774"><ele>44.25</ele><time>2026-04-04T15:35:40.999Z</time></trkpt><trkpt lat="43.722091351400636" lon="11.037885052576396"><ele>47.0</ele><time>2026-04-04T15:35:42.999Z</time></trkpt><trkpt lat="43.72217693308333" lon="11.037767061304221"><ele>47.0</ele><time>2026-04-04T15:35:44.999Z</time></trkpt><trkpt lat="43.72222265068304" lon="11.037706097783438"><ele>47.0</ele><time>2026-04-04T15:35:45.999Z</time></trkpt><trkpt lat="43.72230390311584" lon="11.037589955867345"><ele>47.0</ele><time>2026-04-04T15:35:47.999Z</time></trkpt><trkpt lat="43.7223796560683" lon="11.037464813837369"><ele>47.0</ele><time>2026-04-04T15:35:49.999Z</time></trkpt><trkpt lat="43.72245399844899" lon="11.037330901436071"><ele>47.0</ele><time>2026-04-04T15:35:51.999Z</time></trkpt><trkpt lat="43.72253321859485" lon="11.037205124653475"><ele>44.75</ele><time>2026-04-04T15:35:53.999Z</time></trkpt><trkpt lat="43.72261006988996" lon="11.037077277249566"><ele>42.5</ele><time>2026-04-04T15:35:55.999Z</time></trkpt><trkpt lat="43.72268528133834" lon="11.036946825152606"><ele>40.25</ele><time>2026-04-04T15:35:57.999Z</time></trkpt><trkpt lat="43.72275974491443" lon="11.036820819713848"><ele>38.0</ele><time>2026-04-04T15:35:59.999Z</time></trkpt><trkpt lat="43.722833723580955" lon="11.03669303656104"><ele>40.0</ele><time>2026-04-04T15:36:01.999Z</time></trkpt><trkpt lat="43.72290350687462" lon="11.036566788674639"><ele>42.0</ele><time>2026-04-04T15:36:03.999Z</time></trkpt><trkpt lat="43.722966793383314" lon="11.036440407540292"><ele>44.0</ele><time>2026-04-04T15:36:05.999Z</time></trkpt><trkpt lat="43.72302696376971" lon="11.036301379894438"><ele>46.0</ele><time>2026-04-04T15:36:07.999Z</time></trkpt><trkpt lat="43.72307741205628" lon="11.036165868095738"><ele>46.0</ele><time>2026-04-04T15:36:09.999Z</time></trkpt><trkpt lat="43.7231250484698" lon="11.036027386097341"><ele>46.0</ele><time>2026-04-04T15:36:11.999Z</time></trkpt><trkpt lat="43.7231722417455" lon="11.035893942163558"><ele>46.0</ele><time>2026-04-04T15:36:13.999Z</time></trkpt><trkpt lat="43.72322022425719" lon="11.03575868099114"><ele>46.0</ele><time>2026-04-04T15:36:15.999Z</time></trkpt><trkpt lat="43.72326543611459" lon="11.035624733676682"><ele>46.0</ele><time>2026-04-04T15:36:17.999Z</time></trkpt><trkpt lat="43.723313239751164" lon="11.035497073413445"><ele>45.199999999999996</ele><time>2026-04-04T15:36:19.999Z</time></trkpt><trkpt lat="43.72335904006988" lon="11.035368434978652"><ele>44.4</ele><time>2026-04-04T15:36:21.999Z</time></trkpt><trkpt lat="43.72340363834347" lon="11.035240498064564"><ele>43.6</ele><time>2026-04-04T15:36:23.999Z</time></trkpt><trkpt lat="43.7234499154858" lon="11.035114285671682"><ele>42.8</ele><time>2026-04-04T15:36:25.999Z</time></trkpt><trkpt lat="43.72349665083686" lon="11.0349866415357"><ele>42.0</ele><time>2026-04-04T15:36:27.999Z</time></trkpt><trkpt lat="43.72354085881443" lon="11.034857996923858"><ele>44.400000000000006</ele><time>2026-04-04T15:36:29.999Z</time></trkpt><trkpt lat="43.723587164700504" lon="11.034728314922319"><ele>46.800000000000004</ele><time>2026-04-04T15:36:31.999Z</time></trkpt><trkpt lat="43.723635331726754" lon="11.0345971655465"><ele>49.2</ele><time>2026-04-04T15:36:33.999Z</time></trkpt><trkpt lat="43.72368036925576" lon="11.034462218794276"><ele>51.6</ele><time>2026-04-04T15:36:35.999Z</time></trkpt><trkpt lat="43.72373005341742" lon="11.034333362918876"><ele>54.0</ele><time>2026-04-04T15:36:37.998Z</time></trkpt><trkpt lat="43.72377714553697" lon="11.034204649173162"><ele>51.800000000000004</ele><time>2026-04-04T15:36:39.998Z</time></trkpt><trkpt lat="43.7238209397449" lon="11.034074428826294"><ele>49.60000000000001</ele><time>2026-04-04T15:36:41.998Z</time></trkpt><trkpt lat="43.72386915850675" lon="11.033949608912424"><ele>47.4</ele><time>2026-04-04T15:36:43.998Z</time></trkpt><trkpt lat="43.723913347497884" lon="11.033820361716332"><ele>45.2</ele><time>2026-04-04T15:36:45.998Z</time></trkpt><trkpt lat="43.723964930924836" lon="11.033698611403281"><ele>43.0</ele><time>2026-04-04T15:36:47.998Z</time></trkpt><trkpt lat="43.72401931483574" lon="11.033577070828898"><ele>43.0</ele><time>2026-04-04T15:36:49.998Z</time></trkpt><trkpt lat="43.724082223560615" lon="11.033468235622056"><ele>43.0</ele><time>2026-04-04T15:36:51.998Z</time></trkpt><trkpt lat="43.72414052862816" lon="11.033347765410165"><ele>43.0</ele><time>2026-04-04T15:36:53.998Z</time></trkpt><trkpt lat="43.72420073520829" lon="11.03322821995893"><ele>43.0</ele><time>2026-04-04T15:36:56Z</time></trkpt><trkpt lat="43.724261865058445" lon="11.033107152432073"><ele>43.0</ele><time>2026-04-04T15:36:58Z</time></trkpt><trkpt lat="43.724321973567505" lon="11.032987401599632"><ele>42.599999999999994</ele><time>2026-04-04T15:37:00Z</time></trkpt><trkpt lat="43.724384041743626" lon="11.032866080548509"><ele>42.199999999999996</ele><time>2026-04-04T15:37:02Z</time></trkpt><trkpt lat="43.72444664206932" lon="11.032743537099135"><ele>41.8</ele><time>2026-04-04T15:37:04Z</time></trkpt><trkpt lat="43.72450797957938" lon="11.032622406307407"><ele>41.4</ele><time>2026-04-04T15:37:06Z</time></trkpt><trkpt lat="43.724564372988134" lon="11.032501326293856"><ele>41.0</ele><time>2026-04-04T15:37:08Z</time></trkpt><trkpt lat="43.72462585091434" lon="11.032391688146506"><ele>41.0</ele><time>2026-04-04T15:37:10Z</time></trkpt><trkpt lat="43.72469075614312" lon="11.032279112733285"><ele>41.0</ele><time>2026-04-04T15:37:12Z</time></trkpt><trkpt lat="43.72475626826195" lon="11.032178018596479"><ele>41.0</ele><time>2026-04-04T15:37:14Z</time></trkpt><trkpt lat="43.72482651790509" lon="11.03208018407852"><ele>41.0</ele><time>2026-04-04T15:37:16Z</time></trkpt><trkpt lat="43.72490009486618" lon="11.031981433333128"><ele>41.0</ele><time>2026-04-04T15:37:18Z</time></trkpt><trkpt lat="43.724976836804686" lon="11.03188946053155"><ele>41.0</ele><time>2026-04-04T15:37:20Z</time></trkpt><trkpt lat="43.72505109763952" lon="11.03178935400199"><ele>41.0</ele><time>2026-04-04T15:37:22Z</time></trkpt><trkpt lat="43.72512837514391" lon="11.03170000412617"><ele>41.0</ele><time>2026-04-04T15:37:24Z</time></trkpt><trkpt lat="43.72520402153622" lon="11.031619144254636"><ele>41.0</ele><time>2026-04-04T15:37:26Z</time></trkpt><trkpt lat="43.72528151005219" lon="11.03152628930694"><ele>41.0</ele><time>2026-04-04T15:37:28Z</time></trkpt><trkpt lat="43.725357958965546" lon="11.031444332617466"><ele>41.0</ele><time>2026-04-04T15:37:30Z</time></trkpt><trkpt lat="43.72543423228416" lon="11.031367283887631"><ele>41.0</ele><time>2026-04-04T15:37:32Z</time></trkpt><trkpt lat="43.72550690765686" lon="11.031300725873983"><ele>41.0</ele><time>2026-04-04T15:37:34Z</time></trkpt><trkpt lat="43.72558118902743" lon="11.031244109017623"><ele>41.0</ele><time>2026-04-04T15:37:36Z</time></trkpt><trkpt lat="43.72564792856488" lon="11.031182246191962"><ele>41.0</ele><time>2026-04-04T15:37:38Z</time></trkpt><trkpt lat="43.72571908339842" lon="11.03112681678892"><ele>41.0</ele><time>2026-04-04T15:37:40Z</time></trkpt><trkpt lat="43.72578727529916" lon="11.031068402018192"><ele>41.0</ele><time>2026-04-04T15:37:42Z</time></trkpt><trkpt lat="43.72585692134567" lon="11.031020104530878"><ele>41.0</ele><time>2026-04-04T15:37:44Z</time></trkpt><trkpt lat="43.7259249358912" lon="11.030971639288305"><ele>41.0</ele><time>2026-04-04T15:37:46Z</time></trkpt><trkpt lat="43.72599209289585" lon="11.030921982382536"><ele>41.0</ele><time>2026-04-04T15:37:47.999Z</time></trkpt><trkpt lat="43.72605626762213" lon="11.030871680531318"><ele>41.0</ele><time>2026-04-04T15:37:49.999Z</time></trkpt><trkpt lat="43.726121058757236" lon="11.030823114444717"><ele>41.0</ele><time>2026-04-04T15:37:51.999Z</time></trkpt><trkpt lat="43.72618369966759" lon="11.030758596571753"><ele>41.0</ele><time>2026-04-04T15:37:53.999Z</time></trkpt><trkpt lat="43.72623305056216" lon="11.03066563162175"><ele>41.0</ele><time>2026-04-04T15:37:55.999Z</time></trkpt><trkpt lat="43.72627202806893" lon="11.03055662874838"><ele>41.0</ele><time>2026-04-04T15:37:57.999Z</time></trkpt><trkpt lat="43.72631696467724" lon="11.030443887641217"><ele>41.0</ele><time>2026-04-04T15:37:59.999Z</time></trkpt><trkpt lat="43.72636821808703" lon="11.030331673205703"><ele>41.0</ele><time>2026-04-04T15:38:01.999Z</time></trkpt><trkpt lat="43.72642336445559" lon="11.030200686533503"><ele>41.0</ele><time>2026-04-04T15:38:03.999Z</time></trkpt><trkpt lat="43.726477643153515" lon="11.030061205933604"><ele>41.0</ele><time>2026-04-04T15:38:05.999Z</time></trkpt><trkpt lat="43.72653507217527" lon="11.029919323933226"><ele>41.0</ele><time>2026-04-04T15:38:07.999Z</time></trkpt><trkpt lat="43.72659267377961" lon="11.029776758860425"><ele>41.0</ele><time>2026-04-04T15:38:09.999Z</time></trkpt><trkpt lat="43.726689072609844" lon="11.029574173618805"><ele>40.0</ele><time>2026-04-04T15:38:12.999Z</time></trkpt><trkpt lat="43.726759574086074" lon="11.029442988458502"><ele>39.0</ele><time>2026-04-04T15:38:14.999Z</time></trkpt><trkpt lat="43.7268320360767" lon="11.02931786748567"><ele>38.0</ele><time>2026-04-04T15:38:16.999Z</time></trkpt><trkpt lat="43.726906793331096" lon="11.02920330862985"><ele>37.0</ele><time>2026-04-04T15:38:18.999Z</time></trkpt><trkpt lat="43.72698387659526" lon="11.029091306433957"><ele>37.0</ele><time>2026-04-04T15:38:20.999Z</time></trkpt><trkpt lat="43.72706324768308" lon="11.028982794618923"><ele>37.0</ele><time>2026-04-04T15:38:22.999Z</time></trkpt><trkpt lat="43.72714231950649" lon="11.028870576366083"><ele>37.0</ele><time>2026-04-04T15:38:24.999Z</time></trkpt><trkpt lat="43.72722084516751" lon="11.028754318525666"><ele>37.0</ele><time>2026-04-04T15:38:26.999Z</time></trkpt><trkpt lat="43.72730271503031" lon="11.028643437655623"><ele>37.0</ele><time>2026-04-04T15:38:28.999Z</time></trkpt><trkpt lat="43.727378402862264" lon="11.028527973740532"><ele>37.0</ele><time>2026-04-04T15:38:30.999Z</time></trkpt><trkpt lat="43.72745555594007" lon="11.028425801979322"><ele>37.0</ele><time>2026-04-04T15:38:32.999Z</time></trkpt><trkpt lat="43.7275316600903" lon="11.028317475383126"><ele>37.0</ele><time>2026-04-04T15:38:34.999Z</time></trkpt><trkpt lat="43.72760815418394" lon="11.028217508732851"><ele>37.0</ele><time>2026-04-04T15:38:36.999Z</time></trkpt><trkpt lat="43.7276766008508" lon="11.028115727222326"><ele>37.4</ele><time>2026-04-04T15:38:38.999Z</time></trkpt><trkpt lat="43.72774451271941" lon="11.028011397693016"><ele>37.800000000000004</ele><time>2026-04-04T15:38:40.999Z</time></trkpt><trkpt lat="43.72781196741621" lon="11.027908574344973"><ele>38.2</ele><time>2026-04-04T15:38:42.999Z</time></trkpt><trkpt lat="43.72786879511036" lon="11.027799486643632"><ele>38.6</ele><time>2026-04-04T15:38:44.999Z</time></trkpt><trkpt lat="43.72792464849042" lon="11.027688505550428"><ele>39.0</ele><time>2026-04-04T15:38:46.999Z</time></trkpt><trkpt lat="43.72798785307702" lon="11.027590320841131"><ele>39.0</ele><time>2026-04-04T15:38:48.998Z</time></trkpt><trkpt lat="43.72804061483971" lon="11.027538838364512"><ele>39.0</ele><time>2026-04-04T15:38:50.998Z</time></trkpt><trkpt lat="43.72807143432387" lon="11.0274577340122"><ele>39.0</ele><time>2026-04-04T15:39:25Z</time></trkpt><trkpt lat="43.728045454243656" lon="11.027284155667372"><ele>39.0</ele><time>2026-04-04T15:39:28Z</time></trkpt><trkpt lat="43.72798255797987" lon="11.027187748526261"><ele>39.0</ele><time>2026-04-04T15:39:30Z</time></trkpt><trkpt lat="43.72788770438984" lon="11.027112773297727"><ele>38.2</ele><time>2026-04-04T15:39:32Z</time></trkpt><trkpt lat="43.727813530329016" lon="11.02700648549823"><ele>37.4</ele><time>2026-04-04T15:39:34Z</time></trkpt><trkpt lat="43.72774510566101" lon="11.026892345138295"><ele>36.6</ele><time>2026-04-04T15:39:36Z</time></trkpt><trkpt lat="43.727674511577895" lon="11.026780629631862"><ele>35.8</ele><time>2026-04-04T15:39:38Z</time></trkpt><trkpt lat="43.727603512932546" lon="11.026674058686023"><ele>35.0</ele><time>2026-04-04T15:39:40Z</time></trkpt><trkpt lat="43.727532724547046" lon="11.026566968049051"><ele>34.5</ele><time>2026-04-04T15:39:42Z</time></trkpt><trkpt lat="43.727472083798915" lon="11.026460973989478"><ele>34.0</ele><time>2026-04-04T15:39:44Z</time></trkpt><trkpt lat="43.72742666286047" lon="11.026354022790418"><ele>33.5</ele><time>2026-04-04T15:39:46Z</time></trkpt><trkpt lat="43.72739076124749" lon="11.026246542292323"><ele>33.0</ele><time>2026-04-04T15:39:48Z</time></trkpt><trkpt lat="43.72736486121081" lon="11.026139721246468"><ele>32.5</ele><time>2026-04-04T15:39:50Z</time></trkpt><trkpt lat="43.727344984132046" lon="11.026031513086206"><ele>32.0</ele><time>2026-04-04T15:39:52Z</time></trkpt><trkpt lat="43.727322608175044" lon="11.025915974804311"><ele>31.666666666666664</ele><time>2026-04-04T15:39:53.999Z</time></trkpt><trkpt lat="43.7273064599072" lon="11.02580286538097"><ele>31.333333333333332</ele><time>2026-04-04T15:39:55.999Z</time></trkpt><trkpt lat="43.727289498037486" lon="11.025693523620381"><ele>31.0</ele><time>2026-04-04T15:39:57.999Z</time></trkpt><trkpt lat="43.727272826739686" lon="11.025581752744957"><ele>30.666666666666664</ele><time>2026-04-04T15:39:59.999Z</time></trkpt><trkpt lat="43.7272578774947" lon="11.025468455416929"><ele>30.333333333333332</ele><time>2026-04-04T15:40:01.999Z</time></trkpt><trkpt lat="43.72724389276828" lon="11.025351925502063"><ele>30.0</ele><time>2026-04-04T15:40:03.999Z</time></trkpt><trkpt lat="43.72722319837083" lon="11.025232732832166"><ele>30.0</ele><time>2026-04-04T15:40:05.999Z</time></trkpt><trkpt lat="43.72720306563875" lon="11.025109176655583"><ele>30.0</ele><time>2026-04-04T15:40:07.999Z</time></trkpt><trkpt lat="43.727185719827254" lon="11.02497822202798"><ele>30.0</ele><time>2026-04-04T15:40:09.999Z</time></trkpt><trkpt lat="43.72716781652396" lon="11.024846127470083"><ele>30.0</ele><time>2026-04-04T15:40:11.999Z</time></trkpt><trkpt lat="43.7271446856484" lon="11.024707017179175"><ele>30.0</ele><time>2026-04-04T15:40:13.999Z</time></trkpt><trkpt lat="43.727128046616535" lon="11.024562277518642"><ele>30.142857142857146</ele><time>2026-04-04T15:40:15.999Z</time></trkpt><trkpt lat="43.727114485336706" lon="11.024399339731975"><ele>30.285714285714285</ele><time>2026-04-04T15:40:17.999Z</time></trkpt><trkpt lat="43.72711176233115" lon="11.02431159790917"><ele>30.42857142857143</ele><time>2026-04-04T15:40:18.999Z</time></trkpt><trkpt lat="43.7271144802824" lon="11.024223965486815"><ele>30.571428571428573</ele><time>2026-04-04T15:40:19.999Z</time></trkpt><trkpt lat="43.727125254671485" lon="11.024137152716492"><ele>30.714285714285715</ele><time>2026-04-04T15:40:20.999Z</time></trkpt><trkpt lat="43.727138460972846" lon="11.024045050539897"><ele>30.857142857142858</ele><time>2026-04-04T15:40:21.999Z</time></trkpt><trkpt lat="43.72715541783542" lon="11.023951749588178"><ele>31.0</ele><time>2026-04-04T15:40:22.999Z</time></trkpt><trkpt lat="43.72718796978795" lon="11.02386116079292"><ele>31.142857142857146</ele><time>2026-04-04T15:40:23.999Z</time></trkpt><trkpt lat="43.727218968565154" lon="11.023771610086674"><ele>31.28571428571429</ele><time>2026-04-04T15:40:24.999Z</time></trkpt><trkpt lat="43.72725685420566" lon="11.023685209807109"><ele>31.42857142857143</ele><time>2026-04-04T15:40:25.999Z</time></trkpt><trkpt lat="43.727297204633835" lon="11.023601846267793"><ele>31.57142857142857</ele><time>2026-04-04T15:40:26.999Z</time></trkpt><trkpt lat="43.7273411626957" lon="11.02352429232248"><ele>31.71428571428571</ele><time>2026-04-04T15:40:27.999Z</time></trkpt><trkpt lat="43.72738992638902" lon="11.023451736784928"><ele>31.857142857142854</ele><time>2026-04-04T15:40:28.999Z</time></trkpt><trkpt lat="43.72744188472802" lon="11.02338540065409"><ele>32.0</ele><time>2026-04-04T15:40:29.999Z</time></trkpt><trkpt lat="43.72749537702149" lon="11.023323233047597"><ele>31.833333333333332</ele><time>2026-04-04T15:40:30.999Z</time></trkpt><trkpt lat="43.72755010978988" lon="11.023265216493405"><ele>31.666666666666664</ele><time>2026-04-04T15:40:31.999Z</time></trkpt><trkpt lat="43.727602759534534" lon="11.023205875151225"><ele>31.5</ele><time>2026-04-04T15:40:32.999Z</time></trkpt><trkpt lat="43.727654483613456" lon="11.023146033938428"><ele>31.333333333333336</ele><time>2026-04-04T15:40:33.999Z</time></trkpt><trkpt lat="43.72770509332523" lon="11.023089328564973"><ele>31.166666666666668</ele><time>2026-04-04T15:40:34.999Z</time></trkpt><trkpt lat="43.72780345660187" lon="11.022982379750042"><ele>31.0</ele><time>2026-04-04T15:40:36.999Z</time></trkpt><trkpt lat="43.7278524159868" lon="11.02292677063289"><ele>30.75</ele><time>2026-04-04T15:40:37.999Z</time></trkpt><trkpt lat="43.72794858978891" lon="11.022816778004977"><ele>30.5</ele><time>2026-04-04T15:40:39.999Z</time></trkpt><trkpt lat="43.728042539480086" lon="11.022709963829254"><ele>30.25</ele><time>2026-04-04T15:40:41.999Z</time></trkpt><trkpt lat="43.7281331391073" lon="11.022603978164035"><ele>30.0</ele><time>2026-04-04T15:40:43.999Z</time></trkpt><trkpt lat="43.72822811279401" lon="11.022501321214312"><ele>30.25</ele><time>2026-04-04T15:40:45.999Z</time></trkpt><trkpt lat="43.728323181887646" lon="11.0223992455178"><ele>30.5</ele><time>2026-04-04T15:40:47.999Z</time></trkpt><trkpt lat="43.728424457538736" lon="11.022323339126602"><ele>30.75</ele><time>2026-04-04T15:40:49.999Z</time></trkpt><trkpt lat="43.72853678894481" lon="11.02230267070602"><ele>31.0</ele><time>2026-04-04T15:40:51.998Z</time></trkpt><trkpt lat="43.728645475104784" lon="11.02228412104977"><ele>31.0</ele><time>2026-04-04T15:40:53.998Z</time></trkpt><trkpt lat="43.7287394780813" lon="11.022289950620907"><ele>31.0</ele><time>2026-04-04T15:40:55.998Z</time></trkpt><trkpt lat="43.7287962810564" lon="11.0221801220572"><ele>31.0</ele><time>2026-04-04T15:40:56.998Z</time></trkpt><trkpt lat="43.72885921597484" lon="11.022038237726049"><ele>31.0</ele><time>2026-04-04T15:40:58.998Z</time></trkpt><trkpt lat="43.72886461735944" lon="11.021867871568137"><ele>31.0</ele><time>2026-04-04T15:41:00.998Z</time></trkpt><trkpt lat="43.72886706251468" lon="11.021706636077637"><ele>30.75</ele><time>2026-04-04T15:41:02.998Z</time></trkpt><trkpt lat="43.728931481845386" lon="11.021572204514879"><ele>30.5</ele><time>2026-04-04T15:41:04.998Z</time></trkpt><trkpt lat="43.72902126299268" lon="11.021467206039693"><ele>30.25</ele><time>2026-04-04T15:41:07Z</time></trkpt><trkpt lat="43.72912174296543" lon="11.021379410255161"><ele>30.0</ele><time>2026-04-04T15:41:09Z</time></trkpt><trkpt lat="43.7292002451035" lon="11.02125673398129"><ele>30.0</ele><time>2026-04-04T15:41:11Z</time></trkpt><trkpt lat="43.729291022406535" lon="11.021147413532551"><ele>30.0</ele><time>2026-04-04T15:41:13Z</time></trkpt><trkpt lat="43.72938212879854" lon="11.021044598561351"><ele>30.0</ele><time>2026-04-04T15:41:15Z</time></trkpt><trkpt lat="43.72946518501722" lon="11.020928237092217"><ele>30.0</ele><time>2026-04-04T15:41:17Z</time></trkpt><trkpt lat="43.72954857128656" lon="11.02081501977884"><ele>29.8</ele><time>2026-04-04T15:41:19Z</time></trkpt><trkpt lat="43.729628764645135" lon="11.020704461481209"><ele>29.6</ele><time>2026-04-04T15:41:21Z</time></trkpt><trkpt lat="43.729704764317546" lon="11.020589759224677"><ele>29.4</ele><time>2026-04-04T15:41:23Z</time></trkpt><trkpt lat="43.72980236292922" lon="11.020506967814333"><ele>29.2</ele><time>2026-04-04T15:41:25Z</time></trkpt><trkpt lat="43.7298664983513" lon="11.020390953433777"><ele>29.0</ele><time>2026-04-04T15:41:27Z</time></trkpt><trkpt lat="43.72993162436407" lon="11.02027192358398"><ele>29.0</ele><time>2026-04-04T15:41:29Z</time></trkpt><trkpt lat="43.73000048847232" lon="11.020158389371066"><ele>29.0</ele><time>2026-04-04T15:41:31Z</time></trkpt><trkpt lat="43.7300737714062" lon="11.020053916552058"><ele>29.0</ele><time>2026-04-04T15:41:33Z</time></trkpt><trkpt lat="43.73014623644561" lon="11.01995177601746"><ele>29.0</ele><time>2026-04-04T15:41:35Z</time></trkpt><trkpt lat="43.730219385954335" lon="11.019847579763459"><ele>29.0</ele><time>2026-04-04T15:41:37Z</time></trkpt><trkpt lat="43.73030030651056" lon="11.01975442626231"><ele>29.6</ele><time>2026-04-04T15:41:39Z</time></trkpt><trkpt lat="43.730372261644696" lon="11.019644430600215"><ele>30.2</ele><time>2026-04-04T15:41:41Z</time></trkpt><trkpt lat="43.73045191544239" lon="11.019548216283754"><ele>30.800000000000004</ele><time>2026-04-04T15:41:43Z</time></trkpt><trkpt lat="43.73051495419475" lon="11.019428904805189"><ele>31.400000000000002</ele><time>2026-04-04T15:41:45Z</time></trkpt><trkpt lat="43.7305882581031" lon="11.01932538547377"><ele>32.0</ele><time>2026-04-04T15:41:47Z</time></trkpt><trkpt lat="43.73066096349518" lon="11.01922288555309"><ele>32.0</ele><time>2026-04-04T15:41:49Z</time></trkpt><trkpt lat="43.73074494183727" lon="11.019135738185538"><ele>32.0</ele><time>2026-04-04T15:41:51Z</time></trkpt><trkpt lat="43.73080956315067" lon="11.01902924952461"><ele>32.0</ele><time>2026-04-04T15:41:52.999Z</time></trkpt><trkpt lat="43.73087227866598" lon="11.018934641791976"><ele>32.0</ele><time>2026-04-04T15:41:54.999Z</time></trkpt><trkpt lat="43.73093452757884" lon="11.018843520336935"><ele>32.0</ele><time>2026-04-04T15:41:56.999Z</time></trkpt><trkpt lat="43.73100503069492" lon="11.01877028439082"><ele>32.0</ele><time>2026-04-04T15:41:58.999Z</time></trkpt><trkpt lat="43.73103811371427" lon="11.0186515665619"><ele>32.0</ele><time>2026-04-04T15:42:00.999Z</time></trkpt><trkpt lat="43.73097464190426" lon="11.018538095495584"><ele>32.0</ele><time>2026-04-04T15:42:02.999Z</time></trkpt><trkpt lat="43.730870266480025" lon="11.018388482026365"><ele>32.0</ele><time>2026-04-04T15:42:05.999Z</time></trkpt><trkpt lat="43.73078620621165" lon="11.01829460050117"><ele>32.0</ele><time>2026-04-04T15:42:07.999Z</time></trkpt><trkpt lat="43.730707994745075" lon="11.018198596915585"><ele>32.0</ele><time>2026-04-04T15:42:09.999Z</time></trkpt><trkpt lat="43.73062097195149" lon="11.01811122143974"><ele>32.0</ele><time>2026-04-04T15:42:11.999Z</time></trkpt><trkpt lat="43.73053585349064" lon="11.018018451678262"><ele>32.0</ele><time>2026-04-04T15:42:13.999Z</time></trkpt><trkpt lat="43.7304599324988" lon="11.017905381216446"><ele>32.0</ele><time>2026-04-04T15:42:15.999Z</time></trkpt><trkpt lat="43.73037437993605" lon="11.017808873590353"><ele>32.0</ele><time>2026-04-04T15:42:17.999Z</time></trkpt><trkpt lat="43.73029209487801" lon="11.017707596606925"><ele>32.0</ele><time>2026-04-04T15:42:19.999Z</time></trkpt><trkpt lat="43.7302115473264" lon="11.017607738091776"><ele>32.0</ele><time>2026-04-04T15:42:21.999Z</time></trkpt><trkpt lat="43.7301293201432" lon="11.017517307092797"><ele>32.0</ele><time>2026-04-04T15:42:23.999Z</time></trkpt><trkpt lat="43.73005139955736" lon="11.017425645661264"><ele>32.0</ele><time>2026-04-04T15:42:25.999Z</time></trkpt><trkpt lat="43.72996907792481" lon="11.017341279187217"><ele>32.2</ele><time>2026-04-04T15:42:27.999Z</time></trkpt><trkpt lat="43.72989254756017" lon="11.01725424310681"><ele>32.400000000000006</ele><time>2026-04-04T15:42:29.999Z</time></trkpt><trkpt lat="43.729818573157424" lon="11.017168460252583"><ele>32.599999999999994</ele><time>2026-04-04T15:42:31.999Z</time></trkpt><trkpt lat="43.72973934527154" lon="11.0170873921868"><ele>32.8</ele><time>2026-04-04T15:42:33.999Z</time></trkpt><trkpt lat="43.7296632015224" lon="11.017008290811301"><ele>33.0</ele><time>2026-04-04T15:42:35.999Z</time></trkpt><trkpt lat="43.729592482553024" lon="11.016921261825399"><ele>33.0</ele><time>2026-04-04T15:42:37.999Z</time></trkpt><trkpt lat="43.72952353549503" lon="11.016840418854203"><ele>33.0</ele><time>2026-04-04T15:42:39.999Z</time></trkpt><trkpt lat="43.72946334740852" lon="11.016757591249508"><ele>33.0</ele><time>2026-04-04T15:42:41.999Z</time></trkpt><trkpt lat="43.72940479750179" lon="11.016685957746812"><ele>33.0</ele><time>2026-04-04T15:42:43.999Z</time></trkpt><trkpt lat="43.72934307803236" lon="11.01661891744601"><ele>33.0</ele><time>2026-04-04T15:42:45.999Z</time></trkpt><trkpt lat="43.72927993137738" lon="11.016557163312202"><ele>33.0</ele><time>2026-04-04T15:42:47.998Z</time></trkpt><trkpt lat="43.72922385030077" lon="11.016492330664517"><ele>33.666666666666664</ele><time>2026-04-04T15:42:49.998Z</time></trkpt><trkpt lat="43.729172314747366" lon="11.01642101822047"><ele>34.333333333333336</ele><time>2026-04-04T15:42:51.998Z</time></trkpt><trkpt lat="43.72911746693512" lon="11.016360696188615"><ele>35.0</ele><time>2026-04-04T15:42:53.998Z</time></trkpt><trkpt lat="43.729062856091666" lon="11.016306263567348"><ele>35.66666666666667</ele><time>2026-04-04T15:42:55.998Z</time></trkpt><trkpt lat="43.728994812744" lon="11.016228043228596"><ele>36.333333333333336</ele><time>2026-04-04T15:42:58.998Z</time></trkpt><trkpt lat="43.728929526209804" lon="11.016160903009695"><ele>37.0</ele><time>2026-04-04T15:43:01.998Z</time></trkpt><trkpt lat="43.72886356652718" lon="11.016094755173965"><ele>37.0</ele><time>2026-04-04T15:43:04.998Z</time></trkpt><trkpt lat="43.72879835541237" lon="11.016022649946486"><ele>37.0</ele><time>2026-04-04T15:43:07.998Z</time></trkpt><trkpt lat="43.72873324616519" lon="11.015950463899431"><ele>37.0</ele><time>2026-04-04T15:43:10.998Z</time></trkpt><trkpt lat="43.72866882077021" lon="11.015883000776373"><ele>37.0</ele><time>2026-04-04T15:43:14Z</time></trkpt><trkpt lat="43.72860604096647" lon="11.015813995342615"><ele>37.0</ele><time>2026-04-04T15:43:17Z</time></trkpt><trkpt lat="43.72854758031178" lon="11.015743953544764"><ele>37.0</ele><time>2026-04-04T15:43:20Z</time></trkpt><trkpt lat="43.728492068950715" lon="11.015661223267125"><ele>37.66666666666667</ele><time>2026-04-04T15:43:23Z</time></trkpt><trkpt lat="43.72844182689245" lon="11.015569887081867"><ele>38.333333333333336</ele><time>2026-04-04T15:43:26Z</time></trkpt><trkpt lat="43.72839760977079" lon="11.015467989492159"><ele>39.0</ele><time>2026-04-04T15:43:29Z</time></trkpt><trkpt lat="43.72836179922725" lon="11.01536373126805"><ele>39.666666666666664</ele><time>2026-04-04T15:43:32Z</time></trkpt><trkpt lat="43.72833560169978" lon="11.015247721705855"><ele>40.33333333333333</ele><time>2026-04-04T15:43:35Z</time></trkpt><trkpt lat="43.72832224269078" lon="11.015127701709313"><ele>41.0</ele><time>2026-04-04T15:43:38Z</time></trkpt><trkpt lat="43.72832515838367" lon="11.015003238614721"><ele>40.857142857142854</ele><time>2026-04-04T15:43:41Z</time></trkpt><trkpt lat="43.72833230830382" lon="11.014913500352701"><ele>40.714285714285715</ele><time>2026-04-04T15:43:43Z</time></trkpt><trkpt lat="43.72833658914148" lon="11.01482465848002"><ele>40.57142857142857</ele><time>2026-04-04T15:43:45Z</time></trkpt><trkpt lat="43.728341523035866" lon="11.014731778759147"><ele>40.42857142857143</ele><time>2026-04-04T15:43:47Z</time></trkpt><trkpt lat="43.72834677881638" lon="11.01463464765029"><ele>40.285714285714285</ele><time>2026-04-04T15:43:49Z</time></trkpt><trkpt lat="43.72835231742278" lon="11.014533285046182"><ele>40.14285714285714</ele><time>2026-04-04T15:43:51Z</time></trkpt><trkpt lat="43.72836096892746" lon="11.014428810234593"><ele>40.0</ele><time>2026-04-04T15:43:53Z</time></trkpt><trkpt lat="43.72836550136302" lon="11.014325656356709"><ele>40.0</ele><time>2026-04-04T15:43:55Z</time></trkpt><trkpt lat="43.72836983557273" lon="11.014224611605878"><ele>40.0</ele><time>2026-04-04T15:43:57Z</time></trkpt><trkpt lat="43.72836430912256" lon="11.014117930356383"><ele>40.0</ele><time>2026-04-04T15:43:58.999Z</time></trkpt><trkpt lat="43.72835761572197" lon="11.01400331163846"><ele>40.0</ele><time>2026-04-04T15:44:00.999Z</time></trkpt><trkpt lat="43.72836183485904" lon="11.013876288248335"><ele>40.0</ele><time>2026-04-04T15:44:02.999Z</time></trkpt><trkpt lat="43.72840322802976" lon="11.01376788488729"><ele>40.0</ele><time>2026-04-04T15:44:04.999Z</time></trkpt><trkpt lat="43.728413273675066" lon="11.013656720512664"><ele>40.2</ele><time>2026-04-04T15:44:06.999Z</time></trkpt><trkpt lat="43.728402986949064" lon="11.01354147613645"><ele>40.4</ele><time>2026-04-04T15:44:08.999Z</time></trkpt><trkpt lat="43.72841057883041" lon="11.013416340727796"><ele>40.599999999999994</ele><time>2026-04-04T15:44:10.999Z</time></trkpt><trkpt lat="43.72840571268526" lon="11.013279969910819"><ele>40.8</ele><time>2026-04-04T15:44:12.999Z</time></trkpt><trkpt lat="43.72840529483315" lon="11.013153101815162"><ele>41.0</ele><time>2026-04-04T15:44:14.999Z</time></trkpt><trkpt lat="43.728422109197055" lon="11.013015000610633"><ele>41.0</ele><time>2026-04-04T15:44:16.999Z</time></trkpt><trkpt lat="43.728418620631544" lon="11.012867071200564"><ele>41.0</ele><time>2026-04-04T15:44:18.999Z</time></trkpt><trkpt lat="43.72842567486238" lon="11.012719638768612"><ele>41.0</ele><time>2026-04-04T15:44:20.999Z</time></trkpt><trkpt lat="43.728428824502956" lon="11.01257523441564"><ele>41.0</ele><time>2026-04-04T15:44:22.999Z</time></trkpt><trkpt lat="43.72843706208705" lon="11.01242951838999"><ele>41.0</ele><time>2026-04-04T15:44:24.999Z</time></trkpt><trkpt lat="43.72844986212802" lon="11.0122905693829"><ele>41.0</ele><time>2026-04-04T15:44:26.999Z</time></trkpt><trkpt lat="43.72846240679369" lon="11.01208071391978"><ele>41.0</ele><time>2026-04-04T15:44:29.999Z</time></trkpt><trkpt lat="43.72846512289524" lon="11.01195160278336"><ele>41.0</ele><time>2026-04-04T15:44:31.999Z</time></trkpt><trkpt lat="43.72854326291703" lon="11.011883185005628"><ele>41.0</ele><time>2026-04-04T15:44:33.999Z</time></trkpt><trkpt lat="43.72851999077232" lon="11.011777482897317"><ele>41.0</ele><time>2026-04-04T15:44:35.999Z</time></trkpt><trkpt lat="43.728520665469205" lon="11.011659151943542"><ele>41.0</ele><time>2026-04-04T15:44:37.999Z</time></trkpt><trkpt lat="43.72852754162283" lon="11.011528518197453"><ele>41.0</ele><time>2026-04-04T15:44:39.999Z</time></trkpt><trkpt lat="43.72853615300298" lon="11.011400618762968"><ele>41.0</ele><time>2026-04-04T15:44:41.999Z</time></trkpt><trkpt lat="43.72854885231377" lon="11.01127353692141"><ele>41.0</ele><time>2026-04-04T15:44:43.999Z</time></trkpt><trkpt lat="43.728569901465804" lon="11.011140420917021"><ele>41.0</ele><time>2026-04-04T15:44:45.999Z</time></trkpt><trkpt lat="43.72863575088867" lon="11.011034169613644"><ele>41.0</ele><time>2026-04-04T15:44:47.999Z</time></trkpt><trkpt lat="43.72866640924745" lon="11.010895897886963"><ele>41.0</ele><time>2026-04-04T15:44:49.999Z</time></trkpt><trkpt lat="43.728615221818636" lon="11.010762057855942"><ele>41.0</ele><time>2026-04-04T15:44:51.999Z</time></trkpt><trkpt lat="43.72860644878888" lon="11.010625543910313"><ele>41.0</ele><time>2026-04-04T15:44:53.998Z</time></trkpt><trkpt lat="43.72862546921879" lon="11.01048370931295"><ele>41.0</ele><time>2026-04-04T15:44:55.998Z</time></trkpt><trkpt lat="43.7286401103048" lon="11.010343507882702"><ele>40.666666666666664</ele><time>2026-04-04T15:44:57.998Z</time></trkpt><trkpt lat="43.72864957701257" lon="11.010200211764971"><ele>40.33333333333333</ele><time>2026-04-04T15:44:59.998Z</time></trkpt><trkpt lat="43.72867556103532" lon="11.010074201655812"><ele>40.0</ele><time>2026-04-04T15:45:01.998Z</time></trkpt><trkpt lat="43.72873767350489" lon="11.01003323849919"><ele>39.666666666666664</ele><time>2026-04-04T15:45:03.998Z</time></trkpt><trkpt lat="43.72868106694177" lon="11.009967137650408"><ele>39.333333333333336</ele><time>2026-04-04T15:45:05.998Z</time></trkpt><trkpt lat="43.72864246017731" lon="11.0098914875588"><ele>39.0</ele><time>2026-04-04T15:45:07.998Z</time></trkpt><trkpt lat="43.728679046740524" lon="11.00975015326287"><ele>39.0</ele><time>2026-04-04T15:45:09.998Z</time></trkpt><trkpt lat="43.7287015780581" lon="11.009610375678987"><ele>39.0</ele><time>2026-04-04T15:45:11.998Z</time></trkpt><trkpt lat="43.72871632653095" lon="11.00946732520739"><ele>39.0</ele><time>2026-04-04T15:45:13.998Z</time></trkpt><trkpt lat="43.728738385899646" lon="11.009328691779428"><ele>39.0</ele><time>2026-04-04T15:45:15.998Z</time></trkpt><trkpt lat="43.72876275377786" lon="11.00918212842399"><ele>39.0</ele><time>2026-04-04T15:45:18Z</time></trkpt><trkpt lat="43.72878512222677" lon="11.009034600907528"><ele>39.0</ele><time>2026-04-04T15:45:20Z</time></trkpt><trkpt lat="43.72880643356923" lon="11.008889145867169"><ele>39.0</ele><time>2026-04-04T15:45:22Z</time></trkpt><trkpt lat="43.72883090983327" lon="11.008743054865901"><ele>39.0</ele><time>2026-04-04T15:45:24Z</time></trkpt><trkpt lat="43.72886004353229" lon="11.00859997270696"><ele>39.0</ele><time>2026-04-04T15:45:26Z</time></trkpt><trkpt lat="43.72888872045894" lon="11.008454268940579"><ele>39.0</ele><time>2026-04-04T15:45:28Z</time></trkpt><trkpt lat="43.728922903493526" lon="11.008307007448503"><ele>39.25</ele><time>2026-04-04T15:45:30Z</time></trkpt><trkpt lat="43.728961578894506" lon="11.008164656783258"><ele>39.5</ele><time>2026-04-04T15:45:32Z</time></trkpt><trkpt lat="43.72900015691408" lon="11.008019062404138"><ele>39.75</ele><time>2026-04-04T15:45:34Z</time></trkpt><trkpt lat="43.72904381225513" lon="11.007874053762709"><ele>40.0</ele><time>2026-04-04T15:45:36Z</time></trkpt><trkpt lat="43.72909029350262" lon="11.007722754442431"><ele>40.0</ele><time>2026-04-04T15:45:38Z</time></trkpt><trkpt lat="43.729136850973354" lon="11.007572404841953"><ele>40.0</ele><time>2026-04-04T15:45:40Z</time></trkpt><trkpt lat="43.72918836222116" lon="11.007426176975478"><ele>40.0</ele><time>2026-04-04T15:45:42Z</time></trkpt><trkpt lat="43.72923947174117" lon="11.007281545995887"><ele>40.0</ele><time>2026-04-04T15:45:44Z</time></trkpt><trkpt lat="43.729287649868034" lon="11.007137862521283"><ele>39.75</ele><time>2026-04-04T15:45:46Z</time></trkpt><trkpt lat="43.72933628244697" lon="11.006989491592318"><ele>39.5</ele><time>2026-04-04T15:45:48Z</time></trkpt><trkpt lat="43.72938756214851" lon="11.006847497983369"><ele>39.25</ele><time>2026-04-04T15:45:50Z</time></trkpt><trkpt lat="43.72943723021017" lon="11.006700787113617"><ele>39.0</ele><time>2026-04-04T15:45:52Z</time></trkpt><trkpt lat="43.729486645590626" lon="11.00655576611726"><ele>39.0</ele><time>2026-04-04T15:45:53.999Z</time></trkpt><trkpt lat="43.72953914486918" lon="11.006413964355922"><ele>39.0</ele><time>2026-04-04T15:45:55.999Z</time></trkpt><trkpt lat="43.729588138954625" lon="11.006269574189666"><ele>39.0</ele><time>2026-04-04T15:45:57.999Z</time></trkpt><trkpt lat="43.729613031710905" lon="11.00612887107134"><ele>39.0</ele><time>2026-04-04T15:45:59.999Z</time></trkpt><trkpt lat="43.72961623318798" lon="11.005979942916813"><ele>39.0</ele><time>2026-04-04T15:46:01.999Z</time></trkpt><trkpt lat="43.729599997633144" lon="11.00582403113941"><ele>39.0</ele><time>2026-04-04T15:46:03.999Z</time></trkpt><trkpt lat="43.72958499943655" lon="11.005678734345041"><ele>39.0</ele><time>2026-04-04T15:46:05.999Z</time></trkpt><trkpt lat="43.7295618005818" lon="11.005525867977825"><ele>39.0</ele><time>2026-04-04T15:46:07.999Z</time></trkpt><trkpt lat="43.72953442491764" lon="11.005360528145342"><ele>39.0</ele><time>2026-04-04T15:46:09.999Z</time></trkpt><trkpt lat="43.72949136054957" lon="11.005193869788101"><ele>39.0</ele><time>2026-04-04T15:46:11.999Z</time></trkpt><trkpt lat="43.729476234685634" lon="11.00510450892926"><ele>39.0</ele><time>2026-04-04T15:46:12.999Z</time></trkpt><trkpt lat="43.72945118239916" lon="11.00493583589617"><ele>39.0</ele><time>2026-04-04T15:46:14.999Z</time></trkpt><trkpt lat="43.72943604306612" lon="11.004844303126992"><ele>39.0</ele><time>2026-04-04T15:46:15.999Z</time></trkpt><trkpt lat="43.72942155562347" lon="11.004758049496502"><ele>39.0</ele><time>2026-04-04T15:46:16.999Z</time></trkpt><trkpt lat="43.72940761340583" lon="11.004669566681272"><ele>39.0</ele><time>2026-04-04T15:46:17.999Z</time></trkpt><trkpt lat="43.729393836151374" lon="11.004577593308602"><ele>38.57142857142858</ele><time>2026-04-04T15:46:18.999Z</time></trkpt><trkpt lat="43.729373599785276" lon="11.004483124592554"><ele>38.14285714285714</ele><time>2026-04-04T15:46:19.999Z</time></trkpt><trkpt lat="43.729370227706916" lon="11.00439158175928"><ele>37.714285714285715</ele><time>2026-04-04T15:46:20.999Z</time></trkpt><trkpt lat="43.729353541604105" lon="11.004290042454748"><ele>37.28571428571429</ele><time>2026-04-04T15:46:21.999Z</time></trkpt><trkpt lat="43.72933786643334" lon="11.004193521880492"><ele>36.85714285714286</ele><time>2026-04-04T15:46:22.999Z</time></trkpt><trkpt lat="43.72932322396088" lon="11.00409848750616"><ele>36.42857142857143</ele><time>2026-04-04T15:46:23.999Z</time></trkpt><trkpt lat="43.72929463784628" lon="11.004002001036426"><ele>36.0</ele><time>2026-04-04T15:46:24.999Z</time></trkpt><trkpt lat="43.729282143163616" lon="11.00390460851632"><ele>35.833333333333336</ele><time>2026-04-04T15:46:25.999Z</time></trkpt><trkpt lat="43.729269836432394" lon="11.003800935234255"><ele>35.666666666666664</ele><time>2026-04-04T15:46:26.999Z</time></trkpt><trkpt lat="43.729253176826845" lon="11.003697402429637"><ele>35.5</ele><time>2026-04-04T15:46:27.999Z</time></trkpt><trkpt lat="43.729232826366754" lon="11.003596009240423"><ele>35.33333333333333</ele><time>2026-04-04T15:46:28.999Z</time></trkpt><trkpt lat="43.729212196587056" lon="11.003493029118133"><ele>35.166666666666664</ele><time>2026-04-04T15:46:29.999Z</time></trkpt><trkpt lat="43.72920295709808" lon="11.003394309633858"><ele>35.0</ele><time>2026-04-04T15:46:30.999Z</time></trkpt><trkpt lat="43.72918490391299" lon="11.003297217962901"><ele>34.42857142857143</ele><time>2026-04-04T15:46:31.999Z</time></trkpt><trkpt lat="43.72916654789963" lon="11.003197086515428"><ele>33.85714285714286</ele><time>2026-04-04T15:46:32.999Z</time></trkpt><trkpt lat="43.72914980228631" lon="11.003102648023214"><ele>33.285714285714285</ele><time>2026-04-04T15:46:33.999Z</time></trkpt><trkpt lat="43.72913560423243" lon="11.003006689673777"><ele>32.714285714285715</ele><time>2026-04-04T15:46:34.999Z</time></trkpt><trkpt lat="43.72912294647824" lon="11.002910369630031"><ele>32.142857142857146</ele><time>2026-04-04T15:46:35.999Z</time></trkpt><trkpt lat="43.72910817270114" lon="11.00282328752981"><ele>31.571428571428573</ele><time>2026-04-04T15:46:36.999Z</time></trkpt><trkpt lat="43.72912591709124" lon="11.002732089598801"><ele>31.0</ele><time>2026-04-04T15:46:37.999Z</time></trkpt><trkpt lat="43.729101145901495" lon="11.002573880873951"><ele>30.6</ele><time>2026-04-04T15:46:39.999Z</time></trkpt><trkpt lat="43.72905692716359" lon="11.00241596651191"><ele>30.200000000000003</ele><time>2026-04-04T15:46:41.999Z</time></trkpt><trkpt lat="43.729020256532" lon="11.002251179953392"><ele>29.799999999999997</ele><time>2026-04-04T15:46:43.999Z</time></trkpt><trkpt lat="43.72899700988205" lon="11.002168937372307"><ele>29.4</ele><time>2026-04-04T15:46:44.999Z</time></trkpt><trkpt lat="43.728952523906855" lon="11.00200995359109"><ele>29.0</ele><time>2026-04-04T15:46:46.999Z</time></trkpt><trkpt lat="43.72893119959211" lon="11.001926823339844"><ele>29.0</ele><time>2026-04-04T15:46:47.999Z</time></trkpt><trkpt lat="43.72891572045194" lon="11.001841833033383"><ele>29.0</ele><time>2026-04-04T15:46:48.999Z</time></trkpt><trkpt lat="43.72888115034046" lon="11.001686379035554"><ele>29.0</ele><time>2026-04-04T15:46:50.998Z</time></trkpt><trkpt lat="43.72882770837177" lon="11.001535423426631"><ele>29.0</ele><time>2026-04-04T15:46:52.998Z</time></trkpt><trkpt lat="43.728833941896305" lon="11.00137832445331"><ele>29.0</ele><time>2026-04-04T15:46:54.998Z</time></trkpt><trkpt lat="43.72886296591718" lon="11.001287512641307"><ele>28.6</ele><time>2026-04-04T15:46:55.998Z</time></trkpt><trkpt lat="43.728898626611745" lon="11.00119814270961"><ele>28.2</ele><time>2026-04-04T15:46:57.998Z</time></trkpt><trkpt lat="43.72891257663842" lon="11.001085384388595"><ele>27.800000000000004</ele><time>2026-04-04T15:46:59.998Z</time></trkpt><trkpt lat="43.728901294489766" lon="11.000982838843393"><ele>27.400000000000002</ele><time>2026-04-04T15:47:01.998Z</time></trkpt><trkpt lat="43.72889809224043" lon="11.000803749547886"><ele>27.0</ele><time>2026-04-04T15:47:03.998Z</time></trkpt><trkpt lat="43.72902771909644" lon="11.000728656376674"><ele>27.0</ele><time>2026-04-04T15:47:05.998Z</time></trkpt><trkpt lat="43.729027205230175" lon="11.000618737623991"><ele>27.0</ele><time>2026-04-04T15:47:08.998Z</time></trkpt><trkpt lat="43.72896548821065" lon="11.000571960202562"><ele>27.0</ele><time>2026-04-04T15:47:11.998Z</time></trkpt><trkpt lat="43.72889006676388" lon="11.000623890351612"><ele>27.0</ele><time>2026-04-04T15:47:13.998Z</time></trkpt><trkpt lat="43.72881658013489" lon="11.000662248552207"><ele>27.0</ele><time>2026-04-04T15:47:15.998Z</time></trkpt><trkpt lat="43.72872734543638" lon="11.000634713654252"><ele>27.0</ele><time>2026-04-04T15:47:17.998Z</time></trkpt><trkpt lat="43.728642897725585" lon="11.000581463318404"><ele>27.0</ele><time>2026-04-04T15:47:19.998Z</time></trkpt><trkpt lat="43.72857634939329" lon="11.00048585177979"><ele>27.000000000000004</ele><time>2026-04-04T15:47:21.998Z</time></trkpt><trkpt lat="43.72858156836439" lon="11.000397411693376"><ele>27.000000000000004</ele><time>2026-04-04T15:47:22.998Z</time></trkpt><trkpt lat="43.728566635601595" lon="11.000259234906737"><ele>27.0</ele><time>2026-04-04T15:47:25Z</time></trkpt><trkpt lat="43.72854188414509" lon="11.000128355106648"><ele>27.0</ele><time>2026-04-04T15:47:27Z</time></trkpt><trkpt lat="43.72852026355869" lon="10.99999478794162"><ele>27.200000000000003</ele><time>2026-04-04T15:47:29Z</time></trkpt><trkpt lat="43.72849293710517" lon="10.999861635061503"><ele>27.400000000000002</ele><time>2026-04-04T15:47:31Z</time></trkpt><trkpt lat="43.72847511188671" lon="10.999723065073129"><ele>27.599999999999998</ele><time>2026-04-04T15:47:33Z</time></trkpt><trkpt lat="43.728453685000616" lon="10.999589170263341"><ele>27.799999999999997</ele><time>2026-04-04T15:47:35Z</time></trkpt><trkpt lat="43.72843183005582" lon="10.999451473079427"><ele>28.0</ele><time>2026-04-04T15:47:37Z</time></trkpt><trkpt lat="43.72840778013298" lon="10.999313743410955"><ele>28.0</ele><time>2026-04-04T15:47:39Z</time></trkpt><trkpt lat="43.72838296717149" lon="10.999174341406096"><ele>27.999999999999996</ele><time>2026-04-04T15:47:41Z</time></trkpt><trkpt lat="43.7283616971165" lon="10.999029836552877"><ele>27.999999999999996</ele><time>2026-04-04T15:47:43Z</time></trkpt><trkpt lat="43.72833790506312" lon="10.998884115341433"><ele>28.0</ele><time>2026-04-04T15:47:45Z</time></trkpt><trkpt lat="43.728314540942165" lon="10.998741164183816"><ele>28.0</ele><time>2026-04-04T15:47:47Z</time></trkpt><trkpt lat="43.72829143679398" lon="10.998592287050492"><ele>28.0</ele><time>2026-04-04T15:47:49Z</time></trkpt><trkpt lat="43.728266714918625" lon="10.998445265692693"><ele>27.999999999999996</ele><time>2026-04-04T15:47:50.999Z</time></trkpt><trkpt lat="43.7282429114659" lon="10.998299236769427"><ele>27.999999999999996</ele><time>2026-04-04T15:47:52.999Z</time></trkpt><trkpt lat="43.72821705180173" lon="10.99814927394366"><ele>28.0</ele><time>2026-04-04T15:47:54.999Z</time></trkpt><trkpt lat="43.72819183694976" lon="10.998004954509977"><ele>28.0</ele><time>2026-04-04T15:47:56.999Z</time></trkpt><trkpt lat="43.72816938128951" lon="10.997858005659722"><ele>28.0</ele><time>2026-04-04T15:47:58.999Z</time></trkpt><trkpt lat="43.72814607156372" lon="10.997710534374551"><ele>27.999999999999996</ele><time>2026-04-04T15:48:00.999Z</time></trkpt><trkpt lat="43.728117072323755" lon="10.997559333545114"><ele>27.999999999999996</ele><time>2026-04-04T15:48:02.999Z</time></trkpt><trkpt lat="43.72809451369978" lon="10.9974114567125"><ele>28.0</ele><time>2026-04-04T15:48:04.999Z</time></trkpt><trkpt lat="43.72806749847428" lon="10.997263894065247"><ele>28.0</ele><time>2026-04-04T15:48:06.999Z</time></trkpt><trkpt lat="43.728041417265274" lon="10.997117489249948"><ele>28.0</ele><time>2026-04-04T15:48:08.999Z</time></trkpt><trkpt lat="43.728018468629195" lon="10.996960516493003"><ele>28.0</ele><time>2026-04-04T15:48:10.999Z</time></trkpt><trkpt lat="43.72799015178847" lon="10.996806578236143"><ele>28.0</ele><time>2026-04-04T15:48:12.999Z</time></trkpt><trkpt lat="43.7279635721946" lon="10.99666020617904"><ele>28.0</ele><time>2026-04-04T15:48:14.999Z</time></trkpt><trkpt lat="43.72793531544516" lon="10.9965111305796"><ele>28.0</ele><time>2026-04-04T15:48:16.999Z</time></trkpt><trkpt lat="43.727907406940794" lon="10.996363975294688"><ele>27.999999999999996</ele><time>2026-04-04T15:48:18.999Z</time></trkpt><trkpt lat="43.72788419072185" lon="10.996216149652078"><ele>27.999999999999996</ele><time>2026-04-04T15:48:20.999Z</time></trkpt><trkpt lat="43.72785776746485" lon="10.99606743908726"><ele>28.0</ele><time>2026-04-04T15:48:22.999Z</time></trkpt><trkpt lat="43.727833813534865" lon="10.995917108298986"><ele>28.0</ele><time>2026-04-04T15:48:24.999Z</time></trkpt><trkpt lat="43.72780945811087" lon="10.99577090447318"><ele>28.0</ele><time>2026-04-04T15:48:26.999Z</time></trkpt><trkpt lat="43.72778422292454" lon="10.99562131333548"><ele>27.999999999999996</ele><time>2026-04-04T15:48:28.999Z</time></trkpt><trkpt lat="43.7277616145951" lon="10.9954762146724"><ele>27.999999999999996</ele><time>2026-04-04T15:48:30.999Z</time></trkpt><trkpt lat="43.72773341996209" lon="10.99532651058494"><ele>28.0</ele><time>2026-04-04T15:48:32.999Z</time></trkpt><trkpt lat="43.72770616730056" lon="10.995178663096196"><ele>28.0</ele><time>2026-04-04T15:48:34.999Z</time></trkpt><trkpt lat="43.72767728318674" lon="10.995031830140485"><ele>27.799999999999997</ele><time>2026-04-04T15:48:36.999Z</time></trkpt><trkpt lat="43.727659263419596" lon="10.994888314470433"><ele>27.599999999999998</ele><time>2026-04-04T15:48:38.999Z</time></trkpt><trkpt lat="43.72763082521568" lon="10.994748498803155"><ele>27.400000000000002</ele><time>2026-04-04T15:48:40.999Z</time></trkpt><trkpt lat="43.727602029251194" lon="10.994610649885646"><ele>27.200000000000003</ele><time>2026-04-04T15:48:42.999Z</time></trkpt><trkpt lat="43.7275792408595" lon="10.994466705821088"><ele>27.0</ele><time>2026-04-04T15:48:44.999Z</time></trkpt><trkpt lat="43.727564885932644" lon="10.994325233561671"><ele>27.0</ele><time>2026-04-04T15:48:46.999Z</time></trkpt><trkpt lat="43.7275363137916" lon="10.994186490379631"><ele>27.000000000000004</ele><time>2026-04-04T15:48:48.999Z</time></trkpt><trkpt lat="43.72751519114621" lon="10.994047321543576"><ele>27.000000000000004</ele><time>2026-04-04T15:48:50.999Z</time></trkpt><trkpt lat="43.72749275758102" lon="10.993908662666712"><ele>27.0</ele><time>2026-04-04T15:48:52.999Z</time></trkpt><trkpt lat="43.7274688287923" lon="10.993769367471392"><ele>27.0</ele><time>2026-04-04T15:48:54.998Z</time></trkpt><trkpt lat="43.72744188676987" lon="10.99362886646103"><ele>26.8</ele><time>2026-04-04T15:48:56.998Z</time></trkpt><trkpt lat="43.72741978887319" lon="10.993485415867921"><ele>26.6</ele><time>2026-04-04T15:48:58.998Z</time></trkpt><trkpt lat="43.72739392317816" lon="10.99334400796547"><ele>26.400000000000002</ele><time>2026-04-04T15:49:00.998Z</time></trkpt><trkpt lat="43.72737128742046" lon="10.993202402220003"><ele>26.200000000000003</ele><time>2026-04-04T15:49:02.998Z</time></trkpt><trkpt lat="43.727345517565844" lon="10.993059849985851"><ele>26.0</ele><time>2026-04-04T15:49:04.998Z</time></trkpt><trkpt lat="43.72731801172134" lon="10.992917717381323"><ele>25.8</ele><time>2026-04-04T15:49:06.998Z</time></trkpt><trkpt lat="43.727295100258" lon="10.992779341340116"><ele>25.6</ele><time>2026-04-04T15:49:08.998Z</time></trkpt><trkpt lat="43.72727161203832" lon="10.992640494001003"><ele>25.4</ele><time>2026-04-04T15:49:10.998Z</time></trkpt><trkpt lat="43.72724716687607" lon="10.992502071920295"><ele>25.2</ele><time>2026-04-04T15:49:12.998Z</time></trkpt><trkpt lat="43.72722476929795" lon="10.992364075854082"><ele>25.0</ele><time>2026-04-04T15:49:14.998Z</time></trkpt><trkpt lat="43.727201540843865" lon="10.992226696676783"><ele>25.0</ele><time>2026-04-04T15:49:16.998Z</time></trkpt><trkpt lat="43.7271812205052" lon="10.99208784588154"><ele>25.0</ele><time>2026-04-04T15:49:18.998Z</time></trkpt><trkpt lat="43.72715719395504" lon="10.991947245606362"><ele>25.0</ele><time>2026-04-04T15:49:20.998Z</time></trkpt><trkpt lat="43.72713246743674" lon="10.99181146929123"><ele>25.0</ele><time>2026-04-04T15:49:22.998Z</time></trkpt><trkpt lat="43.727109951452626" lon="10.991671952701951"><ele>25.0</ele><time>2026-04-04T15:49:24.998Z</time></trkpt><trkpt lat="43.727088095109956" lon="10.991528977536793"><ele>24.8</ele><time>2026-04-04T15:49:26.998Z</time></trkpt><trkpt lat="43.727064860865994" lon="10.991387186399292"><ele>24.6</ele><time>2026-04-04T15:49:28.998Z</time></trkpt><trkpt lat="43.72704984113893" lon="10.991234852977733"><ele>24.4</ele><time>2026-04-04T15:49:31Z</time></trkpt><trkpt lat="43.727048518382" lon="10.991075584606811"><ele>24.2</ele><time>2026-04-04T15:49:33Z</time></trkpt><trkpt lat="43.72705321182252" lon="10.990920469384042"><ele>24.0</ele><time>2026-04-04T15:49:35Z</time></trkpt><trkpt lat="43.72705875526767" lon="10.990768828186463"><ele>24.0</ele><time>2026-04-04T15:49:37Z</time></trkpt><trkpt lat="43.727058000302826" lon="10.990625654751868"><ele>24.0</ele><time>2026-04-04T15:49:39Z</time></trkpt><trkpt lat="43.72704388584038" lon="10.990487840839286"><ele>24.0</ele><time>2026-04-04T15:49:41Z</time></trkpt><trkpt lat="43.72702008414962" lon="10.990346371499374"><ele>24.0</ele><time>2026-04-04T15:49:43Z</time></trkpt><trkpt lat="43.72698132106557" lon="10.990214932439203"><ele>24.0</ele><time>2026-04-04T15:49:45Z</time></trkpt><trkpt lat="43.72692043390869" lon="10.990098265377206"><ele>24.5</ele><time>2026-04-04T15:49:47Z</time></trkpt><trkpt lat="43.72684750874169" lon="10.989983258641049"><ele>25.0</ele><time>2026-04-04T15:49:49Z</time></trkpt><trkpt lat="43.72676673705333" lon="10.989869502692947"><ele>25.5</ele><time>2026-04-04T15:49:51Z</time></trkpt><trkpt lat="43.7266808093655" lon="10.98975243618246"><ele>26.0</ele><time>2026-04-04T15:49:53Z</time></trkpt><trkpt lat="43.72660632263166" lon="10.989632783197006"><ele>26.0</ele><time>2026-04-04T15:49:55Z</time></trkpt><trkpt lat="43.72651814247037" lon="10.989524320296951"><ele>26.0</ele><time>2026-04-04T15:49:57Z</time></trkpt><trkpt lat="43.72644043366492" lon="10.989413766808898"><ele>26.0</ele><time>2026-04-04T15:49:59Z</time></trkpt><trkpt lat="43.726359938293214" lon="10.989304782175337"><ele>26.0</ele><time>2026-04-04T15:50:01Z</time></trkpt><trkpt lat="43.72627813992157" lon="10.989192504245986"><ele>26.0</ele><time>2026-04-04T15:50:02.999Z</time></trkpt><trkpt lat="43.72619608823757" lon="10.989082335908416"><ele>26.0</ele><time>2026-04-04T15:50:04.999Z</time></trkpt><trkpt lat="43.726111756185574" lon="10.988971481893635"><ele>26.0</ele><time>2026-04-04T15:50:06.999Z</time></trkpt><trkpt lat="43.726033957348825" lon="10.988864700155146"><ele>26.0</ele><time>2026-04-04T15:50:08.999Z</time></trkpt><trkpt lat="43.725954103951615" lon="10.988755090492699"><ele>26.0</ele><time>2026-04-04T15:50:10.999Z</time></trkpt><trkpt lat="43.72587189532369" lon="10.988648476019193"><ele>26.0</ele><time>2026-04-04T15:50:12.999Z</time></trkpt><trkpt lat="43.72578791441374" lon="10.988543083434871"><ele>26.0</ele><time>2026-04-04T15:50:14.999Z</time></trkpt><trkpt lat="43.72570486355908" lon="10.988437456437941"><ele>26.0</ele><time>2026-04-04T15:50:16.999Z</time></trkpt><trkpt lat="43.725620895878315" lon="10.988336013475648"><ele>26.0</ele><time>2026-04-04T15:50:18.999Z</time></trkpt><trkpt lat="43.72553439024129" lon="10.988237455013083"><ele>26.0</ele><time>2026-04-04T15:50:20.999Z</time></trkpt><trkpt lat="43.7254526257389" lon="10.988137083390997"><ele>26.0</ele><time>2026-04-04T15:50:22.999Z</time></trkpt><trkpt lat="43.725368389838785" lon="10.9880274987801"><ele>26.0</ele><time>2026-04-04T15:50:24.999Z</time></trkpt><trkpt lat="43.72528335265356" lon="10.987921463692183"><ele>26.25</ele><time>2026-04-04T15:50:26.999Z</time></trkpt><trkpt lat="43.7251979652783" lon="10.987811714707098"><ele>26.5</ele><time>2026-04-04T15:50:28.999Z</time></trkpt><trkpt lat="43.72511281301975" lon="10.987699271455236"><ele>26.75</ele><time>2026-04-04T15:50:30.999Z</time></trkpt><trkpt lat="43.72502864985253" lon="10.98759256966867"><ele>27.0</ele><time>2026-04-04T15:50:32.999Z</time></trkpt><trkpt lat="43.724947556342904" lon="10.987484112973773"><ele>27.200000000000003</ele><time>2026-04-04T15:50:34.999Z</time></trkpt><trkpt lat="43.724867463388875" lon="10.987386367954867"><ele>27.400000000000002</ele><time>2026-04-04T15:50:36.999Z</time></trkpt><trkpt lat="43.72478432346215" lon="10.987289795070094"><ele>27.599999999999998</ele><time>2026-04-04T15:50:38.999Z</time></trkpt><trkpt lat="43.724697121928024" lon="10.98720066975256"><ele>27.799999999999997</ele><time>2026-04-04T15:50:40.999Z</time></trkpt><trkpt lat="43.72460622717364" lon="10.987112828132213"><ele>28.0</ele><time>2026-04-04T15:50:42.999Z</time></trkpt><trkpt lat="43.724512889184055" lon="10.987026469006565"><ele>28.0</ele><time>2026-04-04T15:50:44.999Z</time></trkpt><trkpt lat="43.724419944582415" lon="10.986936932252407"><ele>28.0</ele><time>2026-04-04T15:50:46.999Z</time></trkpt><trkpt lat="43.72432465492328" lon="10.986849634007777"><ele>28.0</ele><time>2026-04-04T15:50:48.999Z</time></trkpt><trkpt lat="43.72422898444173" lon="10.986760952224628"><ele>28.0</ele><time>2026-04-04T15:50:50.999Z</time></trkpt><trkpt lat="43.72413363652725" lon="10.986669755543664"><ele>27.0</ele><time>2026-04-04T15:50:52.999Z</time></trkpt><trkpt lat="43.72404608838157" lon="10.986562254657505"><ele>26.0</ele><time>2026-04-04T15:50:54.999Z</time></trkpt><trkpt lat="43.72397653272772" lon="10.98644879895124"><ele>25.0</ele><time>2026-04-04T15:50:56.999Z</time></trkpt><trkpt lat="43.72391189436353" lon="10.986325925898013"><ele>24.0</ele><time>2026-04-04T15:50:58.999Z</time></trkpt><trkpt lat="43.72384596253691" lon="10.986190073484966"><ele>24.0</ele><time>2026-04-04T15:51:00.999Z</time></trkpt><trkpt lat="43.72379292442277" lon="10.986049502338346"><ele>24.0</ele><time>2026-04-04T15:51:02.999Z</time></trkpt><trkpt lat="43.723746993505536" lon="10.985907783746207"><ele>24.0</ele><time>2026-04-04T15:51:04.999Z</time></trkpt><trkpt lat="43.72371080163789" lon="10.985759858809468"><ele>24.0</ele><time>2026-04-04T15:51:06.999Z</time></trkpt><trkpt lat="43.723679102192" lon="10.985612637992247"><ele>24.2</ele><time>2026-04-04T15:51:08.999Z</time></trkpt><trkpt lat="43.723644990080786" lon="10.985469977503401"><ele>24.4</ele><time>2026-04-04T15:51:10.998Z</time></trkpt><trkpt lat="43.72360312135723" lon="10.985326579116144"><ele>24.6</ele><time>2026-04-04T15:51:12.998Z</time></trkpt><trkpt lat="43.723561356881085" lon="10.985187367526247"><ele>24.8</ele><time>2026-04-04T15:51:14.998Z</time></trkpt><trkpt lat="43.72350378674613" lon="10.985073247892831"><ele>25.0</ele><time>2026-04-04T15:51:16.998Z</time></trkpt><trkpt lat="43.72344356011891" lon="10.984958078034515"><ele>25.2</ele><time>2026-04-04T15:51:18.998Z</time></trkpt><trkpt lat="43.7233774706967" lon="10.984847078020902"><ele>25.4</ele><time>2026-04-04T15:51:20.998Z</time></trkpt><trkpt lat="43.723305924284524" lon="10.984740198570556"><ele>25.6</ele><time>2026-04-04T15:51:22.998Z</time></trkpt><trkpt lat="43.723226567319124" lon="10.984636412547685"><ele>25.8</ele><time>2026-04-04T15:51:24.998Z</time></trkpt><trkpt lat="43.72314898778371" lon="10.984535906432454"><ele>26.0</ele><time>2026-04-04T15:51:26.998Z</time></trkpt><trkpt lat="43.723075456423956" lon="10.98443762191447"><ele>26.0</ele><time>2026-04-04T15:51:28.998Z</time></trkpt><trkpt lat="43.723001539813424" lon="10.984344153476657"><ele>26.0</ele><time>2026-04-04T15:51:30.998Z</time></trkpt><trkpt lat="43.722928355761105" lon="10.984248984046232"><ele>26.0</ele><time>2026-04-04T15:51:32.998Z</time></trkpt><trkpt lat="43.722854371140336" lon="10.984148167660848"><ele>26.0</ele><time>2026-04-04T15:51:34.998Z</time></trkpt><trkpt lat="43.722780912952594" lon="10.984051258308797"><ele>26.0</ele><time>2026-04-04T15:51:37Z</time></trkpt><trkpt lat="43.72270628411684" lon="10.98395307526027"><ele>26.0</ele><time>2026-04-04T15:51:39Z</time></trkpt><trkpt lat="43.72263183056392" lon="10.98384892325731"><ele>26.0</ele><time>2026-04-04T15:51:41Z</time></trkpt><trkpt lat="43.72255818507816" lon="10.983748627402058"><ele>26.0</ele><time>2026-04-04T15:51:43Z</time></trkpt><trkpt lat="43.72248432984482" lon="10.983651543534313"><ele>26.0</ele><time>2026-04-04T15:51:45Z</time></trkpt><trkpt lat="43.72241111821283" lon="10.983555634263306"><ele>26.0</ele><time>2026-04-04T15:51:47Z</time></trkpt><trkpt lat="43.722337011782635" lon="10.983458557219878"><ele>26.0</ele><time>2026-04-04T15:51:49Z</time></trkpt><trkpt lat="43.72226234597014" lon="10.9833591937465"><ele>26.0</ele><time>2026-04-04T15:51:51Z</time></trkpt><trkpt lat="43.72219055014047" lon="10.983263400307338"><ele>26.0</ele><time>2026-04-04T15:51:53Z</time></trkpt><trkpt lat="43.72211775743856" lon="10.983169132827342"><ele>26.0</ele><time>2026-04-04T15:51:55Z</time></trkpt><trkpt lat="43.72205000625226" lon="10.983082272648387"><ele>26.0</ele><time>2026-04-04T15:51:57Z</time></trkpt><trkpt lat="43.721979011583365" lon="10.982993520170737"><ele>25.999999999999996</ele><time>2026-04-04T15:51:59Z</time></trkpt><trkpt lat="43.721902589870055" lon="10.982913985008983"><ele>26.0</ele><time>2026-04-04T15:52:01Z</time></trkpt><trkpt lat="43.72182639820828" lon="10.982854720798889"><ele>26.0</ele><time>2026-04-04T15:52:03Z</time></trkpt><trkpt lat="43.721752298505834" lon="10.982801730366635"><ele>26.0</ele><time>2026-04-04T15:52:05Z</time></trkpt><trkpt lat="43.72169150838794" lon="10.982709581595788"><ele>25.999999999999996</ele><time>2026-04-04T15:52:07Z</time></trkpt><trkpt lat="43.7216476057777" lon="10.982602608534144"><ele>26.0</ele><time>2026-04-04T15:52:09Z</time></trkpt><trkpt lat="43.7216109256624" lon="10.982487609363286"><ele>25.8</ele><time>2026-04-04T15:52:11Z</time></trkpt><trkpt lat="43.72154212403183" lon="10.982408337135611"><ele>25.6</ele><time>2026-04-04T15:52:12.999Z</time></trkpt><trkpt lat="43.72146973583608" lon="10.982335659806354"><ele>25.4</ele><time>2026-04-04T15:52:14.999Z</time></trkpt><trkpt lat="43.72140595938079" lon="10.98223940576539"><ele>25.2</ele><time>2026-04-04T15:52:16.999Z</time></trkpt><trkpt lat="43.72135379524279" lon="10.98212894588022"><ele>25.0</ele><time>2026-04-04T15:52:18.999Z</time></trkpt><trkpt lat="43.721314218225004" lon="10.982002562802727"><ele>25.0</ele><time>2026-04-04T15:52:20.999Z</time></trkpt><trkpt lat="43.72127635606484" lon="10.981875354138463"><ele>25.0</ele><time>2026-04-04T15:52:22.999Z</time></trkpt><trkpt lat="43.72122709229024" lon="10.981756452232666"><ele>25.0</ele><time>2026-04-04T15:52:24.999Z</time></trkpt><trkpt lat="43.721171484849606" lon="10.981644509524422"><ele>25.0</ele><time>2026-04-04T15:52:26.999Z</time></trkpt><trkpt lat="43.72111601450776" lon="10.981529192323954"><ele>25.0</ele><time>2026-04-04T15:52:28.999Z</time></trkpt><trkpt lat="43.72105927797021" lon="10.981414438865189"><ele>25.4</ele><time>2026-04-04T15:52:30.999Z</time></trkpt><trkpt lat="43.721002118285355" lon="10.981297070372504"><ele>25.8</ele><time>2026-04-04T15:52:32.999Z</time></trkpt><trkpt lat="43.72094836925609" lon="10.981186298665536"><ele>26.200000000000003</ele><time>2026-04-04T15:52:34.999Z</time></trkpt><trkpt lat="43.72090155528274" lon="10.981064713932177"><ele>26.6</ele><time>2026-04-04T15:52:36.999Z</time></trkpt><trkpt lat="43.72085510561117" lon="10.98094286666211"><ele>27.0</ele><time>2026-04-04T15:52:38.999Z</time></trkpt><trkpt lat="43.72082236643754" lon="10.980812887611224"><ele>27.200000000000003</ele><time>2026-04-04T15:52:40.999Z</time></trkpt><trkpt lat="43.72079529279327" lon="10.980679659661703"><ele>27.400000000000002</ele><time>2026-04-04T15:52:42.999Z</time></trkpt><trkpt lat="43.72076553807883" lon="10.980543717404304"><ele>27.599999999999998</ele><time>2026-04-04T15:52:44.999Z</time></trkpt><trkpt lat="43.720733591995845" lon="10.980408517058365"><ele>27.799999999999997</ele><time>2026-04-04T15:52:46.999Z</time></trkpt><trkpt lat="43.7207093570102" lon="10.980270357835298"><ele>28.0</ele><time>2026-04-04T15:52:48.999Z</time></trkpt><trkpt lat="43.72068971557143" lon="10.980130784666994"><ele>27.799999999999997</ele><time>2026-04-04T15:52:50.999Z</time></trkpt><trkpt lat="43.72067521021615" lon="10.979991757230158"><ele>27.599999999999998</ele><time>2026-04-04T15:52:52.999Z</time></trkpt><trkpt lat="43.72066700810399" lon="10.979854942029567"><ele>27.400000000000002</ele><time>2026-04-04T15:52:54.999Z</time></trkpt><trkpt lat="43.72065327774623" lon="10.979717899137846"><ele>27.200000000000003</ele><time>2026-04-04T15:52:56.999Z</time></trkpt><trkpt lat="43.72064415103481" lon="10.979580538800876"><ele>27.0</ele><time>2026-04-04T15:52:58.999Z</time></trkpt><trkpt lat="43.7206396396266" lon="10.979447712029478"><ele>27.0</ele><time>2026-04-04T15:53:00.999Z</time></trkpt><trkpt lat="43.7206367904374" lon="10.979315237206658"><ele>27.000000000000004</ele><time>2026-04-04T15:53:02.999Z</time></trkpt><trkpt lat="43.72063992918997" lon="10.97918148422496"><ele>27.000000000000004</ele><time>2026-04-04T15:53:04.999Z</time></trkpt><trkpt lat="43.720646071729455" lon="10.979044029964278"><ele>27.0</ele><time>2026-04-04T15:53:06.999Z</time></trkpt><trkpt lat="43.72065407951838" lon="10.978905567374"><ele>27.0</ele><time>2026-04-04T15:53:08.999Z</time></trkpt><trkpt lat="43.72066344815613" lon="10.97876809782491"><ele>27.0</ele><time>2026-04-04T15:53:10.999Z</time></trkpt><trkpt lat="43.720671880316424" lon="10.978628512573053"><ele>27.000000000000004</ele><time>2026-04-04T15:53:12.999Z</time></trkpt><trkpt lat="43.720677248017275" lon="10.978490018612002"><ele>27.000000000000004</ele><time>2026-04-04T15:53:14.999Z</time></trkpt><trkpt lat="43.720688385886966" lon="10.978352199574598"><ele>27.0</ele><time>2026-04-04T15:53:16.998Z</time></trkpt><trkpt lat="43.72070261082469" lon="10.978214748210611"><ele>27.0</ele><time>2026-04-04T15:53:18.998Z</time></trkpt><trkpt lat="43.720722364536755" lon="10.97807997681388"><ele>27.0</ele><time>2026-04-04T15:53:20.998Z</time></trkpt><trkpt lat="43.72074109485631" lon="10.97795199890454"><ele>27.000000000000004</ele><time>2026-04-04T15:53:22.998Z</time></trkpt><trkpt lat="43.72076315423434" lon="10.977827440387845"><ele>27.000000000000004</ele><time>2026-04-04T15:53:24.998Z</time></trkpt><trkpt lat="43.72078695794966" lon="10.977701118766328"><ele>27.0</ele><time>2026-04-04T15:53:26.998Z</time></trkpt><trkpt lat="43.72081390234038" lon="10.977572309522804"><ele>27.0</ele><time>2026-04-04T15:53:28.998Z</time></trkpt><trkpt lat="43.72084231843764" lon="10.977444857893776"><ele>26.8</ele><time>2026-04-04T15:53:30.998Z</time></trkpt><trkpt lat="43.72087240286403" lon="10.977317772517637"><ele>26.6</ele><time>2026-04-04T15:53:32.998Z</time></trkpt><trkpt lat="43.72090596702541" lon="10.977185926631853"><ele>26.400000000000002</ele><time>2026-04-04T15:53:34.998Z</time></trkpt><trkpt lat="43.72094037818708" lon="10.977053852777297"><ele>26.200000000000003</ele><time>2026-04-04T15:53:36.998Z</time></trkpt><trkpt lat="43.7209794754741" lon="10.976923851242944"><ele>26.0</ele><time>2026-04-04T15:53:38.998Z</time></trkpt><trkpt lat="43.72101847949399" lon="10.976796286309416"><ele>25.8</ele><time>2026-04-04T15:53:40.998Z</time></trkpt><trkpt lat="43.721056802728384" lon="10.976671610015178"><ele>25.6</ele><time>2026-04-04T15:53:43Z</time></trkpt><trkpt lat="43.721094281250295" lon="10.976547400640637"><ele>25.4</ele><time>2026-04-04T15:53:45Z</time></trkpt><trkpt lat="43.72112804547804" lon="10.97642574049316"><ele>25.2</ele><time>2026-04-04T15:53:47Z</time></trkpt><trkpt lat="43.721163027801175" lon="10.976296618035866"><ele>25.0</ele><time>2026-04-04T15:53:49Z</time></trkpt><trkpt lat="43.72119913302482" lon="10.976165552903574"><ele>25.0</ele><time>2026-04-04T15:53:51Z</time></trkpt><trkpt lat="43.72123651881681" lon="10.976036784819764"><ele>25.0</ele><time>2026-04-04T15:53:53Z</time></trkpt><trkpt lat="43.72127702842259" lon="10.975906246923959"><ele>25.0</ele><time>2026-04-04T15:53:55Z</time></trkpt><trkpt lat="43.72131748376488" lon="10.975770798996606"><ele>25.0</ele><time>2026-04-04T15:53:57Z</time></trkpt><trkpt lat="43.72135496090233" lon="10.975635224561417"><ele>25.0</ele><time>2026-04-04T15:53:59Z</time></trkpt><trkpt lat="43.721391522426295" lon="10.97550333521816"><ele>25.2</ele><time>2026-04-04T15:54:01Z</time></trkpt><trkpt lat="43.7214339120995" lon="10.975376041834117"><ele>25.4</ele><time>2026-04-04T15:54:03Z</time></trkpt><trkpt lat="43.72147965101041" lon="10.975252685402406"><ele>25.6</ele><time>2026-04-04T15:54:05Z</time></trkpt><trkpt lat="43.72152469723354" lon="10.975124802941155"><ele>25.8</ele><time>2026-04-04T15:54:07Z</time></trkpt><trkpt lat="43.72157002230061" lon="10.974997614417985"><ele>26.0</ele><time>2026-04-04T15:54:09Z</time></trkpt><trkpt lat="43.72161871569535" lon="10.974872818602686"><ele>26.0</ele><time>2026-04-04T15:54:11Z</time></trkpt><trkpt lat="43.72169233787459" lon="10.974766693014496"><ele>26.0</ele><time>2026-04-04T15:54:13Z</time></trkpt><trkpt lat="43.721769713609824" lon="10.974665114406386"><ele>26.0</ele><time>2026-04-04T15:54:15Z</time></trkpt><trkpt lat="43.72180131029826" lon="10.974535112266183"><ele>26.0</ele><time>2026-04-04T15:54:17Z</time></trkpt><trkpt lat="43.721791708346736" lon="10.974395555557585"><ele>26.0</ele><time>2026-04-04T15:54:19Z</time></trkpt><trkpt lat="43.721743723237346" lon="10.974273280498998"><ele>26.0</ele><time>2026-04-04T15:54:21Z</time></trkpt><trkpt lat="43.72176093905514" lon="10.974185842694165"><ele>26.0</ele><time>2026-04-04T15:54:22Z</time></trkpt><trkpt lat="43.72176835701794" lon="10.974039969837808"><ele>26.0</ele><time>2026-04-04T15:54:24Z</time></trkpt><trkpt lat="43.72179295380204" lon="10.973905155122418"><ele>26.0</ele><time>2026-04-04T15:54:26Z</time></trkpt><trkpt lat="43.721793653037494" lon="10.973762852540833"><ele>26.0</ele><time>2026-04-04T15:54:27.999Z</time></trkpt><trkpt lat="43.72181434923497" lon="10.973627377664707"><ele>26.0</ele><time>2026-04-04T15:54:29.999Z</time></trkpt><trkpt lat="43.72182459683265" lon="10.973492602960267"><ele>26.0</ele><time>2026-04-04T15:54:31.999Z</time></trkpt><trkpt lat="43.72183057801588" lon="10.973355786497885"><ele>26.0</ele><time>2026-04-04T15:54:33.999Z</time></trkpt><trkpt lat="43.72183419777788" lon="10.973216790898839"><ele>26.0</ele><time>2026-04-04T15:54:35.999Z</time></trkpt><trkpt lat="43.72182979972024" lon="10.973076577880239"><ele>26.0</ele><time>2026-04-04T15:54:37.999Z</time></trkpt><trkpt lat="43.72182703319596" lon="10.972945002051505"><ele>25.8</ele><time>2026-04-04T15:54:39.999Z</time></trkpt><trkpt lat="43.72182520077486" lon="10.972806447716774"><ele>25.6</ele><time>2026-04-04T15:54:41.999Z</time></trkpt><trkpt lat="43.72181359935938" lon="10.972669460711339"><ele>25.4</ele><time>2026-04-04T15:54:43.999Z</time></trkpt><trkpt lat="43.72179734817272" lon="10.972531325878895"><ele>25.2</ele><time>2026-04-04T15:54:45.999Z</time></trkpt><trkpt lat="43.7217854857298" lon="10.972390862486504"><ele>25.0</ele><time>2026-04-04T15:54:47.999Z</time></trkpt><trkpt lat="43.72176777518022" lon="10.972249888964573"><ele>25.0</ele><time>2026-04-04T15:54:49.999Z</time></trkpt><trkpt lat="43.721752741020815" lon="10.972105413153042"><ele>25.0</ele><time>2026-04-04T15:54:51.999Z</time></trkpt><trkpt lat="43.72174348942857" lon="10.97196019131723"><ele>25.0</ele><time>2026-04-04T15:54:53.999Z</time></trkpt><trkpt lat="43.721736689356" lon="10.971821200588135"><ele>25.0</ele><time>2026-04-04T15:54:55.999Z</time></trkpt><trkpt lat="43.72173680236402" lon="10.971680281532924"><ele>25.0</ele><time>2026-04-04T15:54:57.999Z</time></trkpt><trkpt lat="43.721744075685415" lon="10.971539851680744"><ele>25.0</ele><time>2026-04-04T15:54:59.999Z</time></trkpt><trkpt lat="43.72175741266586" lon="10.971402517056802"><ele>25.0</ele><time>2026-04-04T15:55:01.999Z</time></trkpt><trkpt lat="43.72178752245714" lon="10.971269696809902"><ele>25.0</ele><time>2026-04-04T15:55:03.999Z</time></trkpt><trkpt lat="43.72181656817811" lon="10.971142567575374"><ele>25.0</ele><time>2026-04-04T15:55:05.999Z</time></trkpt><trkpt lat="43.7218128476917" lon="10.971009135753091"><ele>25.0</ele><time>2026-04-04T15:55:07.999Z</time></trkpt><trkpt lat="43.72177560777038" lon="10.970884256393687"><ele>25.0</ele><time>2026-04-04T15:55:09.999Z</time></trkpt><trkpt lat="43.72165842663751" lon="10.970763929473712"><ele>25.0</ele><time>2026-04-04T15:55:12.999Z</time></trkpt><trkpt lat="43.72163095569654" lon="10.970593071303917"><ele>25.0</ele><time>2026-04-04T15:55:14.999Z</time></trkpt><trkpt lat="43.72161333956921" lon="10.970456585817498"><ele>25.0</ele><time>2026-04-04T15:55:16.999Z</time></trkpt><trkpt lat="43.72160140766893" lon="10.970318520494716"><ele>25.0</ele><time>2026-04-04T15:55:18.999Z</time></trkpt><trkpt lat="43.72158739345696" lon="10.970181220599086"><ele>25.0</ele><time>2026-04-04T15:55:20.999Z</time></trkpt><trkpt lat="43.72157226215922" lon="10.970045286924135"><ele>25.0</ele><time>2026-04-04T15:55:22.999Z</time></trkpt><trkpt lat="43.72155728037172" lon="10.969906675568975"><ele>25.0</ele><time>2026-04-04T15:55:24.999Z</time></trkpt><trkpt lat="43.721544633459416" lon="10.969773449026357"><ele>25.0</ele><time>2026-04-04T15:55:26.999Z</time></trkpt><trkpt lat="43.72154817418016" lon="10.969638998469526"><ele>25.0</ele><time>2026-04-04T15:55:28.999Z</time></trkpt><trkpt lat="43.72153331493422" lon="10.969503822114318"><ele>25.0</ele><time>2026-04-04T15:55:30.999Z</time></trkpt><trkpt lat="43.72151634421021" lon="10.969368243002405"><ele>25.0</ele><time>2026-04-04T15:55:32.999Z</time></trkpt><trkpt lat="43.72149934615193" lon="10.969233584054797"><ele>25.0</ele><time>2026-04-04T15:55:34.998Z</time></trkpt><trkpt lat="43.72148633463354" lon="10.9691034361871"><ele>25.0</ele><time>2026-04-04T15:55:36.998Z</time></trkpt><trkpt lat="43.72147181644107" lon="10.968971849237034"><ele>25.2</ele><time>2026-04-04T15:55:38.998Z</time></trkpt><trkpt lat="43.72145421145101" lon="10.968839892154302"><ele>25.4</ele><time>2026-04-04T15:55:40.998Z</time></trkpt><trkpt lat="43.7214367931582" lon="10.96870414063043"><ele>25.6</ele><time>2026-04-04T15:55:42.998Z</time></trkpt><trkpt lat="43.72142498334122" lon="10.968565171180137"><ele>25.8</ele><time>2026-04-04T15:55:44.998Z</time></trkpt><trkpt lat="43.72141179656098" lon="10.96842872411922"><ele>26.0</ele><time>2026-04-04T15:55:46.998Z</time></trkpt><trkpt lat="43.721393409164065" lon="10.968287334028453"><ele>26.0</ele><time>2026-04-04T15:55:49Z</time></trkpt><trkpt lat="43.72137602080471" lon="10.968148381935874"><ele>26.0</ele><time>2026-04-04T15:55:51Z</time></trkpt><trkpt lat="43.72136086206086" lon="10.96800459049106"><ele>26.0</ele><time>2026-04-04T15:55:53Z</time></trkpt><trkpt lat="43.72134370910046" lon="10.967867561022464"><ele>26.0</ele><time>2026-04-04T15:55:55Z</time></trkpt><trkpt lat="43.721331737332015" lon="10.967733208450255"><ele>26.0</ele><time>2026-04-04T15:55:57Z</time></trkpt><trkpt lat="43.72131981470274" lon="10.967601220750746"><ele>25.8</ele><time>2026-04-04T15:55:59Z</time></trkpt><trkpt lat="43.7213059750446" lon="10.967473787101191"><ele>25.6</ele><time>2026-04-04T15:56:01Z</time></trkpt><trkpt lat="43.72129232096979" lon="10.967347312441367"><ele>25.4</ele><time>2026-04-04T15:56:03Z</time></trkpt><trkpt lat="43.72127563179001" lon="10.967222625317465"><ele>25.2</ele><time>2026-04-04T15:56:05Z</time></trkpt><trkpt lat="43.72126492356451" lon="10.967096355320733"><ele>25.0</ele><time>2026-04-04T15:56:07Z</time></trkpt><trkpt lat="43.72125463513462" lon="10.966971192424143"><ele>25.000000000000004</ele><time>2026-04-04T15:56:09Z</time></trkpt><trkpt lat="43.72123306466089" lon="10.966847183563317"><ele>25.0</ele><time>2026-04-04T15:56:11Z</time></trkpt><trkpt lat="43.72119785262127" lon="10.966742071263628"><ele>25.0</ele><time>2026-04-04T15:56:13Z</time></trkpt><trkpt lat="43.721163892746695" lon="10.966658455744241"><ele>25.0</ele><time>2026-04-04T15:56:15Z</time></trkpt><trkpt lat="43.72112107585183" lon="10.966540483556672"><ele>25.000000000000004</ele><time>2026-04-04T15:56:18Z</time></trkpt><trkpt lat="43.72114899393472" lon="10.966436874937319"><ele>25.0</ele><time>2026-04-04T15:56:20Z</time></trkpt><trkpt lat="43.721170259670224" lon="10.966337680358548"><ele>25.166666666666668</ele><time>2026-04-04T15:56:22Z</time></trkpt><trkpt lat="43.72116452566161" lon="10.966225349093374"><ele>25.333333333333336</ele><time>2026-04-04T15:56:24Z</time></trkpt><trkpt lat="43.72112716438375" lon="10.966127176185157"><ele>25.5</ele><time>2026-04-04T15:56:26Z</time></trkpt><trkpt lat="43.72110709833147" lon="10.966034974534995"><ele>25.666666666666664</ele><time>2026-04-04T15:56:28Z</time></trkpt><trkpt lat="43.721126221588605" lon="10.965939917286494"><ele>25.833333333333332</ele><time>2026-04-04T15:56:30Z</time></trkpt><trkpt lat="43.72111325120713" lon="10.965816684706267"><ele>26.0</ele><time>2026-04-04T15:56:33Z</time></trkpt><trkpt lat="43.721105178012984" lon="10.96572954983911"><ele>26.166666666666664</ele><time>2026-04-04T15:56:35Z</time></trkpt><trkpt lat="43.72109557876684" lon="10.965628988424458"><ele>26.333333333333332</ele><time>2026-04-04T15:56:36.999Z</time></trkpt><trkpt lat="43.72111145529923" lon="10.965514054715868"><ele>26.5</ele><time>2026-04-04T15:56:38.999Z</time></trkpt><trkpt lat="43.72109277079231" lon="10.965395355624086"><ele>26.666666666666664</ele><time>2026-04-04T15:56:40.999Z</time></trkpt><trkpt lat="43.721077597597215" lon="10.96527637513861"><ele>26.833333333333332</ele><time>2026-04-04T15:56:42.999Z</time></trkpt><trkpt lat="43.72106309767837" lon="10.965150796448894"><ele>27.0</ele><time>2026-04-04T15:56:44.999Z</time></trkpt><trkpt lat="43.721048001169" lon="10.96502573207069"><ele>27.0</ele><time>2026-04-04T15:56:46.999Z</time></trkpt><trkpt lat="43.72103395763203" lon="10.964899044334732"><ele>27.000000000000004</ele><time>2026-04-04T15:56:48.999Z</time></trkpt><trkpt lat="43.721017537853875" lon="10.964768748200944"><ele>27.000000000000004</ele><time>2026-04-04T15:56:50.999Z</time></trkpt><trkpt lat="43.72100025647254" lon="10.964638272757846"><ele>27.0</ele><time>2026-04-04T15:56:52.999Z</time></trkpt><trkpt lat="43.720983276202475" lon="10.964508913002982"><ele>27.0</ele><time>2026-04-04T15:56:54.999Z</time></trkpt><trkpt lat="43.72096780291105" lon="10.964379954979863"><ele>27.0</ele><time>2026-04-04T15:56:56.999Z</time></trkpt><trkpt lat="43.720954430618775" lon="10.964247021692094"><ele>27.000000000000004</ele><time>2026-04-04T15:56:58.999Z</time></trkpt><trkpt lat="43.720935796919484" lon="10.96411371795477"><ele>27.000000000000004</ele><time>2026-04-04T15:57:00.999Z</time></trkpt><trkpt lat="43.72092375922403" lon="10.963979105393268"><ele>27.0</ele><time>2026-04-04T15:57:02.999Z</time></trkpt><trkpt lat="43.72090405257043" lon="10.96383569000113"><ele>27.0</ele><time>2026-04-04T15:57:04.999Z</time></trkpt><trkpt lat="43.720888262885154" lon="10.963704931983536"><ele>26.8</ele><time>2026-04-04T15:57:06.999Z</time></trkpt><trkpt lat="43.72087155258698" lon="10.963573705462277"><ele>26.6</ele><time>2026-04-04T15:57:08.999Z</time></trkpt><trkpt lat="43.72085700405788" lon="10.963440313958976"><ele>26.400000000000002</ele><time>2026-04-04T15:57:10.999Z</time></trkpt><trkpt lat="43.720837707434505" lon="10.96330724612659"><ele>26.200000000000003</ele><time>2026-04-04T15:57:12.999Z</time></trkpt><trkpt lat="43.720825046696724" lon="10.963176967776269"><ele>26.0</ele><time>2026-04-04T15:57:14.999Z</time></trkpt><trkpt lat="43.720816326912264" lon="10.96303980685704"><ele>26.0</ele><time>2026-04-04T15:57:16.999Z</time></trkpt><trkpt lat="43.720809243122744" lon="10.96290444945099"><ele>26.0</ele><time>2026-04-04T15:57:18.999Z</time></trkpt><trkpt lat="43.72080843027993" lon="10.96277297040154"><ele>26.0</ele><time>2026-04-04T15:57:20.999Z</time></trkpt><trkpt lat="43.720814092856564" lon="10.96264766915971"><ele>26.0</ele><time>2026-04-04T15:57:22.999Z</time></trkpt><trkpt lat="43.720819110767415" lon="10.962518454975259"><ele>26.0</ele><time>2026-04-04T15:57:24.999Z</time></trkpt><trkpt lat="43.72082826709266" lon="10.96239240383812"><ele>26.166666666666664</ele><time>2026-04-04T15:57:26.999Z</time></trkpt><trkpt lat="43.72084695163974" lon="10.962273329882851"><ele>26.333333333333332</ele><time>2026-04-04T15:57:28.999Z</time></trkpt><trkpt lat="43.720858455375534" lon="10.962163734422507"><ele>26.5</ele><time>2026-04-04T15:57:30.999Z</time></trkpt><trkpt lat="43.72087630430113" lon="10.962055943948393"><ele>26.666666666666664</ele><time>2026-04-04T15:57:32.999Z</time></trkpt><trkpt lat="43.72088999899525" lon="10.96194514210483"><ele>26.833333333333332</ele><time>2026-04-04T15:57:34.999Z</time></trkpt><trkpt lat="43.720904936352454" lon="10.961844130976614"><ele>27.0</ele><time>2026-04-04T15:57:36.999Z</time></trkpt><trkpt lat="43.720930557424396" lon="10.961745469755039"><ele>27.166666666666668</ele><time>2026-04-04T15:57:38.999Z</time></trkpt><trkpt lat="43.720938844892" lon="10.961643483887585"><ele>27.333333333333336</ele><time>2026-04-04T15:57:40.999Z</time></trkpt><trkpt lat="43.72094390312484" lon="10.961537091053927"><ele>27.5</ele><time>2026-04-04T15:57:42.999Z</time></trkpt><trkpt lat="43.72095451013066" lon="10.96142452142064"><ele>27.666666666666668</ele><time>2026-04-04T15:57:44.998Z</time></trkpt><trkpt lat="43.72096953291527" lon="10.96131195228296"><ele>27.833333333333336</ele><time>2026-04-04T15:57:46.998Z</time></trkpt><trkpt lat="43.72098287896595" lon="10.961200568094233"><ele>28.0</ele><time>2026-04-04T15:57:48.998Z</time></trkpt><trkpt lat="43.720997204781796" lon="10.961092790590488"><ele>28.000000000000004</ele><time>2026-04-04T15:57:50.998Z</time></trkpt><trkpt lat="43.721009977174056" lon="10.960977559346947"><ele>28.0</ele><time>2026-04-04T15:57:52.998Z</time></trkpt><trkpt lat="43.721024766653564" lon="10.960862356191727"><ele>28.0</ele><time>2026-04-04T15:57:55Z</time></trkpt><trkpt lat="43.721038164194965" lon="10.96074678767463"><ele>28.0</ele><time>2026-04-04T15:57:57Z</time></trkpt><trkpt lat="43.72105190490578" lon="10.960634636446686"><ele>28.000000000000004</ele><time>2026-04-04T15:57:59Z</time></trkpt><trkpt lat="43.72106280383669" lon="10.960518688917928"><ele>28.0</ele><time>2026-04-04T15:58:01Z</time></trkpt><trkpt lat="43.7210722888094" lon="10.960393411966859"><ele>28.000000000000004</ele><time>2026-04-04T15:58:03Z</time></trkpt><trkpt lat="43.721072890849044" lon="10.960270529240772"><ele>28.0</ele><time>2026-04-04T15:58:05Z</time></trkpt><trkpt lat="43.72106847191883" lon="10.960149932512088"><ele>28.0</ele><time>2026-04-04T15:58:07Z</time></trkpt><trkpt lat="43.72106403734738" lon="10.960036484436044"><ele>28.0</ele><time>2026-04-04T15:58:09Z</time></trkpt><trkpt lat="43.72105731806336" lon="10.959924456476921"><ele>28.000000000000004</ele><time>2026-04-04T15:58:11Z</time></trkpt><trkpt lat="43.72104461550856" lon="10.959806530551376"><ele>28.0</ele><time>2026-04-04T15:58:13Z</time></trkpt><trkpt lat="43.72103450652946" lon="10.959686128196267"><ele>28.0</ele><time>2026-04-04T15:58:15Z</time></trkpt><trkpt lat="43.721022010877626" lon="10.959554827950209"><ele>27.999999999999996</ele><time>2026-04-04T15:58:17Z</time></trkpt><trkpt lat="43.72100958247244" lon="10.959419596271438"><ele>27.999999999999996</ele><time>2026-04-04T15:58:19Z</time></trkpt><trkpt lat="43.72099502442806" lon="10.959280116311668"><ele>28.0</ele><time>2026-04-04T15:58:21Z</time></trkpt><trkpt lat="43.72098294086513" lon="10.959143032598936"><ele>28.0</ele><time>2026-04-04T15:58:23Z</time></trkpt><trkpt lat="43.72097818610454" lon="10.959001746314653"><ele>28.0</ele><time>2026-04-04T15:58:25Z</time></trkpt><trkpt lat="43.72097916022527" lon="10.958851167296746"><ele>27.999999999999996</ele><time>2026-04-04T15:58:27Z</time></trkpt><trkpt lat="43.72100538665932" lon="10.958731668062502"><ele>27.999999999999996</ele><time>2026-04-04T15:58:29Z</time></trkpt><trkpt lat="43.72103639461849" lon="10.958588718157078"><ele>28.0</ele><time>2026-04-04T15:58:31Z</time></trkpt><trkpt lat="43.721087209838544" lon="10.958453550836188"><ele>28.0</ele><time>2026-04-04T15:58:33Z</time></trkpt><trkpt lat="43.72114734283173" lon="10.958319802757865"><ele>28.25</ele><time>2026-04-04T15:58:35Z</time></trkpt><trkpt lat="43.72121614398853" lon="10.958195649861235"><ele>28.5</ele><time>2026-04-04T15:58:37Z</time></trkpt><trkpt lat="43.721302792527965" lon="10.95809389897902"><ele>28.75</ele><time>2026-04-04T15:58:39Z</time></trkpt><trkpt lat="43.72139937478497" lon="10.958004265212548"><ele>29.0</ele><time>2026-04-04T15:58:40.999Z</time></trkpt><trkpt lat="43.721499580066606" lon="10.957925916150627"><ele>29.0</ele><time>2026-04-04T15:58:42.999Z</time></trkpt><trkpt lat="43.72160823770653" lon="10.957875508047549"><ele>29.0</ele><time>2026-04-04T15:58:44.999Z</time></trkpt><trkpt lat="43.72172230271634" lon="10.95783477799745"><ele>29.0</ele><time>2026-04-04T15:58:46.999Z</time></trkpt><trkpt lat="43.721836425534235" lon="10.957803514113886"><ele>29.0</ele><time>2026-04-04T15:58:48.999Z</time></trkpt><trkpt lat="43.721948442635814" lon="10.957769949999284"><ele>29.0</ele><time>2026-04-04T15:58:50.999Z</time></trkpt><trkpt lat="43.722057083642085" lon="10.957728675970126"><ele>29.0</ele><time>2026-04-04T15:58:52.999Z</time></trkpt><trkpt lat="43.72216942196772" lon="10.957691919139256"><ele>29.0</ele><time>2026-04-04T15:58:54.999Z</time></trkpt><trkpt lat="43.72227366625928" lon="10.95764366134422"><ele>29.0</ele><time>2026-04-04T15:58:56.999Z</time></trkpt><trkpt lat="43.72237985801027" lon="10.957606989614343"><ele>29.0</ele><time>2026-04-04T15:58:58.999Z</time></trkpt><trkpt lat="43.72248823809119" lon="10.957570056117977"><ele>28.799999999999997</ele><time>2026-04-04T15:59:00.999Z</time></trkpt><trkpt lat="43.72259822491379" lon="10.95753339652628"><ele>28.599999999999998</ele><time>2026-04-04T15:59:02.999Z</time></trkpt><trkpt lat="43.72271477789116" lon="10.957494110841155"><ele>28.4</ele><time>2026-04-04T15:59:04.999Z</time></trkpt><trkpt lat="43.722810535994284" lon="10.957457029817169"><ele>28.2</ele><time>2026-04-04T15:59:06.999Z</time></trkpt><trkpt lat="43.72291882116115" lon="10.957430762064742"><ele>28.0</ele><time>2026-04-04T15:59:08.999Z</time></trkpt><trkpt lat="43.72302026826892" lon="10.957389296331476"><ele>28.0</ele><time>2026-04-04T15:59:10.999Z</time></trkpt><trkpt lat="43.723120047204304" lon="10.957351424884044"><ele>27.999999999999996</ele><time>2026-04-04T15:59:12.999Z</time></trkpt><trkpt lat="43.72322196332323" lon="10.957325657992882"><ele>27.999999999999996</ele><time>2026-04-04T15:59:14.999Z</time></trkpt><trkpt lat="43.723320030417916" lon="10.957293891795006"><ele>28.0</ele><time>2026-04-04T15:59:16.999Z</time></trkpt><trkpt lat="43.72341705799107" lon="10.957253090090628"><ele>28.0</ele><time>2026-04-04T15:59:18.999Z</time></trkpt><trkpt lat="43.723521444500506" lon="10.957225692012113"><ele>27.799999999999997</ele><time>2026-04-04T15:59:20.999Z</time></trkpt><trkpt lat="43.723616943214374" lon="10.957194907241771"><ele>27.599999999999998</ele><time>2026-04-04T15:59:22.999Z</time></trkpt><trkpt lat="43.723705845854916" lon="10.957156548604631"><ele>27.400000000000002</ele><time>2026-04-04T15:59:24.999Z</time></trkpt><trkpt lat="43.72380388253711" lon="10.957120047604867"><ele>27.200000000000003</ele><time>2026-04-04T15:59:26.999Z</time></trkpt><trkpt lat="43.72389372755636" lon="10.957074914371644"><ele>27.0</ele><time>2026-04-04T15:59:28.999Z</time></trkpt><trkpt lat="43.723979163776164" lon="10.957019547736977"><ele>27.0</ele><time>2026-04-04T15:59:30.999Z</time></trkpt><trkpt lat="43.72406287957503" lon="10.956952076063782"><ele>27.000000000000004</ele><time>2026-04-04T15:59:32.999Z</time></trkpt><trkpt lat="43.724142871191056" lon="10.956884098029942"><ele>27.000000000000004</ele><time>2026-04-04T15:59:34.999Z</time></trkpt><trkpt lat="43.72421989729235" lon="10.95680620347579"><ele>27.0</ele><time>2026-04-04T15:59:36.999Z</time></trkpt><trkpt lat="43.72428802348749" lon="10.956706357900368"><ele>27.0</ele><time>2026-04-04T15:59:38.999Z</time></trkpt><trkpt lat="43.724358797428856" lon="10.956608671398271"><ele>27.200000000000003</ele><time>2026-04-04T15:59:40.999Z</time></trkpt><trkpt lat="43.724417950785046" lon="10.95649679668734"><ele>27.400000000000002</ele><time>2026-04-04T15:59:42.999Z</time></trkpt><trkpt lat="43.72448372325046" lon="10.956399894620619"><ele>27.599999999999998</ele><time>2026-04-04T15:59:44.999Z</time></trkpt><trkpt lat="43.72456018468524" lon="10.956244336550336"><ele>27.799999999999997</ele><time>2026-04-04T15:59:47.999Z</time></trkpt><trkpt lat="43.72459932998133" lon="10.956131809536423"><ele>28.0</ele><time>2026-04-04T15:59:49.998Z</time></trkpt><trkpt lat="43.7246352408345" lon="10.956022823496529"><ele>28.0</ele><time>2026-04-04T15:59:51.998Z</time></trkpt><trkpt lat="43.724663222129706" lon="10.955906131921415"><ele>27.999999999999996</ele><time>2026-04-04T15:59:53.998Z</time></trkpt><trkpt lat="43.72467785512859" lon="10.955785121767"><ele>27.999999999999996</ele><time>2026-04-04T15:59:55.998Z</time></trkpt><trkpt lat="43.72469140833946" lon="10.955663875459964"><ele>28.0</ele><time>2026-04-04T15:59:57.998Z</time></trkpt><trkpt lat="43.72468429191901" lon="10.955537263573962"><ele>28.0</ele><time>2026-04-04T16:00:00Z</time></trkpt><trkpt lat="43.72467425645115" lon="10.955411071578522"><ele>27.799999999999997</ele><time>2026-04-04T16:00:02Z</time></trkpt><trkpt lat="43.72465528801902" lon="10.95528648193722"><ele>27.599999999999998</ele><time>2026-04-04T16:00:04Z</time></trkpt><trkpt lat="43.724631925137004" lon="10.955163076625727"><ele>27.400000000000002</ele><time>2026-04-04T16:00:06Z</time></trkpt><trkpt lat="43.724595571023755" lon="10.955046672113593"><ele>27.200000000000003</ele><time>2026-04-04T16:00:08Z</time></trkpt><trkpt lat="43.724552589483594" lon="10.954937294712442"><ele>27.0</ele><time>2026-04-04T16:00:10Z</time></trkpt><trkpt lat="43.72450823660638" lon="10.954828145562704"><ele>27.0</ele><time>2026-04-04T16:00:12Z</time></trkpt><trkpt lat="43.724461646246915" lon="10.95472381640185"><ele>27.000000000000004</ele><time>2026-04-04T16:00:14Z</time></trkpt><trkpt lat="43.724414318642964" lon="10.95461298837923"><ele>27.000000000000004</ele><time>2026-04-04T16:00:16Z</time></trkpt><trkpt lat="43.72436522337372" lon="10.954508455731801"><ele>27.0</ele><time>2026-04-04T16:00:18Z</time></trkpt><trkpt lat="43.72431555730463" lon="10.95439881803177"><ele>27.0</ele><time>2026-04-04T16:00:20Z</time></trkpt><trkpt lat="43.72426904485673" lon="10.954285690716048"><ele>27.0</ele><time>2026-04-04T16:00:22Z</time></trkpt><trkpt lat="43.72422374535268" lon="10.954171691454148"><ele>27.000000000000004</ele><time>2026-04-04T16:00:24Z</time></trkpt><trkpt lat="43.724175597885136" lon="10.954058419750153"><ele>27.000000000000004</ele><time>2026-04-04T16:00:26Z</time></trkpt><trkpt lat="43.72412297120682" lon="10.953948161049476"><ele>27.0</ele><time>2026-04-04T16:00:28Z</time></trkpt><trkpt lat="43.72407837236884" lon="10.953831195801847"><ele>27.0</ele><time>2026-04-04T16:00:30Z</time></trkpt><trkpt lat="43.72402882619386" lon="10.953715359397366"><ele>27.0</ele><time>2026-04-04T16:00:32Z</time></trkpt><trkpt lat="43.723978564917914" lon="10.95359628473161"><ele>27.000000000000004</ele><time>2026-04-04T16:00:34Z</time></trkpt><trkpt lat="43.72393262504042" lon="10.953470675813032"><ele>27.000000000000004</ele><time>2026-04-04T16:00:36Z</time></trkpt><trkpt lat="43.7239013418575" lon="10.953335648994443"><ele>27.0</ele><time>2026-04-04T16:00:37.999Z</time></trkpt><trkpt lat="43.72387333856583" lon="10.953202095708495"><ele>27.0</ele><time>2026-04-04T16:00:39.999Z</time></trkpt><trkpt lat="43.723855640306226" lon="10.95307086630389"><ele>26.8</ele><time>2026-04-04T16:00:41.999Z</time></trkpt><trkpt lat="43.723847425982555" lon="10.952946564031805"><ele>26.6</ele><time>2026-04-04T16:00:43.999Z</time></trkpt><trkpt lat="43.72384471042326" lon="10.952826623541245"><ele>26.400000000000002</ele><time>2026-04-04T16:00:45.999Z</time></trkpt><trkpt lat="43.723851516455184" lon="10.952704104594728"><ele>26.200000000000003</ele><time>2026-04-04T16:00:47.999Z</time></trkpt><trkpt lat="43.72386884150863" lon="10.952577861681451"><ele>26.0</ele><time>2026-04-04T16:00:49.999Z</time></trkpt><trkpt lat="43.72388824617015" lon="10.952453504575953"><ele>25.999999999999996</ele><time>2026-04-04T16:00:51.999Z</time></trkpt><trkpt lat="43.72391287854503" lon="10.952331461700496"><ele>26.0</ele><time>2026-04-04T16:00:53.999Z</time></trkpt><trkpt lat="43.7239420437624" lon="10.952222872776431"><ele>26.0</ele><time>2026-04-04T16:00:55.999Z</time></trkpt><trkpt lat="43.72396645650141" lon="10.952105952785388"><ele>26.0</ele><time>2026-04-04T16:00:57.999Z</time></trkpt><trkpt lat="43.723996799604855" lon="10.951995297195175"><ele>25.999999999999996</ele><time>2026-04-04T16:00:59.999Z</time></trkpt><trkpt lat="43.72403270479436" lon="10.951874681385302"><ele>26.0</ele><time>2026-04-04T16:01:01.999Z</time></trkpt><trkpt lat="43.72406052105546" lon="10.95175319356872"><ele>26.200000000000003</ele><time>2026-04-04T16:01:03.999Z</time></trkpt><trkpt lat="43.7241025272435" lon="10.951645064680228"><ele>26.400000000000002</ele><time>2026-04-04T16:01:05.999Z</time></trkpt><trkpt lat="43.724154395204536" lon="10.951534197227117"><ele>26.6</ele><time>2026-04-04T16:01:07.999Z</time></trkpt><trkpt lat="43.72420344843148" lon="10.951431972472568"><ele>26.8</ele><time>2026-04-04T16:01:09.999Z</time></trkpt><trkpt lat="43.72421210840695" lon="10.951319671862253"><ele>27.0</ele><time>2026-04-04T16:01:11.999Z</time></trkpt><trkpt lat="43.72421070307106" lon="10.951175991916855"><ele>27.0</ele><time>2026-04-04T16:01:13.999Z</time></trkpt><trkpt lat="43.72423392580923" lon="10.951058417718807"><ele>27.0</ele><time>2026-04-04T16:01:15.999Z</time></trkpt><trkpt lat="43.7242645040381" lon="10.950940368042696"><ele>27.0</ele><time>2026-04-04T16:01:17.999Z</time></trkpt><trkpt lat="43.72429250736238" lon="10.950827644849426"><ele>27.0</ele><time>2026-04-04T16:01:19.999Z</time></trkpt><trkpt lat="43.7243248464652" lon="10.95071914622573"><ele>27.0</ele><time>2026-04-04T16:01:21.999Z</time></trkpt><trkpt lat="43.724352218591235" lon="10.950609489177062"><ele>27.0</ele><time>2026-04-04T16:01:23.999Z</time></trkpt><trkpt lat="43.724385920636465" lon="10.950503306579899"><ele>27.333333333333332</ele><time>2026-04-04T16:01:25.999Z</time></trkpt><trkpt lat="43.72441716423978" lon="10.950385390705982"><ele>27.666666666666664</ele><time>2026-04-04T16:01:27.999Z</time></trkpt><trkpt lat="43.72444545889873" lon="10.950273278480694"><ele>28.0</ele><time>2026-04-04T16:01:29.999Z</time></trkpt><trkpt lat="43.724475006373645" lon="10.95015896862721"><ele>28.333333333333332</ele><time>2026-04-04T16:01:31.999Z</time></trkpt><trkpt lat="43.72450325496775" lon="10.950043053688972"><ele>28.666666666666664</ele><time>2026-04-04T16:01:33.999Z</time></trkpt><trkpt lat="43.7245377458891" lon="10.949941426332506"><ele>29.0</ele><time>2026-04-04T16:01:35.999Z</time></trkpt><trkpt lat="43.724570341295816" lon="10.94983884991288"><ele>28.999999999999996</ele><time>2026-04-04T16:01:37.999Z</time></trkpt><trkpt lat="43.72460868124948" lon="10.949739157772227"><ele>29.0</ele><time>2026-04-04T16:01:39.999Z</time></trkpt><trkpt lat="43.724641202055224" lon="10.949632285975952"><ele>29.0</ele><time>2026-04-04T16:01:41.999Z</time></trkpt><trkpt lat="43.72466705102179" lon="10.949521739403966"><ele>29.0</ele><time>2026-04-04T16:01:43.999Z</time></trkpt><trkpt lat="43.72469462479657" lon="10.949420139422404"><ele>28.999999999999996</ele><time>2026-04-04T16:01:45.999Z</time></trkpt><trkpt lat="43.72471689985711" lon="10.949316019843161"><ele>29.0</ele><time>2026-04-04T16:01:47.999Z</time></trkpt><trkpt lat="43.72472890810337" lon="10.949209934783525"><ele>28.666666666666664</ele><time>2026-04-04T16:01:49.998Z</time></trkpt><trkpt lat="43.724734091717586" lon="10.94910548353683"><ele>28.333333333333332</ele><time>2026-04-04T16:01:51.998Z</time></trkpt><trkpt lat="43.72473906591323" lon="10.948999063543623"><ele>28.0</ele><time>2026-04-04T16:01:53.998Z</time></trkpt><trkpt lat="43.72473570767543" lon="10.94889581021783"><ele>27.666666666666664</ele><time>2026-04-04T16:01:55.998Z</time></trkpt><trkpt lat="43.7247252999611" lon="10.948787473469697"><ele>27.333333333333332</ele><time>2026-04-04T16:01:57.998Z</time></trkpt><trkpt lat="43.724710748309676" lon="10.948681389387684"><ele>27.0</ele><time>2026-04-04T16:01:59.998Z</time></trkpt><trkpt lat="43.72469424198053" lon="10.948576987275752"><ele>27.0</ele><time>2026-04-04T16:02:01.998Z</time></trkpt><trkpt lat="43.72467009485662" lon="10.948469307884102"><ele>27.0</ele><time>2026-04-04T16:02:03.998Z</time></trkpt><trkpt lat="43.72463899174794" lon="10.94836227447328"><ele>27.0</ele><time>2026-04-04T16:02:06Z</time></trkpt><trkpt lat="43.72460545274117" lon="10.948254049052988"><ele>27.0</ele><time>2026-04-04T16:02:08Z</time></trkpt><trkpt lat="43.72456861338825" lon="10.948160587449605"><ele>27.0</ele><time>2026-04-04T16:02:10Z</time></trkpt><trkpt lat="43.72452493507951" lon="10.948060773173152"><ele>27.0</ele><time>2026-04-04T16:02:12Z</time></trkpt><trkpt lat="43.72447910616286" lon="10.947964052040952"><ele>26.833333333333332</ele><time>2026-04-04T16:02:14Z</time></trkpt><trkpt lat="43.72443511565143" lon="10.947871474706913"><ele>26.666666666666664</ele><time>2026-04-04T16:02:16Z</time></trkpt><trkpt lat="43.7243902965352" lon="10.947782992088896"><ele>26.5</ele><time>2026-04-04T16:02:18Z</time></trkpt><trkpt lat="43.72434646022885" lon="10.947692835409168"><ele>26.333333333333332</ele><time>2026-04-04T16:02:20Z</time></trkpt><trkpt lat="43.72429849934934" lon="10.947600359869238"><ele>26.166666666666664</ele><time>2026-04-04T16:02:22Z</time></trkpt><trkpt lat="43.72425771862273" lon="10.94750888993617"><ele>26.0</ele><time>2026-04-04T16:02:24Z</time></trkpt><trkpt lat="43.72421593257352" lon="10.94742053765508"><ele>26.0</ele><time>2026-04-04T16:02:26Z</time></trkpt><trkpt lat="43.72417092228066" lon="10.947333417922307"><ele>26.0</ele><time>2026-04-04T16:02:28Z</time></trkpt><trkpt lat="43.724132372651674" lon="10.947246580693266"><ele>26.0</ele><time>2026-04-04T16:02:30Z</time></trkpt><trkpt lat="43.724093019368794" lon="10.947166253543205"><ele>26.0</ele><time>2026-04-04T16:02:32Z</time></trkpt><trkpt lat="43.72405534439393" lon="10.947087972563377"><ele>26.0</ele><time>2026-04-04T16:02:34Z</time></trkpt><trkpt lat="43.72401723850988" lon="10.947017782927661"><ele>26.0</ele><time>2026-04-04T16:02:36Z</time></trkpt><trkpt lat="43.72396342830588" lon="10.946941127111046"><ele>26.0</ele><time>2026-04-04T16:02:39Z</time></trkpt><trkpt lat="43.72389994848965" lon="10.946863319022409"><ele>25.999999999999996</ele><time>2026-04-04T16:02:42Z</time></trkpt><trkpt lat="43.72385052037741" lon="10.946794133421859"><ele>26.0</ele><time>2026-04-04T16:02:47Z</time></trkpt><trkpt lat="43.72381945215811" lon="10.946686346203988"><ele>26.0</ele><time>2026-04-04T16:02:50Z</time></trkpt><trkpt lat="43.72379825671634" lon="10.946568694347267"><ele>26.0</ele><time>2026-04-04T16:02:52Z</time></trkpt><trkpt lat="43.72375722387111" lon="10.946463694341618"><ele>25.999999999999996</ele><time>2026-04-04T16:02:54Z</time></trkpt><trkpt lat="43.723685126405854" lon="10.946383403744107"><ele>26.0</ele><time>2026-04-04T16:02:56Z</time></trkpt><trkpt lat="43.723653927529114" lon="10.94624732353742"><ele>26.499999999999996</ele><time>2026-04-04T16:02:58Z</time></trkpt><trkpt lat="43.72360281965012" lon="10.946153682353355"><ele>27.0</ele><time>2026-04-04T16:02:59.999Z</time></trkpt><trkpt lat="43.72354995829249" lon="10.94606374361284"><ele>27.5</ele><time>2026-04-04T16:03:01.999Z</time></trkpt><trkpt lat="43.72351409074019" lon="10.945989444047097"><ele>28.0</ele><time>2026-04-04T16:03:05.999Z</time></trkpt><trkpt lat="43.72347213020101" lon="10.945914721835521"><ele>28.499999999999996</ele><time>2026-04-04T16:03:08.999Z</time></trkpt><trkpt lat="43.723419077766714" lon="10.945819372001093"><ele>29.0</ele><time>2026-04-04T16:03:10.999Z</time></trkpt><trkpt lat="43.72335511786886" lon="10.94572505415119"><ele>29.0</ele><time>2026-04-04T16:03:12.999Z</time></trkpt><trkpt lat="43.72329738375325" lon="10.945612518938086"><ele>29.0</ele><time>2026-04-04T16:03:14.999Z</time></trkpt><trkpt lat="43.72323221085832" lon="10.945505911118683"><ele>29.0</ele><time>2026-04-04T16:03:16.999Z</time></trkpt><trkpt lat="43.723173050192834" lon="10.945390590177874"><ele>29.0</ele><time>2026-04-04T16:03:18.999Z</time></trkpt><trkpt lat="43.723105129761954" lon="10.945270820934638"><ele>29.0</ele><time>2026-04-04T16:03:20.999Z</time></trkpt><trkpt lat="43.72304627493149" lon="10.945137796270313"><ele>28.4</ele><time>2026-04-04T16:03:22.999Z</time></trkpt><trkpt lat="43.72297980317006" lon="10.945015222635876"><ele>27.799999999999997</ele><time>2026-04-04T16:03:24.999Z</time></trkpt><trkpt lat="43.72291207590137" lon="10.944900559866285"><ele>27.200000000000003</ele><time>2026-04-04T16:03:26.999Z</time></trkpt><trkpt lat="43.722842737354085" lon="10.94478309028185"><ele>26.6</ele><time>2026-04-04T16:03:28.999Z</time></trkpt><trkpt lat="43.722779608437264" lon="10.944665416324353"><ele>26.0</ele><time>2026-04-04T16:03:30.999Z</time></trkpt><trkpt lat="43.7227194207235" lon="10.94454822014009"><ele>26.6</ele><time>2026-04-04T16:03:32.999Z</time></trkpt><trkpt lat="43.7226700892275" lon="10.94442372688974"><ele>27.200000000000003</ele><time>2026-04-04T16:03:34.999Z</time></trkpt><trkpt lat="43.72264237144009" lon="10.944323065657906"><ele>27.799999999999997</ele><time>2026-04-04T16:03:36.999Z</time></trkpt><trkpt lat="43.7225890766295" lon="10.94419831752705"><ele>28.4</ele><time>2026-04-04T16:03:38.999Z</time></trkpt><trkpt lat="43.72255204556874" lon="10.94408956937821"><ele>29.0</ele><time>2026-04-04T16:03:40.999Z</time></trkpt><trkpt lat="43.722517512609116" lon="10.943961927180577"><ele>28.999999999999996</ele><time>2026-04-04T16:03:42.999Z</time></trkpt><trkpt lat="43.72246153389979" lon="10.9438458197014"><ele>29.0</ele><time>2026-04-04T16:03:44.999Z</time></trkpt><trkpt lat="43.72243999528763" lon="10.943733172648868"><ele>29.0</ele><time>2026-04-04T16:03:46.999Z</time></trkpt><trkpt lat="43.722405166313415" lon="10.943629917277008"><ele>29.0</ele><time>2026-04-04T16:03:48.999Z</time></trkpt><trkpt lat="43.72237243171599" lon="10.94351776885924"><ele>28.999999999999996</ele><time>2026-04-04T16:03:50.999Z</time></trkpt><trkpt lat="43.72234338809507" lon="10.943420168215798"><ele>29.0</ele><time>2026-04-04T16:03:52.999Z</time></trkpt><trkpt lat="43.722320616018635" lon="10.943331707712634"><ele>28.333333333333332</ele><time>2026-04-04T16:03:54.999Z</time></trkpt><trkpt lat="43.722295487351566" lon="10.943234343846662"><ele>27.666666666666664</ele><time>2026-04-04T16:03:56.999Z</time></trkpt><trkpt lat="43.722272726433985" lon="10.943124328471482"><ele>27.0</ele><time>2026-04-04T16:03:58.999Z</time></trkpt><trkpt lat="43.72224764544404" lon="10.942997222844339"><ele>26.333333333333336</ele><time>2026-04-04T16:04:00.999Z</time></trkpt><trkpt lat="43.72223519209978" lon="10.942879547385706"><ele>25.666666666666668</ele><time>2026-04-04T16:04:02.999Z</time></trkpt><trkpt lat="43.72220021847692" lon="10.942790039833195"><ele>25.0</ele><time>2026-04-04T16:04:04.999Z</time></trkpt><trkpt lat="43.722168791073656" lon="10.942681307841886"><ele>25.000000000000004</ele><time>2026-04-04T16:04:06.999Z</time></trkpt><trkpt lat="43.72211557633088" lon="10.942602371802732"><ele>25.0</ele><time>2026-04-04T16:04:08.999Z</time></trkpt><trkpt lat="43.722092217405596" lon="10.94248920930836"><ele>25.0</ele><time>2026-04-04T16:04:11Z</time></trkpt><trkpt lat="43.722069889917435" lon="10.942377643710945"><ele>25.0</ele><time>2026-04-04T16:04:13Z</time></trkpt><trkpt lat="43.72203045616877" lon="10.942268954504911"><ele>25.000000000000004</ele><time>2026-04-04T16:04:15Z</time></trkpt><trkpt lat="43.72200973596716" lon="10.94216046238048"><ele>25.0</ele><time>2026-04-04T16:04:17Z</time></trkpt><trkpt lat="43.72198573585731" lon="10.942049555687998"><ele>25.166666666666668</ele><time>2026-04-04T16:04:19Z</time></trkpt><trkpt lat="43.721960701627" lon="10.941931419335846"><ele>25.333333333333336</ele><time>2026-04-04T16:04:21Z</time></trkpt><trkpt lat="43.72194201120538" lon="10.941821765699062"><ele>25.5</ele><time>2026-04-04T16:04:23Z</time></trkpt><trkpt lat="43.721913707945475" lon="10.941711620134022"><ele>25.666666666666664</ele><time>2026-04-04T16:04:25Z</time></trkpt><trkpt lat="43.721892591817365" lon="10.941602680724134"><ele>25.833333333333332</ele><time>2026-04-04T16:04:27Z</time></trkpt><trkpt lat="43.72186349541529" lon="10.94148588305384"><ele>26.0</ele><time>2026-04-04T16:04:29Z</time></trkpt><trkpt lat="43.721842032780465" lon="10.94136839624147"><ele>25.999999999999996</ele><time>2026-04-04T16:04:31Z</time></trkpt><trkpt lat="43.721821036845114" lon="10.941252037190303"><ele>26.0</ele><time>2026-04-04T16:04:33Z</time></trkpt><trkpt lat="43.72179614573521" lon="10.941145353497777"><ele>26.0</ele><time>2026-04-04T16:04:35Z</time></trkpt><trkpt lat="43.72177803996669" lon="10.941026900840857"><ele>26.0</ele><time>2026-04-04T16:04:37Z</time></trkpt><trkpt lat="43.72175407889723" lon="10.940906592058202"><ele>25.999999999999996</ele><time>2026-04-04T16:04:39Z</time></trkpt><trkpt lat="43.72172969137986" lon="10.94079379277547"><ele>26.0</ele><time>2026-04-04T16:04:41Z</time></trkpt><trkpt lat="43.721705512565926" lon="10.940674412724553"><ele>25.833333333333332</ele><time>2026-04-04T16:04:43Z</time></trkpt><trkpt lat="43.72169748185288" lon="10.94054911544454"><ele>25.666666666666664</ele><time>2026-04-04T16:04:45Z</time></trkpt><trkpt lat="43.72168408627613" lon="10.940428634448137"><ele>25.5</ele><time>2026-04-04T16:04:47Z</time></trkpt><trkpt lat="43.72168844200004" lon="10.940308759242454"><ele>25.333333333333336</ele><time>2026-04-04T16:04:49Z</time></trkpt><trkpt lat="43.72169482013136" lon="10.94019193198729"><ele>25.166666666666668</ele><time>2026-04-04T16:04:51Z</time></trkpt><trkpt lat="43.7217146722519" lon="10.940080385612502"><ele>25.0</ele><time>2026-04-04T16:04:53Z</time></trkpt><trkpt lat="43.721730469186866" lon="10.939976258903421"><ele>25.000000000000004</ele><time>2026-04-04T16:04:55Z</time></trkpt><trkpt lat="43.72175343150092" lon="10.939869656607852"><ele>25.0</ele><time>2026-04-04T16:04:57Z</time></trkpt><trkpt lat="43.721780033882865" lon="10.939764765943343"><ele>25.0</ele><time>2026-04-04T16:04:59Z</time></trkpt><trkpt lat="43.721805399712416" lon="10.93966563890766"><ele>25.0</ele><time>2026-04-04T16:05:01Z</time></trkpt><trkpt lat="43.721829445878726" lon="10.939574517188886"><ele>25.0</ele><time>2026-04-04T16:05:03Z</time></trkpt><trkpt lat="43.721851402478364" lon="10.939479688586122"><ele>25.000000000000004</ele><time>2026-04-04T16:05:05Z</time></trkpt><trkpt lat="43.72187391932236" lon="10.939389811656325"><ele>25.0</ele><time>2026-04-04T16:05:07Z</time></trkpt><trkpt lat="43.72190122294908" lon="10.939284715396187"><ele>24.166666666666668</ele><time>2026-04-04T16:05:09Z</time></trkpt><trkpt lat="43.72193602758719" lon="10.939184965576121"><ele>23.333333333333336</ele><time>2026-04-04T16:05:11Z</time></trkpt><trkpt lat="43.72198231511163" lon="10.939090404140133"><ele>22.5</ele><time>2026-04-04T16:05:12.999Z</time></trkpt><trkpt lat="43.72202303869174" lon="10.938994873067937"><ele>21.666666666666668</ele><time>2026-04-04T16:05:14.999Z</time></trkpt><trkpt lat="43.722065081118956" lon="10.938899744850827"><ele>20.833333333333336</ele><time>2026-04-04T16:05:16.999Z</time></trkpt><trkpt lat="43.72210967475712" lon="10.938808924818476"><ele>20.0</ele><time>2026-04-04T16:05:18.999Z</time></trkpt><trkpt lat="43.722151800337656" lon="10.938713212703329"><ele>20.0</ele><time>2026-04-04T16:05:20.999Z</time></trkpt><trkpt lat="43.72219736734946" lon="10.938611648402137"><ele>20.0</ele><time>2026-04-04T16:05:22.999Z</time></trkpt><trkpt lat="43.72225169904286" lon="10.93851408509876"><ele>20.0</ele><time>2026-04-04T16:05:24.999Z</time></trkpt><trkpt lat="43.722309937833195" lon="10.938419185002681"><ele>20.0</ele><time>2026-04-04T16:05:26.999Z</time></trkpt><trkpt lat="43.72236051515596" lon="10.938316339175012"><ele>20.0</ele><time>2026-04-04T16:05:28.999Z</time></trkpt><trkpt lat="43.722404787374685" lon="10.938206211162624"><ele>20.0</ele><time>2026-04-04T16:05:30.999Z</time></trkpt><trkpt lat="43.72244509963279" lon="10.938091256220673"><ele>20.5</ele><time>2026-04-04T16:05:32.999Z</time></trkpt><trkpt lat="43.72248128221282" lon="10.937969528964128"><ele>21.0</ele><time>2026-04-04T16:05:34.999Z</time></trkpt><trkpt lat="43.7225035090761" lon="10.937845630596133"><ele>21.5</ele><time>2026-04-04T16:05:36.999Z</time></trkpt><trkpt lat="43.722513854710364" lon="10.937724340671467"><ele>22.0</ele><time>2026-04-04T16:05:38.999Z</time></trkpt><trkpt lat="43.72253641545405" lon="10.93760530495846"><ele>22.5</ele><time>2026-04-04T16:05:40.999Z</time></trkpt><trkpt lat="43.72255176716733" lon="10.937511857859427"><ele>23.0</ele><time>2026-04-04T16:05:42.999Z</time></trkpt><trkpt lat="43.72257881126369" lon="10.937402808084547"><ele>23.166666666666668</ele><time>2026-04-04T16:06:15.999Z</time></trkpt><trkpt lat="43.722581225071714" lon="10.937298202009169"><ele>23.333333333333336</ele><time>2026-04-04T16:06:19Z</time></trkpt><trkpt lat="43.72259699436501" lon="10.9371713798411"><ele>23.5</ele><time>2026-04-04T16:06:22Z</time></trkpt><trkpt lat="43.72262653079712" lon="10.937072496691192"><ele>23.666666666666668</ele><time>2026-04-04T16:06:24Z</time></trkpt><trkpt lat="43.72263940504698" lon="10.936975312251484"><ele>23.833333333333332</ele><time>2026-04-04T16:06:26Z</time></trkpt><trkpt lat="43.72265580557997" lon="10.936863764092207"><ele>24.0</ele><time>2026-04-04T16:06:28Z</time></trkpt><trkpt lat="43.72267367771144" lon="10.936748263876234"><ele>23.666666666666668</ele><time>2026-04-04T16:06:30Z</time></trkpt><trkpt lat="43.7226770183626" lon="10.93662295135746"><ele>23.333333333333332</ele><time>2026-04-04T16:06:32Z</time></trkpt><trkpt lat="43.72269964959119" lon="10.936506376275362"><ele>23.0</ele><time>2026-04-04T16:06:34Z</time></trkpt><trkpt lat="43.72272042074567" lon="10.936387522824592"><ele>22.666666666666664</ele><time>2026-04-04T16:06:36Z</time></trkpt><trkpt lat="43.72274277171534" lon="10.936270269244433"><ele>22.333333333333332</ele><time>2026-04-04T16:06:38Z</time></trkpt><trkpt lat="43.722768477203296" lon="10.936146939235908"><ele>22.0</ele><time>2026-04-04T16:06:40Z</time></trkpt><trkpt lat="43.72279900569203" lon="10.936037843359639"><ele>21.333333333333332</ele><time>2026-04-04T16:06:42Z</time></trkpt><trkpt lat="43.72282534596286" lon="10.935932769793915"><ele>20.666666666666664</ele><time>2026-04-04T16:06:44Z</time></trkpt><trkpt lat="43.72284961083157" lon="10.93584083685634"><ele>20.0</ele><time>2026-04-04T16:06:46Z</time></trkpt><trkpt lat="43.72285553669044" lon="10.935730651740823"><ele>19.333333333333332</ele><time>2026-04-04T16:06:48Z</time></trkpt><trkpt lat="43.72287798071928" lon="10.93562177385096"><ele>18.666666666666668</ele><time>2026-04-04T16:06:50Z</time></trkpt><trkpt lat="43.722886201053484" lon="10.935525536312408"><ele>18.0</ele><time>2026-04-04T16:06:52Z</time></trkpt><trkpt lat="43.72290324305018" lon="10.935433840108598"><ele>17.6</ele><time>2026-04-04T16:06:55Z</time></trkpt><trkpt lat="43.722925909671" lon="10.935329658840764"><ele>17.200000000000003</ele><time>2026-04-04T16:06:57Z</time></trkpt><trkpt lat="43.7229528599312" lon="10.935201387518411"><ele>16.8</ele><time>2026-04-04T16:06:59Z</time></trkpt><trkpt lat="43.72298600671401" lon="10.935053818359378"><ele>16.400000000000002</ele><time>2026-04-04T16:07:01Z</time></trkpt><trkpt lat="43.72301815430176" lon="10.934923842233673"><ele>16.0</ele><time>2026-04-04T16:07:03Z</time></trkpt><trkpt lat="43.723053489786636" lon="10.934790288041956"><ele>16.8</ele><time>2026-04-04T16:07:05Z</time></trkpt><trkpt lat="43.723086608181035" lon="10.934673599478359"><ele>17.6</ele><time>2026-04-04T16:07:07Z</time></trkpt><trkpt lat="43.72312507152333" lon="10.93454748650253"><ele>18.4</ele><time>2026-04-04T16:07:09Z</time></trkpt><trkpt lat="43.723163701193315" lon="10.934431278033033"><ele>19.2</ele><time>2026-04-04T16:07:10.999Z</time></trkpt><trkpt lat="43.72320399602117" lon="10.934317849140161"><ele>20.0</ele><time>2026-04-04T16:07:12.999Z</time></trkpt><trkpt lat="43.72324740936588" lon="10.934207979868669"><ele>20.666666666666668</ele><time>2026-04-04T16:07:14.999Z</time></trkpt><trkpt lat="43.7232944461291" lon="10.934102742617606"><ele>21.333333333333336</ele><time>2026-04-04T16:07:16.999Z</time></trkpt><trkpt lat="43.72334463479502" lon="10.9339975417758"><ele>22.0</ele><time>2026-04-04T16:07:18.999Z</time></trkpt><trkpt lat="43.723396894369756" lon="10.933886929742437"><ele>22.666666666666668</ele><time>2026-04-04T16:07:20.999Z</time></trkpt><trkpt lat="43.72344424379487" lon="10.933786707202891"><ele>23.333333333333332</ele><time>2026-04-04T16:07:22.999Z</time></trkpt><trkpt lat="43.72348636570336" lon="10.933697549531493"><ele>24.0</ele><time>2026-04-04T16:07:24.999Z</time></trkpt><trkpt lat="43.72352781199167" lon="10.933609821909183"><ele>24.75</ele><time>2026-04-04T16:07:26.999Z</time></trkpt><trkpt lat="43.72330801046933" lon="10.93335252557158"><ele>25.5</ele><time>2026-04-04T16:07:27.999Z</time></trkpt><trkpt lat="43.72334615825153" lon="10.933258282156055"><ele>26.25</ele><time>2026-04-04T16:07:29.999Z</time></trkpt><trkpt lat="43.7233084498665" lon="10.933163075625902"><ele>27.0</ele><time>2026-04-04T16:07:30.999Z</time></trkpt><trkpt lat="43.72335019863776" lon="10.933064872216965"><ele>27.0</ele><time>2026-04-04T16:07:32.999Z</time></trkpt><trkpt lat="43.72339415241489" lon="10.932961482034909"><ele>27.0</ele><time>2026-04-04T16:07:34.999Z</time></trkpt><trkpt lat="43.72343425252771" lon="10.932861869288002"><ele>27.0</ele><time>2026-04-04T16:07:36.999Z</time></trkpt><trkpt lat="43.72347517173101" lon="10.932756523160945"><ele>27.0</ele><time>2026-04-04T16:07:38.999Z</time></trkpt><trkpt lat="43.72351140200706" lon="10.932653788404146"><ele>27.0</ele><time>2026-04-04T16:07:40.999Z</time></trkpt><trkpt lat="43.72354856772442" lon="10.932544993310122"><ele>27.0</ele><time>2026-04-04T16:07:42.999Z</time></trkpt><trkpt lat="43.72358051957787" lon="10.932433372211143"><ele>26.0</ele><time>2026-04-04T16:07:44.999Z</time></trkpt><trkpt lat="43.723615882600825" lon="10.932315851064313"><ele>25.000000000000004</ele><time>2026-04-04T16:07:46.999Z</time></trkpt><trkpt lat="43.723655036213216" lon="10.932200592051592"><ele>24.0</ele><time>2026-04-04T16:07:48.999Z</time></trkpt><trkpt lat="43.72370103767721" lon="10.932072952113156"><ele>23.0</ele><time>2026-04-04T16:07:50.999Z</time></trkpt><trkpt lat="43.72374721884832" lon="10.931959281332654"><ele>22.0</ele><time>2026-04-04T16:07:52.999Z</time></trkpt><trkpt lat="43.723792760834506" lon="10.931847183458272"><ele>22.0</ele><time>2026-04-04T16:07:54.999Z</time></trkpt><trkpt lat="43.72383092974577" lon="10.931740931011506"><ele>22.0</ele><time>2026-04-04T16:07:56.999Z</time></trkpt><trkpt lat="43.72387090588616" lon="10.931616609354238"><ele>22.0</ele><time>2026-04-04T16:07:58.999Z</time></trkpt><trkpt lat="43.723875699186586" lon="10.93150736742692"><ele>22.0</ele><time>2026-04-04T16:08:00.999Z</time></trkpt><trkpt lat="43.72386079706831" lon="10.931366642004061"><ele>22.0</ele><time>2026-04-04T16:08:03.999Z</time></trkpt><trkpt lat="43.723849625283435" lon="10.931268095678467"><ele>22.0</ele><time>2026-04-04T16:08:05.999Z</time></trkpt><trkpt lat="43.72386819537721" lon="10.931150476618315"><ele>23.0</ele><time>2026-04-04T16:08:07.999Z</time></trkpt><trkpt lat="43.72429246457769" lon="10.930965475382088"><ele>24.0</ele><time>2026-04-04T16:08:10.999Z</time></trkpt><trkpt lat="43.724342535870946" lon="10.930843406399434"><ele>24.0</ele><time>2026-04-04T16:08:12.998Z</time></trkpt><trkpt lat="43.72439124128451" lon="10.930721477482273"><ele>24.0</ele><time>2026-04-04T16:08:14.998Z</time></trkpt><trkpt lat="43.72443749663566" lon="10.930595952286923"><ele>24.0</ele><time>2026-04-04T16:08:16.998Z</time></trkpt><trkpt lat="43.724484274910054" lon="10.930473626421882"><ele>24.0</ele><time>2026-04-04T16:08:18.998Z</time></trkpt><trkpt lat="43.72453487835322" lon="10.930357613654659"><ele>24.0</ele><time>2026-04-04T16:08:20.998Z</time></trkpt><trkpt lat="43.72457830777742" lon="10.93023862127103"><ele>24.2</ele><time>2026-04-04T16:08:23Z</time></trkpt><trkpt lat="43.72462149689502" lon="10.930122227739387"><ele>24.4</ele><time>2026-04-04T16:08:25Z</time></trkpt><trkpt lat="43.72465054215958" lon="10.92999758834636"><ele>24.6</ele><time>2026-04-04T16:08:27Z</time></trkpt><trkpt lat="43.72464492117846" lon="10.929865621583813"><ele>24.8</ele><time>2026-04-04T16:08:29Z</time></trkpt><trkpt lat="43.724644870368635" lon="10.929742431121586"><ele>25.0</ele><time>2026-04-04T16:08:31Z</time></trkpt><trkpt lat="43.7246831048207" lon="10.929630178851415"><ele>25.000000000000004</ele><time>2026-04-04T16:08:33Z</time></trkpt><trkpt lat="43.72474538348677" lon="10.929548646729023"><ele>25.0</ele><time>2026-04-04T16:08:35Z</time></trkpt><trkpt lat="43.724822300737365" lon="10.929498506231399"><ele>25.0</ele><time>2026-04-04T16:08:37Z</time></trkpt><trkpt lat="43.72489888179037" lon="10.92945675345115"><ele>25.0</ele><time>2026-04-04T16:08:39Z</time></trkpt><trkpt lat="43.72496669819958" lon="10.929401259813782"><ele>25.000000000000004</ele><time>2026-04-04T16:08:41Z</time></trkpt><trkpt lat="43.725035077089785" lon="10.92936862337157"><ele>25.0</ele><time>2026-04-04T16:08:43Z</time></trkpt><trkpt lat="43.72508837830746" lon="10.929268720235758"><ele>25.000000000000004</ele><time>2026-04-04T16:08:47Z</time></trkpt><trkpt lat="43.7251191553651" lon="10.929183451760823"><ele>25.0</ele><time>2026-04-04T16:08:50Z</time></trkpt><trkpt lat="43.7251906178172" lon="10.929097003731858"><ele>25.0</ele><time>2026-04-04T16:08:53Z</time></trkpt><trkpt lat="43.72524833607873" lon="10.929026927895707"><ele>25.0</ele><time>2026-04-04T16:08:55Z</time></trkpt><trkpt lat="43.72530645263342" lon="10.928922290741939"><ele>25.000000000000004</ele><time>2026-04-04T16:08:57Z</time></trkpt><trkpt lat="43.72537281541752" lon="10.928810994569488"><ele>25.0</ele><time>2026-04-04T16:08:59Z</time></trkpt><trkpt lat="43.72543772705328" lon="10.928684601304836"><ele>24.2</ele><time>2026-04-04T16:09:01Z</time></trkpt><trkpt lat="43.725504840777674" lon="10.92855804315478"><ele>23.4</ele><time>2026-04-04T16:09:02.999Z</time></trkpt><trkpt lat="43.72556971676146" lon="10.928430153206687"><ele>22.6</ele><time>2026-04-04T16:09:04.999Z</time></trkpt><trkpt lat="43.7256394449594" lon="10.928313680750414"><ele>21.8</ele><time>2026-04-04T16:09:06.999Z</time></trkpt><trkpt lat="43.725706665250264" lon="10.928198067997636"><ele>21.0</ele><time>2026-04-04T16:09:08.999Z</time></trkpt><trkpt lat="43.725767377889206" lon="10.928083545051642"><ele>21.0</ele><time>2026-04-04T16:09:10.999Z</time></trkpt><trkpt lat="43.7258253936409" lon="10.927965430472286"><ele>21.0</ele><time>2026-04-04T16:09:12.999Z</time></trkpt><trkpt lat="43.72588136334827" lon="10.92784586793318"><ele>21.0</ele><time>2026-04-04T16:09:14.999Z</time></trkpt><trkpt lat="43.725939194871785" lon="10.927734910181067"><ele>21.0</ele><time>2026-04-04T16:09:16.999Z</time></trkpt><trkpt lat="43.725994607670295" lon="10.927618835135423"><ele>21.0</ele><time>2026-04-04T16:09:18.999Z</time></trkpt><trkpt lat="43.7260528374904" lon="10.927509981817991"><ele>20.2</ele><time>2026-04-04T16:09:20.999Z</time></trkpt><trkpt lat="43.72611223671194" lon="10.927403085833552"><ele>19.400000000000002</ele><time>2026-04-04T16:09:22.999Z</time></trkpt><trkpt lat="43.72617445121101" lon="10.927301345420293"><ele>18.6</ele><time>2026-04-04T16:09:24.999Z</time></trkpt><trkpt lat="43.72624783947348" lon="10.927220687454009"><ele>17.8</ele><time>2026-04-04T16:09:26.999Z</time></trkpt><trkpt lat="43.72629001452702" lon="10.927100991114287"><ele>17.0</ele><time>2026-04-04T16:09:28.999Z</time></trkpt><trkpt lat="43.72629415123683" lon="10.926975737273432"><ele>17.0</ele><time>2026-04-04T16:09:30.999Z</time></trkpt><trkpt lat="43.726340520210236" lon="10.926885949247945"><ele>17.0</ele><time>2026-04-04T16:09:32.999Z</time></trkpt><trkpt lat="43.726406230309536" lon="10.926783027747986"><ele>17.0</ele><time>2026-04-04T16:09:34.999Z</time></trkpt><trkpt lat="43.72648154936815" lon="10.926709186565292"><ele>17.0</ele><time>2026-04-04T16:09:36.999Z</time></trkpt><trkpt lat="43.726553303843936" lon="10.9266044570863"><ele>17.0</ele><time>2026-04-04T16:09:38.999Z</time></trkpt><trkpt lat="43.726598325390285" lon="10.926471339911144"><ele>17.666666666666668</ele><time>2026-04-04T16:09:40.999Z</time></trkpt><trkpt lat="43.72658395500385" lon="10.926350534944937"><ele>18.333333333333336</ele><time>2026-04-04T16:09:42.999Z</time></trkpt><trkpt lat="43.72660507991281" lon="10.926225912233978"><ele>19.0</ele><time>2026-04-04T16:09:45.999Z</time></trkpt><trkpt lat="43.72664441672349" lon="10.926143741698876"><ele>19.666666666666668</ele><time>2026-04-04T16:09:47.999Z</time></trkpt><trkpt lat="43.726691294066676" lon="10.926054337188233"><ele>20.333333333333332</ele><time>2026-04-04T16:09:49.999Z</time></trkpt><trkpt lat="43.72673981686981" lon="10.925962382905741"><ele>21.0</ele><time>2026-04-04T16:09:51.999Z</time></trkpt><trkpt lat="43.726787147523325" lon="10.925870627782896"><ele>20.833333333333332</ele><time>2026-04-04T16:09:53.999Z</time></trkpt><trkpt lat="43.72683549803664" lon="10.92577495630449"><ele>20.666666666666668</ele><time>2026-04-04T16:09:55.999Z</time></trkpt><trkpt lat="43.72688674172132" lon="10.925676495694207"><ele>20.5</ele><time>2026-04-04T16:09:57.999Z</time></trkpt><trkpt lat="43.72694023773021" lon="10.925584492134584"><ele>20.333333333333336</ele><time>2026-04-04T16:09:59.999Z</time></trkpt><trkpt lat="43.72699663448976" lon="10.925488254409013"><ele>20.166666666666668</ele><time>2026-04-04T16:10:01.999Z</time></trkpt><trkpt lat="43.72705231696941" lon="10.925391916121491"><ele>20.0</ele><time>2026-04-04T16:10:03.999Z</time></trkpt><trkpt lat="43.727114287535976" lon="10.925299767189081"><ele>20.0</ele><time>2026-04-04T16:10:05.998Z</time></trkpt><trkpt lat="43.72717126465351" lon="10.92520494577696"><ele>20.0</ele><time>2026-04-04T16:10:07.998Z</time></trkpt><trkpt lat="43.72723588857546" lon="10.925113389248239"><ele>20.0</ele><time>2026-04-04T16:10:09.998Z</time></trkpt><trkpt lat="43.72730034699021" lon="10.925015651369815"><ele>20.0</ele><time>2026-04-04T16:10:11.998Z</time></trkpt><trkpt lat="43.72735804625659" lon="10.924912969574537"><ele>20.0</ele><time>2026-04-04T16:10:13.998Z</time></trkpt><trkpt lat="43.72739618062496" lon="10.924791838631798"><ele>20.6</ele><time>2026-04-04T16:10:15.998Z</time></trkpt><trkpt lat="43.727437766612184" lon="10.924671303007907"><ele>21.2</ele><time>2026-04-04T16:10:17.998Z</time></trkpt><trkpt lat="43.727476301850636" lon="10.924555187698369"><ele>21.799999999999997</ele><time>2026-04-04T16:10:19.998Z</time></trkpt><trkpt lat="43.7275199937724" lon="10.9244441374212"><ele>22.4</ele><time>2026-04-04T16:10:21.998Z</time></trkpt><trkpt lat="43.72756243750883" lon="10.924329170186116"><ele>23.0</ele><time>2026-04-04T16:10:23.998Z</time></trkpt><trkpt lat="43.72760457366758" lon="10.924210156356686"><ele>23.0</ele><time>2026-04-04T16:10:25.998Z</time></trkpt><trkpt lat="43.72764975846887" lon="10.924091692760797"><ele>23.0</ele><time>2026-04-04T16:10:27.998Z</time></trkpt><trkpt lat="43.727681428888694" lon="10.923970521882927"><ele>23.0</ele><time>2026-04-04T16:10:30Z</time></trkpt><trkpt lat="43.727726126902766" lon="10.92385495957421"><ele>23.0</ele><time>2026-04-04T16:10:32Z</time></trkpt><trkpt lat="43.727767242016725" lon="10.923741294495466"><ele>23.0</ele><time>2026-04-04T16:10:34Z</time></trkpt><trkpt lat="43.72780644895996" lon="10.923624067443667"><ele>22.2</ele><time>2026-04-04T16:10:36Z</time></trkpt><trkpt lat="43.7278464765663" lon="10.923510956444401"><ele>21.4</ele><time>2026-04-04T16:10:38Z</time></trkpt><trkpt lat="43.7278861544384" lon="10.923390101805115"><ele>20.599999999999998</ele><time>2026-04-04T16:10:40Z</time></trkpt><trkpt lat="43.7279188714831" lon="10.923267010519574"><ele>19.799999999999997</ele><time>2026-04-04T16:10:42Z</time></trkpt><trkpt lat="43.72794373668655" lon="10.923143521124873"><ele>19.0</ele><time>2026-04-04T16:10:44Z</time></trkpt><trkpt lat="43.72796040117293" lon="10.923025434807698"><ele>19.0</ele><time>2026-04-04T16:10:46Z</time></trkpt><trkpt lat="43.727986015727076" lon="10.922907865467037"><ele>19.0</ele><time>2026-04-04T16:10:48Z</time></trkpt><trkpt lat="43.728014426031784" lon="10.922793068525687"><ele>19.0</ele><time>2026-04-04T16:10:50Z</time></trkpt><trkpt lat="43.72803735311932" lon="10.922669077404418"><ele>19.0</ele><time>2026-04-04T16:10:52Z</time></trkpt><trkpt lat="43.728061961722815" lon="10.922548379094975"><ele>19.0</ele><time>2026-04-04T16:10:54Z</time></trkpt><trkpt lat="43.72808588297802" lon="10.92243099953504"><ele>19.0</ele><time>2026-04-04T16:10:56Z</time></trkpt><trkpt lat="43.728108586449764" lon="10.922317693358467"><ele>19.5</ele><time>2026-04-04T16:10:58Z</time></trkpt><trkpt lat="43.72813480669844" lon="10.922214183878266"><ele>20.0</ele><time>2026-04-04T16:11:00Z</time></trkpt><trkpt lat="43.72816346063756" lon="10.922112192774208"><ele>20.5</ele><time>2026-04-04T16:11:03Z</time></trkpt><trkpt lat="43.72811372921739" lon="10.92198942295649"><ele>21.0</ele><time>2026-04-04T16:11:07Z</time></trkpt><trkpt lat="43.72805149250209" lon="10.921940964407852"><ele>21.5</ele><time>2026-04-04T16:11:11Z</time></trkpt><trkpt lat="43.72810684319475" lon="10.921817798021618"><ele>22.0</ele><time>2026-04-04T16:11:13Z</time></trkpt><trkpt lat="43.72815290737203" lon="10.921701803390354"><ele>22.6</ele><time>2026-04-04T16:11:15Z</time></trkpt><trkpt lat="43.728169117820485" lon="10.921579917835698"><ele>23.200000000000003</ele><time>2026-04-04T16:11:16.999Z</time></trkpt><trkpt lat="43.7281764881945" lon="10.921450818890841"><ele>23.8</ele><time>2026-04-04T16:11:18.999Z</time></trkpt><trkpt lat="43.72818923829875" lon="10.921315267642377"><ele>24.4</ele><time>2026-04-04T16:11:20.999Z</time></trkpt><trkpt lat="43.728192572526865" lon="10.92117325510116"><ele>25.0</ele><time>2026-04-04T16:11:22.999Z</time></trkpt><trkpt lat="43.72819586154965" lon="10.9210348396211"><ele>25.0</ele><time>2026-04-04T16:11:24.999Z</time></trkpt><trkpt lat="43.72820553858381" lon="10.920903665327543"><ele>25.0</ele><time>2026-04-04T16:11:26.999Z</time></trkpt><trkpt lat="43.72820816449955" lon="10.920771864581777"><ele>25.0</ele><time>2026-04-04T16:11:28.999Z</time></trkpt><trkpt lat="43.728212130591025" lon="10.920647084083463"><ele>25.0</ele><time>2026-04-04T16:11:30.999Z</time></trkpt><trkpt lat="43.72821625858713" lon="10.920528235058512"><ele>25.0</ele><time>2026-04-04T16:11:32.999Z</time></trkpt><trkpt lat="43.7282164652448" lon="10.920411272300614"><ele>24.666666666666668</ele><time>2026-04-04T16:11:34.999Z</time></trkpt><trkpt lat="43.72821047980752" lon="10.92028317771138"><ele>24.333333333333336</ele><time>2026-04-04T16:11:36.999Z</time></trkpt><trkpt lat="43.72820019638683" lon="10.92016206686914"><ele>24.0</ele><time>2026-04-04T16:11:38.999Z</time></trkpt><trkpt lat="43.72819016352144" lon="10.920041045600598"><ele>23.666666666666668</ele><time>2026-04-04T16:11:40.999Z</time></trkpt><trkpt lat="43.72819830107916" lon="10.919920698465498"><ele>23.333333333333336</ele><time>2026-04-04T16:11:42.999Z</time></trkpt><trkpt lat="43.72821970739405" lon="10.919802805456433"><ele>23.0</ele><time>2026-04-04T16:11:44.999Z</time></trkpt><trkpt lat="43.72823476126056" lon="10.919692126487439"><ele>22.833333333333336</ele><time>2026-04-04T16:11:46.999Z</time></trkpt><trkpt lat="43.728254588893385" lon="10.919578641164229"><ele>22.666666666666668</ele><time>2026-04-04T16:11:48.999Z</time></trkpt><trkpt lat="43.72826286637432" lon="10.919458133053064"><ele>22.5</ele><time>2026-04-04T16:11:50.999Z</time></trkpt><trkpt lat="43.7282746954429" lon="10.919337490104724"><ele>22.333333333333332</ele><time>2026-04-04T16:11:52.999Z</time></trkpt><trkpt lat="43.72828883748347" lon="10.919221370423408"><ele>22.166666666666664</ele><time>2026-04-04T16:11:54.999Z</time></trkpt><trkpt lat="43.72830579122108" lon="10.919109165857169"><ele>22.0</ele><time>2026-04-04T16:11:56.999Z</time></trkpt><trkpt lat="43.72832210102515" lon="10.918993657085872"><ele>22.333333333333332</ele><time>2026-04-04T16:11:58.999Z</time></trkpt><trkpt lat="43.72834291240203" lon="10.918872909762825"><ele>22.666666666666664</ele><time>2026-04-04T16:12:00.999Z</time></trkpt><trkpt lat="43.728366434568834" lon="10.918761763887082"><ele>23.0</ele><time>2026-04-04T16:12:02.999Z</time></trkpt><trkpt lat="43.72838928247045" lon="10.918641702363054"><ele>23.333333333333332</ele><time>2026-04-04T16:12:04.999Z</time></trkpt><trkpt lat="43.72840374665265" lon="10.918519811663593"><ele>23.666666666666668</ele><time>2026-04-04T16:12:06.999Z</time></trkpt><trkpt lat="43.72842524207388" lon="10.918397301457778"><ele>24.0</ele><time>2026-04-04T16:12:08.999Z</time></trkpt><trkpt lat="43.728448112612405" lon="10.918277370811309"><ele>24.0</ele><time>2026-04-04T16:12:10.999Z</time></trkpt><trkpt lat="43.7284692185381" lon="10.918154587876556"><ele>24.0</ele><time>2026-04-04T16:12:12.999Z</time></trkpt><trkpt lat="43.728493969779244" lon="10.918024878796313"><ele>24.0</ele><time>2026-04-04T16:12:14.999Z</time></trkpt><trkpt lat="43.72852192822649" lon="10.917895978246504"><ele>24.0</ele><time>2026-04-04T16:12:16.999Z</time></trkpt><trkpt lat="43.72855548812229" lon="10.917770030569505"><ele>24.0</ele><time>2026-04-04T16:12:18.998Z</time></trkpt><trkpt lat="43.728589651392596" lon="10.9176480942924"><ele>23.799999999999997</ele><time>2026-04-04T16:12:20.998Z</time></trkpt><trkpt lat="43.728626221714855" lon="10.91752258793491"><ele>23.599999999999998</ele><time>2026-04-04T16:12:22.998Z</time></trkpt><trkpt lat="43.72865358204513" lon="10.917399454688823"><ele>23.4</ele><time>2026-04-04T16:12:24.998Z</time></trkpt><trkpt lat="43.728687902370595" lon="10.917256808990484"><ele>23.2</ele><time>2026-04-04T16:12:26.998Z</time></trkpt><trkpt lat="43.72872449310855" lon="10.917137444499726"><ele>23.0</ele><time>2026-04-04T16:12:28.998Z</time></trkpt><trkpt lat="43.72875290668654" lon="10.917023432661155"><ele>23.0</ele><time>2026-04-04T16:12:30.998Z</time></trkpt><trkpt lat="43.72878179246448" lon="10.91690131231945"><ele>23.0</ele><time>2026-04-04T16:12:32.998Z</time></trkpt><trkpt lat="43.72880751254584" lon="10.916775794367172"><ele>23.0</ele><time>2026-04-04T16:12:35Z</time></trkpt><trkpt lat="43.72882567756123" lon="10.916655841531915"><ele>23.0</ele><time>2026-04-04T16:12:37Z</time></trkpt><trkpt lat="43.72885107500799" lon="10.916537630712506"><ele>23.0</ele><time>2026-04-04T16:12:39Z</time></trkpt><trkpt lat="43.72886650016556" lon="10.916407103256347"><ele>23.166666666666668</ele><time>2026-04-04T16:12:41Z</time></trkpt><trkpt lat="43.72888698769812" lon="10.916278450017321"><ele>23.333333333333336</ele><time>2026-04-04T16:12:43Z</time></trkpt><trkpt lat="43.72889345503778" lon="10.916157505532336"><ele>23.5</ele><time>2026-04-04T16:12:45Z</time></trkpt><trkpt lat="43.72889782005772" lon="10.916039293672565"><ele>23.666666666666668</ele><time>2026-04-04T16:12:47Z</time></trkpt><trkpt lat="43.72891773377161" lon="10.91594559539918"><ele>23.833333333333332</ele><time>2026-04-04T16:12:49Z</time></trkpt><trkpt lat="43.72896570639565" lon="10.915877274830475"><ele>24.0</ele><time>2026-04-04T16:12:54Z</time></trkpt><trkpt lat="43.7289921854624" lon="10.915747647176318"><ele>24.333333333333332</ele><time>2026-04-04T16:13:04Z</time></trkpt><trkpt lat="43.729012709072755" lon="10.915632148409566"><ele>24.666666666666664</ele><time>2026-04-04T16:13:06Z</time></trkpt><trkpt lat="43.729049618102735" lon="10.915536057099976"><ele>25.0</ele><time>2026-04-04T16:13:08Z</time></trkpt><trkpt lat="43.72910074699493" lon="10.915447392145406"><ele>25.333333333333332</ele><time>2026-04-04T16:13:10Z</time></trkpt><trkpt lat="43.729160979401314" lon="10.915371403386828"><ele>25.666666666666664</ele><time>2026-04-04T16:13:12Z</time></trkpt><trkpt lat="43.72921417225263" lon="10.915286745258776"><ele>26.0</ele><time>2026-04-04T16:13:14Z</time></trkpt><trkpt lat="43.729273400664916" lon="10.915207443933154"><ele>25.999999999999996</ele><time>2026-04-04T16:13:16Z</time></trkpt><trkpt lat="43.729332065861826" lon="10.915126793061383"><ele>26.0</ele><time>2026-04-04T16:13:18Z</time></trkpt><trkpt lat="43.72938551027513" lon="10.915040686961794"><ele>26.0</ele><time>2026-04-04T16:13:20Z</time></trkpt><trkpt lat="43.72944352484724" lon="10.91495239004855"><ele>26.0</ele><time>2026-04-04T16:13:22Z</time></trkpt><trkpt lat="43.729501203034964" lon="10.914870462341929"><ele>25.999999999999996</ele><time>2026-04-04T16:13:24Z</time></trkpt><trkpt lat="43.72955454696325" lon="10.914776333353707"><ele>26.0</ele><time>2026-04-04T16:13:25.999Z</time></trkpt><trkpt lat="43.729593966502215" lon="10.914678123011003"><ele>25.499999999999996</ele><time>2026-04-04T16:13:27.999Z</time></trkpt><trkpt lat="43.72961181482003" lon="10.914569560071891"><ele>25.0</ele><time>2026-04-04T16:13:29.999Z</time></trkpt><trkpt lat="43.72961987107017" lon="10.914455407320037"><ele>24.5</ele><time>2026-04-04T16:13:31.999Z</time></trkpt><trkpt lat="43.72963058698946" lon="10.914336970928447"><ele>24.0</ele><time>2026-04-04T16:13:33.999Z</time></trkpt><trkpt lat="43.729640342319456" lon="10.914224771362896"><ele>23.5</ele><time>2026-04-04T16:13:35.999Z</time></trkpt><trkpt lat="43.72964947623197" lon="10.914114055206"><ele>23.0</ele><time>2026-04-04T16:13:37.999Z</time></trkpt><trkpt lat="43.72966363693755" lon="10.913998809474878"><ele>23.0</ele><time>2026-04-04T16:13:39.999Z</time></trkpt><trkpt lat="43.72967537152663" lon="10.913887877307465"><ele>23.0</ele><time>2026-04-04T16:13:41.999Z</time></trkpt><trkpt lat="43.729689872603664" lon="10.913775864857369"><ele>23.0</ele><time>2026-04-04T16:13:43.999Z</time></trkpt><trkpt lat="43.72969910797084" lon="10.913663932059832"><ele>23.0</ele><time>2026-04-04T16:13:45.999Z</time></trkpt><trkpt lat="43.729709464342086" lon="10.913545022217962"><ele>23.0</ele><time>2026-04-04T16:13:47.999Z</time></trkpt><trkpt lat="43.72972396430474" lon="10.913430779359736"><ele>23.0</ele><time>2026-04-04T16:13:49.999Z</time></trkpt><trkpt lat="43.729738383218404" lon="10.913306905822575"><ele>22.666666666666668</ele><time>2026-04-04T16:13:51.999Z</time></trkpt><trkpt lat="43.72975135997017" lon="10.913185676303678"><ele>22.333333333333336</ele><time>2026-04-04T16:13:53.999Z</time></trkpt><trkpt lat="43.72976770210061" lon="10.913073702419114"><ele>22.0</ele><time>2026-04-04T16:13:55.999Z</time></trkpt><trkpt lat="43.72978154215182" lon="10.912974283730716"><ele>21.666666666666668</ele><time>2026-04-04T16:13:57.999Z</time></trkpt><trkpt lat="43.72977974235624" lon="10.91287635670673"><ele>21.333333333333332</ele><time>2026-04-04T16:13:59.999Z</time></trkpt><trkpt lat="43.72974410493581" lon="10.912791764828226"><ele>21.0</ele><time>2026-04-04T16:14:01.999Z</time></trkpt><trkpt lat="43.72967152901245" lon="10.912764946326346"><ele>21.0</ele><time>2026-04-04T16:14:03.999Z</time></trkpt><trkpt lat="43.7296011098986" lon="10.912725096873906"><ele>21.0</ele><time>2026-04-04T16:14:05.999Z</time></trkpt><trkpt lat="43.729516549571535" lon="10.91270106268608"><ele>21.0</ele><time>2026-04-04T16:14:07.999Z</time></trkpt><trkpt lat="43.72942547632996" lon="10.912696167856048"><ele>21.0</ele><time>2026-04-04T16:14:09.999Z</time></trkpt><trkpt lat="43.72933427992325" lon="10.912689396932421"><ele>21.0</ele><time>2026-04-04T16:14:11.999Z</time></trkpt><trkpt lat="43.729242674593955" lon="10.912667230762144"><ele>21.0</ele><time>2026-04-04T16:14:13.999Z</time></trkpt><trkpt lat="43.72915330215538" lon="10.912624608012816"><ele>21.6</ele><time>2026-04-04T16:14:15.999Z</time></trkpt><trkpt lat="43.72906537823455" lon="10.912570614620062"><ele>22.200000000000003</ele><time>2026-04-04T16:14:17.999Z</time></trkpt><trkpt lat="43.72897989657886" lon="10.91251317178613"><ele>22.799999999999997</ele><time>2026-04-04T16:14:19.999Z</time></trkpt><trkpt lat="43.72889631498766" lon="10.912447581652328"><ele>23.4</ele><time>2026-04-04T16:14:21.999Z</time></trkpt><trkpt lat="43.72881089046018" lon="10.912383701227618"><ele>24.0</ele><time>2026-04-04T16:14:23.998Z</time></trkpt><trkpt lat="43.728730994694914" lon="10.912312682220625"><ele>24.0</ele><time>2026-04-04T16:14:25.998Z</time></trkpt><trkpt lat="43.728650561551014" lon="10.912245790543562"><ele>24.0</ele><time>2026-04-04T16:14:27.998Z</time></trkpt><trkpt lat="43.7285741767538" lon="10.912174667424305"><ele>24.0</ele><time>2026-04-04T16:14:29.998Z</time></trkpt><trkpt lat="43.728498388964034" lon="10.912119012263481"><ele>24.0</ele><time>2026-04-04T16:14:31.998Z</time></trkpt><trkpt lat="43.72843416049209" lon="10.912052177342927"><ele>24.0</ele><time>2026-04-04T16:14:33.998Z</time></trkpt><trkpt lat="43.72837106328122" lon="10.912003092670602"><ele>24.0</ele><time>2026-04-04T16:14:35.998Z</time></trkpt><trkpt lat="43.72831189131764" lon="10.911952096982624"><ele>24.0</ele><time>2026-04-04T16:14:37.998Z</time></trkpt><trkpt lat="43.72826429653357" lon="10.911873803386273"><ele>24.0</ele><time>2026-04-04T16:14:39.998Z</time></trkpt><trkpt lat="43.728200450702495" lon="10.911818714916445"><ele>24.0</ele><time>2026-04-04T16:14:42Z</time></trkpt><trkpt lat="43.728123592094704" lon="10.911774815124078"><ele>24.0</ele><time>2026-04-04T16:14:44Z</time></trkpt><trkpt lat="43.728049596302874" lon="10.911708657897085"><ele>24.0</ele><time>2026-04-04T16:14:46Z</time></trkpt><trkpt lat="43.72797808544262" lon="10.911650431714307"><ele>24.0</ele><time>2026-04-04T16:14:48Z</time></trkpt><trkpt lat="43.72790907635361" lon="10.911586738483498"><ele>24.0</ele><time>2026-04-04T16:14:50Z</time></trkpt><trkpt lat="43.727851493624094" lon="10.911527043302062"><ele>24.0</ele><time>2026-04-04T16:14:52Z</time></trkpt><trkpt lat="43.72779382420651" lon="10.91147290903499"><ele>24.0</ele><time>2026-04-04T16:14:54Z</time></trkpt><trkpt lat="43.72771829655984" lon="10.911414465331829"><ele>24.0</ele><time>2026-04-04T16:14:57Z</time></trkpt><trkpt lat="43.72777870556699" lon="10.91121047603009"><ele>24.0</ele><time>2026-04-04T16:15:01Z</time></trkpt><trkpt lat="43.727803110002306" lon="10.911099194528974"><ele>24.0</ele><time>2026-04-04T16:15:03Z</time></trkpt><trkpt lat="43.727833941576456" lon="10.910984099007523"><ele>24.0</ele><time>2026-04-04T16:15:05Z</time></trkpt><trkpt lat="43.72785884034975" lon="10.910857643305484"><ele>24.0</ele><time>2026-04-04T16:15:07Z</time></trkpt><trkpt lat="43.72788023732273" lon="10.91073050948193"><ele>24.0</ele><time>2026-04-04T16:15:09Z</time></trkpt><trkpt lat="43.72792203543213" lon="10.910614414853919"><ele>24.0</ele><time>2026-04-04T16:15:11Z</time></trkpt><trkpt lat="43.7279528678608" lon="10.91048592026801"><ele>24.0</ele><time>2026-04-04T16:15:13Z</time></trkpt><trkpt lat="43.72797194498888" lon="10.910345205780752"><ele>24.0</ele><time>2026-04-04T16:15:15Z</time></trkpt><trkpt lat="43.72800286555129" lon="10.910211813920808"><ele>24.0</ele><time>2026-04-04T16:15:17Z</time></trkpt><trkpt lat="43.72803835871604" lon="10.910082702509513"><ele>24.0</ele><time>2026-04-04T16:15:19Z</time></trkpt><trkpt lat="43.728075172086704" lon="10.909949426488545"><ele>24.0</ele><time>2026-04-04T16:15:21Z</time></trkpt><trkpt lat="43.728110698793486" lon="10.90981473868598"><ele>23.799999999999997</ele><time>2026-04-04T16:15:22.999Z</time></trkpt><trkpt lat="43.72814693415388" lon="10.909678968136356"><ele>23.599999999999998</ele><time>2026-04-04T16:15:24.999Z</time></trkpt><trkpt lat="43.72817738964087" lon="10.909538377893357"><ele>23.4</ele><time>2026-04-04T16:15:26.999Z</time></trkpt><trkpt lat="43.72821120862129" lon="10.909398651247539"><ele>23.2</ele><time>2026-04-04T16:15:28.999Z</time></trkpt><trkpt lat="43.7282445201698" lon="10.909261362246603"><ele>23.0</ele><time>2026-04-04T16:15:30.999Z</time></trkpt><trkpt lat="43.72827989731367" lon="10.909130838135098"><ele>23.0</ele><time>2026-04-04T16:15:32.999Z</time></trkpt><trkpt lat="43.72831229685179" lon="10.908992602880996"><ele>23.0</ele><time>2026-04-04T16:15:34.999Z</time></trkpt><trkpt lat="43.72834818987062" lon="10.9088618855025"><ele>23.0</ele><time>2026-04-04T16:15:36.999Z</time></trkpt><trkpt lat="43.72837836325001" lon="10.908725587102214"><ele>23.0</ele><time>2026-04-04T16:15:38.999Z</time></trkpt><trkpt lat="43.728414146344505" lon="10.908589451847927"><ele>23.0</ele><time>2026-04-04T16:15:40.999Z</time></trkpt><trkpt lat="43.72844729972681" lon="10.908448858255447"><ele>23.2</ele><time>2026-04-04T16:15:42.999Z</time></trkpt><trkpt lat="43.72847314400955" lon="10.908315180971272"><ele>23.4</ele><time>2026-04-04T16:15:44.999Z</time></trkpt><trkpt lat="43.728511489963516" lon="10.908172274490456"><ele>23.599999999999998</ele><time>2026-04-04T16:15:46.999Z</time></trkpt><trkpt lat="43.7285414295594" lon="10.90803609378727"><ele>23.799999999999997</ele><time>2026-04-04T16:15:48.999Z</time></trkpt><trkpt lat="43.728575084770256" lon="10.90789917715886"><ele>24.0</ele><time>2026-04-04T16:15:50.999Z</time></trkpt><trkpt lat="43.72860767826326" lon="10.907764604478507"><ele>24.0</ele><time>2026-04-04T16:15:52.999Z</time></trkpt><trkpt lat="43.72863485868621" lon="10.907631646674824"><ele>24.0</ele><time>2026-04-04T16:15:54.999Z</time></trkpt><trkpt lat="43.72866866098569" lon="10.907504457004826"><ele>24.0</ele><time>2026-04-04T16:15:56.999Z</time></trkpt><trkpt lat="43.728695021571" lon="10.907376375406425"><ele>24.0</ele><time>2026-04-04T16:15:58.999Z</time></trkpt><trkpt lat="43.728724945676156" lon="10.907245701944383"><ele>24.0</ele><time>2026-04-04T16:16:00.999Z</time></trkpt><trkpt lat="43.728757305168344" lon="10.907115612616476"><ele>24.0</ele><time>2026-04-04T16:16:02.999Z</time></trkpt><trkpt lat="43.72879246457627" lon="10.906999308215"><ele>24.0</ele><time>2026-04-04T16:16:04.999Z</time></trkpt><trkpt lat="43.72882297570602" lon="10.906879182389646"><ele>24.0</ele><time>2026-04-04T16:16:06.999Z</time></trkpt><trkpt lat="43.72885126075048" lon="10.906756283379426"><ele>24.0</ele><time>2026-04-04T16:16:08.999Z</time></trkpt><trkpt lat="43.72888153944185" lon="10.906634940445299"><ele>24.0</ele><time>2026-04-04T16:16:10.999Z</time></trkpt><trkpt lat="43.728911004652964" lon="10.906512194381298"><ele>23.6</ele><time>2026-04-04T16:16:12.999Z</time></trkpt><trkpt lat="43.728940099971275" lon="10.906392063697218"><ele>23.2</ele><time>2026-04-04T16:16:14.999Z</time></trkpt><trkpt lat="43.72896742277717" lon="10.90627624588557"><ele>22.8</ele><time>2026-04-04T16:16:16.999Z</time></trkpt><trkpt lat="43.72899577849603" lon="10.906161224619146"><ele>22.400000000000002</ele><time>2026-04-04T16:16:18.999Z</time></trkpt><trkpt lat="43.72902577633976" lon="10.906039974106825"><ele>22.0</ele><time>2026-04-04T16:16:20.998Z</time></trkpt><trkpt lat="43.72905684976827" lon="10.905921287513147"><ele>22.400000000000002</ele><time>2026-04-04T16:16:22.998Z</time></trkpt><trkpt lat="43.72908646599066" lon="10.905797494962016"><ele>22.8</ele><time>2026-04-04T16:16:24.998Z</time></trkpt><trkpt lat="43.72911804029917" lon="10.9056737177614"><ele>23.2</ele><time>2026-04-04T16:16:26.998Z</time></trkpt><trkpt lat="43.729146990467804" lon="10.905547557671529"><ele>23.6</ele><time>2026-04-04T16:16:28.998Z</time></trkpt><trkpt lat="43.729174616030726" lon="10.905417383288013"><ele>24.0</ele><time>2026-04-04T16:16:30.998Z</time></trkpt><trkpt lat="43.729203438467835" lon="10.90529336524654"><ele>24.0</ele><time>2026-04-04T16:16:32.998Z</time></trkpt><trkpt lat="43.729232794729775" lon="10.905166548867163"><ele>24.0</ele><time>2026-04-04T16:16:34.998Z</time></trkpt><trkpt lat="43.72926117163008" lon="10.905032571641666"><ele>24.0</ele><time>2026-04-04T16:16:36.998Z</time></trkpt><trkpt lat="43.729296446808114" lon="10.904896264411873"><ele>24.0</ele><time>2026-04-04T16:16:38.998Z</time></trkpt><trkpt lat="43.72932982252245" lon="10.904767977935528"><ele>24.0</ele><time>2026-04-04T16:16:40.998Z</time></trkpt><trkpt lat="43.72936241171018" lon="10.904637901041289"><ele>24.0</ele><time>2026-04-04T16:16:42.998Z</time></trkpt><trkpt lat="43.72939333538023" lon="10.904513606775936"><ele>24.0</ele><time>2026-04-04T16:16:44.998Z</time></trkpt><trkpt lat="43.72942478543978" lon="10.90438466199465"><ele>24.0</ele><time>2026-04-04T16:16:47Z</time></trkpt><trkpt lat="43.729457229565796" lon="10.904259740719493"><ele>24.0</ele><time>2026-04-04T16:16:49Z</time></trkpt><trkpt lat="43.72949156246228" lon="10.904128481971563"><ele>24.0</ele><time>2026-04-04T16:16:51Z</time></trkpt><trkpt lat="43.72951714630553" lon="10.903998188428858"><ele>24.0</ele><time>2026-04-04T16:16:53Z</time></trkpt><trkpt lat="43.72954413078888" lon="10.903866490220606"><ele>24.0</ele><time>2026-04-04T16:16:55Z</time></trkpt><trkpt lat="43.72956303894777" lon="10.90374037882404"><ele>24.0</ele><time>2026-04-04T16:16:57Z</time></trkpt><trkpt lat="43.72958769558775" lon="10.903607442084907"><ele>24.0</ele><time>2026-04-04T16:16:59Z</time></trkpt><trkpt lat="43.72960452777182" lon="10.903472007369631"><ele>24.0</ele><time>2026-04-04T16:17:01Z</time></trkpt><trkpt lat="43.72961138860421" lon="10.903339686876134"><ele>24.0</ele><time>2026-04-04T16:17:03Z</time></trkpt><trkpt lat="43.72963513866998" lon="10.903214817427843"><ele>24.0</ele><time>2026-04-04T16:17:05Z</time></trkpt><trkpt lat="43.7296452287784" lon="10.903092608210274"><ele>24.0</ele><time>2026-04-04T16:17:07Z</time></trkpt><trkpt lat="43.729657339042916" lon="10.902970235291722"><ele>24.0</ele><time>2026-04-04T16:17:09Z</time></trkpt><trkpt lat="43.72965830884403" lon="10.902845325118566"><ele>24.0</ele><time>2026-04-04T16:17:11Z</time></trkpt><trkpt lat="43.72965222224719" lon="10.902720585472474"><ele>24.0</ele><time>2026-04-04T16:17:13Z</time></trkpt><trkpt lat="43.72964229150064" lon="10.902598749955898"><ele>24.0</ele><time>2026-04-04T16:17:15Z</time></trkpt><trkpt lat="43.72962541030915" lon="10.902472738589337"><ele>24.0</ele><time>2026-04-04T16:17:17Z</time></trkpt><trkpt lat="43.72961476565796" lon="10.902346108653465"><ele>24.0</ele><time>2026-04-04T16:17:19Z</time></trkpt><trkpt lat="43.729601514339265" lon="10.902232323496449"><ele>24.0</ele><time>2026-04-04T16:17:21Z</time></trkpt><trkpt lat="43.72959103753752" lon="10.902115160797813"><ele>24.0</ele><time>2026-04-04T16:17:23Z</time></trkpt><trkpt lat="43.72957899119211" lon="10.901991404412069"><ele>24.0</ele><time>2026-04-04T16:17:25Z</time></trkpt><trkpt lat="43.7295689816354" lon="10.901874169087593"><ele>24.0</ele><time>2026-04-04T16:17:27Z</time></trkpt><trkpt lat="43.72955730209009" lon="10.901750298343458"><ele>24.0</ele><time>2026-04-04T16:17:29Z</time></trkpt><trkpt lat="43.72954833771526" lon="10.901627008139934"><ele>24.0</ele><time>2026-04-04T16:17:30.999Z</time></trkpt><trkpt lat="43.729537011750054" lon="10.90150223682805"><ele>24.0</ele><time>2026-04-04T16:17:32.999Z</time></trkpt><trkpt lat="43.729529015207575" lon="10.901374865941566"><ele>24.0</ele><time>2026-04-04T16:17:34.999Z</time></trkpt><trkpt lat="43.729514749627555" lon="10.901244111127644"><ele>24.0</ele><time>2026-04-04T16:17:36.999Z</time></trkpt><trkpt lat="43.72950411590944" lon="10.901112490445383"><ele>24.0</ele><time>2026-04-04T16:17:38.999Z</time></trkpt><trkpt lat="43.729490869368625" lon="10.900983841176833"><ele>24.0</ele><time>2026-04-04T16:17:40.999Z</time></trkpt><trkpt lat="43.72947866721225" lon="10.900853780677403"><ele>24.0</ele><time>2026-04-04T16:17:42.999Z</time></trkpt><trkpt lat="43.72946562310058" lon="10.900718856653615"><ele>24.0</ele><time>2026-04-04T16:17:44.999Z</time></trkpt><trkpt lat="43.72945085947349" lon="10.90058268920993"><ele>24.0</ele><time>2026-04-04T16:17:46.999Z</time></trkpt><trkpt lat="43.729437629357754" lon="10.900449503277486"><ele>24.0</ele><time>2026-04-04T16:17:48.999Z</time></trkpt><trkpt lat="43.72943062662928" lon="10.900316714406767"><ele>24.0</ele><time>2026-04-04T16:17:50.999Z</time></trkpt><trkpt lat="43.729421522578726" lon="10.900182350853273"><ele>24.0</ele><time>2026-04-04T16:17:52.999Z</time></trkpt><trkpt lat="43.72942062747262" lon="10.900053983196301"><ele>24.0</ele><time>2026-04-04T16:17:54.999Z</time></trkpt><trkpt lat="43.72942554231779" lon="10.899915952654519"><ele>24.0</ele><time>2026-04-04T16:17:56.999Z</time></trkpt><trkpt lat="43.72944671285794" lon="10.89977720583189"><ele>24.0</ele><time>2026-04-04T16:17:58.999Z</time></trkpt><trkpt lat="43.729466062283926" lon="10.899636712591281"><ele>24.0</ele><time>2026-04-04T16:18:00.999Z</time></trkpt><trkpt lat="43.729495892296534" lon="10.899503138683503"><ele>24.0</ele><time>2026-04-04T16:18:02.999Z</time></trkpt><trkpt lat="43.72952263629932" lon="10.899367348424294"><ele>24.0</ele><time>2026-04-04T16:18:04.999Z</time></trkpt><trkpt lat="43.72955449831565" lon="10.899230382098006"><ele>23.799999999999997</ele><time>2026-04-04T16:18:06.999Z</time></trkpt><trkpt lat="43.72958418027234" lon="10.899091982576657"><ele>23.599999999999998</ele><time>2026-04-04T16:18:08.999Z</time></trkpt><trkpt lat="43.729614831884064" lon="10.898953629078761"><ele>23.4</ele><time>2026-04-04T16:18:10.999Z</time></trkpt><trkpt lat="43.729640868129266" lon="10.89883124719359"><ele>23.2</ele><time>2026-04-04T16:18:12.999Z</time></trkpt><trkpt lat="43.72965589790482" lon="10.89872135396238"><ele>23.0</ele><time>2026-04-04T16:18:14.999Z</time></trkpt><trkpt lat="43.72966208299178" lon="10.898595965027"><ele>23.0</ele><time>2026-04-04T16:18:16.999Z</time></trkpt><trkpt lat="43.729640770806625" lon="10.898467962522725"><ele>23.0</ele><time>2026-04-04T16:18:18.999Z</time></trkpt><trkpt lat="43.729596328176584" lon="10.898347889485503"><ele>23.0</ele><time>2026-04-04T16:18:20.999Z</time></trkpt><trkpt lat="43.72953115726141" lon="10.898241620478936"><ele>23.0</ele><time>2026-04-04T16:18:22.999Z</time></trkpt><trkpt lat="43.729452399543774" lon="10.898162853232707"><ele>23.0</ele><time>2026-04-04T16:18:24.999Z</time></trkpt><trkpt lat="43.7293695945603" lon="10.898092026683365"><ele>23.4</ele><time>2026-04-04T16:18:26.999Z</time></trkpt><trkpt lat="43.72928194669032" lon="10.898026375022798"><ele>23.799999999999997</ele><time>2026-04-04T16:18:28.999Z</time></trkpt><trkpt lat="43.72919323176693" lon="10.897967711830493"><ele>24.2</ele><time>2026-04-04T16:18:30.998Z</time></trkpt><trkpt lat="43.72909902562262" lon="10.89793337999522"><ele>24.6</ele><time>2026-04-04T16:18:32.998Z</time></trkpt><trkpt lat="43.72899890891365" lon="10.897935549929766"><ele>25.0</ele><time>2026-04-04T16:18:34.998Z</time></trkpt><trkpt lat="43.728906050763094" lon="10.897949483606297"><ele>25.000000000000004</ele><time>2026-04-04T16:18:36.998Z</time></trkpt><trkpt lat="43.728817738791626" lon="10.897940405683036"><ele>25.0</ele><time>2026-04-04T16:18:38.998Z</time></trkpt><trkpt lat="43.728735031890054" lon="10.897908216383525"><ele>25.0</ele><time>2026-04-04T16:18:40.998Z</time></trkpt><trkpt lat="43.72865675715156" lon="10.897862465002873"><ele>25.0</ele><time>2026-04-04T16:18:42.998Z</time></trkpt><trkpt lat="43.728589343597626" lon="10.89778432006234"><ele>25.000000000000004</ele><time>2026-04-04T16:18:44.998Z</time></trkpt><trkpt lat="43.728537016789865" lon="10.897689947629608"><ele>25.0</ele><time>2026-04-04T16:18:46.998Z</time></trkpt><trkpt lat="43.72849013339849" lon="10.897586154894984"><ele>24.8</ele><time>2026-04-04T16:18:48.998Z</time></trkpt><trkpt lat="43.72844498103146" lon="10.897473459772394"><ele>24.6</ele><time>2026-04-04T16:18:50.998Z</time></trkpt><trkpt lat="43.72841333026499" lon="10.897354687667306"><ele>24.4</ele><time>2026-04-04T16:18:53Z</time></trkpt><trkpt lat="43.72838479716037" lon="10.897232718651168"><ele>24.2</ele><time>2026-04-04T16:18:55Z</time></trkpt><trkpt lat="43.72835396149336" lon="10.897123754561143"><ele>24.0</ele><time>2026-04-04T16:18:57Z</time></trkpt><trkpt lat="43.7283256435499" lon="10.8970049762512"><ele>24.0</ele><time>2026-04-04T16:18:59Z</time></trkpt><trkpt lat="43.72829896663978" lon="10.896892328568839"><ele>24.0</ele><time>2026-04-04T16:19:01Z</time></trkpt><trkpt lat="43.72826871771137" lon="10.896762253829422"><ele>24.0</ele><time>2026-04-04T16:19:03Z</time></trkpt><trkpt lat="43.728247311068834" lon="10.896635483040532"><ele>24.0</ele><time>2026-04-04T16:19:05Z</time></trkpt><trkpt lat="43.72823955658997" lon="10.896502179851863"><ele>24.0</ele><time>2026-04-04T16:19:07Z</time></trkpt><trkpt lat="43.72823546284957" lon="10.896388697532432"><ele>23.833333333333332</ele><time>2026-04-04T16:19:09Z</time></trkpt><trkpt lat="43.72822768341172" lon="10.896287193565264"><ele>23.666666666666668</ele><time>2026-04-04T16:19:11Z</time></trkpt><trkpt lat="43.72821195328359" lon="10.896182535884833"><ele>23.5</ele><time>2026-04-04T16:19:13Z</time></trkpt><trkpt lat="43.728188547152165" lon="10.896078185608001"><ele>23.333333333333336</ele><time>2026-04-04T16:19:15Z</time></trkpt><trkpt lat="43.72816665914731" lon="10.895988503204777"><ele>23.166666666666668</ele><time>2026-04-04T16:19:17Z</time></trkpt><trkpt lat="43.728133496491935" lon="10.895886556736015"><ele>23.0</ele><time>2026-04-04T16:19:19Z</time></trkpt><trkpt lat="43.72809967158317" lon="10.895779775848627"><ele>23.0</ele><time>2026-04-04T16:19:21Z</time></trkpt><trkpt lat="43.728060702243674" lon="10.895676703438198"><ele>23.0</ele><time>2026-04-04T16:19:23Z</time></trkpt><trkpt lat="43.72803444442651" lon="10.895573624394522"><ele>23.0</ele><time>2026-04-04T16:19:25Z</time></trkpt><trkpt lat="43.72799611480761" lon="10.895458922466156"><ele>23.0</ele><time>2026-04-04T16:19:27Z</time></trkpt><trkpt lat="43.72796855780224" lon="10.89536488907372"><ele>23.0</ele><time>2026-04-04T16:19:29Z</time></trkpt><trkpt lat="43.727935663244835" lon="10.895270364760293"><ele>23.0</ele><time>2026-04-04T16:19:31Z</time></trkpt><trkpt lat="43.72790221593615" lon="10.89517293679462"><ele>23.0</ele><time>2026-04-04T16:19:33Z</time></trkpt><trkpt lat="43.727872052506605" lon="10.895096345431856"><ele>23.0</ele><time>2026-04-04T16:19:34.999Z</time></trkpt><trkpt lat="43.72783908135797" lon="10.894996364711101"><ele>23.0</ele><time>2026-04-04T16:19:36.999Z</time></trkpt><trkpt lat="43.727809455487304" lon="10.8948765932219"><ele>23.0</ele><time>2026-04-04T16:19:38.999Z</time></trkpt><trkpt lat="43.72777967074223" lon="10.894778648057104"><ele>23.0</ele><time>2026-04-04T16:19:40.999Z</time></trkpt><trkpt lat="43.72773983045827" lon="10.894677525887214"><ele>23.0</ele><time>2026-04-04T16:19:42.999Z</time></trkpt><trkpt lat="43.72770678891167" lon="10.89457579173321"><ele>23.0</ele><time>2026-04-04T16:19:44.999Z</time></trkpt><trkpt lat="43.727662584494176" lon="10.894473889989362"><ele>23.0</ele><time>2026-04-04T16:19:46.999Z</time></trkpt><trkpt lat="43.72761728562699" lon="10.894369648444718"><ele>23.0</ele><time>2026-04-04T16:19:48.999Z</time></trkpt><trkpt lat="43.72757940089375" lon="10.894265336227003"><ele>23.0</ele><time>2026-04-04T16:19:50.999Z</time></trkpt><trkpt lat="43.72754102370125" lon="10.894166682971477"><ele>23.0</ele><time>2026-04-04T16:19:52.999Z</time></trkpt><trkpt lat="43.727505488372124" lon="10.894077590669427"><ele>23.0</ele><time>2026-04-04T16:19:54.999Z</time></trkpt><trkpt lat="43.72747073807909" lon="10.893988096944883"><ele>23.333333333333336</ele><time>2026-04-04T16:19:56.999Z</time></trkpt><trkpt lat="43.727437604532184" lon="10.893891174412262"><ele>23.666666666666668</ele><time>2026-04-04T16:19:58.999Z</time></trkpt><trkpt lat="43.72740585698317" lon="10.89378844349244"><ele>24.0</ele><time>2026-04-04T16:20:00.999Z</time></trkpt><trkpt lat="43.72736899347302" lon="10.893683458235394"><ele>24.333333333333336</ele><time>2026-04-04T16:20:02.999Z</time></trkpt><trkpt lat="43.72732554278367" lon="10.893571055577539"><ele>24.666666666666668</ele><time>2026-04-04T16:20:04.999Z</time></trkpt><trkpt lat="43.72728110202985" lon="10.893465547405727"><ele>25.0</ele><time>2026-04-04T16:20:06.999Z</time></trkpt><trkpt lat="43.72724180344757" lon="10.89335758499296"><ele>25.333333333333336</ele><time>2026-04-04T16:20:08.999Z</time></trkpt><trkpt lat="43.727212077703726" lon="10.893253840326974"><ele>25.666666666666668</ele><time>2026-04-04T16:20:10.999Z</time></trkpt><trkpt lat="43.72718718672532" lon="10.893158757233962"><ele>26.0</ele><time>2026-04-04T16:20:12.999Z</time></trkpt><trkpt lat="43.727169956555386" lon="10.893064996622188"><ele>26.333333333333336</ele><time>2026-04-04T16:20:14.999Z</time></trkpt><trkpt lat="43.72714237883134" lon="10.892959461088878"><ele>26.666666666666668</ele><time>2026-04-04T16:20:16.999Z</time></trkpt><trkpt lat="43.72712694631677" lon="10.892847782148902"><ele>27.0</ele><time>2026-04-04T16:20:18.999Z</time></trkpt><trkpt lat="43.72710444025173" lon="10.892731745961038"><ele>27.0</ele><time>2026-04-04T16:20:20.999Z</time></trkpt><trkpt lat="43.727086415064555" lon="10.89261609457446"><ele>27.0</ele><time>2026-04-04T16:20:22.999Z</time></trkpt><trkpt lat="43.727075667764595" lon="10.892516408047092"><ele>27.0</ele><time>2026-04-04T16:20:24.999Z</time></trkpt><trkpt lat="43.72706219333205" lon="10.892430411408753"><ele>27.0</ele><time>2026-04-04T16:20:26.999Z</time></trkpt><trkpt lat="43.7270524487221" lon="10.892326769781182"><ele>27.0</ele><time>2026-04-04T16:21:30Z</time></trkpt><trkpt lat="43.72703297824062" lon="10.892205960270665"><ele>27.0</ele><time>2026-04-04T16:21:33Z</time></trkpt><trkpt lat="43.727001444744744" lon="10.892086289108173"><ele>27.0</ele><time>2026-04-04T16:21:35Z</time></trkpt><trkpt lat="43.72697446108652" lon="10.891997192695976"><ele>27.0</ele><time>2026-04-04T16:21:36.999Z</time></trkpt><trkpt lat="43.72696537664354" lon="10.891905378671318"><ele>27.0</ele><time>2026-04-04T16:21:39.999Z</time></trkpt><trkpt lat="43.726930103362164" lon="10.891775170791243"><ele>27.0</ele><time>2026-04-04T16:21:41.999Z</time></trkpt><trkpt lat="43.726905063773636" lon="10.891671380005189"><ele>27.0</ele><time>2026-04-04T16:21:43.999Z</time></trkpt><trkpt lat="43.726888496289305" lon="10.891571036647628"><ele>27.0</ele><time>2026-04-04T16:21:45.999Z</time></trkpt><trkpt lat="43.72685609891018" lon="10.891486393178518"><ele>27.0</ele><time>2026-04-04T16:21:47.999Z</time></trkpt><trkpt lat="43.72680397697055" lon="10.8913965087953"><ele>27.0</ele><time>2026-04-04T16:21:50.999Z</time></trkpt><trkpt lat="43.726794974395354" lon="10.891302049403414"><ele>27.0</ele><time>2026-04-04T16:21:52.999Z</time></trkpt><trkpt lat="43.72675459725138" lon="10.891198897818681"><ele>27.0</ele><time>2026-04-04T16:21:55.999Z</time></trkpt><trkpt lat="43.7266963987843" lon="10.89115723547709"><ele>27.0</ele><time>2026-04-04T16:21:58.999Z</time></trkpt><trkpt lat="43.72670313865015" lon="10.891277036631488"><ele>27.0</ele><time>2026-04-04T16:22:01.999Z</time></trkpt><trkpt lat="43.726762190634425" lon="10.891370794461931"><ele>27.0</ele><time>2026-04-04T16:22:03.999Z</time></trkpt><trkpt lat="43.72679659449685" lon="10.891459932322528"><ele>27.0</ele><time>2026-04-04T16:22:05.999Z</time></trkpt><trkpt lat="43.72685578037349" lon="10.89151447520395"><ele>27.0</ele><time>2026-04-04T16:22:08.999Z</time></trkpt><trkpt lat="43.726932843413316" lon="10.891425504859486"><ele>27.0</ele><time>2026-04-04T16:22:11.999Z</time></trkpt><trkpt lat="43.72698430335901" lon="10.891371467849224"><ele>27.0</ele><time>2026-04-04T16:22:13.999Z</time></trkpt><trkpt lat="43.727064578762" lon="10.891316983985767"><ele>27.0</ele><time>2026-04-04T16:22:16.999Z</time></trkpt><trkpt lat="43.72714607129537" lon="10.891304380996198"><ele>26.5</ele><time>2026-04-04T16:22:19.999Z</time></trkpt><trkpt lat="43.72722796450421" lon="10.891312875475766"><ele>26.0</ele><time>2026-04-04T16:22:27.999Z</time></trkpt><trkpt lat="43.72728271099211" lon="10.891376481094824"><ele>25.5</ele><time>2026-04-04T16:22:30.999Z</time></trkpt><trkpt lat="43.727365644217215" lon="10.891448621085601"><ele>25.0</ele><time>2026-04-04T16:22:33.998Z</time></trkpt><trkpt lat="43.727441463410095" lon="10.891505096801211"><ele>24.5</ele><time>2026-04-04T16:22:35.998Z</time></trkpt><trkpt lat="43.727501502672375" lon="10.89155906802804"><ele>24.0</ele><time>2026-04-04T16:22:37.998Z</time></trkpt><trkpt lat="43.72757856443813" lon="10.891617876259463"><ele>23.999999999999996</ele><time>2026-04-04T16:22:40.998Z</time></trkpt><trkpt lat="43.72763833638832" lon="10.891659242611018"><ele>24.0</ele><time>2026-04-04T16:22:42.998Z</time></trkpt><trkpt lat="43.7276877927393" lon="10.891737508890488"><ele>24.0</ele><time>2026-04-04T16:22:45.998Z</time></trkpt><trkpt lat="43.72771702114293" lon="10.89182466358902"><ele>24.0</ele><time>2026-04-04T16:50:12.998Z</time></trkpt><trkpt lat="43.7277697546798" lon="10.891878096074528"><ele>24.0</ele><time>2026-04-04T16:50:17.998Z</time></trkpt><trkpt lat="43.7278185110303" lon="10.891942082192937"><ele>23.999999999999996</ele><time>2026-04-04T16:50:24Z</time></trkpt><trkpt lat="43.72774352486581" lon="10.891971770494406"><ele>24.0</ele><time>2026-04-04T17:01:45.999Z</time></trkpt><trkpt lat="43.72767456535061" lon="10.891932425252802"><ele>24.166666666666668</ele><time>2026-04-04T17:01:48.999Z</time></trkpt><trkpt lat="43.72760113404829" lon="10.891883052722713"><ele>24.333333333333336</ele><time>2026-04-04T17:01:51.999Z</time></trkpt><trkpt lat="43.72751269966815" lon="10.891842828479234"><ele>24.5</ele><time>2026-04-04T17:01:54.999Z</time></trkpt><trkpt lat="43.72742666623154" lon="10.891845542589595"><ele>24.666666666666668</ele><time>2026-04-04T17:01:57.999Z</time></trkpt><trkpt lat="43.727351123195724" lon="10.891891241424426"><ele>24.833333333333336</ele><time>2026-04-04T17:02:00.999Z</time></trkpt><trkpt lat="43.72727802138179" lon="10.891948849550744"><ele>25.0</ele><time>2026-04-04T17:02:03.999Z</time></trkpt><trkpt lat="43.72720354724667" lon="10.89200098513249"><ele>25.000000000000004</ele><time>2026-04-04T17:02:06.999Z</time></trkpt><trkpt lat="43.727136667524185" lon="10.89203861580221"><ele>25.0</ele><time>2026-04-04T17:02:10.999Z</time></trkpt><trkpt lat="43.72708909933572" lon="10.891931789093018"><ele>25.0</ele><time>2026-04-04T17:02:13.999Z</time></trkpt><trkpt lat="43.72706476437848" lon="10.891808615715615"><ele>25.0</ele><time>2026-04-04T17:02:16.999Z</time></trkpt><trkpt lat="43.72704037447744" lon="10.891727247388236"><ele>25.000000000000004</ele><time>2026-04-04T17:02:18.999Z</time></trkpt><trkpt lat="43.72699490461414" lon="10.891652807461705"><ele>25.0</ele><time>2026-04-04T17:02:20.999Z</time></trkpt><trkpt lat="43.72694604318436" lon="10.891547568444308"><ele>24.833333333333336</ele><time>2026-04-04T17:02:23.998Z</time></trkpt><trkpt lat="43.72690457820581" lon="10.891473596706174"><ele>24.666666666666668</ele><time>2026-04-04T17:02:26.998Z</time></trkpt><trkpt lat="43.72681193689766" lon="10.891437898513413"><ele>24.5</ele><time>2026-04-04T17:02:29.998Z</time></trkpt><trkpt lat="43.72678385833848" lon="10.89132239600176"><ele>24.333333333333336</ele><time>2026-04-04T17:02:31.998Z</time></trkpt><trkpt lat="43.72674679613761" lon="10.891222286683766"><ele>24.166666666666668</ele><time>2026-04-04T17:02:33.998Z</time></trkpt><trkpt lat="43.72668577214852" lon="10.891138172989676"><ele>24.0</ele><time>2026-04-04T17:02:35.998Z</time></trkpt><trkpt lat="43.72660871989737" lon="10.891064454414598"><ele>24.2</ele><time>2026-04-04T17:02:37.998Z</time></trkpt><trkpt lat="43.72652608331341" lon="10.891001900476507"><ele>24.4</ele><time>2026-04-04T17:02:39.998Z</time></trkpt><trkpt lat="43.72643964833059" lon="10.890934975994838"><ele>24.6</ele><time>2026-04-04T17:02:41.998Z</time></trkpt><trkpt lat="43.72634967698076" lon="10.890872450389944"><ele>24.8</ele><time>2026-04-04T17:02:43.998Z</time></trkpt><trkpt lat="43.72625871022019" lon="10.890801316543062"><ele>25.0</ele><time>2026-04-04T17:02:45.998Z</time></trkpt><trkpt lat="43.7261709010922" lon="10.890721907317777"><ele>25.0</ele><time>2026-04-04T17:02:47.998Z</time></trkpt><trkpt lat="43.7260910714163" lon="10.890635130353717"><ele>25.0</ele><time>2026-04-04T17:02:49.998Z</time></trkpt><trkpt lat="43.7260108052329" lon="10.890551739583653"><ele>25.0</ele><time>2026-04-04T17:02:51.998Z</time></trkpt><trkpt lat="43.72593357427805" lon="10.890461606095073"><ele>25.0</ele><time>2026-04-04T17:02:53.998Z</time></trkpt><trkpt lat="43.7258474667494" lon="10.890372708888858"><ele>25.0</ele><time>2026-04-04T17:02:55.998Z</time></trkpt><trkpt lat="43.72576772359087" lon="10.890283814944363"><ele>25.0</ele><time>2026-04-04T17:02:58Z</time></trkpt><trkpt lat="43.725681907178185" lon="10.89019218347821"><ele>25.0</ele><time>2026-04-04T17:03:00Z</time></trkpt><trkpt lat="43.72560379962025" lon="10.89010799055644"><ele>25.0</ele><time>2026-04-04T17:03:02Z</time></trkpt><trkpt lat="43.725523276072146" lon="10.890019162257792"><ele>25.0</ele><time>2026-04-04T17:03:04Z</time></trkpt><trkpt lat="43.725436827218175" lon="10.889945800100884"><ele>25.0</ele><time>2026-04-04T17:03:06Z</time></trkpt><trkpt lat="43.72537007591914" lon="10.889853847247506"><ele>24.8</ele><time>2026-04-04T17:03:08Z</time></trkpt><trkpt lat="43.72528080327169" lon="10.889802761284214"><ele>24.6</ele><time>2026-04-04T17:03:10Z</time></trkpt><trkpt lat="43.72519028409994" lon="10.889760185739231"><ele>24.4</ele><time>2026-04-04T17:03:12Z</time></trkpt><trkpt lat="43.725092523008804" lon="10.889747426043218"><ele>24.2</ele><time>2026-04-04T17:03:14Z</time></trkpt><trkpt lat="43.72499116835713" lon="10.889757860971192"><ele>24.0</ele><time>2026-04-04T17:03:16Z</time></trkpt><trkpt lat="43.72488555914734" lon="10.889781965281248"><ele>24.0</ele><time>2026-04-04T17:03:18Z</time></trkpt><trkpt lat="43.724778678911115" lon="10.88980827607656"><ele>24.0</ele><time>2026-04-04T17:03:20Z</time></trkpt><trkpt lat="43.72467105675094" lon="10.889840362908163"><ele>24.0</ele><time>2026-04-04T17:03:22Z</time></trkpt><trkpt lat="43.72456069320808" lon="10.889870007316995"><ele>24.0</ele><time>2026-04-04T17:03:24Z</time></trkpt><trkpt lat="43.724457913979116" lon="10.889899748317495"><ele>24.0</ele><time>2026-04-04T17:03:26Z</time></trkpt><trkpt lat="43.724340146951505" lon="10.889922509931187"><ele>23.75</ele><time>2026-04-04T17:03:28Z</time></trkpt><trkpt lat="43.72422498197102" lon="10.889949915769737"><ele>23.5</ele><time>2026-04-04T17:03:30Z</time></trkpt><trkpt lat="43.72410612604951" lon="10.889962946003902"><ele>23.25</ele><time>2026-04-04T17:03:32Z</time></trkpt><trkpt lat="43.723993785489725" lon="10.889997975942032"><ele>23.0</ele><time>2026-04-04T17:03:34Z</time></trkpt><trkpt lat="43.723884955581354" lon="10.890020168660559"><ele>23.0</ele><time>2026-04-04T17:03:36Z</time></trkpt><trkpt lat="43.723783671428144" lon="10.890052501437332"><ele>23.0</ele><time>2026-04-04T17:03:37.999Z</time></trkpt><trkpt lat="43.723687895208656" lon="10.890074772929857"><ele>23.0</ele><time>2026-04-04T17:03:39.999Z</time></trkpt><trkpt lat="43.72358368144768" lon="10.89009916338725"><ele>23.0</ele><time>2026-04-04T17:03:41.999Z</time></trkpt><trkpt lat="43.723478555699856" lon="10.890126535662326"><ele>23.0</ele><time>2026-04-04T17:03:43.999Z</time></trkpt><trkpt lat="43.72337149271396" lon="10.890154294894957"><ele>22.75</ele><time>2026-04-04T17:03:45.999Z</time></trkpt><trkpt lat="43.72326355675017" lon="10.890177808719152"><ele>22.5</ele><time>2026-04-04T17:03:47.999Z</time></trkpt><trkpt lat="43.723153658291466" lon="10.890221027050611"><ele>22.25</ele><time>2026-04-04T17:03:49.999Z</time></trkpt><trkpt lat="43.723038944988396" lon="10.890230242669343"><ele>22.0</ele><time>2026-04-04T17:03:51.999Z</time></trkpt><trkpt lat="43.722922645693636" lon="10.890255499318757"><ele>22.0</ele><time>2026-04-04T17:03:53.999Z</time></trkpt><trkpt lat="43.72281118296053" lon="10.890280958375886"><ele>22.0</ele><time>2026-04-04T17:03:55.999Z</time></trkpt><trkpt lat="43.722702220479555" lon="10.890305286282398"><ele>22.0</ele><time>2026-04-04T17:03:57.999Z</time></trkpt><trkpt lat="43.7225962123498" lon="10.890330991739782"><ele>22.0</ele><time>2026-04-04T17:03:59.999Z</time></trkpt><trkpt lat="43.72248858794094" lon="10.890353509867271"><ele>22.0</ele><time>2026-04-04T17:04:01.999Z</time></trkpt><trkpt lat="43.722379623893985" lon="10.890381496531253"><ele>22.400000000000002</ele><time>2026-04-04T17:04:03.999Z</time></trkpt><trkpt lat="43.72227050698261" lon="10.890402454555158"><ele>22.8</ele><time>2026-04-04T17:04:05.999Z</time></trkpt><trkpt lat="43.72216120939046" lon="10.890424409689382"><ele>23.2</ele><time>2026-04-04T17:04:07.999Z</time></trkpt><trkpt lat="43.72205377400218" lon="10.89043836154946"><ele>23.6</ele><time>2026-04-04T17:04:09.999Z</time></trkpt><trkpt lat="43.7219464310957" lon="10.890455811816736"><ele>24.0</ele><time>2026-04-04T17:04:11.999Z</time></trkpt><trkpt lat="43.72184100533459" lon="10.890486359804433"><ele>24.0</ele><time>2026-04-04T17:04:13.999Z</time></trkpt><trkpt lat="43.721738233798774" lon="10.89051334585599"><ele>24.0</ele><time>2026-04-04T17:04:15.999Z</time></trkpt><trkpt lat="43.72162829206386" lon="10.890530241672021"><ele>24.0</ele><time>2026-04-04T17:04:17.999Z</time></trkpt><trkpt lat="43.72152218249069" lon="10.890549397865037"><ele>24.0</ele><time>2026-04-04T17:04:19.999Z</time></trkpt><trkpt lat="43.72141818017723" lon="10.890577317842363"><ele>24.0</ele><time>2026-04-04T17:04:21.999Z</time></trkpt><trkpt lat="43.72131332875621" lon="10.890599937528307"><ele>24.0</ele><time>2026-04-04T17:04:23.999Z</time></trkpt><trkpt lat="43.721207618618934" lon="10.890624967603276"><ele>24.0</ele><time>2026-04-04T17:04:25.999Z</time></trkpt><trkpt lat="43.721098238046814" lon="10.890647465350819"><ele>24.0</ele><time>2026-04-04T17:04:27.999Z</time></trkpt><trkpt lat="43.720988669640114" lon="10.890674607911887"><ele>24.0</ele><time>2026-04-04T17:04:29.998Z</time></trkpt><trkpt lat="43.72088015302759" lon="10.890694128991111"><ele>24.0</ele><time>2026-04-04T17:04:31.998Z</time></trkpt><trkpt lat="43.72077359635569" lon="10.890712759306062"><ele>23.799999999999997</ele><time>2026-04-04T17:04:33.998Z</time></trkpt><trkpt lat="43.720669447811" lon="10.89072392530649"><ele>23.599999999999998</ele><time>2026-04-04T17:04:35.998Z</time></trkpt><trkpt lat="43.7205701906421" lon="10.890706567528971"><ele>23.4</ele><time>2026-04-04T17:04:37.998Z</time></trkpt><trkpt lat="43.720484252459094" lon="10.890721862327466"><ele>23.2</ele><time>2026-04-04T17:04:39.998Z</time></trkpt><trkpt lat="43.72039275637008" lon="10.890602093868427"><ele>23.0</ele><time>2026-04-04T17:04:41.998Z</time></trkpt><trkpt lat="43.7203180709646" lon="10.890509073894043"><ele>23.0</ele><time>2026-04-04T17:04:43.998Z</time></trkpt><trkpt lat="43.720258918959416" lon="10.890392741028318"><ele>23.0</ele><time>2026-04-04T17:04:45.998Z</time></trkpt><trkpt lat="43.72021331550607" lon="10.890271905793028"><ele>23.0</ele><time>2026-04-04T17:04:47.998Z</time></trkpt><trkpt lat="43.720196783352016" lon="10.890138854890374"><ele>23.0</ele><time>2026-04-04T17:04:49.998Z</time></trkpt><trkpt lat="43.720185306756484" lon="10.890003958653928"><ele>23.0</ele><time>2026-04-04T17:04:51.998Z</time></trkpt><trkpt lat="43.72018418494254" lon="10.889866000448832"><ele>23.2</ele><time>2026-04-04T17:04:53.998Z</time></trkpt><trkpt lat="43.72018146242188" lon="10.889725603021802"><ele>23.4</ele><time>2026-04-04T17:04:55.998Z</time></trkpt><trkpt lat="43.72018550243594" lon="10.889576953219327"><ele>23.599999999999998</ele><time>2026-04-04T17:04:57.998Z</time></trkpt><trkpt lat="43.72018390293655" lon="10.889429014216997"><ele>23.799999999999997</ele><time>2026-04-04T17:04:59.998Z</time></trkpt><trkpt lat="43.72018192867472" lon="10.889276536679077"><ele>24.0</ele><time>2026-04-04T17:05:01.998Z</time></trkpt><trkpt lat="43.72018271489516" lon="10.889119523476618"><ele>24.5</ele><time>2026-04-04T17:05:04Z</time></trkpt><trkpt lat="43.72018139802486" lon="10.888965543857397"><ele>25.0</ele><time>2026-04-04T17:05:06Z</time></trkpt><trkpt lat="43.720184398119784" lon="10.888802533416843"><ele>25.5</ele><time>2026-04-04T17:05:08Z</time></trkpt><trkpt lat="43.72018326912598" lon="10.888649599571329"><ele>26.0</ele><time>2026-04-04T17:05:10Z</time></trkpt><trkpt lat="43.72018231308129" lon="10.888487322217483"><ele>25.75</ele><time>2026-04-04T17:05:12Z</time></trkpt><trkpt lat="43.720183220321125" lon="10.888329107909613"><ele>25.5</ele><time>2026-04-04T17:05:14Z</time></trkpt><trkpt lat="43.72018341108672" lon="10.88817029750832"><ele>25.25</ele><time>2026-04-04T17:05:16Z</time></trkpt><trkpt lat="43.72018243425704" lon="10.888011067130718"><ele>25.0</ele><time>2026-04-04T17:05:18Z</time></trkpt><trkpt lat="43.720182977865406" lon="10.887855323961631"><ele>25.0</ele><time>2026-04-04T17:05:20Z</time></trkpt><trkpt lat="43.72018271674736" lon="10.887697233786273"><ele>25.0</ele><time>2026-04-04T17:05:22Z</time></trkpt><trkpt lat="43.72018090425078" lon="10.88754244728404"><ele>25.0</ele><time>2026-04-04T17:05:24Z</time></trkpt><trkpt lat="43.72018290002394" lon="10.887384507818457"><ele>25.0</ele><time>2026-04-04T17:05:26Z</time></trkpt><trkpt lat="43.720180158305396" lon="10.88722412002417"><ele>24.75</ele><time>2026-04-04T17:05:28Z</time></trkpt><trkpt lat="43.72017932498872" lon="10.887062327177004"><ele>24.5</ele><time>2026-04-04T17:05:30Z</time></trkpt><trkpt lat="43.72017504933117" lon="10.886901633221633"><ele>24.25</ele><time>2026-04-04T17:05:32Z</time></trkpt><trkpt lat="43.720177081702566" lon="10.886742423700829"><ele>24.0</ele><time>2026-04-04T17:05:34Z</time></trkpt><trkpt lat="43.72017907368479" lon="10.886589856508623"><ele>24.0</ele><time>2026-04-04T17:05:36Z</time></trkpt><trkpt lat="43.72018075900569" lon="10.88643233098305"><ele>24.0</ele><time>2026-04-04T17:05:38Z</time></trkpt><trkpt lat="43.720177156232715" lon="10.886269124163938"><ele>24.0</ele><time>2026-04-04T17:05:40Z</time></trkpt><trkpt lat="43.720177828210474" lon="10.886119784222805"><ele>24.0</ele><time>2026-04-04T17:05:41.999Z</time></trkpt><trkpt lat="43.72017481306481" lon="10.88597063632175"><ele>24.0</ele><time>2026-04-04T17:05:43.999Z</time></trkpt><trkpt lat="43.72017752860581" lon="10.885828284478663"><ele>24.0</ele><time>2026-04-04T17:05:45.999Z</time></trkpt><trkpt lat="43.72019886587751" lon="10.885702463447052"><ele>24.0</ele><time>2026-04-04T17:05:47.999Z</time></trkpt><trkpt lat="43.72020232394768" lon="10.885561048371265"><ele>24.0</ele><time>2026-04-04T17:05:49.999Z</time></trkpt><trkpt lat="43.720205683071434" lon="10.885436596845521"><ele>24.0</ele><time>2026-04-04T17:05:51.999Z</time></trkpt><trkpt lat="43.72023344841229" lon="10.885298299881233"><ele>24.0</ele><time>2026-04-04T17:05:53.999Z</time></trkpt><trkpt lat="43.72021977623551" lon="10.885171261507121"><ele>24.25</ele><time>2026-04-04T17:05:55.999Z</time></trkpt><trkpt lat="43.72036566005763" lon="10.885045403416902"><ele>24.5</ele><time>2026-04-04T17:05:57.999Z</time></trkpt><trkpt lat="43.72044533874808" lon="10.88494752150321"><ele>24.75</ele><time>2026-04-04T17:05:59.999Z</time></trkpt><trkpt lat="43.72052575936795" lon="10.88486716848313"><ele>25.0</ele><time>2026-04-04T17:06:01.999Z</time></trkpt><trkpt lat="43.72059718726208" lon="10.884787880382559"><ele>25.000000000000004</ele><time>2026-04-04T17:06:03.999Z</time></trkpt><trkpt lat="43.720662625254505" lon="10.88471885858187"><ele>25.0</ele><time>2026-04-04T17:06:05.999Z</time></trkpt><trkpt lat="43.72072751106874" lon="10.884663573185849"><ele>25.0</ele><time>2026-04-04T17:06:07.999Z</time></trkpt><trkpt lat="43.720791604089584" lon="10.884587113662551"><ele>25.0</ele><time>2026-04-04T17:06:09.999Z</time></trkpt><trkpt lat="43.720850922038146" lon="10.884516521661057"><ele>25.000000000000004</ele><time>2026-04-04T17:06:11.999Z</time></trkpt><trkpt lat="43.72091366758252" lon="10.88445607484012"><ele>25.0</ele><time>2026-04-04T17:06:13.999Z</time></trkpt><trkpt lat="43.72097537467103" lon="10.884393012600182"><ele>25.000000000000004</ele><time>2026-04-04T17:06:15.999Z</time></trkpt><trkpt lat="43.7210383560251" lon="10.884331409646439"><ele>25.0</ele><time>2026-04-04T17:06:17.999Z</time></trkpt><trkpt lat="43.72109886028893" lon="10.884273801956013"><ele>25.0</ele><time>2026-04-04T17:06:19.999Z</time></trkpt><trkpt lat="43.72116295154985" lon="10.884214485524279"><ele>25.0</ele><time>2026-04-04T17:06:21.999Z</time></trkpt><trkpt lat="43.72121434918627" lon="10.884154485409187"><ele>25.000000000000004</ele><time>2026-04-04T17:06:23.999Z</time></trkpt><trkpt lat="43.721292338975005" lon="10.8841052040614"><ele>25.0</ele><time>2026-04-04T17:06:26.999Z</time></trkpt><trkpt lat="43.72134491643319" lon="10.88400901128345"><ele>24.000000000000004</ele><time>2026-04-04T17:06:29.999Z</time></trkpt><trkpt lat="43.72140602910385" lon="10.883952376778897"><ele>23.0</ele><time>2026-04-04T17:06:31.999Z</time></trkpt><trkpt lat="43.72146869826593" lon="10.883886098018996"><ele>22.0</ele><time>2026-04-04T17:06:33.998Z</time></trkpt><trkpt lat="43.72153370749859" lon="10.883817544690697"><ele>21.0</ele><time>2026-04-04T17:06:35.998Z</time></trkpt><trkpt lat="43.721600191661416" lon="10.883741622763637"><ele>20.0</ele><time>2026-04-04T17:06:37.998Z</time></trkpt><trkpt lat="43.721670639301195" lon="10.883667662618956"><ele>19.0</ele><time>2026-04-04T17:06:39.998Z</time></trkpt><trkpt lat="43.72174529807816" lon="10.883591917270827"><ele>19.0</ele><time>2026-04-04T17:06:41.998Z</time></trkpt><trkpt lat="43.72181783399327" lon="10.883518530606224"><ele>19.0</ele><time>2026-04-04T17:06:43.998Z</time></trkpt><trkpt lat="43.72189084653809" lon="10.883434934621441"><ele>19.0</ele><time>2026-04-04T17:06:45.998Z</time></trkpt><trkpt lat="43.72196468555332" lon="10.883355542546033"><ele>19.0</ele><time>2026-04-04T17:06:47.998Z</time></trkpt><trkpt lat="43.72203970233868" lon="10.883275630618527"><ele>19.0</ele><time>2026-04-04T17:06:49.998Z</time></trkpt><trkpt lat="43.7221183831923" lon="10.88319424986733"><ele>19.799999999999997</ele><time>2026-04-04T17:06:51.998Z</time></trkpt><trkpt lat="43.722195264457945" lon="10.883114602561758"><ele>20.599999999999998</ele><time>2026-04-04T17:06:53.998Z</time></trkpt><trkpt lat="43.72227712753026" lon="10.883028196910294"><ele>21.4</ele><time>2026-04-04T17:06:55.998Z</time></trkpt><trkpt lat="43.722361250912925" lon="10.882948224814498"><ele>22.2</ele><time>2026-04-04T17:06:57.998Z</time></trkpt><trkpt lat="43.72244396294498" lon="10.882870526219488"><ele>23.0</ele><time>2026-04-04T17:06:59.998Z</time></trkpt><trkpt lat="43.72252766335257" lon="10.882786599025247"><ele>23.0</ele><time>2026-04-04T17:07:01.998Z</time></trkpt><trkpt lat="43.72261141059193" lon="10.882698314426952"><ele>23.0</ele><time>2026-04-04T17:07:03.998Z</time></trkpt><trkpt lat="43.722700854955555" lon="10.882604768620501"><ele>23.0</ele><time>2026-04-04T17:07:05.998Z</time></trkpt><trkpt lat="43.722795618215024" lon="10.882510729828148"><ele>23.0</ele><time>2026-04-04T17:07:07.998Z</time></trkpt><trkpt lat="43.7228934164496" lon="10.882412398458678"><ele>23.2</ele><time>2026-04-04T17:07:10Z</time></trkpt><trkpt lat="43.72299209875011" lon="10.88230923891241"><ele>23.4</ele><time>2026-04-04T17:07:12Z</time></trkpt><trkpt lat="43.72308612711877" lon="10.882197778338288"><ele>23.599999999999998</ele><time>2026-04-04T17:07:14Z</time></trkpt><trkpt lat="43.72314009148423" lon="10.8821450754362"><ele>23.799999999999997</ele><time>2026-04-04T17:07:15Z</time></trkpt><trkpt lat="43.723197927587876" lon="10.88209297639301"><ele>24.0</ele><time>2026-04-04T17:07:16Z</time></trkpt><trkpt lat="43.72325291498343" lon="10.882039874750651"><ele>24.0</ele><time>2026-04-04T17:07:17Z</time></trkpt><trkpt lat="43.72330408163154" lon="10.88197675058928"><ele>24.0</ele><time>2026-04-04T17:07:18Z</time></trkpt><trkpt lat="43.72335752489428" lon="10.88191633624596"><ele>24.0</ele><time>2026-04-04T17:07:19Z</time></trkpt><trkpt lat="43.72341241917345" lon="10.881857684527708"><ele>24.0</ele><time>2026-04-04T17:07:20Z</time></trkpt><trkpt lat="43.72346425605997" lon="10.881806818166318"><ele>24.0</ele><time>2026-04-04T17:07:21Z</time></trkpt><trkpt lat="43.72351373226165" lon="10.881751872688948"><ele>24.0</ele><time>2026-04-04T17:07:22Z</time></trkpt><trkpt lat="43.72361339728353" lon="10.881644053770298"><ele>24.166666666666668</ele><time>2026-04-04T17:07:24Z</time></trkpt><trkpt lat="43.72366412472948" lon="10.881588822607162"><ele>24.333333333333336</ele><time>2026-04-04T17:07:25Z</time></trkpt><trkpt lat="43.72376313073678" lon="10.881490181673216"><ele>24.5</ele><time>2026-04-04T17:07:27Z</time></trkpt><trkpt lat="43.723811068835396" lon="10.881433131508187"><ele>24.666666666666668</ele><time>2026-04-04T17:07:28Z</time></trkpt><trkpt lat="43.723866310633916" lon="10.881383465561854"><ele>24.833333333333336</ele><time>2026-04-04T17:07:29Z</time></trkpt><trkpt lat="43.7239157852538" lon="10.881328374878438"><ele>25.0</ele><time>2026-04-04T17:07:30Z</time></trkpt><trkpt lat="43.72401421400659" lon="10.881222535148913"><ele>25.0</ele><time>2026-04-04T17:07:32Z</time></trkpt><trkpt lat="43.724114157528085" lon="10.881120395340982"><ele>25.0</ele><time>2026-04-04T17:07:34Z</time></trkpt><trkpt lat="43.72416739802577" lon="10.881070880213445"><ele>25.0</ele><time>2026-04-04T17:07:35Z</time></trkpt><trkpt lat="43.72422447221529" lon="10.88103388377175"><ele>25.0</ele><time>2026-04-04T17:07:36Z</time></trkpt><trkpt lat="43.72433781210279" lon="10.880987124294574"><ele>25.0</ele><time>2026-04-04T17:07:38Z</time></trkpt><trkpt lat="43.724459730706585" lon="10.880991942138234"><ele>25.0</ele><time>2026-04-04T17:07:40Z</time></trkpt><trkpt lat="43.72457769874921" lon="10.881030188551353"><ele>25.0</ele><time>2026-04-04T17:07:42Z</time></trkpt><trkpt lat="43.72464838339943" lon="10.881048093000674"><ele>25.0</ele><time>2026-04-04T17:07:43Z</time></trkpt><trkpt lat="43.72474554124452" lon="10.8811262184474"><ele>25.0</ele><time>2026-04-04T17:07:45Z</time></trkpt><trkpt lat="43.7248670998076" lon="10.881110833371453"><ele>25.0</ele><time>2026-04-04T17:07:47Z</time></trkpt><trkpt lat="43.72496173673031" lon="10.881050732365694"><ele>24.75</ele><time>2026-04-04T17:07:49Z</time></trkpt><trkpt lat="43.72504042284173" lon="10.88093183171217"><ele>24.5</ele><time>2026-04-04T17:07:51Z</time></trkpt><trkpt lat="43.7250686577767" lon="10.880783786964717"><ele>24.25</ele><time>2026-04-04T17:07:52.999Z</time></trkpt><trkpt lat="43.72505280368698" lon="10.880631123410863"><ele>24.0</ele><time>2026-04-04T17:07:54.999Z</time></trkpt><trkpt lat="43.72501366783607" lon="10.880484183656996"><ele>24.0</ele><time>2026-04-04T17:07:56.999Z</time></trkpt><trkpt lat="43.72494959734161" lon="10.88038136033979"><ele>24.0</ele><time>2026-04-04T17:07:58.999Z</time></trkpt><trkpt lat="43.72495038219895" lon="10.880191288690204"><ele>24.0</ele><time>2026-04-04T17:08:00.999Z</time></trkpt><trkpt lat="43.72492394223318" lon="10.880034847967584"><ele>24.0</ele><time>2026-04-04T17:08:02.999Z</time></trkpt><trkpt lat="43.72494503340951" lon="10.879878008315492"><ele>24.2</ele><time>2026-04-04T17:08:04.999Z</time></trkpt><trkpt lat="43.724943701666014" lon="10.879729196802577"><ele>24.4</ele><time>2026-04-04T17:08:06.999Z</time></trkpt><trkpt lat="43.72493451023048" lon="10.87957931913587"><ele>24.6</ele><time>2026-04-04T17:08:08.999Z</time></trkpt><trkpt lat="43.7249390433463" lon="10.87943561375413"><ele>24.8</ele><time>2026-04-04T17:08:10.999Z</time></trkpt><trkpt lat="43.72493259380738" lon="10.87928627021656"><ele>25.0</ele><time>2026-04-04T17:08:12.999Z</time></trkpt><trkpt lat="43.72490606208879" lon="10.879147384887661"><ele>25.0</ele><time>2026-04-04T17:08:14.999Z</time></trkpt><trkpt lat="43.72487516942238" lon="10.879003775419315"><ele>25.0</ele><time>2026-04-04T17:08:16.999Z</time></trkpt><trkpt lat="43.72484112501311" lon="10.878869435966857"><ele>25.0</ele><time>2026-04-04T17:08:18.999Z</time></trkpt><trkpt lat="43.7248010089651" lon="10.878733521978072"><ele>25.0</ele><time>2026-04-04T17:08:20.999Z</time></trkpt><trkpt lat="43.724767034333304" lon="10.878595112158534"><ele>25.0</ele><time>2026-04-04T17:08:22.999Z</time></trkpt><trkpt lat="43.72472847908226" lon="10.878453773700352"><ele>24.8</ele><time>2026-04-04T17:08:24.999Z</time></trkpt><trkpt lat="43.72469025496596" lon="10.878313391420953"><ele>24.6</ele><time>2026-04-04T17:08:26.999Z</time></trkpt><trkpt lat="43.72464942295077" lon="10.878175433552276"><ele>24.4</ele><time>2026-04-04T17:08:28.999Z</time></trkpt><trkpt lat="43.724618151512914" lon="10.878038875362352"><ele>24.2</ele><time>2026-04-04T17:08:30.999Z</time></trkpt><trkpt lat="43.72458588139072" lon="10.877904592142709"><ele>24.0</ele><time>2026-04-04T17:08:32.999Z</time></trkpt><trkpt lat="43.72454905448174" lon="10.877758921961078"><ele>24.0</ele><time>2026-04-04T17:08:34.999Z</time></trkpt><trkpt lat="43.724508663301826" lon="10.87762334222582"><ele>24.0</ele><time>2026-04-04T17:08:36.999Z</time></trkpt><trkpt lat="43.72447523211014" lon="10.877485218914416"><ele>24.0</ele><time>2026-04-04T17:08:38.999Z</time></trkpt><trkpt lat="43.724439326997754" lon="10.877345852088332"><ele>24.0</ele><time>2026-04-04T17:08:40.999Z</time></trkpt><trkpt lat="43.724404857964544" lon="10.877207947776164"><ele>24.0</ele><time>2026-04-04T17:08:42.998Z</time></trkpt><trkpt lat="43.72437110910478" lon="10.877075538901412"><ele>24.6</ele><time>2026-04-04T17:08:44.998Z</time></trkpt><trkpt lat="43.724335253231715" lon="10.876938914975254"><ele>25.2</ele><time>2026-04-04T17:08:46.998Z</time></trkpt><trkpt lat="43.7243008707783" lon="10.87680307570072"><ele>25.800000000000004</ele><time>2026-04-04T17:08:48.998Z</time></trkpt><trkpt lat="43.72426798961313" lon="10.876674201736973"><ele>26.400000000000002</ele><time>2026-04-04T17:08:50.998Z</time></trkpt><trkpt lat="43.72423060081887" lon="10.876540628906445"><ele>27.0</ele><time>2026-04-04T17:08:52.998Z</time></trkpt><trkpt lat="43.724194376209105" lon="10.876405379918916"><ele>27.200000000000003</ele><time>2026-04-04T17:08:54.998Z</time></trkpt><trkpt lat="43.7241612857007" lon="10.876270610983026"><ele>27.400000000000002</ele><time>2026-04-04T17:08:56.998Z</time></trkpt><trkpt lat="43.72412573500235" lon="10.876142490307258"><ele>27.599999999999998</ele><time>2026-04-04T17:08:58.998Z</time></trkpt><trkpt lat="43.72409936526513" lon="10.876013759626833"><ele>27.799999999999997</ele><time>2026-04-04T17:09:00.998Z</time></trkpt><trkpt lat="43.72406785743119" lon="10.875880420785457"><ele>28.0</ele><time>2026-04-04T17:09:02.998Z</time></trkpt><trkpt lat="43.72402917091591" lon="10.87574797351869"><ele>28.0</ele><time>2026-04-04T17:09:04.998Z</time></trkpt><trkpt lat="43.72399212375561" lon="10.875623566816905"><ele>27.999999999999996</ele><time>2026-04-04T17:09:06.998Z</time></trkpt><trkpt lat="43.72395694444224" lon="10.875493280651508"><ele>27.999999999999996</ele><time>2026-04-04T17:09:08.998Z</time></trkpt><trkpt lat="43.723924556547345" lon="10.875364259624945"><ele>28.0</ele><time>2026-04-04T17:09:10.998Z</time></trkpt><trkpt lat="43.723891638119326" lon="10.875236158119428"><ele>28.0</ele><time>2026-04-04T17:09:12.998Z</time></trkpt><trkpt lat="43.723865601784674" lon="10.875111230367871"><ele>27.599999999999998</ele><time>2026-04-04T17:09:14.998Z</time></trkpt><trkpt lat="43.72384525958803" lon="10.875023645358999"><ele>27.199999999999996</ele><time>2026-04-04T17:09:16Z</time></trkpt><trkpt lat="43.723805475591924" lon="10.874901539022796"><ele>26.8</ele><time>2026-04-04T17:09:18Z</time></trkpt><trkpt lat="43.72377178809268" lon="10.874774551015724"><ele>26.4</ele><time>2026-04-04T17:09:20Z</time></trkpt><trkpt lat="43.72373497571149" lon="10.874648645135965"><ele>26.0</ele><time>2026-04-04T17:09:22Z</time></trkpt><trkpt lat="43.723697866990975" lon="10.874526562344787"><ele>26.0</ele><time>2026-04-04T17:09:24Z</time></trkpt><trkpt lat="43.72366367190497" lon="10.874396079536139"><ele>26.0</ele><time>2026-04-04T17:09:26Z</time></trkpt><trkpt lat="43.72363303257021" lon="10.8742730283368"><ele>26.0</ele><time>2026-04-04T17:09:28Z</time></trkpt><trkpt lat="43.723606356473525" lon="10.874147559136254"><ele>26.0</ele><time>2026-04-04T17:09:30Z</time></trkpt><trkpt lat="43.723565727840665" lon="10.874020807459463"><ele>26.0</ele><time>2026-04-04T17:09:32Z</time></trkpt><trkpt lat="43.72353212664512" lon="10.873888337808353"><ele>26.200000000000003</ele><time>2026-04-04T17:09:34Z</time></trkpt><trkpt lat="43.72349690615957" lon="10.873754610053844"><ele>26.400000000000002</ele><time>2026-04-04T17:09:36Z</time></trkpt><trkpt lat="43.723465469599134" lon="10.87363583855624"><ele>26.6</ele><time>2026-04-04T17:09:38Z</time></trkpt><trkpt lat="43.72343067419542" lon="10.873501799158744"><ele>26.8</ele><time>2026-04-04T17:09:40Z</time></trkpt><trkpt lat="43.72339686883804" lon="10.873372796738751"><ele>27.0</ele><time>2026-04-04T17:09:42Z</time></trkpt><trkpt lat="43.723363753209505" lon="10.873241009635608"><ele>27.0</ele><time>2026-04-04T17:09:44Z</time></trkpt><trkpt lat="43.72332252069899" lon="10.873110109227913"><ele>27.000000000000004</ele><time>2026-04-04T17:09:46Z</time></trkpt><trkpt lat="43.72329690895758" lon="10.8729833449694"><ele>27.000000000000004</ele><time>2026-04-04T17:09:48Z</time></trkpt><trkpt lat="43.72326350288113" lon="10.872847797807735"><ele>27.0</ele><time>2026-04-04T17:09:50Z</time></trkpt><trkpt lat="43.723228473921985" lon="10.872716172299492"><ele>27.0</ele><time>2026-04-04T17:09:52Z</time></trkpt><trkpt lat="43.72319192284252" lon="10.872578656404052"><ele>27.0</ele><time>2026-04-04T17:09:54Z</time></trkpt><trkpt lat="43.723151405046266" lon="10.872449200033438"><ele>27.000000000000004</ele><time>2026-04-04T17:09:56Z</time></trkpt><trkpt lat="43.72311847299114" lon="10.872311497622048"><ele>27.000000000000004</ele><time>2026-04-04T17:09:58Z</time></trkpt><trkpt lat="43.723083226122085" lon="10.872174790080335"><ele>27.0</ele><time>2026-04-04T17:09:59.999Z</time></trkpt><trkpt lat="43.72304792057687" lon="10.872044544548768"><ele>27.0</ele><time>2026-04-04T17:10:01.999Z</time></trkpt><trkpt lat="43.723009513891" lon="10.871910804007555"><ele>27.0</ele><time>2026-04-04T17:10:03.999Z</time></trkpt><trkpt lat="43.722974376367205" lon="10.871781713864046"><ele>27.000000000000004</ele><time>2026-04-04T17:10:05.999Z</time></trkpt><trkpt lat="43.72293667726313" lon="10.871646707007898"><ele>27.000000000000004</ele><time>2026-04-04T17:10:07.999Z</time></trkpt><trkpt lat="43.72290033965271" lon="10.871517414091972"><ele>27.0</ele><time>2026-04-04T17:10:09.999Z</time></trkpt><trkpt lat="43.7228685992608" lon="10.871387283337778"><ele>27.0</ele><time>2026-04-04T17:10:11.999Z</time></trkpt><trkpt lat="43.722833796826606" lon="10.871252543598299"><ele>26.8</ele><time>2026-04-04T17:10:13.999Z</time></trkpt><trkpt lat="43.722793009782336" lon="10.871127491491862"><ele>26.6</ele><time>2026-04-04T17:10:15.999Z</time></trkpt><trkpt lat="43.72276721633764" lon="10.870985701523978"><ele>26.400000000000002</ele><time>2026-04-04T17:10:17.999Z</time></trkpt><trkpt lat="43.72273539692529" lon="10.870850300039717"><ele>26.200000000000003</ele><time>2026-04-04T17:10:19.999Z</time></trkpt><trkpt lat="43.722701056990815" lon="10.87071360188285"><ele>26.0</ele><time>2026-04-04T17:10:21.999Z</time></trkpt><trkpt lat="43.72266390004921" lon="10.870573894528725"><ele>26.0</ele><time>2026-04-04T17:10:23.999Z</time></trkpt><trkpt lat="43.7226220098913" lon="10.870438428222435"><ele>26.0</ele><time>2026-04-04T17:10:25.999Z</time></trkpt><trkpt lat="43.72258555502493" lon="10.870299626514774"><ele>26.0</ele><time>2026-04-04T17:10:27.999Z</time></trkpt><trkpt lat="43.72254576216749" lon="10.870159519102678"><ele>26.0</ele><time>2026-04-04T17:10:29.999Z</time></trkpt><trkpt lat="43.72251111000387" lon="10.870020299847148"><ele>26.0</ele><time>2026-04-04T17:10:31.999Z</time></trkpt><trkpt lat="43.722475914453824" lon="10.86988059927904"><ele>26.0</ele><time>2026-04-04T17:10:33.999Z</time></trkpt><trkpt lat="43.722435312491285" lon="10.869743893373451"><ele>26.0</ele><time>2026-04-04T17:10:35.999Z</time></trkpt><trkpt lat="43.72239442929529" lon="10.869601145323822"><ele>26.0</ele><time>2026-04-04T17:10:37.999Z</time></trkpt><trkpt lat="43.72235600333929" lon="10.869459470217992"><ele>26.0</ele><time>2026-04-04T17:10:39.999Z</time></trkpt><trkpt lat="43.72231922695908" lon="10.869320439651988"><ele>26.0</ele><time>2026-04-04T17:10:41.999Z</time></trkpt><trkpt lat="43.72228299329711" lon="10.86918151692694"><ele>26.0</ele><time>2026-04-04T17:10:43.999Z</time></trkpt><trkpt lat="43.722243713162186" lon="10.869041692034314"><ele>26.0</ele><time>2026-04-04T17:10:45.999Z</time></trkpt><trkpt lat="43.72220905109881" lon="10.868908516682605"><ele>26.0</ele><time>2026-04-04T17:10:47.999Z</time></trkpt><trkpt lat="43.7221716704703" lon="10.868778469143834"><ele>26.0</ele><time>2026-04-04T17:10:49.998Z</time></trkpt><trkpt lat="43.722131460608544" lon="10.868630089395273"><ele>26.0</ele><time>2026-04-04T17:10:51.998Z</time></trkpt><trkpt lat="43.722097742898065" lon="10.868498362058713"><ele>26.200000000000003</ele><time>2026-04-04T17:10:53.998Z</time></trkpt><trkpt lat="43.722064022693964" lon="10.868363636425949"><ele>26.400000000000002</ele><time>2026-04-04T17:10:55.998Z</time></trkpt><trkpt lat="43.722032121448784" lon="10.868229309899856"><ele>26.6</ele><time>2026-04-04T17:10:57.998Z</time></trkpt><trkpt lat="43.722002473266976" lon="10.868095458646518"><ele>26.8</ele><time>2026-04-04T17:10:59.998Z</time></trkpt><trkpt lat="43.7219711172231" lon="10.867960954827714"><ele>27.0</ele><time>2026-04-04T17:11:01.998Z</time></trkpt><trkpt lat="43.721931513957585" lon="10.867823845595394"><ele>26.6</ele><time>2026-04-04T17:11:03.998Z</time></trkpt><trkpt lat="43.72189318104673" lon="10.867693167474727"><ele>26.200000000000003</ele><time>2026-04-04T17:11:05.998Z</time></trkpt><trkpt lat="43.72185460848935" lon="10.867561013695072"><ele>25.8</ele><time>2026-04-04T17:11:07.998Z</time></trkpt><trkpt lat="43.7218199303679" lon="10.867423902612082"><ele>25.4</ele><time>2026-04-04T17:11:09.998Z</time></trkpt><trkpt lat="43.72178163755995" lon="10.867283604157638"><ele>25.0</ele><time>2026-04-04T17:11:11.998Z</time></trkpt><trkpt lat="43.721742790258666" lon="10.867146120773787"><ele>25.0</ele><time>2026-04-04T17:11:13.998Z</time></trkpt><trkpt lat="43.72170220450207" lon="10.867009301828263"><ele>25.0</ele><time>2026-04-04T17:11:15.998Z</time></trkpt><trkpt lat="43.721665694177595" lon="10.866871932701367"><ele>25.0</ele><time>2026-04-04T17:11:17.998Z</time></trkpt><trkpt lat="43.721624860193394" lon="10.866735274854028"><ele>25.0</ele><time>2026-04-04T17:11:19.998Z</time></trkpt><trkpt lat="43.72158993404911" lon="10.866598717251806"><ele>25.0</ele><time>2026-04-04T17:11:22Z</time></trkpt><trkpt lat="43.72155116392889" lon="10.866458291974366"><ele>25.2</ele><time>2026-04-04T17:11:24Z</time></trkpt><trkpt lat="43.72151529298357" lon="10.866321622118003"><ele>25.4</ele><time>2026-04-04T17:11:26Z</time></trkpt><trkpt lat="43.721476651040824" lon="10.866186526634635"><ele>25.6</ele><time>2026-04-04T17:11:28Z</time></trkpt><trkpt lat="43.72143736623322" lon="10.866048702027063"><ele>25.8</ele><time>2026-04-04T17:11:30Z</time></trkpt><trkpt lat="43.72140715566344" lon="10.865915459954548"><ele>26.0</ele><time>2026-04-04T17:11:32Z</time></trkpt><trkpt lat="43.72136898965691" lon="10.865780153190016"><ele>26.6</ele><time>2026-04-04T17:11:34Z</time></trkpt><trkpt lat="43.721331550130806" lon="10.865643394118718"><ele>27.200000000000003</ele><time>2026-04-04T17:11:36Z</time></trkpt><trkpt lat="43.72129962384807" lon="10.865503508932758"><ele>27.799999999999997</ele><time>2026-04-04T17:11:38Z</time></trkpt><trkpt lat="43.721260702319896" lon="10.865368321190699"><ele>28.4</ele><time>2026-04-04T17:11:40Z</time></trkpt><trkpt lat="43.72122502931501" lon="10.865227625996587"><ele>29.0</ele><time>2026-04-04T17:11:42Z</time></trkpt><trkpt lat="43.72118961637865" lon="10.865089087288872"><ele>29.2</ele><time>2026-04-04T17:11:44Z</time></trkpt><trkpt lat="43.721160844192596" lon="10.864945009480133"><ele>29.4</ele><time>2026-04-04T17:11:46Z</time></trkpt><trkpt lat="43.72113107257036" lon="10.864800257904312"><ele>29.6</ele><time>2026-04-04T17:11:48Z</time></trkpt><trkpt lat="43.72112059706866" lon="10.864658150122153"><ele>29.8</ele><time>2026-04-04T17:11:50Z</time></trkpt><trkpt lat="43.72110673864987" lon="10.864513337031784"><ele>30.0</ele><time>2026-04-04T17:11:52Z</time></trkpt><trkpt lat="43.72109576941915" lon="10.864374086204183"><ele>29.4</ele><time>2026-04-04T17:11:54Z</time></trkpt><trkpt lat="43.72109357461514" lon="10.864218051752516"><ele>28.8</ele><time>2026-04-04T17:11:56Z</time></trkpt><trkpt lat="43.721095584645596" lon="10.86406380117506"><ele>28.200000000000003</ele><time>2026-04-04T17:11:58Z</time></trkpt><trkpt lat="43.721096440240956" lon="10.863916353135114"><ele>27.6</ele><time>2026-04-04T17:12:00Z</time></trkpt><trkpt lat="43.721102280885425" lon="10.86376202812803"><ele>27.0</ele><time>2026-04-04T17:12:02Z</time></trkpt><trkpt lat="43.72110960695061" lon="10.86360890046906"><ele>27.0</ele><time>2026-04-04T17:12:04Z</time></trkpt><trkpt lat="43.72112407864979" lon="10.863453978586897"><ele>27.000000000000004</ele><time>2026-04-04T17:12:05.999Z</time></trkpt><trkpt lat="43.721133562785376" lon="10.863303573221872"><ele>27.000000000000004</ele><time>2026-04-04T17:12:07.999Z</time></trkpt><trkpt lat="43.721149188172404" lon="10.863151047126985"><ele>27.0</ele><time>2026-04-04T17:12:09.999Z</time></trkpt><trkpt lat="43.72116419711544" lon="10.862996989935148"><ele>27.0</ele><time>2026-04-04T17:12:11.999Z</time></trkpt><trkpt lat="43.721176613657256" lon="10.862850926372285"><ele>26.6</ele><time>2026-04-04T17:12:13.999Z</time></trkpt><trkpt lat="43.72118629237753" lon="10.862700779329895"><ele>26.200000000000003</ele><time>2026-04-04T17:12:15.999Z</time></trkpt><trkpt lat="43.72120395068826" lon="10.862552438752072"><ele>25.8</ele><time>2026-04-04T17:12:17.999Z</time></trkpt><trkpt lat="43.72121806303699" lon="10.862405732625579"><ele>25.4</ele><time>2026-04-04T17:12:19.999Z</time></trkpt><trkpt lat="43.72123383379056" lon="10.862258448557442"><ele>25.0</ele><time>2026-04-04T17:12:21.999Z</time></trkpt><trkpt lat="43.72124950130423" lon="10.862111902907913"><ele>24.6</ele><time>2026-04-04T17:12:23.999Z</time></trkpt><trkpt lat="43.72126759862141" lon="10.861964600490142"><ele>24.2</ele><time>2026-04-04T17:12:25.999Z</time></trkpt><trkpt lat="43.72128057197922" lon="10.861818048050676"><ele>23.799999999999997</ele><time>2026-04-04T17:12:27.999Z</time></trkpt><trkpt lat="43.721294903271136" lon="10.861671915873975"><ele>23.4</ele><time>2026-04-04T17:12:29.999Z</time></trkpt><trkpt lat="43.72130898733813" lon="10.86152923589907"><ele>23.0</ele><time>2026-04-04T17:12:31.999Z</time></trkpt><trkpt lat="43.72132644896328" lon="10.861383846953482"><ele>23.0</ele><time>2026-04-04T17:12:33.999Z</time></trkpt><trkpt lat="43.72134162129207" lon="10.861235843877227"><ele>23.0</ele><time>2026-04-04T17:12:35.999Z</time></trkpt><trkpt lat="43.72135437941153" lon="10.861088675096934"><ele>23.0</ele><time>2026-04-04T17:12:37.999Z</time></trkpt><trkpt lat="43.7213695773563" lon="10.860941050228272"><ele>23.0</ele><time>2026-04-04T17:12:39.999Z</time></trkpt><trkpt lat="43.72138572146246" lon="10.860791265817369"><ele>23.0</ele><time>2026-04-04T17:12:41.999Z</time></trkpt><trkpt lat="43.7213991041774" lon="10.860643365630743"><ele>23.0</ele><time>2026-04-04T17:12:43.999Z</time></trkpt><trkpt lat="43.721411884693524" lon="10.860496819350145"><ele>23.0</ele><time>2026-04-04T17:12:45.999Z</time></trkpt><trkpt lat="43.721426280294914" lon="10.860350294438398"><ele>23.0</ele><time>2026-04-04T17:12:47.999Z</time></trkpt><trkpt lat="43.721443401709294" lon="10.860200103733147"><ele>23.0</ele><time>2026-04-04T17:12:49.999Z</time></trkpt><trkpt lat="43.72146128747873" lon="10.860053526421453"><ele>23.0</ele><time>2026-04-04T17:12:51.999Z</time></trkpt><trkpt lat="43.72147870871949" lon="10.859902948411605"><ele>23.2</ele><time>2026-04-04T17:12:53.998Z</time></trkpt><trkpt lat="43.721489844715094" lon="10.859748527477226"><ele>23.4</ele><time>2026-04-04T17:12:55.998Z</time></trkpt><trkpt lat="43.72150945873639" lon="10.859598161133759"><ele>23.599999999999998</ele><time>2026-04-04T17:12:57.998Z</time></trkpt><trkpt lat="43.72152266642305" lon="10.859446774670195"><ele>23.799999999999997</ele><time>2026-04-04T17:12:59.998Z</time></trkpt><trkpt lat="43.72153679289427" lon="10.859305989834626"><ele>24.0</ele><time>2026-04-04T17:13:01.998Z</time></trkpt><trkpt lat="43.72155209803845" lon="10.859166552589183"><ele>24.0</ele><time>2026-04-04T17:13:03.998Z</time></trkpt><trkpt lat="43.721566349329585" lon="10.859028488978057"><ele>24.0</ele><time>2026-04-04T17:13:05.998Z</time></trkpt><trkpt lat="43.72158126066918" lon="10.85888688017203"><ele>24.0</ele><time>2026-04-04T17:13:07.998Z</time></trkpt><trkpt lat="43.721595714906144" lon="10.858743539005276"><ele>24.0</ele><time>2026-04-04T17:13:09.998Z</time></trkpt><trkpt lat="43.72161147715808" lon="10.85860013286628"><ele>24.0</ele><time>2026-04-04T17:13:11.998Z</time></trkpt><trkpt lat="43.72162408486529" lon="10.858449198739667"><ele>24.0</ele><time>2026-04-04T17:13:13.998Z</time></trkpt><trkpt lat="43.72163559284249" lon="10.858303391033967"><ele>24.0</ele><time>2026-04-04T17:13:15.998Z</time></trkpt><trkpt lat="43.7216466502057" lon="10.85815451958729"><ele>24.0</ele><time>2026-04-04T17:13:17.998Z</time></trkpt><trkpt lat="43.72166143084744" lon="10.85801109217188"><ele>24.0</ele><time>2026-04-04T17:13:19.998Z</time></trkpt><trkpt lat="43.721676461990185" lon="10.85786060056455"><ele>24.0</ele><time>2026-04-04T17:13:21.998Z</time></trkpt><trkpt lat="43.72169488654477" lon="10.857713799574212"><ele>24.0</ele><time>2026-04-04T17:13:23.998Z</time></trkpt><trkpt lat="43.72171312237867" lon="10.85756442132405"><ele>24.0</ele><time>2026-04-04T17:13:25.998Z</time></trkpt><trkpt lat="43.72172797041707" lon="10.8574153057344"><ele>24.0</ele><time>2026-04-04T17:13:28Z</time></trkpt><trkpt lat="43.72174129850168" lon="10.857264799795127"><ele>24.0</ele><time>2026-04-04T17:13:30Z</time></trkpt><trkpt lat="43.721751689553784" lon="10.857123891531312"><ele>24.0</ele><time>2026-04-04T17:13:32Z</time></trkpt><trkpt lat="43.72176836704866" lon="10.856977859065"><ele>24.0</ele><time>2026-04-04T17:13:34Z</time></trkpt><trkpt lat="43.721783364680135" lon="10.856825088569687"><ele>24.0</ele><time>2026-04-04T17:13:36Z</time></trkpt><trkpt lat="43.721795731534215" lon="10.856676143000279"><ele>24.0</ele><time>2026-04-04T17:13:38Z</time></trkpt><trkpt lat="43.72181223557345" lon="10.856519058270045"><ele>24.0</ele><time>2026-04-04T17:13:40Z</time></trkpt><trkpt lat="43.72182835647301" lon="10.856367331395967"><ele>24.0</ele><time>2026-04-04T17:13:42Z</time></trkpt><trkpt lat="43.72184386278105" lon="10.856216033284797"><ele>23.75</ele><time>2026-04-04T17:13:44Z</time></trkpt><trkpt lat="43.72185873417914" lon="10.856064635334379"><ele>23.5</ele><time>2026-04-04T17:13:46Z</time></trkpt><trkpt lat="43.721875063329215" lon="10.85590589446034"><ele>23.25</ele><time>2026-04-04T17:13:48Z</time></trkpt><trkpt lat="43.72189303454405" lon="10.855747463080311"><ele>23.0</ele><time>2026-04-04T17:13:50Z</time></trkpt><trkpt lat="43.72190863388465" lon="10.855585539411413"><ele>23.0</ele><time>2026-04-04T17:13:52Z</time></trkpt><trkpt lat="43.72192332618548" lon="10.855437381530924"><ele>23.0</ele><time>2026-04-04T17:13:54Z</time></trkpt><trkpt lat="43.72194079152092" lon="10.855281235783066"><ele>23.0</ele><time>2026-04-04T17:13:56Z</time></trkpt><trkpt lat="43.72195995386494" lon="10.85513523327558"><ele>23.0</ele><time>2026-04-04T17:13:58Z</time></trkpt><trkpt lat="43.72196524762897" lon="10.854974293453168"><ele>23.0</ele><time>2026-04-04T17:14:00Z</time></trkpt><trkpt lat="43.72198430938869" lon="10.854822922946676"><ele>23.0</ele><time>2026-04-04T17:14:02Z</time></trkpt><trkpt lat="43.72201091143287" lon="10.854669690130237"><ele>23.0</ele><time>2026-04-04T17:14:04Z</time></trkpt><trkpt lat="43.722029995879005" lon="10.85451063200011"><ele>23.0</ele><time>2026-04-04T17:14:06Z</time></trkpt><trkpt lat="43.72205459313746" lon="10.854361246296737"><ele>23.0</ele><time>2026-04-04T17:14:08Z</time></trkpt><trkpt lat="43.7220767958393" lon="10.854217515721366"><ele>23.0</ele><time>2026-04-04T17:14:10Z</time></trkpt><trkpt lat="43.72210453394194" lon="10.854064884432939"><ele>23.2</ele><time>2026-04-04T17:14:11.999Z</time></trkpt><trkpt lat="43.72213904171478" lon="10.853919403899692"><ele>23.4</ele><time>2026-04-04T17:14:13.999Z</time></trkpt><trkpt lat="43.72217184382121" lon="10.85377128754968"><ele>23.599999999999998</ele><time>2026-04-04T17:14:15.999Z</time></trkpt><trkpt lat="43.722209469135066" lon="10.853628182357214"><ele>23.799999999999997</ele><time>2026-04-04T17:14:17.999Z</time></trkpt><trkpt lat="43.72224650980851" lon="10.853476296337282"><ele>24.0</ele><time>2026-04-04T17:14:19.999Z</time></trkpt><trkpt lat="43.72228417633219" lon="10.853324992299669"><ele>24.25</ele><time>2026-04-04T17:14:21.999Z</time></trkpt><trkpt lat="43.72232263094638" lon="10.853175221695631"><ele>24.5</ele><time>2026-04-04T17:14:23.999Z</time></trkpt><trkpt lat="43.722357493856826" lon="10.853027109668776"><ele>24.75</ele><time>2026-04-04T17:14:25.999Z</time></trkpt><trkpt lat="43.72239384582588" lon="10.852881012381182"><ele>25.0</ele><time>2026-04-04T17:14:27.999Z</time></trkpt><trkpt lat="43.72243286796669" lon="10.85273583021008"><ele>25.0</ele><time>2026-04-04T17:14:29.999Z</time></trkpt><trkpt lat="43.722471670139385" lon="10.852585001043654"><ele>25.0</ele><time>2026-04-04T17:14:31.999Z</time></trkpt><trkpt lat="43.72250876342074" lon="10.85243632654383"><ele>25.0</ele><time>2026-04-04T17:14:33.999Z</time></trkpt><trkpt lat="43.72254449995866" lon="10.852289503311942"><ele>25.0</ele><time>2026-04-04T17:14:35.999Z</time></trkpt><trkpt lat="43.72257865592706" lon="10.852148220729323"><ele>25.0</ele><time>2026-04-04T17:14:37.999Z</time></trkpt><trkpt lat="43.72261545280287" lon="10.852008076425717"><ele>25.0</ele><time>2026-04-04T17:14:39.999Z</time></trkpt><trkpt lat="43.72265095108667" lon="10.851871762606304"><ele>25.0</ele><time>2026-04-04T17:14:41.999Z</time></trkpt><trkpt lat="43.72268433739745" lon="10.851731767222713"><ele>25.0</ele><time>2026-04-04T17:14:43.999Z</time></trkpt><trkpt lat="43.722720844684446" lon="10.851578728425377"><ele>25.0</ele><time>2026-04-04T17:14:45.999Z</time></trkpt><trkpt lat="43.72275157643366" lon="10.851435762770373"><ele>25.0</ele><time>2026-04-04T17:14:47.999Z</time></trkpt><trkpt lat="43.72278911450726" lon="10.851287392374143"><ele>25.0</ele><time>2026-04-04T17:14:49.999Z</time></trkpt><trkpt lat="43.722828468520945" lon="10.851133258358377"><ele>25.0</ele><time>2026-04-04T17:14:51.999Z</time></trkpt><trkpt lat="43.72286856219512" lon="10.850983137618108"><ele>25.0</ele><time>2026-04-04T17:14:53.999Z</time></trkpt><trkpt lat="43.722891329095795" lon="10.85090178680756"><ele>25.0</ele><time>2026-04-04T17:14:54.999Z</time></trkpt><trkpt lat="43.722932086433715" lon="10.850743704278866"><ele>25.0</ele><time>2026-04-04T17:14:56.999Z</time></trkpt><trkpt lat="43.72297272830485" lon="10.850588555481988"><ele>25.0</ele><time>2026-04-04T17:14:58.999Z</time></trkpt><trkpt lat="43.72301343712587" lon="10.850431560839313"><ele>25.0</ele><time>2026-04-04T17:15:00.998Z</time></trkpt><trkpt lat="43.72305422426208" lon="10.85028140190209"><ele>25.0</ele><time>2026-04-04T17:15:02.998Z</time></trkpt><trkpt lat="43.72309394610674" lon="10.85013388347772"><ele>25.0</ele><time>2026-04-04T17:15:04.998Z</time></trkpt><trkpt lat="43.72313202806898" lon="10.849986332082405"><ele>24.8</ele><time>2026-04-04T17:15:06.998Z</time></trkpt><trkpt lat="43.72317557470056" lon="10.849842639919261"><ele>24.6</ele><time>2026-04-04T17:15:08.998Z</time></trkpt><trkpt lat="43.72321288963685" lon="10.849705364514602"><ele>24.4</ele><time>2026-04-04T17:15:10.998Z</time></trkpt><trkpt lat="43.72324836099383" lon="10.84955626585369"><ele>24.2</ele><time>2026-04-04T17:15:12.998Z</time></trkpt><trkpt lat="43.72328500012333" lon="10.849411990342366"><ele>24.0</ele><time>2026-04-04T17:15:14.998Z</time></trkpt><trkpt lat="43.72332066059667" lon="10.849269352910968"><ele>24.0</ele><time>2026-04-04T17:15:16.998Z</time></trkpt><trkpt lat="43.72335151076731" lon="10.849125824174008"><ele>24.0</ele><time>2026-04-04T17:15:18.998Z</time></trkpt><trkpt lat="43.72338337938251" lon="10.848980723900018"><ele>24.0</ele><time>2026-04-04T17:15:20.998Z</time></trkpt><trkpt lat="43.72342019374519" lon="10.848834870180877"><ele>24.0</ele><time>2026-04-04T17:15:22.998Z</time></trkpt><trkpt lat="43.72345008259563" lon="10.848683880655454"><ele>24.0</ele><time>2026-04-04T17:15:24.998Z</time></trkpt><trkpt lat="43.72348582094395" lon="10.848534991448128"><ele>24.5</ele><time>2026-04-04T17:15:26.998Z</time></trkpt><trkpt lat="43.72352105553675" lon="10.848382885206862"><ele>25.0</ele><time>2026-04-04T17:15:28.998Z</time></trkpt><trkpt lat="43.72355254785246" lon="10.848231754273355"><ele>25.5</ele><time>2026-04-04T17:15:30.998Z</time></trkpt><trkpt lat="43.723587646309454" lon="10.848078836367776"><ele>26.0</ele><time>2026-04-04T17:15:32.998Z</time></trkpt><trkpt lat="43.72362090069542" lon="10.847921888111305"><ele>26.5</ele><time>2026-04-04T17:15:35Z</time></trkpt><trkpt lat="43.72365793002201" lon="10.84776391037251"><ele>27.0</ele><time>2026-04-04T17:15:37Z</time></trkpt><trkpt lat="43.723690445680816" lon="10.84760727029041"><ele>27.5</ele><time>2026-04-04T17:15:39Z</time></trkpt><trkpt lat="43.723723594747064" lon="10.84744850049053"><ele>28.0</ele><time>2026-04-04T17:15:41Z</time></trkpt><trkpt lat="43.723759008128184" lon="10.847294052798743"><ele>28.0</ele><time>2026-04-04T17:15:43Z</time></trkpt><trkpt lat="43.723792013009245" lon="10.847136560806604"><ele>28.0</ele><time>2026-04-04T17:15:45Z</time></trkpt><trkpt lat="43.72382914178599" lon="10.846975507465794"><ele>28.0</ele><time>2026-04-04T17:15:47Z</time></trkpt><trkpt lat="43.72386140832052" lon="10.846821193068392"><ele>28.0</ele><time>2026-04-04T17:15:49Z</time></trkpt><trkpt lat="43.7239011746365" lon="10.846673828784855"><ele>28.25</ele><time>2026-04-04T17:15:51Z</time></trkpt><trkpt lat="43.72393722265823" lon="10.846522364856913"><ele>28.5</ele><time>2026-04-04T17:15:53Z</time></trkpt><trkpt lat="43.723971609914486" lon="10.846377870926418"><ele>28.75</ele><time>2026-04-04T17:15:55Z</time></trkpt><trkpt lat="43.72400203605496" lon="10.846224622111643"><ele>29.0</ele><time>2026-04-04T17:15:57Z</time></trkpt><trkpt lat="43.724035138129345" lon="10.846075793612147"><ele>29.0</ele><time>2026-04-04T17:15:59Z</time></trkpt><trkpt lat="43.72406296153351" lon="10.8459188232244"><ele>29.0</ele><time>2026-04-04T17:16:01Z</time></trkpt><trkpt lat="43.72409171973052" lon="10.845762380301545"><ele>29.0</ele><time>2026-04-04T17:16:03Z</time></trkpt><trkpt lat="43.724122260520204" lon="10.845607699725006"><ele>29.0</ele><time>2026-04-04T17:16:05Z</time></trkpt><trkpt lat="43.7241520401866" lon="10.845454602173104"><ele>29.0</ele><time>2026-04-04T17:16:07Z</time></trkpt><trkpt lat="43.72418226937335" lon="10.84530144022052"><ele>29.0</ele><time>2026-04-04T17:16:09Z</time></trkpt><trkpt lat="43.72421189240112" lon="10.845142633583109"><ele>29.0</ele><time>2026-04-04T17:16:11Z</time></trkpt><trkpt lat="43.72423680993569" lon="10.844983847412838"><ele>29.0</ele><time>2026-04-04T17:16:13Z</time></trkpt><trkpt lat="43.7242564737264" lon="10.844819868761528"><ele>28.6</ele><time>2026-04-04T17:16:15Z</time></trkpt><trkpt lat="43.72427245079341" lon="10.844656964654705"><ele>28.2</ele><time>2026-04-04T17:16:16.999Z</time></trkpt><trkpt lat="43.724280286039225" lon="10.84456984826077"><ele>27.800000000000004</ele><time>2026-04-04T17:16:17.999Z</time></trkpt><trkpt lat="43.72429189870467" lon="10.844481907960432"><ele>27.400000000000002</ele><time>2026-04-04T17:16:18.999Z</time></trkpt><trkpt lat="43.72431293090149" lon="10.844309199165945"><ele>27.0</ele><time>2026-04-04T17:16:20.999Z</time></trkpt><trkpt lat="43.72432489806" lon="10.844146454300466"><ele>27.0</ele><time>2026-04-04T17:16:22.999Z</time></trkpt><trkpt lat="43.72433782763922" lon="10.843990545976927"><ele>27.0</ele><time>2026-04-04T17:16:24.999Z</time></trkpt><trkpt lat="43.724349020732255" lon="10.843829585079467"><ele>27.0</ele><time>2026-04-04T17:16:26.999Z</time></trkpt><trkpt lat="43.72436601540475" lon="10.843663329891795"><ele>27.0</ele><time>2026-04-04T17:16:28.999Z</time></trkpt><trkpt lat="43.724372059602224" lon="10.843501978116493"><ele>26.6</ele><time>2026-04-04T17:16:30.999Z</time></trkpt><trkpt lat="43.7243740689812" lon="10.843342156157403"><ele>26.200000000000003</ele><time>2026-04-04T17:16:32.999Z</time></trkpt><trkpt lat="43.72438157133334" lon="10.843174822660895"><ele>25.8</ele><time>2026-04-04T17:16:34.999Z</time></trkpt><trkpt lat="43.72438374624735" lon="10.84308586539023"><ele>25.4</ele><time>2026-04-04T17:16:35.999Z</time></trkpt><trkpt lat="43.72438981813826" lon="10.842923373058259"><ele>25.0</ele><time>2026-04-04T17:16:37.999Z</time></trkpt><trkpt lat="43.724395175666345" lon="10.842756855711103"><ele>24.5</ele><time>2026-04-04T17:16:39.999Z</time></trkpt><trkpt lat="43.724391203580076" lon="10.842590837352953"><ele>24.0</ele><time>2026-04-04T17:16:41.999Z</time></trkpt><trkpt lat="43.72439231151492" lon="10.84242929203799"><ele>23.5</ele><time>2026-04-04T17:16:43.999Z</time></trkpt><trkpt lat="43.72439075908455" lon="10.842255792818115"><ele>23.0</ele><time>2026-04-04T17:16:45.999Z</time></trkpt><trkpt lat="43.72438661361341" lon="10.84208303075092"><ele>23.0</ele><time>2026-04-04T17:16:47.999Z</time></trkpt><trkpt lat="43.72438210032112" lon="10.841992818732404"><ele>23.0</ele><time>2026-04-04T17:16:48.999Z</time></trkpt><trkpt lat="43.724376319783985" lon="10.841824581692618"><ele>23.0</ele><time>2026-04-04T17:16:50.999Z</time></trkpt><trkpt lat="43.724361469708796" lon="10.841653700299581"><ele>23.0</ele><time>2026-04-04T17:16:52.999Z</time></trkpt><trkpt lat="43.72435526921063" lon="10.841566273751031"><ele>23.0</ele><time>2026-04-04T17:16:53.999Z</time></trkpt><trkpt lat="43.72434466414561" lon="10.841474607241326"><ele>23.0</ele><time>2026-04-04T17:16:54.999Z</time></trkpt><trkpt lat="43.72434011923233" lon="10.841380214326477"><ele>23.0</ele><time>2026-04-04T17:16:55.999Z</time></trkpt><trkpt lat="43.72433335733411" lon="10.841287253939837"><ele>23.0</ele><time>2026-04-04T17:16:56.999Z</time></trkpt><trkpt lat="43.72432521288632" lon="10.841193424466153"><ele>23.0</ele><time>2026-04-04T17:16:57.999Z</time></trkpt><trkpt lat="43.72431385171756" lon="10.841098027197033"><ele>23.0</ele><time>2026-04-04T17:16:58.999Z</time></trkpt><trkpt lat="43.72430153529094" lon="10.841004080729343"><ele>23.0</ele><time>2026-04-04T17:16:59.999Z</time></trkpt><trkpt lat="43.7242903462143" lon="10.840912833890808"><ele>23.0</ele><time>2026-04-04T17:17:00.999Z</time></trkpt><trkpt lat="43.724283354410325" lon="10.84081953563927"><ele>23.0</ele><time>2026-04-04T17:17:01.999Z</time></trkpt><trkpt lat="43.72427366245203" lon="10.840727225277751"><ele>23.142857142857142</ele><time>2026-04-04T17:17:02.999Z</time></trkpt><trkpt lat="43.72425880714263" lon="10.840634531835011"><ele>23.285714285714285</ele><time>2026-04-04T17:17:03.998Z</time></trkpt><trkpt lat="43.72424578312394" lon="10.84054703354839"><ele>23.428571428571427</ele><time>2026-04-04T17:17:04.998Z</time></trkpt><trkpt lat="43.7242307957279" lon="10.84045651608297"><ele>23.57142857142857</ele><time>2026-04-04T17:17:05.998Z</time></trkpt><trkpt lat="43.72421592034931" lon="10.840367179021605"><ele>23.714285714285715</ele><time>2026-04-04T17:17:06.998Z</time></trkpt><trkpt lat="43.724197728041" lon="10.840277838205461"><ele>23.857142857142854</ele><time>2026-04-04T17:17:07.998Z</time></trkpt><trkpt lat="43.72418131203402" lon="10.840181985575265"><ele>24.0</ele><time>2026-04-04T17:17:08.998Z</time></trkpt><trkpt lat="43.72417068815519" lon="10.84009280889688"><ele>24.142857142857142</ele><time>2026-04-04T17:17:09.998Z</time></trkpt><trkpt lat="43.72415392180709" lon="10.839998038291942"><ele>24.285714285714285</ele><time>2026-04-04T17:17:10.998Z</time></trkpt><trkpt lat="43.72413344178443" lon="10.83991062502997"><ele>24.42857142857143</ele><time>2026-04-04T17:17:11.998Z</time></trkpt><trkpt lat="43.72411388863169" lon="10.839821947298926"><ele>24.57142857142857</ele><time>2026-04-04T17:17:12.998Z</time></trkpt><trkpt lat="43.72409150287783" lon="10.839723503138751"><ele>24.714285714285715</ele><time>2026-04-04T17:17:13.998Z</time></trkpt><trkpt lat="43.7240742050939" lon="10.839636283150316"><ele>24.857142857142858</ele><time>2026-04-04T17:17:14.998Z</time></trkpt><trkpt lat="43.724052689890705" lon="10.83954450543389"><ele>25.0</ele><time>2026-04-04T17:17:15.998Z</time></trkpt><trkpt lat="43.724031498512154" lon="10.83945637832475"><ele>25.000000000000004</ele><time>2026-04-04T17:17:16.998Z</time></trkpt><trkpt lat="43.72400984931983" lon="10.839367674609305"><ele>25.0</ele><time>2026-04-04T17:17:17.998Z</time></trkpt><trkpt lat="43.72398861859025" lon="10.839281516255518"><ele>25.0</ele><time>2026-04-04T17:17:18.998Z</time></trkpt><trkpt lat="43.72396610358975" lon="10.839193884663032"><ele>25.0</ele><time>2026-04-04T17:17:19.998Z</time></trkpt><trkpt lat="43.723945767929386" lon="10.839108694098702"><ele>25.0</ele><time>2026-04-04T17:17:20.998Z</time></trkpt><trkpt lat="43.72392172456674" lon="10.839018314394645"><ele>25.000000000000004</ele><time>2026-04-04T17:17:21.998Z</time></trkpt><trkpt lat="43.72389500448443" lon="10.838930823208774"><ele>25.0</ele><time>2026-04-04T17:17:22.998Z</time></trkpt><trkpt lat="43.72387095619123" lon="10.838843185962151"><ele>25.142857142857146</ele><time>2026-04-04T17:17:23.998Z</time></trkpt><trkpt lat="43.723843409110216" lon="10.838758658533498"><ele>25.285714285714285</ele><time>2026-04-04T17:17:24.998Z</time></trkpt><trkpt lat="43.723818025469264" lon="10.838671200112618"><ele>25.42857142857143</ele><time>2026-04-04T17:17:25.998Z</time></trkpt><trkpt lat="43.72379081205518" lon="10.838589809774215"><ele>25.571428571428573</ele><time>2026-04-04T17:17:26.998Z</time></trkpt><trkpt lat="43.723765446640094" lon="10.838503413073601"><ele>25.714285714285715</ele><time>2026-04-04T17:17:27.998Z</time></trkpt><trkpt lat="43.72373623169804" lon="10.838414996629105"><ele>25.857142857142858</ele><time>2026-04-04T17:17:28.998Z</time></trkpt><trkpt lat="43.72370913671828" lon="10.838332939305285"><ele>26.0</ele><time>2026-04-04T17:17:29.998Z</time></trkpt><trkpt lat="43.72367874727972" lon="10.838253397590034"><ele>25.6</ele><time>2026-04-04T17:17:30.998Z</time></trkpt><trkpt lat="43.723650732102115" lon="10.83817264210534"><ele>25.200000000000003</ele><time>2026-04-04T17:17:31.998Z</time></trkpt><trkpt lat="43.72359855578594" lon="10.83801507040208"><ele>24.799999999999997</ele><time>2026-04-04T17:17:33.998Z</time></trkpt><trkpt lat="43.723544965824026" lon="10.837865628228231"><ele>24.4</ele><time>2026-04-04T17:17:35.998Z</time></trkpt><trkpt lat="43.723486699113614" lon="10.837716307684222"><ele>24.0</ele><time>2026-04-04T17:17:37.998Z</time></trkpt><trkpt lat="43.723454809441925" lon="10.8376411017919"><ele>24.0</ele><time>2026-04-04T17:17:38.998Z</time></trkpt><trkpt lat="43.7233939922799" lon="10.837499011229651"><ele>24.0</ele><time>2026-04-04T17:17:41Z</time></trkpt><trkpt lat="43.72333413557218" lon="10.837361019624513"><ele>24.0</ele><time>2026-04-04T17:17:43Z</time></trkpt><trkpt lat="43.723264986382986" lon="10.837220257265503"><ele>24.0</ele><time>2026-04-04T17:17:45Z</time></trkpt><trkpt lat="43.7231961033574" lon="10.837072034399132"><ele>24.0</ele><time>2026-04-04T17:17:47Z</time></trkpt><trkpt lat="43.72315888855181" lon="10.8369992879351"><ele>24.0</ele><time>2026-04-04T17:17:48Z</time></trkpt><trkpt lat="43.72311620440258" lon="10.836923054824924"><ele>24.0</ele><time>2026-04-04T17:17:49Z</time></trkpt><trkpt lat="43.723048596952864" lon="10.836773928099376"><ele>24.0</ele><time>2026-04-04T17:17:51Z</time></trkpt><trkpt lat="43.723008689898" lon="10.836692627795909"><ele>24.0</ele><time>2026-04-04T17:17:52Z</time></trkpt><trkpt lat="43.72294998839287" lon="10.836549515758882"><ele>24.0</ele><time>2026-04-04T17:17:54Z</time></trkpt><trkpt lat="43.722882622402366" lon="10.836420237771858"><ele>24.0</ele><time>2026-04-04T17:17:56Z</time></trkpt><trkpt lat="43.7228114724405" lon="10.836276808606193"><ele>24.0</ele><time>2026-04-04T17:17:58Z</time></trkpt><trkpt lat="43.72274251470949" lon="10.836136054070309"><ele>24.0</ele><time>2026-04-04T17:18:00Z</time></trkpt><trkpt lat="43.722673229861144" lon="10.835999699526393"><ele>24.0</ele><time>2026-04-04T17:18:02Z</time></trkpt><trkpt lat="43.72261048110114" lon="10.835858593841763"><ele>24.0</ele><time>2026-04-04T17:18:04Z</time></trkpt><trkpt lat="43.722544440571966" lon="10.83572378420432"><ele>24.0</ele><time>2026-04-04T17:18:06Z</time></trkpt><trkpt lat="43.722482563383274" lon="10.835583793071791"><ele>24.0</ele><time>2026-04-04T17:18:08Z</time></trkpt><trkpt lat="43.72242518941198" lon="10.835442943442388"><ele>24.0</ele><time>2026-04-04T17:18:10Z</time></trkpt><trkpt lat="43.72238541519666" lon="10.835297327590991"><ele>24.0</ele><time>2026-04-04T17:18:12Z</time></trkpt><trkpt lat="43.72234907680296" lon="10.835149974045848"><ele>24.0</ele><time>2026-04-04T17:18:14Z</time></trkpt><trkpt lat="43.72232620029115" lon="10.83500281843326"><ele>24.0</ele><time>2026-04-04T17:18:16Z</time></trkpt><trkpt lat="43.72231233732702" lon="10.834849539070929"><ele>24.0</ele><time>2026-04-04T17:18:18Z</time></trkpt><trkpt lat="43.722309598597676" lon="10.8347077230248"><ele>24.4</ele><time>2026-04-04T17:18:20Z</time></trkpt><trkpt lat="43.722317524276704" lon="10.834565927716138"><ele>24.799999999999997</ele><time>2026-04-04T17:18:21.999Z</time></trkpt><trkpt lat="43.72233418591825" lon="10.834425643482485"><ele>25.200000000000003</ele><time>2026-04-04T17:18:23.999Z</time></trkpt><trkpt lat="43.72235691511066" lon="10.83428579992819"><ele>25.6</ele><time>2026-04-04T17:18:25.999Z</time></trkpt><trkpt lat="43.72238224365423" lon="10.834147850422907"><ele>26.0</ele><time>2026-04-04T17:18:27.999Z</time></trkpt><trkpt lat="43.72240762840691" lon="10.834011504570583"><ele>26.0</ele><time>2026-04-04T17:18:29.999Z</time></trkpt><trkpt lat="43.722430348125506" lon="10.833869572450189"><ele>26.0</ele><time>2026-04-04T17:18:31.999Z</time></trkpt><trkpt lat="43.72245806437571" lon="10.833727150723423"><ele>26.0</ele><time>2026-04-04T17:18:33.999Z</time></trkpt><trkpt lat="43.722483863898006" lon="10.833584567174086"><ele>26.0</ele><time>2026-04-04T17:18:35.999Z</time></trkpt><trkpt lat="43.72250953626211" lon="10.833440153350528"><ele>26.0</ele><time>2026-04-04T17:18:37.999Z</time></trkpt><trkpt lat="43.72253715307575" lon="10.833292029613729"><ele>25.75</ele><time>2026-04-04T17:18:39.999Z</time></trkpt><trkpt lat="43.72256830740702" lon="10.833142013733138"><ele>25.5</ele><time>2026-04-04T17:18:41.999Z</time></trkpt><trkpt lat="43.722595596646315" lon="10.832988860364946"><ele>25.25</ele><time>2026-04-04T17:18:43.999Z</time></trkpt><trkpt lat="43.722621729441904" lon="10.83283409956781"><ele>25.0</ele><time>2026-04-04T17:18:45.999Z</time></trkpt><trkpt lat="43.72264622478355" lon="10.832682612405717"><ele>24.8</ele><time>2026-04-04T17:18:47.999Z</time></trkpt><trkpt lat="43.722671294902504" lon="10.832529781421377"><ele>24.6</ele><time>2026-04-04T17:18:49.999Z</time></trkpt><trkpt lat="43.72269710486967" lon="10.83238230347488"><ele>24.4</ele><time>2026-04-04T17:18:51.999Z</time></trkpt><trkpt lat="43.722726897342284" lon="10.832232263980277"><ele>24.2</ele><time>2026-04-04T17:18:53.999Z</time></trkpt><trkpt lat="43.722753120843855" lon="10.832085139136513"><ele>24.0</ele><time>2026-04-04T17:18:55.999Z</time></trkpt><trkpt lat="43.722779959259775" lon="10.831934621181423"><ele>24.5</ele><time>2026-04-04T17:18:57.999Z</time></trkpt><trkpt lat="43.72281108051905" lon="10.831782372463296"><ele>25.0</ele><time>2026-04-04T17:18:59.999Z</time></trkpt><trkpt lat="43.72283687494249" lon="10.831624066879359"><ele>25.5</ele><time>2026-04-04T17:19:01.999Z</time></trkpt><trkpt lat="43.72286925327929" lon="10.831467209303325"><ele>26.0</ele><time>2026-04-04T17:19:03.999Z</time></trkpt><trkpt lat="43.72289593141739" lon="10.831311066334782"><ele>26.0</ele><time>2026-04-04T17:19:05.999Z</time></trkpt><trkpt lat="43.7229247976801" lon="10.831154446466618"><ele>26.0</ele><time>2026-04-04T17:19:07.998Z</time></trkpt><trkpt lat="43.72295240672112" lon="10.831000784637096"><ele>26.0</ele><time>2026-04-04T17:19:09.998Z</time></trkpt><trkpt lat="43.722980440407895" lon="10.830840603617022"><ele>26.0</ele><time>2026-04-04T17:19:11.998Z</time></trkpt><trkpt lat="43.72301254916048" lon="10.830684049272099"><ele>25.5</ele><time>2026-04-04T17:19:13.998Z</time></trkpt><trkpt lat="43.723047285995754" lon="10.830528421269893"><ele>25.0</ele><time>2026-04-04T17:19:15.998Z</time></trkpt><trkpt lat="43.72307648835662" lon="10.830369549545217"><ele>24.5</ele><time>2026-04-04T17:19:17.998Z</time></trkpt><trkpt lat="43.723105346601585" lon="10.830213765739627"><ele>24.0</ele><time>2026-04-04T17:19:19.998Z</time></trkpt><trkpt lat="43.72312736059331" lon="10.83006539085565"><ele>23.799999999999997</ele><time>2026-04-04T17:19:21.998Z</time></trkpt><trkpt lat="43.72315938166014" lon="10.829908365686567"><ele>23.599999999999998</ele><time>2026-04-04T17:19:23.998Z</time></trkpt><trkpt lat="43.72318586393885" lon="10.82975788040661"><ele>23.4</ele><time>2026-04-04T17:19:25.998Z</time></trkpt><trkpt lat="43.7232118484921" lon="10.829608090949407"><ele>23.2</ele><time>2026-04-04T17:19:27.998Z</time></trkpt><trkpt lat="43.723237316488834" lon="10.829465956285322"><ele>23.0</ele><time>2026-04-04T17:19:29.998Z</time></trkpt><trkpt lat="43.72326806176988" lon="10.829320407636288"><ele>23.0</ele><time>2026-04-04T17:19:31.998Z</time></trkpt><trkpt lat="43.723286020249176" lon="10.829183471756092"><ele>23.0</ele><time>2026-04-04T17:19:33.998Z</time></trkpt><trkpt lat="43.72331204716714" lon="10.829044734237574"><ele>23.0</ele><time>2026-04-04T17:19:35.998Z</time></trkpt><trkpt lat="43.72333405558092" lon="10.828906135231662"><ele>23.0</ele><time>2026-04-04T17:19:37.998Z</time></trkpt><trkpt lat="43.72335344258514" lon="10.828757501629282"><ele>23.0</ele><time>2026-04-04T17:19:39.998Z</time></trkpt><trkpt lat="43.723379751052406" lon="10.828616174403368"><ele>23.0</ele><time>2026-04-04T17:19:41.998Z</time></trkpt><trkpt lat="43.72339915853182" lon="10.828474489837216"><ele>23.0</ele><time>2026-04-04T17:19:43.998Z</time></trkpt><trkpt lat="43.723425114437" lon="10.828336593692605"><ele>23.0</ele><time>2026-04-04T17:19:46Z</time></trkpt><trkpt lat="43.723449732284536" lon="10.828199914883806"><ele>23.0</ele><time>2026-04-04T17:19:48Z</time></trkpt><trkpt lat="43.723469353687456" lon="10.828062805318602"><ele>23.0</ele><time>2026-04-04T17:19:50Z</time></trkpt><trkpt lat="43.72349455792002" lon="10.827922057957942"><ele>23.0</ele><time>2026-04-04T17:19:52Z</time></trkpt><trkpt lat="43.72352026154958" lon="10.82778134678063"><ele>23.0</ele><time>2026-04-04T17:19:54Z</time></trkpt><trkpt lat="43.72354530444045" lon="10.82763929012519"><ele>23.0</ele><time>2026-04-04T17:19:56Z</time></trkpt><trkpt lat="43.723573733450394" lon="10.827493317300597"><ele>23.0</ele><time>2026-04-04T17:19:58Z</time></trkpt><trkpt lat="43.72359470866067" lon="10.82735429406422"><ele>23.0</ele><time>2026-04-04T17:20:00Z</time></trkpt><trkpt lat="43.72361946668413" lon="10.827206688295675"><ele>22.799999999999997</ele><time>2026-04-04T17:20:02Z</time></trkpt><trkpt lat="43.72364877794282" lon="10.827051718833285"><ele>22.6</ele><time>2026-04-04T17:20:04Z</time></trkpt><trkpt lat="43.72367517361519" lon="10.826902752815963"><ele>22.4</ele><time>2026-04-04T17:20:06Z</time></trkpt><trkpt lat="43.72370318291" lon="10.826756157658519"><ele>22.200000000000003</ele><time>2026-04-04T17:20:08Z</time></trkpt><trkpt lat="43.72372936929291" lon="10.826605992180188"><ele>22.0</ele><time>2026-04-04T17:20:10Z</time></trkpt><trkpt lat="43.72375316301152" lon="10.826457140876334"><ele>21.8</ele><time>2026-04-04T17:20:12Z</time></trkpt><trkpt lat="43.72377811239322" lon="10.826307493201291"><ele>21.6</ele><time>2026-04-04T17:20:14Z</time></trkpt><trkpt lat="43.7238037344941" lon="10.826159193813083"><ele>21.400000000000002</ele><time>2026-04-04T17:20:16Z</time></trkpt><trkpt lat="43.7238295372145" lon="10.826013071543278"><ele>21.200000000000003</ele><time>2026-04-04T17:20:18Z</time></trkpt><trkpt lat="43.723855369558876" lon="10.825866590472485"><ele>21.0</ele><time>2026-04-04T17:20:20Z</time></trkpt><trkpt lat="43.72388140976928" lon="10.82571981206787"><ele>20.8</ele><time>2026-04-04T17:20:22Z</time></trkpt><trkpt lat="43.72390830300158" lon="10.825572885743371"><ele>20.6</ele><time>2026-04-04T17:20:24Z</time></trkpt><trkpt lat="43.723934692288026" lon="10.82542408305781"><ele>20.4</ele><time>2026-04-04T17:20:25.999Z</time></trkpt><trkpt lat="43.72396095656473" lon="10.825276864389286"><ele>20.2</ele><time>2026-04-04T17:20:27.999Z</time></trkpt><trkpt lat="43.72398698131863" lon="10.825135073758132"><ele>20.0</ele><time>2026-04-04T17:20:29.999Z</time></trkpt><trkpt lat="43.724013229525" lon="10.82498785379747"><ele>20.0</ele><time>2026-04-04T17:20:31.999Z</time></trkpt><trkpt lat="43.7240397070459" lon="10.824839076859353"><ele>20.0</ele><time>2026-04-04T17:20:33.999Z</time></trkpt><trkpt lat="43.72406612344105" lon="10.824691068906489"><ele>20.0</ele><time>2026-04-04T17:20:35.999Z</time></trkpt><trkpt lat="43.72409172892252" lon="10.824540773308877"><ele>20.0</ele><time>2026-04-04T17:20:37.999Z</time></trkpt><trkpt lat="43.72411894610293" lon="10.824389630251355"><ele>20.0</ele><time>2026-04-04T17:20:39.999Z</time></trkpt><trkpt lat="43.72414273939535" lon="10.824239464568688"><ele>20.0</ele><time>2026-04-04T17:20:41.999Z</time></trkpt><trkpt lat="43.72416858931696" lon="10.82408956207507"><ele>20.0</ele><time>2026-04-04T17:20:43.999Z</time></trkpt><trkpt lat="43.72419276620669" lon="10.823941819906068"><ele>20.0</ele><time>2026-04-04T17:20:45.999Z</time></trkpt><trkpt lat="43.724219333036665" lon="10.823790606749256"><ele>20.0</ele><time>2026-04-04T17:20:47.999Z</time></trkpt><trkpt lat="43.72424167638203" lon="10.823638570413657"><ele>20.0</ele><time>2026-04-04T17:20:49.999Z</time></trkpt><trkpt lat="43.72426723394664" lon="10.823488082931945"><ele>20.25</ele><time>2026-04-04T17:20:51.999Z</time></trkpt><trkpt lat="43.72429931625241" lon="10.823338760585852"><ele>20.5</ele><time>2026-04-04T17:20:53.999Z</time></trkpt><trkpt lat="43.7243284559619" lon="10.823182762660101"><ele>20.75</ele><time>2026-04-04T17:20:55.999Z</time></trkpt><trkpt lat="43.72436255291172" lon="10.82304038708848"><ele>21.0</ele><time>2026-04-04T17:20:57.999Z</time></trkpt><trkpt lat="43.72439327016554" lon="10.822889636007469"><ele>21.166666666666668</ele><time>2026-04-04T17:20:59.999Z</time></trkpt><trkpt lat="43.72442050754136" lon="10.822746549055095"><ele>21.333333333333332</ele><time>2026-04-04T17:21:01.999Z</time></trkpt><trkpt lat="43.724473158116496" lon="10.822623252978534"><ele>21.5</ele><time>2026-04-04T17:21:03.999Z</time></trkpt><trkpt lat="43.7245312672405" lon="10.822559404555705"><ele>21.666666666666664</ele><time>2026-04-04T17:21:05.999Z</time></trkpt><trkpt lat="43.724582919237534" lon="10.8224902620091"><ele>21.833333333333332</ele><time>2026-04-04T17:21:08.999Z</time></trkpt><trkpt lat="43.72466707628561" lon="10.8224751224924"><ele>22.0</ele><time>2026-04-04T17:21:11.999Z</time></trkpt><trkpt lat="43.72473646502185" lon="10.822437241826291"><ele>21.6</ele><time>2026-04-04T17:21:14.998Z</time></trkpt><trkpt lat="43.724802982022375" lon="10.82235779804313"><ele>21.200000000000003</ele><time>2026-04-04T17:21:17.998Z</time></trkpt><trkpt lat="43.724862543272835" lon="10.822274428684791"><ele>20.8</ele><time>2026-04-04T17:21:19.998Z</time></trkpt><trkpt lat="43.724902912549034" lon="10.822163873088526"><ele>20.4</ele><time>2026-04-04T17:21:21.998Z</time></trkpt><trkpt lat="43.724921310873775" lon="10.822031962836839"><ele>20.0</ele><time>2026-04-04T17:21:23.998Z</time></trkpt><trkpt lat="43.72488940111866" lon="10.821897578269798"><ele>20.2</ele><time>2026-04-04T17:21:25.998Z</time></trkpt><trkpt lat="43.724816254958355" lon="10.821795061319575"><ele>20.4</ele><time>2026-04-04T17:21:27.998Z</time></trkpt><trkpt lat="43.724726558508394" lon="10.821731702803747"><ele>20.6</ele><time>2026-04-04T17:21:29.998Z</time></trkpt><trkpt lat="43.72465447441105" lon="10.821698264586948"><ele>20.8</ele><time>2026-04-04T17:21:31.998Z</time></trkpt><trkpt lat="43.724668523001405" lon="10.821467615325066"><ele>21.0</ele><time>2026-04-04T17:21:32.998Z</time></trkpt><trkpt lat="43.72470528435158" lon="10.821312964282892"><ele>21.0</ele><time>2026-04-04T17:21:34.998Z</time></trkpt><trkpt lat="43.72472349000898" lon="10.821155124235288"><ele>21.0</ele><time>2026-04-04T17:21:36.998Z</time></trkpt><trkpt lat="43.72474036843441" lon="10.820998191834393"><ele>21.0</ele><time>2026-04-04T17:21:38.998Z</time></trkpt><trkpt lat="43.72475671850821" lon="10.820834549560871"><ele>21.0</ele><time>2026-04-04T17:21:40.998Z</time></trkpt><trkpt lat="43.72477404128056" lon="10.820678623252638"><ele>21.0</ele><time>2026-04-04T17:21:42.998Z</time></trkpt><trkpt lat="43.72480078097829" lon="10.82052641758158"><ele>21.0</ele><time>2026-04-04T17:21:44.998Z</time></trkpt><trkpt lat="43.7248289186854" lon="10.820374919762013"><ele>21.0</ele><time>2026-04-04T17:21:46.998Z</time></trkpt><trkpt lat="43.72486086482968" lon="10.82022377859507"><ele>21.0</ele><time>2026-04-04T17:21:48.998Z</time></trkpt><trkpt lat="43.72488319881338" lon="10.820064525357866"><ele>21.0</ele><time>2026-04-04T17:21:50.998Z</time></trkpt><trkpt lat="43.72490596155952" lon="10.819915728843283"><ele>21.0</ele><time>2026-04-04T17:21:53Z</time></trkpt><trkpt lat="43.72493780135894" lon="10.819775260812438"><ele>21.0</ele><time>2026-04-04T17:21:55Z</time></trkpt><trkpt lat="43.724948448437026" lon="10.8196848742097"><ele>21.0</ele><time>2026-04-04T17:21:56Z</time></trkpt><trkpt lat="43.72496967800417" lon="10.81953702744861"><ele>21.0</ele><time>2026-04-04T17:21:58Z</time></trkpt><trkpt lat="43.725001955047134" lon="10.819396701445807"><ele>21.25</ele><time>2026-04-04T17:22:00Z</time></trkpt><trkpt lat="43.72502968088593" lon="10.819244330371609"><ele>21.5</ele><time>2026-04-04T17:22:02Z</time></trkpt><trkpt lat="43.72505189347788" lon="10.81909249081254"><ele>21.75</ele><time>2026-04-04T17:22:04Z</time></trkpt><trkpt lat="43.72507892064114" lon="10.818941527237872"><ele>22.0</ele><time>2026-04-04T17:22:06Z</time></trkpt><trkpt lat="43.72511225983837" lon="10.818790068922745"><ele>22.0</ele><time>2026-04-04T17:22:08Z</time></trkpt><trkpt lat="43.72514004643953" lon="10.818637821891755"><ele>22.0</ele><time>2026-04-04T17:22:10Z</time></trkpt><trkpt lat="43.72516600607739" lon="10.818477828006746"><ele>22.0</ele><time>2026-04-04T17:22:12Z</time></trkpt><trkpt lat="43.725203213809685" lon="10.818339401239788"><ele>22.0</ele><time>2026-04-04T17:22:14Z</time></trkpt><trkpt lat="43.72521898936226" lon="10.81825281613521"><ele>22.0</ele><time>2026-04-04T17:22:15Z</time></trkpt><trkpt lat="43.72524807467003" lon="10.81810592813616"><ele>22.400000000000002</ele><time>2026-04-04T17:22:17Z</time></trkpt><trkpt lat="43.72527243119437" lon="10.817961013273507"><ele>22.8</ele><time>2026-04-04T17:22:19Z</time></trkpt><trkpt lat="43.725294058007094" lon="10.817815412937422"><ele>23.2</ele><time>2026-04-04T17:22:21Z</time></trkpt><trkpt lat="43.72532952381407" lon="10.81766305137744"><ele>23.6</ele><time>2026-04-04T17:22:23Z</time></trkpt><trkpt lat="43.72534833763152" lon="10.817518103892187"><ele>24.0</ele><time>2026-04-04T17:22:25Z</time></trkpt><trkpt lat="43.725376173716036" lon="10.817366610321406"><ele>24.0</ele><time>2026-04-04T17:22:27Z</time></trkpt><trkpt lat="43.72540014203893" lon="10.81722321016271"><ele>24.0</ele><time>2026-04-04T17:22:29Z</time></trkpt><trkpt lat="43.725419354321026" lon="10.817095614055143"><ele>24.0</ele><time>2026-04-04T17:22:30.999Z</time></trkpt><trkpt lat="43.725446418056315" lon="10.816957325472574"><ele>24.0</ele><time>2026-04-04T17:22:32.999Z</time></trkpt><trkpt lat="43.72546143804709" lon="10.816809511607666"><ele>24.0</ele><time>2026-04-04T17:22:34.999Z</time></trkpt><trkpt lat="43.72548804146065" lon="10.816660322260196"><ele>23.6</ele><time>2026-04-04T17:22:36.999Z</time></trkpt><trkpt lat="43.725518246023405" lon="10.816509895991695"><ele>23.2</ele><time>2026-04-04T17:22:38.999Z</time></trkpt><trkpt lat="43.72553784699596" lon="10.816360453483666"><ele>22.8</ele><time>2026-04-04T17:22:40.999Z</time></trkpt><trkpt lat="43.725565813899095" lon="10.816207053607528"><ele>22.400000000000002</ele><time>2026-04-04T17:22:42.999Z</time></trkpt><trkpt lat="43.72559523119914" lon="10.816057555725733"><ele>22.0</ele><time>2026-04-04T17:22:44.999Z</time></trkpt><trkpt lat="43.725614883505806" lon="10.815906582682262"><ele>22.0</ele><time>2026-04-04T17:22:46.999Z</time></trkpt><trkpt lat="43.72564432734361" lon="10.815749101935108"><ele>22.0</ele><time>2026-04-04T17:22:48.999Z</time></trkpt><trkpt lat="43.725672867508294" lon="10.815598817919476"><ele>22.0</ele><time>2026-04-04T17:22:50.999Z</time></trkpt><trkpt lat="43.725698827876066" lon="10.815442971092713"><ele>22.0</ele><time>2026-04-04T17:22:52.999Z</time></trkpt><trkpt lat="43.725725760455376" lon="10.815295209099252"><ele>22.0</ele><time>2026-04-04T17:22:54.999Z</time></trkpt><trkpt lat="43.7257529787288" lon="10.815159217447492"><ele>22.0</ele><time>2026-04-04T17:22:56.999Z</time></trkpt><trkpt lat="43.72577919090753" lon="10.815031902507057"><ele>22.0</ele><time>2026-04-04T17:22:58.999Z</time></trkpt><trkpt lat="43.72580460944106" lon="10.81491218168094"><ele>22.0</ele><time>2026-04-04T17:23:00.999Z</time></trkpt><trkpt lat="43.72582560348142" lon="10.814810666879637"><ele>22.0</ele><time>2026-04-04T17:23:02.999Z</time></trkpt><trkpt lat="43.72585415058144" lon="10.814712380674088"><ele>22.0</ele><time>2026-04-04T17:23:05.999Z</time></trkpt><trkpt lat="43.72588565190787" lon="10.814613484461454"><ele>22.142857142857142</ele><time>2026-04-04T17:23:08.999Z</time></trkpt><trkpt lat="43.725896140797126" lon="10.814524989961667"><ele>22.285714285714285</ele><time>2026-04-04T17:23:10.999Z</time></trkpt><trkpt lat="43.72592057538258" lon="10.814436232907312"><ele>22.42857142857143</ele><time>2026-04-04T17:23:12.999Z</time></trkpt><trkpt lat="43.725922384863594" lon="10.81434456790089"><ele>22.57142857142857</ele><time>2026-04-04T17:23:14.999Z</time></trkpt><trkpt lat="43.72594231814728" lon="10.814228146112251"><ele>22.71428571428571</ele><time>2026-04-04T17:23:17.998Z</time></trkpt><trkpt lat="43.725972698839634" lon="10.814148796251851"><ele>22.857142857142858</ele><time>2026-04-04T17:23:19.998Z</time></trkpt><trkpt lat="43.725979447842874" lon="10.814032540879442"><ele>23.0</ele><time>2026-04-04T17:23:21.998Z</time></trkpt><trkpt lat="43.725985004702345" lon="10.813905674195436"><ele>23.0</ele><time>2026-04-04T17:23:23.998Z</time></trkpt><trkpt lat="43.725992862969505" lon="10.813785464920386"><ele>23.0</ele><time>2026-04-04T17:23:25.998Z</time></trkpt><trkpt lat="43.72602009143204" lon="10.813670577918492"><ele>23.0</ele><time>2026-04-04T17:23:27.998Z</time></trkpt><trkpt lat="43.72603313860638" lon="10.813563703917543"><ele>23.0</ele><time>2026-04-04T17:23:29.998Z</time></trkpt><trkpt lat="43.72605073766806" lon="10.813437537042446"><ele>23.0</ele><time>2026-04-04T17:23:34.998Z</time></trkpt><trkpt lat="43.726070380960245" lon="10.813333731083889"><ele>23.0</ele><time>2026-04-04T17:23:36.998Z</time></trkpt><trkpt lat="43.726086062901324" lon="10.813220425232778"><ele>22.799999999999997</ele><time>2026-04-04T17:23:38.998Z</time></trkpt><trkpt lat="43.726105109294615" lon="10.81309480623944"><ele>22.6</ele><time>2026-04-04T17:23:40.998Z</time></trkpt><trkpt lat="43.72612494037502" lon="10.812968483600212"><ele>22.4</ele><time>2026-04-04T17:23:42.998Z</time></trkpt><trkpt lat="43.726144322167706" lon="10.812829460039495"><ele>22.200000000000003</ele><time>2026-04-04T17:23:44.998Z</time></trkpt><trkpt lat="43.726166859670634" lon="10.812688832167025"><ele>22.0</ele><time>2026-04-04T17:23:46.998Z</time></trkpt><trkpt lat="43.726191006806665" lon="10.812537084780773"><ele>22.0</ele><time>2026-04-04T17:23:48.998Z</time></trkpt><trkpt lat="43.726214202873834" lon="10.812384412412698"><ele>22.0</ele><time>2026-04-04T17:23:50.998Z</time></trkpt><trkpt lat="43.726248134892934" lon="10.812245422656098"><ele>22.0</ele><time>2026-04-04T17:23:52.998Z</time></trkpt><trkpt lat="43.72627408866925" lon="10.812096151883006"><ele>22.0</ele><time>2026-04-04T17:23:54.998Z</time></trkpt><trkpt lat="43.726300522291375" lon="10.8119564430526"><ele>22.0</ele><time>2026-04-04T17:23:56.998Z</time></trkpt><trkpt lat="43.7263283377831" lon="10.811815598755512"><ele>22.5</ele><time>2026-04-04T17:23:59Z</time></trkpt><trkpt lat="43.726353336775894" lon="10.811674789639493"><ele>23.0</ele><time>2026-04-04T17:24:01Z</time></trkpt><trkpt lat="43.7263703580523" lon="10.811538097118873"><ele>23.5</ele><time>2026-04-04T17:24:03Z</time></trkpt><trkpt lat="43.726395061170834" lon="10.811429697520671"><ele>24.0</ele><time>2026-04-04T17:24:05Z</time></trkpt><trkpt lat="43.72640200530846" lon="10.811335109278"><ele>24.500000000000004</ele><time>2026-04-04T17:24:07Z</time></trkpt><trkpt lat="43.72641744743496" lon="10.811248751483284"><ele>25.0</ele><time>2026-04-04T17:24:09Z</time></trkpt><trkpt lat="43.72643341011913" lon="10.811160809313195"><ele>25.0</ele><time>2026-04-04T17:24:10Z</time></trkpt><trkpt lat="43.726474318637806" lon="10.81101911314913"><ele>25.0</ele><time>2026-04-04T17:24:12Z</time></trkpt><trkpt lat="43.72649729331926" lon="10.810870658053812"><ele>25.0</ele><time>2026-04-04T17:24:14Z</time></trkpt><trkpt lat="43.726525153757756" lon="10.810726560105259"><ele>25.0</ele><time>2026-04-04T17:24:16Z</time></trkpt><trkpt lat="43.72654939486129" lon="10.810578457851557"><ele>25.0</ele><time>2026-04-04T17:24:18Z</time></trkpt><trkpt lat="43.72656383168519" lon="10.810429403137583"><ele>25.000000000000004</ele><time>2026-04-04T17:24:20Z</time></trkpt><trkpt lat="43.726589747608365" lon="10.810284009910035"><ele>25.0</ele><time>2026-04-04T17:24:22Z</time></trkpt><trkpt lat="43.726611207063605" lon="10.810163618269934"><ele>25.0</ele><time>2026-04-04T17:24:24Z</time></trkpt><trkpt lat="43.726634615973204" lon="10.810061617983735"><ele>25.0</ele><time>2026-04-04T17:24:35.999Z</time></trkpt><trkpt lat="43.72664732226191" lon="10.809958723614777"><ele>25.000000000000004</ele><time>2026-04-04T17:24:37.999Z</time></trkpt><trkpt lat="43.72667279436701" lon="10.809846274856172"><ele>25.0</ele><time>2026-04-04T17:24:39.999Z</time></trkpt><trkpt lat="43.72669284537981" lon="10.809717648542762"><ele>25.0</ele><time>2026-04-04T17:24:41.999Z</time></trkpt><trkpt lat="43.726720567670135" lon="10.809595551603174"><ele>25.0</ele><time>2026-04-04T17:24:43.999Z</time></trkpt><trkpt lat="43.72673347156558" lon="10.80944871542001"><ele>25.0</ele><time>2026-04-04T17:24:45.999Z</time></trkpt><trkpt lat="43.72675670417682" lon="10.809319325626324"><ele>25.0</ele><time>2026-04-04T17:24:47.999Z</time></trkpt><trkpt lat="43.726781271581665" lon="10.80918375464601"><ele>25.0</ele><time>2026-04-04T17:24:49.999Z</time></trkpt><trkpt lat="43.726800027922145" lon="10.80905182920402"><ele>25.0</ele><time>2026-04-04T17:24:51.999Z</time></trkpt><trkpt lat="43.726827522206435" lon="10.808914874767323"><ele>25.0</ele><time>2026-04-04T17:24:53.999Z</time></trkpt><trkpt lat="43.72685911683179" lon="10.808770867502021"><ele>25.0</ele><time>2026-04-04T17:24:55.999Z</time></trkpt><trkpt lat="43.72687678099609" lon="10.80862349410316"><ele>25.0</ele><time>2026-04-04T17:24:57.999Z</time></trkpt><trkpt lat="43.72682162948802" lon="10.808481375065083"><ele>25.0</ele><time>2026-04-04T17:24:59.999Z</time></trkpt><trkpt lat="43.72677871377543" lon="10.808414514862362"><ele>24.8</ele><time>2026-04-04T17:25:00.999Z</time></trkpt><trkpt lat="43.72671431042274" lon="10.808282527888274"><ele>24.6</ele><time>2026-04-04T17:25:02.999Z</time></trkpt><trkpt lat="43.726633385962494" lon="10.808148415947969"><ele>24.4</ele><time>2026-04-04T17:25:04.999Z</time></trkpt><trkpt lat="43.726582666646486" lon="10.808085536975314"><ele>24.2</ele><time>2026-04-04T17:25:05.999Z</time></trkpt><trkpt lat="43.7265119378049" lon="10.807960256392823"><ele>24.0</ele><time>2026-04-04T17:25:07.999Z</time></trkpt><trkpt lat="43.72643989503103" lon="10.807843491915193"><ele>24.0</ele><time>2026-04-04T17:25:09.999Z</time></trkpt><trkpt lat="43.726375819017235" lon="10.80772248829182"><ele>24.0</ele><time>2026-04-04T17:25:11.999Z</time></trkpt><trkpt lat="43.72630261096162" lon="10.80761233367369"><ele>24.0</ele><time>2026-04-04T17:25:13.999Z</time></trkpt><trkpt lat="43.72623382185355" lon="10.807481236236056"><ele>24.0</ele><time>2026-04-04T17:25:15.999Z</time></trkpt><trkpt lat="43.72615112109548" lon="10.807359944453909"><ele>23.666666666666668</ele><time>2026-04-04T17:25:17.999Z</time></trkpt><trkpt lat="43.72607678636362" lon="10.807240562932169"><ele>23.333333333333332</ele><time>2026-04-04T17:25:19.999Z</time></trkpt><trkpt lat="43.72604079428682" lon="10.807151669272125"><ele>23.0</ele><time>2026-04-04T17:25:20.999Z</time></trkpt><trkpt lat="43.72599911170954" lon="10.807081352586467"><ele>22.666666666666664</ele><time>2026-04-04T17:25:21.999Z</time></trkpt><trkpt lat="43.72591941568614" lon="10.806949793945051"><ele>22.333333333333332</ele><time>2026-04-04T17:25:23.999Z</time></trkpt><trkpt lat="43.72586902838464" lon="10.806896666842087"><ele>22.0</ele><time>2026-04-04T17:25:24.998Z</time></trkpt><trkpt lat="43.7257914743842" lon="10.80675964316443"><ele>22.0</ele><time>2026-04-04T17:25:26.998Z</time></trkpt><trkpt lat="43.725756375956195" lon="10.80668400059156"><ele>22.0</ele><time>2026-04-04T17:25:27.998Z</time></trkpt><trkpt lat="43.725710667476726" lon="10.806623849648473"><ele>22.0</ele><time>2026-04-04T17:25:28.998Z</time></trkpt><trkpt lat="43.72564812958179" lon="10.806497769382165"><ele>22.0</ele><time>2026-04-04T17:25:30.998Z</time></trkpt><trkpt lat="43.725567677525085" lon="10.806393305399707"><ele>22.0</ele><time>2026-04-04T17:25:32.998Z</time></trkpt><trkpt lat="43.72549913046496" lon="10.806282061944657"><ele>22.0</ele><time>2026-04-04T17:25:34.998Z</time></trkpt><trkpt lat="43.72545121422264" lon="10.806175558807661"><ele>22.0</ele><time>2026-04-04T17:25:36.998Z</time></trkpt><trkpt lat="43.72551932872135" lon="10.806074889513681"><ele>22.0</ele><time>2026-04-04T17:25:38.998Z</time></trkpt><trkpt lat="43.725599000095514" lon="10.806007049083805"><ele>22.0</ele><time>2026-04-04T17:25:40.998Z</time></trkpt><trkpt lat="43.725669727758365" lon="10.80592000464313"><ele>22.0</ele><time>2026-04-04T17:25:42.998Z</time></trkpt><trkpt lat="43.72574642257953" lon="10.805835923194453"><ele>22.0</ele><time>2026-04-04T17:25:44.998Z</time></trkpt><trkpt lat="43.725821125848036" lon="10.805746312446443"><ele>22.0</ele><time>2026-04-04T17:25:46.998Z</time></trkpt><trkpt lat="43.725896983010244" lon="10.805653692505201"><ele>22.0</ele><time>2026-04-04T17:25:48.998Z</time></trkpt><trkpt lat="43.72597085927461" lon="10.805558982274425"><ele>22.0</ele><time>2026-04-04T17:25:50.998Z</time></trkpt><trkpt lat="43.72605160879916" lon="10.805480035982834"><ele>22.0</ele><time>2026-04-04T17:25:52.998Z</time></trkpt><trkpt lat="43.726135009081744" lon="10.805390930508445"><ele>22.0</ele><time>2026-04-04T17:25:54.998Z</time></trkpt><trkpt lat="43.726211635383905" lon="10.805299612630238"><ele>22.0</ele><time>2026-04-04T17:25:56.998Z</time></trkpt><trkpt lat="43.72629407283367" lon="10.80520590092198"><ele>22.0</ele><time>2026-04-04T17:25:58.998Z</time></trkpt><trkpt lat="43.72637347485536" lon="10.805110889137165"><ele>22.0</ele><time>2026-04-04T17:26:00.998Z</time></trkpt><trkpt lat="43.726452177470875" lon="10.805010093009818"><ele>22.0</ele><time>2026-04-04T17:26:02.998Z</time></trkpt><trkpt lat="43.72653290850297" lon="10.804929196436229"><ele>22.0</ele><time>2026-04-04T17:26:05Z</time></trkpt><trkpt lat="43.72661200689259" lon="10.804843252647883"><ele>22.0</ele><time>2026-04-04T17:26:07Z</time></trkpt><trkpt lat="43.726688442660404" lon="10.804746386811138"><ele>22.0</ele><time>2026-04-04T17:26:09Z</time></trkpt><trkpt lat="43.726771090074045" lon="10.804660662769361"><ele>22.0</ele><time>2026-04-04T17:26:11Z</time></trkpt><trkpt lat="43.72685369007586" lon="10.804562987665687"><ele>22.0</ele><time>2026-04-04T17:26:13Z</time></trkpt><trkpt lat="43.72693702649373" lon="10.804467943301866"><ele>22.0</ele><time>2026-04-04T17:26:15Z</time></trkpt><trkpt lat="43.727023261414516" lon="10.804372130507675"><ele>22.0</ele><time>2026-04-04T17:26:17Z</time></trkpt><trkpt lat="43.727110969863524" lon="10.804262447974391"><ele>22.0</ele><time>2026-04-04T17:26:19Z</time></trkpt><trkpt lat="43.727206281420195" lon="10.804173683733204"><ele>22.0</ele><time>2026-04-04T17:26:21Z</time></trkpt><trkpt lat="43.72728881978808" lon="10.804056644037539"><ele>21.8</ele><time>2026-04-04T17:26:23Z</time></trkpt><trkpt lat="43.72737912378973" lon="10.803953484925021"><ele>21.6</ele><time>2026-04-04T17:26:25Z</time></trkpt><trkpt lat="43.72746453935345" lon="10.803885322985451"><ele>21.400000000000002</ele><time>2026-04-04T17:26:27Z</time></trkpt><trkpt lat="43.727505096741886" lon="10.803785046501517"><ele>21.200000000000003</ele><time>2026-04-04T17:26:29Z</time></trkpt><trkpt lat="43.72746992221015" lon="10.803641164364508"><ele>21.0</ele><time>2026-04-04T17:26:31Z</time></trkpt><trkpt lat="43.727412261821904" lon="10.803517351319227"><ele>20.6</ele><time>2026-04-04T17:26:33Z</time></trkpt><trkpt lat="43.7273533653384" lon="10.803387015196403"><ele>20.200000000000003</ele><time>2026-04-04T17:26:35Z</time></trkpt><trkpt lat="43.72729263897022" lon="10.80325007297892"><ele>19.799999999999997</ele><time>2026-04-04T17:26:37Z</time></trkpt><trkpt lat="43.727243158114256" lon="10.803144448172686"><ele>19.4</ele><time>2026-04-04T17:26:39Z</time></trkpt><trkpt lat="43.72720831175746" lon="10.803062146136277"><ele>19.0</ele><time>2026-04-04T17:26:41.999Z</time></trkpt><trkpt lat="43.72715357242406" lon="10.80295792555097"><ele>19.0</ele><time>2026-04-04T17:26:45.999Z</time></trkpt><trkpt lat="43.72711032310942" lon="10.802877363460999"><ele>19.0</ele><time>2026-04-04T17:26:47.999Z</time></trkpt><trkpt lat="43.727070463588475" lon="10.802781248953503"><ele>19.0</ele><time>2026-04-04T17:26:49.999Z</time></trkpt><trkpt lat="43.72702661207487" lon="10.802680024491675"><ele>19.0</ele><time>2026-04-04T17:26:51.999Z</time></trkpt><trkpt lat="43.7269866766842" lon="10.802576700284876"><ele>19.0</ele><time>2026-04-04T17:26:53.999Z</time></trkpt><trkpt lat="43.72693959254335" lon="10.802469533479291"><ele>19.0</ele><time>2026-04-04T17:26:55.999Z</time></trkpt><trkpt lat="43.72689915209567" lon="10.802354917242436"><ele>19.2</ele><time>2026-04-04T17:26:57.999Z</time></trkpt><trkpt lat="43.72685178537927" lon="10.80224231177216"><ele>19.4</ele><time>2026-04-04T17:26:59.999Z</time></trkpt><trkpt lat="43.72680456545448" lon="10.802126525658746"><ele>19.6</ele><time>2026-04-04T17:27:01.999Z</time></trkpt><trkpt lat="43.72675255474744" lon="10.802006343410499"><ele>19.8</ele><time>2026-04-04T17:27:03.999Z</time></trkpt><trkpt lat="43.72670253248906" lon="10.801886197522766"><ele>20.0</ele><time>2026-04-04T17:27:05.999Z</time></trkpt><trkpt lat="43.72664497292476" lon="10.801768904381708"><ele>19.666666666666668</ele><time>2026-04-04T17:27:07.999Z</time></trkpt><trkpt lat="43.726597004789305" lon="10.801656326602547"><ele>19.333333333333336</ele><time>2026-04-04T17:27:09.999Z</time></trkpt><trkpt lat="43.72656372722612" lon="10.801546188048066"><ele>19.0</ele><time>2026-04-04T17:27:11.999Z</time></trkpt><trkpt lat="43.726521651122276" lon="10.801442346456914"><ele>18.666666666666668</ele><time>2026-04-04T17:27:13.999Z</time></trkpt><trkpt lat="43.72647343159268" lon="10.801358921841675"><ele>18.333333333333332</ele><time>2026-04-04T17:27:15.999Z</time></trkpt><trkpt lat="43.72642910286255" lon="10.80125595997057"><ele>18.0</ele><time>2026-04-04T17:27:17.999Z</time></trkpt><trkpt lat="43.72638354590173" lon="10.801146755684451"><ele>18.0</ele><time>2026-04-04T17:27:19.999Z</time></trkpt><trkpt lat="43.72633504205947" lon="10.80102985391187"><ele>18.0</ele><time>2026-04-04T17:27:21.999Z</time></trkpt><trkpt lat="43.72628585152796" lon="10.800911297127723"><ele>18.0</ele><time>2026-04-04T17:27:23.999Z</time></trkpt><trkpt lat="43.72625726431505" lon="10.800797423520933"><ele>18.0</ele><time>2026-04-04T17:27:25.999Z</time></trkpt><trkpt lat="43.726200010777056" lon="10.800704407636433"><ele>18.0</ele><time>2026-04-04T17:27:27.999Z</time></trkpt><trkpt lat="43.72615766378098" lon="10.800602345045187"><ele>18.166666666666668</ele><time>2026-04-04T17:27:29.998Z</time></trkpt><trkpt lat="43.72612163626188" lon="10.80051551379018"><ele>18.333333333333332</ele><time>2026-04-04T17:27:31.998Z</time></trkpt><trkpt lat="43.72608913618729" lon="10.800438830647586"><ele>18.5</ele><time>2026-04-04T17:27:33.998Z</time></trkpt><trkpt lat="43.72604637378766" lon="10.80033663899357"><ele>18.666666666666664</ele><time>2026-04-04T17:27:51.998Z</time></trkpt><trkpt lat="43.72601029768055" lon="10.800250426388656"><ele>18.833333333333332</ele><time>2026-04-04T17:27:54.998Z</time></trkpt><trkpt lat="43.72589929148364" lon="10.80036972749365"><ele>19.0</ele><time>2026-04-04T17:28:01.998Z</time></trkpt><trkpt lat="43.725817083833725" lon="10.800235614328892"><ele>19.0</ele><time>2026-04-04T17:28:07.998Z</time></trkpt><trkpt lat="43.725853789596144" lon="10.800155117772695"><ele>19.0</ele><time>2026-04-04T17:28:11Z</time></trkpt><trkpt lat="43.72592594570764" lon="10.800131309527648"><ele>19.0</ele><time>2026-04-04T17:28:13Z</time></trkpt><trkpt lat="43.72598675594532" lon="10.800095237034974"><ele>19.0</ele><time>2026-04-04T17:28:15Z</time></trkpt><trkpt lat="43.72610190565631" lon="10.80028376388208"><ele>19.0</ele><time>2026-04-04T17:28:16Z</time></trkpt><trkpt lat="43.72610066639112" lon="10.800013319622185"><ele>19.25</ele><time>2026-04-04T17:28:19Z</time></trkpt><trkpt lat="43.72615010302279" lon="10.799954741794398"><ele>19.5</ele><time>2026-04-04T17:28:21Z</time></trkpt><trkpt lat="43.72631307960871" lon="10.800119371460559"><ele>19.75</ele><time>2026-04-04T17:28:24Z</time></trkpt><trkpt lat="43.726370061210275" lon="10.800075013204914"><ele>20.0</ele><time>2026-04-04T17:28:26Z</time></trkpt><trkpt lat="43.72630672375576" lon="10.799770953352608"><ele>20.0</ele><time>2026-04-04T17:28:28Z</time></trkpt><trkpt lat="43.72635897966271" lon="10.799683447577191"><ele>20.0</ele><time>2026-04-04T17:28:31Z</time></trkpt><trkpt lat="43.72644629358283" lon="10.7997005954044"><ele>20.0</ele><time>2026-04-04T17:28:45Z</time></trkpt><trkpt lat="43.726367478805834" lon="10.799629310029468"><ele>20.0</ele><time>2026-04-04T17:28:48.999Z</time></trkpt><trkpt lat="43.726366156136386" lon="10.799541823043619"><ele>20.0</ele><time>2026-04-04T17:29:42.998Z</time></trkpt><trkpt lat="43.72644928299577" lon="10.799577474125286"><ele>20.0</ele><time>2026-04-04T17:30:10.998Z</time></trkpt><trkpt lat="43.72639819757894" lon="10.799525087814338"><ele>20.0</ele><time>2026-04-04T17:30:18Z</time></trkpt><trkpt lat="43.72638804205017" lon="10.79942807957196"><ele>20.0</ele><time>2026-04-04T17:30:22Z</time></trkpt><trkpt lat="43.72637234370186" lon="10.799336107168822"><ele>20.0</ele><time>2026-04-04T17:30:27Z</time></trkpt><trkpt lat="43.726350591241264" lon="10.799245068602497"><ele>20.0</ele><time>2026-04-04T17:30:31Z</time></trkpt><trkpt lat="43.72637105788441" lon="10.799154696669376"><ele>20.0</ele><time>2026-04-04T17:30:39Z</time></trkpt><trkpt lat="43.726358808998626" lon="10.799270793138106"><ele>20.0</ele><time>2026-04-04T17:31:18.999Z</time></trkpt><trkpt lat="43.72638114136281" lon="10.79935583430435"><ele>20.0</ele><time>2026-04-04T17:31:24.999Z</time></trkpt><trkpt lat="43.726394885346814" lon="10.799452106976087"><ele>20.0</ele><time>2026-04-04T17:31:30.999Z</time></trkpt><trkpt lat="43.72641097262481" lon="10.79954426665895"><ele>20.0</ele><time>2026-04-04T17:31:36.999Z</time></trkpt><trkpt lat="43.7263968582758" lon="10.79963789347253"><ele>20.0</ele><time>2026-04-04T17:31:42.998Z</time></trkpt><trkpt lat="43.72644216559762" lon="10.799699359775722"><ele>20.0</ele><time>2026-04-04T17:32:02.998Z</time></trkpt></trkseg><trkseg><trkpt lat="43.72564785439259" lon="10.799954818936548"><ele>19.0</ele><time>2026-04-05T07:17:36.998Z</time></trkpt><trkpt lat="43.7256856790164" lon="10.800025265119862"><ele>19.0</ele><time>2026-04-05T07:21:00.999Z</time></trkpt><trkpt lat="43.725696098026944" lon="10.800116913832445"><ele>19.0</ele><time>2026-04-05T07:21:03.999Z</time></trkpt><trkpt lat="43.725739000895885" lon="10.800205762156706"><ele>19.0</ele><time>2026-04-05T07:21:07.999Z</time></trkpt><trkpt lat="43.72577424019244" lon="10.800287070387158"><ele>19.0</ele><time>2026-04-05T07:21:10.999Z</time></trkpt><trkpt lat="43.725817688182666" lon="10.800386627567333"><ele>19.0</ele><time>2026-04-05T07:21:13.999Z</time></trkpt><trkpt lat="43.72579744105941" lon="10.800472141761697"><ele>19.0</ele><time>2026-04-05T07:21:16.999Z</time></trkpt><trkpt lat="43.72572520752418" lon="10.80053198927824"><ele>19.166666666666664</ele><time>2026-04-05T07:21:18.999Z</time></trkpt><trkpt lat="43.725651546252564" lon="10.800598633925503"><ele>19.333333333333332</ele><time>2026-04-05T07:21:20.999Z</time></trkpt><trkpt lat="43.725582557057315" lon="10.800666482630756"><ele>19.5</ele><time>2026-04-05T07:21:22.999Z</time></trkpt><trkpt lat="43.725513652857465" lon="10.800734228005178"><ele>19.666666666666668</ele><time>2026-04-05T07:21:24.998Z</time></trkpt><trkpt lat="43.72543538527344" lon="10.800792240089443"><ele>19.833333333333336</ele><time>2026-04-05T07:21:26.998Z</time></trkpt><trkpt lat="43.72535737038221" lon="10.800846562749994"><ele>20.0</ele><time>2026-04-05T07:21:28.998Z</time></trkpt><trkpt lat="43.72528460485473" lon="10.800893910136125"><ele>19.8</ele><time>2026-04-05T07:21:30.998Z</time></trkpt><trkpt lat="43.72521817560862" lon="10.800946035056697"><ele>19.6</ele><time>2026-04-05T07:21:32.998Z</time></trkpt><trkpt lat="43.72513353911969" lon="10.800965871880054"><ele>19.4</ele><time>2026-04-05T07:21:34.998Z</time></trkpt><trkpt lat="43.72504371708032" lon="10.800969249616882"><ele>19.2</ele><time>2026-04-05T07:21:36.998Z</time></trkpt><trkpt lat="43.72498353543085" lon="10.8010752613738"><ele>19.0</ele><time>2026-04-05T07:21:38.998Z</time></trkpt><trkpt lat="43.724967102261864" lon="10.80121342448944"><ele>19.0</ele><time>2026-04-05T07:21:40.998Z</time></trkpt><trkpt lat="43.72489349934618" lon="10.80131983258803"><ele>19.0</ele><time>2026-04-05T07:21:42.998Z</time></trkpt><trkpt lat="43.72480906465309" lon="10.801378876130618"><ele>19.0</ele><time>2026-04-05T07:21:44.998Z</time></trkpt><trkpt lat="43.72472482096098" lon="10.801445178785693"><ele>19.0</ele><time>2026-04-05T07:21:46.998Z</time></trkpt><trkpt lat="43.72464514847395" lon="10.8015285175183"><ele>19.0</ele><time>2026-04-05T07:21:48.998Z</time></trkpt><trkpt lat="43.72455887686779" lon="10.801600553200215"><ele>19.0</ele><time>2026-04-05T07:21:50.998Z</time></trkpt><trkpt lat="43.72447262507143" lon="10.801674060123398"><ele>19.0</ele><time>2026-04-05T07:21:52.998Z</time></trkpt><trkpt lat="43.724390085896545" lon="10.801748508376049"><ele>19.0</ele><time>2026-04-05T07:21:54.998Z</time></trkpt><trkpt lat="43.72430982674926" lon="10.80182185795255"><ele>19.0</ele><time>2026-04-05T07:21:56.998Z</time></trkpt><trkpt lat="43.72422900526477" lon="10.801902591451796"><ele>19.0</ele><time>2026-04-05T07:21:58.998Z</time></trkpt><trkpt lat="43.7241460210598" lon="10.801984346975194"><ele>19.4</ele><time>2026-04-05T07:22:00.998Z</time></trkpt><trkpt lat="43.72406868531848" lon="10.802072784842276"><ele>19.799999999999997</ele><time>2026-04-05T07:22:02.998Z</time></trkpt><trkpt lat="43.723993372872066" lon="10.802161044009353"><ele>20.200000000000003</ele><time>2026-04-05T07:22:04.998Z</time></trkpt><trkpt lat="43.72391231341186" lon="10.802253325111398"><ele>20.6</ele><time>2026-04-05T07:22:06.999Z</time></trkpt><trkpt lat="43.723839731675035" lon="10.802339121973704"><ele>21.0</ele><time>2026-04-05T07:22:08.999Z</time></trkpt><trkpt lat="43.723774102037716" lon="10.802415742772878"><ele>21.0</ele><time>2026-04-05T07:22:10.999Z</time></trkpt><trkpt lat="43.72371043913907" lon="10.802485196321628"><ele>21.0</ele><time>2026-04-05T07:22:12.999Z</time></trkpt><trkpt lat="43.723641543872766" lon="10.802557117446383"><ele>21.0</ele><time>2026-04-05T07:22:15.999Z</time></trkpt><trkpt lat="43.72358720408395" lon="10.802612639005854"><ele>21.0</ele><time>2026-04-05T07:22:19.999Z</time></trkpt><trkpt lat="43.72352064598628" lon="10.802690688753303"><ele>21.0</ele><time>2026-04-05T07:22:32.999Z</time></trkpt><trkpt lat="43.72346102108394" lon="10.802744042212655"><ele>21.0</ele><time>2026-04-05T07:22:34.999Z</time></trkpt><trkpt lat="43.72338715740024" lon="10.802692837350877"><ele>20.6</ele><time>2026-04-05T07:22:36.999Z</time></trkpt><trkpt lat="43.72333768995563" lon="10.802586254377504"><ele>20.200000000000003</ele><time>2026-04-05T07:22:38.999Z</time></trkpt><trkpt lat="43.723279088123554" lon="10.802492576959832"><ele>19.799999999999997</ele><time>2026-04-05T07:22:40.999Z</time></trkpt><trkpt lat="43.72321991585407" lon="10.802391889545035"><ele>19.4</ele><time>2026-04-05T07:22:42.999Z</time></trkpt><trkpt lat="43.72316005277839" lon="10.802283692887874"><ele>19.0</ele><time>2026-04-05T07:22:44.999Z</time></trkpt><trkpt lat="43.72309692034037" lon="10.802180859665299"><ele>19.0</ele><time>2026-04-05T07:22:46.999Z</time></trkpt><trkpt lat="43.723031373985215" lon="10.802073261688658"><ele>19.0</ele><time>2026-04-05T07:22:48.999Z</time></trkpt><trkpt lat="43.722971135288276" lon="10.80196558963018"><ele>19.0</ele><time>2026-04-05T07:22:50.999Z</time></trkpt><trkpt lat="43.72290981256321" lon="10.801853899588266"><ele>19.0</ele><time>2026-04-05T07:22:52.999Z</time></trkpt><trkpt lat="43.722847465510135" lon="10.801744403593425"><ele>19.0</ele><time>2026-04-05T07:22:54.999Z</time></trkpt><trkpt lat="43.7227851323076" lon="10.801637261033983"><ele>19.2</ele><time>2026-04-05T07:22:56.999Z</time></trkpt><trkpt lat="43.72271499858628" lon="10.80152794009386"><ele>19.4</ele><time>2026-04-05T07:22:58.999Z</time></trkpt><trkpt lat="43.72265030153674" lon="10.801421208784415"><ele>19.6</ele><time>2026-04-05T07:23:00.999Z</time></trkpt><trkpt lat="43.722588335743154" lon="10.801306684801492"><ele>19.8</ele><time>2026-04-05T07:23:02.999Z</time></trkpt><trkpt lat="43.72252027618931" lon="10.801194348704184"><ele>20.0</ele><time>2026-04-05T07:23:04.999Z</time></trkpt><trkpt lat="43.722450791183654" lon="10.80108962628296"><ele>19.6</ele><time>2026-04-05T07:23:06.999Z</time></trkpt><trkpt lat="43.72238950161159" lon="10.80097790387507"><ele>19.2</ele><time>2026-04-05T07:23:08.999Z</time></trkpt><trkpt lat="43.722322769437426" lon="10.80086443716422"><ele>18.8</ele><time>2026-04-05T07:23:10.999Z</time></trkpt><trkpt lat="43.72224955124639" lon="10.800746577191294"><ele>18.4</ele><time>2026-04-05T07:23:12.999Z</time></trkpt><trkpt lat="43.72218120227205" lon="10.800626030920567"><ele>18.0</ele><time>2026-04-05T07:23:14.999Z</time></trkpt><trkpt lat="43.72211173092526" lon="10.800502660816488"><ele>18.0</ele><time>2026-04-05T07:23:16.999Z</time></trkpt><trkpt lat="43.72204177060768" lon="10.800376822944441"><ele>18.0</ele><time>2026-04-05T07:23:18.999Z</time></trkpt><trkpt lat="43.72197075963538" lon="10.800249442636499"><ele>18.0</ele><time>2026-04-05T07:23:20.999Z</time></trkpt><trkpt lat="43.72190016501087" lon="10.800124709020002"><ele>18.0</ele><time>2026-04-05T07:23:22.999Z</time></trkpt><trkpt lat="43.72182522197716" lon="10.800005083271717"><ele>18.25</ele><time>2026-04-05T07:23:24.998Z</time></trkpt><trkpt lat="43.721751629673314" lon="10.799881762986843"><ele>18.5</ele><time>2026-04-05T07:23:26.998Z</time></trkpt><trkpt lat="43.721676487945395" lon="10.799762815427627"><ele>18.75</ele><time>2026-04-05T07:23:28.998Z</time></trkpt><trkpt lat="43.72160549256218" lon="10.799639893958334"><ele>19.0</ele><time>2026-04-05T07:23:30.998Z</time></trkpt><trkpt lat="43.721530655132426" lon="10.799519278343507"><ele>19.0</ele><time>2026-04-05T07:23:32.998Z</time></trkpt><trkpt lat="43.72145762777737" lon="10.799399431889388"><ele>19.0</ele><time>2026-04-05T07:23:34.998Z</time></trkpt><trkpt lat="43.721387119941134" lon="10.79927644764707"><ele>19.0</ele><time>2026-04-05T07:23:36.998Z</time></trkpt><trkpt lat="43.721317014562" lon="10.799153767189981"><ele>19.0</ele><time>2026-04-05T07:23:38.998Z</time></trkpt><trkpt lat="43.72124351253687" lon="10.799031160589426"><ele>18.75</ele><time>2026-04-05T07:23:40.998Z</time></trkpt><trkpt lat="43.72117128888946" lon="10.798907994204024"><ele>18.5</ele><time>2026-04-05T07:23:42.998Z</time></trkpt><trkpt lat="43.72109946208643" lon="10.798782477977513"><ele>18.25</ele><time>2026-04-05T07:23:44.998Z</time></trkpt><trkpt lat="43.72102672867627" lon="10.798659761535417"><ele>18.0</ele><time>2026-04-05T07:23:46.998Z</time></trkpt><trkpt lat="43.72095562132168" lon="10.798539737909291"><ele>18.75</ele><time>2026-04-05T07:23:48.998Z</time></trkpt><trkpt lat="43.720886806683374" lon="10.798418246341233"><ele>19.5</ele><time>2026-04-05T07:23:50.998Z</time></trkpt><trkpt lat="43.72081554117181" lon="10.798298685645312"><ele>20.25</ele><time>2026-04-05T07:23:52.998Z</time></trkpt><trkpt lat="43.72074168017757" lon="10.798176532752736"><ele>21.0</ele><time>2026-04-05T07:23:54.998Z</time></trkpt><trkpt lat="43.72066885371154" lon="10.798054857119505"><ele>21.0</ele><time>2026-04-05T07:23:56.998Z</time></trkpt><trkpt lat="43.72059607477136" lon="10.79793668553165"><ele>21.0</ele><time>2026-04-05T07:23:58.998Z</time></trkpt><trkpt lat="43.720526785072906" lon="10.7978260276716"><ele>21.0</ele><time>2026-04-05T07:24:00.998Z</time></trkpt><trkpt lat="43.72046118191677" lon="10.797707873151014"><ele>21.0</ele><time>2026-04-05T07:24:02.998Z</time></trkpt><trkpt lat="43.72038881630864" lon="10.797590302446475"><ele>21.0</ele><time>2026-04-05T07:24:04.998Z</time></trkpt><trkpt lat="43.72031739197127" lon="10.797470286712837"><ele>20.6</ele><time>2026-04-05T07:24:06.998Z</time></trkpt><trkpt lat="43.72024400180585" lon="10.797349063778562"><ele>20.200000000000003</ele><time>2026-04-05T07:24:08.998Z</time></trkpt><trkpt lat="43.72017254871553" lon="10.797232119339766"><ele>19.799999999999997</ele><time>2026-04-05T07:24:10.998Z</time></trkpt><trkpt lat="43.72010280506694" lon="10.79711355391052"><ele>19.4</ele><time>2026-04-05T07:24:13Z</time></trkpt><trkpt lat="43.72003258659661" lon="10.796997088159024"><ele>19.0</ele><time>2026-04-05T07:24:15Z</time></trkpt><trkpt lat="43.71996085184082" lon="10.796874507142514"><ele>18.75</ele><time>2026-04-05T07:24:17Z</time></trkpt><trkpt lat="43.71989190772747" lon="10.796748645184918"><ele>18.5</ele><time>2026-04-05T07:24:19Z</time></trkpt><trkpt lat="43.71981910712591" lon="10.796626700903733"><ele>18.25</ele><time>2026-04-05T07:24:21Z</time></trkpt><trkpt lat="43.719741746742486" lon="10.796506998906922"><ele>18.0</ele><time>2026-04-05T07:24:23Z</time></trkpt><trkpt lat="43.71966836907975" lon="10.796382323262886"><ele>18.0</ele><time>2026-04-05T07:24:25Z</time></trkpt><trkpt lat="43.7195991113048" lon="10.796253550552757"><ele>18.0</ele><time>2026-04-05T07:24:27Z</time></trkpt><trkpt lat="43.71952346710161" lon="10.796129990251382"><ele>18.0</ele><time>2026-04-05T07:24:29Z</time></trkpt><trkpt lat="43.719453461378436" lon="10.796004532834186"><ele>18.0</ele><time>2026-04-05T07:24:31Z</time></trkpt><trkpt lat="43.719381703607816" lon="10.795880055015312"><ele>18.0</ele><time>2026-04-05T07:24:33Z</time></trkpt><trkpt lat="43.719305661778805" lon="10.795752747577758"><ele>18.0</ele><time>2026-04-05T07:24:35Z</time></trkpt><trkpt lat="43.71922952472927" lon="10.795630360925783"><ele>18.0</ele><time>2026-04-05T07:24:37Z</time></trkpt><trkpt lat="43.71915373387918" lon="10.795504859605577"><ele>18.0</ele><time>2026-04-05T07:24:39Z</time></trkpt><trkpt lat="43.71907561471537" lon="10.795377001730323"><ele>18.0</ele><time>2026-04-05T07:24:41Z</time></trkpt><trkpt lat="43.7190004999241" lon="10.795245777221597"><ele>18.0</ele><time>2026-04-05T07:24:43Z</time></trkpt><trkpt lat="43.718923418514805" lon="10.795116764596353"><ele>18.0</ele><time>2026-04-05T07:24:44.999Z</time></trkpt><trkpt lat="43.71884517887832" lon="10.79498842409129"><ele>18.0</ele><time>2026-04-05T07:24:46.999Z</time></trkpt><trkpt lat="43.718769292578955" lon="10.79485992756164"><ele>18.25</ele><time>2026-04-05T07:24:48.999Z</time></trkpt><trkpt lat="43.71869542244332" lon="10.794731227351996"><ele>18.5</ele><time>2026-04-05T07:24:50.999Z</time></trkpt><trkpt lat="43.71861827961732" lon="10.79460091821336"><ele>18.75</ele><time>2026-04-05T07:24:52.999Z</time></trkpt><trkpt lat="43.718539720618075" lon="10.794473348667172"><ele>19.0</ele><time>2026-04-05T07:24:54.999Z</time></trkpt><trkpt lat="43.718461728463176" lon="10.794343580376788"><ele>19.0</ele><time>2026-04-05T07:24:56.999Z</time></trkpt><trkpt lat="43.71838526895219" lon="10.794213917073769"><ele>19.0</ele><time>2026-04-05T07:24:58.999Z</time></trkpt><trkpt lat="43.71830559457788" lon="10.794085488753955"><ele>19.0</ele><time>2026-04-05T07:25:00.999Z</time></trkpt><trkpt lat="43.71822692879961" lon="10.793953135262498"><ele>19.0</ele><time>2026-04-05T07:25:02.999Z</time></trkpt><trkpt lat="43.71814912000073" lon="10.793825338024353"><ele>19.0</ele><time>2026-04-05T07:25:04.999Z</time></trkpt><trkpt lat="43.71807110274509" lon="10.793694334530043"><ele>19.0</ele><time>2026-04-05T07:25:06.999Z</time></trkpt><trkpt lat="43.71799658666018" lon="10.793561641176643"><ele>19.0</ele><time>2026-04-05T07:25:08.999Z</time></trkpt><trkpt lat="43.717923370370535" lon="10.79342966578768"><ele>19.0</ele><time>2026-04-05T07:25:10.999Z</time></trkpt><trkpt lat="43.71784544693948" lon="10.793300292939454"><ele>19.0</ele><time>2026-04-05T07:25:12.999Z</time></trkpt><trkpt lat="43.71777019337485" lon="10.793175468375022"><ele>19.0</ele><time>2026-04-05T07:25:14.999Z</time></trkpt><trkpt lat="43.71768881640996" lon="10.793052142253197"><ele>19.0</ele><time>2026-04-05T07:25:16.999Z</time></trkpt><trkpt lat="43.717606996275805" lon="10.792930122683055"><ele>19.0</ele><time>2026-04-05T07:25:18.999Z</time></trkpt><trkpt lat="43.717524322211446" lon="10.792806721404128"><ele>19.0</ele><time>2026-04-05T07:25:20.999Z</time></trkpt><trkpt lat="43.71748095928621" lon="10.792743140921791"><ele>19.0</ele><time>2026-04-05T07:25:21.999Z</time></trkpt><trkpt lat="43.71739706327934" lon="10.792624988753614"><ele>19.0</ele><time>2026-04-05T07:25:23.999Z</time></trkpt><trkpt lat="43.71731068395232" lon="10.792502764151871"><ele>19.0</ele><time>2026-04-05T07:25:25.999Z</time></trkpt><trkpt lat="43.717223236306936" lon="10.792382954287184"><ele>19.0</ele><time>2026-04-05T07:25:27.999Z</time></trkpt><trkpt lat="43.71713607106165" lon="10.792265828233585"><ele>19.0</ele><time>2026-04-05T07:25:29.999Z</time></trkpt><trkpt lat="43.71704718219969" lon="10.792144144827592"><ele>19.0</ele><time>2026-04-05T07:25:31.999Z</time></trkpt><trkpt lat="43.71696415297113" lon="10.79202718318828"><ele>19.0</ele><time>2026-04-05T07:25:33.999Z</time></trkpt><trkpt lat="43.716877386064084" lon="10.79191012076323"><ele>19.0</ele><time>2026-04-05T07:25:35.999Z</time></trkpt><trkpt lat="43.71679249456973" lon="10.79179146406314"><ele>19.25</ele><time>2026-04-05T07:25:37.999Z</time></trkpt><trkpt lat="43.71670586535809" lon="10.791671819205302"><ele>19.5</ele><time>2026-04-05T07:25:39.999Z</time></trkpt><trkpt lat="43.71661761852616" lon="10.791556098819823"><ele>19.75</ele><time>2026-04-05T07:25:41.999Z</time></trkpt><trkpt lat="43.71653596157075" lon="10.79143399615933"><ele>20.0</ele><time>2026-04-05T07:25:43.999Z</time></trkpt><trkpt lat="43.71645135702575" lon="10.791318717453136"><ele>20.0</ele><time>2026-04-05T07:25:45.998Z</time></trkpt><trkpt lat="43.7164045720429" lon="10.791259426283204"><ele>20.0</ele><time>2026-04-05T07:25:46.998Z</time></trkpt><trkpt lat="43.71632212978301" lon="10.791140221897674"><ele>20.0</ele><time>2026-04-05T07:25:48.998Z</time></trkpt><trkpt lat="43.71627603252928" lon="10.791080287607304"><ele>20.0</ele><time>2026-04-05T07:25:49.998Z</time></trkpt><trkpt lat="43.716190320106534" lon="10.790957455030249"><ele>20.0</ele><time>2026-04-05T07:25:51.998Z</time></trkpt><trkpt lat="43.71614492937772" lon="10.790895486038341"><ele>20.0</ele><time>2026-04-05T07:25:52.998Z</time></trkpt><trkpt lat="43.716097181501915" lon="10.79083412929609"><ele>20.0</ele><time>2026-04-05T07:25:53.998Z</time></trkpt><trkpt lat="43.716052966474855" lon="10.790768371195762"><ele>20.0</ele><time>2026-04-05T07:25:54.998Z</time></trkpt><trkpt lat="43.715962011288354" lon="10.790647482854606"><ele>20.0</ele><time>2026-04-05T07:25:56.998Z</time></trkpt><trkpt lat="43.715876991950786" lon="10.790533814039296"><ele>20.0</ele><time>2026-04-05T07:25:58.998Z</time></trkpt><trkpt lat="43.71582861274906" lon="10.790466065595247"><ele>20.0</ele><time>2026-04-05T07:25:59.998Z</time></trkpt><trkpt lat="43.715782719316" lon="10.790402839528024"><ele>20.0</ele><time>2026-04-05T07:26:00.998Z</time></trkpt><trkpt lat="43.71573384588344" lon="10.7903466347695"><ele>20.0</ele><time>2026-04-05T07:26:01.998Z</time></trkpt><trkpt lat="43.715688381863565" lon="10.79027889618069"><ele>20.0</ele><time>2026-04-05T07:26:02.998Z</time></trkpt><trkpt lat="43.715640729557535" lon="10.790209857677103"><ele>20.0</ele><time>2026-04-05T07:26:03.998Z</time></trkpt><trkpt lat="43.71556037194545" lon="10.790102693834246"><ele>20.0</ele><time>2026-04-05T07:26:05.998Z</time></trkpt><trkpt lat="43.715508538885224" lon="10.790027525232977"><ele>20.0</ele><time>2026-04-05T07:26:06.998Z</time></trkpt><trkpt lat="43.715445158127054" lon="10.789953254608049"><ele>20.0</ele><time>2026-04-05T07:26:07.998Z</time></trkpt><trkpt lat="43.715390246590246" lon="10.78988478243612"><ele>19.857142857142858</ele><time>2026-04-05T07:26:08.998Z</time></trkpt><trkpt lat="43.715316385850294" lon="10.78976906419457"><ele>19.714285714285715</ele><time>2026-04-05T07:26:10.998Z</time></trkpt><trkpt lat="43.715268733023926" lon="10.78970572941269"><ele>19.57142857142857</ele><time>2026-04-05T07:26:11.998Z</time></trkpt><trkpt lat="43.71522165490052" lon="10.789642192988753"><ele>19.42857142857143</ele><time>2026-04-05T07:26:12.998Z</time></trkpt><trkpt lat="43.71517771852534" lon="10.789573513051916"><ele>19.28571428571429</ele><time>2026-04-05T07:26:13.998Z</time></trkpt><trkpt lat="43.715126859307574" lon="10.789507393354018"><ele>19.142857142857142</ele><time>2026-04-05T07:26:14.998Z</time></trkpt><trkpt lat="43.715081379436235" lon="10.789441489326219"><ele>19.0</ele><time>2026-04-05T07:26:15.998Z</time></trkpt><trkpt lat="43.7149892721736" lon="10.789313282230967"><ele>18.8</ele><time>2026-04-05T07:26:17.998Z</time></trkpt><trkpt lat="43.71490500098093" lon="10.78918540343283"><ele>18.599999999999998</ele><time>2026-04-05T07:26:20Z</time></trkpt><trkpt lat="43.714848706103446" lon="10.789124617064111"><ele>18.4</ele><time>2026-04-05T07:26:21Z</time></trkpt><trkpt lat="43.71476127449321" lon="10.788997996960557"><ele>18.2</ele><time>2026-04-05T07:26:23Z</time></trkpt><trkpt lat="43.71471211136967" lon="10.78893396750382"><ele>18.0</ele><time>2026-04-05T07:26:24Z</time></trkpt><trkpt lat="43.71466380167042" lon="10.788870973409084"><ele>18.0</ele><time>2026-04-05T07:26:25Z</time></trkpt><trkpt lat="43.714569287372164" lon="10.78874456388261"><ele>18.0</ele><time>2026-04-05T07:26:27Z</time></trkpt><trkpt lat="43.71447783578867" lon="10.788615795863494"><ele>18.0</ele><time>2026-04-05T07:26:29Z</time></trkpt><trkpt lat="43.71442554302438" lon="10.78855479542965"><ele>18.0</ele><time>2026-04-05T07:26:30Z</time></trkpt><trkpt lat="43.71437737924415" lon="10.788495606689695"><ele>18.0</ele><time>2026-04-05T07:26:31Z</time></trkpt><trkpt lat="43.714329271891856" lon="10.78842875325688"><ele>18.2</ele><time>2026-04-05T07:26:32Z</time></trkpt><trkpt lat="43.71424174090894" lon="10.788295465429037"><ele>18.4</ele><time>2026-04-05T07:26:34Z</time></trkpt><trkpt lat="43.714153070440304" lon="10.788176973791114"><ele>18.599999999999998</ele><time>2026-04-05T07:26:36Z</time></trkpt><trkpt lat="43.714104630099" lon="10.788107718619852"><ele>18.8</ele><time>2026-04-05T07:26:37Z</time></trkpt><trkpt lat="43.71401404529581" lon="10.787989203074252"><ele>19.0</ele><time>2026-04-05T07:26:39Z</time></trkpt><trkpt lat="43.71396639560418" lon="10.78792716371473"><ele>19.0</ele><time>2026-04-05T07:26:40Z</time></trkpt><trkpt lat="43.71391790529793" lon="10.787867741831464"><ele>19.0</ele><time>2026-04-05T07:26:41Z</time></trkpt><trkpt lat="43.713871652316215" lon="10.78780621326503"><ele>19.0</ele><time>2026-04-05T07:26:42Z</time></trkpt><trkpt lat="43.71378782024857" lon="10.78768648899608"><ele>19.0</ele><time>2026-04-05T07:26:44Z</time></trkpt><trkpt lat="43.71369916797583" lon="10.787570501172619"><ele>19.0</ele><time>2026-04-05T07:26:46Z</time></trkpt><trkpt lat="43.71361233346926" lon="10.787447502014038"><ele>18.75</ele><time>2026-04-05T07:26:48Z</time></trkpt><trkpt lat="43.713522248184745" lon="10.78733478545213"><ele>18.5</ele><time>2026-04-05T07:26:50Z</time></trkpt><trkpt lat="43.71343870328411" lon="10.787215486541166"><ele>18.25</ele><time>2026-04-05T07:26:52Z</time></trkpt><trkpt lat="43.71335409769922" lon="10.787103171489436"><ele>18.0</ele><time>2026-04-05T07:26:54Z</time></trkpt><trkpt lat="43.71326903825312" lon="10.787005700986004"><ele>18.0</ele><time>2026-04-05T07:26:56Z</time></trkpt><trkpt lat="43.71326032326086" lon="10.786882165974376"><ele>18.0</ele><time>2026-04-05T07:26:58Z</time></trkpt><trkpt lat="43.713329683944536" lon="10.786822983247369"><ele>18.0</ele><time>2026-04-05T07:26:59Z</time></trkpt><trkpt lat="43.71341921182368" lon="10.786736896362624"><ele>18.0</ele><time>2026-04-05T07:27:00.999Z</time></trkpt><trkpt lat="43.713512825290245" lon="10.786653281553514"><ele>18.0</ele><time>2026-04-05T07:27:02.999Z</time></trkpt><trkpt lat="43.71361273190285" lon="10.786570565993134"><ele>18.25</ele><time>2026-04-05T07:27:04.999Z</time></trkpt><trkpt lat="43.7137160449777" lon="10.786497081585601"><ele>18.5</ele><time>2026-04-05T07:27:06.999Z</time></trkpt><trkpt lat="43.71381308873222" lon="10.786405177314014"><ele>18.75</ele><time>2026-04-05T07:27:08.999Z</time></trkpt><trkpt lat="43.71391031261813" lon="10.786314944453535"><ele>19.0</ele><time>2026-04-05T07:27:10.999Z</time></trkpt><trkpt lat="43.71401188655648" lon="10.786230687501417"><ele>19.0</ele><time>2026-04-05T07:27:12.999Z</time></trkpt><trkpt lat="43.71411221071865" lon="10.786129935560476"><ele>19.0</ele><time>2026-04-05T07:27:14.999Z</time></trkpt><trkpt lat="43.714205674019" lon="10.786034912474321"><ele>19.0</ele><time>2026-04-05T07:27:16.999Z</time></trkpt><trkpt lat="43.714297640233504" lon="10.785945862976032"><ele>19.0</ele><time>2026-04-05T07:27:18.999Z</time></trkpt><trkpt lat="43.71437062992275" lon="10.785860321798877"><ele>19.0</ele><time>2026-04-05T07:27:20.999Z</time></trkpt><trkpt lat="43.71427368411913" lon="10.785600708512359"><ele>19.2</ele><time>2026-04-05T07:27:23.999Z</time></trkpt><trkpt lat="43.71421227266839" lon="10.785473048907766"><ele>19.4</ele><time>2026-04-05T07:27:25.999Z</time></trkpt><trkpt lat="43.714150954680484" lon="10.785342463282369"><ele>19.6</ele><time>2026-04-05T07:27:27.999Z</time></trkpt><trkpt lat="43.714091302762554" lon="10.785210057558373"><ele>19.8</ele><time>2026-04-05T07:27:29.999Z</time></trkpt><trkpt lat="43.7140267707782" lon="10.785084160037416"><ele>20.0</ele><time>2026-04-05T07:27:31.999Z</time></trkpt><trkpt lat="43.71397008074093" lon="10.7849520133752"><ele>20.25</ele><time>2026-04-05T07:27:33.999Z</time></trkpt><trkpt lat="43.713893741876944" lon="10.784828832198743"><ele>20.5</ele><time>2026-04-05T07:27:35.999Z</time></trkpt><trkpt lat="43.713833104206834" lon="10.784700627375953"><ele>20.75</ele><time>2026-04-05T07:27:37.999Z</time></trkpt><trkpt lat="43.713779944999565" lon="10.78456085694315"><ele>21.0</ele><time>2026-04-05T07:27:39.999Z</time></trkpt><trkpt lat="43.713710536063104" lon="10.784430406361638"><ele>21.0</ele><time>2026-04-05T07:27:41.999Z</time></trkpt><trkpt lat="43.71365209829081" lon="10.78429664061267"><ele>21.0</ele><time>2026-04-05T07:27:43.999Z</time></trkpt><trkpt lat="43.71358794557876" lon="10.784160606630483"><ele>21.0</ele><time>2026-04-05T07:27:45.999Z</time></trkpt><trkpt lat="43.713524206261674" lon="10.784023884416959"><ele>21.0</ele><time>2026-04-05T07:27:47.999Z</time></trkpt><trkpt lat="43.71346596873977" lon="10.783883697167926"><ele>21.0</ele><time>2026-04-05T07:27:49.999Z</time></trkpt><trkpt lat="43.71339021511152" lon="10.783766150496568"><ele>21.0</ele><time>2026-04-05T07:27:51.999Z</time></trkpt><trkpt lat="43.71332403250965" lon="10.783630182947562"><ele>21.0</ele><time>2026-04-05T07:27:53.999Z</time></trkpt><trkpt lat="43.71325681016685" lon="10.783492079319576"><ele>21.0</ele><time>2026-04-05T07:27:55.999Z</time></trkpt><trkpt lat="43.71319313774578" lon="10.783352431565188"><ele>21.0</ele><time>2026-04-05T07:27:57.998Z</time></trkpt><trkpt lat="43.71313043708301" lon="10.78320897512328"><ele>21.0</ele><time>2026-04-05T07:27:59.998Z</time></trkpt><trkpt lat="43.7130692762687" lon="10.783069164400054"><ele>21.0</ele><time>2026-04-05T07:28:01.998Z</time></trkpt><trkpt lat="43.713009314287824" lon="10.782924486074828"><ele>21.0</ele><time>2026-04-05T07:28:03.998Z</time></trkpt><trkpt lat="43.7129525504357" lon="10.782788109117247"><ele>20.8</ele><time>2026-04-05T07:28:05.998Z</time></trkpt><trkpt lat="43.71289625200257" lon="10.782652850204926"><ele>20.6</ele><time>2026-04-05T07:28:07.998Z</time></trkpt><trkpt lat="43.71284279716902" lon="10.78252566950076"><ele>20.4</ele><time>2026-04-05T07:28:09.998Z</time></trkpt><trkpt lat="43.71280263055621" lon="10.782429845733159"><ele>20.2</ele><time>2026-04-05T07:28:11.998Z</time></trkpt><trkpt lat="43.712746287551944" lon="10.782370645897018"><ele>20.0</ele><time>2026-04-05T07:28:17.998Z</time></trkpt><trkpt lat="43.7126629148216" lon="10.782358877841308"><ele>20.0</ele><time>2026-04-05T07:28:21.998Z</time></trkpt><trkpt lat="43.71259924601935" lon="10.782303307769473"><ele>20.0</ele><time>2026-04-05T07:28:25Z</time></trkpt><trkpt lat="43.7125884765958" lon="10.78187069672144"><ele>20.0</ele><time>2026-04-05T07:28:28Z</time></trkpt><trkpt lat="43.71253945877511" lon="10.781766011750923"><ele>20.0</ele><time>2026-04-05T07:28:30Z</time></trkpt><trkpt lat="43.712492195237424" lon="10.781654576777704"><ele>20.0</ele><time>2026-04-05T07:28:32Z</time></trkpt><trkpt lat="43.71243917861381" lon="10.781544995883676"><ele>20.0</ele><time>2026-04-05T07:28:34Z</time></trkpt><trkpt lat="43.71239461190961" lon="10.781427862719044"><ele>20.0</ele><time>2026-04-05T07:28:36Z</time></trkpt><trkpt lat="43.712344821539396" lon="10.781313930134301"><ele>20.0</ele><time>2026-04-05T07:28:38Z</time></trkpt><trkpt lat="43.71229467020667" lon="10.781199727929897"><ele>20.0</ele><time>2026-04-05T07:28:40Z</time></trkpt><trkpt lat="43.71223983959451" lon="10.781086108876343"><ele>20.0</ele><time>2026-04-05T07:28:42Z</time></trkpt><trkpt lat="43.71218211799059" lon="10.780968419738112"><ele>20.0</ele><time>2026-04-05T07:28:44Z</time></trkpt><trkpt lat="43.71211733283364" lon="10.78085409081662"><ele>20.0</ele><time>2026-04-05T07:28:46Z</time></trkpt><trkpt lat="43.712044580593904" lon="10.780742408508155"><ele>20.0</ele><time>2026-04-05T07:28:48Z</time></trkpt><trkpt lat="43.711972815818164" lon="10.78062771856223"><ele>20.2</ele><time>2026-04-05T07:28:50Z</time></trkpt><trkpt lat="43.71190011269284" lon="10.780533364665008"><ele>20.4</ele><time>2026-04-05T07:28:52Z</time></trkpt><trkpt lat="43.711824918274395" lon="10.780448828552343"><ele>20.6</ele><time>2026-04-05T07:28:54Z</time></trkpt><trkpt lat="43.71174461303643" lon="10.780376605343134"><ele>20.8</ele><time>2026-04-05T07:28:56Z</time></trkpt><trkpt lat="43.71166863428036" lon="10.780296495756021"><ele>21.0</ele><time>2026-04-05T07:28:58Z</time></trkpt><trkpt lat="43.71160821720561" lon="10.780238625446051"><ele>20.8</ele><time>2026-04-05T07:29:01Z</time></trkpt><trkpt lat="43.711563819239075" lon="10.78017100017136"><ele>20.6</ele><time>2026-04-05T07:29:05Z</time></trkpt><trkpt lat="43.711506539271106" lon="10.780094908004761"><ele>20.4</ele><time>2026-04-05T07:29:07Z</time></trkpt><trkpt lat="43.71144596799819" lon="10.780014443589764"><ele>20.2</ele><time>2026-04-05T07:29:09Z</time></trkpt><trkpt lat="43.71147583938934" lon="10.779796624746451"><ele>20.0</ele><time>2026-04-05T07:29:11Z</time></trkpt><trkpt lat="43.71142585788458" lon="10.779687994964647"><ele>20.0</ele><time>2026-04-05T07:29:12.999Z</time></trkpt><trkpt lat="43.711376843738414" lon="10.779575572307873"><ele>20.0</ele><time>2026-04-05T07:29:14.999Z</time></trkpt><trkpt lat="43.71131950865641" lon="10.779466772194144"><ele>20.0</ele><time>2026-04-05T07:29:16.999Z</time></trkpt><trkpt lat="43.71126858418259" lon="10.77935982814601"><ele>20.0</ele><time>2026-04-05T07:29:18.999Z</time></trkpt><trkpt lat="43.7112217981052" lon="10.779249263123715"><ele>20.0</ele><time>2026-04-05T07:29:20.999Z</time></trkpt><trkpt lat="43.7111596713078" lon="10.77912240751985"><ele>20.0</ele><time>2026-04-05T07:29:22.999Z</time></trkpt><trkpt lat="43.71109944787402" lon="10.779004666997327"><ele>20.0</ele><time>2026-04-05T07:29:24.999Z</time></trkpt><trkpt lat="43.71103247144001" lon="10.778892383229522"><ele>20.0</ele><time>2026-04-05T07:29:26.999Z</time></trkpt><trkpt lat="43.710970384235964" lon="10.778781617976076"><ele>20.0</ele><time>2026-04-05T07:29:28.999Z</time></trkpt><trkpt lat="43.71091193695894" lon="10.778656204499708"><ele>20.0</ele><time>2026-04-05T07:29:30.999Z</time></trkpt><trkpt lat="43.710851064129706" lon="10.778537673322424"><ele>20.0</ele><time>2026-04-05T07:29:32.999Z</time></trkpt><trkpt lat="43.71079741855183" lon="10.778445711447556"><ele>20.0</ele><time>2026-04-05T07:29:34.999Z</time></trkpt><trkpt lat="43.71076074489686" lon="10.778371785731974"><ele>20.0</ele><time>2026-04-05T07:29:36.999Z</time></trkpt><trkpt lat="43.71072395764507" lon="10.778277767162972"><ele>20.0</ele><time>2026-04-05T07:29:38.999Z</time></trkpt><trkpt lat="43.71067843748567" lon="10.778174858553193"><ele>20.0</ele><time>2026-04-05T07:29:40.999Z</time></trkpt><trkpt lat="43.71062165849078" lon="10.778062929101228"><ele>20.0</ele><time>2026-04-05T07:29:42.999Z</time></trkpt><trkpt lat="43.710571448443375" lon="10.777950484129015"><ele>20.0</ele><time>2026-04-05T07:29:44.999Z</time></trkpt><trkpt lat="43.710520059935604" lon="10.777832343586335"><ele>20.0</ele><time>2026-04-05T07:29:46.999Z</time></trkpt><trkpt lat="43.71046156099757" lon="10.777717398079867"><ele>20.0</ele><time>2026-04-05T07:29:48.999Z</time></trkpt><trkpt lat="43.710404832456376" lon="10.777594354848468"><ele>20.0</ele><time>2026-04-05T07:29:50.999Z</time></trkpt><trkpt lat="43.71034969436938" lon="10.777468854197846"><ele>20.0</ele><time>2026-04-05T07:29:52.999Z</time></trkpt><trkpt lat="43.710291683518236" lon="10.777344727209458"><ele>20.2</ele><time>2026-04-05T07:29:54.999Z</time></trkpt><trkpt lat="43.71023549976384" lon="10.777215162829515"><ele>20.4</ele><time>2026-04-05T07:29:56.999Z</time></trkpt><trkpt lat="43.710173139935534" lon="10.777087726902556"><ele>20.6</ele><time>2026-04-05T07:29:58.999Z</time></trkpt><trkpt lat="43.71011315377255" lon="10.776963086861123"><ele>20.8</ele><time>2026-04-05T07:30:00.999Z</time></trkpt><trkpt lat="43.71005697263135" lon="10.776848048042355"><ele>21.0</ele><time>2026-04-05T07:30:02.999Z</time></trkpt><trkpt lat="43.71000575286333" lon="10.776725780165398"><ele>21.0</ele><time>2026-04-05T07:30:04.999Z</time></trkpt><trkpt lat="43.70995249576231" lon="10.776610321448395"><ele>21.0</ele><time>2026-04-05T07:30:06.998Z</time></trkpt><trkpt lat="43.70989671524096" lon="10.776481518564673"><ele>21.0</ele><time>2026-04-05T07:30:08.998Z</time></trkpt><trkpt lat="43.70984105940902" lon="10.77635573726434"><ele>21.0</ele><time>2026-04-05T07:30:10.998Z</time></trkpt><trkpt lat="43.70978255099137" lon="10.776226774189038"><ele>21.0</ele><time>2026-04-05T07:30:12.998Z</time></trkpt><trkpt lat="43.70972468827748" lon="10.77610449129417"><ele>20.8</ele><time>2026-04-05T07:30:14.998Z</time></trkpt><trkpt lat="43.70966419065884" lon="10.775982488959333"><ele>20.6</ele><time>2026-04-05T07:30:16.998Z</time></trkpt><trkpt lat="43.70960780686343" lon="10.775858755143913"><ele>20.4</ele><time>2026-04-05T07:30:18.998Z</time></trkpt><trkpt lat="43.70954558225931" lon="10.77573306403617"><ele>20.2</ele><time>2026-04-05T07:30:20.998Z</time></trkpt><trkpt lat="43.709480175713786" lon="10.77560560488388"><ele>20.0</ele><time>2026-04-05T07:30:22.998Z</time></trkpt><trkpt lat="43.70941732729305" lon="10.775477415854395"><ele>20.25</ele><time>2026-04-05T07:30:24.998Z</time></trkpt><trkpt lat="43.709354943263875" lon="10.775346367433558"><ele>20.5</ele><time>2026-04-05T07:30:26.998Z</time></trkpt><trkpt lat="43.70928931536558" lon="10.775216279060537"><ele>20.75</ele><time>2026-04-05T07:30:28.998Z</time></trkpt><trkpt lat="43.709222111786026" lon="10.775085256675993"><ele>21.0</ele><time>2026-04-05T07:30:31Z</time></trkpt><trkpt lat="43.709150242166295" lon="10.774967713245392"><ele>21.0</ele><time>2026-04-05T07:30:33Z</time></trkpt><trkpt lat="43.70909309526023" lon="10.774834006170558"><ele>21.0</ele><time>2026-04-05T07:30:35Z</time></trkpt><trkpt lat="43.70903709917638" lon="10.774700168024857"><ele>21.0</ele><time>2026-04-05T07:30:37Z</time></trkpt><trkpt lat="43.70897787976261" lon="10.77456834168566"><ele>21.0</ele><time>2026-04-05T07:30:39Z</time></trkpt><trkpt lat="43.708913458605316" lon="10.774429743751714"><ele>19.75</ele><time>2026-04-05T07:30:41Z</time></trkpt><trkpt lat="43.708849743630616" lon="10.77429313554582"><ele>18.5</ele><time>2026-04-05T07:30:43Z</time></trkpt><trkpt lat="43.708786933595405" lon="10.774158638935807"><ele>17.25</ele><time>2026-04-05T07:30:45Z</time></trkpt><trkpt lat="43.708727934161445" lon="10.774022711495174"><ele>16.0</ele><time>2026-04-05T07:30:47Z</time></trkpt><trkpt lat="43.70866574462251" lon="10.773888847396837"><ele>16.0</ele><time>2026-04-05T07:30:49Z</time></trkpt><trkpt lat="43.70860502378821" lon="10.773748852863884"><ele>16.0</ele><time>2026-04-05T07:30:51Z</time></trkpt><trkpt lat="43.708547786972225" lon="10.77361689088393"><ele>16.0</ele><time>2026-04-05T07:30:53Z</time></trkpt><trkpt lat="43.708489643593815" lon="10.77348283878822"><ele>16.0</ele><time>2026-04-05T07:30:55Z</time></trkpt><trkpt lat="43.70843154592876" lon="10.773349562201098"><ele>16.25</ele><time>2026-04-05T07:30:57Z</time></trkpt><trkpt lat="43.708373225747" lon="10.773216943400252"><ele>16.5</ele><time>2026-04-05T07:30:59Z</time></trkpt><trkpt lat="43.708329000709526" lon="10.773072454797102"><ele>16.75</ele><time>2026-04-05T07:31:01Z</time></trkpt><trkpt lat="43.70826857160674" lon="10.772936739442201"><ele>17.0</ele><time>2026-04-05T07:31:03Z</time></trkpt><trkpt lat="43.708193279210015" lon="10.772808159197101"><ele>17.2</ele><time>2026-04-05T07:31:05Z</time></trkpt><trkpt lat="43.708136856103884" lon="10.772681397007952"><ele>17.4</ele><time>2026-04-05T07:31:07Z</time></trkpt><trkpt lat="43.70807452419516" lon="10.772542741623159"><ele>17.6</ele><time>2026-04-05T07:31:09Z</time></trkpt><trkpt lat="43.70807524017746" lon="10.772449096302607"><ele>17.8</ele><time>2026-04-05T07:31:10Z</time></trkpt><trkpt lat="43.708015500111216" lon="10.772317721188895"><ele>18.0</ele><time>2026-04-05T07:31:12Z</time></trkpt><trkpt lat="43.70793913815617" lon="10.77219825179825"><ele>18.0</ele><time>2026-04-05T07:31:14Z</time></trkpt><trkpt lat="43.707881845168295" lon="10.7720616152709"><ele>18.0</ele><time>2026-04-05T07:31:16Z</time></trkpt><trkpt lat="43.707817171912225" lon="10.771918553831895"><ele>18.0</ele><time>2026-04-05T07:31:17.999Z</time></trkpt><trkpt lat="43.707752676145994" lon="10.771790621591506"><ele>18.0</ele><time>2026-04-05T07:31:19.999Z</time></trkpt><trkpt lat="43.70768756656988" lon="10.771654253997234"><ele>18.5</ele><time>2026-04-05T07:31:21.999Z</time></trkpt><trkpt lat="43.70762205661814" lon="10.771516991967498"><ele>19.0</ele><time>2026-04-05T07:31:23.999Z</time></trkpt><trkpt lat="43.70755641380991" lon="10.771378108714693"><ele>19.5</ele><time>2026-04-05T07:31:25.999Z</time></trkpt><trkpt lat="43.707488879954774" lon="10.771242876412702"><ele>20.0</ele><time>2026-04-05T07:31:27.999Z</time></trkpt><trkpt lat="43.70742258575026" lon="10.771106119045074"><ele>20.0</ele><time>2026-04-05T07:31:29.999Z</time></trkpt><trkpt lat="43.707367539763666" lon="10.770968354787593"><ele>20.0</ele><time>2026-04-05T07:31:31.999Z</time></trkpt><trkpt lat="43.7073016777057" lon="10.770830906324994"><ele>20.0</ele><time>2026-04-05T07:31:33.999Z</time></trkpt><trkpt lat="43.70723746503621" lon="10.770697501341859"><ele>20.0</ele><time>2026-04-05T07:31:35.999Z</time></trkpt><trkpt lat="43.7071746268296" lon="10.77055579959289"><ele>20.0</ele><time>2026-04-05T07:31:37.999Z</time></trkpt><trkpt lat="43.70710745396264" lon="10.770418363339822"><ele>20.0</ele><time>2026-04-05T07:31:39.999Z</time></trkpt><trkpt lat="43.707043937586384" lon="10.770280033452023"><ele>20.0</ele><time>2026-04-05T07:31:41.999Z</time></trkpt><trkpt lat="43.70698293965013" lon="10.770140546094593"><ele>20.0</ele><time>2026-04-05T07:31:43.999Z</time></trkpt><trkpt lat="43.70691769574579" lon="10.770005680044344"><ele>19.833333333333336</ele><time>2026-04-05T07:31:45.999Z</time></trkpt><trkpt lat="43.706855890856396" lon="10.769884522451562"><ele>19.666666666666668</ele><time>2026-04-05T07:31:47.999Z</time></trkpt><trkpt lat="43.706802042689084" lon="10.769771480072968"><ele>19.5</ele><time>2026-04-05T07:31:49.999Z</time></trkpt><trkpt lat="43.70676674808039" lon="10.769695125379851"><ele>19.333333333333332</ele><time>2026-04-05T07:31:51.999Z</time></trkpt><trkpt lat="43.7067740670896" lon="10.76959060528219"><ele>19.166666666666664</ele><time>2026-04-05T07:31:53.999Z</time></trkpt><trkpt lat="43.70682556880902" lon="10.769492794434342"><ele>19.0</ele><time>2026-04-05T07:31:55.999Z</time></trkpt><trkpt lat="43.70686587191704" lon="10.769380814821346"><ele>18.8</ele><time>2026-04-05T07:31:57.999Z</time></trkpt><trkpt lat="43.70689893714821" lon="10.76926141602426"><ele>18.599999999999998</ele><time>2026-04-05T07:31:59.999Z</time></trkpt><trkpt lat="43.70684668134924" lon="10.769124418957782"><ele>18.4</ele><time>2026-04-05T07:32:01.999Z</time></trkpt><trkpt lat="43.70673536799128" lon="10.769083350003166"><ele>18.2</ele><time>2026-04-05T07:32:03.999Z</time></trkpt><trkpt lat="43.70662196247554" lon="10.769099948804397"><ele>18.0</ele><time>2026-04-05T07:32:05.999Z</time></trkpt><trkpt lat="43.70654940395252" lon="10.769169682180353"><ele>18.0</ele><time>2026-04-05T07:32:07.998Z</time></trkpt><trkpt lat="43.706462909323314" lon="10.7690417337186"><ele>18.0</ele><time>2026-04-05T07:32:08.998Z</time></trkpt><trkpt lat="43.70635658666458" lon="10.768996334610334"><ele>18.0</ele><time>2026-04-05T07:32:10.998Z</time></trkpt><trkpt lat="43.70624633199561" lon="10.768956551029929"><ele>18.0</ele><time>2026-04-05T07:32:12.998Z</time></trkpt><trkpt lat="43.706137652350186" lon="10.768919477326854"><ele>18.0</ele><time>2026-04-05T07:32:14.998Z</time></trkpt><trkpt lat="43.706033288709314" lon="10.768885486895526"><ele>18.0</ele><time>2026-04-05T07:32:16.998Z</time></trkpt><trkpt lat="43.705933248393876" lon="10.768842003915697"><ele>18.0</ele><time>2026-04-05T07:32:18.998Z</time></trkpt><trkpt lat="43.70583239270978" lon="10.76880041946037"><ele>18.0</ele><time>2026-04-05T07:32:20.998Z</time></trkpt><trkpt lat="43.705730646400966" lon="10.768768972068868"><ele>18.0</ele><time>2026-04-05T07:32:22.998Z</time></trkpt><trkpt lat="43.70563447170489" lon="10.768733929144895"><ele>18.0</ele><time>2026-04-05T07:32:24.998Z</time></trkpt><trkpt lat="43.70553507477903" lon="10.768692198308779"><ele>18.0</ele><time>2026-04-05T07:32:26.998Z</time></trkpt><trkpt lat="43.705434409098146" lon="10.768650326891814"><ele>18.0</ele><time>2026-04-05T07:32:28.998Z</time></trkpt><trkpt lat="43.705332285120335" lon="10.768611025170069"><ele>18.0</ele><time>2026-04-05T07:32:30.998Z</time></trkpt><trkpt lat="43.70523153554527" lon="10.768573007889419"><ele>18.0</ele><time>2026-04-05T07:32:32.998Z</time></trkpt><trkpt lat="43.705130094050816" lon="10.768536113345354"><ele>18.4</ele><time>2026-04-05T07:32:34.998Z</time></trkpt><trkpt lat="43.705029043792976" lon="10.768497906290973"><ele>18.8</ele><time>2026-04-05T07:32:37Z</time></trkpt><trkpt lat="43.70492708422678" lon="10.768458169463392"><ele>19.2</ele><time>2026-04-05T07:32:39Z</time></trkpt><trkpt lat="43.70482466954682" lon="10.768419058471611"><ele>19.6</ele><time>2026-04-05T07:32:41Z</time></trkpt><trkpt lat="43.70472334732301" lon="10.76838119267063"><ele>20.0</ele><time>2026-04-05T07:32:43Z</time></trkpt><trkpt lat="43.70462284810048" lon="10.768332155218511"><ele>20.0</ele><time>2026-04-05T07:32:45Z</time></trkpt><trkpt lat="43.70454534343247" lon="10.768228430282312"><ele>20.0</ele><time>2026-04-05T07:32:47Z</time></trkpt><trkpt lat="43.70449373744249" lon="10.768096039258326"><ele>20.0</ele><time>2026-04-05T07:32:49Z</time></trkpt><trkpt lat="43.70444574056824" lon="10.767968311395796"><ele>20.0</ele><time>2026-04-05T07:32:51Z</time></trkpt><trkpt lat="43.70439439855955" lon="10.767831560830114"><ele>20.0</ele><time>2026-04-05T07:32:53Z</time></trkpt><trkpt lat="43.704339124768616" lon="10.767700183559919"><ele>20.0</ele><time>2026-04-05T07:32:55Z</time></trkpt><trkpt lat="43.704295190466425" lon="10.767567424418536"><ele>20.0</ele><time>2026-04-05T07:32:57Z</time></trkpt><trkpt lat="43.70423897521532" lon="10.767438121955326"><ele>20.0</ele><time>2026-04-05T07:32:59Z</time></trkpt><trkpt lat="43.704193263160505" lon="10.767304217171775"><ele>20.0</ele><time>2026-04-05T07:33:01Z</time></trkpt><trkpt lat="43.70414388274418" lon="10.767178889409125"><ele>20.0</ele><time>2026-04-05T07:33:03Z</time></trkpt><trkpt lat="43.704088747599485" lon="10.767064164268314"><ele>20.0</ele><time>2026-04-05T07:33:05Z</time></trkpt><trkpt lat="43.704047767625106" lon="10.766958106761718"><ele>20.0</ele><time>2026-04-05T07:33:07Z</time></trkpt><trkpt lat="43.704002043261916" lon="10.766855063127938"><ele>20.0</ele><time>2026-04-05T07:33:09Z</time></trkpt><trkpt lat="43.703960675904895" lon="10.766748630906637"><ele>20.0</ele><time>2026-04-05T07:33:11Z</time></trkpt><trkpt lat="43.703917814165244" lon="10.766635539891006"><ele>20.0</ele><time>2026-04-05T07:33:13Z</time></trkpt><trkpt lat="43.70387531451532" lon="10.766516794879585"><ele>19.8</ele><time>2026-04-05T07:33:15Z</time></trkpt><trkpt lat="43.7038252384496" lon="10.766392736947504"><ele>19.6</ele><time>2026-04-05T07:33:17Z</time></trkpt><trkpt lat="43.7037699120162" lon="10.766270934488034"><ele>19.4</ele><time>2026-04-05T07:33:19Z</time></trkpt><trkpt lat="43.70371687680774" lon="10.766146260445819"><ele>19.2</ele><time>2026-04-05T07:33:20.999Z</time></trkpt><trkpt lat="43.7036693285759" lon="10.766018316860833"><ele>19.0</ele><time>2026-04-05T07:33:22.999Z</time></trkpt><trkpt lat="43.703617794074084" lon="10.765899621631421"><ele>19.2</ele><time>2026-04-05T07:33:24.999Z</time></trkpt><trkpt lat="43.7035765229925" lon="10.765781976254269"><ele>19.4</ele><time>2026-04-05T07:33:26.999Z</time></trkpt><trkpt lat="43.70353533213459" lon="10.76566902719374"><ele>19.6</ele><time>2026-04-05T07:33:28.999Z</time></trkpt><trkpt lat="43.703489070380236" lon="10.76555588434186"><ele>19.8</ele><time>2026-04-05T07:33:30.999Z</time></trkpt><trkpt lat="43.70343781485671" lon="10.765441584392756"><ele>20.0</ele><time>2026-04-05T07:33:32.999Z</time></trkpt><trkpt lat="43.70339070007166" lon="10.765317723008982"><ele>20.0</ele><time>2026-04-05T07:33:34.999Z</time></trkpt><trkpt lat="43.70334430337987" lon="10.765197436621355"><ele>20.0</ele><time>2026-04-05T07:33:36.999Z</time></trkpt><trkpt lat="43.70329705316563" lon="10.765071208424446"><ele>20.0</ele><time>2026-04-05T07:33:38.999Z</time></trkpt><trkpt lat="43.703254159702645" lon="10.764944735584049"><ele>20.0</ele><time>2026-04-05T07:33:40.999Z</time></trkpt><trkpt lat="43.7032117282007" lon="10.764807404597965"><ele>20.0</ele><time>2026-04-05T07:33:42.999Z</time></trkpt><trkpt lat="43.70318201886416" lon="10.764665037830161"><ele>20.0</ele><time>2026-04-05T07:33:44.999Z</time></trkpt><trkpt lat="43.7031576488048" lon="10.764526625534877"><ele>20.0</ele><time>2026-04-05T07:33:46.999Z</time></trkpt><trkpt lat="43.7031209870567" lon="10.76438835950301"><ele>20.0</ele><time>2026-04-05T07:33:48.999Z</time></trkpt><trkpt lat="43.70309702888321" lon="10.764243356046096"><ele>20.0</ele><time>2026-04-05T07:33:50.999Z</time></trkpt><trkpt lat="43.70306879287062" lon="10.764099041884235"><ele>20.0</ele><time>2026-04-05T07:33:52.999Z</time></trkpt><trkpt lat="43.70304414909144" lon="10.76395688698359"><ele>19.8</ele><time>2026-04-05T07:33:54.999Z</time></trkpt><trkpt lat="43.70301625990204" lon="10.763812965874711"><ele>19.6</ele><time>2026-04-05T07:33:56.999Z</time></trkpt><trkpt lat="43.70298592174407" lon="10.763666677759801"><ele>19.4</ele><time>2026-04-05T07:33:58.999Z</time></trkpt><trkpt lat="43.702957656460946" lon="10.763518116526736"><ele>19.2</ele><time>2026-04-05T07:34:00.999Z</time></trkpt><trkpt lat="43.70293173871108" lon="10.763373479792746"><ele>19.0</ele><time>2026-04-05T07:34:02.999Z</time></trkpt><trkpt lat="43.70290649868757" lon="10.763225402801988"><ele>19.0</ele><time>2026-04-05T07:34:04.999Z</time></trkpt><trkpt lat="43.70287510612932" lon="10.763082790241493"><ele>19.0</ele><time>2026-04-05T07:34:06.999Z</time></trkpt><trkpt lat="43.70285964875186" lon="10.762932796294509"><ele>19.0</ele><time>2026-04-05T07:34:08.998Z</time></trkpt><trkpt lat="43.702820388726735" lon="10.762776083305198"><ele>19.0</ele><time>2026-04-05T07:34:10.998Z</time></trkpt><trkpt lat="43.70280272278639" lon="10.76262153962816"><ele>19.25</ele><time>2026-04-05T07:34:12.998Z</time></trkpt><trkpt lat="43.702774006373154" lon="10.76246733887986"><ele>19.5</ele><time>2026-04-05T07:34:14.998Z</time></trkpt><trkpt lat="43.70274502323796" lon="10.762316743098516"><ele>19.75</ele><time>2026-04-05T07:34:16.998Z</time></trkpt><trkpt lat="43.70271516416509" lon="10.762163091583414"><ele>20.0</ele><time>2026-04-05T07:34:18.998Z</time></trkpt><trkpt lat="43.70268857047426" lon="10.762007812511701"><ele>20.0</ele><time>2026-04-05T07:34:20.998Z</time></trkpt><trkpt lat="43.70265293162309" lon="10.761847792086819"><ele>20.0</ele><time>2026-04-05T07:34:22.998Z</time></trkpt><trkpt lat="43.70262694344283" lon="10.761686984530101"><ele>20.0</ele><time>2026-04-05T07:34:24.998Z</time></trkpt><trkpt lat="43.70259585510488" lon="10.761525966868136"><ele>20.0</ele><time>2026-04-05T07:34:26.998Z</time></trkpt><trkpt lat="43.70258071321818" lon="10.761440277463738"><ele>20.0</ele><time>2026-04-05T07:34:27.998Z</time></trkpt><trkpt lat="43.70254957097958" lon="10.761277782013694"><ele>20.0</ele><time>2026-04-05T07:34:29.998Z</time></trkpt><trkpt lat="43.70251871386229" lon="10.761118713933808"><ele>20.0</ele><time>2026-04-05T07:34:31.998Z</time></trkpt><trkpt lat="43.70248561199554" lon="10.760959920228935"><ele>20.0</ele><time>2026-04-05T07:34:33.998Z</time></trkpt><trkpt lat="43.70245962192418" lon="10.760794768941807"><ele>20.0</ele><time>2026-04-05T07:34:35.998Z</time></trkpt><trkpt lat="43.70242818694667" lon="10.760633023392511"><ele>20.0</ele><time>2026-04-05T07:34:37.998Z</time></trkpt><trkpt lat="43.70239779501819" lon="10.760472558463983"><ele>20.0</ele><time>2026-04-05T07:34:39.998Z</time></trkpt><trkpt lat="43.70236582153343" lon="10.760314577895977"><ele>20.0</ele><time>2026-04-05T07:34:41.998Z</time></trkpt><trkpt lat="43.70233817939433" lon="10.760155489623601"><ele>20.0</ele><time>2026-04-05T07:34:44Z</time></trkpt><trkpt lat="43.7023058155955" lon="10.760003115219536"><ele>20.0</ele><time>2026-04-05T07:34:46Z</time></trkpt><trkpt lat="43.70227387906174" lon="10.759839789177775"><ele>20.0</ele><time>2026-04-05T07:34:48Z</time></trkpt><trkpt lat="43.70224473305466" lon="10.759677595162126"><ele>20.0</ele><time>2026-04-05T07:34:50Z</time></trkpt><trkpt lat="43.702212577077674" lon="10.759512203358689"><ele>20.0</ele><time>2026-04-05T07:34:52Z</time></trkpt><trkpt lat="43.70218424660918" lon="10.759350095925942"><ele>19.8</ele><time>2026-04-05T07:34:54Z</time></trkpt><trkpt lat="43.702153093051884" lon="10.759187962454892"><ele>19.6</ele><time>2026-04-05T07:34:56Z</time></trkpt><trkpt lat="43.70212397995629" lon="10.759022676864083"><ele>19.4</ele><time>2026-04-05T07:34:58Z</time></trkpt><trkpt lat="43.7020918324224" lon="10.758859953620606"><ele>19.2</ele><time>2026-04-05T07:35:00Z</time></trkpt><trkpt lat="43.70207410750283" lon="10.758772935203654"><ele>19.0</ele><time>2026-04-05T07:35:01Z</time></trkpt><trkpt lat="43.7020435359369" lon="10.758603560054022"><ele>18.8</ele><time>2026-04-05T07:35:03Z</time></trkpt><trkpt lat="43.70202316996985" lon="10.758519494483819"><ele>18.599999999999998</ele><time>2026-04-05T07:35:04Z</time></trkpt><trkpt lat="43.70199155251399" lon="10.75834974417645"><ele>18.4</ele><time>2026-04-05T07:35:06Z</time></trkpt><trkpt lat="43.70196503051449" lon="10.758187119362278"><ele>18.2</ele><time>2026-04-05T07:35:08Z</time></trkpt><trkpt lat="43.701948079711336" lon="10.758099625692486"><ele>18.0</ele><time>2026-04-05T07:35:09Z</time></trkpt><trkpt lat="43.70191988097145" lon="10.757937236809708"><ele>18.0</ele><time>2026-04-05T07:35:11Z</time></trkpt><trkpt lat="43.701903799422766" lon="10.757852779906077"><ele>18.0</ele><time>2026-04-05T07:35:12Z</time></trkpt><trkpt lat="43.70187320709407" lon="10.757683575766816"><ele>18.0</ele><time>2026-04-05T07:35:14Z</time></trkpt><trkpt lat="43.70184113502769" lon="10.757516399314149"><ele>18.0</ele><time>2026-04-05T07:35:16Z</time></trkpt><trkpt lat="43.70182779514158" lon="10.75742985839783"><ele>18.0</ele><time>2026-04-05T07:35:17Z</time></trkpt><trkpt lat="43.7018133097275" lon="10.757343929749428"><ele>18.0</ele><time>2026-04-05T07:35:18Z</time></trkpt><trkpt lat="43.70178137459379" lon="10.757177240883635"><ele>18.0</ele><time>2026-04-05T07:35:20Z</time></trkpt><trkpt lat="43.70176395685688" lon="10.757093529491637"><ele>18.0</ele><time>2026-04-05T07:35:21Z</time></trkpt><trkpt lat="43.7017474117916" lon="10.757007153427663"><ele>18.0</ele><time>2026-04-05T07:35:22Z</time></trkpt><trkpt lat="43.701731088028396" lon="10.756916736898752"><ele>18.0</ele><time>2026-04-05T07:35:22.999Z</time></trkpt><trkpt lat="43.7017161204902" lon="10.756831089530865"><ele>18.0</ele><time>2026-04-05T07:35:23.999Z</time></trkpt><trkpt lat="43.70168517262631" lon="10.756663088592873"><ele>18.0</ele><time>2026-04-05T07:35:25.999Z</time></trkpt><trkpt lat="43.701663185673745" lon="10.756493840390098"><ele>17.833333333333332</ele><time>2026-04-05T07:35:27.999Z</time></trkpt><trkpt lat="43.701650566568205" lon="10.756407934064631"><ele>17.666666666666668</ele><time>2026-04-05T07:35:28.999Z</time></trkpt><trkpt lat="43.701620515195444" lon="10.756237690034755"><ele>17.5</ele><time>2026-04-05T07:35:30.999Z</time></trkpt><trkpt lat="43.701610646283335" lon="10.75615152220491"><ele>17.333333333333336</ele><time>2026-04-05T07:35:31.999Z</time></trkpt><trkpt lat="43.70159585401334" lon="10.756066833046873"><ele>17.166666666666668</ele><time>2026-04-05T07:35:32.999Z</time></trkpt><trkpt lat="43.70157423874129" lon="10.755902887829638"><ele>17.0</ele><time>2026-04-05T07:35:34.999Z</time></trkpt><trkpt lat="43.70156108280674" lon="10.755813586334042"><ele>17.0</ele><time>2026-04-05T07:35:35.999Z</time></trkpt><trkpt lat="43.701547690439234" lon="10.755724308039717"><ele>17.0</ele><time>2026-04-05T07:35:36.999Z</time></trkpt><trkpt lat="43.70152334733228" lon="10.75555605629558"><ele>17.0</ele><time>2026-04-05T07:35:38.999Z</time></trkpt><trkpt lat="43.70150924161646" lon="10.755470374093207"><ele>17.0</ele><time>2026-04-05T07:35:39.999Z</time></trkpt><trkpt lat="43.701497603513054" lon="10.755383960823686"><ele>17.0</ele><time>2026-04-05T07:35:40.999Z</time></trkpt><trkpt lat="43.701473652247905" lon="10.755214657078408"><ele>17.0</ele><time>2026-04-05T07:35:42.999Z</time></trkpt><trkpt lat="43.70145082199442" lon="10.75504828615727"><ele>17.0</ele><time>2026-04-05T07:35:44.999Z</time></trkpt><trkpt lat="43.70142494107427" lon="10.754880158874283"><ele>17.0</ele><time>2026-04-05T07:35:46.999Z</time></trkpt><trkpt lat="43.70140009473914" lon="10.754713292279948"><ele>17.0</ele><time>2026-04-05T07:35:48.999Z</time></trkpt><trkpt lat="43.70138469690533" lon="10.754626410199382"><ele>17.0</ele><time>2026-04-05T07:35:49.999Z</time></trkpt><trkpt lat="43.70136935735263" lon="10.754540574662716"><ele>17.0</ele><time>2026-04-05T07:35:50.999Z</time></trkpt><trkpt lat="43.70134536359088" lon="10.754375072413522"><ele>17.0</ele><time>2026-04-05T07:35:52.999Z</time></trkpt><trkpt lat="43.701332788765534" lon="10.754288997167507"><ele>17.0</ele><time>2026-04-05T07:35:53.999Z</time></trkpt><trkpt lat="43.70130363584071" lon="10.754121227810668"><ele>17.0</ele><time>2026-04-05T07:35:55.999Z</time></trkpt><trkpt lat="43.7012802053445" lon="10.753958070049004"><ele>17.0</ele><time>2026-04-05T07:35:57.999Z</time></trkpt><trkpt lat="43.701257831407105" lon="10.753790506967707"><ele>17.0</ele><time>2026-04-05T07:35:59.999Z</time></trkpt><trkpt lat="43.70123647506399" lon="10.753632094500645"><ele>17.0</ele><time>2026-04-05T07:36:01.999Z</time></trkpt><trkpt lat="43.70122103436123" lon="10.75354335688507"><ele>17.0</ele><time>2026-04-05T07:36:02.999Z</time></trkpt><trkpt lat="43.701203149798026" lon="10.753452836832489"><ele>17.0</ele><time>2026-04-05T07:36:03.999Z</time></trkpt><trkpt lat="43.70118640781495" lon="10.753293374793364"><ele>17.0</ele><time>2026-04-05T07:36:05.999Z</time></trkpt><trkpt lat="43.70115571793796" lon="10.753129428293882"><ele>17.0</ele><time>2026-04-05T07:36:07.999Z</time></trkpt><trkpt lat="43.70112901528831" lon="10.75296915384397"><ele>17.0</ele><time>2026-04-05T07:36:09.999Z</time></trkpt><trkpt lat="43.70111660523561" lon="10.752883706173176"><ele>17.0</ele><time>2026-04-05T07:36:10.999Z</time></trkpt><trkpt lat="43.701091229232055" lon="10.752714161558815"><ele>17.0</ele><time>2026-04-05T07:36:12.998Z</time></trkpt><trkpt lat="43.7010685580464" lon="10.752546589815553"><ele>17.0</ele><time>2026-04-05T07:36:14.998Z</time></trkpt><trkpt lat="43.701053209131686" lon="10.752459682769697"><ele>17.0</ele><time>2026-04-05T07:36:15.998Z</time></trkpt><trkpt lat="43.701026681555405" lon="10.752296414395051"><ele>17.0</ele><time>2026-04-05T07:36:17.998Z</time></trkpt><trkpt lat="43.70100479141463" lon="10.752131168089873"><ele>17.0</ele><time>2026-04-05T07:36:19.998Z</time></trkpt><trkpt lat="43.700977368570925" lon="10.75196495828741"><ele>17.0</ele><time>2026-04-05T07:36:21.998Z</time></trkpt><trkpt lat="43.70094887613831" lon="10.751796457523305"><ele>17.0</ele><time>2026-04-05T07:36:23.998Z</time></trkpt><trkpt lat="43.700920542648106" lon="10.751623927210275"><ele>17.0</ele><time>2026-04-05T07:36:25.998Z</time></trkpt><trkpt lat="43.70089657312204" lon="10.751454440748091"><ele>17.0</ele><time>2026-04-05T07:36:27.998Z</time></trkpt><trkpt lat="43.700872315980604" lon="10.75128723985024"><ele>17.0</ele><time>2026-04-05T07:36:29.998Z</time></trkpt><trkpt lat="43.700848219691956" lon="10.751120409050598"><ele>17.0</ele><time>2026-04-05T07:36:31.998Z</time></trkpt><trkpt lat="43.70083462713305" lon="10.751035155147454"><ele>17.0</ele><time>2026-04-05T07:36:32.998Z</time></trkpt><trkpt lat="43.70082229858212" lon="10.750948762937"><ele>16.8</ele><time>2026-04-05T07:36:33.998Z</time></trkpt><trkpt lat="43.70079400608974" lon="10.750785455494778"><ele>16.6</ele><time>2026-04-05T07:36:35.998Z</time></trkpt><trkpt lat="43.70077096925743" lon="10.750626072608963"><ele>16.400000000000002</ele><time>2026-04-05T07:36:37.998Z</time></trkpt><trkpt lat="43.700747248675206" lon="10.7504658782766"><ele>16.2</ele><time>2026-04-05T07:36:39.998Z</time></trkpt><trkpt lat="43.700728613737525" lon="10.75038071056199"><ele>16.0</ele><time>2026-04-05T07:36:40.998Z</time></trkpt><trkpt lat="43.70071463518889" lon="10.75023231918976"><ele>16.2</ele><time>2026-04-05T07:36:42.998Z</time></trkpt><trkpt lat="43.700702579786075" lon="10.750145110902851"><ele>16.400000000000002</ele><time>2026-04-05T07:36:43.998Z</time></trkpt><trkpt lat="43.700675574713756" lon="10.74998108083184"><ele>16.6</ele><time>2026-04-05T07:36:45.998Z</time></trkpt><trkpt lat="43.700650056534556" lon="10.74981825936434"><ele>16.8</ele><time>2026-04-05T07:36:47.998Z</time></trkpt><trkpt lat="43.70063843715341" lon="10.749731845189723"><ele>17.0</ele><time>2026-04-05T07:36:49Z</time></trkpt><trkpt lat="43.70061076938056" lon="10.749569919230822"><ele>17.0</ele><time>2026-04-05T07:36:51Z</time></trkpt><trkpt lat="43.70059661885274" lon="10.74948467265636"><ele>17.0</ele><time>2026-04-05T07:36:52Z</time></trkpt><trkpt lat="43.70056942607335" lon="10.74931628626065"><ele>17.0</ele><time>2026-04-05T07:36:54Z</time></trkpt><trkpt lat="43.700543862739444" lon="10.749153698922587"><ele>17.0</ele><time>2026-04-05T07:36:56Z</time></trkpt><trkpt lat="43.70052421246473" lon="10.748994104074207"><ele>17.0</ele><time>2026-04-05T07:36:58Z</time></trkpt><trkpt lat="43.7004996620289" lon="10.748832809633118"><ele>17.0</ele><time>2026-04-05T07:37:00Z</time></trkpt><trkpt lat="43.70047362710461" lon="10.7486749785838"><ele>17.0</ele><time>2026-04-05T07:37:02Z</time></trkpt><trkpt lat="43.700443691486115" lon="10.748518822205854"><ele>17.0</ele><time>2026-04-05T07:37:04Z</time></trkpt><trkpt lat="43.700428111743896" lon="10.748358698754844"><ele>17.0</ele><time>2026-04-05T07:37:06Z</time></trkpt><trkpt lat="43.7003995843266" lon="10.74820146184222"><ele>17.0</ele><time>2026-04-05T07:37:08Z</time></trkpt><trkpt lat="43.70038197823394" lon="10.748047033479203"><ele>17.0</ele><time>2026-04-05T07:37:10Z</time></trkpt><trkpt lat="43.700358702790155" lon="10.747903155803732"><ele>17.0</ele><time>2026-04-05T07:37:12Z</time></trkpt><trkpt lat="43.700344384505065" lon="10.747763384102656"><ele>17.0</ele><time>2026-04-05T07:37:14Z</time></trkpt><trkpt lat="43.70033261812132" lon="10.747634103001179"><ele>17.0</ele><time>2026-04-05T07:37:16Z</time></trkpt><trkpt lat="43.70031415420128" lon="10.747494356996162"><ele>17.4</ele><time>2026-04-05T07:37:18Z</time></trkpt><trkpt lat="43.7002836755731" lon="10.747353388447806"><ele>17.799999999999997</ele><time>2026-04-05T07:37:20Z</time></trkpt><trkpt lat="43.70026275132908" lon="10.747219086366051"><ele>18.2</ele><time>2026-04-05T07:37:22Z</time></trkpt><trkpt lat="43.700233173203685" lon="10.747072530654947"><ele>18.599999999999998</ele><time>2026-04-05T07:37:24Z</time></trkpt><trkpt lat="43.700207567909786" lon="10.746932105892368"><ele>19.0</ele><time>2026-04-05T07:37:26Z</time></trkpt><trkpt lat="43.70018363147146" lon="10.746796504495556"><ele>19.0</ele><time>2026-04-05T07:37:27.999Z</time></trkpt><trkpt lat="43.70016569324861" lon="10.746664375562395"><ele>19.0</ele><time>2026-04-05T07:37:29.999Z</time></trkpt><trkpt lat="43.70015497922952" lon="10.74654169069669"><ele>19.0</ele><time>2026-04-05T07:37:31.999Z</time></trkpt><trkpt lat="43.7001472926647" lon="10.746424342153956"><ele>19.0</ele><time>2026-04-05T07:37:33.999Z</time></trkpt><trkpt lat="43.70013342433219" lon="10.746333125198158"><ele>19.0</ele><time>2026-04-05T07:37:35.999Z</time></trkpt><trkpt lat="43.70011152149259" lon="10.746231493552884"><ele>19.0</ele><time>2026-04-05T07:37:38.999Z</time></trkpt><trkpt lat="43.70008783467988" lon="10.746139285703"><ele>19.333333333333332</ele><time>2026-04-05T07:37:41.999Z</time></trkpt><trkpt lat="43.700058856935804" lon="10.746039700179644"><ele>19.666666666666664</ele><time>2026-04-05T07:37:46.999Z</time></trkpt><trkpt lat="43.700064597139146" lon="10.745948248824334"><ele>20.0</ele><time>2026-04-05T07:37:48.999Z</time></trkpt><trkpt lat="43.70000839206246" lon="10.745875445094951"><ele>20.333333333333332</ele><time>2026-04-05T07:37:51.999Z</time></trkpt><trkpt lat="43.69997864464722" lon="10.745792329047271"><ele>20.666666666666668</ele><time>2026-04-05T07:37:54.999Z</time></trkpt><trkpt lat="43.699939026115864" lon="10.745681631747992"><ele>21.0</ele><time>2026-04-05T07:37:57.999Z</time></trkpt><trkpt lat="43.69989499224472" lon="10.74556330176436"><ele>21.0</ele><time>2026-04-05T07:38:00.999Z</time></trkpt><trkpt lat="43.69985236123841" lon="10.745447276899979"><ele>21.0</ele><time>2026-04-05T07:38:03.999Z</time></trkpt><trkpt lat="43.699815754730274" lon="10.745347648381557"><ele>21.0</ele><time>2026-04-05T07:38:06.999Z</time></trkpt><trkpt lat="43.6997741360039" lon="10.74523443613551"><ele>21.0</ele><time>2026-04-05T07:38:09.999Z</time></trkpt><trkpt lat="43.69973375477221" lon="10.745124590565242"><ele>21.0</ele><time>2026-04-05T07:38:12.999Z</time></trkpt><trkpt lat="43.69969519680617" lon="10.74501970459084"><ele>21.0</ele><time>2026-04-05T07:38:15.998Z</time></trkpt><trkpt lat="43.69966601552672" lon="10.744940325202553"><ele>21.0</ele><time>2026-04-05T07:38:17.998Z</time></trkpt><trkpt lat="43.699608173521014" lon="10.744835941632706"><ele>21.0</ele><time>2026-04-05T07:38:20.998Z</time></trkpt><trkpt lat="43.69958813262023" lon="10.744735164702421"><ele>21.0</ele><time>2026-04-05T07:38:22.998Z</time></trkpt><trkpt lat="43.699546549439226" lon="10.744625625920053"><ele>21.0</ele><time>2026-04-05T07:38:25.998Z</time></trkpt><trkpt lat="43.69951463111339" lon="10.744541647171966"><ele>21.0</ele><time>2026-04-05T07:38:27.998Z</time></trkpt><trkpt lat="43.69948314241703" lon="10.744457419519312"><ele>21.0</ele><time>2026-04-05T07:38:29.998Z</time></trkpt><trkpt lat="43.69945171159782" lon="10.744373346721066"><ele>21.0</ele><time>2026-04-05T07:38:31.998Z</time></trkpt><trkpt lat="43.69941812356063" lon="10.744285644540602"><ele>21.0</ele><time>2026-04-05T07:38:33.998Z</time></trkpt><trkpt lat="43.69938428946759" lon="10.744202988486965"><ele>21.0</ele><time>2026-04-05T07:38:35.998Z</time></trkpt><trkpt lat="43.69934090938392" lon="10.744102212383103"><ele>21.0</ele><time>2026-04-05T07:38:38.998Z</time></trkpt><trkpt lat="43.69929776427142" lon="10.744005363713677"><ele>21.0</ele><time>2026-04-05T07:38:41.998Z</time></trkpt><trkpt lat="43.69926013382321" lon="10.74390494028135"><ele>21.0</ele><time>2026-04-05T07:38:44.998Z</time></trkpt><trkpt lat="43.69922860634047" lon="10.743811748438661"><ele>21.0</ele><time>2026-04-05T07:38:47.998Z</time></trkpt><trkpt lat="43.69919485235587" lon="10.743723256041312"><ele>21.0</ele><time>2026-04-05T07:38:50.998Z</time></trkpt><trkpt lat="43.69919822885884" lon="10.743593667044987"><ele>21.0</ele><time>2026-04-05T07:38:56Z</time></trkpt><trkpt lat="43.69919109432007" lon="10.74347312216601"><ele>21.0</ele><time>2026-04-05T07:38:58Z</time></trkpt><trkpt lat="43.69918487328301" lon="10.743344990669069"><ele>21.0</ele><time>2026-04-05T07:39:00Z</time></trkpt><trkpt lat="43.69917578818229" lon="10.743205119334936"><ele>21.0</ele><time>2026-04-05T07:39:02Z</time></trkpt><trkpt lat="43.69916799212007" lon="10.743066554384294"><ele>20.6</ele><time>2026-04-05T07:39:04Z</time></trkpt><trkpt lat="43.69916044952793" lon="10.742922801130259"><ele>20.200000000000003</ele><time>2026-04-05T07:39:06Z</time></trkpt><trkpt lat="43.69915246366701" lon="10.742790573971368"><ele>19.799999999999997</ele><time>2026-04-05T07:39:08Z</time></trkpt><trkpt lat="43.69913556665357" lon="10.742657322763726"><ele>19.4</ele><time>2026-04-05T07:39:10Z</time></trkpt><trkpt lat="43.699131778105134" lon="10.742517712249711"><ele>19.0</ele><time>2026-04-05T07:39:12Z</time></trkpt><trkpt lat="43.699131240928665" lon="10.742386185526852"><ele>18.833333333333332</ele><time>2026-04-05T07:39:14Z</time></trkpt><trkpt lat="43.699127487928145" lon="10.742278817361258"><ele>18.666666666666664</ele><time>2026-04-05T07:39:16Z</time></trkpt><trkpt lat="43.69912516674056" lon="10.742188105496936"><ele>18.5</ele><time>2026-04-05T07:39:19Z</time></trkpt><trkpt lat="43.699128513070065" lon="10.742089162664127"><ele>18.333333333333332</ele><time>2026-04-05T07:39:33.999Z</time></trkpt><trkpt lat="43.69911774149291" lon="10.741960946550634"><ele>18.166666666666668</ele><time>2026-04-05T07:39:36.999Z</time></trkpt><trkpt lat="43.699109565806914" lon="10.741853687567211"><ele>18.0</ele><time>2026-04-05T07:39:38.999Z</time></trkpt><trkpt lat="43.69910173402648" lon="10.741744951239713"><ele>17.8</ele><time>2026-04-05T07:39:40.999Z</time></trkpt><trkpt lat="43.69908931685096" lon="10.741625409709101"><ele>17.6</ele><time>2026-04-05T07:39:42.999Z</time></trkpt><trkpt lat="43.699070691029384" lon="10.74150671737425"><ele>17.4</ele><time>2026-04-05T07:39:44.999Z</time></trkpt><trkpt lat="43.699054122611756" lon="10.741376644721868"><ele>17.2</ele><time>2026-04-05T07:39:46.999Z</time></trkpt><trkpt lat="43.69904477326105" lon="10.741242487017567"><ele>17.0</ele><time>2026-04-05T07:39:48.999Z</time></trkpt><trkpt lat="43.69903382743621" lon="10.741103887254463"><ele>17.2</ele><time>2026-04-05T07:39:50.999Z</time></trkpt><trkpt lat="43.699022796693875" lon="10.740957877101152"><ele>17.4</ele><time>2026-04-05T07:39:52.999Z</time></trkpt><trkpt lat="43.699011028593965" lon="10.740807830605458"><ele>17.6</ele><time>2026-04-05T07:39:54.999Z</time></trkpt><trkpt lat="43.698995798688095" lon="10.740654929761758"><ele>17.8</ele><time>2026-04-05T07:39:56.999Z</time></trkpt><trkpt lat="43.69898362471732" lon="10.740501651951323"><ele>18.0</ele><time>2026-04-05T07:39:58.999Z</time></trkpt><trkpt lat="43.698975446642116" lon="10.740351149942967"><ele>17.75</ele><time>2026-04-05T07:40:00.999Z</time></trkpt><trkpt lat="43.69897021035037" lon="10.740195594640822"><ele>17.5</ele><time>2026-04-05T07:40:02.999Z</time></trkpt><trkpt lat="43.69896027126274" lon="10.740041294975093"><ele>17.25</ele><time>2026-04-05T07:40:04.999Z</time></trkpt><trkpt lat="43.69894814361437" lon="10.739884472996323"><ele>17.0</ele><time>2026-04-05T07:40:06.999Z</time></trkpt><trkpt lat="43.69894452073603" lon="10.739725044810216"><ele>17.0</ele><time>2026-04-05T07:40:08.999Z</time></trkpt><trkpt lat="43.69893737720803" lon="10.739570930348886"><ele>17.0</ele><time>2026-04-05T07:40:10.999Z</time></trkpt><trkpt lat="43.69892459507953" lon="10.739417261735065"><ele>17.0</ele><time>2026-04-05T07:40:12.999Z</time></trkpt><trkpt lat="43.69891662197274" lon="10.739260238366859"><ele>17.0</ele><time>2026-04-05T07:40:14.999Z</time></trkpt><trkpt lat="43.69890163878676" lon="10.739108601331182"><ele>17.0</ele><time>2026-04-05T07:40:16.999Z</time></trkpt><trkpt lat="43.698893627261654" lon="10.738952480767535"><ele>17.0</ele><time>2026-04-05T07:40:18.999Z</time></trkpt><trkpt lat="43.69888500886274" lon="10.738792712392076"><ele>17.0</ele><time>2026-04-05T07:40:20.999Z</time></trkpt><trkpt lat="43.698875762570765" lon="10.738627806300116"><ele>17.0</ele><time>2026-04-05T07:40:22.998Z</time></trkpt><trkpt lat="43.69886878358496" lon="10.738461535267458"><ele>17.0</ele><time>2026-04-05T07:40:24.998Z</time></trkpt><trkpt lat="43.69885949167504" lon="10.738297254032505"><ele>16.75</ele><time>2026-04-05T07:40:26.998Z</time></trkpt><trkpt lat="43.69884485604671" lon="10.738141357591026"><ele>16.5</ele><time>2026-04-05T07:40:28.998Z</time></trkpt><trkpt lat="43.69883561497668" lon="10.737980730774124"><ele>16.25</ele><time>2026-04-05T07:40:30.998Z</time></trkpt><trkpt lat="43.69881937887609" lon="10.73780830551456"><ele>16.0</ele><time>2026-04-05T07:40:32.998Z</time></trkpt><trkpt lat="43.698808430814566" lon="10.737640469908683"><ele>16.5</ele><time>2026-04-05T07:40:34.998Z</time></trkpt><trkpt lat="43.69880230949932" lon="10.737469829638664"><ele>17.0</ele><time>2026-04-05T07:40:36.998Z</time></trkpt><trkpt lat="43.69879000286067" lon="10.737303317527491"><ele>17.5</ele><time>2026-04-05T07:40:38.998Z</time></trkpt><trkpt lat="43.6987816959127" lon="10.737136496573337"><ele>18.0</ele><time>2026-04-05T07:40:40.998Z</time></trkpt><trkpt lat="43.69876832760573" lon="10.736968222722494"><ele>18.0</ele><time>2026-04-05T07:40:42.998Z</time></trkpt><trkpt lat="43.69875034688598" lon="10.73680150038328"><ele>18.0</ele><time>2026-04-05T07:40:44.998Z</time></trkpt><trkpt lat="43.69874421973684" lon="10.736629006365598"><ele>18.0</ele><time>2026-04-05T07:40:46.998Z</time></trkpt><trkpt lat="43.6987373870554" lon="10.736462363659825"><ele>18.0</ele><time>2026-04-05T07:40:48.998Z</time></trkpt><trkpt lat="43.69872408675909" lon="10.736295752199092"><ele>18.0</ele><time>2026-04-05T07:40:50.998Z</time></trkpt><trkpt lat="43.698710634769135" lon="10.736127510887764"><ele>18.0</ele><time>2026-04-05T07:40:52.998Z</time></trkpt><trkpt lat="43.69869683177102" lon="10.735957790281994"><ele>18.0</ele><time>2026-04-05T07:40:54.998Z</time></trkpt><trkpt lat="43.698685316183436" lon="10.735786581878134"><ele>18.0</ele><time>2026-04-05T07:40:56.998Z</time></trkpt><trkpt lat="43.69867549179265" lon="10.735614480078663"><ele>18.0</ele><time>2026-04-05T07:40:58.998Z</time></trkpt><trkpt lat="43.698669934746555" lon="10.735447121054817"><ele>18.0</ele><time>2026-04-05T07:41:01Z</time></trkpt><trkpt lat="43.698664452897624" lon="10.735282182442882"><ele>18.0</ele><time>2026-04-05T07:41:03Z</time></trkpt><trkpt lat="43.69865341986705" lon="10.735116493085009"><ele>18.0</ele><time>2026-04-05T07:41:05Z</time></trkpt><trkpt lat="43.69864573101532" lon="10.73495093168803"><ele>17.25</ele><time>2026-04-05T07:41:07Z</time></trkpt><trkpt lat="43.69863318688645" lon="10.734784967760138"><ele>16.5</ele><time>2026-04-05T07:41:09Z</time></trkpt><trkpt lat="43.69862256623207" lon="10.73462469496459"><ele>15.75</ele><time>2026-04-05T07:41:11Z</time></trkpt><trkpt lat="43.69861159565331" lon="10.73446094153165"><ele>15.0</ele><time>2026-04-05T07:41:13Z</time></trkpt><trkpt lat="43.698602712699646" lon="10.734297863136655"><ele>14.8</ele><time>2026-04-05T07:41:15Z</time></trkpt><trkpt lat="43.69859176505393" lon="10.73414386829454"><ele>14.6</ele><time>2026-04-05T07:41:17Z</time></trkpt><trkpt lat="43.698586603726746" lon="10.733995556078632"><ele>14.399999999999999</ele><time>2026-04-05T07:41:19Z</time></trkpt><trkpt lat="43.69857759804849" lon="10.733850940405203"><ele>14.2</ele><time>2026-04-05T07:41:21Z</time></trkpt><trkpt lat="43.6985661199512" lon="10.73369677605109"><ele>14.0</ele><time>2026-04-05T07:41:23Z</time></trkpt><trkpt lat="43.69855599966201" lon="10.733541940167076"><ele>14.75</ele><time>2026-04-05T07:41:25Z</time></trkpt><trkpt lat="43.69854779177206" lon="10.733383543211016"><ele>15.5</ele><time>2026-04-05T07:41:27Z</time></trkpt><trkpt lat="43.698540030916895" lon="10.733222155887201"><ele>16.25</ele><time>2026-04-05T07:41:29Z</time></trkpt><trkpt lat="43.698526188922145" lon="10.733066182790372"><ele>17.0</ele><time>2026-04-05T07:41:31Z</time></trkpt><trkpt lat="43.69851439517513" lon="10.732902695218865"><ele>17.0</ele><time>2026-04-05T07:41:33Z</time></trkpt><trkpt lat="43.6985042959022" lon="10.732740221336037"><ele>17.0</ele><time>2026-04-05T07:41:35Z</time></trkpt><trkpt lat="43.69849981430621" lon="10.732574128864227"><ele>17.0</ele><time>2026-04-05T07:41:37Z</time></trkpt><trkpt lat="43.69848841790799" lon="10.732411565208595"><ele>17.0</ele><time>2026-04-05T07:41:38.999Z</time></trkpt><trkpt lat="43.69847727220132" lon="10.73224581069516"><ele>17.0</ele><time>2026-04-05T07:41:40.999Z</time></trkpt><trkpt lat="43.69846604208756" lon="10.732087661567093"><ele>17.0</ele><time>2026-04-05T07:41:42.999Z</time></trkpt><trkpt lat="43.69845647808868" lon="10.731928535800488"><ele>17.0</ele><time>2026-04-05T07:41:44.999Z</time></trkpt><trkpt lat="43.698446361506214" lon="10.731765132460533"><ele>17.0</ele><time>2026-04-05T07:41:46.999Z</time></trkpt><trkpt lat="43.698435456259695" lon="10.731604573596906"><ele>17.0</ele><time>2026-04-05T07:41:48.999Z</time></trkpt><trkpt lat="43.69841796892151" lon="10.731445785801656"><ele>17.0</ele><time>2026-04-05T07:41:50.999Z</time></trkpt><trkpt lat="43.69839712956313" lon="10.731284375957639"><ele>17.0</ele><time>2026-04-05T07:41:52.999Z</time></trkpt><trkpt lat="43.698372092051116" lon="10.731120632297262"><ele>17.0</ele><time>2026-04-05T07:41:54.999Z</time></trkpt><trkpt lat="43.69835138738173" lon="10.730957167404984"><ele>16.75</ele><time>2026-04-05T07:41:56.999Z</time></trkpt><trkpt lat="43.698330118224106" lon="10.730792060174775"><ele>16.5</ele><time>2026-04-05T07:41:58.999Z</time></trkpt><trkpt lat="43.69830612302025" lon="10.730632936214855"><ele>16.25</ele><time>2026-04-05T07:42:00.999Z</time></trkpt><trkpt lat="43.698282933928525" lon="10.730464849986667"><ele>16.0</ele><time>2026-04-05T07:42:02.999Z</time></trkpt><trkpt lat="43.69825826724919" lon="10.73029816371637"><ele>15.75</ele><time>2026-04-05T07:42:04.999Z</time></trkpt><trkpt lat="43.69823032780013" lon="10.730133605856986"><ele>15.5</ele><time>2026-04-05T07:42:06.999Z</time></trkpt><trkpt lat="43.69820595705139" lon="10.7299671984585"><ele>15.25</ele><time>2026-04-05T07:42:08.999Z</time></trkpt><trkpt lat="43.698182457544945" lon="10.729805363030515"><ele>15.0</ele><time>2026-04-05T07:42:10.999Z</time></trkpt><trkpt lat="43.69816011975502" lon="10.729636467389263"><ele>15.0</ele><time>2026-04-05T07:42:12.999Z</time></trkpt><trkpt lat="43.698137672886006" lon="10.729472572253153"><ele>15.0</ele><time>2026-04-05T07:42:14.999Z</time></trkpt><trkpt lat="43.69811215800088" lon="10.729309037766345"><ele>15.0</ele><time>2026-04-05T07:42:16.999Z</time></trkpt><trkpt lat="43.69808750463579" lon="10.729146289223877"><ele>15.0</ele><time>2026-04-05T07:42:18.999Z</time></trkpt><trkpt lat="43.69806357882331" lon="10.72898378640395"><ele>15.0</ele><time>2026-04-05T07:42:20.999Z</time></trkpt><trkpt lat="43.6980389836007" lon="10.728820781468817"><ele>15.0</ele><time>2026-04-05T07:42:22.999Z</time></trkpt><trkpt lat="43.69801613164119" lon="10.728660469258562"><ele>15.0</ele><time>2026-04-05T07:42:24.999Z</time></trkpt><trkpt lat="43.69799457342553" lon="10.728498659284018"><ele>15.0</ele><time>2026-04-05T07:42:26.998Z</time></trkpt><trkpt lat="43.697970687409914" lon="10.728338290869365"><ele>15.0</ele><time>2026-04-05T07:42:28.998Z</time></trkpt><trkpt lat="43.69794684077448" lon="10.72817950497219"><ele>15.0</ele><time>2026-04-05T07:42:30.998Z</time></trkpt><trkpt lat="43.69792134190507" lon="10.728022205177252"><ele>15.0</ele><time>2026-04-05T07:42:32.998Z</time></trkpt><trkpt lat="43.69789868345554" lon="10.727860618795871"><ele>15.0</ele><time>2026-04-05T07:42:34.998Z</time></trkpt><trkpt lat="43.69787240078786" lon="10.72769972537277"><ele>14.75</ele><time>2026-04-05T07:42:36.998Z</time></trkpt><trkpt lat="43.697851338490224" lon="10.72754072363877"><ele>14.5</ele><time>2026-04-05T07:42:38.998Z</time></trkpt><trkpt lat="43.697826629678254" lon="10.72738175024006"><ele>14.25</ele><time>2026-04-05T07:42:40.998Z</time></trkpt><trkpt lat="43.697801375635144" lon="10.727221815736874"><ele>14.0</ele><time>2026-04-05T07:42:42.998Z</time></trkpt><trkpt lat="43.69777904872111" lon="10.72706091466543"><ele>14.0</ele><time>2026-04-05T07:42:44.998Z</time></trkpt><trkpt lat="43.69775483337165" lon="10.726898288306089"><ele>14.0</ele><time>2026-04-05T07:42:46.998Z</time></trkpt><trkpt lat="43.6977332836916" lon="10.72673130556512"><ele>14.0</ele><time>2026-04-05T07:42:48.998Z</time></trkpt><trkpt lat="43.69770888805354" lon="10.726570363186651"><ele>14.0</ele><time>2026-04-05T07:42:50.998Z</time></trkpt><trkpt lat="43.69768364222307" lon="10.726411656550887"><ele>14.25</ele><time>2026-04-05T07:42:52.998Z</time></trkpt><trkpt lat="43.69766180148337" lon="10.726251698054865"><ele>14.5</ele><time>2026-04-05T07:42:54.998Z</time></trkpt><trkpt lat="43.697637575034946" lon="10.726094368802702"><ele>14.75</ele><time>2026-04-05T07:42:56.998Z</time></trkpt><trkpt lat="43.69761529098886" lon="10.725935503445793"><ele>15.0</ele><time>2026-04-05T07:42:58.998Z</time></trkpt><trkpt lat="43.697594536916746" lon="10.72577667317441"><ele>15.0</ele><time>2026-04-05T07:43:00.998Z</time></trkpt><trkpt lat="43.697571325859705" lon="10.7256171475428"><ele>15.0</ele><time>2026-04-05T07:43:02.998Z</time></trkpt><trkpt lat="43.697547699023254" lon="10.725456773853354"><ele>15.0</ele><time>2026-04-05T07:43:04.998Z</time></trkpt><trkpt lat="43.697521500140375" lon="10.725296402752198"><ele>15.0</ele><time>2026-04-05T07:43:07Z</time></trkpt><trkpt lat="43.69749673478096" lon="10.72513261499592"><ele>14.75</ele><time>2026-04-05T07:43:09Z</time></trkpt><trkpt lat="43.69747175929895" lon="10.72496913134372"><ele>14.5</ele><time>2026-04-05T07:43:11Z</time></trkpt><trkpt lat="43.697447345293696" lon="10.724802486855827"><ele>14.25</ele><time>2026-04-05T07:43:13Z</time></trkpt><trkpt lat="43.697419297050644" lon="10.724620968318918"><ele>14.0</ele><time>2026-04-05T07:43:15Z</time></trkpt><trkpt lat="43.69739523902404" lon="10.72446555599487"><ele>14.25</ele><time>2026-04-05T07:43:17Z</time></trkpt><trkpt lat="43.697371786015914" lon="10.724299288108352"><ele>14.5</ele><time>2026-04-05T07:43:19Z</time></trkpt><trkpt lat="43.69734384824587" lon="10.724134004561224"><ele>14.75</ele><time>2026-04-05T07:43:21Z</time></trkpt><trkpt lat="43.697319285888625" lon="10.723971656546821"><ele>15.0</ele><time>2026-04-05T07:43:23Z</time></trkpt><trkpt lat="43.69729849146854" lon="10.723804843866388"><ele>15.0</ele><time>2026-04-05T07:43:25Z</time></trkpt><trkpt lat="43.697274572514175" lon="10.723638251068895"><ele>15.0</ele><time>2026-04-05T07:43:27Z</time></trkpt><trkpt lat="43.697250638113616" lon="10.723472081945811"><ele>15.0</ele><time>2026-04-05T07:43:29Z</time></trkpt><trkpt lat="43.6972281114339" lon="10.723309775876993"><ele>15.0</ele><time>2026-04-05T07:43:31Z</time></trkpt><trkpt lat="43.697205915859485" lon="10.723149003067759"><ele>14.75</ele><time>2026-04-05T07:43:33Z</time></trkpt><trkpt lat="43.697176401176435" lon="10.722980960017297"><ele>14.5</ele><time>2026-04-05T07:43:35Z</time></trkpt><trkpt lat="43.69715449985813" lon="10.722820451518404"><ele>14.25</ele><time>2026-04-05T07:43:37Z</time></trkpt><trkpt lat="43.697129474282406" lon="10.722659684998055"><ele>14.0</ele><time>2026-04-05T07:43:39Z</time></trkpt><trkpt lat="43.69710634498287" lon="10.722495658710589"><ele>14.0</ele><time>2026-04-05T07:43:41Z</time></trkpt><trkpt lat="43.697083708455594" lon="10.722334976741061"><ele>14.0</ele><time>2026-04-05T07:43:43Z</time></trkpt><trkpt lat="43.697059179113104" lon="10.722171776462192"><ele>14.0</ele><time>2026-04-05T07:43:44.999Z</time></trkpt><trkpt lat="43.69703519037685" lon="10.722011588276345"><ele>14.0</ele><time>2026-04-05T07:43:46.999Z</time></trkpt><trkpt lat="43.69700988724233" lon="10.7218481943231"><ele>14.0</ele><time>2026-04-05T07:43:48.999Z</time></trkpt><trkpt lat="43.69698645186537" lon="10.721689977176307"><ele>14.0</ele><time>2026-04-05T07:43:50.999Z</time></trkpt><trkpt lat="43.69696389760162" lon="10.721531836661852"><ele>14.0</ele><time>2026-04-05T07:43:52.999Z</time></trkpt><trkpt lat="43.69694054208898" lon="10.721370806057012"><ele>14.0</ele><time>2026-04-05T07:43:54.999Z</time></trkpt><trkpt lat="43.69691577231683" lon="10.721204284796634"><ele>14.5</ele><time>2026-04-05T07:43:56.999Z</time></trkpt><trkpt lat="43.6968937630681" lon="10.72104614746672"><ele>15.0</ele><time>2026-04-05T07:43:58.999Z</time></trkpt><trkpt lat="43.6968691852906" lon="10.720884171571317"><ele>15.5</ele><time>2026-04-05T07:44:00.999Z</time></trkpt><trkpt lat="43.6968452259206" lon="10.720721930073454"><ele>16.0</ele><time>2026-04-05T07:44:02.999Z</time></trkpt><trkpt lat="43.69682217949711" lon="10.720556204118227"><ele>16.0</ele><time>2026-04-05T07:44:04.999Z</time></trkpt><trkpt lat="43.69679892117915" lon="10.720390905360413"><ele>16.0</ele><time>2026-04-05T07:44:06.999Z</time></trkpt><trkpt lat="43.6967773481357" lon="10.720223803402895"><ele>16.0</ele><time>2026-04-05T07:44:08.999Z</time></trkpt><trkpt lat="43.6967563773594" lon="10.72005720987636"><ele>16.0</ele><time>2026-04-05T07:44:10.999Z</time></trkpt><trkpt lat="43.69673041182549" lon="10.719895058085205"><ele>16.0</ele><time>2026-04-05T07:44:12.999Z</time></trkpt><trkpt lat="43.69670379787409" lon="10.719724349154875"><ele>16.0</ele><time>2026-04-05T07:44:14.999Z</time></trkpt><trkpt lat="43.69668006874984" lon="10.719569260614948"><ele>16.0</ele><time>2026-04-05T07:44:16.999Z</time></trkpt><trkpt lat="43.69665089542773" lon="10.719403707668512"><ele>16.0</ele><time>2026-04-05T07:44:18.999Z</time></trkpt><trkpt lat="43.69662420211381" lon="10.71923668877277"><ele>16.0</ele><time>2026-04-05T07:44:20.999Z</time></trkpt><trkpt lat="43.696599361006385" lon="10.71907358992618"><ele>16.0</ele><time>2026-04-05T07:44:22.999Z</time></trkpt><trkpt lat="43.69657778444751" lon="10.71891252727159"><ele>16.0</ele><time>2026-04-05T07:44:24.999Z</time></trkpt><trkpt lat="43.696555440405604" lon="10.718748660453015"><ele>16.0</ele><time>2026-04-05T07:44:26.999Z</time></trkpt><trkpt lat="43.69653147668706" lon="10.718587323609198"><ele>16.0</ele><time>2026-04-05T07:44:28.999Z</time></trkpt><trkpt lat="43.69650631885174" lon="10.718427354215583"><ele>16.0</ele><time>2026-04-05T07:44:30.999Z</time></trkpt><trkpt lat="43.69648281076015" lon="10.718263659409628"><ele>16.0</ele><time>2026-04-05T07:44:32.998Z</time></trkpt><trkpt lat="43.696458870562395" lon="10.718099659974165"><ele>16.0</ele><time>2026-04-05T07:44:34.998Z</time></trkpt><trkpt lat="43.69643449594176" lon="10.717932580993804"><ele>15.999999999999998</ele><time>2026-04-05T07:44:36.998Z</time></trkpt><trkpt lat="43.69641146982932" lon="10.71776234018053"><ele>16.0</ele><time>2026-04-05T07:44:38.998Z</time></trkpt><trkpt lat="43.69639841168408" lon="10.71767587190325"><ele>16.0</ele><time>2026-04-05T07:44:39.998Z</time></trkpt><trkpt lat="43.69637217928697" lon="10.717507592849687"><ele>16.0</ele><time>2026-04-05T07:44:41.998Z</time></trkpt><trkpt lat="43.696358530289146" lon="10.717422478050231"><ele>15.999999999999998</ele><time>2026-04-05T07:44:42.998Z</time></trkpt><trkpt lat="43.696345061968465" lon="10.717336746077901"><ele>16.0</ele><time>2026-04-05T07:44:43.998Z</time></trkpt><trkpt lat="43.696318158727635" lon="10.717165278332178"><ele>15.833333333333332</ele><time>2026-04-05T07:44:45.998Z</time></trkpt><trkpt lat="43.6963078056399" lon="10.717078703693677"><ele>15.666666666666666</ele><time>2026-04-05T07:44:46.998Z</time></trkpt><trkpt lat="43.696296646794316" lon="10.71699202632788"><ele>15.5</ele><time>2026-04-05T07:44:47.998Z</time></trkpt><trkpt lat="43.69626944781994" lon="10.71682231878059"><ele>15.333333333333332</ele><time>2026-04-05T07:44:49.998Z</time></trkpt><trkpt lat="43.69624742970753" lon="10.716653958480949"><ele>15.166666666666666</ele><time>2026-04-05T07:44:51.998Z</time></trkpt><trkpt lat="43.69623560355409" lon="10.71656686628234"><ele>15.0</ele><time>2026-04-05T07:44:52.998Z</time></trkpt><trkpt lat="43.696223319403025" lon="10.71647999626018"><ele>14.666666666666666</ele><time>2026-04-05T07:44:53.998Z</time></trkpt><trkpt lat="43.69619673592777" lon="10.716308509503707"><ele>14.333333333333332</ele><time>2026-04-05T07:44:55.998Z</time></trkpt><trkpt lat="43.696182669527516" lon="10.716222941004334"><ele>14.0</ele><time>2026-04-05T07:44:56.998Z</time></trkpt><trkpt lat="43.69616983183633" lon="10.716136908762413"><ele>13.666666666666666</ele><time>2026-04-05T07:44:57.998Z</time></trkpt><trkpt lat="43.69615674267864" lon="10.716051583021686"><ele>13.333333333333332</ele><time>2026-04-05T07:44:58.998Z</time></trkpt><trkpt lat="43.696131176378536" lon="10.715885889387202"><ele>13.0</ele><time>2026-04-05T07:45:00.998Z</time></trkpt><trkpt lat="43.69610508594549" lon="10.71572233046471"><ele>13.2</ele><time>2026-04-05T07:45:02.998Z</time></trkpt><trkpt lat="43.69607969954953" lon="10.715556128728714"><ele>13.4</ele><time>2026-04-05T07:45:04.998Z</time></trkpt><trkpt lat="43.696056244181065" lon="10.715387779917767"><ele>13.599999999999998</ele><time>2026-04-05T07:45:06.998Z</time></trkpt><trkpt lat="43.69604165128412" lon="10.715301239495629"><ele>13.799999999999999</ele><time>2026-04-05T07:45:07.998Z</time></trkpt><trkpt lat="43.69601985510975" lon="10.715134240206613"><ele>14.0</ele><time>2026-04-05T07:45:09.998Z</time></trkpt><trkpt lat="43.69600431593325" lon="10.715041543410198"><ele>14.142857142857142</ele><time>2026-04-05T07:45:10.998Z</time></trkpt><trkpt lat="43.69599279459333" lon="10.71495584567142"><ele>14.285714285714285</ele><time>2026-04-05T07:45:11.998Z</time></trkpt><trkpt lat="43.695980055994056" lon="10.714866291742608"><ele>14.428571428571429</ele><time>2026-04-05T07:45:13Z</time></trkpt><trkpt lat="43.695965885993644" lon="10.71477835458915"><ele>14.571428571428571</ele><time>2026-04-05T07:45:14Z</time></trkpt><trkpt lat="43.69595048447517" lon="10.714690542836808"><ele>14.714285714285714</ele><time>2026-04-05T07:45:15Z</time></trkpt><trkpt lat="43.69593785591141" lon="10.71460456277806"><ele>14.857142857142858</ele><time>2026-04-05T07:45:16Z</time></trkpt><trkpt lat="43.6959269545405" lon="10.71451855766922"><ele>15.0</ele><time>2026-04-05T07:45:17Z</time></trkpt><trkpt lat="43.695902345729856" lon="10.714347581863661"><ele>15.0</ele><time>2026-04-05T07:45:19Z</time></trkpt><trkpt lat="43.69588806740348" lon="10.714261785609832"><ele>15.0</ele><time>2026-04-05T07:45:20Z</time></trkpt><trkpt lat="43.69586370616578" lon="10.714092239470082"><ele>15.0</ele><time>2026-04-05T07:45:22Z</time></trkpt><trkpt lat="43.69584112624928" lon="10.71392342603536"><ele>15.0</ele><time>2026-04-05T07:45:24Z</time></trkpt><trkpt lat="43.6958179844016" lon="10.713758652716425"><ele>15.0</ele><time>2026-04-05T07:45:26Z</time></trkpt><trkpt lat="43.69579522650306" lon="10.713597635025671"><ele>15.0</ele><time>2026-04-05T07:45:28Z</time></trkpt><trkpt lat="43.6957706262805" lon="10.713440519643417"><ele>15.0</ele><time>2026-04-05T07:45:30Z</time></trkpt><trkpt lat="43.69574849073382" lon="10.71328052037043"><ele>15.0</ele><time>2026-04-05T07:45:32Z</time></trkpt><trkpt lat="43.69572476659845" lon="10.713120305192868"><ele>15.0</ele><time>2026-04-05T07:45:34Z</time></trkpt><trkpt lat="43.69570181060086" lon="10.712960218250304"><ele>15.0</ele><time>2026-04-05T07:45:36Z</time></trkpt><trkpt lat="43.69567900902219" lon="10.712797592624272"><ele>15.0</ele><time>2026-04-05T07:45:38Z</time></trkpt><trkpt lat="43.69565684470586" lon="10.712635362262489"><ele>15.0</ele><time>2026-04-05T07:45:40Z</time></trkpt><trkpt lat="43.69563292567272" lon="10.71247024315064"><ele>15.0</ele><time>2026-04-05T07:45:42Z</time></trkpt><trkpt lat="43.69560631341838" lon="10.712303849598113"><ele>15.0</ele><time>2026-04-05T07:45:44Z</time></trkpt><trkpt lat="43.695594170268414" lon="10.712217215363003"><ele>15.0</ele><time>2026-04-05T07:45:45Z</time></trkpt><trkpt lat="43.69556813009774" lon="10.71205080225451"><ele>15.0</ele><time>2026-04-05T07:45:47Z</time></trkpt><trkpt lat="43.695542656759464" lon="10.711883117610189"><ele>15.0</ele><time>2026-04-05T07:45:49Z</time></trkpt><trkpt lat="43.695522164720295" lon="10.71171688495565"><ele>15.0</ele><time>2026-04-05T07:45:51Z</time></trkpt><trkpt lat="43.69549809615445" lon="10.711550930042758"><ele>15.0</ele><time>2026-04-05T07:45:52.999Z</time></trkpt><trkpt lat="43.6954741962292" lon="10.711381938381107"><ele>15.0</ele><time>2026-04-05T07:45:54.999Z</time></trkpt><trkpt lat="43.69546043628009" lon="10.711296417699069"><ele>15.0</ele><time>2026-04-05T07:45:55.999Z</time></trkpt><trkpt lat="43.69544903536517" lon="10.71121011179998"><ele>15.0</ele><time>2026-04-05T07:45:56.999Z</time></trkpt><trkpt lat="43.69543815111157" lon="10.711123178203174"><ele>15.0</ele><time>2026-04-05T07:45:57.999Z</time></trkpt><trkpt lat="43.69541176068758" lon="10.710957796057816"><ele>15.0</ele><time>2026-04-05T07:45:59.999Z</time></trkpt><trkpt lat="43.69538584826337" lon="10.710795464400038"><ele>14.75</ele><time>2026-04-05T07:46:01.999Z</time></trkpt><trkpt lat="43.695358935975904" lon="10.710627455818674"><ele>14.5</ele><time>2026-04-05T07:46:03.999Z</time></trkpt><trkpt lat="43.695334769948374" lon="10.710460857130723"><ele>14.25</ele><time>2026-04-05T07:46:05.999Z</time></trkpt><trkpt lat="43.695310356465264" lon="10.710296145946097"><ele>14.0</ele><time>2026-04-05T07:46:07.999Z</time></trkpt><trkpt lat="43.69528180595377" lon="10.710134114547033"><ele>14.0</ele><time>2026-04-05T07:46:09.999Z</time></trkpt><trkpt lat="43.695258000438535" lon="10.709970942785379"><ele>13.999999999999998</ele><time>2026-04-05T07:46:11.999Z</time></trkpt><trkpt lat="43.6952458999486" lon="10.709882987131708"><ele>13.999999999999998</ele><time>2026-04-05T07:46:12.999Z</time></trkpt><trkpt lat="43.69521891750959" lon="10.709722429254425"><ele>14.0</ele><time>2026-04-05T07:46:14.999Z</time></trkpt><trkpt lat="43.69519222009212" lon="10.709562761442262"><ele>14.0</ele><time>2026-04-05T07:46:16.999Z</time></trkpt><trkpt lat="43.69517737160553" lon="10.709399939495576"><ele>14.25</ele><time>2026-04-05T07:46:18.999Z</time></trkpt><trkpt lat="43.69515330257881" lon="10.709239210886382"><ele>14.5</ele><time>2026-04-05T07:46:20.999Z</time></trkpt><trkpt lat="43.69512964128804" lon="10.709080857513166"><ele>14.75</ele><time>2026-04-05T07:46:22.999Z</time></trkpt><trkpt lat="43.695106559880706" lon="10.708928254409205"><ele>15.0</ele><time>2026-04-05T07:46:24.999Z</time></trkpt><trkpt lat="43.69508576919956" lon="10.70877577351874"><ele>15.0</ele><time>2026-04-05T07:46:26.999Z</time></trkpt><trkpt lat="43.69506142413774" lon="10.708619996662089"><ele>15.0</ele><time>2026-04-05T07:46:28.999Z</time></trkpt><trkpt lat="43.69504072732243" lon="10.708465937092829"><ele>15.0</ele><time>2026-04-05T07:46:30.999Z</time></trkpt><trkpt lat="43.695014622681896" lon="10.708309405072615"><ele>15.0</ele><time>2026-04-05T07:46:32.999Z</time></trkpt><trkpt lat="43.694993557556245" lon="10.708148910833682"><ele>15.0</ele><time>2026-04-05T07:46:34.999Z</time></trkpt><trkpt lat="43.69497152047758" lon="10.707994065606647"><ele>15.0</ele><time>2026-04-05T07:46:36.999Z</time></trkpt><trkpt lat="43.69495413526895" lon="10.707833765280755"><ele>15.0</ele><time>2026-04-05T07:46:38.999Z</time></trkpt><trkpt lat="43.69493302506012" lon="10.707686163647704"><ele>15.0</ele><time>2026-04-05T07:46:40.998Z</time></trkpt><trkpt lat="43.69490942189051" lon="10.707535782396166"><ele>14.75</ele><time>2026-04-05T07:46:42.998Z</time></trkpt><trkpt lat="43.69491550010133" lon="10.7073730386269"><ele>14.5</ele><time>2026-04-05T07:46:44.998Z</time></trkpt><trkpt lat="43.694952359427006" lon="10.707215911402727"><ele>14.25</ele><time>2026-04-05T07:46:46.998Z</time></trkpt><trkpt lat="43.69492594866739" lon="10.707051847962024"><ele>14.0</ele><time>2026-04-05T07:46:48.998Z</time></trkpt><trkpt lat="43.69485273708468" lon="10.706914395363983"><ele>14.166666666666668</ele><time>2026-04-05T07:46:50.998Z</time></trkpt><trkpt lat="43.69481072968554" lon="10.706847993418464"><ele>14.333333333333334</ele><time>2026-04-05T07:46:51.998Z</time></trkpt><trkpt lat="43.69475823032432" lon="10.706691311484434"><ele>14.5</ele><time>2026-04-05T07:46:53.998Z</time></trkpt><trkpt lat="43.69475316089523" lon="10.706603434476621"><ele>14.666666666666668</ele><time>2026-04-05T07:46:54.998Z</time></trkpt><trkpt lat="43.69473233886275" lon="10.706435709808943"><ele>14.833333333333334</ele><time>2026-04-05T07:46:56.998Z</time></trkpt><trkpt lat="43.69471664797108" lon="10.706348411547472"><ele>15.0</ele><time>2026-04-05T07:46:57.998Z</time></trkpt><trkpt lat="43.6946899853169" lon="10.706186828065876"><ele>15.0</ele><time>2026-04-05T07:46:59.998Z</time></trkpt><trkpt lat="43.69467884909426" lon="10.70609961249231"><ele>15.0</ele><time>2026-04-05T07:47:00.998Z</time></trkpt><trkpt lat="43.69467038520354" lon="10.706010699839135"><ele>15.0</ele><time>2026-04-05T07:47:01.998Z</time></trkpt><trkpt lat="43.69464249536401" lon="10.705843788363941"><ele>15.0</ele><time>2026-04-05T07:47:03.998Z</time></trkpt><trkpt lat="43.694626435999474" lon="10.70575928329665"><ele>15.0</ele><time>2026-04-05T07:47:04.998Z</time></trkpt><trkpt lat="43.69460238024542" lon="10.705595362481219"><ele>15.0</ele><time>2026-04-05T07:47:06.998Z</time></trkpt><trkpt lat="43.694577141684306" lon="10.705427762834884"><ele>15.0</ele><time>2026-04-05T07:47:08.998Z</time></trkpt><trkpt lat="43.69455068363766" lon="10.705261432783889"><ele>15.0</ele><time>2026-04-05T07:47:10.998Z</time></trkpt><trkpt lat="43.694525954054825" lon="10.705095269391196"><ele>15.0</ele><time>2026-04-05T07:47:12.998Z</time></trkpt><trkpt lat="43.694504251012305" lon="10.704929083597495"><ele>15.0</ele><time>2026-04-05T07:47:14.998Z</time></trkpt><trkpt lat="43.6944778704095" lon="10.704768021693143"><ele>15.0</ele><time>2026-04-05T07:47:16.998Z</time></trkpt><trkpt lat="43.69445220427283" lon="10.704610419137122"><ele>15.0</ele><time>2026-04-05T07:47:19Z</time></trkpt><trkpt lat="43.69443312031001" lon="10.704455954817622"><ele>15.0</ele><time>2026-04-05T07:47:21Z</time></trkpt><trkpt lat="43.69442354366024" lon="10.704298257417516"><ele>15.0</ele><time>2026-04-05T07:47:23Z</time></trkpt><trkpt lat="43.69442414764688" lon="10.704137197857877"><ele>15.0</ele><time>2026-04-05T07:47:25Z</time></trkpt><trkpt lat="43.694425778937195" lon="10.703975986866523"><ele>15.0</ele><time>2026-04-05T07:47:27Z</time></trkpt><trkpt lat="43.69443875019249" lon="10.703814381653725"><ele>15.0</ele><time>2026-04-05T07:47:29Z</time></trkpt><trkpt lat="43.69444971159346" lon="10.7036622964163"><ele>15.0</ele><time>2026-04-05T07:47:31Z</time></trkpt><trkpt lat="43.69446556217373" lon="10.703512885597151"><ele>15.0</ele><time>2026-04-05T07:47:33Z</time></trkpt><trkpt lat="43.69447799324511" lon="10.703360216071186"><ele>15.0</ele><time>2026-04-05T07:47:35Z</time></trkpt><trkpt lat="43.69449271159824" lon="10.703208460280605"><ele>15.0</ele><time>2026-04-05T07:47:37Z</time></trkpt><trkpt lat="43.694501493555336" lon="10.7030585224522"><ele>15.0</ele><time>2026-04-05T07:47:39Z</time></trkpt><trkpt lat="43.694496000213576" lon="10.70290887609293"><ele>15.0</ele><time>2026-04-05T07:47:41Z</time></trkpt><trkpt lat="43.69447273810066" lon="10.702760786775602"><ele>15.25</ele><time>2026-04-05T07:47:43Z</time></trkpt><trkpt lat="43.69443769878174" lon="10.702616924784996"><ele>15.5</ele><time>2026-04-05T07:47:45Z</time></trkpt><trkpt lat="43.694394557187685" lon="10.702470138902257"><ele>15.75</ele><time>2026-04-05T07:47:47Z</time></trkpt><trkpt lat="43.69434352114422" lon="10.702321713576168"><ele>16.0</ele><time>2026-04-05T07:47:49Z</time></trkpt><trkpt lat="43.694296977045575" lon="10.702169925049098"><ele>16.0</ele><time>2026-04-05T07:47:51Z</time></trkpt><trkpt lat="43.69425073193068" lon="10.702018822596568"><ele>16.0</ele><time>2026-04-05T07:47:53Z</time></trkpt><trkpt lat="43.69420287615349" lon="10.701862724122172"><ele>16.0</ele><time>2026-04-05T07:47:55Z</time></trkpt><trkpt lat="43.69415919208679" lon="10.701712752365598"><ele>16.0</ele><time>2026-04-05T07:47:56.999Z</time></trkpt><trkpt lat="43.69411193683414" lon="10.701571630339746"><ele>16.0</ele><time>2026-04-05T07:47:58.999Z</time></trkpt><trkpt lat="43.69409034790892" lon="10.701430042150609"><ele>16.0</ele><time>2026-04-05T07:48:00.999Z</time></trkpt><trkpt lat="43.69410661070781" lon="10.701280090549853"><ele>16.0</ele><time>2026-04-05T07:48:02.999Z</time></trkpt><trkpt lat="43.69408878150899" lon="10.70112349948091"><ele>16.0</ele><time>2026-04-05T07:48:04.999Z</time></trkpt><trkpt lat="43.693975932346284" lon="10.701082450969619"><ele>16.0</ele><time>2026-04-05T07:48:06.999Z</time></trkpt><trkpt lat="43.69389766233121" lon="10.701000571986704"><ele>16.0</ele><time>2026-04-05T07:48:08.999Z</time></trkpt><trkpt lat="43.693856924971826" lon="10.700855025125046"><ele>16.0</ele><time>2026-04-05T07:48:10.999Z</time></trkpt><trkpt lat="43.693817343155686" lon="10.70071225219881"><ele>16.0</ele><time>2026-04-05T07:48:12.999Z</time></trkpt><trkpt lat="43.69377295582676" lon="10.700571634198802"><ele>16.0</ele><time>2026-04-05T07:48:14.999Z</time></trkpt><trkpt lat="43.69372118646642" lon="10.700429532907467"><ele>16.0</ele><time>2026-04-05T07:48:16.999Z</time></trkpt><trkpt lat="43.693675614976215" lon="10.700286663311005"><ele>16.0</ele><time>2026-04-05T07:48:18.999Z</time></trkpt><trkpt lat="43.693629746568355" lon="10.700138716665295"><ele>16.0</ele><time>2026-04-05T07:48:20.999Z</time></trkpt><trkpt lat="43.693581118414095" lon="10.6999921622767"><ele>16.0</ele><time>2026-04-05T07:48:22.999Z</time></trkpt><trkpt lat="43.69353554822571" lon="10.69984530685973"><ele>16.0</ele><time>2026-04-05T07:48:24.999Z</time></trkpt><trkpt lat="43.693485993560834" lon="10.699696429110826"><ele>16.0</ele><time>2026-04-05T07:48:26.999Z</time></trkpt><trkpt lat="43.69343783582215" lon="10.69954597924927"><ele>16.0</ele><time>2026-04-05T07:48:28.999Z</time></trkpt><trkpt lat="43.69339360032723" lon="10.699399764155363"><ele>16.0</ele><time>2026-04-05T07:48:30.999Z</time></trkpt><trkpt lat="43.69334727175404" lon="10.699246937241217"><ele>16.0</ele><time>2026-04-05T07:48:32.999Z</time></trkpt><trkpt lat="43.69330212885727" lon="10.699092342074497"><ele>16.0</ele><time>2026-04-05T07:48:34.999Z</time></trkpt><trkpt lat="43.69325250858431" lon="10.698940638411587"><ele>16.0</ele><time>2026-04-05T07:48:36.999Z</time></trkpt><trkpt lat="43.693205041675284" lon="10.6987875689591"><ele>16.0</ele><time>2026-04-05T07:48:38.999Z</time></trkpt><trkpt lat="43.69315486456729" lon="10.698642544455508"><ele>16.0</ele><time>2026-04-05T07:48:40.999Z</time></trkpt><trkpt lat="43.69310887522803" lon="10.698494180956427"><ele>15.5</ele><time>2026-04-05T07:48:42.998Z</time></trkpt><trkpt lat="43.693060708513094" lon="10.698348363140676"><ele>15.0</ele><time>2026-04-05T07:48:44.998Z</time></trkpt><trkpt lat="43.69301184156816" lon="10.698203734633054"><ele>14.5</ele><time>2026-04-05T07:48:46.998Z</time></trkpt><trkpt lat="43.69297251104173" lon="10.698056719476726"><ele>14.0</ele><time>2026-04-05T07:48:48.998Z</time></trkpt><trkpt lat="43.69293204380689" lon="10.697912017700249"><ele>14.0</ele><time>2026-04-05T07:48:50.998Z</time></trkpt><trkpt lat="43.6928838786268" lon="10.697765269097413"><ele>14.0</ele><time>2026-04-05T07:48:52.998Z</time></trkpt><trkpt lat="43.69282978509461" lon="10.697617432686437"><ele>14.0</ele><time>2026-04-05T07:48:54.998Z</time></trkpt><trkpt lat="43.69278494892798" lon="10.697473608790595"><ele>14.0</ele><time>2026-04-05T07:48:56.998Z</time></trkpt><trkpt lat="43.69273813241198" lon="10.697330507222219"><ele>14.25</ele><time>2026-04-05T07:48:58.998Z</time></trkpt><trkpt lat="43.69269230481711" lon="10.697180481336257"><ele>14.5</ele><time>2026-04-05T07:49:00.998Z</time></trkpt><trkpt lat="43.69264689498561" lon="10.697039472795625"><ele>14.75</ele><time>2026-04-05T07:49:02.998Z</time></trkpt><trkpt lat="43.692596425389716" lon="10.696890260505995"><ele>15.0</ele><time>2026-04-05T07:49:04.998Z</time></trkpt><trkpt lat="43.69255466596971" lon="10.696738533575724"><ele>14.5</ele><time>2026-04-05T07:49:06.998Z</time></trkpt><trkpt lat="43.692510182231146" lon="10.696601232901374"><ele>14.0</ele><time>2026-04-05T07:49:08.998Z</time></trkpt><trkpt lat="43.692465031634185" lon="10.69646362797084"><ele>13.5</ele><time>2026-04-05T07:49:10.998Z</time></trkpt><trkpt lat="43.69242760042845" lon="10.696336859709474"><ele>13.0</ele><time>2026-04-05T07:49:12.998Z</time></trkpt><trkpt lat="43.692557456582875" lon="10.696201446916314"><ele>13.0</ele><time>2026-04-05T07:49:16.998Z</time></trkpt><trkpt lat="43.69240550928926" lon="10.696107015892315"><ele>13.0</ele><time>2026-04-05T07:49:20.998Z</time></trkpt><trkpt lat="43.69232328466489" lon="10.696077446434018"><ele>13.0</ele><time>2026-04-05T07:49:22.998Z</time></trkpt><trkpt lat="43.6922855075557" lon="10.695939463989363"><ele>13.0</ele><time>2026-04-05T07:49:25Z</time></trkpt><trkpt lat="43.692249383490484" lon="10.695813397806823"><ele>13.0</ele><time>2026-04-05T07:49:27Z</time></trkpt><trkpt lat="43.69220784002391" lon="10.695684910697498"><ele>13.0</ele><time>2026-04-05T07:49:29Z</time></trkpt><trkpt lat="43.69216439057125" lon="10.69555530504525"><ele>13.0</ele><time>2026-04-05T07:49:31Z</time></trkpt><trkpt lat="43.69211652696227" lon="10.695417790983903"><ele>13.0</ele><time>2026-04-05T07:49:33Z</time></trkpt><trkpt lat="43.69207427083044" lon="10.695278858738273"><ele>13.0</ele><time>2026-04-05T07:49:35Z</time></trkpt><trkpt lat="43.692029529382026" lon="10.695137149166602"><ele>13.0</ele><time>2026-04-05T07:49:37Z</time></trkpt><trkpt lat="43.69198328632497" lon="10.694997204017177"><ele>13.0</ele><time>2026-04-05T07:49:39Z</time></trkpt><trkpt lat="43.69193860716358" lon="10.694858079382229"><ele>13.0</ele><time>2026-04-05T07:49:41Z</time></trkpt><trkpt lat="43.6918920447812" lon="10.694714578469796"><ele>13.0</ele><time>2026-04-05T07:49:43Z</time></trkpt><trkpt lat="43.69184720045169" lon="10.69457051895846"><ele>13.0</ele><time>2026-04-05T07:49:45Z</time></trkpt><trkpt lat="43.69180034567095" lon="10.694430002332382"><ele>13.5</ele><time>2026-04-05T07:49:47Z</time></trkpt><trkpt lat="43.69175328474141" lon="10.694289826363974"><ele>14.0</ele><time>2026-04-05T07:49:49Z</time></trkpt><trkpt lat="43.69170860598817" lon="10.694148752094788"><ele>14.5</ele><time>2026-04-05T07:49:51Z</time></trkpt><trkpt lat="43.691660676163806" lon="10.694007217533334"><ele>15.0</ele><time>2026-04-05T07:49:53Z</time></trkpt><trkpt lat="43.69161411060381" lon="10.693862486994894"><ele>15.0</ele><time>2026-04-05T07:49:55Z</time></trkpt><trkpt lat="43.691569580411524" lon="10.69371879134526"><ele>15.0</ele><time>2026-04-05T07:49:57Z</time></trkpt><trkpt lat="43.691521282005745" lon="10.69357859444602"><ele>15.0</ele><time>2026-04-05T07:49:59Z</time></trkpt><trkpt lat="43.69147711009308" lon="10.693437833643635"><ele>15.0</ele><time>2026-04-05T07:50:01Z</time></trkpt><trkpt lat="43.69142941897827" lon="10.693294312143792"><ele>15.0</ele><time>2026-04-05T07:50:03Z</time></trkpt><trkpt lat="43.691380601441985" lon="10.693149819463407"><ele>15.0</ele><time>2026-04-05T07:50:04.999Z</time></trkpt><trkpt lat="43.691332374953696" lon="10.693007070338878"><ele>15.0</ele><time>2026-04-05T07:50:06.999Z</time></trkpt><trkpt lat="43.691279779517096" lon="10.692867778093479"><ele>15.0</ele><time>2026-04-05T07:50:08.999Z</time></trkpt><trkpt lat="43.69123125955524" lon="10.692732192666728"><ele>15.0</ele><time>2026-04-05T07:50:10.999Z</time></trkpt><trkpt lat="43.69118436923128" lon="10.692583376523134"><ele>15.0</ele><time>2026-04-05T07:50:12.999Z</time></trkpt><trkpt lat="43.69113437841783" lon="10.692436603733077"><ele>15.0</ele><time>2026-04-05T07:50:14.999Z</time></trkpt><trkpt lat="43.69108707432613" lon="10.692287656991379"><ele>15.0</ele><time>2026-04-05T07:50:16.999Z</time></trkpt><trkpt lat="43.691039712672655" lon="10.69213680302407"><ele>14.75</ele><time>2026-04-05T07:50:18.999Z</time></trkpt><trkpt lat="43.690991353219516" lon="10.691984859721693"><ele>14.5</ele><time>2026-04-05T07:50:20.999Z</time></trkpt><trkpt lat="43.690941882721" lon="10.691826782711843"><ele>14.25</ele><time>2026-04-05T07:50:22.999Z</time></trkpt><trkpt lat="43.69088901941831" lon="10.691670209851905"><ele>14.0</ele><time>2026-04-05T07:50:24.999Z</time></trkpt><trkpt lat="43.69083773242892" lon="10.691513230128082"><ele>14.0</ele><time>2026-04-05T07:50:26.999Z</time></trkpt><trkpt lat="43.690786551882596" lon="10.69135851000839"><ele>14.0</ele><time>2026-04-05T07:50:28.999Z</time></trkpt><trkpt lat="43.69073662733071" lon="10.691203111646884"><ele>14.0</ele><time>2026-04-05T07:50:30.999Z</time></trkpt><trkpt lat="43.69068536001759" lon="10.691046416705227"><ele>14.0</ele><time>2026-04-05T07:50:32.999Z</time></trkpt><trkpt lat="43.69063429544409" lon="10.690886791741342"><ele>14.166666666666668</ele><time>2026-04-05T07:50:34.999Z</time></trkpt><trkpt lat="43.69058380228603" lon="10.690726990225192"><ele>14.333333333333334</ele><time>2026-04-05T07:50:36.999Z</time></trkpt><trkpt lat="43.69053195548926" lon="10.690569025086882"><ele>14.5</ele><time>2026-04-05T07:50:38.999Z</time></trkpt><trkpt lat="43.69050382445018" lon="10.690489763628761"><ele>14.666666666666668</ele><time>2026-04-05T07:50:39.999Z</time></trkpt><trkpt lat="43.69047844907368" lon="10.690408265548824"><ele>14.833333333333334</ele><time>2026-04-05T07:50:40.999Z</time></trkpt><trkpt lat="43.6904539602616" lon="10.69032768008103"><ele>15.0</ele><time>2026-04-05T07:50:41.999Z</time></trkpt><trkpt lat="43.690429723822895" lon="10.690245561822728"><ele>15.142857142857142</ele><time>2026-04-05T07:50:42.999Z</time></trkpt><trkpt lat="43.690403363051914" lon="10.690165135580571"><ele>15.285714285714285</ele><time>2026-04-05T07:50:43.999Z</time></trkpt><trkpt lat="43.69037441339946" lon="10.690084396089699"><ele>15.428571428571427</ele><time>2026-04-05T07:50:44.999Z</time></trkpt><trkpt lat="43.69034855190041" lon="10.690002105076278"><ele>15.571428571428571</ele><time>2026-04-05T07:50:45.999Z</time></trkpt><trkpt lat="43.69032334460071" lon="10.689921418144065"><ele>15.714285714285712</ele><time>2026-04-05T07:50:46.999Z</time></trkpt><trkpt lat="43.690297338980606" lon="10.689840099435061"><ele>15.857142857142856</ele><time>2026-04-05T07:50:47.999Z</time></trkpt><trkpt lat="43.690270701476976" lon="10.689759199498434"><ele>16.0</ele><time>2026-04-05T07:50:48.999Z</time></trkpt><trkpt lat="43.690245488555696" lon="10.689677401414626"><ele>15.714285714285714</ele><time>2026-04-05T07:50:49.999Z</time></trkpt><trkpt lat="43.690220559543654" lon="10.689596495405377"><ele>15.428571428571427</ele><time>2026-04-05T07:50:50.999Z</time></trkpt><trkpt lat="43.69019522524207" lon="10.68951493117833"><ele>15.142857142857142</ele><time>2026-04-05T07:50:51.999Z</time></trkpt><trkpt lat="43.69016924813653" lon="10.689434227348363"><ele>14.857142857142858</ele><time>2026-04-05T07:50:52.999Z</time></trkpt><trkpt lat="43.690142606379545" lon="10.689353292218398"><ele>14.571428571428571</ele><time>2026-04-05T07:50:53.998Z</time></trkpt><trkpt lat="43.690115250909884" lon="10.689272335975382"><ele>14.285714285714285</ele><time>2026-04-05T07:50:54.998Z</time></trkpt><trkpt lat="43.69008773264108" lon="10.689189386545307"><ele>14.0</ele><time>2026-04-05T07:50:55.998Z</time></trkpt><trkpt lat="43.690061500865895" lon="10.68910895126686"><ele>14.0</ele><time>2026-04-05T07:50:56.998Z</time></trkpt><trkpt lat="43.69001230521351" lon="10.688949304114724"><ele>13.999999999999998</ele><time>2026-04-05T07:50:58.998Z</time></trkpt><trkpt lat="43.68998492417341" lon="10.688870130335637"><ele>13.999999999999998</ele><time>2026-04-05T07:50:59.998Z</time></trkpt><trkpt lat="43.68993511969306" lon="10.688710073918894"><ele>14.0</ele><time>2026-04-05T07:51:01.998Z</time></trkpt><trkpt lat="43.689908242033034" lon="10.688628666112436"><ele>14.0</ele><time>2026-04-05T07:51:02.998Z</time></trkpt><trkpt lat="43.689856933823044" lon="10.688469701536427"><ele>14.142857142857142</ele><time>2026-04-05T07:51:04.998Z</time></trkpt><trkpt lat="43.68980676730075" lon="10.688309889763664"><ele>14.285714285714285</ele><time>2026-04-05T07:51:06.998Z</time></trkpt><trkpt lat="43.68977997840631" lon="10.688228616007448"><ele>14.428571428571429</ele><time>2026-04-05T07:51:07.998Z</time></trkpt><trkpt lat="43.68975325026334" lon="10.688146071242988"><ele>14.571428571428571</ele><time>2026-04-05T07:51:08.998Z</time></trkpt><trkpt lat="43.68972605431409" lon="10.688062584425401"><ele>14.714285714285714</ele><time>2026-04-05T07:51:09.998Z</time></trkpt><trkpt lat="43.689700135285186" lon="10.687982535692608"><ele>14.857142857142858</ele><time>2026-04-05T07:51:10.998Z</time></trkpt><trkpt lat="43.689673323178795" lon="10.687903202616626"><ele>15.0</ele><time>2026-04-05T07:51:11.998Z</time></trkpt><trkpt lat="43.689622223676146" lon="10.687746483468352"><ele>15.0</ele><time>2026-04-05T07:51:13.998Z</time></trkpt><trkpt lat="43.689570412750435" lon="10.687588917017923"><ele>15.0</ele><time>2026-04-05T07:51:15.998Z</time></trkpt><trkpt lat="43.689521273357244" lon="10.687434797377838"><ele>15.0</ele><time>2026-04-05T07:51:17.998Z</time></trkpt><trkpt lat="43.68947059749562" lon="10.6872819079567"><ele>15.0</ele><time>2026-04-05T07:51:19.998Z</time></trkpt><trkpt lat="43.68942122213618" lon="10.687127231631594"><ele>15.0</ele><time>2026-04-05T07:51:21.998Z</time></trkpt><trkpt lat="43.6893952623868" lon="10.687045909492324"><ele>15.0</ele><time>2026-04-05T07:51:22.998Z</time></trkpt><trkpt lat="43.689349522295046" lon="10.686889676421565"><ele>15.0</ele><time>2026-04-05T07:51:24.998Z</time></trkpt><trkpt lat="43.68929841831693" lon="10.686734500896929"><ele>15.0</ele><time>2026-04-05T07:51:26.998Z</time></trkpt><trkpt lat="43.68924823903784" lon="10.686578799735814"><ele>15.0</ele><time>2026-04-05T07:51:28.998Z</time></trkpt><trkpt lat="43.68922362038004" lon="10.686498536213247"><ele>14.5</ele><time>2026-04-05T07:51:29.998Z</time></trkpt><trkpt lat="43.68917744847922" lon="10.686337634447648"><ele>14.0</ele><time>2026-04-05T07:51:32Z</time></trkpt><trkpt lat="43.68913387377132" lon="10.686178498607921"><ele>13.5</ele><time>2026-04-05T07:51:34Z</time></trkpt><trkpt lat="43.68908711968266" lon="10.686015004245478"><ele>13.0</ele><time>2026-04-05T07:51:36Z</time></trkpt><trkpt lat="43.689045480749535" lon="10.685852848762243"><ele>12.8</ele><time>2026-04-05T07:51:38Z</time></trkpt><trkpt lat="43.68900401072053" lon="10.685686328802518"><ele>12.600000000000001</ele><time>2026-04-05T07:51:40Z</time></trkpt><trkpt lat="43.6889669303689" lon="10.685520760964994"><ele>12.399999999999999</ele><time>2026-04-05T07:51:42Z</time></trkpt><trkpt lat="43.68894668948228" lon="10.685437664955744"><ele>12.2</ele><time>2026-04-05T07:51:43Z</time></trkpt><trkpt lat="43.688909293297236" lon="10.685271489927045"><ele>12.0</ele><time>2026-04-05T07:51:45Z</time></trkpt><trkpt lat="43.688889808886834" lon="10.685187092856237"><ele>12.0</ele><time>2026-04-05T07:51:46Z</time></trkpt><trkpt lat="43.688875634025884" lon="10.685101913781061"><ele>12.0</ele><time>2026-04-05T07:51:47Z</time></trkpt><trkpt lat="43.68883737112023" lon="10.68493911592727"><ele>12.0</ele><time>2026-04-05T07:51:49Z</time></trkpt><trkpt lat="43.6888159566958" lon="10.68485604050343"><ele>12.0</ele><time>2026-04-05T07:51:50Z</time></trkpt><trkpt lat="43.688795513824495" lon="10.684773299578408"><ele>12.0</ele><time>2026-04-05T07:51:51Z</time></trkpt><trkpt lat="43.688760792508546" lon="10.684608962668142"><ele>12.0</ele><time>2026-04-05T07:51:53Z</time></trkpt><trkpt lat="43.6887236226862" lon="10.68444299900886"><ele>12.0</ele><time>2026-04-05T07:51:55Z</time></trkpt><trkpt lat="43.68868518186553" lon="10.684278826481892"><ele>12.0</ele><time>2026-04-05T07:51:57Z</time></trkpt><trkpt lat="43.68866577246516" lon="10.684193477700836"><ele>12.0</ele><time>2026-04-05T07:51:58Z</time></trkpt><trkpt lat="43.68862914173526" lon="10.684031547809441"><ele>12.0</ele><time>2026-04-05T07:52:00Z</time></trkpt><trkpt lat="43.68859172535373" lon="10.683869415723395"><ele>12.0</ele><time>2026-04-05T07:52:02Z</time></trkpt><trkpt lat="43.688556279052385" lon="10.683706249409967"><ele>12.75</ele><time>2026-04-05T07:52:04Z</time></trkpt><trkpt lat="43.68851681384793" lon="10.683543616827778"><ele>13.5</ele><time>2026-04-05T07:52:06Z</time></trkpt><trkpt lat="43.68847639059054" lon="10.683377458793167"><ele>14.25</ele><time>2026-04-05T07:52:07.999Z</time></trkpt><trkpt lat="43.68843694493831" lon="10.683210629729176"><ele>15.0</ele><time>2026-04-05T07:52:09.999Z</time></trkpt><trkpt lat="43.68839955008589" lon="10.683050136612806"><ele>15.0</ele><time>2026-04-05T07:52:11.999Z</time></trkpt><trkpt lat="43.68836431842699" lon="10.68288591090848"><ele>15.0</ele><time>2026-04-05T07:52:13.999Z</time></trkpt><trkpt lat="43.688344317219766" lon="10.682802919184835"><ele>15.0</ele><time>2026-04-05T07:52:14.999Z</time></trkpt><trkpt lat="43.68830681384596" lon="10.682638818419399"><ele>15.0</ele><time>2026-04-05T07:52:16.999Z</time></trkpt><trkpt lat="43.688267674527836" lon="10.682474405941374"><ele>15.0</ele><time>2026-04-05T07:52:18.999Z</time></trkpt><trkpt lat="43.68823264653441" lon="10.68231167676962"><ele>14.5</ele><time>2026-04-05T07:52:20.999Z</time></trkpt><trkpt lat="43.68819573752067" lon="10.682146338884692"><ele>14.0</ele><time>2026-04-05T07:52:22.999Z</time></trkpt><trkpt lat="43.68815631218851" lon="10.681979881161825"><ele>13.5</ele><time>2026-04-05T07:52:24.999Z</time></trkpt><trkpt lat="43.688114539408346" lon="10.681813531062877"><ele>13.0</ele><time>2026-04-05T07:52:26.999Z</time></trkpt><trkpt lat="43.68807805036579" lon="10.681648151407215"><ele>12.8</ele><time>2026-04-05T07:52:28.999Z</time></trkpt><trkpt lat="43.68803795919439" lon="10.681488516391395"><ele>12.600000000000001</ele><time>2026-04-05T07:52:30.999Z</time></trkpt><trkpt lat="43.688015932633874" lon="10.681400348749369"><ele>12.399999999999999</ele><time>2026-04-05T07:52:31.999Z</time></trkpt><trkpt lat="43.68798343004472" lon="10.681235663212217"><ele>12.2</ele><time>2026-04-05T07:52:33.999Z</time></trkpt><trkpt lat="43.68794336573009" lon="10.681072166805215"><ele>12.0</ele><time>2026-04-05T07:52:35.999Z</time></trkpt><trkpt lat="43.68790782117384" lon="10.680906426960432"><ele>11.999999999999998</ele><time>2026-04-05T07:52:37.999Z</time></trkpt><trkpt lat="43.68789028786398" lon="10.680818068774991"><ele>12.0</ele><time>2026-04-05T07:52:38.999Z</time></trkpt><trkpt lat="43.68786986853112" lon="10.680733087707397"><ele>12.0</ele><time>2026-04-05T07:52:39.999Z</time></trkpt><trkpt lat="43.687850997595795" lon="10.68064688787769"><ele>12.0</ele><time>2026-04-05T07:52:40.999Z</time></trkpt><trkpt lat="43.687830043841856" lon="10.68056363462227"><ele>12.0</ele><time>2026-04-05T07:52:41.999Z</time></trkpt><trkpt lat="43.68780842882963" lon="10.68048053108068"><ele>11.999999999999998</ele><time>2026-04-05T07:52:42.999Z</time></trkpt><trkpt lat="43.6877916724295" lon="10.680396508438797"><ele>12.0</ele><time>2026-04-05T07:52:43.999Z</time></trkpt><trkpt lat="43.68777161381078" lon="10.680309585406462"><ele>12.166666666666666</ele><time>2026-04-05T07:52:44.999Z</time></trkpt><trkpt lat="43.68775140448553" lon="10.680222084229134"><ele>12.333333333333332</ele><time>2026-04-05T07:52:45.999Z</time></trkpt><trkpt lat="43.68773149070971" lon="10.680137429277883"><ele>12.5</ele><time>2026-04-05T07:52:46.999Z</time></trkpt><trkpt lat="43.68771287833502" lon="10.680053309240986"><ele>12.666666666666666</ele><time>2026-04-05T07:52:47.999Z</time></trkpt><trkpt lat="43.68767475193366" lon="10.6798894284389"><ele>12.833333333333332</ele><time>2026-04-05T07:52:49.999Z</time></trkpt><trkpt lat="43.68763764606225" lon="10.679732104921763"><ele>13.0</ele><time>2026-04-05T07:52:51.999Z</time></trkpt><trkpt lat="43.687601948521376" lon="10.67957703331083"><ele>13.2</ele><time>2026-04-05T07:52:53.999Z</time></trkpt><trkpt lat="43.68756645648044" lon="10.679423555808343"><ele>13.4</ele><time>2026-04-05T07:52:55.998Z</time></trkpt><trkpt lat="43.687532469412645" lon="10.67925816141546"><ele>13.599999999999998</ele><time>2026-04-05T07:52:57.998Z</time></trkpt><trkpt lat="43.687511819969814" lon="10.67917212977678"><ele>13.799999999999999</ele><time>2026-04-05T07:52:58.998Z</time></trkpt><trkpt lat="43.687473136033084" lon="10.679016463005512"><ele>14.0</ele><time>2026-04-05T07:53:00.998Z</time></trkpt><trkpt lat="43.687435617085356" lon="10.678855955939193"><ele>14.0</ele><time>2026-04-05T07:53:02.998Z</time></trkpt><trkpt lat="43.68740081254637" lon="10.67869291648619"><ele>14.0</ele><time>2026-04-05T07:53:04.998Z</time></trkpt><trkpt lat="43.68736347572328" lon="10.678527742864267"><ele>14.0</ele><time>2026-04-05T07:53:06.998Z</time></trkpt><trkpt lat="43.68732618540038" lon="10.678363373824244"><ele>14.0</ele><time>2026-04-05T07:53:08.998Z</time></trkpt><trkpt lat="43.68728974516874" lon="10.678199561643865"><ele>14.0</ele><time>2026-04-05T07:53:10.998Z</time></trkpt><trkpt lat="43.687251235968304" lon="10.67803402262176"><ele>13.999999999999998</ele><time>2026-04-05T07:53:12.998Z</time></trkpt><trkpt lat="43.68721225900119" lon="10.677866843349321"><ele>13.999999999999998</ele><time>2026-04-05T07:53:14.998Z</time></trkpt><trkpt lat="43.68719145082312" lon="10.677782745945148"><ele>14.0</ele><time>2026-04-05T07:53:15.998Z</time></trkpt><trkpt lat="43.687172634282966" lon="10.677697113305886"><ele>14.0</ele><time>2026-04-05T07:53:16.998Z</time></trkpt><trkpt lat="43.68713400209365" lon="10.677528550447812"><ele>14.000000000000002</ele><time>2026-04-05T07:53:18.998Z</time></trkpt><trkpt lat="43.68709780440773" lon="10.67736818948266"><ele>14.0</ele><time>2026-04-05T07:53:20.998Z</time></trkpt><trkpt lat="43.68707938617733" lon="10.677283817926718"><ele>14.0</ele><time>2026-04-05T07:53:21.998Z</time></trkpt><trkpt lat="43.68704179160491" lon="10.677118892609904"><ele>14.0</ele><time>2026-04-05T07:53:23.998Z</time></trkpt><trkpt lat="43.68702284499857" lon="10.677033504683646"><ele>14.000000000000002</ele><time>2026-04-05T07:53:24.998Z</time></trkpt><trkpt lat="43.687004292998914" lon="10.676948833850092"><ele>14.0</ele><time>2026-04-05T07:53:25.998Z</time></trkpt><trkpt lat="43.686984250821865" lon="10.67686485441875"><ele>14.0</ele><time>2026-04-05T07:53:26.998Z</time></trkpt><trkpt lat="43.68696448826653" lon="10.676778487901096"><ele>14.0</ele><time>2026-04-05T07:53:27.998Z</time></trkpt><trkpt lat="43.68694530779154" lon="10.676693165924895"><ele>14.0</ele><time>2026-04-05T07:53:28.998Z</time></trkpt><trkpt lat="43.686928372094656" lon="10.67660461478371"><ele>14.0</ele><time>2026-04-05T07:53:29.998Z</time></trkpt><trkpt lat="43.68690996477938" lon="10.676517671848606"><ele>14.0</ele><time>2026-04-05T07:53:30.998Z</time></trkpt><trkpt lat="43.68688976670067" lon="10.67643326274106"><ele>14.0</ele><time>2026-04-05T07:53:31.998Z</time></trkpt><trkpt lat="43.68686980483203" lon="10.676349313915795"><ele>14.0</ele><time>2026-04-05T07:53:32.998Z</time></trkpt><trkpt lat="43.686849460942575" lon="10.67626279950669"><ele>14.166666666666668</ele><time>2026-04-05T07:53:33.998Z</time></trkpt><trkpt lat="43.686813075010704" lon="10.676098774936765"><ele>14.333333333333334</ele><time>2026-04-05T07:53:35.998Z</time></trkpt><trkpt lat="43.6867735741638" lon="10.675932864222775"><ele>14.5</ele><time>2026-04-05T07:53:38Z</time></trkpt><trkpt lat="43.686753122262104" lon="10.675847798813944"><ele>14.666666666666668</ele><time>2026-04-05T07:53:39Z</time></trkpt><trkpt lat="43.68673376432524" lon="10.675763314849057"><ele>14.833333333333334</ele><time>2026-04-05T07:53:40Z</time></trkpt><trkpt lat="43.68671484766802" lon="10.675678107957618"><ele>15.0</ele><time>2026-04-05T07:53:41Z</time></trkpt><trkpt lat="43.68669637914215" lon="10.675591396253248"><ele>15.0</ele><time>2026-04-05T07:53:42Z</time></trkpt><trkpt lat="43.68667641557075" lon="10.675507332382383"><ele>15.0</ele><time>2026-04-05T07:53:43Z</time></trkpt><trkpt lat="43.68665775580552" lon="10.675421472467049"><ele>15.0</ele><time>2026-04-05T07:53:44Z</time></trkpt><trkpt lat="43.686638974668725" lon="10.675335158259122"><ele>15.0</ele><time>2026-04-05T07:53:45Z</time></trkpt><trkpt lat="43.686615006670394" lon="10.675250714421582"><ele>15.0</ele><time>2026-04-05T07:53:46Z</time></trkpt><trkpt lat="43.68657462298101" lon="10.67508566692924"><ele>15.0</ele><time>2026-04-05T07:53:48Z</time></trkpt><trkpt lat="43.68653561883869" lon="10.674923978492675"><ele>15.0</ele><time>2026-04-05T07:53:50Z</time></trkpt><trkpt lat="43.68651748296362" lon="10.6748393482364"><ele>15.0</ele><time>2026-04-05T07:53:51Z</time></trkpt><trkpt lat="43.686500049406455" lon="10.674752727280847"><ele>15.0</ele><time>2026-04-05T07:53:52Z</time></trkpt><trkpt lat="43.686483591801235" lon="10.674665206780483"><ele>15.0</ele><time>2026-04-05T07:53:53Z</time></trkpt><trkpt lat="43.686466364915994" lon="10.67457954755993"><ele>15.0</ele><time>2026-04-05T07:53:54Z</time></trkpt><trkpt lat="43.686447200144464" lon="10.674492997352413"><ele>15.0</ele><time>2026-04-05T07:53:55Z</time></trkpt><trkpt lat="43.6864280660425" lon="10.674409854899489"><ele>15.0</ele><time>2026-04-05T07:53:56Z</time></trkpt><trkpt lat="43.68640605149261" lon="10.67432315064283"><ele>14.833333333333334</ele><time>2026-04-05T07:53:57Z</time></trkpt><trkpt lat="43.686383793623705" lon="10.674238814677013"><ele>14.666666666666668</ele><time>2026-04-05T07:53:58Z</time></trkpt><trkpt lat="43.68636707930333" lon="10.67415189336949"><ele>14.5</ele><time>2026-04-05T07:53:59Z</time></trkpt><trkpt lat="43.68634656271821" lon="10.67406425666999"><ele>14.333333333333334</ele><time>2026-04-05T07:54:00Z</time></trkpt><trkpt lat="43.68631213242591" lon="10.673892996201694"><ele>14.166666666666668</ele><time>2026-04-05T07:54:02Z</time></trkpt><trkpt lat="43.68629343698905" lon="10.673806915741729"><ele>14.0</ele><time>2026-04-05T07:54:03Z</time></trkpt><trkpt lat="43.686269865256584" lon="10.673724625014158"><ele>14.166666666666668</ele><time>2026-04-05T07:54:04Z</time></trkpt><trkpt lat="43.68623282917481" lon="10.67355403200814"><ele>14.333333333333334</ele><time>2026-04-05T07:54:06Z</time></trkpt><trkpt lat="43.686210115955845" lon="10.673468550121099"><ele>14.5</ele><time>2026-04-05T07:54:07Z</time></trkpt><trkpt lat="43.68617492953881" lon="10.673303376005922"><ele>14.666666666666668</ele><time>2026-04-05T07:54:09Z</time></trkpt><trkpt lat="43.68615678841269" lon="10.673215483182153"><ele>14.833333333333334</ele><time>2026-04-05T07:54:10Z</time></trkpt><trkpt lat="43.68613865027714" lon="10.6731308318331"><ele>15.0</ele><time>2026-04-05T07:54:11Z</time></trkpt><trkpt lat="43.686121350178" lon="10.673046020892443"><ele>15.0</ele><time>2026-04-05T07:54:12Z</time></trkpt><trkpt lat="43.686078263066996" lon="10.672881530634768"><ele>15.0</ele><time>2026-04-05T07:54:14Z</time></trkpt><trkpt lat="43.68605634409474" lon="10.672798242998375"><ele>15.0</ele><time>2026-04-05T07:54:15Z</time></trkpt><trkpt lat="43.6860349120558" lon="10.672712168903432"><ele>15.0</ele><time>2026-04-05T07:54:15.999Z</time></trkpt><trkpt lat="43.68601203251724" lon="10.672625232160154"><ele>15.0</ele><time>2026-04-05T07:54:16.999Z</time></trkpt><trkpt lat="43.68599387886914" lon="10.672537659169091"><ele>15.0</ele><time>2026-04-05T07:54:17.999Z</time></trkpt><trkpt lat="43.68597341468636" lon="10.67245237585297"><ele>15.0</ele><time>2026-04-05T07:54:18.999Z</time></trkpt><trkpt lat="43.68593895640094" lon="10.672281535219431"><ele>15.0</ele><time>2026-04-05T07:54:20.999Z</time></trkpt><trkpt lat="43.68592053114741" lon="10.672194970049848"><ele>15.0</ele><time>2026-04-05T07:54:21.999Z</time></trkpt><trkpt lat="43.685884003247" lon="10.672026331225364"><ele>15.0</ele><time>2026-04-05T07:54:23.999Z</time></trkpt><trkpt lat="43.68586365886089" lon="10.67194151223702"><ele>15.0</ele><time>2026-04-05T07:54:24.999Z</time></trkpt><trkpt lat="43.68582465547227" lon="10.671775093267048"><ele>15.0</ele><time>2026-04-05T07:54:26.999Z</time></trkpt><trkpt lat="43.68580368071581" lon="10.671691047515832"><ele>15.0</ele><time>2026-04-05T07:54:27.999Z</time></trkpt><trkpt lat="43.68578500516469" lon="10.671602106145562"><ele>15.0</ele><time>2026-04-05T07:54:28.999Z</time></trkpt><trkpt lat="43.68576538251865" lon="10.671515484997935"><ele>15.0</ele><time>2026-04-05T07:54:29.999Z</time></trkpt><trkpt lat="43.6857456227809" lon="10.671429748808979"><ele>15.0</ele><time>2026-04-05T07:54:30.999Z</time></trkpt><trkpt lat="43.68572579286988" lon="10.671344743122273"><ele>15.0</ele><time>2026-04-05T07:54:31.999Z</time></trkpt><trkpt lat="43.68570587200471" lon="10.671258576817419"><ele>15.0</ele><time>2026-04-05T07:54:32.999Z</time></trkpt><trkpt lat="43.68568539851125" lon="10.671173456143384"><ele>14.857142857142858</ele><time>2026-04-05T07:54:33.999Z</time></trkpt><trkpt lat="43.68566315785208" lon="10.671089983363062"><ele>14.714285714285714</ele><time>2026-04-05T07:54:34.999Z</time></trkpt><trkpt lat="43.685643135534214" lon="10.671003672304215"><ele>14.571428571428571</ele><time>2026-04-05T07:54:35.999Z</time></trkpt><trkpt lat="43.68562330479094" lon="10.670917481715982"><ele>14.428571428571429</ele><time>2026-04-05T07:54:36.999Z</time></trkpt><trkpt lat="43.685604801889774" lon="10.670828882037599"><ele>14.285714285714285</ele><time>2026-04-05T07:54:37.999Z</time></trkpt><trkpt lat="43.68558977078818" lon="10.670739759378106"><ele>14.142857142857142</ele><time>2026-04-05T07:54:38.999Z</time></trkpt><trkpt lat="43.68557016254094" lon="10.67065300701857"><ele>14.0</ele><time>2026-04-05T07:54:39.999Z</time></trkpt><trkpt lat="43.685549896724766" lon="10.67056337583755"><ele>14.0</ele><time>2026-04-05T07:54:40.999Z</time></trkpt><trkpt lat="43.68552725872795" lon="10.67047843486734"><ele>14.0</ele><time>2026-04-05T07:54:41.999Z</time></trkpt><trkpt lat="43.68550672948182" lon="10.670394004735178"><ele>14.0</ele><time>2026-04-05T07:54:42.999Z</time></trkpt><trkpt lat="43.68548799008772" lon="10.670308854311344"><ele>14.0</ele><time>2026-04-05T07:54:43.999Z</time></trkpt><trkpt lat="43.68546817501395" lon="10.670224058084061"><ele>14.0</ele><time>2026-04-05T07:54:44.999Z</time></trkpt><trkpt lat="43.68544957362113" lon="10.67013914528718"><ele>14.0</ele><time>2026-04-05T07:54:45.999Z</time></trkpt><trkpt lat="43.68543004721595" lon="10.670052236459613"><ele>14.0</ele><time>2026-04-05T07:54:46.999Z</time></trkpt><trkpt lat="43.68539213853464" lon="10.66988414334797"><ele>14.000000000000002</ele><time>2026-04-05T07:54:48.999Z</time></trkpt><trkpt lat="43.68535462425255" lon="10.669716396488122"><ele>14.0</ele><time>2026-04-05T07:54:50.999Z</time></trkpt><trkpt lat="43.68533436455215" lon="10.669631559128398"><ele>14.0</ele><time>2026-04-05T07:54:51.999Z</time></trkpt><trkpt lat="43.685293908856835" lon="10.669465530577252"><ele>14.0</ele><time>2026-04-05T07:54:53.999Z</time></trkpt><trkpt lat="43.685274647895874" lon="10.669380987447772"><ele>14.000000000000002</ele><time>2026-04-05T07:54:54.999Z</time></trkpt><trkpt lat="43.68525546808034" lon="10.669296488649378"><ele>14.0</ele><time>2026-04-05T07:54:55.999Z</time></trkpt><trkpt lat="43.685235483357694" lon="10.669212581116382"><ele>14.333333333333334</ele><time>2026-04-05T07:54:56.999Z</time></trkpt><trkpt lat="43.68521431176862" lon="10.669128408609609"><ele>14.666666666666668</ele><time>2026-04-05T07:54:57.999Z</time></trkpt><trkpt lat="43.68519191989969" lon="10.669045790694783"><ele>15.0</ele><time>2026-04-05T07:54:58.999Z</time></trkpt><trkpt lat="43.68516718880203" lon="10.668964697873704"><ele>15.333333333333332</ele><time>2026-04-05T07:54:59.999Z</time></trkpt><trkpt lat="43.685129688084096" lon="10.6687982563327"><ele>15.666666666666666</ele><time>2026-04-05T07:55:01.999Z</time></trkpt><trkpt lat="43.68509115163328" lon="10.668635454234808"><ele>16.0</ele><time>2026-04-05T07:55:03.998Z</time></trkpt><trkpt lat="43.68505612068314" lon="10.668472982017615"><ele>16.0</ele><time>2026-04-05T07:55:05.998Z</time></trkpt><trkpt lat="43.68501886332466" lon="10.6683089360364"><ele>16.0</ele><time>2026-04-05T07:55:07.998Z</time></trkpt><trkpt lat="43.68499859432758" lon="10.668224739544515"><ele>16.0</ele><time>2026-04-05T07:55:08.998Z</time></trkpt><trkpt lat="43.68496242759996" lon="10.668058338633768"><ele>16.0</ele><time>2026-04-05T07:55:10.998Z</time></trkpt><trkpt lat="43.68494105210719" lon="10.667972219714821"><ele>16.0</ele><time>2026-04-05T07:55:11.998Z</time></trkpt><trkpt lat="43.684904631312115" lon="10.667818387759679"><ele>15.600000000000001</ele><time>2026-04-05T07:55:13.998Z</time></trkpt><trkpt lat="43.6848854363446" lon="10.667729695690733"><ele>15.200000000000001</ele><time>2026-04-05T07:55:14.998Z</time></trkpt><trkpt lat="43.68484560086614" lon="10.667565964069988"><ele>14.799999999999999</ele><time>2026-04-05T07:55:16.998Z</time></trkpt><trkpt lat="43.68480550168609" lon="10.667401887081187"><ele>14.399999999999999</ele><time>2026-04-05T07:55:18.998Z</time></trkpt><trkpt lat="43.68476902262501" lon="10.667235070635936"><ele>14.0</ele><time>2026-04-05T07:55:20.998Z</time></trkpt><trkpt lat="43.684735295725574" lon="10.667073296003023"><ele>14.25</ele><time>2026-04-05T07:55:22.998Z</time></trkpt><trkpt lat="43.68469283539327" lon="10.666919696758535"><ele>14.5</ele><time>2026-04-05T07:55:24.998Z</time></trkpt><trkpt lat="43.684663564333626" lon="10.666753885114138"><ele>14.75</ele><time>2026-04-05T07:55:26.998Z</time></trkpt><trkpt lat="43.68461282262559" lon="10.666607975986082"><ele>15.0</ele><time>2026-04-05T07:55:28.998Z</time></trkpt><trkpt lat="43.68458285913591" lon="10.666453074939481"><ele>15.0</ele><time>2026-04-05T07:55:30.998Z</time></trkpt><trkpt lat="43.684553467772076" lon="10.666304632068941"><ele>15.0</ele><time>2026-04-05T07:55:32.998Z</time></trkpt><trkpt lat="43.68451524065634" lon="10.666161361078174"><ele>15.0</ele><time>2026-04-05T07:55:34.998Z</time></trkpt><trkpt lat="43.68448574247554" lon="10.666014904440134"><ele>15.0</ele><time>2026-04-05T07:55:36.998Z</time></trkpt><trkpt lat="43.684456363953444" lon="10.665881487901933"><ele>15.0</ele><time>2026-04-05T07:55:38.998Z</time></trkpt><trkpt lat="43.68443046608263" lon="10.665751394410517"><ele>15.166666666666666</ele><time>2026-04-05T07:55:40.998Z</time></trkpt><trkpt lat="43.68441595081715" lon="10.665624560597326"><ele>15.333333333333332</ele><time>2026-04-05T07:55:43Z</time></trkpt><trkpt lat="43.68443438241" lon="10.665514870206577"><ele>15.5</ele><time>2026-04-05T07:55:45Z</time></trkpt><trkpt lat="43.68447918831442" lon="10.66543247462356"><ele>15.666666666666666</ele><time>2026-04-05T07:55:47Z</time></trkpt><trkpt lat="43.68453954885654" lon="10.665361615120228"><ele>15.833333333333332</ele><time>2026-04-05T07:55:49Z</time></trkpt><trkpt lat="43.68459960984338" lon="10.665282008690511"><ele>16.0</ele><time>2026-04-05T07:55:51Z</time></trkpt><trkpt lat="43.68466528053275" lon="10.665202055875731"><ele>16.0</ele><time>2026-04-05T07:55:53Z</time></trkpt><trkpt lat="43.68472951322331" lon="10.665110289950283"><ele>16.0</ele><time>2026-04-05T07:55:55Z</time></trkpt><trkpt lat="43.684799134827074" lon="10.66502143098926"><ele>16.0</ele><time>2026-04-05T07:55:57Z</time></trkpt><trkpt lat="43.68484607424522" lon="10.664900218133118"><ele>16.0</ele><time>2026-04-05T07:55:59Z</time></trkpt><trkpt lat="43.68485424649214" lon="10.664755965307203"><ele>16.0</ele><time>2026-04-05T07:56:01Z</time></trkpt><trkpt lat="43.6848427328205" lon="10.664603948223704"><ele>16.0</ele><time>2026-04-05T07:56:03Z</time></trkpt><trkpt lat="43.684821689404615" lon="10.664451469512244"><ele>16.0</ele><time>2026-04-05T07:56:05Z</time></trkpt><trkpt lat="43.684797936406106" lon="10.664291802496969"><ele>16.0</ele><time>2026-04-05T07:56:07Z</time></trkpt><trkpt lat="43.68477613676855" lon="10.664130155961534"><ele>16.0</ele><time>2026-04-05T07:56:09Z</time></trkpt><trkpt lat="43.684753624200745" lon="10.663967308130267"><ele>16.25</ele><time>2026-04-05T07:56:11Z</time></trkpt><trkpt lat="43.68473269284669" lon="10.663799906763316"><ele>16.5</ele><time>2026-04-05T07:56:13Z</time></trkpt><trkpt lat="43.68472117460272" lon="10.663632585267557"><ele>16.75</ele><time>2026-04-05T07:56:15Z</time></trkpt><trkpt lat="43.68470889206864" lon="10.663473666376433"><ele>17.0</ele><time>2026-04-05T07:56:16.999Z</time></trkpt><trkpt lat="43.68469291274173" lon="10.663312020743305"><ele>17.0</ele><time>2026-04-05T07:56:18.999Z</time></trkpt><trkpt lat="43.6846784464626" lon="10.66314532003381"><ele>17.0</ele><time>2026-04-05T07:56:20.999Z</time></trkpt><trkpt lat="43.68466529464818" lon="10.662987602492132"><ele>17.0</ele><time>2026-04-05T07:56:22.999Z</time></trkpt><trkpt lat="43.684655914573966" lon="10.662822390867605"><ele>17.0</ele><time>2026-04-05T07:56:24.999Z</time></trkpt><trkpt lat="43.68464454646028" lon="10.66266031840797"><ele>17.25</ele><time>2026-04-05T07:56:26.999Z</time></trkpt><trkpt lat="43.68463273921694" lon="10.662497276762325"><ele>17.5</ele><time>2026-04-05T07:56:28.999Z</time></trkpt><trkpt lat="43.684622891723556" lon="10.662330835622052"><ele>17.75</ele><time>2026-04-05T07:56:30.999Z</time></trkpt><trkpt lat="43.68461151389463" lon="10.66217228324821"><ele>18.0</ele><time>2026-04-05T07:56:32.999Z</time></trkpt><trkpt lat="43.684605056778" lon="10.662001704022893"><ele>18.0</ele><time>2026-04-05T07:56:34.999Z</time></trkpt><trkpt lat="43.68459074937505" lon="10.661829980206674"><ele>18.0</ele><time>2026-04-05T07:56:36.999Z</time></trkpt><trkpt lat="43.68458162765791" lon="10.661663442833504"><ele>18.0</ele><time>2026-04-05T07:56:38.999Z</time></trkpt><trkpt lat="43.68457752522835" lon="10.661497269914296"><ele>18.0</ele><time>2026-04-05T07:56:40.999Z</time></trkpt><trkpt lat="43.684567364924185" lon="10.661331884207582"><ele>18.0</ele><time>2026-04-05T07:56:42.999Z</time></trkpt><trkpt lat="43.6845519884755" lon="10.661170290560937"><ele>18.0</ele><time>2026-04-05T07:56:44.999Z</time></trkpt><trkpt lat="43.6845398419365" lon="10.661001141442613"><ele>18.0</ele><time>2026-04-05T07:56:46.999Z</time></trkpt><trkpt lat="43.68452996655981" lon="10.660833385003283"><ele>18.0</ele><time>2026-04-05T07:56:48.999Z</time></trkpt><trkpt lat="43.6845180722271" lon="10.66066184333838"><ele>17.8</ele><time>2026-04-05T07:56:50.999Z</time></trkpt><trkpt lat="43.684506297531975" lon="10.660491656968205"><ele>17.6</ele><time>2026-04-05T07:56:52.999Z</time></trkpt><trkpt lat="43.684494145679416" lon="10.660322190180658"><ele>17.4</ele><time>2026-04-05T07:56:54.999Z</time></trkpt><trkpt lat="43.68448396887406" lon="10.660151229823969"><ele>17.2</ele><time>2026-04-05T07:56:56.999Z</time></trkpt><trkpt lat="43.684477918605246" lon="10.66006438964665"><ele>17.0</ele><time>2026-04-05T07:56:57.999Z</time></trkpt><trkpt lat="43.684467103758045" lon="10.659891042514968"><ele>17.0</ele><time>2026-04-05T07:56:59.999Z</time></trkpt><trkpt lat="43.684454525032635" lon="10.659721815887398"><ele>17.0</ele><time>2026-04-05T07:57:01.999Z</time></trkpt><trkpt lat="43.684443617534946" lon="10.65955129585431"><ele>17.0</ele><time>2026-04-05T07:57:03.998Z</time></trkpt><trkpt lat="43.68443280307692" lon="10.659384362027232"><ele>17.0</ele><time>2026-04-05T07:57:05.998Z</time></trkpt><trkpt lat="43.68441892158868" lon="10.659216511532506"><ele>17.0</ele><time>2026-04-05T07:57:07.998Z</time></trkpt><trkpt lat="43.68440890320649" lon="10.659050613619227"><ele>17.0</ele><time>2026-04-05T07:57:09.998Z</time></trkpt><trkpt lat="43.68440051372108" lon="10.658882665193428"><ele>17.0</ele><time>2026-04-05T07:57:11.998Z</time></trkpt><trkpt lat="43.684397463545075" lon="10.658713965836993"><ele>17.0</ele><time>2026-04-05T07:57:13.998Z</time></trkpt><trkpt lat="43.684393589686294" lon="10.65854376511787"><ele>17.0</ele><time>2026-04-05T07:57:15.998Z</time></trkpt><trkpt lat="43.68439024820103" lon="10.658375948334863"><ele>17.0</ele><time>2026-04-05T07:57:17.998Z</time></trkpt><trkpt lat="43.684385499435045" lon="10.658211209558194"><ele>17.0</ele><time>2026-04-05T07:57:19.998Z</time></trkpt><trkpt lat="43.68437999627369" lon="10.658046108528747"><ele>17.0</ele><time>2026-04-05T07:57:21.998Z</time></trkpt><trkpt lat="43.68437796583824" lon="10.657879014923266"><ele>17.0</ele><time>2026-04-05T07:57:23.998Z</time></trkpt><trkpt lat="43.68437574724044" lon="10.657715742480315"><ele>17.0</ele><time>2026-04-05T07:57:25.998Z</time></trkpt><trkpt lat="43.68437294173971" lon="10.657552266621526"><ele>17.0</ele><time>2026-04-05T07:57:27.998Z</time></trkpt><trkpt lat="43.68437111398009" lon="10.657392129705007"><ele>17.0</ele><time>2026-04-05T07:57:29.998Z</time></trkpt><trkpt lat="43.684378244792555" lon="10.65723228312069"><ele>17.0</ele><time>2026-04-05T07:57:31.998Z</time></trkpt><trkpt lat="43.68438993373133" lon="10.65707406503052"><ele>17.0</ele><time>2026-04-05T07:57:33.998Z</time></trkpt><trkpt lat="43.68441505726441" lon="10.656918067035432"><ele>17.0</ele><time>2026-04-05T07:57:35.998Z</time></trkpt><trkpt lat="43.68444886518834" lon="10.656763006543931"><ele>17.0</ele><time>2026-04-05T07:57:37.998Z</time></trkpt><trkpt lat="43.68449187463278" lon="10.656618428005414"><ele>17.2</ele><time>2026-04-05T07:57:39.998Z</time></trkpt><trkpt lat="43.684535553292" lon="10.656479279375219"><ele>17.4</ele><time>2026-04-05T07:57:41.998Z</time></trkpt><trkpt lat="43.68457725383723" lon="10.656344008296765"><ele>17.6</ele><time>2026-04-05T07:57:43.998Z</time></trkpt><trkpt lat="43.684613958702116" lon="10.656202602183509"><ele>17.8</ele><time>2026-04-05T07:57:45.998Z</time></trkpt><trkpt lat="43.68463858092381" lon="10.656044210172634"><ele>18.0</ele><time>2026-04-05T07:57:47.998Z</time></trkpt><trkpt lat="43.684652288464505" lon="10.655879011281353"><ele>19.0</ele><time>2026-04-05T07:57:50Z</time></trkpt><trkpt lat="43.68465001677709" lon="10.655710569934614"><ele>20.0</ele><time>2026-04-05T07:57:52Z</time></trkpt><trkpt lat="43.684645946029576" lon="10.655623634071612"><ele>21.0</ele><time>2026-04-05T07:57:53Z</time></trkpt><trkpt lat="43.684634387661696" lon="10.655448835047045"><ele>22.0</ele><time>2026-04-05T07:57:55Z</time></trkpt><trkpt lat="43.684608339441404" lon="10.655278729266316"><ele>23.0</ele><time>2026-04-05T07:57:57Z</time></trkpt><trkpt lat="43.68459866370108" lon="10.655189916116433"><ele>25.0</ele><time>2026-04-05T07:57:58Z</time></trkpt><trkpt lat="43.6845872801499" lon="10.6550236304121"><ele>27.0</ele><time>2026-04-05T07:58:00Z</time></trkpt><trkpt lat="43.68458928221709" lon="10.654859350008428"><ele>29.0</ele><time>2026-04-05T07:58:02Z</time></trkpt><trkpt lat="43.68461393368286" lon="10.65470062325143"><ele>31.0</ele><time>2026-04-05T07:58:04Z</time></trkpt><trkpt lat="43.684642809182805" lon="10.654543735884367"><ele>32.75</ele><time>2026-04-05T07:58:06Z</time></trkpt><trkpt lat="43.684670062925605" lon="10.65438582012288"><ele>34.5</ele><time>2026-04-05T07:58:08Z</time></trkpt><trkpt lat="43.684682096081104" lon="10.654222726785031"><ele>36.25</ele><time>2026-04-05T07:58:10Z</time></trkpt><trkpt lat="43.684687255959126" lon="10.65405896432564"><ele>38.0</ele><time>2026-04-05T07:58:12Z</time></trkpt><trkpt lat="43.68468342296149" lon="10.653892693922552"><ele>38.0</ele><time>2026-04-05T07:58:14Z</time></trkpt><trkpt lat="43.684667220667045" lon="10.653729441309519"><ele>38.0</ele><time>2026-04-05T07:58:16Z</time></trkpt><trkpt lat="43.68464321923473" lon="10.653567793338668"><ele>38.0</ele><time>2026-04-05T07:58:18Z</time></trkpt><trkpt lat="43.68461443348697" lon="10.65341217234268"><ele>38.0</ele><time>2026-04-05T07:58:19.999Z</time></trkpt><trkpt lat="43.68457616001557" lon="10.65325708226985"><ele>38.0</ele><time>2026-04-05T07:58:21.999Z</time></trkpt><trkpt lat="43.68453262993338" lon="10.653100204796164"><ele>38.0</ele><time>2026-04-05T07:58:23.999Z</time></trkpt><trkpt lat="43.68448043670989" lon="10.65295483603147"><ele>38.0</ele><time>2026-04-05T07:58:25.999Z</time></trkpt><trkpt lat="43.684419878810964" lon="10.652815503101994"><ele>38.0</ele><time>2026-04-05T07:58:27.999Z</time></trkpt><trkpt lat="43.684354340881434" lon="10.652678371010005"><ele>32.5</ele><time>2026-04-05T07:58:29.999Z</time></trkpt><trkpt lat="43.68428913347601" lon="10.652539781775038"><ele>27.0</ele><time>2026-04-05T07:58:31.999Z</time></trkpt><trkpt lat="43.68422528137176" lon="10.652406275657544"><ele>21.5</ele><time>2026-04-05T07:58:33.999Z</time></trkpt><trkpt lat="43.684158802163985" lon="10.652265710915545"><ele>16.0</ele><time>2026-04-05T07:58:35.999Z</time></trkpt><trkpt lat="43.68409101708667" lon="10.652125653753181"><ele>16.0</ele><time>2026-04-05T07:58:37.999Z</time></trkpt><trkpt lat="43.684028399218604" lon="10.651983219711479"><ele>16.0</ele><time>2026-04-05T07:58:39.999Z</time></trkpt><trkpt lat="43.683959037333054" lon="10.651838667192647"><ele>16.0</ele><time>2026-04-05T07:58:41.999Z</time></trkpt><trkpt lat="43.68388870290517" lon="10.651694078587976"><ele>16.0</ele><time>2026-04-05T07:58:43.999Z</time></trkpt><trkpt lat="43.68382007639958" lon="10.651547634429978"><ele>16.285714285714285</ele><time>2026-04-05T07:58:45.999Z</time></trkpt><trkpt lat="43.68378415643441" lon="10.651476091023952"><ele>16.57142857142857</ele><time>2026-04-05T07:58:46.999Z</time></trkpt><trkpt lat="43.68374828482005" lon="10.651403397268988"><ele>16.857142857142858</ele><time>2026-04-05T07:58:47.999Z</time></trkpt><trkpt lat="43.68371435216829" lon="10.651328751097804"><ele>17.142857142857142</ele><time>2026-04-05T07:58:48.999Z</time></trkpt><trkpt lat="43.68367922239847" lon="10.651254186345612"><ele>17.42857142857143</ele><time>2026-04-05T07:58:49.999Z</time></trkpt><trkpt lat="43.68364134544357" lon="10.65118135780667"><ele>17.714285714285715</ele><time>2026-04-05T07:58:50.999Z</time></trkpt><trkpt lat="43.683606974610015" lon="10.65110541952774"><ele>18.0</ele><time>2026-04-05T07:58:51.999Z</time></trkpt><trkpt lat="43.68353656761704" lon="10.650963343229684"><ele>18.0</ele><time>2026-04-05T07:58:53.999Z</time></trkpt><trkpt lat="43.68347134045683" lon="10.650825197604242"><ele>18.0</ele><time>2026-04-05T07:58:55.999Z</time></trkpt><trkpt lat="43.68340342846051" lon="10.650683494761754"><ele>18.0</ele><time>2026-04-05T07:58:57.999Z</time></trkpt><trkpt lat="43.68333729089179" lon="10.650540716265766"><ele>18.0</ele><time>2026-04-05T07:58:59.999Z</time></trkpt><trkpt lat="43.68327477152441" lon="10.650397208939903"><ele>19.6</ele><time>2026-04-05T07:59:01.999Z</time></trkpt><trkpt lat="43.68320976486328" lon="10.650259702116855"><ele>21.200000000000003</ele><time>2026-04-05T07:59:03.999Z</time></trkpt><trkpt lat="43.6831436678135" lon="10.650112617499664"><ele>22.8</ele><time>2026-04-05T07:59:05.998Z</time></trkpt><trkpt lat="43.68308086783424" lon="10.649968036130389"><ele>24.400000000000002</ele><time>2026-04-05T07:59:07.998Z</time></trkpt><trkpt lat="43.6830437802964" lon="10.649896310898995"><ele>26.0</ele><time>2026-04-05T07:59:08.998Z</time></trkpt><trkpt lat="43.68296974169613" lon="10.649758604466504"><ele>26.0</ele><time>2026-04-05T07:59:10.998Z</time></trkpt><trkpt lat="43.68289728723712" lon="10.649620017509463"><ele>26.0</ele><time>2026-04-05T07:59:12.998Z</time></trkpt><trkpt lat="43.68281706271656" lon="10.649484583109176"><ele>26.0</ele><time>2026-04-05T07:59:14.998Z</time></trkpt><trkpt lat="43.6827361749442" lon="10.649350573630263"><ele>26.0</ele><time>2026-04-05T07:59:16.998Z</time></trkpt><trkpt lat="43.68265110876247" lon="10.649227004476087"><ele>25.0</ele><time>2026-04-05T07:59:18.998Z</time></trkpt><trkpt lat="43.68260600223446" lon="10.649163243218375"><ele>24.0</ele><time>2026-04-05T07:59:19.998Z</time></trkpt><trkpt lat="43.68251815848445" lon="10.649041016830559"><ele>23.0</ele><time>2026-04-05T07:59:21.998Z</time></trkpt><trkpt lat="43.68243373708816" lon="10.64891478150633"><ele>22.0</ele><time>2026-04-05T07:59:23.998Z</time></trkpt><trkpt lat="43.682385544994546" lon="10.64885857843191"><ele>21.0</ele><time>2026-04-05T07:59:24.998Z</time></trkpt><trkpt lat="43.682289657514865" lon="10.648745789818483"><ele>21.0</ele><time>2026-04-05T07:59:26.998Z</time></trkpt><trkpt lat="43.68219513091478" lon="10.648634829680482"><ele>21.0</ele><time>2026-04-05T07:59:28.998Z</time></trkpt><trkpt lat="43.682101933000496" lon="10.648526149878773"><ele>21.0</ele><time>2026-04-05T07:59:30.998Z</time></trkpt><trkpt lat="43.68200813995813" lon="10.64841843217951"><ele>21.0</ele><time>2026-04-05T07:59:32.998Z</time></trkpt><trkpt lat="43.681916341998864" lon="10.648308059434452"><ele>19.75</ele><time>2026-04-05T07:59:34.998Z</time></trkpt><trkpt lat="43.68182366382127" lon="10.648194460246645"><ele>18.5</ele><time>2026-04-05T07:59:36.998Z</time></trkpt><trkpt lat="43.68172890377341" lon="10.648085923272765"><ele>17.25</ele><time>2026-04-05T07:59:38.998Z</time></trkpt><trkpt lat="43.68163591957505" lon="10.64797826516832"><ele>16.0</ele><time>2026-04-05T07:59:40.998Z</time></trkpt><trkpt lat="43.68157329888153" lon="10.647836971957897"><ele>18.5</ele><time>2026-04-05T07:59:42.998Z</time></trkpt><trkpt lat="43.68153327596464" lon="10.647675011178306"><ele>21.0</ele><time>2026-04-05T07:59:44.998Z</time></trkpt><trkpt lat="43.681510309372136" lon="10.647504904043181"><ele>23.5</ele><time>2026-04-05T07:59:46.998Z</time></trkpt><trkpt lat="43.68149547959135" lon="10.647417423825834"><ele>26.0</ele><time>2026-04-05T07:59:47.998Z</time></trkpt><trkpt lat="43.68148553977379" lon="10.647329154101442"><ele>28.500000000000004</ele><time>2026-04-05T07:59:48.998Z</time></trkpt><trkpt lat="43.681471574645826" lon="10.647242744614424"><ele>31.0</ele><time>2026-04-05T07:59:49.998Z</time></trkpt><trkpt lat="43.6814548817998" lon="10.647081985802394"><ele>32.6</ele><time>2026-04-05T07:59:51.998Z</time></trkpt><trkpt lat="43.68142705491586" lon="10.646928614846928"><ele>34.2</ele><time>2026-04-05T07:59:53.997Z</time></trkpt><trkpt lat="43.68140237841815" lon="10.646783765326656"><ele>35.8</ele><time>2026-04-05T07:59:56Z</time></trkpt><trkpt lat="43.68138213911506" lon="10.646646112201411"><ele>37.4</ele><time>2026-04-05T07:59:58Z</time></trkpt><trkpt lat="43.68136305377428" lon="10.646517946997912"><ele>39.0</ele><time>2026-04-05T08:00:00Z</time></trkpt><trkpt lat="43.68134633007962" lon="10.646387383565315"><ele>39.0</ele><time>2026-04-05T08:00:02Z</time></trkpt><trkpt lat="43.68132567610455" lon="10.64624923823677"><ele>39.0</ele><time>2026-04-05T08:00:04Z</time></trkpt><trkpt lat="43.681302740138314" lon="10.64610972427485"><ele>39.0</ele><time>2026-04-05T08:00:06Z</time></trkpt><trkpt lat="43.68128309747503" lon="10.64596576617692"><ele>39.0</ele><time>2026-04-05T08:00:08Z</time></trkpt><trkpt lat="43.68125800964643" lon="10.645804939115322"><ele>39.0</ele><time>2026-04-05T08:00:10Z</time></trkpt><trkpt lat="43.68122570787872" lon="10.645640878360915"><ele>40.285714285714285</ele><time>2026-04-05T08:00:12Z</time></trkpt><trkpt lat="43.681207258437226" lon="10.645556015457913"><ele>41.57142857142857</ele><time>2026-04-05T08:00:13Z</time></trkpt><trkpt lat="43.68120784984194" lon="10.645465183816501"><ele>42.857142857142854</ele><time>2026-04-05T08:00:14Z</time></trkpt><trkpt lat="43.68119506179818" lon="10.645377070548903"><ele>44.14285714285714</ele><time>2026-04-05T08:00:15Z</time></trkpt><trkpt lat="43.68116954365876" lon="10.64529198605697"><ele>45.42857142857143</ele><time>2026-04-05T08:00:16Z</time></trkpt><trkpt lat="43.68115185478557" lon="10.645200472866955"><ele>46.71428571428571</ele><time>2026-04-05T08:00:17Z</time></trkpt><trkpt lat="43.68113839191094" lon="10.645109954332911"><ele>48.0</ele><time>2026-04-05T08:00:18Z</time></trkpt><trkpt lat="43.681123542199956" lon="10.645016482409522"><ele>48.14285714285714</ele><time>2026-04-05T08:00:19Z</time></trkpt><trkpt lat="43.6811024937297" lon="10.644922922770053"><ele>48.285714285714285</ele><time>2026-04-05T08:00:20Z</time></trkpt><trkpt lat="43.68108181566964" lon="10.644839069245347"><ele>48.42857142857143</ele><time>2026-04-05T08:00:21Z</time></trkpt><trkpt lat="43.68105331327058" lon="10.6447570154832"><ele>48.57142857142857</ele><time>2026-04-05T08:00:22Z</time></trkpt><trkpt lat="43.681032501152885" lon="10.64467091453372"><ele>48.714285714285715</ele><time>2026-04-05T08:00:23Z</time></trkpt><trkpt lat="43.68101637743137" lon="10.64458443784323"><ele>48.857142857142854</ele><time>2026-04-05T08:00:24Z</time></trkpt><trkpt lat="43.68098151490873" lon="10.644507378224429"><ele>49.0</ele><time>2026-04-05T08:00:25Z</time></trkpt><trkpt lat="43.680942455479865" lon="10.644438649143991"><ele>45.0</ele><time>2026-04-05T08:00:26Z</time></trkpt><trkpt lat="43.68090783408514" lon="10.644365521683309"><ele>41.0</ele><time>2026-04-05T08:00:27Z</time></trkpt><trkpt lat="43.68085355476642" lon="10.644223866330213"><ele>37.0</ele><time>2026-04-05T08:00:29Z</time></trkpt><trkpt lat="43.68079453664562" lon="10.644084067849088"><ele>33.0</ele><time>2026-04-05T08:00:31Z</time></trkpt><trkpt lat="43.68073562531953" lon="10.643949416233843"><ele>29.0</ele><time>2026-04-05T08:00:32.999Z</time></trkpt><trkpt lat="43.68068234842833" lon="10.643809313275737"><ele>29.0</ele><time>2026-04-05T08:00:34.999Z</time></trkpt><trkpt lat="43.68062829349269" lon="10.643683831450307"><ele>29.0</ele><time>2026-04-05T08:00:36.999Z</time></trkpt><trkpt lat="43.6805687352814" lon="10.643557913807213"><ele>29.0</ele><time>2026-04-05T08:00:38.999Z</time></trkpt><trkpt lat="43.68050396211003" lon="10.64343855652015"><ele>29.0</ele><time>2026-04-05T08:00:40.999Z</time></trkpt><trkpt lat="43.68043674320016" lon="10.643322363094581"><ele>29.0</ele><time>2026-04-05T08:00:42.999Z</time></trkpt><trkpt lat="43.680374186452326" lon="10.643203924091047"><ele>30.0</ele><time>2026-04-05T08:00:44.999Z</time></trkpt><trkpt lat="43.68030215030173" lon="10.643090099357442"><ele>31.0</ele><time>2026-04-05T08:00:46.999Z</time></trkpt><trkpt lat="43.68022125195634" lon="10.642979847152304"><ele>32.0</ele><time>2026-04-05T08:00:48.999Z</time></trkpt><trkpt lat="43.680147899226725" lon="10.64286297340271"><ele>33.0</ele><time>2026-04-05T08:00:50.999Z</time></trkpt><trkpt lat="43.680083260459455" lon="10.642729975270003"><ele>33.5</ele><time>2026-04-05T08:00:52.999Z</time></trkpt><trkpt lat="43.680006540452005" lon="10.642608081224763"><ele>34.0</ele><time>2026-04-05T08:00:54.999Z</time></trkpt><trkpt lat="43.67992759241593" lon="10.6424808317006"><ele>34.5</ele><time>2026-04-05T08:00:56.999Z</time></trkpt><trkpt lat="43.67984569567753" lon="10.642351940585696"><ele>35.0</ele><time>2026-04-05T08:00:58.999Z</time></trkpt><trkpt lat="43.67976433968714" lon="10.64222308955013"><ele>35.0</ele><time>2026-04-05T08:01:00.999Z</time></trkpt><trkpt lat="43.67968272397724" lon="10.64209400832206"><ele>35.0</ele><time>2026-04-05T08:01:02.999Z</time></trkpt><trkpt lat="43.679599393718604" lon="10.641959361863865"><ele>35.0</ele><time>2026-04-05T08:01:04.999Z</time></trkpt><trkpt lat="43.679556214318914" lon="10.641891340227998"><ele>35.0</ele><time>2026-04-05T08:01:05.999Z</time></trkpt><trkpt lat="43.679514851746866" lon="10.641821334826997"><ele>35.0</ele><time>2026-04-05T08:01:06.999Z</time></trkpt><trkpt lat="43.67947266293576" lon="10.641752055047185"><ele>35.0</ele><time>2026-04-05T08:01:07.999Z</time></trkpt><trkpt lat="43.67943115637023" lon="10.641684324565606"><ele>35.4</ele><time>2026-04-05T08:01:08.999Z</time></trkpt><trkpt lat="43.679390682535605" lon="10.64161757380433"><ele>35.8</ele><time>2026-04-05T08:01:09.999Z</time></trkpt><trkpt lat="43.67931270344205" lon="10.641492560198103"><ele>36.2</ele><time>2026-04-05T08:01:11.999Z</time></trkpt><trkpt lat="43.67923487903263" lon="10.641371505114384"><ele>36.6</ele><time>2026-04-05T08:01:13.999Z</time></trkpt><trkpt lat="43.67915628026842" lon="10.641242184737711"><ele>37.0</ele><time>2026-04-05T08:01:15.999Z</time></trkpt><trkpt lat="43.67907624571776" lon="10.641112033550327"><ele>37.0</ele><time>2026-04-05T08:01:17.999Z</time></trkpt><trkpt lat="43.67900035710416" lon="10.640977150707075"><ele>37.0</ele><time>2026-04-05T08:01:19.999Z</time></trkpt><trkpt lat="43.67895915473155" lon="10.640910886812822"><ele>37.0</ele><time>2026-04-05T08:01:20.999Z</time></trkpt><trkpt lat="43.67888688580704" lon="10.640778543017072"><ele>37.0</ele><time>2026-04-05T08:01:22.998Z</time></trkpt><trkpt lat="43.67881480484105" lon="10.640665465394557"><ele>37.0</ele><time>2026-04-05T08:01:24.998Z</time></trkpt><trkpt lat="43.678746716524934" lon="10.640547343686066"><ele>37.0</ele><time>2026-04-05T08:01:26.998Z</time></trkpt><trkpt lat="43.67869123424432" lon="10.640434369034306"><ele>37.0</ele><time>2026-04-05T08:01:28.998Z</time></trkpt><trkpt lat="43.678632068689325" lon="10.640335855393246"><ele>37.0</ele><time>2026-04-05T08:01:30.998Z</time></trkpt><trkpt lat="43.67858185503924" lon="10.640247816627346"><ele>37.0</ele><time>2026-04-05T08:01:32.998Z</time></trkpt><trkpt lat="43.67852104877986" lon="10.6401859707108"><ele>37.0</ele><time>2026-04-05T08:01:34.998Z</time></trkpt><trkpt lat="43.678445826735505" lon="10.64019552312487"><ele>37.0</ele><time>2026-04-05T08:01:36.998Z</time></trkpt><trkpt lat="43.67855698657429" lon="10.6401175061174"><ele>32.333333333333336</ele><time>2026-04-05T08:01:37.998Z</time></trkpt><trkpt lat="43.67842732515945" lon="10.64015224005986"><ele>27.666666666666668</ele><time>2026-04-05T08:01:56.998Z</time></trkpt><trkpt lat="43.67858441722131" lon="10.640126823619322"><ele>23.0</ele><time>2026-04-05T08:02:17Z</time></trkpt><trkpt lat="43.678410999627054" lon="10.640151580176504"><ele>23.0</ele><time>2026-04-05T08:02:49.999Z</time></trkpt><trkpt lat="43.67856773848935" lon="10.640093161476921"><ele>23.0</ele><time>2026-04-05T08:02:53.999Z</time></trkpt><trkpt lat="43.67841457907444" lon="10.640160710251147"><ele>23.0</ele><time>2026-04-05T08:02:56.999Z</time></trkpt><trkpt lat="43.67856888899153" lon="10.640098587307556"><ele>23.0</ele><time>2026-04-05T08:02:58.999Z</time></trkpt><trkpt lat="43.678417543831664" lon="10.6401644329358"><ele>23.0</ele><time>2026-04-05T08:03:01.999Z</time></trkpt><trkpt lat="43.67856930447567" lon="10.640100546790423"><ele>23.0</ele><time>2026-04-05T08:03:03.999Z</time></trkpt><trkpt lat="43.678413196658234" lon="10.64016214206424"><ele>23.0</ele><time>2026-04-05T08:03:06.999Z</time></trkpt><trkpt lat="43.678585158314405" lon="10.64014372075947"><ele>23.0</ele><time>2026-04-05T08:03:08.999Z</time></trkpt><trkpt lat="43.67840628645264" lon="10.640152564322197"><ele>23.0</ele><time>2026-04-05T08:03:13.999Z</time></trkpt><trkpt lat="43.67858491928044" lon="10.64013827088509"><ele>23.0</ele><time>2026-04-05T08:03:17.999Z</time></trkpt><trkpt lat="43.678398900398825" lon="10.64015473587136"><ele>23.0</ele><time>2026-04-05T08:03:22.999Z</time></trkpt><trkpt lat="43.67858511377479" lon="10.640142705256586"><ele>23.0</ele><time>2026-04-05T08:03:32.998Z</time></trkpt><trkpt lat="43.67839486711451" lon="10.640157795725228"><ele>23.0</ele><time>2026-04-05T08:03:36.998Z</time></trkpt><trkpt lat="43.67856720041746" lon="10.640090623929185"><ele>23.0</ele><time>2026-04-05T08:03:40.998Z</time></trkpt><trkpt lat="43.67840207790038" lon="10.640161534265333"><ele>23.0</ele><time>2026-04-05T08:03:46.998Z</time></trkpt><trkpt lat="43.67856728957512" lon="10.640091043910218"><ele>23.0</ele><time>2026-04-05T08:04:02.998Z</time></trkpt><trkpt lat="43.67838378489265" lon="10.640162075587694"><ele>23.0</ele><time>2026-04-05T08:04:03.998Z</time></trkpt><trkpt lat="43.67858496036199" lon="10.640139207398203"><ele>23.0</ele><time>2026-04-05T08:04:20Z</time></trkpt><trkpt lat="43.67842234844919" lon="10.640145330329236"><ele>23.0</ele><time>2026-04-05T08:04:45.999Z</time></trkpt><trkpt lat="43.67856669046547" lon="10.640088218830066"><ele>23.0</ele><time>2026-04-05T08:04:49.999Z</time></trkpt><trkpt lat="43.678429622754294" lon="10.640146274437177"><ele>23.0</ele><time>2026-04-05T08:04:51.999Z</time></trkpt><trkpt lat="43.6785659939323" lon="10.640084934037672"><ele>23.0</ele><time>2026-04-05T08:05:08.999Z</time></trkpt><trkpt lat="43.678420055508894" lon="10.640130072921712"><ele>23.0</ele><time>2026-04-05T08:05:33.998Z</time></trkpt><trkpt lat="43.678394446614874" lon="10.640042759865612"><ele>23.0</ele><time>2026-04-05T08:05:37.998Z</time></trkpt><trkpt lat="43.67845403329039" lon="10.639951266752266"><ele>23.0</ele><time>2026-04-05T08:05:40.998Z</time></trkpt><trkpt lat="43.67849641790097" lon="10.639870767154077"><ele>23.0</ele><time>2026-04-05T08:05:42.998Z</time></trkpt><trkpt lat="43.678542910803" lon="10.6397772281951"><ele>23.0</ele><time>2026-04-05T08:05:44.998Z</time></trkpt><trkpt lat="43.67861866534889" lon="10.639728404398708"><ele>23.0</ele><time>2026-04-05T08:05:46.998Z</time></trkpt><trkpt lat="43.678674965892704" lon="10.639660331357181"><ele>25.4</ele><time>2026-04-05T08:05:48.998Z</time></trkpt><trkpt lat="43.67871541736489" lon="10.639568593696337"><ele>27.799999999999997</ele><time>2026-04-05T08:05:50.998Z</time></trkpt><trkpt lat="43.6787491439391" lon="10.639433923958135"><ele>30.2</ele><time>2026-04-05T08:05:52.998Z</time></trkpt><trkpt lat="43.67878953597335" lon="10.639309044016597"><ele>32.6</ele><time>2026-04-05T08:05:54.998Z</time></trkpt><trkpt lat="43.67883255143611" lon="10.639174189264642"><ele>35.0</ele><time>2026-04-05T08:05:56.998Z</time></trkpt><trkpt lat="43.67887394124573" lon="10.639026691773129"><ele>35.0</ele><time>2026-04-05T08:05:58.998Z</time></trkpt><trkpt lat="43.67892203329709" lon="10.638877552933709"><ele>35.0</ele><time>2026-04-05T08:06:00.998Z</time></trkpt><trkpt lat="43.678940253221384" lon="10.638792989312195"><ele>35.0</ele><time>2026-04-05T08:06:01.998Z</time></trkpt><trkpt lat="43.678985925714755" lon="10.63864253111901"><ele>35.0</ele><time>2026-04-05T08:06:03.998Z</time></trkpt><trkpt lat="43.6790309108438" lon="10.63849541526023"><ele>35.0</ele><time>2026-04-05T08:06:05.998Z</time></trkpt><trkpt lat="43.679072306834456" lon="10.638346649547428"><ele>33.0</ele><time>2026-04-05T08:06:07.998Z</time></trkpt><trkpt lat="43.67912198647002" lon="10.638201252701439"><ele>31.0</ele><time>2026-04-05T08:06:09.998Z</time></trkpt><trkpt lat="43.67916842378002" lon="10.638046801190475"><ele>29.0</ele><time>2026-04-05T08:06:11.998Z</time></trkpt><trkpt lat="43.679217599691306" lon="10.637886006356187"><ele>27.0</ele><time>2026-04-05T08:06:13.999Z</time></trkpt><trkpt lat="43.67926613852921" lon="10.637721134544307"><ele>26.857142857142858</ele><time>2026-04-05T08:06:15.999Z</time></trkpt><trkpt lat="43.679289097346185" lon="10.637639407310349"><ele>26.714285714285715</ele><time>2026-04-05T08:06:16.999Z</time></trkpt><trkpt lat="43.67931694605252" lon="10.637557932956682"><ele>26.57142857142857</ele><time>2026-04-05T08:06:17.999Z</time></trkpt><trkpt lat="43.679343829381835" lon="10.637471559624514"><ele>26.42857142857143</ele><time>2026-04-05T08:06:18.999Z</time></trkpt><trkpt lat="43.67936958978975" lon="10.637387816625743"><ele>26.28571428571429</ele><time>2026-04-05T08:06:19.999Z</time></trkpt><trkpt lat="43.6793939721518" lon="10.637302237928855"><ele>26.142857142857142</ele><time>2026-04-05T08:06:20.999Z</time></trkpt><trkpt lat="43.67941742938443" lon="10.637215477866437"><ele>26.0</ele><time>2026-04-05T08:06:21.999Z</time></trkpt><trkpt lat="43.67943449215204" lon="10.637126914425604"><ele>25.71428571428571</ele><time>2026-04-05T08:06:22.999Z</time></trkpt><trkpt lat="43.679446741391196" lon="10.637033239937757"><ele>25.42857142857143</ele><time>2026-04-05T08:06:23.999Z</time></trkpt><trkpt lat="43.679451151736764" lon="10.636938658577707"><ele>25.142857142857142</ele><time>2026-04-05T08:06:24.999Z</time></trkpt><trkpt lat="43.67944709294611" lon="10.636845057224933"><ele>24.857142857142854</ele><time>2026-04-05T08:06:25.999Z</time></trkpt><trkpt lat="43.679440664857594" lon="10.636744146732061"><ele>24.57142857142857</ele><time>2026-04-05T08:06:26.999Z</time></trkpt><trkpt lat="43.679435024851806" lon="10.636644118270455"><ele>24.285714285714285</ele><time>2026-04-05T08:06:27.999Z</time></trkpt><trkpt lat="43.679425437792524" lon="10.636546335630372"><ele>24.0</ele><time>2026-04-05T08:06:28.999Z</time></trkpt><trkpt lat="43.67941460542202" lon="10.636442713299216"><ele>23.999999999999996</ele><time>2026-04-05T08:06:29.999Z</time></trkpt><trkpt lat="43.67941005793483" lon="10.63634314931871"><ele>24.0</ele><time>2026-04-05T08:06:30.999Z</time></trkpt><trkpt lat="43.67940377243751" lon="10.636241581854907"><ele>24.0</ele><time>2026-04-05T08:06:31.999Z</time></trkpt><trkpt lat="43.679399424349356" lon="10.63613805171191"><ele>24.0</ele><time>2026-04-05T08:06:32.999Z</time></trkpt><trkpt lat="43.679393995412525" lon="10.636035875042607"><ele>24.0</ele><time>2026-04-05T08:06:33.999Z</time></trkpt><trkpt lat="43.67938526945724" lon="10.63593473927532"><ele>23.999999999999996</ele><time>2026-04-05T08:06:34.999Z</time></trkpt><trkpt lat="43.67937966665079" lon="10.635834109888858"><ele>24.0</ele><time>2026-04-05T08:06:35.999Z</time></trkpt><trkpt lat="43.67937294522258" lon="10.635737748042711"><ele>23.5</ele><time>2026-04-05T08:06:36.999Z</time></trkpt><trkpt lat="43.67936876115708" lon="10.635638177076723"><ele>23.0</ele><time>2026-04-05T08:06:37.999Z</time></trkpt><trkpt lat="43.67936179019838" lon="10.635540598782953"><ele>22.5</ele><time>2026-04-05T08:06:38.999Z</time></trkpt><trkpt lat="43.67935606273423" lon="10.635437548635455"><ele>22.0</ele><time>2026-04-05T08:06:39.999Z</time></trkpt><trkpt lat="43.67934898709683" lon="10.63532847570891"><ele>21.5</ele><time>2026-04-05T08:06:40.999Z</time></trkpt><trkpt lat="43.67934307661478" lon="10.635222589346105"><ele>21.0</ele><time>2026-04-05T08:06:41.999Z</time></trkpt><trkpt lat="43.679336262143664" lon="10.635117772385767"><ele>20.5</ele><time>2026-04-05T08:06:42.999Z</time></trkpt><trkpt lat="43.679329555578654" lon="10.63501276579268"><ele>20.0</ele><time>2026-04-05T08:06:43.999Z</time></trkpt><trkpt lat="43.67932019019112" lon="10.634907353095864"><ele>19.5</ele><time>2026-04-05T08:06:44.999Z</time></trkpt><trkpt lat="43.679312478358916" lon="10.634799683915046"><ele>19.0</ele><time>2026-04-05T08:06:45.999Z</time></trkpt><trkpt lat="43.679303496397125" lon="10.63469702453645"><ele>18.5</ele><time>2026-04-05T08:06:46.999Z</time></trkpt><trkpt lat="43.67929706971475" lon="10.634594151346612"><ele>18.0</ele><time>2026-04-05T08:06:47.999Z</time></trkpt><trkpt lat="43.679288562082206" lon="10.634490560944357"><ele>17.833333333333332</ele><time>2026-04-05T08:06:48.999Z</time></trkpt><trkpt lat="43.67928106039601" lon="10.634387017013827"><ele>17.666666666666668</ele><time>2026-04-05T08:06:49.999Z</time></trkpt><trkpt lat="43.67927256058124" lon="10.634285550320923"><ele>17.5</ele><time>2026-04-05T08:06:50.999Z</time></trkpt><trkpt lat="43.67926724532957" lon="10.634186947711358"><ele>17.333333333333336</ele><time>2026-04-05T08:06:51.999Z</time></trkpt><trkpt lat="43.67925731497115" lon="10.634080606829425"><ele>17.166666666666668</ele><time>2026-04-05T08:06:52.999Z</time></trkpt><trkpt lat="43.6792492219747" lon="10.633970268645623"><ele>17.0</ele><time>2026-04-05T08:06:53.999Z</time></trkpt><trkpt lat="43.67924247364406" lon="10.633868946541531"><ele>16.999999999999996</ele><time>2026-04-05T08:06:54.999Z</time></trkpt><trkpt lat="43.67923804575382" lon="10.633766233926208"><ele>17.0</ele><time>2026-04-05T08:06:55.999Z</time></trkpt><trkpt lat="43.67923625274164" lon="10.633663272609892"><ele>17.0</ele><time>2026-04-05T08:06:56.999Z</time></trkpt><trkpt lat="43.679230503649634" lon="10.63355637954665"><ele>17.0</ele><time>2026-04-05T08:06:57.999Z</time></trkpt><trkpt lat="43.67922950126303" lon="10.63345721032872"><ele>17.0</ele><time>2026-04-05T08:06:58.999Z</time></trkpt><trkpt lat="43.6792306752144" lon="10.633358411446991"><ele>16.999999999999996</ele><time>2026-04-05T08:06:59.999Z</time></trkpt><trkpt lat="43.67923200262916" lon="10.63325832386873"><ele>17.0</ele><time>2026-04-05T08:07:00.999Z</time></trkpt><trkpt lat="43.679239737296086" lon="10.633162473760379"><ele>16.857142857142854</ele><time>2026-04-05T08:07:01.999Z</time></trkpt><trkpt lat="43.679247554790585" lon="10.633066841993616"><ele>16.714285714285715</ele><time>2026-04-05T08:07:02.999Z</time></trkpt><trkpt lat="43.67926024262237" lon="10.632975702717264"><ele>16.57142857142857</ele><time>2026-04-05T08:07:03.999Z</time></trkpt><trkpt lat="43.6792958247018" lon="10.632891601330488"><ele>16.428571428571427</ele><time>2026-04-05T08:07:04.999Z</time></trkpt><trkpt lat="43.6793448731146" lon="10.632829478000186"><ele>16.285714285714285</ele><time>2026-04-05T08:07:05.999Z</time></trkpt><trkpt lat="43.67938893043056" lon="10.632761136193977"><ele>16.142857142857142</ele><time>2026-04-05T08:07:06.999Z</time></trkpt><trkpt lat="43.67941487474327" lon="10.632672518450942"><ele>16.0</ele><time>2026-04-05T08:07:07.999Z</time></trkpt><trkpt lat="43.67942914329961" lon="10.632585781724716"><ele>15.833333333333332</ele><time>2026-04-05T08:07:08.999Z</time></trkpt><trkpt lat="43.679449622391346" lon="10.632500757728762"><ele>15.666666666666666</ele><time>2026-04-05T08:07:09.999Z</time></trkpt><trkpt lat="43.67942862695929" lon="10.632416748129138"><ele>15.5</ele><time>2026-04-05T08:07:10.999Z</time></trkpt><trkpt lat="43.67953611133325" lon="10.632250488959746"><ele>15.333333333333332</ele><time>2026-04-05T08:07:12.999Z</time></trkpt><trkpt lat="43.679583805712845" lon="10.632174340677661"><ele>15.166666666666666</ele><time>2026-04-05T08:07:13.999Z</time></trkpt><trkpt lat="43.67962905329119" lon="10.632095525779754"><ele>15.0</ele><time>2026-04-05T08:07:14.999Z</time></trkpt><trkpt lat="43.67967155393773" lon="10.632019258753072"><ele>14.0</ele><time>2026-04-05T08:07:15.999Z</time></trkpt><trkpt lat="43.67971188650298" lon="10.631941431444842"><ele>13.0</ele><time>2026-04-05T08:07:16.999Z</time></trkpt><trkpt lat="43.67975002044692" lon="10.631862986178087"><ele>12.0</ele><time>2026-04-05T08:07:17.999Z</time></trkpt><trkpt lat="43.6797926323711" lon="10.631789500433058"><ele>11.0</ele><time>2026-04-05T08:07:18.999Z</time></trkpt><trkpt lat="43.67983328305154" lon="10.631715925867459"><ele>10.0</ele><time>2026-04-05T08:07:19.999Z</time></trkpt><trkpt lat="43.67987334367143" lon="10.631642470912436"><ele>9.0</ele><time>2026-04-05T08:07:20.999Z</time></trkpt><trkpt lat="43.67991381508711" lon="10.631567882701113"><ele>8.0</ele><time>2026-04-05T08:07:21.999Z</time></trkpt><trkpt lat="43.679952918785226" lon="10.63149501873372"><ele>8.0</ele><time>2026-04-05T08:07:22.999Z</time></trkpt><trkpt lat="43.6799925021898" lon="10.631421825534007"><ele>7.999999999999999</ele><time>2026-04-05T08:07:23.999Z</time></trkpt><trkpt lat="43.68003209933943" lon="10.631346472909831"><ele>8.0</ele><time>2026-04-05T08:07:24.999Z</time></trkpt><trkpt lat="43.68007211069877" lon="10.631273052199301"><ele>8.0</ele><time>2026-04-05T08:07:25.999Z</time></trkpt><trkpt lat="43.68011140107895" lon="10.631204140199372"><ele>7.999999999999999</ele><time>2026-04-05T08:07:26.999Z</time></trkpt><trkpt lat="43.68015044933173" lon="10.631130496580203"><ele>8.0</ele><time>2026-04-05T08:07:27.999Z</time></trkpt><trkpt lat="43.68018827522885" lon="10.631055718527037"><ele>8.0</ele><time>2026-04-05T08:07:28.998Z</time></trkpt><trkpt lat="43.680226810459935" lon="10.630982570111467"><ele>9.142857142857142</ele><time>2026-04-05T08:07:29.998Z</time></trkpt><trkpt lat="43.68026850414599" lon="10.63091058374141"><ele>10.285714285714285</ele><time>2026-04-05T08:07:30.998Z</time></trkpt><trkpt lat="43.680307013886356" lon="10.63083232406241"><ele>11.428571428571427</ele><time>2026-04-05T08:07:31.998Z</time></trkpt><trkpt lat="43.68034804116103" lon="10.630758639614395"><ele>12.571428571428571</ele><time>2026-04-05T08:07:32.998Z</time></trkpt><trkpt lat="43.68038804202797" lon="10.630680969813177"><ele>13.714285714285712</ele><time>2026-04-05T08:07:33.998Z</time></trkpt><trkpt lat="43.68043042072366" lon="10.630603730085195"><ele>14.857142857142856</ele><time>2026-04-05T08:07:34.998Z</time></trkpt><trkpt lat="43.68047328854001" lon="10.63052830160505"><ele>16.0</ele><time>2026-04-05T08:07:35.998Z</time></trkpt><trkpt lat="43.680514288011494" lon="10.63045199805902"><ele>16.0</ele><time>2026-04-05T08:07:36.998Z</time></trkpt><trkpt lat="43.68055392673008" lon="10.630375689670302"><ele>15.999999999999998</ele><time>2026-04-05T08:07:37.998Z</time></trkpt><trkpt lat="43.680592602991354" lon="10.630295780974116"><ele>16.0</ele><time>2026-04-05T08:07:38.998Z</time></trkpt><trkpt lat="43.6806337803381" lon="10.630220358121464"><ele>16.0</ele><time>2026-04-05T08:07:39.998Z</time></trkpt><trkpt lat="43.680674432359545" lon="10.630146637043017"><ele>15.999999999999998</ele><time>2026-04-05T08:07:40.998Z</time></trkpt><trkpt lat="43.68071617841775" lon="10.630081209033538"><ele>16.0</ele><time>2026-04-05T08:07:41.998Z</time></trkpt><trkpt lat="43.68075366865806" lon="10.63000391363942"><ele>16.0</ele><time>2026-04-05T08:07:42.998Z</time></trkpt><trkpt lat="43.680794658166235" lon="10.629930031413513"><ele>16.0</ele><time>2026-04-05T08:07:43.998Z</time></trkpt><trkpt lat="43.68083648813534" lon="10.629851887132086"><ele>15.999999999999998</ele><time>2026-04-05T08:07:44.998Z</time></trkpt><trkpt lat="43.68087300695139" lon="10.629772642766017"><ele>16.0</ele><time>2026-04-05T08:07:45.998Z</time></trkpt><trkpt lat="43.680912145925305" lon="10.629695313764804"><ele>16.0</ele><time>2026-04-05T08:07:46.998Z</time></trkpt><trkpt lat="43.680951864888584" lon="10.62962309823259"><ele>15.999999999999998</ele><time>2026-04-05T08:07:47.998Z</time></trkpt><trkpt lat="43.68099047437689" lon="10.62955199614448"><ele>16.0</ele><time>2026-04-05T08:07:48.998Z</time></trkpt><trkpt lat="43.68103276225172" lon="10.629477265714623"><ele>16.0</ele><time>2026-04-05T08:07:49.998Z</time></trkpt><trkpt lat="43.68107236853933" lon="10.629399570967784"><ele>15.857142857142856</ele><time>2026-04-05T08:07:50.998Z</time></trkpt><trkpt lat="43.681114919714496" lon="10.629321283823169"><ele>15.714285714285712</ele><time>2026-04-05T08:07:51.998Z</time></trkpt><trkpt lat="43.68115639326961" lon="10.629246246268867"><ele>15.571428571428571</ele><time>2026-04-05T08:07:52.998Z</time></trkpt><trkpt lat="43.68119760193144" lon="10.629169881341639"><ele>15.428571428571427</ele><time>2026-04-05T08:07:53.998Z</time></trkpt><trkpt lat="43.68123376879943" lon="10.629085590495201"><ele>15.285714285714285</ele><time>2026-04-05T08:07:54.998Z</time></trkpt><trkpt lat="43.68127647073871" lon="10.629020745884787"><ele>15.142857142857142</ele><time>2026-04-05T08:07:55.998Z</time></trkpt><trkpt lat="43.681317759621464" lon="10.628942450589301"><ele>15.0</ele><time>2026-04-05T08:07:56.998Z</time></trkpt><trkpt lat="43.68135623444941" lon="10.628867523129491"><ele>15.0</ele><time>2026-04-05T08:07:57.998Z</time></trkpt><trkpt lat="43.6813949106293" lon="10.628789572683369"><ele>15.0</ele><time>2026-04-05T08:07:58.998Z</time></trkpt><trkpt lat="43.68143779658693" lon="10.628713979838238"><ele>15.0</ele><time>2026-04-05T08:07:59.998Z</time></trkpt><trkpt lat="43.6814803777848" lon="10.62864234760821"><ele>15.0</ele><time>2026-04-05T08:08:00.998Z</time></trkpt><trkpt lat="43.68151823413875" lon="10.62856809615232"><ele>15.0</ele><time>2026-04-05T08:08:01.998Z</time></trkpt><trkpt lat="43.681558421419396" lon="10.628496538320386"><ele>15.0</ele><time>2026-04-05T08:08:02.998Z</time></trkpt><trkpt lat="43.681598237436766" lon="10.628422213165"><ele>15.0</ele><time>2026-04-05T08:08:03.998Z</time></trkpt><trkpt lat="43.681634558986495" lon="10.628349266363005"><ele>15.6</ele><time>2026-04-05T08:08:04.998Z</time></trkpt><trkpt lat="43.681712469473176" lon="10.628215009254747"><ele>16.2</ele><time>2026-04-05T08:08:06.998Z</time></trkpt><trkpt lat="43.68178340239841" lon="10.628080091051434"><ele>16.8</ele><time>2026-04-05T08:08:08.998Z</time></trkpt><trkpt lat="43.681821459169655" lon="10.628009636260911"><ele>17.4</ele><time>2026-04-05T08:08:09.998Z</time></trkpt><trkpt lat="43.6818571259059" lon="10.627934096081672"><ele>18.0</ele><time>2026-04-05T08:08:10.998Z</time></trkpt><trkpt lat="43.6819326089503" lon="10.62780411284624"><ele>21.6</ele><time>2026-04-05T08:08:12.998Z</time></trkpt><trkpt lat="43.68200201846702" lon="10.627673515114767"><ele>25.200000000000003</ele><time>2026-04-05T08:08:14.998Z</time></trkpt><trkpt lat="43.682067009016976" lon="10.627553824842185"><ele>28.8</ele><time>2026-04-05T08:08:16.998Z</time></trkpt><trkpt lat="43.68212448988651" lon="10.627448020471782"><ele>32.4</ele><time>2026-04-05T08:08:18.999Z</time></trkpt><trkpt lat="43.682176979060515" lon="10.627346298672064"><ele>36.0</ele><time>2026-04-05T08:08:20.999Z</time></trkpt><trkpt lat="43.682225323473716" lon="10.627260656097556"><ele>36.00000000000001</ele><time>2026-04-05T08:08:22.999Z</time></trkpt><trkpt lat="43.68227149703021" lon="10.627174865953792"><ele>36.0</ele><time>2026-04-05T08:08:24.999Z</time></trkpt><trkpt lat="43.68230963427989" lon="10.627097263014255"><ele>36.0</ele><time>2026-04-05T08:08:26.999Z</time></trkpt><trkpt lat="43.682348498050345" lon="10.627027666425535"><ele>36.0</ele><time>2026-04-05T08:08:28.999Z</time></trkpt><trkpt lat="43.68239375102899" lon="10.626953419870265"><ele>36.0</ele><time>2026-04-05T08:08:30.999Z</time></trkpt><trkpt lat="43.68243273542527" lon="10.626880349775675"><ele>36.00000000000001</ele><time>2026-04-05T08:08:32.999Z</time></trkpt><trkpt lat="43.68247016325461" lon="10.626809977277453"><ele>36.0</ele><time>2026-04-05T08:08:34.999Z</time></trkpt><trkpt lat="43.68250951625888" lon="10.626740619318625"><ele>36.666666666666664</ele><time>2026-04-05T08:08:36.999Z</time></trkpt><trkpt lat="43.68256545596271" lon="10.626645046549463"><ele>37.333333333333336</ele><time>2026-04-05T08:08:39.999Z</time></trkpt><trkpt lat="43.682616431231246" lon="10.62654697550177"><ele>38.0</ele><time>2026-04-05T08:08:42.999Z</time></trkpt><trkpt lat="43.68266150031474" lon="10.626452342114858"><ele>38.66666666666667</ele><time>2026-04-05T08:08:45.999Z</time></trkpt><trkpt lat="43.6827148694036" lon="10.626361717863865"><ele>39.333333333333336</ele><time>2026-04-05T08:08:48.999Z</time></trkpt><trkpt lat="43.68277508905393" lon="10.62627037144343"><ele>40.0</ele><time>2026-04-05T08:08:51.999Z</time></trkpt><trkpt lat="43.682832916243115" lon="10.626168842543859"><ele>38.333333333333336</ele><time>2026-04-05T08:08:54.999Z</time></trkpt><trkpt lat="43.68287333609435" lon="10.626098215323609"><ele>36.66666666666667</ele><time>2026-04-05T08:08:56.999Z</time></trkpt><trkpt lat="43.68291824446871" lon="10.626022746573707"><ele>35.0</ele><time>2026-04-05T08:08:58.999Z</time></trkpt><trkpt lat="43.68296300395523" lon="10.62593705621221"><ele>33.333333333333336</ele><time>2026-04-05T08:09:00.999Z</time></trkpt><trkpt lat="43.68301311584026" lon="10.625856748150326"><ele>31.666666666666668</ele><time>2026-04-05T08:09:02.999Z</time></trkpt><trkpt lat="43.68306928667056" lon="10.62576606976807"><ele>30.0</ele><time>2026-04-05T08:09:04.999Z</time></trkpt><trkpt lat="43.683132015395586" lon="10.625678695262916"><ele>30.0</ele><time>2026-04-05T08:09:06.999Z</time></trkpt><trkpt lat="43.68319704968843" lon="10.625596974749218"><ele>30.0</ele><time>2026-04-05T08:09:08.999Z</time></trkpt><trkpt lat="43.683271349379005" lon="10.62551317121006"><ele>30.0</ele><time>2026-04-05T08:09:10.999Z</time></trkpt><trkpt lat="43.683352551913856" lon="10.625415131862841"><ele>30.0</ele><time>2026-04-05T08:09:12.999Z</time></trkpt><trkpt lat="43.68345692120319" lon="10.625337433282196"><ele>30.0</ele><time>2026-04-05T08:09:14.999Z</time></trkpt><trkpt lat="43.68351800001875" lon="10.62530513024767"><ele>29.142857142857142</ele><time>2026-04-05T08:09:15.999Z</time></trkpt><trkpt lat="43.68358336436519" lon="10.625291657595172"><ele>28.285714285714285</ele><time>2026-04-05T08:09:16.999Z</time></trkpt><trkpt lat="43.683648918873395" lon="10.625274399275693"><ele>27.428571428571427</ele><time>2026-04-05T08:09:17.999Z</time></trkpt><trkpt lat="43.68371043892916" lon="10.625227797323578"><ele>26.57142857142857</ele><time>2026-04-05T08:09:18.999Z</time></trkpt><trkpt lat="43.68376901536592" lon="10.625174674163123"><ele>25.714285714285715</ele><time>2026-04-05T08:09:19.999Z</time></trkpt><trkpt lat="43.683803795546" lon="10.62505276339895"><ele>24.857142857142854</ele><time>2026-04-05T08:09:20.999Z</time></trkpt><trkpt lat="43.68382204451563" lon="10.624942740496673"><ele>24.0</ele><time>2026-04-05T08:09:21.999Z</time></trkpt><trkpt lat="43.68380056603897" lon="10.624828326578239"><ele>23.166666666666668</ele><time>2026-04-05T08:09:22.999Z</time></trkpt><trkpt lat="43.68378723439749" lon="10.624721201416882"><ele>22.333333333333332</ele><time>2026-04-05T08:09:23.999Z</time></trkpt><trkpt lat="43.6837602803745" lon="10.624624252680407"><ele>21.5</ele><time>2026-04-05T08:09:24.999Z</time></trkpt><trkpt lat="43.68374882231073" lon="10.624520035330463"><ele>20.666666666666664</ele><time>2026-04-05T08:09:25.999Z</time></trkpt><trkpt lat="43.683753108057694" lon="10.62441635557065"><ele>19.833333333333332</ele><time>2026-04-05T08:09:26.999Z</time></trkpt><trkpt lat="43.68376483458905" lon="10.62431232056572"><ele>19.0</ele><time>2026-04-05T08:09:27.999Z</time></trkpt><trkpt lat="43.6837490528812" lon="10.624210600507771"><ele>18.333333333333332</ele><time>2026-04-05T08:09:28.999Z</time></trkpt><trkpt lat="43.68379997505951" lon="10.624105702225714"><ele>17.666666666666664</ele><time>2026-04-05T08:09:29.999Z</time></trkpt><trkpt lat="43.68382432997435" lon="10.624000949238987"><ele>17.0</ele><time>2026-04-05T08:09:30.999Z</time></trkpt><trkpt lat="43.68384873612606" lon="10.623893188579428"><ele>16.333333333333332</ele><time>2026-04-05T08:09:31.999Z</time></trkpt><trkpt lat="43.68387472209176" lon="10.623783584753369"><ele>15.666666666666666</ele><time>2026-04-05T08:09:32.999Z</time></trkpt><trkpt lat="43.68390149490761" lon="10.623672705850701"><ele>15.0</ele><time>2026-04-05T08:09:33.999Z</time></trkpt><trkpt lat="43.68393260917206" lon="10.62355805084261"><ele>14.8</ele><time>2026-04-05T08:09:34.999Z</time></trkpt><trkpt lat="43.683963661339355" lon="10.62344144505524"><ele>14.6</ele><time>2026-04-05T08:09:35.999Z</time></trkpt><trkpt lat="43.68399872717922" lon="10.623324740746142"><ele>14.399999999999999</ele><time>2026-04-05T08:09:36.999Z</time></trkpt><trkpt lat="43.68403993766416" lon="10.623205348547287"><ele>14.2</ele><time>2026-04-05T08:09:37.999Z</time></trkpt><trkpt lat="43.684084490912916" lon="10.623088647285263"><ele>14.0</ele><time>2026-04-05T08:09:38.999Z</time></trkpt><trkpt lat="43.6841290260539" lon="10.622967792890025"><ele>14.0</ele><time>2026-04-05T08:09:39.999Z</time></trkpt><trkpt lat="43.6841750197888" lon="10.622851161394298"><ele>13.999999999999998</ele><time>2026-04-05T08:09:40.999Z</time></trkpt><trkpt lat="43.68421632197988" lon="10.622733771294046"><ele>13.999999999999998</ele><time>2026-04-05T08:09:41.999Z</time></trkpt><trkpt lat="43.684256576206245" lon="10.62261637992924"><ele>14.0</ele><time>2026-04-05T08:09:42.999Z</time></trkpt><trkpt lat="43.68429591623014" lon="10.622498517311698"><ele>14.0</ele><time>2026-04-05T08:09:43.999Z</time></trkpt><trkpt lat="43.68433623597285" lon="10.622382969041364"><ele>14.000000000000002</ele><time>2026-04-05T08:09:44.999Z</time></trkpt><trkpt lat="43.68437773814769" lon="10.622269845051356"><ele>14.0</ele><time>2026-04-05T08:09:45.999Z</time></trkpt><trkpt lat="43.684418695083025" lon="10.622158997576996"><ele>14.0</ele><time>2026-04-05T08:09:46.999Z</time></trkpt><trkpt lat="43.68445900645405" lon="10.62204887250376"><ele>14.0</ele><time>2026-04-05T08:09:47.999Z</time></trkpt><trkpt lat="43.68450013104434" lon="10.621942309315854"><ele>14.000000000000002</ele><time>2026-04-05T08:09:48.999Z</time></trkpt><trkpt lat="43.68453863118121" lon="10.621836820422477"><ele>14.0</ele><time>2026-04-05T08:09:49.999Z</time></trkpt><trkpt lat="43.68457922256901" lon="10.62173253519963"><ele>14.000000000000002</ele><time>2026-04-05T08:09:50.999Z</time></trkpt><trkpt lat="43.68461541293432" lon="10.621627812094621"><ele>14.0</ele><time>2026-04-05T08:09:51.999Z</time></trkpt><trkpt lat="43.68465312420934" lon="10.621527706302123"><ele>14.0</ele><time>2026-04-05T08:09:52.999Z</time></trkpt><trkpt lat="43.684686490808446" lon="10.62142709616846"><ele>14.0</ele><time>2026-04-05T08:09:53.999Z</time></trkpt><trkpt lat="43.68472066218043" lon="10.62132970382805"><ele>14.000000000000002</ele><time>2026-04-05T08:09:54.999Z</time></trkpt><trkpt lat="43.68475745694134" lon="10.621232499678946"><ele>14.0</ele><time>2026-04-05T08:09:55.999Z</time></trkpt><trkpt lat="43.68479273222347" lon="10.621136962230413"><ele>14.0</ele><time>2026-04-05T08:09:56.999Z</time></trkpt><trkpt lat="43.68482759926701" lon="10.621045223569995"><ele>14.0</ele><time>2026-04-05T08:09:57.999Z</time></trkpt><trkpt lat="43.684862039301144" lon="10.620955035281602"><ele>14.0</ele><time>2026-04-05T08:09:58.998Z</time></trkpt><trkpt lat="43.68489513610866" lon="10.62086458074469"><ele>14.0</ele><time>2026-04-05T08:09:59.998Z</time></trkpt><trkpt lat="43.684927991934295" lon="10.620776180954897"><ele>14.0</ele><time>2026-04-05T08:10:00.998Z</time></trkpt><trkpt lat="43.684960055106416" lon="10.62068694150514"><ele>14.0</ele><time>2026-04-05T08:10:01.998Z</time></trkpt><trkpt lat="43.68499370018294" lon="10.620601122045674"><ele>14.0</ele><time>2026-04-05T08:10:02.998Z</time></trkpt><trkpt lat="43.68502643716477" lon="10.62051240379122"><ele>14.000000000000002</ele><time>2026-04-05T08:10:03.998Z</time></trkpt><trkpt lat="43.6850585462366" lon="10.620426183883048"><ele>14.0</ele><time>2026-04-05T08:10:04.998Z</time></trkpt><trkpt lat="43.685089432553845" lon="10.620342072725704"><ele>14.0</ele><time>2026-04-05T08:10:05.998Z</time></trkpt><trkpt lat="43.6851224050873" lon="10.620259470135542"><ele>14.0</ele><time>2026-04-05T08:10:06.998Z</time></trkpt><trkpt lat="43.68515463907248" lon="10.620178922479209"><ele>14.000000000000002</ele><time>2026-04-05T08:10:07.998Z</time></trkpt><trkpt lat="43.68518656460378" lon="10.6200998031162"><ele>14.0</ele><time>2026-04-05T08:10:08.998Z</time></trkpt><trkpt lat="43.685240053015825" lon="10.6199589322946"><ele>14.000000000000002</ele><time>2026-04-05T08:10:10.998Z</time></trkpt><trkpt lat="43.685274256583114" lon="10.619859711291836"><ele>14.0</ele><time>2026-04-05T08:10:12.998Z</time></trkpt><trkpt lat="43.68530553225823" lon="10.619780102917007"><ele>14.0</ele><time>2026-04-05T08:10:14.998Z</time></trkpt><trkpt lat="43.68534206062174" lon="10.619694029955085"><ele>14.0</ele><time>2026-04-05T08:10:17.998Z</time></trkpt><trkpt lat="43.68538460468637" lon="10.619594447392698"><ele>14.000000000000002</ele><time>2026-04-05T08:10:45Z</time></trkpt><trkpt lat="43.685425679605956" lon="10.61950159251344"><ele>14.0</ele><time>2026-04-05T08:10:47Z</time></trkpt><trkpt lat="43.68546448181714" lon="10.61940225594935"><ele>14.000000000000002</ele><time>2026-04-05T08:10:49Z</time></trkpt><trkpt lat="43.68549899528865" lon="10.619299058353244"><ele>14.0</ele><time>2026-04-05T08:10:51Z</time></trkpt><trkpt lat="43.685533811401775" lon="10.619188640000335"><ele>14.0</ele><time>2026-04-05T08:10:53Z</time></trkpt><trkpt lat="43.68557515318655" lon="10.619080137527126"><ele>14.0</ele><time>2026-04-05T08:10:55Z</time></trkpt><trkpt lat="43.68561183710782" lon="10.618965819588016"><ele>14.000000000000002</ele><time>2026-04-05T08:10:57Z</time></trkpt><trkpt lat="43.68565732903202" lon="10.61885161468667"><ele>14.0</ele><time>2026-04-05T08:10:59Z</time></trkpt><trkpt lat="43.685702150922" lon="10.61873109444335"><ele>13.6</ele><time>2026-04-05T08:11:01Z</time></trkpt><trkpt lat="43.685748255634394" lon="10.61860641755715"><ele>13.2</ele><time>2026-04-05T08:11:03Z</time></trkpt><trkpt lat="43.68579514340878" lon="10.618486507964395"><ele>12.799999999999999</ele><time>2026-04-05T08:11:05Z</time></trkpt><trkpt lat="43.68584220481756" lon="10.618360249501228"><ele>12.399999999999999</ele><time>2026-04-05T08:11:07Z</time></trkpt><trkpt lat="43.68588918141513" lon="10.618231251834082"><ele>12.0</ele><time>2026-04-05T08:11:09Z</time></trkpt><trkpt lat="43.68593684820939" lon="10.618099991020598"><ele>12.0</ele><time>2026-04-05T08:11:11Z</time></trkpt><trkpt lat="43.685983386614645" lon="10.617967685789768"><ele>12.0</ele><time>2026-04-05T08:11:13Z</time></trkpt><trkpt lat="43.686031244358" lon="10.617834959932019"><ele>12.0</ele><time>2026-04-05T08:11:15Z</time></trkpt><trkpt lat="43.68607926494968" lon="10.617702464813817"><ele>12.0</ele><time>2026-04-05T08:11:16.999Z</time></trkpt><trkpt lat="43.686123768713564" lon="10.617574983629703"><ele>12.0</ele><time>2026-04-05T08:11:18.999Z</time></trkpt><trkpt lat="43.686167847949044" lon="10.61744339207666"><ele>11.8</ele><time>2026-04-05T08:11:20.999Z</time></trkpt><trkpt lat="43.686211193000034" lon="10.617309597331579"><ele>11.6</ele><time>2026-04-05T08:11:22.999Z</time></trkpt><trkpt lat="43.686256706472925" lon="10.617169573395087"><ele>11.4</ele><time>2026-04-05T08:11:24.999Z</time></trkpt><trkpt lat="43.6862997943698" lon="10.617029662672266"><ele>11.200000000000001</ele><time>2026-04-05T08:11:26.999Z</time></trkpt><trkpt lat="43.68634404625214" lon="10.616889102700416"><ele>11.0</ele><time>2026-04-05T08:11:28.999Z</time></trkpt><trkpt lat="43.68638471632354" lon="10.616745831500529"><ele>11.0</ele><time>2026-04-05T08:11:30.999Z</time></trkpt><trkpt lat="43.686424623061846" lon="10.616602486979044"><ele>11.0</ele><time>2026-04-05T08:11:32.999Z</time></trkpt><trkpt lat="43.686459355184766" lon="10.61645439853132"><ele>11.0</ele><time>2026-04-05T08:11:34.999Z</time></trkpt><trkpt lat="43.68649396159751" lon="10.616308248347615"><ele>11.0</ele><time>2026-04-05T08:11:36.999Z</time></trkpt><trkpt lat="43.68652721079627" lon="10.616161062126487"><ele>11.0</ele><time>2026-04-05T08:11:38.999Z</time></trkpt><trkpt lat="43.68655578465444" lon="10.616012985852072"><ele>11.200000000000001</ele><time>2026-04-05T08:11:40.999Z</time></trkpt><trkpt lat="43.686583757403604" lon="10.615864009722683"><ele>11.4</ele><time>2026-04-05T08:11:42.999Z</time></trkpt><trkpt lat="43.686613238708496" lon="10.615716725558734"><ele>11.6</ele><time>2026-04-05T08:11:44.999Z</time></trkpt><trkpt lat="43.686638819219056" lon="10.615567533517474"><ele>11.8</ele><time>2026-04-05T08:11:46.999Z</time></trkpt><trkpt lat="43.68666485957773" lon="10.61541577954029"><ele>12.0</ele><time>2026-04-05T08:11:48.999Z</time></trkpt><trkpt lat="43.68668636591207" lon="10.615263947496173"><ele>12.25</ele><time>2026-04-05T08:11:50.999Z</time></trkpt><trkpt lat="43.686708066888436" lon="10.615113095537534"><ele>12.5</ele><time>2026-04-05T08:11:52.999Z</time></trkpt><trkpt lat="43.686731285294215" lon="10.614961731590533"><ele>12.75</ele><time>2026-04-05T08:11:54.999Z</time></trkpt><trkpt lat="43.68674896319331" lon="10.614808252008828"><ele>13.0</ele><time>2026-04-05T08:11:56.999Z</time></trkpt><trkpt lat="43.68676128013709" lon="10.614646261795023"><ele>12.25</ele><time>2026-04-05T08:11:58.999Z</time></trkpt><trkpt lat="43.68677327932046" lon="10.614487881457412"><ele>11.5</ele><time>2026-04-05T08:12:00.999Z</time></trkpt><trkpt lat="43.68678019200289" lon="10.61433052121289"><ele>10.75</ele><time>2026-04-05T08:12:02.999Z</time></trkpt><trkpt lat="43.686793194942105" lon="10.61417358169974"><ele>10.0</ele><time>2026-04-05T08:12:04.999Z</time></trkpt><trkpt lat="43.686799477274036" lon="10.614014726250867"><ele>10.0</ele><time>2026-04-05T08:12:06.999Z</time></trkpt><trkpt lat="43.68680702444519" lon="10.61385616212331"><ele>10.0</ele><time>2026-04-05T08:12:08.999Z</time></trkpt><trkpt lat="43.6868098074446" lon="10.61369450134093"><ele>10.0</ele><time>2026-04-05T08:12:10.999Z</time></trkpt><trkpt lat="43.686811744611035" lon="10.613534170547341"><ele>10.0</ele><time>2026-04-05T08:12:12.999Z</time></trkpt><trkpt lat="43.68680972780079" lon="10.613370669145196"><ele>10.0</ele><time>2026-04-05T08:12:14.999Z</time></trkpt><trkpt lat="43.68680757484257" lon="10.61321022114856"><ele>10.0</ele><time>2026-04-05T08:12:16.999Z</time></trkpt><trkpt lat="43.68680529059889" lon="10.613049196132415"><ele>10.0</ele><time>2026-04-05T08:12:18.999Z</time></trkpt><trkpt lat="43.686800184216345" lon="10.61289097544853"><ele>10.0</ele><time>2026-04-05T08:12:20.999Z</time></trkpt><trkpt lat="43.68679376407051" lon="10.612730636170784"><ele>10.0</ele><time>2026-04-05T08:12:22.999Z</time></trkpt><trkpt lat="43.6867859849667" lon="10.612570819305446"><ele>10.0</ele><time>2026-04-05T08:12:24.998Z</time></trkpt><trkpt lat="43.686775618947195" lon="10.612411219408946"><ele>10.0</ele><time>2026-04-05T08:12:26.998Z</time></trkpt><trkpt lat="43.686761641349946" lon="10.612252678799567"><ele>10.0</ele><time>2026-04-05T08:12:28.998Z</time></trkpt><trkpt lat="43.686745972551385" lon="10.612094523820717"><ele>10.25</ele><time>2026-04-05T08:12:31.001Z</time></trkpt><trkpt lat="43.68672926040048" lon="10.611936187931137"><ele>10.5</ele><time>2026-04-05T08:12:33.001Z</time></trkpt><trkpt lat="43.68671222296772" lon="10.611777454644429"><ele>10.75</ele><time>2026-04-05T08:12:35.001Z</time></trkpt><trkpt lat="43.68668875872696" lon="10.611621956998093"><ele>11.0</ele><time>2026-04-05T08:12:37.001Z</time></trkpt><trkpt lat="43.68666477110489" lon="10.611465653085311"><ele>11.0</ele><time>2026-04-05T08:12:39.001Z</time></trkpt><trkpt lat="43.68664015745034" lon="10.61130950571998"><ele>11.0</ele><time>2026-04-05T08:12:41.001Z</time></trkpt><trkpt lat="43.6866201897875" lon="10.611153488784716"><ele>11.0</ele><time>2026-04-05T08:12:43.001Z</time></trkpt><trkpt lat="43.68659629340539" lon="10.611001454465491"><ele>11.0</ele><time>2026-04-05T08:12:45.001Z</time></trkpt><trkpt lat="43.68657107272317" lon="10.610849601000004"><ele>11.0</ele><time>2026-04-05T08:12:47Z</time></trkpt><trkpt lat="43.68654109778456" lon="10.610694051152523"><ele>11.0</ele><time>2026-04-05T08:12:49Z</time></trkpt><trkpt lat="43.68651427512163" lon="10.610537795408389"><ele>11.0</ele><time>2026-04-05T08:12:51Z</time></trkpt><trkpt lat="43.68649154428457" lon="10.610387788335567"><ele>11.0</ele><time>2026-04-05T08:12:53Z</time></trkpt><trkpt lat="43.686467707943166" lon="10.610236159297282"><ele>11.0</ele><time>2026-04-05T08:12:55Z</time></trkpt><trkpt lat="43.68644343624574" lon="10.61008779783018"><ele>11.0</ele><time>2026-04-05T08:12:57Z</time></trkpt><trkpt lat="43.68642010893693" lon="10.609940204083664"><ele>11.0</ele><time>2026-04-05T08:12:59Z</time></trkpt><trkpt lat="43.68639670808683" lon="10.609794184907818"><ele>11.0</ele><time>2026-04-05T08:13:01Z</time></trkpt><trkpt lat="43.68636954812067" lon="10.609647642358095"><ele>11.0</ele><time>2026-04-05T08:13:03Z</time></trkpt><trkpt lat="43.6863470795162" lon="10.609500109320757"><ele>10.8</ele><time>2026-04-05T08:13:05Z</time></trkpt><trkpt lat="43.6863222538515" lon="10.609353814992975"><ele>10.600000000000001</ele><time>2026-04-05T08:13:07Z</time></trkpt><trkpt lat="43.686301201218726" lon="10.609208499919287"><ele>10.4</ele><time>2026-04-05T08:13:09Z</time></trkpt><trkpt lat="43.68627650897669" lon="10.609060632120338"><ele>10.2</ele><time>2026-04-05T08:13:11Z</time></trkpt><trkpt lat="43.6862515063237" lon="10.608911024288206"><ele>10.0</ele><time>2026-04-05T08:13:13Z</time></trkpt><trkpt lat="43.686230789385945" lon="10.608762487357437"><ele>10.4</ele><time>2026-04-05T08:13:15Z</time></trkpt><trkpt lat="43.68620568072095" lon="10.608614338047952"><ele>10.8</ele><time>2026-04-05T08:13:17Z</time></trkpt><trkpt lat="43.68618072871156" lon="10.60846403450089"><ele>11.2</ele><time>2026-04-05T08:13:19Z</time></trkpt><trkpt lat="43.686157087689175" lon="10.608310834669878"><ele>11.6</ele><time>2026-04-05T08:13:21Z</time></trkpt><trkpt lat="43.686133086894095" lon="10.608158983714256"><ele>12.0</ele><time>2026-04-05T08:13:23Z</time></trkpt><trkpt lat="43.686105441726276" lon="10.60800830814516"><ele>11.8</ele><time>2026-04-05T08:13:25Z</time></trkpt><trkpt lat="43.68608412929323" lon="10.607856615578912"><ele>11.6</ele><time>2026-04-05T08:13:27Z</time></trkpt><trkpt lat="43.686059119675875" lon="10.607708898520228"><ele>11.4</ele><time>2026-04-05T08:13:29Z</time></trkpt><trkpt lat="43.686038078926714" lon="10.607562134329614"><ele>11.200000000000001</ele><time>2026-04-05T08:13:31Z</time></trkpt><trkpt lat="43.686012871974825" lon="10.607415884940865"><ele>11.0</ele><time>2026-04-05T08:13:32.999Z</time></trkpt><trkpt lat="43.68598847495078" lon="10.607262562039114"><ele>11.0</ele><time>2026-04-05T08:13:34.999Z</time></trkpt><trkpt lat="43.685965070281874" lon="10.607113456165195"><ele>11.0</ele><time>2026-04-05T08:13:36.999Z</time></trkpt><trkpt lat="43.68594251833577" lon="10.606965266924211"><ele>11.0</ele><time>2026-04-05T08:13:38.999Z</time></trkpt><trkpt lat="43.685919162236615" lon="10.606817983967487"><ele>11.0</ele><time>2026-04-05T08:13:40.999Z</time></trkpt><trkpt lat="43.68589563384998" lon="10.606671561242281"><ele>11.0</ele><time>2026-04-05T08:13:42.999Z</time></trkpt><trkpt lat="43.68587202347017" lon="10.606524629141145"><ele>11.200000000000001</ele><time>2026-04-05T08:13:44.999Z</time></trkpt><trkpt lat="43.68584899874102" lon="10.606374673014953"><ele>11.4</ele><time>2026-04-05T08:13:46.999Z</time></trkpt><trkpt lat="43.6858250903063" lon="10.606225695603682"><ele>11.6</ele><time>2026-04-05T08:13:48.999Z</time></trkpt><trkpt lat="43.685800811321556" lon="10.6060754987995"><ele>11.8</ele><time>2026-04-05T08:13:50.999Z</time></trkpt><trkpt lat="43.68577804918686" lon="10.605924617562144"><ele>12.0</ele><time>2026-04-05T08:13:52.999Z</time></trkpt><trkpt lat="43.68575218081775" lon="10.605774583424514"><ele>12.0</ele><time>2026-04-05T08:13:54.999Z</time></trkpt><trkpt lat="43.68572743508005" lon="10.605622817399077"><ele>12.0</ele><time>2026-04-05T08:13:56.999Z</time></trkpt><trkpt lat="43.685702363305595" lon="10.605472738814738"><ele>12.0</ele><time>2026-04-05T08:13:58.999Z</time></trkpt><trkpt lat="43.685680587435186" lon="10.605321448612756"><ele>12.0</ele><time>2026-04-05T08:14:00.999Z</time></trkpt><trkpt lat="43.685657825304" lon="10.605170680762871"><ele>12.0</ele><time>2026-04-05T08:14:02.999Z</time></trkpt><trkpt lat="43.68563412035099" lon="10.605021193887396"><ele>12.0</ele><time>2026-04-05T08:14:04.999Z</time></trkpt><trkpt lat="43.68561181058657" lon="10.604874920857636"><ele>12.0</ele><time>2026-04-05T08:14:06.999Z</time></trkpt><trkpt lat="43.68558802720664" lon="10.604727416960142"><ele>12.0</ele><time>2026-04-05T08:14:08.999Z</time></trkpt><trkpt lat="43.68556705495907" lon="10.60457962199326"><ele>12.0</ele><time>2026-04-05T08:14:10.999Z</time></trkpt><trkpt lat="43.685543147139136" lon="10.604431814000996"><ele>12.0</ele><time>2026-04-05T08:14:12.999Z</time></trkpt><trkpt lat="43.68551895946155" lon="10.604283110111533"><ele>11.8</ele><time>2026-04-05T08:14:14.999Z</time></trkpt><trkpt lat="43.68549576255037" lon="10.60413524701857"><ele>11.6</ele><time>2026-04-05T08:14:16.999Z</time></trkpt><trkpt lat="43.68547323574006" lon="10.603987640673507"><ele>11.4</ele><time>2026-04-05T08:14:18.999Z</time></trkpt><trkpt lat="43.685450491694894" lon="10.603838548792904"><ele>11.200000000000001</ele><time>2026-04-05T08:14:20.999Z</time></trkpt><trkpt lat="43.685428752353545" lon="10.603692399729086"><ele>11.0</ele><time>2026-04-05T08:14:22.999Z</time></trkpt><trkpt lat="43.68540474338111" lon="10.603545326797306"><ele>11.0</ele><time>2026-04-05T08:14:24.999Z</time></trkpt><trkpt lat="43.68538274256986" lon="10.6033935196634"><ele>11.0</ele><time>2026-04-05T08:14:26.999Z</time></trkpt><trkpt lat="43.685359332478505" lon="10.603244761176805"><ele>11.0</ele><time>2026-04-05T08:14:28.999Z</time></trkpt><trkpt lat="43.68533508225349" lon="10.603098647011592"><ele>11.0</ele><time>2026-04-05T08:14:30.999Z</time></trkpt><trkpt lat="43.68531183206372" lon="10.602953119865665"><ele>11.0</ele><time>2026-04-05T08:14:32.999Z</time></trkpt><trkpt lat="43.68529117868816" lon="10.602808385440653"><ele>11.200000000000001</ele><time>2026-04-05T08:14:34.998Z</time></trkpt><trkpt lat="43.68526715934889" lon="10.60266117346067"><ele>11.4</ele><time>2026-04-05T08:14:37.001Z</time></trkpt><trkpt lat="43.68524728744554" lon="10.602512841084083"><ele>11.6</ele><time>2026-04-05T08:14:39.001Z</time></trkpt><trkpt lat="43.68522819122828" lon="10.602366845020763"><ele>11.8</ele><time>2026-04-05T08:14:41.001Z</time></trkpt><trkpt lat="43.685211291989326" lon="10.60222144853764"><ele>12.0</ele><time>2026-04-05T08:14:43.001Z</time></trkpt><trkpt lat="43.68519649921088" lon="10.602074064433182"><ele>13.0</ele><time>2026-04-05T08:14:45.001Z</time></trkpt><trkpt lat="43.68518244270704" lon="10.601927419202507"><ele>14.0</ele><time>2026-04-05T08:14:47.001Z</time></trkpt><trkpt lat="43.68516682446324" lon="10.601778316441063"><ele>15.0</ele><time>2026-04-05T08:14:49.001Z</time></trkpt><trkpt lat="43.685156925595024" lon="10.601629158054577"><ele>16.0</ele><time>2026-04-05T08:14:51.001Z</time></trkpt><trkpt lat="43.68514876763901" lon="10.601481900336973"><ele>17.0</ele><time>2026-04-05T08:14:53Z</time></trkpt><trkpt lat="43.68514029369638" lon="10.601333422363792"><ele>17.0</ele><time>2026-04-05T08:14:55Z</time></trkpt><trkpt lat="43.685134273838706" lon="10.60118516176348"><ele>17.0</ele><time>2026-04-05T08:14:57Z</time></trkpt><trkpt lat="43.68513044905002" lon="10.601040058244717"><ele>17.0</ele><time>2026-04-05T08:14:59Z</time></trkpt><trkpt lat="43.68512567104895" lon="10.600893603189384"><ele>17.0</ele><time>2026-04-05T08:15:01Z</time></trkpt><trkpt lat="43.685123703624726" lon="10.600743392025684"><ele>17.0</ele><time>2026-04-05T08:15:03Z</time></trkpt><trkpt lat="43.685121959694854" lon="10.600594569722155"><ele>16.4</ele><time>2026-04-05T08:15:05Z</time></trkpt><trkpt lat="43.685121351187" lon="10.600440047341895"><ele>15.799999999999999</ele><time>2026-04-05T08:15:07Z</time></trkpt><trkpt lat="43.68512215369357" lon="10.600289200880649"><ele>15.2</ele><time>2026-04-05T08:15:09Z</time></trkpt><trkpt lat="43.6851249857101" lon="10.60013683649221"><ele>14.6</ele><time>2026-04-05T08:15:11Z</time></trkpt><trkpt lat="43.68512938386518" lon="10.599981969663803"><ele>14.0</ele><time>2026-04-05T08:15:13Z</time></trkpt><trkpt lat="43.6851355672511" lon="10.599823887008665"><ele>14.0</ele><time>2026-04-05T08:15:15Z</time></trkpt><trkpt lat="43.68514181563552" lon="10.599666142811468"><ele>14.0</ele><time>2026-04-05T08:15:17Z</time></trkpt><trkpt lat="43.685150667218146" lon="10.599507344998091"><ele>14.0</ele><time>2026-04-05T08:15:19Z</time></trkpt><trkpt lat="43.685163951917886" lon="10.599349025024063"><ele>14.0</ele><time>2026-04-05T08:15:21Z</time></trkpt><trkpt lat="43.68517831552959" lon="10.599189599109364"><ele>14.0</ele><time>2026-04-05T08:15:23Z</time></trkpt><trkpt lat="43.685193564718574" lon="10.59903306002874"><ele>14.0</ele><time>2026-04-05T08:15:25Z</time></trkpt><trkpt lat="43.68520938495479" lon="10.598875699126909"><ele>14.0</ele><time>2026-04-05T08:15:27Z</time></trkpt><trkpt lat="43.68522522570506" lon="10.59871447345944"><ele>14.0</ele><time>2026-04-05T08:15:29Z</time></trkpt><trkpt lat="43.68523737676218" lon="10.59855672603013"><ele>13.799999999999999</ele><time>2026-04-05T08:15:31Z</time></trkpt><trkpt lat="43.68525057762113" lon="10.5983965566988"><ele>13.599999999999998</ele><time>2026-04-05T08:15:33Z</time></trkpt><trkpt lat="43.685266911489606" lon="10.598247180656609"><ele>13.4</ele><time>2026-04-05T08:15:35Z</time></trkpt><trkpt lat="43.68527317247778" lon="10.598155830605638"><ele>13.2</ele><time>2026-04-05T08:15:35.999Z</time></trkpt><trkpt lat="43.685280078046375" lon="10.598005177634596"><ele>13.0</ele><time>2026-04-05T08:15:37.999Z</time></trkpt><trkpt lat="43.68529142887779" lon="10.59784924278506"><ele>12.75</ele><time>2026-04-05T08:15:39.999Z</time></trkpt><trkpt lat="43.685308394431914" lon="10.597694244752224"><ele>12.5</ele><time>2026-04-05T08:15:41.999Z</time></trkpt><trkpt lat="43.68533623906244" lon="10.597536630720702"><ele>12.25</ele><time>2026-04-05T08:15:43.999Z</time></trkpt><trkpt lat="43.685346343738765" lon="10.597378302793885"><ele>12.0</ele><time>2026-04-05T08:15:45.999Z</time></trkpt><trkpt lat="43.6853593561546" lon="10.59722631271302"><ele>12.0</ele><time>2026-04-05T08:15:47.999Z</time></trkpt><trkpt lat="43.68537551176863" lon="10.597069527552648"><ele>12.0</ele><time>2026-04-05T08:15:49.999Z</time></trkpt><trkpt lat="43.6853863535588" lon="10.596915389606636"><ele>12.0</ele><time>2026-04-05T08:15:51.999Z</time></trkpt><trkpt lat="43.68540274379649" lon="10.596761050119673"><ele>12.0</ele><time>2026-04-05T08:15:53.999Z</time></trkpt><trkpt lat="43.68541606226751" lon="10.596605916185657"><ele>12.25</ele><time>2026-04-05T08:15:55.999Z</time></trkpt><trkpt lat="43.68543216453707" lon="10.596450789954387"><ele>12.5</ele><time>2026-04-05T08:15:57.999Z</time></trkpt><trkpt lat="43.68545382344119" lon="10.596297791195399"><ele>12.75</ele><time>2026-04-05T08:15:59.999Z</time></trkpt><trkpt lat="43.68548624333843" lon="10.59615135612684"><ele>13.0</ele><time>2026-04-05T08:16:01.999Z</time></trkpt><trkpt lat="43.68552472193895" lon="10.595997512175853"><ele>13.75</ele><time>2026-04-05T08:16:03.999Z</time></trkpt><trkpt lat="43.68556442814714" lon="10.595843235471419"><ele>14.5</ele><time>2026-04-05T08:16:05.999Z</time></trkpt><trkpt lat="43.685604073104045" lon="10.595691128579038"><ele>15.25</ele><time>2026-04-05T08:16:07.999Z</time></trkpt><trkpt lat="43.685655311729796" lon="10.595542560693572"><ele>16.0</ele><time>2026-04-05T08:16:09.999Z</time></trkpt><trkpt lat="43.685700759130725" lon="10.595408960017142"><ele>16.0</ele><time>2026-04-05T08:16:11.999Z</time></trkpt><trkpt lat="43.68574999502264" lon="10.595262018908231"><ele>16.0</ele><time>2026-04-05T08:16:13.999Z</time></trkpt><trkpt lat="43.68579599248863" lon="10.595123432903584"><ele>16.0</ele><time>2026-04-05T08:16:15.999Z</time></trkpt><trkpt lat="43.6858407425926" lon="10.594983220275779"><ele>16.0</ele><time>2026-04-05T08:16:17.999Z</time></trkpt><trkpt lat="43.68588767426146" lon="10.594847378099244"><ele>16.0</ele><time>2026-04-05T08:16:19.999Z</time></trkpt><trkpt lat="43.68593445040746" lon="10.594705102179617"><ele>16.0</ele><time>2026-04-05T08:16:21.999Z</time></trkpt><trkpt lat="43.68598145987375" lon="10.594560877989808"><ele>16.0</ele><time>2026-04-05T08:16:23.999Z</time></trkpt><trkpt lat="43.68602762642183" lon="10.59440572494692"><ele>16.0</ele><time>2026-04-05T08:16:25.999Z</time></trkpt><trkpt lat="43.68607536404331" lon="10.594262277594362"><ele>16.0</ele><time>2026-04-05T08:16:27.999Z</time></trkpt><trkpt lat="43.686117701501644" lon="10.594115708176014"><ele>15.8</ele><time>2026-04-05T08:16:29.999Z</time></trkpt><trkpt lat="43.68616064055971" lon="10.593977342356599"><ele>15.600000000000001</ele><time>2026-04-05T08:16:31.998Z</time></trkpt><trkpt lat="43.686190020760876" lon="10.59389718233227"><ele>15.4</ele><time>2026-04-05T08:16:32.998Z</time></trkpt><trkpt lat="43.686235990760146" lon="10.593756217636683"><ele>15.2</ele><time>2026-04-05T08:16:34.998Z</time></trkpt><trkpt lat="43.68628474709215" lon="10.593613330636936"><ele>15.0</ele><time>2026-04-05T08:16:36.998Z</time></trkpt><trkpt lat="43.68631711562804" lon="10.593534806969018"><ele>14.8</ele><time>2026-04-05T08:16:37.998Z</time></trkpt><trkpt lat="43.68636609789442" lon="10.59339105535098"><ele>14.6</ele><time>2026-04-05T08:16:39.998Z</time></trkpt><trkpt lat="43.68640581334417" lon="10.593236277337219"><ele>14.399999999999999</ele><time>2026-04-05T08:16:41.998Z</time></trkpt><trkpt lat="43.68643272187504" lon="10.593157177467916"><ele>14.2</ele><time>2026-04-05T08:16:43.001Z</time></trkpt><trkpt lat="43.686483853840954" lon="10.59301181717148"><ele>14.0</ele><time>2026-04-05T08:16:45.001Z</time></trkpt><trkpt lat="43.68653529120918" lon="10.592861314347164"><ele>13.75</ele><time>2026-04-05T08:16:47.001Z</time></trkpt><trkpt lat="43.686584516353165" lon="10.59270766237236"><ele>13.5</ele><time>2026-04-05T08:16:49.001Z</time></trkpt><trkpt lat="43.686631912932135" lon="10.592556247264154"><ele>13.25</ele><time>2026-04-05T08:16:51Z</time></trkpt><trkpt lat="43.68668170552515" lon="10.592405723839622"><ele>13.0</ele><time>2026-04-05T08:16:53Z</time></trkpt><trkpt lat="43.68673395869389" lon="10.592253045303325"><ele>13.0</ele><time>2026-04-05T08:16:55Z</time></trkpt><trkpt lat="43.68678231740324" lon="10.592102299587449"><ele>13.0</ele><time>2026-04-05T08:16:57Z</time></trkpt><trkpt lat="43.68681212094173" lon="10.592024363662585"><ele>13.0</ele><time>2026-04-05T08:16:58Z</time></trkpt><trkpt lat="43.68686396816739" lon="10.59187329602694"><ele>13.0</ele><time>2026-04-05T08:17:00Z</time></trkpt><trkpt lat="43.68691229361741" lon="10.591720942727292"><ele>13.0</ele><time>2026-04-05T08:17:02Z</time></trkpt><trkpt lat="43.68696374504235" lon="10.591567907674305"><ele>12.75</ele><time>2026-04-05T08:17:04Z</time></trkpt><trkpt lat="43.68700828339003" lon="10.591423073521584"><ele>12.5</ele><time>2026-04-05T08:17:06Z</time></trkpt><trkpt lat="43.68704943088428" lon="10.591267313618788"><ele>12.25</ele><time>2026-04-05T08:17:08Z</time></trkpt><trkpt lat="43.687095512670744" lon="10.59112242871416"><ele>12.0</ele><time>2026-04-05T08:17:10Z</time></trkpt><trkpt lat="43.68713497420697" lon="10.590970174795347"><ele>12.0</ele><time>2026-04-05T08:17:12Z</time></trkpt><trkpt lat="43.687176982353776" lon="10.59081667898079"><ele>12.0</ele><time>2026-04-05T08:17:14Z</time></trkpt><trkpt lat="43.68721747428456" lon="10.590658418795982"><ele>12.0</ele><time>2026-04-05T08:17:16Z</time></trkpt><trkpt lat="43.687238122819075" lon="10.590576130976316"><ele>12.0</ele><time>2026-04-05T08:17:17Z</time></trkpt><trkpt lat="43.687266369317065" lon="10.59041654523697"><ele>12.0</ele><time>2026-04-05T08:17:19Z</time></trkpt><trkpt lat="43.6872812258639" lon="10.590324698720723"><ele>12.2</ele><time>2026-04-05T08:17:20Z</time></trkpt><trkpt lat="43.68731844192332" lon="10.590172212110115"><ele>12.399999999999999</ele><time>2026-04-05T08:17:22Z</time></trkpt><trkpt lat="43.68734760728754" lon="10.590013385621278"><ele>12.600000000000001</ele><time>2026-04-05T08:17:24Z</time></trkpt><trkpt lat="43.68737661688958" lon="10.589850457630002"><ele>12.8</ele><time>2026-04-05T08:17:26Z</time></trkpt><trkpt lat="43.687389661337185" lon="10.589763654166083"><ele>13.0</ele><time>2026-04-05T08:17:27Z</time></trkpt><trkpt lat="43.6874146278086" lon="10.589600793790197"><ele>13.0</ele><time>2026-04-05T08:17:29Z</time></trkpt><trkpt lat="43.68743722946285" lon="10.589439078450194"><ele>13.0</ele><time>2026-04-05T08:17:31Z</time></trkpt><trkpt lat="43.68745581122435" lon="10.58927016454544"><ele>13.0</ele><time>2026-04-05T08:17:32.999Z</time></trkpt><trkpt lat="43.68747655946444" lon="10.589105623363567"><ele>13.0</ele><time>2026-04-05T08:17:34.999Z</time></trkpt><trkpt lat="43.6874969038464" lon="10.588937846457517"><ele>13.0</ele><time>2026-04-05T08:17:36.999Z</time></trkpt><trkpt lat="43.687508346879774" lon="10.588850799017472"><ele>13.0</ele><time>2026-04-05T08:17:37.999Z</time></trkpt><trkpt lat="43.68752475980403" lon="10.588687785476603"><ele>13.0</ele><time>2026-04-05T08:17:39.999Z</time></trkpt><trkpt lat="43.68755003455599" lon="10.58852353275826"><ele>13.0</ele><time>2026-04-05T08:17:41.999Z</time></trkpt><trkpt lat="43.68756059871042" lon="10.588436317769123"><ele>13.0</ele><time>2026-04-05T08:17:42.999Z</time></trkpt><trkpt lat="43.68758034211852" lon="10.588266951807753"><ele>13.25</ele><time>2026-04-05T08:17:44.999Z</time></trkpt><trkpt lat="43.68760187634619" lon="10.588101536293497"><ele>13.5</ele><time>2026-04-05T08:17:46.999Z</time></trkpt><trkpt lat="43.687621322347475" lon="10.587938862534259"><ele>13.75</ele><time>2026-04-05T08:17:48.999Z</time></trkpt><trkpt lat="43.687635760693794" lon="10.58777278800386"><ele>14.0</ele><time>2026-04-05T08:17:50.999Z</time></trkpt><trkpt lat="43.68765631166689" lon="10.58760427511735"><ele>14.0</ele><time>2026-04-05T08:17:52.999Z</time></trkpt><trkpt lat="43.687682637835316" lon="10.587437966955127"><ele>14.0</ele><time>2026-04-05T08:17:54.999Z</time></trkpt><trkpt lat="43.68770422237141" lon="10.587271612645294"><ele>14.0</ele><time>2026-04-05T08:17:56.999Z</time></trkpt><trkpt lat="43.68772160195494" lon="10.587105813049973"><ele>14.0</ele><time>2026-04-05T08:17:58.999Z</time></trkpt><trkpt lat="43.68773972595631" lon="10.586944843642039"><ele>13.399999999999999</ele><time>2026-04-05T08:18:00.999Z</time></trkpt><trkpt lat="43.687761361536076" lon="10.58678061734496"><ele>12.799999999999999</ele><time>2026-04-05T08:18:02.999Z</time></trkpt><trkpt lat="43.68780864932781" lon="10.586633720511484"><ele>12.2</ele><time>2026-04-05T08:18:04.999Z</time></trkpt><trkpt lat="43.68786882994541" lon="10.58656438457209"><ele>11.600000000000001</ele><time>2026-04-05T08:18:08.999Z</time></trkpt><trkpt lat="43.687917475544864" lon="10.586448586894797"><ele>11.0</ele><time>2026-04-05T08:18:10.999Z</time></trkpt><trkpt lat="43.68790551062945" lon="10.586302861654167"><ele>11.200000000000001</ele><time>2026-04-05T08:18:12.999Z</time></trkpt><trkpt lat="43.687880114348644" lon="10.586170791512743"><ele>11.4</ele><time>2026-04-05T08:18:14.999Z</time></trkpt><trkpt lat="43.68787568266854" lon="10.586033450306637"><ele>11.6</ele><time>2026-04-05T08:18:16.999Z</time></trkpt><trkpt lat="43.687877176493316" lon="10.585899333446113"><ele>11.8</ele><time>2026-04-05T08:18:18.999Z</time></trkpt><trkpt lat="43.6878757177765" lon="10.585766476671825"><ele>12.0</ele><time>2026-04-05T08:18:20.999Z</time></trkpt><trkpt lat="43.6878745839744" lon="10.585625364172516"><ele>12.0</ele><time>2026-04-05T08:18:22.999Z</time></trkpt><trkpt lat="43.68788152837405" lon="10.585482773678029"><ele>12.0</ele><time>2026-04-05T08:18:24.998Z</time></trkpt><trkpt lat="43.687887554622364" lon="10.585344164631454"><ele>12.0</ele><time>2026-04-05T08:18:26.998Z</time></trkpt><trkpt lat="43.68789474964124" lon="10.585198892399134"><ele>12.0</ele><time>2026-04-05T08:18:28.998Z</time></trkpt><trkpt lat="43.68790024021695" lon="10.585050418776175"><ele>12.0</ele><time>2026-04-05T08:18:30.998Z</time></trkpt><trkpt lat="43.68790456606372" lon="10.584900705207515"><ele>12.2</ele><time>2026-04-05T08:18:32.998Z</time></trkpt><trkpt lat="43.68791430524046" lon="10.5847435842469"><ele>12.399999999999999</ele><time>2026-04-05T08:18:34.998Z</time></trkpt><trkpt lat="43.687919795397974" lon="10.58459086876034"><ele>12.600000000000001</ele><time>2026-04-05T08:18:36.998Z</time></trkpt><trkpt lat="43.68789067568444" lon="10.58449709842542"><ele>12.8</ele><time>2026-04-05T08:18:37.998Z</time></trkpt><trkpt lat="43.68792559073387" lon="10.58435295840549"><ele>13.0</ele><time>2026-04-05T08:18:39.998Z</time></trkpt><trkpt lat="43.687985080257626" lon="10.584220188043497"><ele>13.0</ele><time>2026-04-05T08:18:41.998Z</time></trkpt><trkpt lat="43.68802805871248" lon="10.584073544663871"><ele>13.0</ele><time>2026-04-05T08:18:43.998Z</time></trkpt><trkpt lat="43.68805903722834" lon="10.583925753230005"><ele>13.0</ele><time>2026-04-05T08:18:45.998Z</time></trkpt><trkpt lat="43.68808908162067" lon="10.583774007425951"><ele>13.0</ele><time>2026-04-05T08:18:47.998Z</time></trkpt><trkpt lat="43.68812439910353" lon="10.583613653893051"><ele>13.5</ele><time>2026-04-05T08:18:50Z</time></trkpt><trkpt lat="43.68815644685512" lon="10.583455115180115"><ele>14.0</ele><time>2026-04-05T08:18:52Z</time></trkpt><trkpt lat="43.68817632055422" lon="10.58328744162854"><ele>14.5</ele><time>2026-04-05T08:18:54Z</time></trkpt><trkpt lat="43.688192877961356" lon="10.583132671288631"><ele>15.0</ele><time>2026-04-05T08:18:56Z</time></trkpt><trkpt lat="43.68820736115448" lon="10.582972355776059"><ele>15.5</ele><time>2026-04-05T08:18:58Z</time></trkpt><trkpt lat="43.688221049909515" lon="10.582815356329249"><ele>16.0</ele><time>2026-04-05T08:19:00Z</time></trkpt><trkpt lat="43.68823853185258" lon="10.582657016512284"><ele>16.5</ele><time>2026-04-05T08:19:02Z</time></trkpt><trkpt lat="43.688256730832016" lon="10.58250021094268"><ele>17.0</ele><time>2026-04-05T08:19:04Z</time></trkpt><trkpt lat="43.68827057425677" lon="10.582349716722998"><ele>17.0</ele><time>2026-04-05T08:19:06Z</time></trkpt><trkpt lat="43.68828943019233" lon="10.582191261419203"><ele>17.0</ele><time>2026-04-05T08:19:08Z</time></trkpt><trkpt lat="43.688306630380566" lon="10.582030525843154"><ele>17.0</ele><time>2026-04-05T08:19:10Z</time></trkpt><trkpt lat="43.688317482515785" lon="10.581878145664056"><ele>17.0</ele><time>2026-04-05T08:19:12Z</time></trkpt><trkpt lat="43.688335477128554" lon="10.58173028520038"><ele>17.0</ele><time>2026-04-05T08:19:14Z</time></trkpt><trkpt lat="43.688345779222736" lon="10.58158543307374"><ele>17.0</ele><time>2026-04-05T08:19:16Z</time></trkpt><trkpt lat="43.68833709031579" lon="10.581436183337939"><ele>17.0</ele><time>2026-04-05T08:19:18Z</time></trkpt><trkpt lat="43.68829809364217" lon="10.581294588458356"><ele>17.0</ele><time>2026-04-05T08:19:20Z</time></trkpt><trkpt lat="43.688230962104804" lon="10.581167025460186"><ele>17.0</ele><time>2026-04-05T08:19:22Z</time></trkpt><trkpt lat="43.68815074800293" lon="10.581048567031877"><ele>16.999999999999996</ele><time>2026-04-05T08:19:24Z</time></trkpt><trkpt lat="43.688071194933855" lon="10.580930158705895"><ele>17.0</ele><time>2026-04-05T08:19:26Z</time></trkpt><trkpt lat="43.68802753683106" lon="10.580864806347934"><ele>17.0</ele><time>2026-04-05T08:19:27Z</time></trkpt><trkpt lat="43.68798460633777" lon="10.58079517309218"><ele>17.0</ele><time>2026-04-05T08:19:28Z</time></trkpt><trkpt lat="43.687942599032795" lon="10.580728241235995"><ele>17.0</ele><time>2026-04-05T08:19:29Z</time></trkpt><trkpt lat="43.68789763575687" lon="10.58066149060957"><ele>16.999999999999996</ele><time>2026-04-05T08:19:30Z</time></trkpt><trkpt lat="43.687857484714655" lon="10.58058950347447"><ele>17.0</ele><time>2026-04-05T08:19:31Z</time></trkpt><trkpt lat="43.68777690247226" lon="10.58045861992084"><ele>16.71428571428571</ele><time>2026-04-05T08:19:32.999Z</time></trkpt><trkpt lat="43.687731928152374" lon="10.5803960758446"><ele>16.428571428571427</ele><time>2026-04-05T08:19:33.999Z</time></trkpt><trkpt lat="43.68768818947036" lon="10.580331902208796"><ele>16.142857142857142</ele><time>2026-04-05T08:19:34.999Z</time></trkpt><trkpt lat="43.6876462161495" lon="10.580265434119136"><ele>15.857142857142856</ele><time>2026-04-05T08:19:35.999Z</time></trkpt><trkpt lat="43.68760722016426" lon="10.580196396122824"><ele>15.57142857142857</ele><time>2026-04-05T08:19:36.999Z</time></trkpt><trkpt lat="43.68756495633376" lon="10.58013126294779"><ele>15.285714285714286</ele><time>2026-04-05T08:19:37.999Z</time></trkpt><trkpt lat="43.687481654485566" lon="10.580008058796805"><ele>15.0</ele><time>2026-04-05T08:19:39.999Z</time></trkpt><trkpt lat="43.68744202813297" lon="10.579936022379766"><ele>15.0</ele><time>2026-04-05T08:19:40.999Z</time></trkpt><trkpt lat="43.687396299341934" lon="10.579872348761045"><ele>15.0</ele><time>2026-04-05T08:19:41.999Z</time></trkpt><trkpt lat="43.68730658778588" lon="10.57975116835403"><ele>15.0</ele><time>2026-04-05T08:19:43.999Z</time></trkpt><trkpt lat="43.68721247900784" lon="10.579645268270966"><ele>15.0</ele><time>2026-04-05T08:19:45.999Z</time></trkpt><trkpt lat="43.687111120991545" lon="10.579547164593775"><ele>15.0</ele><time>2026-04-05T08:19:47.999Z</time></trkpt><trkpt lat="43.68700193046451" lon="10.57945500374798"><ele>14.833333333333334</ele><time>2026-04-05T08:19:49.999Z</time></trkpt><trkpt lat="43.686946245318104" lon="10.579412875304712"><ele>14.666666666666668</ele><time>2026-04-05T08:19:50.999Z</time></trkpt><trkpt lat="43.686836716670236" lon="10.579316644373735"><ele>14.5</ele><time>2026-04-05T08:19:52.999Z</time></trkpt><trkpt lat="43.68678082930503" lon="10.579267559382044"><ele>14.333333333333334</ele><time>2026-04-05T08:19:53.999Z</time></trkpt><trkpt lat="43.68672193415969" lon="10.579219276427276"><ele>14.166666666666668</ele><time>2026-04-05T08:19:54.999Z</time></trkpt><trkpt lat="43.686666231132875" lon="10.579169716610528"><ele>14.0</ele><time>2026-04-05T08:19:55.999Z</time></trkpt><trkpt lat="43.68661002029679" lon="10.579118643954924"><ele>14.0</ele><time>2026-04-05T08:19:56.999Z</time></trkpt><trkpt lat="43.68655547550373" lon="10.57906749086428"><ele>14.0</ele><time>2026-04-05T08:19:57.999Z</time></trkpt><trkpt lat="43.686502086537956" lon="10.579017647449012"><ele>14.0</ele><time>2026-04-05T08:19:58.999Z</time></trkpt><trkpt lat="43.68644790816433" lon="10.578965835733817"><ele>14.0</ele><time>2026-04-05T08:19:59.999Z</time></trkpt><trkpt lat="43.68639369589049" lon="10.578917520661658"><ele>14.0</ele><time>2026-04-05T08:20:00.999Z</time></trkpt><trkpt lat="43.68633904979637" lon="10.57886736936861"><ele>14.0</ele><time>2026-04-05T08:20:01.999Z</time></trkpt><trkpt lat="43.68628442765314" lon="10.578820300775615"><ele>14.0</ele><time>2026-04-05T08:20:02.999Z</time></trkpt><trkpt lat="43.6862246253158" lon="10.5787754404244"><ele>14.0</ele><time>2026-04-05T08:20:03.999Z</time></trkpt><trkpt lat="43.686168250428516" lon="10.578724993870118"><ele>14.0</ele><time>2026-04-05T08:20:04.999Z</time></trkpt><trkpt lat="43.68611242461228" lon="10.578671958589382"><ele>14.0</ele><time>2026-04-05T08:20:05.999Z</time></trkpt><trkpt lat="43.68605789996588" lon="10.578619755407175"><ele>14.0</ele><time>2026-04-05T08:20:06.999Z</time></trkpt><trkpt lat="43.68600292140754" lon="10.578569741121902"><ele>14.0</ele><time>2026-04-05T08:20:07.999Z</time></trkpt><trkpt lat="43.685944086049545" lon="10.578525860611398"><ele>14.0</ele><time>2026-04-05T08:20:08.999Z</time></trkpt><trkpt lat="43.68588988592269" lon="10.578474038075067"><ele>14.0</ele><time>2026-04-05T08:20:09.999Z</time></trkpt><trkpt lat="43.685835562389876" lon="10.578426693511092"><ele>14.166666666666668</ele><time>2026-04-05T08:20:10.999Z</time></trkpt><trkpt lat="43.685781133738935" lon="10.578372038677834"><ele>14.333333333333334</ele><time>2026-04-05T08:20:11.999Z</time></trkpt><trkpt lat="43.685723385606124" lon="10.578326938723144"><ele>14.5</ele><time>2026-04-05T08:20:12.999Z</time></trkpt><trkpt lat="43.68566836345307" lon="10.578268577478172"><ele>14.666666666666668</ele><time>2026-04-05T08:20:13.999Z</time></trkpt><trkpt lat="43.685614414829836" lon="10.578218073698634"><ele>14.833333333333334</ele><time>2026-04-05T08:20:14.999Z</time></trkpt><trkpt lat="43.68550967615949" lon="10.578126924474127"><ele>15.0</ele><time>2026-04-05T08:20:16.999Z</time></trkpt><trkpt lat="43.68545448102293" lon="10.578077815771863"><ele>15.0</ele><time>2026-04-05T08:20:17.999Z</time></trkpt><trkpt lat="43.68540113167006" lon="10.578025217125555"><ele>15.0</ele><time>2026-04-05T08:20:18.999Z</time></trkpt><trkpt lat="43.68534605786465" lon="10.577981833581253"><ele>15.0</ele><time>2026-04-05T08:20:19.998Z</time></trkpt><trkpt lat="43.68524541902255" lon="10.577891531493604"><ele>15.0</ele><time>2026-04-05T08:20:21.998Z</time></trkpt><trkpt lat="43.68515228024162" lon="10.577799132060154"><ele>15.0</ele><time>2026-04-05T08:20:23.998Z</time></trkpt><trkpt lat="43.685049066658536" lon="10.57771254943436"><ele>15.0</ele><time>2026-04-05T08:20:25.998Z</time></trkpt><trkpt lat="43.68495253348886" lon="10.577624213703066"><ele>15.0</ele><time>2026-04-05T08:20:27.998Z</time></trkpt><trkpt lat="43.68485906376241" lon="10.577543367571778"><ele>15.0</ele><time>2026-04-05T08:20:29.998Z</time></trkpt><trkpt lat="43.68476162440791" lon="10.577464020180205"><ele>15.0</ele><time>2026-04-05T08:20:31.998Z</time></trkpt><trkpt lat="43.68467364600957" lon="10.577380220704"><ele>15.0</ele><time>2026-04-05T08:20:33.998Z</time></trkpt><trkpt lat="43.6845851868874" lon="10.577301205444442"><ele>15.0</ele><time>2026-04-05T08:20:35.998Z</time></trkpt><trkpt lat="43.68449153445959" lon="10.577220867187496"><ele>15.0</ele><time>2026-04-05T08:20:37.998Z</time></trkpt><trkpt lat="43.68440027391216" lon="10.577141769033886"><ele>15.0</ele><time>2026-04-05T08:20:39.998Z</time></trkpt><trkpt lat="43.6843117450438" lon="10.57705518829746"><ele>15.0</ele><time>2026-04-05T08:20:41.998Z</time></trkpt><trkpt lat="43.68421778911611" lon="10.5769711970188"><ele>15.0</ele><time>2026-04-05T08:20:43.998Z</time></trkpt><trkpt lat="43.684125038176404" lon="10.576881779989677"><ele>15.0</ele><time>2026-04-05T08:20:45.998Z</time></trkpt><trkpt lat="43.684031489551586" lon="10.576791794356511"><ele>15.0</ele><time>2026-04-05T08:20:47.998Z</time></trkpt><trkpt lat="43.68393927595605" lon="10.576703766667128"><ele>15.0</ele><time>2026-04-05T08:20:49.998Z</time></trkpt><trkpt lat="43.683845665792944" lon="10.576607992363988"><ele>15.0</ele><time>2026-04-05T08:20:51.998Z</time></trkpt><trkpt lat="43.683753425822985" lon="10.57651166608286"><ele>15.0</ele><time>2026-04-05T08:20:53.998Z</time></trkpt><trkpt lat="43.683664799563886" lon="10.576401265656175"><ele>15.0</ele><time>2026-04-05T08:20:56Z</time></trkpt><trkpt lat="43.683578902310195" lon="10.576287367436523"><ele>15.0</ele><time>2026-04-05T08:20:58Z</time></trkpt><trkpt lat="43.68350040409062" lon="10.576165956076524"><ele>15.0</ele><time>2026-04-05T08:21:00Z</time></trkpt><trkpt lat="43.683426281770494" lon="10.576033868733576"><ele>15.0</ele><time>2026-04-05T08:21:02Z</time></trkpt><trkpt lat="43.68335964809898" lon="10.575895011710868"><ele>15.0</ele><time>2026-04-05T08:21:04Z</time></trkpt><trkpt lat="43.68328991270542" lon="10.575759093990213"><ele>15.0</ele><time>2026-04-05T08:21:06Z</time></trkpt><trkpt lat="43.68322133385629" lon="10.575620176460484"><ele>15.0</ele><time>2026-04-05T08:21:08Z</time></trkpt><trkpt lat="43.68315268723869" lon="10.575481043127212"><ele>14.75</ele><time>2026-04-05T08:21:10Z</time></trkpt><trkpt lat="43.683081502097316" lon="10.575341276177259"><ele>14.5</ele><time>2026-04-05T08:21:12Z</time></trkpt><trkpt lat="43.683009628784276" lon="10.575202330119454"><ele>14.25</ele><time>2026-04-05T08:21:14Z</time></trkpt><trkpt lat="43.68294134649872" lon="10.575064365658637"><ele>14.0</ele><time>2026-04-05T08:21:16Z</time></trkpt><trkpt lat="43.68286938627025" lon="10.574923515064189"><ele>14.000000000000002</ele><time>2026-04-05T08:21:18Z</time></trkpt><trkpt lat="43.68279928843335" lon="10.574786565413234"><ele>14.0</ele><time>2026-04-05T08:21:20Z</time></trkpt><trkpt lat="43.68272669169433" lon="10.574649454549714"><ele>14.0</ele><time>2026-04-05T08:21:22Z</time></trkpt><trkpt lat="43.68268918999603" lon="10.57457936511077"><ele>14.0</ele><time>2026-04-05T08:21:23Z</time></trkpt><trkpt lat="43.68265020165474" lon="10.574509592699563"><ele>14.000000000000002</ele><time>2026-04-05T08:21:24Z</time></trkpt><trkpt lat="43.68261508729751" lon="10.574436604391662"><ele>14.0</ele><time>2026-04-05T08:21:25Z</time></trkpt><trkpt lat="43.68254398151014" lon="10.574294164014285"><ele>14.0</ele><time>2026-04-05T08:21:27Z</time></trkpt><trkpt lat="43.68247206130408" lon="10.574151390034821"><ele>13.999999999999998</ele><time>2026-04-05T08:21:29Z</time></trkpt><trkpt lat="43.68240251039754" lon="10.574009405814254"><ele>13.999999999999998</ele><time>2026-04-05T08:21:31Z</time></trkpt><trkpt lat="43.682328464579754" lon="10.573869014781906"><ele>14.0</ele><time>2026-04-05T08:21:33Z</time></trkpt><trkpt lat="43.682292001738546" lon="10.573796982487464"><ele>14.0</ele><time>2026-04-05T08:21:34Z</time></trkpt><trkpt lat="43.68225270465677" lon="10.573723947709375"><ele>13.857142857142858</ele><time>2026-04-05T08:21:34.999Z</time></trkpt><trkpt lat="43.68221775828289" lon="10.573648866371222"><ele>13.714285714285715</ele><time>2026-04-05T08:21:35.999Z</time></trkpt><trkpt lat="43.68217837372335" lon="10.573574963204456"><ele>13.571428571428571</ele><time>2026-04-05T08:21:36.999Z</time></trkpt><trkpt lat="43.68214101041176" lon="10.573499757800539"><ele>13.428571428571429</ele><time>2026-04-05T08:21:37.999Z</time></trkpt><trkpt lat="43.68210008342975" lon="10.573423328018457"><ele>13.285714285714286</ele><time>2026-04-05T08:21:38.999Z</time></trkpt><trkpt lat="43.68206127686027" lon="10.573352759072705"><ele>13.142857142857142</ele><time>2026-04-05T08:21:39.999Z</time></trkpt><trkpt lat="43.68202452559651" lon="10.573280125418796"><ele>13.0</ele><time>2026-04-05T08:21:40.999Z</time></trkpt><trkpt lat="43.68198797843725" lon="10.573207918507649"><ele>13.0</ele><time>2026-04-05T08:21:41.999Z</time></trkpt><trkpt lat="43.681951582498364" lon="10.573134922425211"><ele>13.0</ele><time>2026-04-05T08:21:42.999Z</time></trkpt><trkpt lat="43.68188054065246" lon="10.572994018529942"><ele>13.0</ele><time>2026-04-05T08:21:44.999Z</time></trkpt><trkpt lat="43.681811384479545" lon="10.57285593949264"><ele>13.0</ele><time>2026-04-05T08:21:46.999Z</time></trkpt><trkpt lat="43.68173821651865" lon="10.57271866517861"><ele>13.0</ele><time>2026-04-05T08:21:48.999Z</time></trkpt><trkpt lat="43.68166617599043" lon="10.572583581824956"><ele>12.75</ele><time>2026-04-05T08:21:50.999Z</time></trkpt><trkpt lat="43.681599852208684" lon="10.572448009170882"><ele>12.5</ele><time>2026-04-05T08:21:52.999Z</time></trkpt><trkpt lat="43.681529870949454" lon="10.572317718188321"><ele>12.25</ele><time>2026-04-05T08:21:54.999Z</time></trkpt><trkpt lat="43.681463592028145" lon="10.572183801455667"><ele>12.0</ele><time>2026-04-05T08:21:56.999Z</time></trkpt><trkpt lat="43.681397725877986" lon="10.57205544411879"><ele>12.25</ele><time>2026-04-05T08:21:58.999Z</time></trkpt><trkpt lat="43.68133029590797" lon="10.571922741987326"><ele>12.5</ele><time>2026-04-05T08:22:00.999Z</time></trkpt><trkpt lat="43.68126068497496" lon="10.571790048948971"><ele>12.75</ele><time>2026-04-05T08:22:02.999Z</time></trkpt><trkpt lat="43.68119011568219" lon="10.571656735482732"><ele>13.0</ele><time>2026-04-05T08:22:04.999Z</time></trkpt><trkpt lat="43.68112562438861" lon="10.571519140031336"><ele>13.0</ele><time>2026-04-05T08:22:06.999Z</time></trkpt><trkpt lat="43.68106292845379" lon="10.571380297409974"><ele>13.0</ele><time>2026-04-05T08:22:08.999Z</time></trkpt><trkpt lat="43.681006670010596" lon="10.571239137180934"><ele>13.0</ele><time>2026-04-05T08:22:10.999Z</time></trkpt><trkpt lat="43.68095477000502" lon="10.571095601592587"><ele>13.0</ele><time>2026-04-05T08:22:12.999Z</time></trkpt><trkpt lat="43.68090382383011" lon="10.570949597356604"><ele>13.0</ele><time>2026-04-05T08:22:14.999Z</time></trkpt><trkpt lat="43.68086741209191" lon="10.570800067582137"><ele>13.0</ele><time>2026-04-05T08:22:16.999Z</time></trkpt><trkpt lat="43.680831973406846" lon="10.570653700811151"><ele>13.0</ele><time>2026-04-05T08:22:18.999Z</time></trkpt><trkpt lat="43.68080484800122" lon="10.570503048401667"><ele>13.0</ele><time>2026-04-05T08:22:20.999Z</time></trkpt><trkpt lat="43.68078250626096" lon="10.57035134385224"><ele>13.2</ele><time>2026-04-05T08:22:22.998Z</time></trkpt><trkpt lat="43.68076117217762" lon="10.570200122229334"><ele>13.4</ele><time>2026-04-05T08:22:24.998Z</time></trkpt><trkpt lat="43.680746197380515" lon="10.570052009785414"><ele>13.599999999999998</ele><time>2026-04-05T08:22:26.998Z</time></trkpt><trkpt lat="43.68073118025455" lon="10.569908884723704"><ele>13.799999999999999</ele><time>2026-04-05T08:22:28.998Z</time></trkpt><trkpt lat="43.68071618934153" lon="10.569763690795185"><ele>14.0</ele><time>2026-04-05T08:22:30.998Z</time></trkpt><trkpt lat="43.680703946574745" lon="10.569624583637001"><ele>13.799999999999999</ele><time>2026-04-05T08:22:32.998Z</time></trkpt><trkpt lat="43.68068798033332" lon="10.569481714876478"><ele>13.599999999999998</ele><time>2026-04-05T08:22:34.998Z</time></trkpt><trkpt lat="43.68067430570246" lon="10.56934171845252"><ele>13.4</ele><time>2026-04-05T08:22:36.998Z</time></trkpt><trkpt lat="43.680660823102734" lon="10.569202667434078"><ele>13.2</ele><time>2026-04-05T08:22:38.998Z</time></trkpt><trkpt lat="43.68064721590076" lon="10.56906539365683"><ele>13.0</ele><time>2026-04-05T08:22:40.998Z</time></trkpt><trkpt lat="43.68063481881602" lon="10.5689313008067"><ele>13.0</ele><time>2026-04-05T08:22:42.998Z</time></trkpt><trkpt lat="43.68062210541251" lon="10.568798781467535"><ele>13.0</ele><time>2026-04-05T08:22:44.998Z</time></trkpt><trkpt lat="43.68061068113007" lon="10.56866862888231"><ele>13.0</ele><time>2026-04-05T08:22:46.998Z</time></trkpt><trkpt lat="43.68059371967409" lon="10.568536013922568"><ele>13.0</ele><time>2026-04-05T08:22:48.998Z</time></trkpt><trkpt lat="43.68058034045584" lon="10.568405283675864"><ele>13.0</ele><time>2026-04-05T08:22:50.998Z</time></trkpt><trkpt lat="43.68056705311553" lon="10.568272130352767"><ele>13.0</ele><time>2026-04-05T08:22:52.998Z</time></trkpt><trkpt lat="43.68055544016042" lon="10.568139987563766"><ele>13.0</ele><time>2026-04-05T08:22:54.998Z</time></trkpt><trkpt lat="43.68054230146028" lon="10.568008385387465"><ele>13.0</ele><time>2026-04-05T08:22:56.998Z</time></trkpt><trkpt lat="43.68052817984552" lon="10.567877348555124"><ele>13.0</ele><time>2026-04-05T08:22:58.998Z</time></trkpt><trkpt lat="43.68051460323475" lon="10.567741327474897"><ele>13.0</ele><time>2026-04-05T08:23:01Z</time></trkpt><trkpt lat="43.68050345187158" lon="10.567603076156303"><ele>13.0</ele><time>2026-04-05T08:23:03Z</time></trkpt><trkpt lat="43.68048557490219" lon="10.567464930310429"><ele>13.0</ele><time>2026-04-05T08:23:05Z</time></trkpt><trkpt lat="43.680473162173406" lon="10.567324572613687"><ele>13.0</ele><time>2026-04-05T08:23:07Z</time></trkpt><trkpt lat="43.6804574717283" lon="10.567183301004182"><ele>13.0</ele><time>2026-04-05T08:23:09Z</time></trkpt><trkpt lat="43.68045011196868" lon="10.567043567562408"><ele>13.0</ele><time>2026-04-05T08:23:11Z</time></trkpt><trkpt lat="43.68044599075158" lon="10.566907955844686"><ele>13.0</ele><time>2026-04-05T08:23:13Z</time></trkpt><trkpt lat="43.68044559863122" lon="10.566767486351843"><ele>13.0</ele><time>2026-04-05T08:23:15Z</time></trkpt><trkpt lat="43.680446681296836" lon="10.566623087237115"><ele>13.0</ele><time>2026-04-05T08:23:17Z</time></trkpt><trkpt lat="43.68045478672153" lon="10.566478153439803"><ele>13.0</ele><time>2026-04-05T08:23:19Z</time></trkpt><trkpt lat="43.6804663649263" lon="10.566335916030171"><ele>13.0</ele><time>2026-04-05T08:23:21Z</time></trkpt><trkpt lat="43.68048107167873" lon="10.566193389464326"><ele>13.0</ele><time>2026-04-05T08:23:23Z</time></trkpt><trkpt lat="43.68049973914721" lon="10.566054213527769"><ele>13.0</ele><time>2026-04-05T08:23:25Z</time></trkpt><trkpt lat="43.6805236042941" lon="10.565914019735615"><ele>13.0</ele><time>2026-04-05T08:23:27Z</time></trkpt><trkpt lat="43.680550588804415" lon="10.56577340133961"><ele>13.0</ele><time>2026-04-05T08:23:29Z</time></trkpt><trkpt lat="43.680580606671626" lon="10.56563050242443"><ele>13.0</ele><time>2026-04-05T08:23:31Z</time></trkpt><trkpt lat="43.68061462889893" lon="10.565489899654875"><ele>13.2</ele><time>2026-04-05T08:23:33Z</time></trkpt><trkpt lat="43.68065696210482" lon="10.56535381954794"><ele>13.4</ele><time>2026-04-05T08:23:35Z</time></trkpt><trkpt lat="43.68070801415923" lon="10.56522389240017"><ele>13.599999999999998</ele><time>2026-04-05T08:23:37Z</time></trkpt><trkpt lat="43.680758353527956" lon="10.56509103036544"><ele>13.799999999999999</ele><time>2026-04-05T08:23:39Z</time></trkpt><trkpt lat="43.680812361457114" lon="10.564960953363979"><ele>14.0</ele><time>2026-04-05T08:23:40.999Z</time></trkpt><trkpt lat="43.6808646243305" lon="10.56483424624702"><ele>14.0</ele><time>2026-04-05T08:23:42.999Z</time></trkpt><trkpt lat="43.680919380908044" lon="10.564707270962108"><ele>13.999999999999998</ele><time>2026-04-05T08:23:44.999Z</time></trkpt><trkpt lat="43.680974797188014" lon="10.564576614019906"><ele>13.999999999999998</ele><time>2026-04-05T08:23:46.999Z</time></trkpt><trkpt lat="43.68103386543425" lon="10.564448118331406"><ele>14.0</ele><time>2026-04-05T08:23:48.999Z</time></trkpt><trkpt lat="43.681092625009946" lon="10.564319420850602"><ele>14.0</ele><time>2026-04-05T08:23:50.999Z</time></trkpt><trkpt lat="43.68114925046792" lon="10.564182131931897"><ele>14.5</ele><time>2026-04-05T08:23:52.999Z</time></trkpt><trkpt lat="43.68121196879108" lon="10.56404728177846"><ele>15.0</ele><time>2026-04-05T08:23:54.999Z</time></trkpt><trkpt lat="43.68127585464875" lon="10.563909324822419"><ele>15.5</ele><time>2026-04-05T08:23:56.999Z</time></trkpt><trkpt lat="43.68133658570502" lon="10.563762838041908"><ele>16.0</ele><time>2026-04-05T08:23:58.999Z</time></trkpt><trkpt lat="43.68139733877724" lon="10.56361717414406"><ele>16.0</ele><time>2026-04-05T08:24:00.999Z</time></trkpt><trkpt lat="43.68145687633088" lon="10.563467512213036"><ele>16.0</ele><time>2026-04-05T08:24:02.999Z</time></trkpt><trkpt lat="43.68152435567714" lon="10.563323532312213"><ele>16.0</ele><time>2026-04-05T08:24:04.999Z</time></trkpt><trkpt lat="43.68159122352664" lon="10.56318318904735"><ele>16.0</ele><time>2026-04-05T08:24:06.999Z</time></trkpt><trkpt lat="43.6816613279129" lon="10.563042496569711"><ele>16.0</ele><time>2026-04-05T08:24:08.999Z</time></trkpt><trkpt lat="43.681736698525015" lon="10.562910756943616"><ele>16.0</ele><time>2026-04-05T08:24:10.999Z</time></trkpt><trkpt lat="43.68181838389734" lon="10.562791996178014"><ele>16.0</ele><time>2026-04-05T08:24:12.999Z</time></trkpt><trkpt lat="43.68189570101504" lon="10.562669869163102"><ele>16.0</ele><time>2026-04-05T08:24:14.999Z</time></trkpt><trkpt lat="43.68197455510788" lon="10.562548582148182"><ele>17.5</ele><time>2026-04-05T08:24:16.999Z</time></trkpt><trkpt lat="43.68205037500345" lon="10.562427636479551"><ele>19.0</ele><time>2026-04-05T08:24:18.999Z</time></trkpt><trkpt lat="43.68212558756561" lon="10.56230646746404"><ele>20.5</ele><time>2026-04-05T08:24:20.999Z</time></trkpt><trkpt lat="43.68220584369713" lon="10.562183620145724"><ele>22.0</ele><time>2026-04-05T08:24:22.999Z</time></trkpt><trkpt lat="43.682283783317786" lon="10.5620654930393"><ele>20.8</ele><time>2026-04-05T08:24:24.999Z</time></trkpt><trkpt lat="43.68236408756936" lon="10.561947232434616"><ele>19.6</ele><time>2026-04-05T08:24:26.999Z</time></trkpt><trkpt lat="43.68240663050228" lon="10.561882823770018"><ele>18.400000000000002</ele><time>2026-04-05T08:24:27.999Z</time></trkpt><trkpt lat="43.68248816041029" lon="10.561765075651898"><ele>17.200000000000003</ele><time>2026-04-05T08:24:29.998Z</time></trkpt><trkpt lat="43.68256714177645" lon="10.561628921001441"><ele>16.0</ele><time>2026-04-05T08:24:31.998Z</time></trkpt><trkpt lat="43.682649160252254" lon="10.561502726213094"><ele>16.0</ele><time>2026-04-05T08:24:33.998Z</time></trkpt><trkpt lat="43.682692594626396" lon="10.561437785846174"><ele>16.0</ele><time>2026-04-05T08:24:34.998Z</time></trkpt><trkpt lat="43.68277680532669" lon="10.561302343016441"><ele>16.0</ele><time>2026-04-05T08:24:36.998Z</time></trkpt><trkpt lat="43.68285385044563" lon="10.561168937184727"><ele>16.0</ele><time>2026-04-05T08:24:38.998Z</time></trkpt><trkpt lat="43.682941040052654" lon="10.561038330686184"><ele>16.0</ele><time>2026-04-05T08:24:40.998Z</time></trkpt><trkpt lat="43.68298225550085" lon="10.560964823009922"><ele>15.600000000000001</ele><time>2026-04-05T08:24:41.998Z</time></trkpt><trkpt lat="43.68305745237587" lon="10.560823775513983"><ele>15.200000000000001</ele><time>2026-04-05T08:24:43.998Z</time></trkpt><trkpt lat="43.683091094731424" lon="10.560746501477453"><ele>14.799999999999999</ele><time>2026-04-05T08:24:44.998Z</time></trkpt><trkpt lat="43.6831251591719" lon="10.560667363482986"><ele>14.399999999999999</ele><time>2026-04-05T08:24:45.998Z</time></trkpt><trkpt lat="43.68316163905571" lon="10.560590778797344"><ele>14.0</ele><time>2026-04-05T08:24:46.998Z</time></trkpt><trkpt lat="43.683226042075674" lon="10.56043569070059"><ele>14.000000000000002</ele><time>2026-04-05T08:24:48.998Z</time></trkpt><trkpt lat="43.68325990526159" lon="10.560355960404012"><ele>14.0</ele><time>2026-04-05T08:24:49.998Z</time></trkpt><trkpt lat="43.683290783590586" lon="10.56027285225773"><ele>14.0</ele><time>2026-04-05T08:24:50.998Z</time></trkpt><trkpt lat="43.68331787729623" lon="10.5601783899052"><ele>14.0</ele><time>2026-04-05T08:24:51.998Z</time></trkpt><trkpt lat="43.68338420604917" lon="10.560030289217803"><ele>14.000000000000002</ele><time>2026-04-05T08:24:53.998Z</time></trkpt><trkpt lat="43.683416322027504" lon="10.559948293462307"><ele>14.0</ele><time>2026-04-05T08:24:54.998Z</time></trkpt><trkpt lat="43.683449964181435" lon="10.559866901186748"><ele>14.0</ele><time>2026-04-05T08:24:55.998Z</time></trkpt><trkpt lat="43.68348313543556" lon="10.55978411344623"><ele>14.0</ele><time>2026-04-05T08:24:56.998Z</time></trkpt><trkpt lat="43.68351376462256" lon="10.559701398499238"><ele>14.0</ele><time>2026-04-05T08:24:57.998Z</time></trkpt><trkpt lat="43.68354776891207" lon="10.559621392606617"><ele>14.0</ele><time>2026-04-05T08:24:58.998Z</time></trkpt><trkpt lat="43.683583234440086" lon="10.559534443028623"><ele>14.0</ele><time>2026-04-05T08:24:59.998Z</time></trkpt><trkpt lat="43.683621512590555" lon="10.559438744181952"><ele>14.0</ele><time>2026-04-05T08:25:00.998Z</time></trkpt><trkpt lat="43.68365097557274" lon="10.55935220432385"><ele>14.0</ele><time>2026-04-05T08:25:01.998Z</time></trkpt><trkpt lat="43.68372779455555" lon="10.55921043494402"><ele>14.166666666666668</ele><time>2026-04-05T08:25:03.998Z</time></trkpt><trkpt lat="43.683755000079394" lon="10.559113643608866"><ele>14.333333333333334</ele><time>2026-04-05T08:25:04.998Z</time></trkpt><trkpt lat="43.68378776369353" lon="10.559026561590034"><ele>14.5</ele><time>2026-04-05T08:25:05.998Z</time></trkpt><trkpt lat="43.68382356692722" lon="10.558939158574303"><ele>14.666666666666668</ele><time>2026-04-05T08:25:07Z</time></trkpt><trkpt lat="43.68385759011373" lon="10.558856701605736"><ele>14.833333333333334</ele><time>2026-04-05T08:25:08Z</time></trkpt><trkpt lat="43.68391850625715" lon="10.558697396587407"><ele>15.0</ele><time>2026-04-05T08:25:10Z</time></trkpt><trkpt lat="43.68394656335379" lon="10.558616353974688"><ele>15.0</ele><time>2026-04-05T08:25:11Z</time></trkpt><trkpt lat="43.683975784275816" lon="10.55853421194274"><ele>15.0</ele><time>2026-04-05T08:25:12Z</time></trkpt><trkpt lat="43.6840039191613" lon="10.558449737962459"><ele>15.0</ele><time>2026-04-05T08:25:13Z</time></trkpt><trkpt lat="43.68403451892637" lon="10.558359316056343"><ele>15.0</ele><time>2026-04-05T08:25:14Z</time></trkpt><trkpt lat="43.68406023982059" lon="10.558274988211938"><ele>15.0</ele><time>2026-04-05T08:25:15Z</time></trkpt><trkpt lat="43.68408441439636" lon="10.558185869768367"><ele>15.0</ele><time>2026-04-05T08:25:16Z</time></trkpt><trkpt lat="43.68411035564" lon="10.558097501509478"><ele>15.0</ele><time>2026-04-05T08:25:17Z</time></trkpt><trkpt lat="43.684137294174036" lon="10.558009773110706"><ele>15.0</ele><time>2026-04-05T08:25:18Z</time></trkpt><trkpt lat="43.68416256767428" lon="10.557914977990041"><ele>15.0</ele><time>2026-04-05T08:25:19Z</time></trkpt><trkpt lat="43.68418083150687" lon="10.557823192125651"><ele>15.0</ele><time>2026-04-05T08:25:20Z</time></trkpt><trkpt lat="43.68421225624117" lon="10.557730462663836"><ele>15.0</ele><time>2026-04-05T08:25:21Z</time></trkpt><trkpt lat="43.684239491638685" lon="10.557641888589462"><ele>15.0</ele><time>2026-04-05T08:25:22Z</time></trkpt><trkpt lat="43.684261438851834" lon="10.557546888784765"><ele>15.0</ele><time>2026-04-05T08:25:23Z</time></trkpt><trkpt lat="43.68428438660086" lon="10.557450349703187"><ele>15.0</ele><time>2026-04-05T08:25:24Z</time></trkpt><trkpt lat="43.68430503864609" lon="10.557356617645961"><ele>14.714285714285715</ele><time>2026-04-05T08:25:25Z</time></trkpt><trkpt lat="43.684320467219095" lon="10.557260542848706"><ele>14.428571428571427</ele><time>2026-04-05T08:25:26Z</time></trkpt><trkpt lat="43.68433624614233" lon="10.557165237756811"><ele>14.142857142857142</ele><time>2026-04-05T08:25:27Z</time></trkpt><trkpt lat="43.68434792303067" lon="10.557067488003675"><ele>13.857142857142858</ele><time>2026-04-05T08:25:28Z</time></trkpt><trkpt lat="43.68436015437094" lon="10.556975867171918"><ele>13.571428571428573</ele><time>2026-04-05T08:25:29Z</time></trkpt><trkpt lat="43.68437175867641" lon="10.556886071012586"><ele>13.285714285714285</ele><time>2026-04-05T08:25:30Z</time></trkpt><trkpt lat="43.68438449561958" lon="10.55679316253135"><ele>13.0</ele><time>2026-04-05T08:25:31Z</time></trkpt><trkpt lat="43.68440354565464" lon="10.556698680759343"><ele>13.0</ele><time>2026-04-05T08:25:32Z</time></trkpt><trkpt lat="43.68441889498897" lon="10.556609305536606"><ele>13.0</ele><time>2026-04-05T08:25:33Z</time></trkpt><trkpt lat="43.68442911104765" lon="10.556510201518847"><ele>13.0</ele><time>2026-04-05T08:25:34Z</time></trkpt><trkpt lat="43.68444766523288" lon="10.556418592221357"><ele>13.0</ele><time>2026-04-05T08:25:35Z</time></trkpt><trkpt lat="43.68445762218817" lon="10.556327419330552"><ele>13.0</ele><time>2026-04-05T08:25:36Z</time></trkpt><trkpt lat="43.68446904571103" lon="10.556226094290652"><ele>13.0</ele><time>2026-04-05T08:25:37Z</time></trkpt><trkpt lat="43.684481405271775" lon="10.556129927682724"><ele>13.0</ele><time>2026-04-05T08:25:38Z</time></trkpt><trkpt lat="43.684492587506455" lon="10.556032394342452"><ele>13.857142857142858</ele><time>2026-04-05T08:25:39Z</time></trkpt><trkpt lat="43.68450210860231" lon="10.555937193854211"><ele>14.714285714285715</ele><time>2026-04-05T08:25:40Z</time></trkpt><trkpt lat="43.68451657893218" lon="10.555838874582273"><ele>15.571428571428571</ele><time>2026-04-05T08:25:41Z</time></trkpt><trkpt lat="43.68452957869656" lon="10.555743820184237"><ele>16.42857142857143</ele><time>2026-04-05T08:25:42Z</time></trkpt><trkpt lat="43.684538793808315" lon="10.555645892455429"><ele>17.28571428571429</ele><time>2026-04-05T08:25:43Z</time></trkpt><trkpt lat="43.68454939155638" lon="10.555551426263428"><ele>18.142857142857142</ele><time>2026-04-05T08:25:44Z</time></trkpt><trkpt lat="43.68455864924529" lon="10.5554525012449"><ele>19.0</ele><time>2026-04-05T08:25:45Z</time></trkpt><trkpt lat="43.68456877685963" lon="10.55535330010072"><ele>19.0</ele><time>2026-04-05T08:25:46Z</time></trkpt><trkpt lat="43.68457913882068" lon="10.555255317970431"><ele>19.0</ele><time>2026-04-05T08:25:47Z</time></trkpt><trkpt lat="43.68458984532622" lon="10.55515441530186"><ele>19.0</ele><time>2026-04-05T08:25:47.999Z</time></trkpt><trkpt lat="43.684599900202606" lon="10.55505409655405"><ele>19.0</ele><time>2026-04-05T08:25:48.999Z</time></trkpt><trkpt lat="43.684609830255475" lon="10.55495285336042"><ele>19.0</ele><time>2026-04-05T08:25:49.999Z</time></trkpt><trkpt lat="43.68461854974584" lon="10.5548544821157"><ele>19.0</ele><time>2026-04-05T08:25:50.999Z</time></trkpt><trkpt lat="43.684628205798326" lon="10.554764696366531"><ele>19.0</ele><time>2026-04-05T08:25:51.999Z</time></trkpt><trkpt lat="43.68464131623586" lon="10.554670101613027"><ele>19.0</ele><time>2026-04-05T08:25:52.999Z</time></trkpt><trkpt lat="43.68464938746265" lon="10.554576224181128"><ele>19.0</ele><time>2026-04-05T08:25:53.999Z</time></trkpt><trkpt lat="43.684658008572434" lon="10.554484413198463"><ele>19.0</ele><time>2026-04-05T08:25:54.999Z</time></trkpt><trkpt lat="43.68466922086334" lon="10.554396992104712"><ele>19.0</ele><time>2026-04-05T08:25:55.999Z</time></trkpt><trkpt lat="43.68467594357221" lon="10.554303448286849"><ele>19.0</ele><time>2026-04-05T08:25:56.999Z</time></trkpt><trkpt lat="43.68468873078699" lon="10.554121145819717"><ele>19.0</ele><time>2026-04-05T08:25:58.999Z</time></trkpt><trkpt lat="43.68469875927737" lon="10.553950984653426"><ele>18.5</ele><time>2026-04-05T08:26:00.999Z</time></trkpt><trkpt lat="43.68469592924019" lon="10.553859930162412"><ele>18.0</ele><time>2026-04-05T08:26:01.999Z</time></trkpt><trkpt lat="43.68469464222198" lon="10.553770471898096"><ele>17.5</ele><time>2026-04-05T08:26:02.999Z</time></trkpt><trkpt lat="43.68468877019066" lon="10.553681885923137"><ele>17.0</ele><time>2026-04-05T08:26:03.999Z</time></trkpt><trkpt lat="43.68467208426274" lon="10.553592748741268"><ele>16.5</ele><time>2026-04-05T08:26:04.999Z</time></trkpt><trkpt lat="43.68465697917066" lon="10.553499905666275"><ele>16.0</ele><time>2026-04-05T08:26:05.999Z</time></trkpt><trkpt lat="43.684617346445584" lon="10.553325356518618"><ele>16.0</ele><time>2026-04-05T08:26:07.999Z</time></trkpt><trkpt lat="43.68460177523306" lon="10.55323511821814"><ele>15.999999999999998</ele><time>2026-04-05T08:26:08.999Z</time></trkpt><trkpt lat="43.68457105017" lon="10.553153776867731"><ele>16.0</ele><time>2026-04-05T08:26:09.999Z</time></trkpt><trkpt lat="43.68455722862908" lon="10.553059794525694"><ele>16.0</ele><time>2026-04-05T08:26:10.999Z</time></trkpt><trkpt lat="43.68454212037704" lon="10.552967618518476"><ele>15.999999999999998</ele><time>2026-04-05T08:26:11.999Z</time></trkpt><trkpt lat="43.68452262921048" lon="10.552881206015215"><ele>16.0</ele><time>2026-04-05T08:26:12.999Z</time></trkpt><trkpt lat="43.684507817856044" lon="10.552790009721637"><ele>16.0</ele><time>2026-04-05T08:26:13.999Z</time></trkpt><trkpt lat="43.684495259208575" lon="10.552695043700826"><ele>15.857142857142856</ele><time>2026-04-05T08:26:14.999Z</time></trkpt><trkpt lat="43.68448935434101" lon="10.55260144326875"><ele>15.714285714285712</ele><time>2026-04-05T08:26:15.999Z</time></trkpt><trkpt lat="43.68448588184589" lon="10.5525042910517"><ele>15.571428571428571</ele><time>2026-04-05T08:26:16.999Z</time></trkpt><trkpt lat="43.684487673112976" lon="10.552411266000215"><ele>15.428571428571427</ele><time>2026-04-05T08:26:17.999Z</time></trkpt><trkpt lat="43.68449447493454" lon="10.552316663296404"><ele>15.285714285714285</ele><time>2026-04-05T08:26:18.999Z</time></trkpt><trkpt lat="43.684499148986276" lon="10.55222394496769"><ele>15.142857142857142</ele><time>2026-04-05T08:26:19.999Z</time></trkpt><trkpt lat="43.68450139774276" lon="10.55213613214957"><ele>15.0</ele><time>2026-04-05T08:26:20.999Z</time></trkpt><trkpt lat="43.68451055492292" lon="10.551969153696685"><ele>15.0</ele><time>2026-04-05T08:26:22.999Z</time></trkpt><trkpt lat="43.684515192143934" lon="10.551801570574947"><ele>15.0</ele><time>2026-04-05T08:26:24.999Z</time></trkpt><trkpt lat="43.684515713627825" lon="10.551633055445805"><ele>15.0</ele><time>2026-04-05T08:26:26.999Z</time></trkpt><trkpt lat="43.68452635162421" lon="10.551463777523677"><ele>15.0</ele><time>2026-04-05T08:26:28.999Z</time></trkpt><trkpt lat="43.68452932526678" lon="10.55128872292738"><ele>14.8</ele><time>2026-04-05T08:26:30.999Z</time></trkpt><trkpt lat="43.684541682642795" lon="10.551115671508265"><ele>14.6</ele><time>2026-04-05T08:26:32.999Z</time></trkpt><trkpt lat="43.684555150642154" lon="10.550943670325736"><ele>14.399999999999999</ele><time>2026-04-05T08:26:34.999Z</time></trkpt><trkpt lat="43.68456245252396" lon="10.550856612197489"><ele>14.2</ele><time>2026-04-05T08:26:35.998Z</time></trkpt><trkpt lat="43.68458349669082" lon="10.55069209624878"><ele>14.0</ele><time>2026-04-05T08:26:37.998Z</time></trkpt><trkpt lat="43.684611066315284" lon="10.550523908346058"><ele>14.25</ele><time>2026-04-05T08:26:39.998Z</time></trkpt><trkpt lat="43.68464153400255" lon="10.550361715354281"><ele>14.5</ele><time>2026-04-05T08:26:41.998Z</time></trkpt><trkpt lat="43.6846782277297" lon="10.550205345663809"><ele>14.75</ele><time>2026-04-05T08:26:43.998Z</time></trkpt><trkpt lat="43.684712167149065" lon="10.550052888403075"><ele>15.0</ele><time>2026-04-05T08:26:45.998Z</time></trkpt><trkpt lat="43.68474618492645" lon="10.549901712420903"><ele>15.0</ele><time>2026-04-05T08:26:47.998Z</time></trkpt><trkpt lat="43.684778489044" lon="10.549752021159117"><ele>15.0</ele><time>2026-04-05T08:26:49.998Z</time></trkpt><trkpt lat="43.68481588518805" lon="10.549602717150218"><ele>15.0</ele><time>2026-04-05T08:26:51.998Z</time></trkpt><trkpt lat="43.684849548733354" lon="10.54945051217641"><ele>15.0</ele><time>2026-04-05T08:26:53.998Z</time></trkpt><trkpt lat="43.68488361617434" lon="10.549304748143385"><ele>15.0</ele><time>2026-04-05T08:26:55.998Z</time></trkpt><trkpt lat="43.68492374740285" lon="10.54915463457103"><ele>15.0</ele><time>2026-04-05T08:26:57.998Z</time></trkpt><trkpt lat="43.68495863836121" lon="10.549008903564314"><ele>15.0</ele><time>2026-04-05T08:26:59.998Z</time></trkpt><trkpt lat="43.68499271227661" lon="10.548860978654616"><ele>15.0</ele><time>2026-04-05T08:27:01.998Z</time></trkpt><trkpt lat="43.68502753455513" lon="10.548712410900432"><ele>14.8</ele><time>2026-04-05T08:27:03.998Z</time></trkpt><trkpt lat="43.6850660098168" lon="10.548569720017303"><ele>14.6</ele><time>2026-04-05T08:27:05.998Z</time></trkpt><trkpt lat="43.68510144811043" lon="10.548426554583193"><ele>14.399999999999999</ele><time>2026-04-05T08:27:07.998Z</time></trkpt><trkpt lat="43.68514431365098" lon="10.548293968556203"><ele>14.2</ele><time>2026-04-05T08:27:09.998Z</time></trkpt><trkpt lat="43.685169635437184" lon="10.548154969416201"><ele>14.0</ele><time>2026-04-05T08:27:11.998Z</time></trkpt><trkpt lat="43.68520145607459" lon="10.548013668982081"><ele>14.0</ele><time>2026-04-05T08:27:14Z</time></trkpt><trkpt lat="43.685230853573806" lon="10.547873005065014"><ele>13.999999999999998</ele><time>2026-04-05T08:27:16Z</time></trkpt><trkpt lat="43.68526338930645" lon="10.547736100329717"><ele>13.999999999999998</ele><time>2026-04-05T08:27:18Z</time></trkpt><trkpt lat="43.685298849596386" lon="10.547593934063167"><ele>14.0</ele><time>2026-04-05T08:27:20Z</time></trkpt><trkpt lat="43.685328662119" lon="10.547462417341825"><ele>14.0</ele><time>2026-04-05T08:27:22Z</time></trkpt><trkpt lat="43.68536059182734" lon="10.54733144243715"><ele>14.0</ele><time>2026-04-05T08:27:24Z</time></trkpt><trkpt lat="43.68539288998313" lon="10.547201586884107"><ele>13.999999999999998</ele><time>2026-04-05T08:27:26Z</time></trkpt><trkpt lat="43.68542097923149" lon="10.547070548793505"><ele>13.999999999999998</ele><time>2026-04-05T08:27:28Z</time></trkpt><trkpt lat="43.68545327740012" lon="10.546940505984708"><ele>14.0</ele><time>2026-04-05T08:27:30Z</time></trkpt><trkpt lat="43.68548323738019" lon="10.546809562428551"><ele>14.0</ele><time>2026-04-05T08:27:32Z</time></trkpt><trkpt lat="43.685523079748044" lon="10.546682529881972"><ele>14.2</ele><time>2026-04-05T08:27:34Z</time></trkpt><trkpt lat="43.685554641918074" lon="10.546548826113462"><ele>14.399999999999999</ele><time>2026-04-05T08:27:36Z</time></trkpt><trkpt lat="43.68560910958194" lon="10.546437703461987"><ele>14.6</ele><time>2026-04-05T08:27:38Z</time></trkpt><trkpt lat="43.68569459692023" lon="10.546343208084812"><ele>14.8</ele><time>2026-04-05T08:27:40Z</time></trkpt><trkpt lat="43.685736169909795" lon="10.54620786224809"><ele>15.0</ele><time>2026-04-05T08:27:42Z</time></trkpt><trkpt lat="43.68574408437241" lon="10.546057190232283"><ele>14.6</ele><time>2026-04-05T08:27:44Z</time></trkpt><trkpt lat="43.68576862604979" lon="10.545907051659192"><ele>14.2</ele><time>2026-04-05T08:27:46Z</time></trkpt><trkpt lat="43.685827476428855" lon="10.545774784672385"><ele>13.8</ele><time>2026-04-05T08:27:48Z</time></trkpt><trkpt lat="43.685884326912344" lon="10.54564261470791"><ele>13.4</ele><time>2026-04-05T08:27:49.999Z</time></trkpt><trkpt lat="43.68594266240155" lon="10.54551944026669"><ele>13.0</ele><time>2026-04-05T08:27:51.999Z</time></trkpt><trkpt lat="43.686000553957626" lon="10.54539016140506"><ele>13.0</ele><time>2026-04-05T08:27:53.999Z</time></trkpt><trkpt lat="43.68606362307849" lon="10.545262460271575"><ele>13.0</ele><time>2026-04-05T08:27:55.999Z</time></trkpt><trkpt lat="43.68612043922647" lon="10.54513667140354"><ele>13.0</ele><time>2026-04-05T08:27:57.999Z</time></trkpt><trkpt lat="43.68618073610972" lon="10.545006681260224"><ele>13.0</ele><time>2026-04-05T08:27:59.999Z</time></trkpt><trkpt lat="43.68623841150078" lon="10.544876901937942"><ele>13.0</ele><time>2026-04-05T08:28:01.999Z</time></trkpt><trkpt lat="43.686297504684674" lon="10.54474511226715"><ele>13.0</ele><time>2026-04-05T08:28:03.999Z</time></trkpt><trkpt lat="43.68635838126414" lon="10.544611707450997"><ele>13.0</ele><time>2026-04-05T08:28:05.999Z</time></trkpt><trkpt lat="43.68642143090286" lon="10.544480054887035"><ele>13.0</ele><time>2026-04-05T08:28:07.999Z</time></trkpt><trkpt lat="43.68648409867515" lon="10.544349029521106"><ele>13.0</ele><time>2026-04-05T08:28:09.999Z</time></trkpt><trkpt lat="43.686545609793356" lon="10.544217927577996"><ele>13.0</ele><time>2026-04-05T08:28:11.999Z</time></trkpt><trkpt lat="43.686609235882415" lon="10.544084859746178"><ele>13.0</ele><time>2026-04-05T08:28:13.999Z</time></trkpt><trkpt lat="43.686676049210675" lon="10.54395150497878"><ele>13.0</ele><time>2026-04-05T08:28:15.999Z</time></trkpt><trkpt lat="43.686743247045925" lon="10.543815427377217"><ele>13.0</ele><time>2026-04-05T08:28:17.999Z</time></trkpt><trkpt lat="43.68680819258308" lon="10.543680638440266"><ele>13.0</ele><time>2026-04-05T08:28:19.999Z</time></trkpt><trkpt lat="43.68686843386372" lon="10.543546187772018"><ele>13.0</ele><time>2026-04-05T08:28:21.999Z</time></trkpt><trkpt lat="43.68692645176004" lon="10.543411238794151"><ele>13.0</ele><time>2026-04-05T08:28:23.999Z</time></trkpt><trkpt lat="43.68699055132488" lon="10.543278688594361"><ele>13.0</ele><time>2026-04-05T08:28:25.999Z</time></trkpt><trkpt lat="43.687051974760294" lon="10.543145473679077"><ele>13.0</ele><time>2026-04-05T08:28:27.999Z</time></trkpt><trkpt lat="43.687108643111756" lon="10.543014390826675"><ele>13.0</ele><time>2026-04-05T08:28:29.999Z</time></trkpt><trkpt lat="43.68716131670456" lon="10.542876545631673"><ele>13.0</ele><time>2026-04-05T08:28:31.999Z</time></trkpt><trkpt lat="43.687210508303714" lon="10.542734470084902"><ele>13.0</ele><time>2026-04-05T08:28:33.999Z</time></trkpt><trkpt lat="43.68725785209643" lon="10.54259200658205"><ele>13.0</ele><time>2026-04-05T08:28:35.998Z</time></trkpt><trkpt lat="43.68730553386141" lon="10.54244790605114"><ele>13.0</ele><time>2026-04-05T08:28:37.998Z</time></trkpt><trkpt lat="43.68735010310201" lon="10.54229699180707"><ele>13.0</ele><time>2026-04-05T08:28:39.998Z</time></trkpt><trkpt lat="43.68739169619028" lon="10.542148670830587"><ele>13.0</ele><time>2026-04-05T08:28:41.998Z</time></trkpt><trkpt lat="43.687440531559155" lon="10.542011560966877"><ele>12.8</ele><time>2026-04-05T08:28:43.998Z</time></trkpt><trkpt lat="43.687479090524306" lon="10.541879267036757"><ele>12.600000000000001</ele><time>2026-04-05T08:28:45.998Z</time></trkpt><trkpt lat="43.687508365534036" lon="10.541752882418436"><ele>12.399999999999999</ele><time>2026-04-05T08:28:47.998Z</time></trkpt><trkpt lat="43.68752592925725" lon="10.541636350034967"><ele>12.2</ele><time>2026-04-05T08:28:49.998Z</time></trkpt><trkpt lat="43.68755781739755" lon="10.541529815184916"><ele>12.0</ele><time>2026-04-05T08:28:51.998Z</time></trkpt><trkpt lat="43.68758108538163" lon="10.541419303724645"><ele>12.0</ele><time>2026-04-05T08:28:53.998Z</time></trkpt><trkpt lat="43.687605157839975" lon="10.541309028687126"><ele>12.0</ele><time>2026-04-05T08:28:55.998Z</time></trkpt><trkpt lat="43.68763650107378" lon="10.541193175098904"><ele>12.0</ele><time>2026-04-05T08:28:57.998Z</time></trkpt><trkpt lat="43.68766403816091" lon="10.541072176169449"><ele>12.0</ele><time>2026-04-05T08:28:59.998Z</time></trkpt><trkpt lat="43.687687455740466" lon="10.540971736862707"><ele>12.0</ele><time>2026-04-05T08:29:01.998Z</time></trkpt><trkpt lat="43.68771807867169" lon="10.54083943220694"><ele>12.0</ele><time>2026-04-05T08:29:03.998Z</time></trkpt><trkpt lat="43.6877573202295" lon="10.540722804898099"><ele>15.0</ele><time>2026-04-05T08:29:05.998Z</time></trkpt><trkpt lat="43.687784441887906" lon="10.540589710079821"><ele>18.0</ele><time>2026-04-05T08:29:07.998Z</time></trkpt><trkpt lat="43.68781016158002" lon="10.540462147550864"><ele>21.000000000000004</ele><time>2026-04-05T08:29:09.998Z</time></trkpt><trkpt lat="43.68783222506065" lon="10.540325760380872"><ele>24.0</ele><time>2026-04-05T08:29:11.998Z</time></trkpt><trkpt lat="43.687861059598944" lon="10.540199398608562"><ele>27.0</ele><time>2026-04-05T08:29:13.998Z</time></trkpt><trkpt lat="43.687889665951126" lon="10.540073020786268"><ele>27.0</ele><time>2026-04-05T08:29:15.998Z</time></trkpt><trkpt lat="43.68791882685011" lon="10.539944069336407"><ele>27.0</ele><time>2026-04-05T08:29:17.998Z</time></trkpt><trkpt lat="43.687946718479736" lon="10.539820730812268"><ele>27.0</ele><time>2026-04-05T08:29:20Z</time></trkpt><trkpt lat="43.68797186838139" lon="10.539709513389313"><ele>27.0</ele><time>2026-04-05T08:29:22Z</time></trkpt><trkpt lat="43.68800767529626" lon="10.53960565159948"><ele>27.0</ele><time>2026-04-05T08:29:24Z</time></trkpt><trkpt lat="43.68802906382142" lon="10.53950216320243"><ele>27.0</ele><time>2026-04-05T08:29:26Z</time></trkpt><trkpt lat="43.68804608755455" lon="10.53937867238615"><ele>25.8</ele><time>2026-04-05T08:29:28Z</time></trkpt><trkpt lat="43.68808609870048" lon="10.539264371659053"><ele>24.6</ele><time>2026-04-05T08:29:30Z</time></trkpt><trkpt lat="43.688113313419294" lon="10.539141346305167"><ele>23.400000000000002</ele><time>2026-04-05T08:29:32Z</time></trkpt><trkpt lat="43.68814105355549" lon="10.539007865422594"><ele>22.200000000000003</ele><time>2026-04-05T08:29:34Z</time></trkpt><trkpt lat="43.68816398541633" lon="10.538880161711667"><ele>21.0</ele><time>2026-04-05T08:29:36Z</time></trkpt><trkpt lat="43.68819815352126" lon="10.538732731841186"><ele>20.2</ele><time>2026-04-05T08:29:38Z</time></trkpt><trkpt lat="43.68822332424166" lon="10.538596009279"><ele>19.400000000000002</ele><time>2026-04-05T08:29:40Z</time></trkpt><trkpt lat="43.68825385533138" lon="10.538460964958222"><ele>18.6</ele><time>2026-04-05T08:29:42Z</time></trkpt><trkpt lat="43.68828593028778" lon="10.53833437546073"><ele>17.8</ele><time>2026-04-05T08:29:44Z</time></trkpt><trkpt lat="43.68832271826779" lon="10.538211017891474"><ele>17.0</ele><time>2026-04-05T08:29:46Z</time></trkpt><trkpt lat="43.68835139552804" lon="10.538081581722489"><ele>17.0</ele><time>2026-04-05T08:29:48Z</time></trkpt><trkpt lat="43.688376860878094" lon="10.537956227910016"><ele>17.0</ele><time>2026-04-05T08:29:50Z</time></trkpt><trkpt lat="43.68840708340507" lon="10.537829888520461"><ele>17.0</ele><time>2026-04-05T08:29:52Z</time></trkpt><trkpt lat="43.688427890927564" lon="10.537705295142706"><ele>17.0</ele><time>2026-04-05T08:29:54Z</time></trkpt><trkpt lat="43.68845017942143" lon="10.537590138545434"><ele>17.0</ele><time>2026-04-05T08:29:55.999Z</time></trkpt><trkpt lat="43.68848528803632" lon="10.537464816167908"><ele>16.666666666666668</ele><time>2026-04-05T08:29:57.999Z</time></trkpt><trkpt lat="43.688506597102794" lon="10.537352576559453"><ele>16.333333333333336</ele><time>2026-04-05T08:29:59.999Z</time></trkpt><trkpt lat="43.688541655693356" lon="10.53724020407076"><ele>16.0</ele><time>2026-04-05T08:30:01.999Z</time></trkpt><trkpt lat="43.68857137060451" lon="10.537129562848559"><ele>15.666666666666668</ele><time>2026-04-05T08:30:03.999Z</time></trkpt><trkpt lat="43.688579946525294" lon="10.537009178198984"><ele>15.333333333333334</ele><time>2026-04-05T08:30:05.999Z</time></trkpt><trkpt lat="43.68860958438065" lon="10.53691135203112"><ele>15.0</ele><time>2026-04-05T08:30:07.999Z</time></trkpt><trkpt lat="43.68862878641731" lon="10.536791635575112"><ele>14.666666666666666</ele><time>2026-04-05T08:30:09.999Z</time></trkpt><trkpt lat="43.68866677981719" lon="10.536674222397382"><ele>14.333333333333332</ele><time>2026-04-05T08:30:11.999Z</time></trkpt><trkpt lat="43.68869966290196" lon="10.536549674797449"><ele>14.0</ele><time>2026-04-05T08:30:13.999Z</time></trkpt><trkpt lat="43.688730013255274" lon="10.536434280460233"><ele>13.666666666666666</ele><time>2026-04-05T08:30:15.999Z</time></trkpt><trkpt lat="43.68875454146298" lon="10.536323168473592"><ele>13.333333333333332</ele><time>2026-04-05T08:30:17.999Z</time></trkpt><trkpt lat="43.68878509936241" lon="10.536224044416466"><ele>13.0</ele><time>2026-04-05T08:30:19.999Z</time></trkpt><trkpt lat="43.68875972817875" lon="10.536135414423615"><ele>12.999999999999998</ele><time>2026-04-05T08:31:10.998Z</time></trkpt><trkpt lat="43.688773760292655" lon="10.536024825606736"><ele>13.0</ele><time>2026-04-05T08:31:15.998Z</time></trkpt><trkpt lat="43.68879512064128" lon="10.535932859084129"><ele>13.0</ele><time>2026-04-05T08:31:17.998Z</time></trkpt><trkpt lat="43.6888190577121" lon="10.535825083373792"><ele>13.0</ele><time>2026-04-05T08:31:19.998Z</time></trkpt><trkpt lat="43.68883982222" lon="10.535711523815918"><ele>12.999999999999998</ele><time>2026-04-05T08:31:21.998Z</time></trkpt><trkpt lat="43.68886341305375" lon="10.535587111873035"><ele>13.0</ele><time>2026-04-05T08:31:23.998Z</time></trkpt><trkpt lat="43.68889647124501" lon="10.535465714991203"><ele>13.2</ele><time>2026-04-05T08:31:26Z</time></trkpt><trkpt lat="43.68892146806832" lon="10.535341028208864"><ele>13.4</ele><time>2026-04-05T08:31:28Z</time></trkpt><trkpt lat="43.68894838795552" lon="10.535218393947671"><ele>13.599999999999998</ele><time>2026-04-05T08:31:30Z</time></trkpt><trkpt lat="43.688977456480195" lon="10.535084031979366"><ele>13.799999999999999</ele><time>2026-04-05T08:31:32Z</time></trkpt><trkpt lat="43.689009090843655" lon="10.534957698322632"><ele>14.0</ele><time>2026-04-05T08:31:34Z</time></trkpt><trkpt lat="43.68904551995721" lon="10.534823417000823"><ele>14.0</ele><time>2026-04-05T08:31:36Z</time></trkpt><trkpt lat="43.68906669496884" lon="10.534698492521864"><ele>13.999999999999998</ele><time>2026-04-05T08:31:38Z</time></trkpt><trkpt lat="43.689099963977235" lon="10.534554989361272"><ele>13.999999999999998</ele><time>2026-04-05T08:31:40Z</time></trkpt><trkpt lat="43.68913171875163" lon="10.534423821656699"><ele>14.0</ele><time>2026-04-05T08:31:42Z</time></trkpt><trkpt lat="43.68916096957649" lon="10.534285830424421"><ele>14.0</ele><time>2026-04-05T08:31:44Z</time></trkpt><trkpt lat="43.68919496094414" lon="10.534150504984458"><ele>13.799999999999999</ele><time>2026-04-05T08:31:46Z</time></trkpt><trkpt lat="43.68922171677182" lon="10.534015021839874"><ele>13.599999999999998</ele><time>2026-04-05T08:31:48Z</time></trkpt><trkpt lat="43.68924857339516" lon="10.533874061154355"><ele>13.4</ele><time>2026-04-05T08:31:50Z</time></trkpt><trkpt lat="43.68927971136351" lon="10.533740394827424"><ele>13.2</ele><time>2026-04-05T08:31:52Z</time></trkpt><trkpt lat="43.689312980331124" lon="10.533589792045746"><ele>13.0</ele><time>2026-04-05T08:31:54Z</time></trkpt><trkpt lat="43.689351185468034" lon="10.533445208189736"><ele>13.0</ele><time>2026-04-05T08:31:56Z</time></trkpt><trkpt lat="43.68938319784339" lon="10.53329867041462"><ele>13.0</ele><time>2026-04-05T08:31:57.999Z</time></trkpt><trkpt lat="43.68941188832094" lon="10.533150154092564"><ele>13.0</ele><time>2026-04-05T08:31:59.999Z</time></trkpt><trkpt lat="43.68945003557984" lon="10.533004987960126"><ele>13.0</ele><time>2026-04-05T08:32:01.999Z</time></trkpt><trkpt lat="43.68948002373543" lon="10.532860958999484"><ele>13.0</ele><time>2026-04-05T08:32:03.999Z</time></trkpt><trkpt lat="43.6895063932381" lon="10.532721032565844"><ele>13.0</ele><time>2026-04-05T08:32:05.999Z</time></trkpt><trkpt lat="43.689544417443145" lon="10.532575131299732"><ele>13.0</ele><time>2026-04-05T08:32:07.999Z</time></trkpt><trkpt lat="43.689577115741145" lon="10.532426046974177"><ele>13.0</ele><time>2026-04-05T08:32:09.999Z</time></trkpt><trkpt lat="43.689611103318335" lon="10.532282207096547"><ele>13.0</ele><time>2026-04-05T08:32:11.999Z</time></trkpt><trkpt lat="43.68964000629592" lon="10.532140575490596"><ele>13.0</ele><time>2026-04-05T08:32:13.999Z</time></trkpt><trkpt lat="43.689675579417134" lon="10.531992539266149"><ele>13.4</ele><time>2026-04-05T08:32:15.999Z</time></trkpt><trkpt lat="43.68971679012873" lon="10.531841995250302"><ele>13.8</ele><time>2026-04-05T08:32:17.999Z</time></trkpt><trkpt lat="43.68974701872325" lon="10.531702797200504"><ele>14.2</ele><time>2026-04-05T08:32:19.999Z</time></trkpt><trkpt lat="43.68977475636639" lon="10.531557069788962"><ele>14.6</ele><time>2026-04-05T08:32:21.999Z</time></trkpt><trkpt lat="43.689809605850314" lon="10.531411368403537"><ele>15.0</ele><time>2026-04-05T08:32:23.999Z</time></trkpt><trkpt lat="43.68984316534609" lon="10.53126310473402"><ele>15.25</ele><time>2026-04-05T08:32:25.999Z</time></trkpt><trkpt lat="43.689879641501875" lon="10.531112672464104"><ele>15.5</ele><time>2026-04-05T08:32:27.999Z</time></trkpt><trkpt lat="43.689915535443454" lon="10.53096108498193"><ele>15.75</ele><time>2026-04-05T08:32:29.999Z</time></trkpt><trkpt lat="43.68995097010911" lon="10.530814657669378"><ele>16.0</ele><time>2026-04-05T08:32:31.999Z</time></trkpt><trkpt lat="43.68997435618208" lon="10.530667274460265"><ele>16.0</ele><time>2026-04-05T08:32:33.999Z</time></trkpt><trkpt lat="43.69001126712857" lon="10.530522897352744"><ele>16.0</ele><time>2026-04-05T08:32:35.999Z</time></trkpt><trkpt lat="43.69004746769083" lon="10.530370028451319"><ele>16.0</ele><time>2026-04-05T08:32:37.999Z</time></trkpt><trkpt lat="43.69007862643832" lon="10.530218228650556"><ele>16.0</ele><time>2026-04-05T08:32:39.999Z</time></trkpt><trkpt lat="43.690115924674245" lon="10.530071449794393"><ele>15.8</ele><time>2026-04-05T08:32:41.999Z</time></trkpt><trkpt lat="43.69015566610498" lon="10.529926688207215"><ele>15.600000000000001</ele><time>2026-04-05T08:32:43.999Z</time></trkpt><trkpt lat="43.690187725777676" lon="10.529793396453362"><ele>15.4</ele><time>2026-04-05T08:32:45.998Z</time></trkpt><trkpt lat="43.690222369987985" lon="10.52964539001537"><ele>15.2</ele><time>2026-04-05T08:32:47.998Z</time></trkpt><trkpt lat="43.6902551166394" lon="10.529496479268229"><ele>15.0</ele><time>2026-04-05T08:32:49.998Z</time></trkpt><trkpt lat="43.690288009306215" lon="10.529350236075192"><ele>15.5</ele><time>2026-04-05T08:32:51.998Z</time></trkpt><trkpt lat="43.690320448551915" lon="10.52920112025446"><ele>16.0</ele><time>2026-04-05T08:32:53.998Z</time></trkpt><trkpt lat="43.690352906875326" lon="10.529050001890395"><ele>16.5</ele><time>2026-04-05T08:32:55.998Z</time></trkpt><trkpt lat="43.69038466282555" lon="10.528909944801274"><ele>17.0</ele><time>2026-04-05T08:32:57.998Z</time></trkpt><trkpt lat="43.69042727731065" lon="10.528757004513366"><ele>17.2</ele><time>2026-04-05T08:32:59.998Z</time></trkpt><trkpt lat="43.69046270297633" lon="10.528616646039605"><ele>17.4</ele><time>2026-04-05T08:33:01.998Z</time></trkpt><trkpt lat="43.69050199606253" lon="10.528469524731712"><ele>17.6</ele><time>2026-04-05T08:33:03.998Z</time></trkpt><trkpt lat="43.69053848967787" lon="10.528339379929433"><ele>17.8</ele><time>2026-04-05T08:33:05.998Z</time></trkpt><trkpt lat="43.69057597704171" lon="10.528202628932231"><ele>18.0</ele><time>2026-04-05T08:33:07.998Z</time></trkpt><trkpt lat="43.69062081023839" lon="10.528078374008164"><ele>18.0</ele><time>2026-04-05T08:33:09.998Z</time></trkpt><trkpt lat="43.6906564685437" lon="10.527987417865694"><ele>18.0</ele><time>2026-04-05T08:33:10.998Z</time></trkpt><trkpt lat="43.69070698691308" lon="10.527860596013715"><ele>18.0</ele><time>2026-04-05T08:33:12.998Z</time></trkpt><trkpt lat="43.69074904373824" lon="10.527738561787853"><ele>18.0</ele><time>2026-04-05T08:33:14.998Z</time></trkpt><trkpt lat="43.69080258080542" lon="10.527594370373702"><ele>18.0</ele><time>2026-04-05T08:33:16.998Z</time></trkpt><trkpt lat="43.69087073791145" lon="10.527456474348796"><ele>17.8</ele><time>2026-04-05T08:33:18.998Z</time></trkpt><trkpt lat="43.690935390780595" lon="10.527329147427581"><ele>17.6</ele><time>2026-04-05T08:33:20.998Z</time></trkpt><trkpt lat="43.690986334636406" lon="10.52719531750759"><ele>17.4</ele><time>2026-04-05T08:33:22.998Z</time></trkpt><trkpt lat="43.69104013450986" lon="10.527062781399884"><ele>17.2</ele><time>2026-04-05T08:33:24.998Z</time></trkpt><trkpt lat="43.69110322187924" lon="10.526936936633804"><ele>17.0</ele><time>2026-04-05T08:33:26.998Z</time></trkpt><trkpt lat="43.691165771819676" lon="10.526813151756864"><ele>17.4</ele><time>2026-04-05T08:33:28.998Z</time></trkpt><trkpt lat="43.691235285884254" lon="10.526700440676194"><ele>17.799999999999997</ele><time>2026-04-05T08:33:31Z</time></trkpt><trkpt lat="43.691306421446114" lon="10.526594221025501"><ele>18.2</ele><time>2026-04-05T08:33:33Z</time></trkpt><trkpt lat="43.691383090076094" lon="10.526495694621495"><ele>18.599999999999998</ele><time>2026-04-05T08:33:35Z</time></trkpt><trkpt lat="43.691464721306815" lon="10.526398756215112"><ele>19.0</ele><time>2026-04-05T08:33:37Z</time></trkpt><trkpt lat="43.691545049888546" lon="10.52629989670642"><ele>17.8</ele><time>2026-04-05T08:33:39Z</time></trkpt><trkpt lat="43.69162307192407" lon="10.526194703028857"><ele>16.599999999999998</ele><time>2026-04-05T08:33:41Z</time></trkpt><trkpt lat="43.69170892062587" lon="10.526104625872225"><ele>15.4</ele><time>2026-04-05T08:33:43Z</time></trkpt><trkpt lat="43.69178014220267" lon="10.525993750414685"><ele>14.2</ele><time>2026-04-05T08:33:45Z</time></trkpt><trkpt lat="43.69187527992669" lon="10.525944210818858"><ele>13.0</ele><time>2026-04-05T08:33:47Z</time></trkpt><trkpt lat="43.6919395627232" lon="10.525839487584726"><ele>15.2</ele><time>2026-04-05T08:33:49Z</time></trkpt><trkpt lat="43.691998672071136" lon="10.525735145620189"><ele>17.4</ele><time>2026-04-05T08:33:51Z</time></trkpt><trkpt lat="43.69205787112979" lon="10.525620903683384"><ele>19.599999999999998</ele><time>2026-04-05T08:33:53Z</time></trkpt><trkpt lat="43.6921015200723" lon="10.52549429852204"><ele>21.8</ele><time>2026-04-05T08:33:55Z</time></trkpt><trkpt lat="43.692148324209946" lon="10.525369190872416"><ele>24.0</ele><time>2026-04-05T08:33:57Z</time></trkpt><trkpt lat="43.69219263339086" lon="10.525235655204513"><ele>24.0</ele><time>2026-04-05T08:33:59Z</time></trkpt><trkpt lat="43.692235843597615" lon="10.525101937253115"><ele>24.0</ele><time>2026-04-05T08:34:01Z</time></trkpt><trkpt lat="43.69228383389561" lon="10.5249786920234"><ele>24.0</ele><time>2026-04-05T08:34:03Z</time></trkpt><trkpt lat="43.69232657446974" lon="10.524839588839441"><ele>24.0</ele><time>2026-04-05T08:34:04.999Z</time></trkpt><trkpt lat="43.69237283515568" lon="10.524707465190044"><ele>24.0</ele><time>2026-04-05T08:34:06.999Z</time></trkpt><trkpt lat="43.69241590681681" lon="10.524577702259414"><ele>23.4</ele><time>2026-04-05T08:34:08.999Z</time></trkpt><trkpt lat="43.69246595260633" lon="10.524443183072226"><ele>22.799999999999997</ele><time>2026-04-05T08:34:10.999Z</time></trkpt><trkpt lat="43.69251395673541" lon="10.524306975322908"><ele>22.200000000000003</ele><time>2026-04-05T08:34:12.999Z</time></trkpt><trkpt lat="43.69255107396754" lon="10.524170976624742"><ele>21.6</ele><time>2026-04-05T08:34:14.999Z</time></trkpt><trkpt lat="43.69259011227973" lon="10.524043466869838"><ele>21.0</ele><time>2026-04-05T08:34:16.999Z</time></trkpt><trkpt lat="43.692627258050166" lon="10.523925401284052"><ele>21.0</ele><time>2026-04-05T08:34:18.999Z</time></trkpt><trkpt lat="43.69267356518722" lon="10.523810391781424"><ele>21.0</ele><time>2026-04-05T08:34:20.999Z</time></trkpt><trkpt lat="43.692714320043436" lon="10.52368565683887"><ele>21.0</ele><time>2026-04-05T08:34:22.999Z</time></trkpt><trkpt lat="43.692747706275426" lon="10.52355432550514"><ele>21.0</ele><time>2026-04-05T08:34:24.999Z</time></trkpt><trkpt lat="43.692780027627784" lon="10.523426080888477"><ele>21.0</ele><time>2026-04-05T08:34:26.999Z</time></trkpt><trkpt lat="43.69282041384539" lon="10.523303137265795"><ele>20.6</ele><time>2026-04-05T08:34:28.999Z</time></trkpt><trkpt lat="43.69285407793592" lon="10.523175575179705"><ele>20.200000000000003</ele><time>2026-04-05T08:34:30.999Z</time></trkpt><trkpt lat="43.69289941595786" lon="10.523050891932826"><ele>19.799999999999997</ele><time>2026-04-05T08:34:32.999Z</time></trkpt><trkpt lat="43.692946166448486" lon="10.522921632141292"><ele>19.4</ele><time>2026-04-05T08:34:34.999Z</time></trkpt><trkpt lat="43.692992892180534" lon="10.522784154641158"><ele>19.0</ele><time>2026-04-05T08:34:36.999Z</time></trkpt><trkpt lat="43.693042418130496" lon="10.522647350970269"><ele>18.5</ele><time>2026-04-05T08:34:38.999Z</time></trkpt><trkpt lat="43.693095239420295" lon="10.522512094209505"><ele>18.0</ele><time>2026-04-05T08:34:40.999Z</time></trkpt><trkpt lat="43.69314472577439" lon="10.522372761600359"><ele>17.5</ele><time>2026-04-05T08:34:42.999Z</time></trkpt><trkpt lat="43.69319587876569" lon="10.522226698228499"><ele>17.0</ele><time>2026-04-05T08:34:44.999Z</time></trkpt><trkpt lat="43.69325160048759" lon="10.522080785526786"><ele>16.166666666666668</ele><time>2026-04-05T08:34:46.999Z</time></trkpt><trkpt lat="43.6933078681808" lon="10.521935941298803"><ele>15.333333333333334</ele><time>2026-04-05T08:34:48.999Z</time></trkpt><trkpt lat="43.693361533746156" lon="10.521784725154456"><ele>14.5</ele><time>2026-04-05T08:34:50.999Z</time></trkpt><trkpt lat="43.69339214594893" lon="10.521707575051071"><ele>13.666666666666668</ele><time>2026-04-05T08:34:51.999Z</time></trkpt><trkpt lat="43.693419031261755" lon="10.521626054951332"><ele>12.833333333333334</ele><time>2026-04-05T08:34:52.999Z</time></trkpt><trkpt lat="43.69344831277276" lon="10.52154602216678"><ele>12.0</ele><time>2026-04-05T08:34:53.998Z</time></trkpt><trkpt lat="43.69347966575774" lon="10.521466902170229"><ele>11.999999999999998</ele><time>2026-04-05T08:34:54.998Z</time></trkpt><trkpt lat="43.69351141159487" lon="10.521390805813354"><ele>12.0</ele><time>2026-04-05T08:34:55.998Z</time></trkpt><trkpt lat="43.693544815711405" lon="10.521314266814272"><ele>12.0</ele><time>2026-04-05T08:34:56.998Z</time></trkpt><trkpt lat="43.69361553411383" lon="10.521170581896243"><ele>12.0</ele><time>2026-04-05T08:34:58.998Z</time></trkpt><trkpt lat="43.69366301967647" lon="10.521112242659145"><ele>12.0</ele><time>2026-04-05T08:34:59.998Z</time></trkpt><trkpt lat="43.693714411804464" lon="10.521061171473047"><ele>11.999999999999998</ele><time>2026-04-05T08:35:00.998Z</time></trkpt><trkpt lat="43.693767323868805" lon="10.521013795826464"><ele>12.0</ele><time>2026-04-05T08:35:01.998Z</time></trkpt><trkpt lat="43.69381779276436" lon="10.520960955764801"><ele>12.6</ele><time>2026-04-05T08:35:02.998Z</time></trkpt><trkpt lat="43.69387156204282" lon="10.520915452470147"><ele>13.2</ele><time>2026-04-05T08:35:03.998Z</time></trkpt><trkpt lat="43.69392439605075" lon="10.520867004879467"><ele>13.8</ele><time>2026-04-05T08:35:04.998Z</time></trkpt><trkpt lat="43.694025799771936" lon="10.52077234906498"><ele>14.4</ele><time>2026-04-05T08:35:06.998Z</time></trkpt><trkpt lat="43.69412449191422" lon="10.520681587205837"><ele>15.0</ele><time>2026-04-05T08:35:08.998Z</time></trkpt><trkpt lat="43.69421902844643" lon="10.52059251804028"><ele>15.0</ele><time>2026-04-05T08:35:10.998Z</time></trkpt><trkpt lat="43.69430954938424" lon="10.520505318835898"><ele>15.0</ele><time>2026-04-05T08:35:12.998Z</time></trkpt><trkpt lat="43.694396951607445" lon="10.520415631393318"><ele>15.0</ele><time>2026-04-05T08:35:14.998Z</time></trkpt><trkpt lat="43.6944872399612" lon="10.520327336656647"><ele>15.0</ele><time>2026-04-05T08:35:16.998Z</time></trkpt><trkpt lat="43.69458029313028" lon="10.520236485471143"><ele>15.0</ele><time>2026-04-05T08:35:18.998Z</time></trkpt><trkpt lat="43.69467400488081" lon="10.52014287526604"><ele>14.5</ele><time>2026-04-05T08:35:20.998Z</time></trkpt><trkpt lat="43.69476681853153" lon="10.520048339288998"><ele>14.0</ele><time>2026-04-05T08:35:22.998Z</time></trkpt><trkpt lat="43.69486326857235" lon="10.519952870014947"><ele>13.5</ele><time>2026-04-05T08:35:24.998Z</time></trkpt><trkpt lat="43.69496640203471" lon="10.519873495066582"><ele>13.0</ele><time>2026-04-05T08:35:26.998Z</time></trkpt><trkpt lat="43.69507195749315" lon="10.519794980725546"><ele>13.0</ele><time>2026-04-05T08:35:28.998Z</time></trkpt><trkpt lat="43.695176166355424" lon="10.519716539378576"><ele>13.0</ele><time>2026-04-05T08:35:30.998Z</time></trkpt><trkpt lat="43.69527922916835" lon="10.519640698692795"><ele>13.0</ele><time>2026-04-05T08:35:32.998Z</time></trkpt><trkpt lat="43.69537657401164" lon="10.519563231822943"><ele>13.0</ele><time>2026-04-05T08:35:34.998Z</time></trkpt><trkpt lat="43.69547274986245" lon="10.51947987263924"><ele>13.25</ele><time>2026-04-05T08:35:37Z</time></trkpt><trkpt lat="43.69556733148853" lon="10.519396933407812"><ele>13.5</ele><time>2026-04-05T08:35:39Z</time></trkpt><trkpt lat="43.69566218163059" lon="10.519314623946888"><ele>13.75</ele><time>2026-04-05T08:35:41Z</time></trkpt><trkpt lat="43.69575808210648" lon="10.519236327741675"><ele>14.0</ele><time>2026-04-05T08:35:43Z</time></trkpt><trkpt lat="43.695861387239376" lon="10.519167972881437"><ele>14.0</ele><time>2026-04-05T08:35:45Z</time></trkpt><trkpt lat="43.69596625075583" lon="10.51911456750448"><ele>14.0</ele><time>2026-04-05T08:35:47Z</time></trkpt><trkpt lat="43.69607635751775" lon="10.51907559635126"><ele>14.0</ele><time>2026-04-05T08:35:49Z</time></trkpt><trkpt lat="43.696186152703994" lon="10.519031467578209"><ele>14.0</ele><time>2026-04-05T08:35:51Z</time></trkpt><trkpt lat="43.696294277096165" lon="10.518988796994826"><ele>13.399999999999999</ele><time>2026-04-05T08:35:53Z</time></trkpt><trkpt lat="43.696402937908324" lon="10.518941515993717"><ele>12.799999999999999</ele><time>2026-04-05T08:35:55Z</time></trkpt><trkpt lat="43.69650802894319" lon="10.518889709943409"><ele>12.2</ele><time>2026-04-05T08:35:57Z</time></trkpt><trkpt lat="43.696609365474714" lon="10.518836028793757"><ele>11.600000000000001</ele><time>2026-04-05T08:35:59Z</time></trkpt><trkpt lat="43.696711536214636" lon="10.518778951055843"><ele>11.0</ele><time>2026-04-05T08:36:01Z</time></trkpt><trkpt lat="43.69681069613257" lon="10.518710124485237"><ele>11.0</ele><time>2026-04-05T08:36:03Z</time></trkpt><trkpt lat="43.69690819828213" lon="10.518642124896422"><ele>11.0</ele><time>2026-04-05T08:36:05Z</time></trkpt><trkpt lat="43.69700473585827" lon="10.518558760959245"><ele>11.0</ele><time>2026-04-05T08:36:07Z</time></trkpt><trkpt lat="43.69710314569258" lon="10.518475742989278"><ele>11.0</ele><time>2026-04-05T08:36:08.999Z</time></trkpt><trkpt lat="43.69719681451321" lon="10.518384647349029"><ele>12.333333333333332</ele><time>2026-04-05T08:36:10.999Z</time></trkpt><trkpt lat="43.697291036319925" lon="10.518285918117595"><ele>13.666666666666666</ele><time>2026-04-05T08:36:12.999Z</time></trkpt><trkpt lat="43.69738766922235" lon="10.51818433460982"><ele>15.0</ele><time>2026-04-05T08:36:14.999Z</time></trkpt><trkpt lat="43.69744039765031" lon="10.518128896094753"><ele>16.333333333333332</ele><time>2026-04-05T08:36:15.999Z</time></trkpt><trkpt lat="43.69749356723897" lon="10.518072384842755"><ele>17.666666666666664</ele><time>2026-04-05T08:36:16.999Z</time></trkpt><trkpt lat="43.697548297784195" lon="10.518013302698938"><ele>19.0</ele><time>2026-04-05T08:36:17.999Z</time></trkpt><trkpt lat="43.6976046445768" lon="10.51795255998093"><ele>18.5</ele><time>2026-04-05T08:36:18.999Z</time></trkpt><trkpt lat="43.697717447742036" lon="10.517833809576143"><ele>18.0</ele><time>2026-04-05T08:36:20.999Z</time></trkpt><trkpt lat="43.6977769854179" lon="10.517775184614246"><ele>17.5</ele><time>2026-04-05T08:36:21.999Z</time></trkpt><trkpt lat="43.69783960331098" lon="10.51772355959603"><ele>17.0</ele><time>2026-04-05T08:36:22.999Z</time></trkpt><trkpt lat="43.69790528504611" lon="10.517678920203464"><ele>16.5</ele><time>2026-04-05T08:36:23.999Z</time></trkpt><trkpt lat="43.69796880551628" lon="10.517636433704931"><ele>16.0</ele><time>2026-04-05T08:36:24.999Z</time></trkpt><trkpt lat="43.69803351135803" lon="10.5175984767822"><ele>16.0</ele><time>2026-04-05T08:36:25.999Z</time></trkpt><trkpt lat="43.69809760803348" lon="10.517562198712247"><ele>15.999999999999998</ele><time>2026-04-05T08:36:26.999Z</time></trkpt><trkpt lat="43.698160594016045" lon="10.51752254545806"><ele>16.0</ele><time>2026-04-05T08:36:27.999Z</time></trkpt><trkpt lat="43.69821804034533" lon="10.517476804214553"><ele>16.0</ele><time>2026-04-05T08:36:28.999Z</time></trkpt><trkpt lat="43.69827513180819" lon="10.517431773686962"><ele>15.999999999999998</ele><time>2026-04-05T08:36:29.999Z</time></trkpt><trkpt lat="43.69832817310588" lon="10.51738113358617"><ele>16.0</ele><time>2026-04-05T08:36:30.999Z</time></trkpt><trkpt lat="43.69838160502435" lon="10.51732924141945"><ele>16.0</ele><time>2026-04-05T08:36:31.999Z</time></trkpt><trkpt lat="43.69843848763681" lon="10.517275749964455"><ele>16.0</ele><time>2026-04-05T08:36:32.999Z</time></trkpt><trkpt lat="43.69848926486416" lon="10.517209069971358"><ele>15.999999999999998</ele><time>2026-04-05T08:36:33.999Z</time></trkpt><trkpt lat="43.698544259434605" lon="10.517156334126323"><ele>16.0</ele><time>2026-04-05T08:36:34.999Z</time></trkpt><trkpt lat="43.69859859303984" lon="10.517097742962543"><ele>16.0</ele><time>2026-04-05T08:36:35.999Z</time></trkpt><trkpt lat="43.698651412950724" lon="10.517036654816675"><ele>15.999999999999998</ele><time>2026-04-05T08:36:36.999Z</time></trkpt><trkpt lat="43.69870662071769" lon="10.516976923053619"><ele>16.0</ele><time>2026-04-05T08:36:37.999Z</time></trkpt><trkpt lat="43.69875904003551" lon="10.516917303998445"><ele>16.0</ele><time>2026-04-05T08:36:38.999Z</time></trkpt><trkpt lat="43.69881333283095" lon="10.516859533872433"><ele>16.0</ele><time>2026-04-05T08:36:39.999Z</time></trkpt><trkpt lat="43.698865540169294" lon="10.516799020935228"><ele>15.999999999999998</ele><time>2026-04-05T08:36:40.999Z</time></trkpt><trkpt lat="43.698915138743445" lon="10.516734713554436"><ele>16.0</ele><time>2026-04-05T08:36:41.999Z</time></trkpt><trkpt lat="43.698965444551526" lon="10.516669348847342"><ele>16.0</ele><time>2026-04-05T08:36:42.999Z</time></trkpt><trkpt lat="43.69901129037799" lon="10.516602081883201"><ele>15.999999999999998</ele><time>2026-04-05T08:36:43.999Z</time></trkpt><trkpt lat="43.69905623068424" lon="10.516535140275586"><ele>16.0</ele><time>2026-04-05T08:36:44.999Z</time></trkpt><trkpt lat="43.699101064751005" lon="10.516470909917143"><ele>16.0</ele><time>2026-04-05T08:36:45.999Z</time></trkpt><trkpt lat="43.699147594601044" lon="10.516408215380883"><ele>16.0</ele><time>2026-04-05T08:36:46.999Z</time></trkpt><trkpt lat="43.699195687380154" lon="10.51634649608149"><ele>15.999999999999998</ele><time>2026-04-05T08:36:47.999Z</time></trkpt><trkpt lat="43.69924137681253" lon="10.516283274725232"><ele>16.0</ele><time>2026-04-05T08:36:48.999Z</time></trkpt><trkpt lat="43.69928691282429" lon="10.516217853635936"><ele>16.0</ele><time>2026-04-05T08:36:49.999Z</time></trkpt><trkpt lat="43.69933375951749" lon="10.51615509811264"><ele>15.999999999999998</ele><time>2026-04-05T08:36:50.999Z</time></trkpt><trkpt lat="43.69938005910057" lon="10.516094193103728"><ele>16.0</ele><time>2026-04-05T08:36:51.999Z</time></trkpt><trkpt lat="43.699426944208696" lon="10.516036083603904"><ele>16.0</ele><time>2026-04-05T08:36:52.999Z</time></trkpt><trkpt lat="43.69947418885627" lon="10.515976982347048"><ele>17.5</ele><time>2026-04-05T08:36:53.999Z</time></trkpt><trkpt lat="43.69955457143957" lon="10.51586063429105"><ele>19.0</ele><time>2026-04-05T08:36:55.999Z</time></trkpt><trkpt lat="43.699630609098946" lon="10.51574020573449"><ele>20.5</ele><time>2026-04-05T08:36:57.998Z</time></trkpt><trkpt lat="43.69970404233746" lon="10.515632321878316"><ele>22.0</ele><time>2026-04-05T08:36:59.998Z</time></trkpt><trkpt lat="43.699805076828326" lon="10.515569382088104"><ele>22.0</ele><time>2026-04-05T08:37:01.998Z</time></trkpt><trkpt lat="43.69990827355524" lon="10.515521468472652"><ele>22.0</ele><time>2026-04-05T08:37:03.998Z</time></trkpt><trkpt lat="43.69998152935492" lon="10.515400951489832"><ele>22.0</ele><time>2026-04-05T08:37:05.998Z</time></trkpt><trkpt lat="43.70002119581871" lon="10.515258334411893"><ele>22.0</ele><time>2026-04-05T08:37:07.998Z</time></trkpt><trkpt lat="43.700019122479404" lon="10.515115737596721"><ele>22.0</ele><time>2026-04-05T08:37:09.998Z</time></trkpt><trkpt lat="43.700126593164946" lon="10.514981808105235"><ele>21.0</ele><time>2026-04-05T08:37:11.998Z</time></trkpt><trkpt lat="43.70019389304337" lon="10.514955949806176"><ele>20.0</ele><time>2026-04-05T08:37:12.998Z</time></trkpt><trkpt lat="43.700286478877295" lon="10.514870236042073"><ele>19.0</ele><time>2026-04-05T08:37:14.998Z</time></trkpt><trkpt lat="43.7003743156938" lon="10.514777917496007"><ele>18.0</ele><time>2026-04-05T08:37:16.998Z</time></trkpt><trkpt lat="43.70044984389591" lon="10.514677199809393"><ele>17.0</ele><time>2026-04-05T08:37:18.998Z</time></trkpt><trkpt lat="43.70053014794209" lon="10.514574189352171"><ele>15.2</ele><time>2026-04-05T08:37:20.998Z</time></trkpt><trkpt lat="43.70060451902889" lon="10.51446825052116"><ele>13.399999999999999</ele><time>2026-04-05T08:37:22.998Z</time></trkpt><trkpt lat="43.70067747116" lon="10.514363991823329"><ele>11.600000000000001</ele><time>2026-04-05T08:37:24.998Z</time></trkpt><trkpt lat="43.70075105320093" lon="10.514263702515183"><ele>9.8</ele><time>2026-04-05T08:37:26.998Z</time></trkpt><trkpt lat="43.70083096982177" lon="10.514157239549457"><ele>8.0</ele><time>2026-04-05T08:37:28.998Z</time></trkpt><trkpt lat="43.70090835691554" lon="10.514056014562637"><ele>8.0</ele><time>2026-04-05T08:37:30.998Z</time></trkpt><trkpt lat="43.70098901639165" lon="10.513951171972614"><ele>8.0</ele><time>2026-04-05T08:37:32.998Z</time></trkpt><trkpt lat="43.70107015248828" lon="10.513850973841688"><ele>8.0</ele><time>2026-04-05T08:37:34.998Z</time></trkpt><trkpt lat="43.70114728520379" lon="10.51374750274622"><ele>8.0</ele><time>2026-04-05T08:37:36.998Z</time></trkpt><trkpt lat="43.701221307087344" lon="10.513640052936106"><ele>8.0</ele><time>2026-04-05T08:37:38.998Z</time></trkpt><trkpt lat="43.701300374610774" lon="10.513534110945407"><ele>9.0</ele><time>2026-04-05T08:37:40.998Z</time></trkpt><trkpt lat="43.70137505370076" lon="10.513441805352501"><ele>10.0</ele><time>2026-04-05T08:37:43Z</time></trkpt><trkpt lat="43.70145116872418" lon="10.513347135894447"><ele>11.0</ele><time>2026-04-05T08:37:45Z</time></trkpt><trkpt lat="43.70152148812462" lon="10.513244428505041"><ele>12.0</ele><time>2026-04-05T08:37:47Z</time></trkpt><trkpt lat="43.70159174552992" lon="10.513136881674994"><ele>13.0</ele><time>2026-04-05T08:37:49Z</time></trkpt><trkpt lat="43.701656097431744" lon="10.513033611865135"><ele>13.0</ele><time>2026-04-05T08:37:51Z</time></trkpt><trkpt lat="43.70171848890141" lon="10.512925811917626"><ele>13.0</ele><time>2026-04-05T08:37:53Z</time></trkpt><trkpt lat="43.701774117022794" lon="10.512807188599187"><ele>13.0</ele><time>2026-04-05T08:37:55Z</time></trkpt><trkpt lat="43.70182773690088" lon="10.512679064106933"><ele>13.0</ele><time>2026-04-05T08:37:57Z</time></trkpt><trkpt lat="43.70188566186572" lon="10.512557256949423"><ele>13.0</ele><time>2026-04-05T08:37:59Z</time></trkpt><trkpt lat="43.70193597972529" lon="10.512433536557431"><ele>15.0</ele><time>2026-04-05T08:38:01Z</time></trkpt><trkpt lat="43.70199035417637" lon="10.512307994279016"><ele>17.0</ele><time>2026-04-05T08:38:03Z</time></trkpt><trkpt lat="43.702042506695186" lon="10.512173048770102"><ele>19.0</ele><time>2026-04-05T08:38:05Z</time></trkpt><trkpt lat="43.70209297420717" lon="10.512037674363102"><ele>21.0</ele><time>2026-04-05T08:38:07Z</time></trkpt><trkpt lat="43.70213834948287" lon="10.511902230096405"><ele>23.0</ele><time>2026-04-05T08:38:09Z</time></trkpt><trkpt lat="43.70218121443825" lon="10.51176033834288"><ele>23.0</ele><time>2026-04-05T08:38:11Z</time></trkpt><trkpt lat="43.70222021097583" lon="10.511620667921369"><ele>23.0</ele><time>2026-04-05T08:38:13Z</time></trkpt><trkpt lat="43.70225533131108" lon="10.511470769622626"><ele>23.0</ele><time>2026-04-05T08:38:15Z</time></trkpt><trkpt lat="43.70229567091501" lon="10.511328599220322"><ele>23.0</ele><time>2026-04-05T08:38:17Z</time></trkpt><trkpt lat="43.7023316643956" lon="10.511186000467792"><ele>23.0</ele><time>2026-04-05T08:38:18.999Z</time></trkpt><trkpt lat="43.70237236364793" lon="10.511054821444406"><ele>22.4</ele><time>2026-04-05T08:38:20.999Z</time></trkpt><trkpt lat="43.70241408348462" lon="10.510920167841455"><ele>21.799999999999997</ele><time>2026-04-05T08:38:22.999Z</time></trkpt><trkpt lat="43.70245178298288" lon="10.510775895311602"><ele>21.2</ele><time>2026-04-05T08:38:24.999Z</time></trkpt><trkpt lat="43.702490115573596" lon="10.510631872746597"><ele>20.6</ele><time>2026-04-05T08:38:26.999Z</time></trkpt><trkpt lat="43.70253024816603" lon="10.510490920939674"><ele>20.0</ele><time>2026-04-05T08:38:28.999Z</time></trkpt><trkpt lat="43.702568298901255" lon="10.51034809875502"><ele>20.6</ele><time>2026-04-05T08:38:30.999Z</time></trkpt><trkpt lat="43.70260992758721" lon="10.510206183278042"><ele>21.2</ele><time>2026-04-05T08:38:32.999Z</time></trkpt><trkpt lat="43.702654372078314" lon="10.510064367089718"><ele>21.799999999999997</ele><time>2026-04-05T08:38:34.999Z</time></trkpt><trkpt lat="43.70270626369614" lon="10.50992630300935"><ele>22.4</ele><time>2026-04-05T08:38:36.999Z</time></trkpt><trkpt lat="43.70276277231623" lon="10.509789174266485"><ele>23.0</ele><time>2026-04-05T08:38:38.999Z</time></trkpt><trkpt lat="43.70282808700409" lon="10.509654932516344"><ele>22.4</ele><time>2026-04-05T08:38:40.999Z</time></trkpt><trkpt lat="43.70289774079863" lon="10.50952600431249"><ele>21.799999999999997</ele><time>2026-04-05T08:38:42.999Z</time></trkpt><trkpt lat="43.702964854518555" lon="10.509400778451898"><ele>21.2</ele><time>2026-04-05T08:38:44.999Z</time></trkpt><trkpt lat="43.703024644569176" lon="10.509283247025177"><ele>20.6</ele><time>2026-04-05T08:38:46.999Z</time></trkpt><trkpt lat="43.70307883026537" lon="10.509167279646315"><ele>20.0</ele><time>2026-04-05T08:38:48.999Z</time></trkpt><trkpt lat="43.70313660148879" lon="10.50905215233035"><ele>20.0</ele><time>2026-04-05T08:38:50.999Z</time></trkpt><trkpt lat="43.703198836680045" lon="10.508939270473798"><ele>20.0</ele><time>2026-04-05T08:38:52.999Z</time></trkpt><trkpt lat="43.70326389604711" lon="10.50881662070119"><ele>20.0</ele><time>2026-04-05T08:38:54.999Z</time></trkpt><trkpt lat="43.703340265796456" lon="10.508712841753965"><ele>20.0</ele><time>2026-04-05T08:38:56.999Z</time></trkpt><trkpt lat="43.703427535165275" lon="10.508621472698861"><ele>20.0</ele><time>2026-04-05T08:38:58.999Z</time></trkpt><trkpt lat="43.703512777764445" lon="10.508532132188858"><ele>18.6</ele><time>2026-04-05T08:39:00.999Z</time></trkpt><trkpt lat="43.70359720817685" lon="10.508432317942008"><ele>17.2</ele><time>2026-04-05T08:39:02.999Z</time></trkpt><trkpt lat="43.70368555535828" lon="10.508343487425917"><ele>15.8</ele><time>2026-04-05T08:39:04.999Z</time></trkpt><trkpt lat="43.70377571776199" lon="10.508254935858826"><ele>14.4</ele><time>2026-04-05T08:39:06.999Z</time></trkpt><trkpt lat="43.70386402414775" lon="10.508161497891944"><ele>13.0</ele><time>2026-04-05T08:39:08.999Z</time></trkpt><trkpt lat="43.70395569858037" lon="10.508068000163947"><ele>13.0</ele><time>2026-04-05T08:39:10.998Z</time></trkpt><trkpt lat="43.704041994091895" lon="10.507978764184339"><ele>13.0</ele><time>2026-04-05T08:39:12.998Z</time></trkpt><trkpt lat="43.704123387868776" lon="10.507884986453185"><ele>13.0</ele><time>2026-04-05T08:39:14.998Z</time></trkpt><trkpt lat="43.70420781374551" lon="10.507806055467679"><ele>13.0</ele><time>2026-04-05T08:39:16.998Z</time></trkpt><trkpt lat="43.704288436052295" lon="10.507723025228637"><ele>13.0</ele><time>2026-04-05T08:39:18.998Z</time></trkpt><trkpt lat="43.70436795986195" lon="10.507638022163666"><ele>12.600000000000001</ele><time>2026-04-05T08:39:20.998Z</time></trkpt><trkpt lat="43.70445137206808" lon="10.507556964236242"><ele>12.200000000000001</ele><time>2026-04-05T08:39:22.998Z</time></trkpt><trkpt lat="43.70452258807724" lon="10.507475629608326"><ele>11.8</ele><time>2026-04-05T08:39:24.998Z</time></trkpt><trkpt lat="43.70458367790814" lon="10.507389495491575"><ele>11.4</ele><time>2026-04-05T08:39:26.998Z</time></trkpt><trkpt lat="43.704618338893354" lon="10.50719290431045"><ele>11.0</ele><time>2026-04-05T08:39:29.998Z</time></trkpt><trkpt lat="43.704406886677624" lon="10.507163237763425"><ele>10.714285714285715</ele><time>2026-04-05T08:39:33.998Z</time></trkpt><trkpt lat="43.70435061653441" lon="10.507218080609"><ele>10.428571428571429</ele><time>2026-04-05T08:39:36.998Z</time></trkpt><trkpt lat="43.70429164948609" lon="10.507259042901927"><ele>10.142857142857142</ele><time>2026-04-05T08:40:02Z</time></trkpt><trkpt lat="43.70423413570354" lon="10.507200624138383"><ele>9.857142857142858</ele><time>2026-04-05T08:40:08Z</time></trkpt><trkpt lat="43.70421486295038" lon="10.507284096855997"><ele>9.571428571428571</ele><time>2026-04-05T08:40:17Z</time></trkpt><trkpt lat="43.70420395918664" lon="10.50718885079695"><ele>9.285714285714286</ele><time>2026-04-05T08:40:42.999Z</time></trkpt><trkpt lat="43.70414089081575" lon="10.507242129452413"><ele>9.0</ele><time>2026-04-05T08:40:59.999Z</time></trkpt><trkpt lat="43.70420794831892" lon="10.507226966484092"><ele>9.000000000000002</ele><time>2026-04-05T08:41:48.998Z</time></trkpt><trkpt lat="43.70414024728674" lon="10.50718934884939"><ele>9.0</ele><time>2026-04-05T08:42:16Z</time></trkpt><trkpt lat="43.704198724438655" lon="10.507224282685478"><ele>9.0</ele><time>2026-04-05T08:43:26.998Z</time></trkpt><trkpt lat="43.704141171793175" lon="10.50716055470273"><ele>9.0</ele><time>2026-04-05T09:00:33.998Z</time></trkpt><trkpt lat="43.70415127566076" lon="10.507065247702434"><ele>9.0</ele><time>2026-04-05T09:00:37.998Z</time></trkpt><trkpt lat="43.70419748511256" lon="10.507138069556884"><ele>9.000000000000002</ele><time>2026-04-05T09:00:41.998Z</time></trkpt><trkpt lat="43.704219344902654" lon="10.507235641465307"><ele>9.0</ele><time>2026-04-05T09:00:46.998Z</time></trkpt><trkpt lat="43.704277550231986" lon="10.507305486021153"><ele>9.0</ele><time>2026-04-05T09:02:56.999Z</time></trkpt><trkpt lat="43.70436498849949" lon="10.507282316581554"><ele>9.0</ele><time>2026-04-05T09:03:00.999Z</time></trkpt><trkpt lat="43.704419731893815" lon="10.507235753084316"><ele>9.0</ele><time>2026-04-05T09:03:02.999Z</time></trkpt><trkpt lat="43.70447328020409" lon="10.507178467941824"><ele>9.0</ele><time>2026-04-05T09:03:04.999Z</time></trkpt><trkpt lat="43.70455057198568" lon="10.507177661737197"><ele>9.0</ele><time>2026-04-05T09:03:07.999Z</time></trkpt><trkpt lat="43.7045935820279" lon="10.507266032774927"><ele>9.0</ele><time>2026-04-05T09:03:10.999Z</time></trkpt><trkpt lat="43.70468235222521" lon="10.507270063522702"><ele>9.0</ele><time>2026-04-05T09:03:15.999Z</time></trkpt><trkpt lat="43.704755166984434" lon="10.507245220755507"><ele>9.0</ele><time>2026-04-05T09:03:17.999Z</time></trkpt><trkpt lat="43.704818178902904" lon="10.507177537828039"><ele>9.0</ele><time>2026-04-05T09:03:19.999Z</time></trkpt><trkpt lat="43.704881634003804" lon="10.507102111527107"><ele>9.0</ele><time>2026-04-05T09:03:21.999Z</time></trkpt><trkpt lat="43.7049448507473" lon="10.507013138031386"><ele>9.0</ele><time>2026-04-05T09:03:23.999Z</time></trkpt><trkpt lat="43.70501264222234" lon="10.506925863489974"><ele>9.0</ele><time>2026-04-05T09:03:25.999Z</time></trkpt><trkpt lat="43.70507728351494" lon="10.506832170116311"><ele>9.0</ele><time>2026-04-05T09:03:27.999Z</time></trkpt><trkpt lat="43.705145453214485" lon="10.506736434768381"><ele>9.0</ele><time>2026-04-05T09:03:29.999Z</time></trkpt><trkpt lat="43.705216563996906" lon="10.506640520119047"><ele>9.0</ele><time>2026-04-05T09:03:31.999Z</time></trkpt><trkpt lat="43.70528470285008" lon="10.506539768757362"><ele>9.0</ele><time>2026-04-05T09:03:33.999Z</time></trkpt><trkpt lat="43.70535906398365" lon="10.506437907783777"><ele>9.0</ele><time>2026-04-05T09:03:35.999Z</time></trkpt><trkpt lat="43.70543150192282" lon="10.506330882325498"><ele>9.8</ele><time>2026-04-05T09:03:37.999Z</time></trkpt><trkpt lat="43.70550458440609" lon="10.50623088124059"><ele>10.600000000000001</ele><time>2026-04-05T09:03:39.999Z</time></trkpt><trkpt lat="43.70557905009991" lon="10.50612713613208"><ele>11.4</ele><time>2026-04-05T09:03:41.999Z</time></trkpt><trkpt lat="43.70565292320801" lon="10.506020691809349"><ele>12.200000000000001</ele><time>2026-04-05T09:03:43.999Z</time></trkpt><trkpt lat="43.705730542917415" lon="10.505919076833992"><ele>13.0</ele><time>2026-04-05T09:03:45.999Z</time></trkpt><trkpt lat="43.7058060745379" lon="10.50581317456657"><ele>13.0</ele><time>2026-04-05T09:03:47.999Z</time></trkpt><trkpt lat="43.70588206083067" lon="10.50570589324659"><ele>13.0</ele><time>2026-04-05T09:03:49.999Z</time></trkpt><trkpt lat="43.70596345085752" lon="10.505603352241549"><ele>13.0</ele><time>2026-04-05T09:03:51.999Z</time></trkpt><trkpt lat="43.70604989072813" lon="10.5055048857425"><ele>13.0</ele><time>2026-04-05T09:03:53.999Z</time></trkpt><trkpt lat="43.706129282889705" lon="10.505408899000104"><ele>13.0</ele><time>2026-04-05T09:03:55.999Z</time></trkpt><trkpt lat="43.7062109298049" lon="10.50532193380982"><ele>12.8</ele><time>2026-04-05T09:03:57.999Z</time></trkpt><trkpt lat="43.70628837683634" lon="10.505220603289734"><ele>12.600000000000001</ele><time>2026-04-05T09:03:59.999Z</time></trkpt><trkpt lat="43.70636514990887" lon="10.50511350117928"><ele>12.399999999999999</ele><time>2026-04-05T09:04:01.999Z</time></trkpt><trkpt lat="43.70644296180414" lon="10.505004099482235"><ele>12.2</ele><time>2026-04-05T09:04:03.999Z</time></trkpt><trkpt lat="43.70652295925355" lon="10.504888152896248"><ele>12.0</ele><time>2026-04-05T09:04:05.999Z</time></trkpt><trkpt lat="43.70660301497934" lon="10.504771100664035"><ele>12.0</ele><time>2026-04-05T09:04:07.999Z</time></trkpt><trkpt lat="43.70667631944706" lon="10.50465475718855"><ele>12.0</ele><time>2026-04-05T09:04:09.999Z</time></trkpt><trkpt lat="43.706757973918215" lon="10.504543957666044"><ele>12.0</ele><time>2026-04-05T09:04:11.999Z</time></trkpt><trkpt lat="43.706840024542466" lon="10.50443800350381"><ele>12.0</ele><time>2026-04-05T09:04:13.999Z</time></trkpt><trkpt lat="43.70692332706954" lon="10.504329860672984"><ele>11.8</ele><time>2026-04-05T09:04:15.999Z</time></trkpt><trkpt lat="43.706955953767455" lon="10.50420873957518"><ele>11.6</ele><time>2026-04-05T09:04:17.999Z</time></trkpt><trkpt lat="43.70705253785832" lon="10.504183381566728"><ele>11.4</ele><time>2026-04-05T09:04:18.999Z</time></trkpt><trkpt lat="43.70714927850897" lon="10.504108002893418"><ele>11.200000000000001</ele><time>2026-04-05T09:04:20.999Z</time></trkpt><trkpt lat="43.70725710755123" lon="10.504079197428263"><ele>11.0</ele><time>2026-04-05T09:04:22.999Z</time></trkpt><trkpt lat="43.70736325520766" lon="10.504040620408423"><ele>11.0</ele><time>2026-04-05T09:04:24.999Z</time></trkpt><trkpt lat="43.707468869557175" lon="10.504007997000846"><ele>11.0</ele><time>2026-04-05T09:04:26.998Z</time></trkpt><trkpt lat="43.707564876285744" lon="10.503982821029586"><ele>11.0</ele><time>2026-04-05T09:04:28.998Z</time></trkpt><trkpt lat="43.70765565050604" lon="10.503940921050843"><ele>11.0</ele><time>2026-04-05T09:04:30.998Z</time></trkpt><trkpt lat="43.70772921622963" lon="10.50389179703784"><ele>11.0</ele><time>2026-04-05T09:04:32.998Z</time></trkpt><trkpt lat="43.70779886137602" lon="10.503845969281473"><ele>10.8</ele><time>2026-04-05T09:04:34.998Z</time></trkpt><trkpt lat="43.707872664520785" lon="10.503799302592608"><ele>10.600000000000001</ele><time>2026-04-05T09:04:36.998Z</time></trkpt><trkpt lat="43.70794639111037" lon="10.503727731021494"><ele>10.4</ele><time>2026-04-05T09:04:38.998Z</time></trkpt><trkpt lat="43.708013160288395" lon="10.503625922137186"><ele>10.2</ele><time>2026-04-05T09:04:40.998Z</time></trkpt><trkpt lat="43.70807447925266" lon="10.503511466834492"><ele>10.0</ele><time>2026-04-05T09:04:42.998Z</time></trkpt><trkpt lat="43.70813921746505" lon="10.50339636099527"><ele>10.0</ele><time>2026-04-05T09:04:44.998Z</time></trkpt><trkpt lat="43.70820604854087" lon="10.50328190820079"><ele>10.0</ele><time>2026-04-05T09:04:46.998Z</time></trkpt><trkpt lat="43.708277241879266" lon="10.503155850170362"><ele>10.0</ele><time>2026-04-05T09:04:48.998Z</time></trkpt><trkpt lat="43.70835441433016" lon="10.503023697087778"><ele>10.0</ele><time>2026-04-05T09:04:50.998Z</time></trkpt><trkpt lat="43.70842966138031" lon="10.502891697290504"><ele>10.0</ele><time>2026-04-05T09:04:52.998Z</time></trkpt><trkpt lat="43.70850538436584" lon="10.502755123076716"><ele>10.0</ele><time>2026-04-05T09:04:54.998Z</time></trkpt><trkpt lat="43.708583645457246" lon="10.502627527588107"><ele>10.0</ele><time>2026-04-05T09:04:56.998Z</time></trkpt><trkpt lat="43.708669154107604" lon="10.502515275040691"><ele>10.0</ele><time>2026-04-05T09:04:58.998Z</time></trkpt><trkpt lat="43.70874899628019" lon="10.502458233789975"><ele>9.4</ele><time>2026-04-05T09:05:00.999Z</time></trkpt><trkpt lat="43.70875481336109" lon="10.502312668385095"><ele>8.8</ele><time>2026-04-05T09:05:02.999Z</time></trkpt><trkpt lat="43.70880292863217" lon="10.50218542876645"><ele>8.2</ele><time>2026-04-05T09:05:04.999Z</time></trkpt><trkpt lat="43.70886269264478" lon="10.502066456316204"><ele>7.6</ele><time>2026-04-05T09:05:06.999Z</time></trkpt><trkpt lat="43.70892578798567" lon="10.501951389490541"><ele>7.0</ele><time>2026-04-05T09:05:08.999Z</time></trkpt><trkpt lat="43.70898556097938" lon="10.50183447024931"><ele>6.6</ele><time>2026-04-05T09:05:10.999Z</time></trkpt><trkpt lat="43.70905082103374" lon="10.501736725485578"><ele>6.199999999999999</ele><time>2026-04-05T09:05:12.999Z</time></trkpt><trkpt lat="43.709111413337624" lon="10.501637597826509"><ele>5.8</ele><time>2026-04-05T09:05:14.999Z</time></trkpt><trkpt lat="43.709174851202334" lon="10.501545782679148"><ele>5.4</ele><time>2026-04-05T09:05:16.999Z</time></trkpt><trkpt lat="43.70923328593445" lon="10.501454169769152"><ele>5.0</ele><time>2026-04-05T09:05:18.999Z</time></trkpt><trkpt lat="43.70929391782994" lon="10.501374596833545"><ele>5.0</ele><time>2026-04-05T09:05:20.999Z</time></trkpt><trkpt lat="43.709342472225174" lon="10.501297856440695"><ele>5.0</ele><time>2026-04-05T09:05:22.999Z</time></trkpt><trkpt lat="43.70942472086715" lon="10.501210132568815"><ele>5.0</ele><time>2026-04-05T09:05:25.999Z</time></trkpt><trkpt lat="43.70949236791803" lon="10.50116548497251"><ele>5.0</ele><time>2026-04-05T09:05:27.999Z</time></trkpt><trkpt lat="43.70956362712713" lon="10.501119851487612"><ele>5.0</ele><time>2026-04-05T09:05:29.999Z</time></trkpt><trkpt lat="43.70964364198166" lon="10.501082815400837"><ele>5.0</ele><time>2026-04-05T09:05:31.999Z</time></trkpt><trkpt lat="43.709727216859115" lon="10.501037800125067"><ele>4.8</ele><time>2026-04-05T09:05:33.999Z</time></trkpt><trkpt lat="43.70981297613918" lon="10.500987535801244"><ele>4.6</ele><time>2026-04-05T09:05:35.999Z</time></trkpt><trkpt lat="43.709900925552226" lon="10.500929342030046"><ele>4.4</ele><time>2026-04-05T09:05:37.999Z</time></trkpt><trkpt lat="43.70999179658287" lon="10.500877409823211"><ele>4.2</ele><time>2026-04-05T09:05:39.999Z</time></trkpt><trkpt lat="43.710090210664546" lon="10.500831141447739"><ele>4.0</ele><time>2026-04-05T09:05:41.999Z</time></trkpt><trkpt lat="43.71018625599356" lon="10.500784613222606"><ele>4.5</ele><time>2026-04-05T09:05:43.999Z</time></trkpt><trkpt lat="43.710286202266275" lon="10.500748328181949"><ele>5.0</ele><time>2026-04-05T09:05:45.999Z</time></trkpt><trkpt lat="43.710425071007" lon="10.500666873489001"><ele>5.5</ele><time>2026-04-05T09:05:48.999Z</time></trkpt><trkpt lat="43.710514111085864" lon="10.500603902778074"><ele>6.0</ele><time>2026-04-05T09:05:50.999Z</time></trkpt><trkpt lat="43.71059607350785" lon="10.500522414712314"><ele>6.0</ele><time>2026-04-05T09:05:52.999Z</time></trkpt><trkpt lat="43.71067808356785" lon="10.50043744276258"><ele>6.0</ele><time>2026-04-05T09:05:54.999Z</time></trkpt><trkpt lat="43.71076251224301" lon="10.500349020416543"><ele>6.0</ele><time>2026-04-05T09:05:56.999Z</time></trkpt><trkpt lat="43.71084927029909" lon="10.500260100488324"><ele>6.0</ele><time>2026-04-05T09:05:58.999Z</time></trkpt><trkpt lat="43.71093193493427" lon="10.500167055442416"><ele>6.0</ele><time>2026-04-05T09:06:00.999Z</time></trkpt><trkpt lat="43.7110174017141" lon="10.5000750417084"><ele>5.8</ele><time>2026-04-05T09:06:02.999Z</time></trkpt><trkpt lat="43.711108128292544" lon="10.499986522789497"><ele>5.6</ele><time>2026-04-05T09:06:04.999Z</time></trkpt><trkpt lat="43.711193109953975" lon="10.499899109110496"><ele>5.4</ele><time>2026-04-05T09:06:06.999Z</time></trkpt><trkpt lat="43.711279881200234" lon="10.49981354953144"><ele>5.2</ele><time>2026-04-05T09:06:08.999Z</time></trkpt><trkpt lat="43.71136385386537" lon="10.499719758466249"><ele>5.0</ele><time>2026-04-05T09:06:10.999Z</time></trkpt><trkpt lat="43.71145171967765" lon="10.499634095436505"><ele>4.8</ele><time>2026-04-05T09:06:12.999Z</time></trkpt><trkpt lat="43.71154100373264" lon="10.499550700911868"><ele>4.6</ele><time>2026-04-05T09:06:14.999Z</time></trkpt><trkpt lat="43.7116279085157" lon="10.499458145718426"><ele>4.4</ele><time>2026-04-05T09:06:16.999Z</time></trkpt><trkpt lat="43.71171485633502" lon="10.499366817364995"><ele>4.2</ele><time>2026-04-05T09:06:18.999Z</time></trkpt><trkpt lat="43.711804807180016" lon="10.499279138366251"><ele>4.0</ele><time>2026-04-05T09:06:20.999Z</time></trkpt><trkpt lat="43.71188935125737" lon="10.499181303266655"><ele>4.2</ele><time>2026-04-05T09:06:22.999Z</time></trkpt><trkpt lat="43.711978932924005" lon="10.499089959075091"><ele>4.4</ele><time>2026-04-05T09:06:24.999Z</time></trkpt><trkpt lat="43.712067800311225" lon="10.49899673453432"><ele>4.6</ele><time>2026-04-05T09:06:26.999Z</time></trkpt><trkpt lat="43.712158618303164" lon="10.498906967876948"><ele>4.8</ele><time>2026-04-05T09:06:28.999Z</time></trkpt><trkpt lat="43.71224793062278" lon="10.498813321083656"><ele>5.0</ele><time>2026-04-05T09:06:30.999Z</time></trkpt><trkpt lat="43.71233862398062" lon="10.49872288280094"><ele>5.0</ele><time>2026-04-05T09:06:32.998Z</time></trkpt><trkpt lat="43.71242506834831" lon="10.498625571482481"><ele>5.0</ele><time>2026-04-05T09:06:34.998Z</time></trkpt><trkpt lat="43.71251522454913" lon="10.498534234817564"><ele>5.0</ele><time>2026-04-05T09:06:36.998Z</time></trkpt><trkpt lat="43.71259596022143" lon="10.49843449194357"><ele>5.0</ele><time>2026-04-05T09:06:38.998Z</time></trkpt><trkpt lat="43.712666181912475" lon="10.498322777036666"><ele>5.0</ele><time>2026-04-05T09:06:40.998Z</time></trkpt><trkpt lat="43.71272607626307" lon="10.498223310651902"><ele>5.2</ele><time>2026-04-05T09:06:42.998Z</time></trkpt><trkpt lat="43.71279207878381" lon="10.498097817439627"><ele>5.4</ele><time>2026-04-05T09:06:44.998Z</time></trkpt><trkpt lat="43.71285341478225" lon="10.497977678463128"><ele>5.6</ele><time>2026-04-05T09:06:46.998Z</time></trkpt><trkpt lat="43.712911250719415" lon="10.497854708059275"><ele>5.8</ele><time>2026-04-05T09:06:48.998Z</time></trkpt><trkpt lat="43.71297532254936" lon="10.497732872686974"><ele>6.0</ele><time>2026-04-05T09:06:50.998Z</time></trkpt><trkpt lat="43.713034119940396" lon="10.49760206461745"><ele>5.8</ele><time>2026-04-05T09:06:52.998Z</time></trkpt><trkpt lat="43.71309412761802" lon="10.497470158802672"><ele>5.6</ele><time>2026-04-05T09:06:54.998Z</time></trkpt><trkpt lat="43.71316252906518" lon="10.497346554587104"><ele>5.4</ele><time>2026-04-05T09:06:56.998Z</time></trkpt><trkpt lat="43.71323038098055" lon="10.497225934983936"><ele>5.2</ele><time>2026-04-05T09:06:58.998Z</time></trkpt><trkpt lat="43.713300378093415" lon="10.497104900284645"><ele>5.0</ele><time>2026-04-05T09:07:00.998Z</time></trkpt><trkpt lat="43.71337321285315" lon="10.496991540098557"><ele>5.0</ele><time>2026-04-05T09:07:02.998Z</time></trkpt><trkpt lat="43.71345590991827" lon="10.496892021917436"><ele>5.0</ele><time>2026-04-05T09:07:04.998Z</time></trkpt><trkpt lat="43.71354076751877" lon="10.496809788422864"><ele>5.0</ele><time>2026-04-05T09:07:06.999Z</time></trkpt><trkpt lat="43.713623389953554" lon="10.496739804295457"><ele>5.0</ele><time>2026-04-05T09:07:08.999Z</time></trkpt><trkpt lat="43.71370538554527" lon="10.496677673078896"><ele>5.0</ele><time>2026-04-05T09:07:10.999Z</time></trkpt><trkpt lat="43.71378122001517" lon="10.49660640600355"><ele>5.2</ele><time>2026-04-05T09:07:12.999Z</time></trkpt><trkpt lat="43.713856054665406" lon="10.496536106601283"><ele>5.4</ele><time>2026-04-05T09:07:15Z</time></trkpt><trkpt lat="43.71392999658548" lon="10.496461653128152"><ele>5.6</ele><time>2026-04-05T09:07:17Z</time></trkpt><trkpt lat="43.7140043931122" lon="10.49638255392137"><ele>5.8</ele><time>2026-04-05T09:07:19Z</time></trkpt><trkpt lat="43.71407510433744" lon="10.496293702527998"><ele>6.0</ele><time>2026-04-05T09:07:21Z</time></trkpt><trkpt lat="43.71413850251274" lon="10.496196762804376"><ele>6.4</ele><time>2026-04-05T09:07:23Z</time></trkpt><trkpt lat="43.71420371556659" lon="10.496095963912916"><ele>6.8</ele><time>2026-04-05T09:07:25Z</time></trkpt><trkpt lat="43.714267852679825" lon="10.495991871147227"><ele>7.200000000000001</ele><time>2026-04-05T09:07:27Z</time></trkpt><trkpt lat="43.71433043672451" lon="10.495886731350629"><ele>7.6000000000000005</ele><time>2026-04-05T09:07:29Z</time></trkpt><trkpt lat="43.7143726325301" lon="10.495765613240032"><ele>8.0</ele><time>2026-04-05T09:07:31Z</time></trkpt><trkpt lat="43.714400775789045" lon="10.495636133858218"><ele>6.75</ele><time>2026-04-05T09:07:33Z</time></trkpt><trkpt lat="43.71442157406568" lon="10.495497438782424"><ele>5.5</ele><time>2026-04-05T09:07:35Z</time></trkpt><trkpt lat="43.71444302858813" lon="10.495342663167015"><ele>4.25</ele><time>2026-04-05T09:07:37Z</time></trkpt><trkpt lat="43.71448486189119" lon="10.495189612102013"><ele>3.0</ele><time>2026-04-05T09:07:39Z</time></trkpt><trkpt lat="43.714526845055545" lon="10.49503639802731"><ele>3.0</ele><time>2026-04-05T09:07:41Z</time></trkpt><trkpt lat="43.714574761175705" lon="10.494888985059363"><ele>3.0</ele><time>2026-04-05T09:07:43Z</time></trkpt><trkpt lat="43.714623549773535" lon="10.494746927991748"><ele>3.0</ele><time>2026-04-05T09:07:45Z</time></trkpt><trkpt lat="43.714672344212914" lon="10.494609096623476"><ele>3.0</ele><time>2026-04-05T09:07:47Z</time></trkpt><trkpt lat="43.71472203057901" lon="10.49448491321648"><ele>3.0</ele><time>2026-04-05T09:07:48.999Z</time></trkpt><trkpt lat="43.71473022377485" lon="10.494353821464674"><ele>3.0</ele><time>2026-04-05T09:07:50.999Z</time></trkpt><trkpt lat="43.714731177625616" lon="10.494212672625387"><ele>3.0</ele><time>2026-04-05T09:07:52.999Z</time></trkpt><trkpt lat="43.71467978892569" lon="10.494075075094662"><ele>3.0</ele><time>2026-04-05T09:07:54.999Z</time></trkpt><trkpt lat="43.71464214267278" lon="10.493943776002297"><ele>3.0</ele><time>2026-04-05T09:07:56.999Z</time></trkpt><trkpt lat="43.71459298731559" lon="10.493813297973377"><ele>3.0</ele><time>2026-04-05T09:07:58.999Z</time></trkpt><trkpt lat="43.71453967819833" lon="10.493682865754916"><ele>3.2</ele><time>2026-04-05T09:08:00.999Z</time></trkpt><trkpt lat="43.71449513090778" lon="10.493549784587035"><ele>3.4</ele><time>2026-04-05T09:08:02.999Z</time></trkpt><trkpt lat="43.71443954882411" lon="10.493422109304754"><ele>3.6000000000000005</ele><time>2026-04-05T09:08:04.999Z</time></trkpt><trkpt lat="43.7144014424149" lon="10.493276410804967"><ele>3.8000000000000003</ele><time>2026-04-05T09:08:06.999Z</time></trkpt><trkpt lat="43.714353405809575" lon="10.493142082536608"><ele>4.0</ele><time>2026-04-05T09:08:08.999Z</time></trkpt><trkpt lat="43.71432848965477" lon="10.492999325834568"><ele>4.4</ele><time>2026-04-05T09:08:10.999Z</time></trkpt><trkpt lat="43.71431321503106" lon="10.49284906108603"><ele>4.800000000000001</ele><time>2026-04-05T09:08:12.999Z</time></trkpt><trkpt lat="43.71431467119" lon="10.492700767638668"><ele>5.199999999999999</ele><time>2026-04-05T09:08:14.999Z</time></trkpt><trkpt lat="43.71431466886489" lon="10.492553779934521"><ele>5.6</ele><time>2026-04-05T09:08:16.999Z</time></trkpt><trkpt lat="43.71431297376417" lon="10.492407121915418"><ele>6.0</ele><time>2026-04-05T09:08:18.999Z</time></trkpt><trkpt lat="43.71429893215327" lon="10.49226412468432"><ele>6.0</ele><time>2026-04-05T09:08:20.999Z</time></trkpt><trkpt lat="43.71428521592908" lon="10.492118973788948"><ele>6.0</ele><time>2026-04-05T09:08:22.999Z</time></trkpt><trkpt lat="43.71426176845081" lon="10.491973688133442"><ele>6.0</ele><time>2026-04-05T09:08:24.999Z</time></trkpt><trkpt lat="43.714233153440794" lon="10.491831787217338"><ele>6.0</ele><time>2026-04-05T09:08:26.999Z</time></trkpt><trkpt lat="43.714193137938004" lon="10.491695231818037"><ele>6.0</ele><time>2026-04-05T09:08:28.999Z</time></trkpt><trkpt lat="43.71413960430363" lon="10.491572092496835"><ele>5.8</ele><time>2026-04-05T09:08:30.999Z</time></trkpt><trkpt lat="43.714059536233286" lon="10.491470406441133"><ele>5.6</ele><time>2026-04-05T09:08:32.999Z</time></trkpt><trkpt lat="43.71396545471234" lon="10.491385753511356"><ele>5.4</ele><time>2026-04-05T09:08:34.999Z</time></trkpt><trkpt lat="43.71386886581238" lon="10.491304967372926"><ele>5.2</ele><time>2026-04-05T09:08:36.999Z</time></trkpt><trkpt lat="43.713770692154014" lon="10.491227108447976"><ele>5.0</ele><time>2026-04-05T09:08:38.999Z</time></trkpt><trkpt lat="43.71368306780903" lon="10.49112241201015"><ele>4.75</ele><time>2026-04-05T09:08:40.999Z</time></trkpt><trkpt lat="43.71358840967312" lon="10.49103589084632"><ele>4.5</ele><time>2026-04-05T09:08:42.999Z</time></trkpt><trkpt lat="43.71349302083476" lon="10.490947432601494"><ele>4.25</ele><time>2026-04-05T09:08:44.999Z</time></trkpt><trkpt lat="43.713395938818095" lon="10.49085740419988"><ele>4.0</ele><time>2026-04-05T09:08:46.999Z</time></trkpt><trkpt lat="43.713292329681515" lon="10.490784293834974"><ele>4.0</ele><time>2026-04-05T09:08:48.999Z</time></trkpt><trkpt lat="43.713208308123285" lon="10.490677632526728"><ele>4.0</ele><time>2026-04-05T09:08:50.999Z</time></trkpt><trkpt lat="43.71311553767491" lon="10.490589076512554"><ele>4.0</ele><time>2026-04-05T09:08:52.999Z</time></trkpt><trkpt lat="43.713023952322445" lon="10.49050259034472"><ele>4.0</ele><time>2026-04-05T09:08:54.999Z</time></trkpt><trkpt lat="43.71292528139089" lon="10.490435618662909"><ele>4.0</ele><time>2026-04-05T09:08:56.999Z</time></trkpt><trkpt lat="43.712848111239396" lon="10.490333489513937"><ele>4.0</ele><time>2026-04-05T09:08:58.999Z</time></trkpt><trkpt lat="43.712761904474824" lon="10.490251510662453"><ele>4.0</ele><time>2026-04-05T09:09:00.999Z</time></trkpt><trkpt lat="43.71267699636394" lon="10.490171794077932"><ele>4.0</ele><time>2026-04-05T09:09:02.999Z</time></trkpt><trkpt lat="43.71259515606625" lon="10.490094957730006"><ele>4.0</ele><time>2026-04-05T09:09:04.999Z</time></trkpt><trkpt lat="43.7125150385869" lon="10.490019738862095"><ele>4.0</ele><time>2026-04-05T09:09:06.999Z</time></trkpt><trkpt lat="43.71243235961109" lon="10.48994093513468"><ele>4.0</ele><time>2026-04-05T09:09:08.999Z</time></trkpt><trkpt lat="43.71234657800141" lon="10.489857315663407"><ele>4.0</ele><time>2026-04-05T09:09:10.999Z</time></trkpt><trkpt lat="43.71226017636912" lon="10.48977262058285"><ele>4.0</ele><time>2026-04-05T09:09:13.001Z</time></trkpt><trkpt lat="43.71217382742723" lon="10.48968561916173"><ele>4.0</ele><time>2026-04-05T09:09:15.001Z</time></trkpt><trkpt lat="43.71208807756806" lon="10.489593067439106"><ele>4.0</ele><time>2026-04-05T09:09:17.001Z</time></trkpt><trkpt lat="43.71200667252251" lon="10.48949463819152"><ele>4.0</ele><time>2026-04-05T09:09:19.001Z</time></trkpt><trkpt lat="43.711927278209735" lon="10.489387840344632"><ele>4.0</ele><time>2026-04-05T09:09:21.001Z</time></trkpt><trkpt lat="43.711848376313974" lon="10.489278717792459"><ele>4.0</ele><time>2026-04-05T09:09:23.001Z</time></trkpt><trkpt lat="43.71176971516299" lon="10.489166446183503"><ele>4.0</ele><time>2026-04-05T09:09:25.001Z</time></trkpt><trkpt lat="43.711692559906126" lon="10.489054643818685"><ele>4.0</ele><time>2026-04-05T09:09:27Z</time></trkpt><trkpt lat="43.71161841088748" lon="10.488943992520847"><ele>4.0</ele><time>2026-04-05T09:09:29Z</time></trkpt><trkpt lat="43.711544776742926" lon="10.488832180509025"><ele>4.0</ele><time>2026-04-05T09:09:31Z</time></trkpt><trkpt lat="43.71145907636767" lon="10.488733889041924"><ele>4.0</ele><time>2026-04-05T09:09:33Z</time></trkpt><trkpt lat="43.711396720470916" lon="10.488604279600839"><ele>4.0</ele><time>2026-04-05T09:09:35Z</time></trkpt><trkpt lat="43.71130780283584" lon="10.488503463521296"><ele>4.0</ele><time>2026-04-05T09:09:37Z</time></trkpt><trkpt lat="43.711230586274965" lon="10.48838137603771"><ele>3.75</ele><time>2026-04-05T09:09:39Z</time></trkpt><trkpt lat="43.71114926792159" lon="10.488263671033547"><ele>3.5</ele><time>2026-04-05T09:09:41Z</time></trkpt><trkpt lat="43.71106584979537" lon="10.488146517910417"><ele>3.25</ele><time>2026-04-05T09:09:43Z</time></trkpt><trkpt lat="43.71097510354369" lon="10.48803675631987"><ele>3.0</ele><time>2026-04-05T09:09:45Z</time></trkpt><trkpt lat="43.71087908873943" lon="10.487939453619973"><ele>3.25</ele><time>2026-04-05T09:09:47Z</time></trkpt><trkpt lat="43.71078823754663" lon="10.487843166537568"><ele>3.5</ele><time>2026-04-05T09:09:49Z</time></trkpt><trkpt lat="43.710694738959724" lon="10.487746124144426"><ele>3.75</ele><time>2026-04-05T09:09:51Z</time></trkpt><trkpt lat="43.710599908028875" lon="10.48765637300751"><ele>4.0</ele><time>2026-04-05T09:09:53Z</time></trkpt><trkpt lat="43.71050638518311" lon="10.487570767935686"><ele>4.0</ele><time>2026-04-05T09:09:55Z</time></trkpt><trkpt lat="43.7104091831826" lon="10.487495370758584"><ele>4.0</ele><time>2026-04-05T09:09:57Z</time></trkpt><trkpt lat="43.710315825089324" lon="10.487399287806559"><ele>4.0</ele><time>2026-04-05T09:09:59Z</time></trkpt><trkpt lat="43.71021194777821" lon="10.487328234716268"><ele>4.0</ele><time>2026-04-05T09:10:01Z</time></trkpt><trkpt lat="43.71010328050328" lon="10.487276463389069"><ele>3.9999999999999996</ele><time>2026-04-05T09:10:03Z</time></trkpt><trkpt lat="43.71002021918681" lon="10.4871696917499"><ele>4.0</ele><time>2026-04-05T09:10:05Z</time></trkpt><trkpt lat="43.70995133863654" lon="10.487038559350719"><ele>4.0</ele><time>2026-04-05T09:10:07Z</time></trkpt><trkpt lat="43.70994961679097" lon="10.486938645856226"><ele>4.0</ele><time>2026-04-05T09:10:08Z</time></trkpt><trkpt lat="43.709956922796486" lon="10.4868426086228"><ele>3.9999999999999996</ele><time>2026-04-05T09:10:09Z</time></trkpt><trkpt lat="43.70996188574814" lon="10.486748164902512"><ele>4.0</ele><time>2026-04-05T09:10:10Z</time></trkpt><trkpt lat="43.70996420508504" lon="10.486654710662725"><ele>4.0</ele><time>2026-04-05T09:10:11Z</time></trkpt><trkpt lat="43.70995412599179" lon="10.486557588819267"><ele>3.9999999999999996</ele><time>2026-04-05T09:10:12Z</time></trkpt><trkpt lat="43.70993735915595" lon="10.4864625379676"><ele>4.0</ele><time>2026-04-05T09:10:13Z</time></trkpt><trkpt lat="43.709918509710334" lon="10.48637102902479"><ele>4.0</ele><time>2026-04-05T09:10:14Z</time></trkpt><trkpt lat="43.70990317087239" lon="10.486281156861235"><ele>3.9999999999999996</ele><time>2026-04-05T09:10:15Z</time></trkpt><trkpt lat="43.70989304482586" lon="10.486191097532453"><ele>4.0</ele><time>2026-04-05T09:10:16Z</time></trkpt><trkpt lat="43.709878648525965" lon="10.486103154565706"><ele>4.0</ele><time>2026-04-05T09:10:17Z</time></trkpt><trkpt lat="43.70986005942334" lon="10.485937438928563"><ele>4.0</ele><time>2026-04-05T09:10:19Z</time></trkpt><trkpt lat="43.7098399728049" lon="10.485778566194682"><ele>4.0</ele><time>2026-04-05T09:10:21Z</time></trkpt><trkpt lat="43.70983962048981" lon="10.485617998281485"><ele>4.0</ele><time>2026-04-05T09:10:23Z</time></trkpt><trkpt lat="43.70982457367935" lon="10.48545519559511"><ele>4.0</ele><time>2026-04-05T09:10:25Z</time></trkpt><trkpt lat="43.70979521118405" lon="10.485294276728945"><ele>4.0</ele><time>2026-04-05T09:10:27Z</time></trkpt><trkpt lat="43.709791788256844" lon="10.485134204298758"><ele>4.0</ele><time>2026-04-05T09:10:28.999Z</time></trkpt><trkpt lat="43.709796845204096" lon="10.484972348555614"><ele>4.0</ele><time>2026-04-05T09:10:30.999Z</time></trkpt><trkpt lat="43.7097985153826" lon="10.484813646734546"><ele>4.0</ele><time>2026-04-05T09:10:32.999Z</time></trkpt><trkpt lat="43.709792991115414" lon="10.484650263132249"><ele>4.25</ele><time>2026-04-05T09:10:34.999Z</time></trkpt><trkpt lat="43.7097926837784" lon="10.484488778127874"><ele>4.5</ele><time>2026-04-05T09:10:36.999Z</time></trkpt><trkpt lat="43.70979590308972" lon="10.484327997820792"><ele>4.75</ele><time>2026-04-05T09:10:38.999Z</time></trkpt><trkpt lat="43.70980448149273" lon="10.484167772175972"><ele>5.0</ele><time>2026-04-05T09:10:40.999Z</time></trkpt><trkpt lat="43.70983404779018" lon="10.484013584948167"><ele>5.0</ele><time>2026-04-05T09:10:42.999Z</time></trkpt><trkpt lat="43.70987157336402" lon="10.483871095948752"><ele>5.0</ele><time>2026-04-05T09:10:44.999Z</time></trkpt><trkpt lat="43.70990694943087" lon="10.483728376343707"><ele>5.0</ele><time>2026-04-05T09:10:46.999Z</time></trkpt><trkpt lat="43.70994692804772" lon="10.48359300643466"><ele>5.0</ele><time>2026-04-05T09:10:48.999Z</time></trkpt><trkpt lat="43.709987265814775" lon="10.48345697924309"><ele>5.0</ele><time>2026-04-05T09:10:50.999Z</time></trkpt><trkpt lat="43.71002652462053" lon="10.483314821869811"><ele>5.0</ele><time>2026-04-05T09:10:52.999Z</time></trkpt><trkpt lat="43.7100673604317" lon="10.483169162591931"><ele>5.0</ele><time>2026-04-05T09:10:54.999Z</time></trkpt><trkpt lat="43.71010932893437" lon="10.483019712952315"><ele>5.0</ele><time>2026-04-05T09:10:56.999Z</time></trkpt><trkpt lat="43.710145375461934" lon="10.482870428251962"><ele>5.0</ele><time>2026-04-05T09:10:58.999Z</time></trkpt><trkpt lat="43.71018356835144" lon="10.482728401064985"><ele>5.0</ele><time>2026-04-05T09:11:00.999Z</time></trkpt><trkpt lat="43.71022093008987" lon="10.482588757850857"><ele>5.0</ele><time>2026-04-05T09:11:02.999Z</time></trkpt><trkpt lat="43.710261037179045" lon="10.482450617335266"><ele>5.0</ele><time>2026-04-05T09:11:04.999Z</time></trkpt><trkpt lat="43.71029851746247" lon="10.482314556095105"><ele>5.0</ele><time>2026-04-05T09:11:06.999Z</time></trkpt><trkpt lat="43.710335168013685" lon="10.482169853926186"><ele>5.0</ele><time>2026-04-05T09:11:08.999Z</time></trkpt><trkpt lat="43.710378932542575" lon="10.48203627220915"><ele>5.0</ele><time>2026-04-05T09:11:10.999Z</time></trkpt><trkpt lat="43.71041741040974" lon="10.481900076659317"><ele>5.0</ele><time>2026-04-05T09:11:12.999Z</time></trkpt><trkpt lat="43.71046129163552" lon="10.481771369184287"><ele>5.0</ele><time>2026-04-05T09:11:14.999Z</time></trkpt><trkpt lat="43.71050495703913" lon="10.481641844938098"><ele>5.0</ele><time>2026-04-05T09:11:16.999Z</time></trkpt><trkpt lat="43.710552275866306" lon="10.481510734439105"><ele>5.0</ele><time>2026-04-05T09:11:19.001Z</time></trkpt><trkpt lat="43.71059162579754" lon="10.48137528546722"><ele>5.2</ele><time>2026-04-05T09:11:21.001Z</time></trkpt><trkpt lat="43.71063146203378" lon="10.48124342440702"><ele>5.4</ele><time>2026-04-05T09:11:23.001Z</time></trkpt><trkpt lat="43.71066792146432" lon="10.481109471134559"><ele>5.6</ele><time>2026-04-05T09:11:25.001Z</time></trkpt><trkpt lat="43.710707124749106" lon="10.480981869028446"><ele>5.8</ele><time>2026-04-05T09:11:27.001Z</time></trkpt><trkpt lat="43.71074545054017" lon="10.480848025066912"><ele>6.0</ele><time>2026-04-05T09:11:29.001Z</time></trkpt><trkpt lat="43.710781332925606" lon="10.480712983108765"><ele>6.0</ele><time>2026-04-05T09:11:31.001Z</time></trkpt><trkpt lat="43.71080703952389" lon="10.480569548926953"><ele>6.0</ele><time>2026-04-05T09:11:33.001Z</time></trkpt><trkpt lat="43.71084253419269" lon="10.480427593165526"><ele>6.0</ele><time>2026-04-05T09:11:35.001Z</time></trkpt><trkpt lat="43.71086736930071" lon="10.48029050507975"><ele>6.0</ele><time>2026-04-05T09:11:37.001Z</time></trkpt><trkpt lat="43.710903959115214" lon="10.480153077920631"><ele>6.0</ele><time>2026-04-05T09:11:39Z</time></trkpt><trkpt lat="43.710935137405286" lon="10.480020070730967"><ele>6.0</ele><time>2026-04-05T09:11:41Z</time></trkpt><trkpt lat="43.71096348234614" lon="10.479888556453135"><ele>6.0</ele><time>2026-04-05T09:11:43Z</time></trkpt><trkpt lat="43.710991569545236" lon="10.479755249880057"><ele>6.0</ele><time>2026-04-05T09:11:45Z</time></trkpt><trkpt lat="43.71102679005737" lon="10.479624451801115"><ele>6.0</ele><time>2026-04-05T09:11:47Z</time></trkpt><trkpt lat="43.71106539322427" lon="10.479496098938911"><ele>6.0</ele><time>2026-04-05T09:11:49Z</time></trkpt><trkpt lat="43.7110982275318" lon="10.479360094949609"><ele>6.0</ele><time>2026-04-05T09:11:51Z</time></trkpt><trkpt lat="43.71112374819999" lon="10.479214482846556"><ele>6.0</ele><time>2026-04-05T09:11:53Z</time></trkpt><trkpt lat="43.7111492067838" lon="10.47907029838367"><ele>6.0</ele><time>2026-04-05T09:11:55Z</time></trkpt><trkpt lat="43.71117448061625" lon="10.478925686070069"><ele>6.0</ele><time>2026-04-05T09:11:57Z</time></trkpt><trkpt lat="43.71120085410155" lon="10.478775732595345"><ele>6.0</ele><time>2026-04-05T09:11:59Z</time></trkpt><trkpt lat="43.711229317071876" lon="10.47863108931203"><ele>5.8</ele><time>2026-04-05T09:12:01Z</time></trkpt><trkpt lat="43.711284283326655" lon="10.478501623395873"><ele>5.6</ele><time>2026-04-05T09:12:03Z</time></trkpt><trkpt lat="43.711329963358175" lon="10.478356627034298"><ele>5.4</ele><time>2026-04-05T09:12:05Z</time></trkpt><trkpt lat="43.71136888196818" lon="10.478215192331806"><ele>5.2</ele><time>2026-04-05T09:12:07Z</time></trkpt><trkpt lat="43.71141511196245" lon="10.478078866301463"><ele>5.0</ele><time>2026-04-05T09:12:09Z</time></trkpt><trkpt lat="43.71146214893347" lon="10.477939230181333"><ele>4.8</ele><time>2026-04-05T09:12:11Z</time></trkpt><trkpt lat="43.71149838258018" lon="10.477801715859991"><ele>4.6</ele><time>2026-04-05T09:12:13Z</time></trkpt><trkpt lat="43.71154050230255" lon="10.477667296384402"><ele>4.4</ele><time>2026-04-05T09:12:15Z</time></trkpt><trkpt lat="43.71158438093822" lon="10.477536212859503"><ele>4.2</ele><time>2026-04-05T09:12:17Z</time></trkpt><trkpt lat="43.71163117815645" lon="10.477407146736267"><ele>4.0</ele><time>2026-04-05T09:12:19Z</time></trkpt><trkpt lat="43.711674794889014" lon="10.477272900338145"><ele>4.0</ele><time>2026-04-05T09:12:21Z</time></trkpt><trkpt lat="43.71172505615276" lon="10.477144757436387"><ele>4.0</ele><time>2026-04-05T09:12:23Z</time></trkpt><trkpt lat="43.71177102710407" lon="10.47701262235537"><ele>4.0</ele><time>2026-04-05T09:12:25Z</time></trkpt><trkpt lat="43.711818664469114" lon="10.47688472320713"><ele>4.0</ele><time>2026-04-05T09:12:27Z</time></trkpt><trkpt lat="43.711866521829634" lon="10.476759257140426"><ele>4.0</ele><time>2026-04-05T09:12:29Z</time></trkpt><trkpt lat="43.71190949592663" lon="10.476635219173348"><ele>4.6</ele><time>2026-04-05T09:12:31Z</time></trkpt><trkpt lat="43.711961663513314" lon="10.476525079175032"><ele>5.2</ele><time>2026-04-05T09:12:33Z</time></trkpt><trkpt lat="43.712025086756235" lon="10.47642976233162"><ele>5.799999999999999</ele><time>2026-04-05T09:12:35Z</time></trkpt><trkpt lat="43.71211960053041" lon="10.476386929427429"><ele>6.3999999999999995</ele><time>2026-04-05T09:12:36.999Z</time></trkpt><trkpt lat="43.71222113956743" lon="10.476381191741313"><ele>7.0</ele><time>2026-04-05T09:12:38.999Z</time></trkpt><trkpt lat="43.71231886268067" lon="10.476367847616366"><ele>7.0</ele><time>2026-04-05T09:12:40.999Z</time></trkpt><trkpt lat="43.71241795423301" lon="10.476339998162064"><ele>6.999999999999999</ele><time>2026-04-05T09:12:42.999Z</time></trkpt><trkpt lat="43.712516223382416" lon="10.476316053360007"><ele>6.999999999999999</ele><time>2026-04-05T09:12:44.999Z</time></trkpt><trkpt lat="43.71261436410506" lon="10.476289460397977"><ele>7.0</ele><time>2026-04-05T09:12:46.999Z</time></trkpt><trkpt lat="43.71270937207255" lon="10.476261449642173"><ele>7.0</ele><time>2026-04-05T09:12:48.999Z</time></trkpt><trkpt lat="43.71280771511576" lon="10.476243822641422"><ele>7.0</ele><time>2026-04-05T09:12:50.999Z</time></trkpt><trkpt lat="43.712910178576635" lon="10.476229009368074"><ele>6.999999999999999</ele><time>2026-04-05T09:12:52.999Z</time></trkpt><trkpt lat="43.71300969680365" lon="10.476207789005032"><ele>6.999999999999999</ele><time>2026-04-05T09:12:54.999Z</time></trkpt><trkpt lat="43.71310707251625" lon="10.476175785179205"><ele>7.0</ele><time>2026-04-05T09:12:56.999Z</time></trkpt><trkpt lat="43.71320176283091" lon="10.476145706187623"><ele>7.0</ele><time>2026-04-05T09:12:58.999Z</time></trkpt><trkpt lat="43.713298740415304" lon="10.476112742951944"><ele>7.0</ele><time>2026-04-05T09:13:00.999Z</time></trkpt><trkpt lat="43.71339684298095" lon="10.476066277462419"><ele>6.999999999999999</ele><time>2026-04-05T09:13:02.999Z</time></trkpt><trkpt lat="43.71349204301445" lon="10.476024703667179"><ele>6.999999999999999</ele><time>2026-04-05T09:13:04.999Z</time></trkpt><trkpt lat="43.7135899877879" lon="10.476004981323927"><ele>7.0</ele><time>2026-04-05T09:13:06.999Z</time></trkpt><trkpt lat="43.713690264185516" lon="10.476011384993166"><ele>7.0</ele><time>2026-04-05T09:13:08.999Z</time></trkpt><trkpt lat="43.713791230562336" lon="10.475995666646938"><ele>6.3999999999999995</ele><time>2026-04-05T09:13:10.999Z</time></trkpt><trkpt lat="43.71389231920953" lon="10.475967143208141"><ele>5.799999999999999</ele><time>2026-04-05T09:13:12.999Z</time></trkpt><trkpt lat="43.71398444508569" lon="10.475913860578746"><ele>5.2</ele><time>2026-04-05T09:13:14.999Z</time></trkpt><trkpt lat="43.7140697344985" lon="10.475836906263254"><ele>4.6</ele><time>2026-04-05T09:13:16.999Z</time></trkpt><trkpt lat="43.71415002373823" lon="10.475750359570004"><ele>4.0</ele><time>2026-04-05T09:13:18.999Z</time></trkpt><trkpt lat="43.71422746847284" lon="10.475656747306864"><ele>4.0</ele><time>2026-04-05T09:13:20.999Z</time></trkpt><trkpt lat="43.714307146446416" lon="10.475566236858853"><ele>4.0</ele><time>2026-04-05T09:13:22.999Z</time></trkpt><trkpt lat="43.71438502400209" lon="10.475465990236566"><ele>4.0</ele><time>2026-04-05T09:13:25.001Z</time></trkpt><trkpt lat="43.71446852708203" lon="10.475374542135683"><ele>4.0</ele><time>2026-04-05T09:13:27.001Z</time></trkpt><trkpt lat="43.71454736395996" lon="10.475282705350045"><ele>4.0</ele><time>2026-04-05T09:13:29.001Z</time></trkpt><trkpt lat="43.714628310797465" lon="10.475191437279223"><ele>4.4</ele><time>2026-04-05T09:13:31.001Z</time></trkpt><trkpt lat="43.71471060667395" lon="10.475104212712516"><ele>4.800000000000001</ele><time>2026-04-05T09:13:33.001Z</time></trkpt><trkpt lat="43.714791984171065" lon="10.475018032537674"><ele>5.199999999999999</ele><time>2026-04-05T09:13:35.001Z</time></trkpt><trkpt lat="43.7148743929362" lon="10.47493106812183"><ele>5.6</ele><time>2026-04-05T09:13:37.001Z</time></trkpt><trkpt lat="43.714954338646415" lon="10.474838249948426"><ele>6.0</ele><time>2026-04-05T09:13:39.001Z</time></trkpt><trkpt lat="43.7150279677533" lon="10.474738391932448"><ele>6.0</ele><time>2026-04-05T09:13:41.001Z</time></trkpt><trkpt lat="43.71509530449807" lon="10.474626140634108"><ele>6.0</ele><time>2026-04-05T09:13:43.001Z</time></trkpt><trkpt lat="43.7151627471391" lon="10.474512671905492"><ele>6.0</ele><time>2026-04-05T09:13:45.001Z</time></trkpt><trkpt lat="43.715233408987736" lon="10.474403153591624"><ele>6.0</ele><time>2026-04-05T09:13:47Z</time></trkpt><trkpt lat="43.71529092228952" lon="10.474284671665329"><ele>6.0</ele><time>2026-04-05T09:13:49Z</time></trkpt><trkpt lat="43.715351117241205" lon="10.474165517271539"><ele>5.8</ele><time>2026-04-05T09:13:51Z</time></trkpt><trkpt lat="43.71541137322919" lon="10.474046838176188"><ele>5.6</ele><time>2026-04-05T09:13:53Z</time></trkpt><trkpt lat="43.71548263354526" lon="10.473943527615532"><ele>5.4</ele><time>2026-04-05T09:13:55Z</time></trkpt><trkpt lat="43.71553555729849" lon="10.473835602112542"><ele>5.2</ele><time>2026-04-05T09:13:57Z</time></trkpt><trkpt lat="43.71558799173759" lon="10.473729355667496"><ele>5.0</ele><time>2026-04-05T09:13:59Z</time></trkpt><trkpt lat="43.71563106923344" lon="10.473625721563499"><ele>5.0</ele><time>2026-04-05T09:14:01Z</time></trkpt><trkpt lat="43.71568022448796" lon="10.473530830992418"><ele>5.0</ele><time>2026-04-05T09:14:03Z</time></trkpt><trkpt lat="43.71572805060751" lon="10.473443509721488"><ele>5.0</ele><time>2026-04-05T09:14:05Z</time></trkpt><trkpt lat="43.71578643435829" lon="10.473378932767831"><ele>5.0</ele><time>2026-04-05T09:14:07Z</time></trkpt><trkpt lat="43.71583901976683" lon="10.473315555296224"><ele>5.0</ele><time>2026-04-05T09:14:09Z</time></trkpt><trkpt lat="43.71589290992355" lon="10.473266363108733"><ele>5.0</ele><time>2026-04-05T09:14:11Z</time></trkpt><trkpt lat="43.71595406738192" lon="10.473224917068578"><ele>5.0</ele><time>2026-04-05T09:14:13Z</time></trkpt><trkpt lat="43.71601737233404" lon="10.473172389540895"><ele>5.0</ele><time>2026-04-05T09:14:15Z</time></trkpt><trkpt lat="43.71608129297983" lon="10.473125348498801"><ele>5.0</ele><time>2026-04-05T09:14:17Z</time></trkpt><trkpt lat="43.716148415378534" lon="10.473079963730983"><ele>5.0</ele><time>2026-04-05T09:14:19Z</time></trkpt><trkpt lat="43.716216668751564" lon="10.473044846990513"><ele>5.0</ele><time>2026-04-05T09:14:21Z</time></trkpt><trkpt lat="43.71628684479014" lon="10.473004388146782"><ele>5.0</ele><time>2026-04-05T09:14:23Z</time></trkpt><trkpt lat="43.71636042444844" lon="10.47296187269764"><ele>5.0</ele><time>2026-04-05T09:14:25Z</time></trkpt><trkpt lat="43.71642692455345" lon="10.472913070179363"><ele>5.0</ele><time>2026-04-05T09:14:27Z</time></trkpt><trkpt lat="43.716505598237816" lon="10.472869425662124"><ele>5.0</ele><time>2026-04-05T09:14:29Z</time></trkpt><trkpt lat="43.716582583417775" lon="10.47282045518732"><ele>5.0</ele><time>2026-04-05T09:14:31Z</time></trkpt><trkpt lat="43.71665947389872" lon="10.47276976504614"><ele>5.0</ele><time>2026-04-05T09:14:33Z</time></trkpt><trkpt lat="43.71673894421911" lon="10.47271980179292"><ele>5.0</ele><time>2026-04-05T09:14:34.999Z</time></trkpt><trkpt lat="43.71681795275734" lon="10.472663793030717"><ele>5.0</ele><time>2026-04-05T09:14:36.999Z</time></trkpt><trkpt lat="43.71690009717389" lon="10.472605628443072"><ele>4.8</ele><time>2026-04-05T09:14:38.999Z</time></trkpt><trkpt lat="43.71697968736241" lon="10.472544232251805"><ele>4.6</ele><time>2026-04-05T09:14:40.999Z</time></trkpt><trkpt lat="43.71705904014476" lon="10.472489973593165"><ele>4.4</ele><time>2026-04-05T09:14:42.999Z</time></trkpt><trkpt lat="43.71714539694227" lon="10.472433496130536"><ele>4.2</ele><time>2026-04-05T09:14:44.999Z</time></trkpt><trkpt lat="43.717226882904455" lon="10.472373574522143"><ele>4.0</ele><time>2026-04-05T09:14:46.999Z</time></trkpt><trkpt lat="43.71731344837705" lon="10.47231705833042"><ele>4.0</ele><time>2026-04-05T09:14:48.999Z</time></trkpt><trkpt lat="43.717395735607084" lon="10.472253815612177"><ele>4.0</ele><time>2026-04-05T09:14:50.999Z</time></trkpt><trkpt lat="43.71748268148554" lon="10.472196676366726"><ele>4.0</ele><time>2026-04-05T09:14:52.999Z</time></trkpt><trkpt lat="43.7175659498523" lon="10.47213279909341"><ele>4.0</ele><time>2026-04-05T09:14:54.999Z</time></trkpt><trkpt lat="43.71765178400052" lon="10.472066942767498"><ele>4.0</ele><time>2026-04-05T09:14:56.999Z</time></trkpt><trkpt lat="43.71773652492304" lon="10.471999754372671"><ele>3.8000000000000003</ele><time>2026-04-05T09:14:58.999Z</time></trkpt><trkpt lat="43.71781830998818" lon="10.471926329687983"><ele>3.6000000000000005</ele><time>2026-04-05T09:15:00.999Z</time></trkpt><trkpt lat="43.717900384180666" lon="10.471855297984643"><ele>3.4</ele><time>2026-04-05T09:15:02.999Z</time></trkpt><trkpt lat="43.71797625417658" lon="10.471772438878176"><ele>3.2</ele><time>2026-04-05T09:15:04.999Z</time></trkpt><trkpt lat="43.718051644541" lon="10.471686206277214"><ele>3.0</ele><time>2026-04-05T09:15:06.999Z</time></trkpt><trkpt lat="43.718119554555344" lon="10.471587962472864"><ele>3.0</ele><time>2026-04-05T09:15:08.999Z</time></trkpt><trkpt lat="43.71818093633326" lon="10.471483937897256"><ele>3.0</ele><time>2026-04-05T09:15:10.999Z</time></trkpt><trkpt lat="43.71823778675149" lon="10.471379222227556"><ele>3.0</ele><time>2026-04-05T09:15:12.999Z</time></trkpt><trkpt lat="43.71828642534719" lon="10.47126430275746"><ele>3.0</ele><time>2026-04-05T09:15:14.999Z</time></trkpt><trkpt lat="43.71833292302926" lon="10.47114256813399"><ele>3.0</ele><time>2026-04-05T09:15:16.999Z</time></trkpt><trkpt lat="43.71836895814343" lon="10.471012012768291"><ele>3.2</ele><time>2026-04-05T09:15:18.999Z</time></trkpt><trkpt lat="43.718401974235775" lon="10.470877854460435"><ele>3.4</ele><time>2026-04-05T09:15:20.999Z</time></trkpt><trkpt lat="43.71843482235763" lon="10.470745730110703"><ele>3.6000000000000005</ele><time>2026-04-05T09:15:22.999Z</time></trkpt><trkpt lat="43.71847293095652" lon="10.470605440091333"><ele>3.8000000000000003</ele><time>2026-04-05T09:15:24.999Z</time></trkpt><trkpt lat="43.718512251774655" lon="10.470468182163739"><ele>4.0</ele><time>2026-04-05T09:15:26.999Z</time></trkpt><trkpt lat="43.718548719905435" lon="10.470330003619"><ele>4.0</ele><time>2026-04-05T09:15:28.999Z</time></trkpt><trkpt lat="43.718582770496894" lon="10.470190765780721"><ele>4.0</ele><time>2026-04-05T09:15:31.001Z</time></trkpt><trkpt lat="43.71861857510867" lon="10.470052615630255"><ele>4.0</ele><time>2026-04-05T09:15:33.001Z</time></trkpt><trkpt lat="43.71865822286977" lon="10.469917242369947"><ele>4.0</ele><time>2026-04-05T09:15:35.001Z</time></trkpt><trkpt lat="43.71870292721312" lon="10.46977851796025"><ele>4.0</ele><time>2026-04-05T09:15:37.001Z</time></trkpt><trkpt lat="43.71876057005054" lon="10.469651614265992"><ele>4.0</ele><time>2026-04-05T09:15:39.001Z</time></trkpt><trkpt lat="43.71882821507757" lon="10.46953760615245"><ele>4.0</ele><time>2026-04-05T09:15:41.001Z</time></trkpt><trkpt lat="43.718901948419585" lon="10.4694374160694"><ele>4.0</ele><time>2026-04-05T09:15:43.001Z</time></trkpt><trkpt lat="43.718977516428076" lon="10.46933552377994"><ele>4.0</ele><time>2026-04-05T09:15:45.001Z</time></trkpt><trkpt lat="43.71905300962608" lon="10.469236259527674"><ele>4.0</ele><time>2026-04-05T09:15:47Z</time></trkpt><trkpt lat="43.719130484078605" lon="10.469130898927633"><ele>4.0</ele><time>2026-04-05T09:15:49Z</time></trkpt><trkpt lat="43.71920459291484" lon="10.469030737568438"><ele>4.0</ele><time>2026-04-05T09:15:51Z</time></trkpt><trkpt lat="43.71928105430767" lon="10.468940312750515"><ele>4.0</ele><time>2026-04-05T09:15:53Z</time></trkpt><trkpt lat="43.71935698421902" lon="10.46884234608815"><ele>4.0</ele><time>2026-04-05T09:15:55Z</time></trkpt><trkpt lat="43.719436032165156" lon="10.468754084293773"><ele>4.0</ele><time>2026-04-05T09:15:57Z</time></trkpt><trkpt lat="43.719517461259635" lon="10.468667714188241"><ele>3.8000000000000003</ele><time>2026-04-05T09:15:59Z</time></trkpt><trkpt lat="43.71959454121787" lon="10.468583688598454"><ele>3.6000000000000005</ele><time>2026-04-05T09:16:01Z</time></trkpt><trkpt lat="43.719675434471284" lon="10.4684934742019"><ele>3.4</ele><time>2026-04-05T09:16:03Z</time></trkpt><trkpt lat="43.71975227900478" lon="10.468406649605527"><ele>3.2</ele><time>2026-04-05T09:16:05Z</time></trkpt><trkpt lat="43.71981933210473" lon="10.4683079262433"><ele>3.0</ele><time>2026-04-05T09:16:07Z</time></trkpt><trkpt lat="43.71990441023376" lon="10.468239303141756"><ele>3.0</ele><time>2026-04-05T09:16:09Z</time></trkpt><trkpt lat="43.719978116232454" lon="10.468140072789842"><ele>3.0</ele><time>2026-04-05T09:16:11Z</time></trkpt><trkpt lat="43.72004514153833" lon="10.468044307952159"><ele>3.0</ele><time>2026-04-05T09:16:13Z</time></trkpt><trkpt lat="43.72010833969884" lon="10.467959377351518"><ele>3.0</ele><time>2026-04-05T09:16:15Z</time></trkpt><trkpt lat="43.72017954151816" lon="10.467899576269886"><ele>3.0</ele><time>2026-04-05T09:16:17Z</time></trkpt><trkpt lat="43.720261138815836" lon="10.467843396659749"><ele>3.0</ele><time>2026-04-05T09:16:19Z</time></trkpt><trkpt lat="43.72033885397001" lon="10.467842220084975"><ele>3.0</ele><time>2026-04-05T09:16:21Z</time></trkpt><trkpt lat="43.720429612790475" lon="10.467427945064768"><ele>3.0</ele><time>2026-04-05T09:16:24.999Z</time></trkpt><trkpt lat="43.72049118208694" lon="10.46735192227514"><ele>3.0</ele><time>2026-04-05T09:16:26.999Z</time></trkpt><trkpt lat="43.72054440937321" lon="10.467278732519294"><ele>3.0</ele><time>2026-04-05T09:16:28.999Z</time></trkpt><trkpt lat="43.720596637850456" lon="10.467194562996001"><ele>3.0</ele><time>2026-04-05T09:16:31.999Z</time></trkpt><trkpt lat="43.720627776791716" lon="10.46710545388467"><ele>3.0</ele><time>2026-04-05T09:16:35.999Z</time></trkpt><trkpt lat="43.72068841136298" lon="10.46705241131323"><ele>3.0</ele><time>2026-04-05T09:16:38.999Z</time></trkpt><trkpt lat="43.72075486059199" lon="10.466966571756247"><ele>3.0</ele><time>2026-04-05T09:16:41.999Z</time></trkpt><trkpt lat="43.72080644975644" lon="10.46690819548083"><ele>3.3333333333333335</ele><time>2026-04-05T09:16:43.999Z</time></trkpt><trkpt lat="43.72086296100298" lon="10.466843231548738"><ele>3.666666666666667</ele><time>2026-04-05T09:16:45.999Z</time></trkpt><trkpt lat="43.72092265086703" lon="10.466772578362638"><ele>4.0</ele><time>2026-04-05T09:16:47.999Z</time></trkpt><trkpt lat="43.72098282101876" lon="10.466695621343517"><ele>4.333333333333334</ele><time>2026-04-05T09:16:49.999Z</time></trkpt><trkpt lat="43.72104473206819" lon="10.46661484194677"><ele>4.666666666666667</ele><time>2026-04-05T09:16:51.999Z</time></trkpt><trkpt lat="43.72111058920992" lon="10.466527222175298"><ele>5.0</ele><time>2026-04-05T09:16:53.999Z</time></trkpt><trkpt lat="43.72118088893782" lon="10.466443551797095"><ele>5.0</ele><time>2026-04-05T09:16:55.999Z</time></trkpt><trkpt lat="43.72125017291069" lon="10.466352444364965"><ele>5.0</ele><time>2026-04-05T09:16:57.999Z</time></trkpt><trkpt lat="43.72131608165826" lon="10.466254389156784"><ele>5.0</ele><time>2026-04-05T09:16:59.999Z</time></trkpt><trkpt lat="43.72137866650613" lon="10.466154881186508"><ele>5.0</ele><time>2026-04-05T09:17:01.999Z</time></trkpt><trkpt lat="43.721438192467964" lon="10.466065161694598"><ele>5.0</ele><time>2026-04-05T09:17:03.999Z</time></trkpt><trkpt lat="43.721498421097316" lon="10.46598512527716"><ele>4.833333333333334</ele><time>2026-04-05T09:17:05.999Z</time></trkpt><trkpt lat="43.72154859317492" lon="10.46589684340075"><ele>4.666666666666667</ele><time>2026-04-05T09:17:07.999Z</time></trkpt><trkpt lat="43.72160214639749" lon="10.465809794331248"><ele>4.5</ele><time>2026-04-05T09:17:09.999Z</time></trkpt><trkpt lat="43.72166517185961" lon="10.465718078345716"><ele>4.333333333333333</ele><time>2026-04-05T09:17:11.999Z</time></trkpt><trkpt lat="43.721716349129764" lon="10.46562368443203"><ele>4.166666666666666</ele><time>2026-04-05T09:17:13.999Z</time></trkpt><trkpt lat="43.72177273816973" lon="10.465534331243033"><ele>4.0</ele><time>2026-04-05T09:17:15.999Z</time></trkpt><trkpt lat="43.72183042484677" lon="10.465446319764544"><ele>3.6666666666666665</ele><time>2026-04-05T09:17:17.998Z</time></trkpt><trkpt lat="43.72187645604011" lon="10.465335371681475"><ele>3.333333333333333</ele><time>2026-04-05T09:17:19.998Z</time></trkpt><trkpt lat="43.721933256382535" lon="10.465236756154729"><ele>3.0</ele><time>2026-04-05T09:17:21.998Z</time></trkpt><trkpt lat="43.72198977970956" lon="10.465135808743039"><ele>2.6666666666666665</ele><time>2026-04-05T09:17:23.998Z</time></trkpt><trkpt lat="43.72202873678051" lon="10.4650336441281"><ele>2.333333333333333</ele><time>2026-04-05T09:17:25.998Z</time></trkpt><trkpt lat="43.72208085071687" lon="10.464939361911382"><ele>2.0</ele><time>2026-04-05T09:17:27.998Z</time></trkpt><trkpt lat="43.72212878482246" lon="10.464834566320558"><ele>2.6666666666666665</ele><time>2026-04-05T09:17:29.998Z</time></trkpt><trkpt lat="43.72217874420124" lon="10.464732703704726"><ele>3.333333333333333</ele><time>2026-04-05T09:17:31.998Z</time></trkpt><trkpt lat="43.722226011204334" lon="10.464632140888432"><ele>4.0</ele><time>2026-04-05T09:17:33.998Z</time></trkpt><trkpt lat="43.72226265582629" lon="10.464532919660158"><ele>4.666666666666667</ele><time>2026-04-05T09:17:36Z</time></trkpt><trkpt lat="43.72230315530148" lon="10.464439525581609"><ele>5.333333333333333</ele><time>2026-04-05T09:17:38Z</time></trkpt><trkpt lat="43.722348075876035" lon="10.464333964034827"><ele>6.0</ele><time>2026-04-05T09:17:40Z</time></trkpt><trkpt lat="43.72239199239329" lon="10.464228067524962"><ele>6.0</ele><time>2026-04-05T09:17:42Z</time></trkpt><trkpt lat="43.722439197188145" lon="10.464129327239734"><ele>6.0</ele><time>2026-04-05T09:17:44Z</time></trkpt><trkpt lat="43.72247992675536" lon="10.464013654280645"><ele>6.0</ele><time>2026-04-05T09:17:46Z</time></trkpt><trkpt lat="43.722518036527944" lon="10.463896250283007"><ele>6.0</ele><time>2026-04-05T09:17:48Z</time></trkpt><trkpt lat="43.72256847474055" lon="10.463782857677296"><ele>6.0</ele><time>2026-04-05T09:17:50Z</time></trkpt><trkpt lat="43.72261452435685" lon="10.463666420008602"><ele>6.0</ele><time>2026-04-05T09:17:52Z</time></trkpt><trkpt lat="43.7226520696803" lon="10.463577740967791"><ele>6.0</ele><time>2026-04-05T09:17:54Z</time></trkpt><trkpt lat="43.72267217172591" lon="10.4634920385665"><ele>6.0</ele><time>2026-04-05T09:17:55Z</time></trkpt><trkpt lat="43.72271105938706" lon="10.463373413557333"><ele>6.0</ele><time>2026-04-05T09:17:57Z</time></trkpt><trkpt lat="43.722751482256626" lon="10.46326306893281"><ele>6.0</ele><time>2026-04-05T09:17:59Z</time></trkpt><trkpt lat="43.72279211511204" lon="10.46314873848226"><ele>6.0</ele><time>2026-04-05T09:18:01Z</time></trkpt><trkpt lat="43.72283731236361" lon="10.463031359725907"><ele>6.0</ele><time>2026-04-05T09:18:03Z</time></trkpt><trkpt lat="43.72287288345575" lon="10.46290593675658"><ele>6.0</ele><time>2026-04-05T09:18:05Z</time></trkpt><trkpt lat="43.72291143434785" lon="10.462778908055297"><ele>6.0</ele><time>2026-04-05T09:18:07Z</time></trkpt><trkpt lat="43.72294857271649" lon="10.462652372680578"><ele>6.0</ele><time>2026-04-05T09:18:09Z</time></trkpt><trkpt lat="43.72298677892499" lon="10.462529306882827"><ele>6.0</ele><time>2026-04-05T09:18:11Z</time></trkpt><trkpt lat="43.723027969381754" lon="10.462398072460264"><ele>6.0</ele><time>2026-04-05T09:18:13Z</time></trkpt><trkpt lat="43.723059736138175" lon="10.46226690553238"><ele>6.0</ele><time>2026-04-05T09:18:15Z</time></trkpt><trkpt lat="43.72309852507934" lon="10.462148172656594"><ele>6.0</ele><time>2026-04-05T09:18:17Z</time></trkpt><trkpt lat="43.723131585586486" lon="10.462014123097884"><ele>6.0</ele><time>2026-04-05T09:18:19Z</time></trkpt><trkpt lat="43.72316123018181" lon="10.461881307572733"><ele>6.0</ele><time>2026-04-05T09:18:21Z</time></trkpt><trkpt lat="43.72319066834452" lon="10.461745376121566"><ele>6.199999999999999</ele><time>2026-04-05T09:18:22.999Z</time></trkpt><trkpt lat="43.72322144156244" lon="10.461613240536948"><ele>6.3999999999999995</ele><time>2026-04-05T09:18:24.999Z</time></trkpt><trkpt lat="43.723254653318556" lon="10.461485073030284"><ele>6.6</ele><time>2026-04-05T09:18:26.999Z</time></trkpt><trkpt lat="43.723285056884464" lon="10.461354941159234"><ele>6.8</ele><time>2026-04-05T09:18:28.999Z</time></trkpt><trkpt lat="43.72331208766759" lon="10.46122624921067"><ele>7.0</ele><time>2026-04-05T09:18:30.999Z</time></trkpt><trkpt lat="43.72333521026486" lon="10.461092307541994"><ele>6.8</ele><time>2026-04-05T09:18:32.999Z</time></trkpt><trkpt lat="43.723362816819716" lon="10.460953175661539"><ele>6.6</ele><time>2026-04-05T09:18:34.999Z</time></trkpt><trkpt lat="43.72338579777593" lon="10.460828800449798"><ele>6.3999999999999995</ele><time>2026-04-05T09:18:36.999Z</time></trkpt><trkpt lat="43.72341002581909" lon="10.460700240336733"><ele>6.199999999999999</ele><time>2026-04-05T09:18:38.999Z</time></trkpt><trkpt lat="43.723434501654715" lon="10.460565554267472"><ele>6.0</ele><time>2026-04-05T09:18:40.999Z</time></trkpt><trkpt lat="43.723459229511256" lon="10.460433829472509"><ele>6.0</ele><time>2026-04-05T09:18:42.999Z</time></trkpt><trkpt lat="43.723481923798126" lon="10.460295554868269"><ele>6.0</ele><time>2026-04-05T09:18:44.999Z</time></trkpt><trkpt lat="43.72350325304304" lon="10.460156556899868"><ele>6.0</ele><time>2026-04-05T09:18:46.999Z</time></trkpt><trkpt lat="43.72352734732015" lon="10.460014120329157"><ele>6.0</ele><time>2026-04-05T09:18:48.999Z</time></trkpt><trkpt lat="43.72354911431166" lon="10.4598721374309"><ele>6.0</ele><time>2026-04-05T09:18:50.999Z</time></trkpt><trkpt lat="43.723568730061054" lon="10.459727516196416"><ele>6.199999999999999</ele><time>2026-04-05T09:18:52.999Z</time></trkpt><trkpt lat="43.723589704478606" lon="10.459580757406233"><ele>6.3999999999999995</ele><time>2026-04-05T09:18:54.999Z</time></trkpt><trkpt lat="43.72360608542252" lon="10.459441573222076"><ele>6.6</ele><time>2026-04-05T09:18:56.999Z</time></trkpt><trkpt lat="43.723624423893774" lon="10.45929215591846"><ele>6.8</ele><time>2026-04-05T09:18:58.999Z</time></trkpt><trkpt lat="43.72364108066563" lon="10.459145507116316"><ele>7.0</ele><time>2026-04-05T09:19:00.999Z</time></trkpt><trkpt lat="43.7236582643881" lon="10.459001643305307"><ele>7.0</ele><time>2026-04-05T09:19:02.999Z</time></trkpt><trkpt lat="43.72367110433419" lon="10.458864510236065"><ele>6.999999999999999</ele><time>2026-04-05T09:19:04.999Z</time></trkpt><trkpt lat="43.723682341952234" lon="10.458735967079903"><ele>6.999999999999999</ele><time>2026-04-05T09:19:06.999Z</time></trkpt><trkpt lat="43.723695520401556" lon="10.4586120388206"><ele>7.0</ele><time>2026-04-05T09:19:08.999Z</time></trkpt><trkpt lat="43.72370367020786" lon="10.458482760483315"><ele>7.0</ele><time>2026-04-05T09:19:10.999Z</time></trkpt><trkpt lat="43.72371535227794" lon="10.458357412299451"><ele>6.8</ele><time>2026-04-05T09:19:12.998Z</time></trkpt><trkpt lat="43.72371541494633" lon="10.45822014540783"><ele>6.6</ele><time>2026-04-05T09:19:14.998Z</time></trkpt><trkpt lat="43.72372863048662" lon="10.458084684366534"><ele>6.3999999999999995</ele><time>2026-04-05T09:19:16.998Z</time></trkpt><trkpt lat="43.72372990050107" lon="10.457944064888995"><ele>6.199999999999999</ele><time>2026-04-05T09:19:18.998Z</time></trkpt><trkpt lat="43.72373292132725" lon="10.457805873865137"><ele>6.0</ele><time>2026-04-05T09:19:20.998Z</time></trkpt><trkpt lat="43.723735835028485" lon="10.457665993008813"><ele>6.0</ele><time>2026-04-05T09:19:22.998Z</time></trkpt><trkpt lat="43.72373480786023" lon="10.457520072785929"><ele>6.0</ele><time>2026-04-05T09:19:24.998Z</time></trkpt><trkpt lat="43.72373378877437" lon="10.457373199974224"><ele>6.0</ele><time>2026-04-05T09:19:26.998Z</time></trkpt><trkpt lat="43.723733804780366" lon="10.457230606651795"><ele>6.0</ele><time>2026-04-05T09:19:28.998Z</time></trkpt><trkpt lat="43.72373433090434" lon="10.457083741250411"><ele>6.0</ele><time>2026-04-05T09:19:30.998Z</time></trkpt><trkpt lat="43.723729530161464" lon="10.456943762164991"><ele>6.0</ele><time>2026-04-05T09:19:32.998Z</time></trkpt><trkpt lat="43.72372489634347" lon="10.456802508834839"><ele>6.0</ele><time>2026-04-05T09:19:34.998Z</time></trkpt><trkpt lat="43.72371733613703" lon="10.456660992168798"><ele>6.0</ele><time>2026-04-05T09:19:36.998Z</time></trkpt><trkpt lat="43.72370408989133" lon="10.456521535816265"><ele>6.0</ele><time>2026-04-05T09:19:38.998Z</time></trkpt><trkpt lat="43.7236908930545" lon="10.456382813635893"><ele>6.0</ele><time>2026-04-05T09:19:40.998Z</time></trkpt><trkpt lat="43.7236795085815" lon="10.456237626610788"><ele>6.0</ele><time>2026-04-05T09:19:43Z</time></trkpt><trkpt lat="43.7236588296495" lon="10.456100087994022"><ele>6.0</ele><time>2026-04-05T09:19:45Z</time></trkpt><trkpt lat="43.72364502879787" lon="10.455964588992119"><ele>6.0</ele><time>2026-04-05T09:19:47Z</time></trkpt><trkpt lat="43.72362858760043" lon="10.45582692202256"><ele>6.0</ele><time>2026-04-05T09:19:49Z</time></trkpt><trkpt lat="43.72360162898654" lon="10.455695279605543"><ele>6.0</ele><time>2026-04-05T09:19:51Z</time></trkpt><trkpt lat="43.723577752305935" lon="10.45555543305156"><ele>6.0</ele><time>2026-04-05T09:19:53Z</time></trkpt><trkpt lat="43.723549779383966" lon="10.455420315820897"><ele>6.0</ele><time>2026-04-05T09:19:55Z</time></trkpt><trkpt lat="43.72352678142593" lon="10.455284289885064"><ele>6.0</ele><time>2026-04-05T09:19:57Z</time></trkpt><trkpt lat="43.7236119804888" lon="10.455066575041652"><ele>6.0</ele><time>2026-04-05T09:19:59Z</time></trkpt><trkpt lat="43.72356993230179" lon="10.45494612666831"><ele>6.0</ele><time>2026-04-05T09:20:01Z</time></trkpt><trkpt lat="43.723529746314995" lon="10.454815645295108"><ele>6.0</ele><time>2026-04-05T09:20:03Z</time></trkpt><trkpt lat="43.723488931002755" lon="10.454682998842461"><ele>6.0</ele><time>2026-04-05T09:20:05Z</time></trkpt><trkpt lat="43.723447843453116" lon="10.454545800727333"><ele>6.0</ele><time>2026-04-05T09:20:07Z</time></trkpt><trkpt lat="43.723411203012965" lon="10.454417915716313"><ele>6.0</ele><time>2026-04-05T09:20:09Z</time></trkpt><trkpt lat="43.72337703930908" lon="10.454296540328594"><ele>6.166666666666667</ele><time>2026-04-05T09:20:11Z</time></trkpt><trkpt lat="43.723345088372675" lon="10.454180522084263"><ele>6.333333333333334</ele><time>2026-04-05T09:20:13Z</time></trkpt><trkpt lat="43.72331818655661" lon="10.454068735303427"><ele>6.5</ele><time>2026-04-05T09:20:15Z</time></trkpt><trkpt lat="43.723292001274736" lon="10.453945028558001"><ele>6.666666666666667</ele><time>2026-04-05T09:20:17Z</time></trkpt><trkpt lat="43.72327196797214" lon="10.453833127508455"><ele>6.833333333333334</ele><time>2026-04-05T09:20:19Z</time></trkpt><trkpt lat="43.723249295672574" lon="10.453706895526032"><ele>7.0</ele><time>2026-04-05T09:20:21Z</time></trkpt><trkpt lat="43.723225067675564" lon="10.453573693071753"><ele>7.0</ele><time>2026-04-05T09:20:23Z</time></trkpt><trkpt lat="43.72319774690918" lon="10.453440526027029"><ele>6.999999999999999</ele><time>2026-04-05T09:20:25Z</time></trkpt><trkpt lat="43.72316792542013" lon="10.453308783660068"><ele>6.999999999999999</ele><time>2026-04-05T09:20:26.999Z</time></trkpt><trkpt lat="43.72313546930941" lon="10.453177328572469"><ele>7.0</ele><time>2026-04-05T09:20:28.999Z</time></trkpt><trkpt lat="43.72310214641493" lon="10.453046163558483"><ele>7.0</ele><time>2026-04-05T09:20:30.999Z</time></trkpt><trkpt lat="43.723067676309434" lon="10.452916043806102"><ele>6.8</ele><time>2026-04-05T09:20:32.999Z</time></trkpt><trkpt lat="43.72302940536589" lon="10.452779703881692"><ele>6.6</ele><time>2026-04-05T09:20:34.999Z</time></trkpt><trkpt lat="43.72298859669028" lon="10.452645554633758"><ele>6.3999999999999995</ele><time>2026-04-05T09:20:36.999Z</time></trkpt><trkpt lat="43.72294677893316" lon="10.452510947139181"><ele>6.199999999999999</ele><time>2026-04-05T09:20:38.999Z</time></trkpt><trkpt lat="43.72290690899814" lon="10.45237643984544"><ele>6.0</ele><time>2026-04-05T09:20:40.999Z</time></trkpt><trkpt lat="43.72286840889727" lon="10.45224505724422"><ele>6.0</ele><time>2026-04-05T09:20:42.999Z</time></trkpt><trkpt lat="43.72282934419847" lon="10.45211174798737"><ele>6.0</ele><time>2026-04-05T09:20:44.999Z</time></trkpt><trkpt lat="43.72278882475868" lon="10.451978478627623"><ele>6.0</ele><time>2026-04-05T09:20:46.999Z</time></trkpt><trkpt lat="43.72274704681018" lon="10.451846900275441"><ele>6.0</ele><time>2026-04-05T09:20:48.999Z</time></trkpt><trkpt lat="43.722705447093205" lon="10.451713860694005"><ele>6.0</ele><time>2026-04-05T09:20:50.999Z</time></trkpt><trkpt lat="43.72266487275964" lon="10.451581526097138"><ele>6.0</ele><time>2026-04-05T09:20:52.999Z</time></trkpt><trkpt lat="43.7226336861709" lon="10.451457281844641"><ele>6.0</ele><time>2026-04-05T09:20:54.999Z</time></trkpt><trkpt lat="43.72261451362276" lon="10.451331891570275"><ele>6.0</ele><time>2026-04-05T09:20:56.999Z</time></trkpt><trkpt lat="43.72261128202848" lon="10.451212684249269"><ele>6.0</ele><time>2026-04-05T09:20:58.999Z</time></trkpt><trkpt lat="43.72262452006849" lon="10.451108860799824"><ele>6.0</ele><time>2026-04-05T09:21:00.999Z</time></trkpt><trkpt lat="43.72235547148703" lon="10.450990626990324"><ele>6.0</ele><time>2026-04-05T09:21:02.999Z</time></trkpt><trkpt lat="43.72230709719063" lon="10.450862708083385"><ele>6.0</ele><time>2026-04-05T09:21:04.999Z</time></trkpt><trkpt lat="43.722256105068794" lon="10.45073797458164"><ele>6.0</ele><time>2026-04-05T09:21:06.999Z</time></trkpt><trkpt lat="43.722205318016854" lon="10.450608123663724"><ele>6.0</ele><time>2026-04-05T09:21:08.999Z</time></trkpt><trkpt lat="43.722151988074856" lon="10.450482633196595"><ele>6.0</ele><time>2026-04-05T09:21:10.999Z</time></trkpt><trkpt lat="43.72209622751692" lon="10.450364383083459"><ele>5.8</ele><time>2026-04-05T09:21:12.999Z</time></trkpt><trkpt lat="43.72203840228557" lon="10.450244247696315"><ele>5.6</ele><time>2026-04-05T09:21:14.999Z</time></trkpt><trkpt lat="43.72198008103401" lon="10.450121446201"><ele>5.4</ele><time>2026-04-05T09:21:16.998Z</time></trkpt><trkpt lat="43.721919088755406" lon="10.449999469094328"><ele>5.2</ele><time>2026-04-05T09:21:18.998Z</time></trkpt><trkpt lat="43.7218598952635" lon="10.44988291350993"><ele>5.0</ele><time>2026-04-05T09:21:20.998Z</time></trkpt><trkpt lat="43.72179803784659" lon="10.449762378918566"><ele>5.0</ele><time>2026-04-05T09:21:22.998Z</time></trkpt><trkpt lat="43.721734310220114" lon="10.449648116179917"><ele>5.0</ele><time>2026-04-05T09:21:24.998Z</time></trkpt><trkpt lat="43.721670585423546" lon="10.449532714122387"><ele>5.0</ele><time>2026-04-05T09:21:26.998Z</time></trkpt><trkpt lat="43.7216028299838" lon="10.449415334016946"><ele>5.0</ele><time>2026-04-05T09:21:28.998Z</time></trkpt><trkpt lat="43.72153778503134" lon="10.449303933415415"><ele>5.0</ele><time>2026-04-05T09:21:30.998Z</time></trkpt><trkpt lat="43.721473357504884" lon="10.449190041654937"><ele>5.0</ele><time>2026-04-05T09:21:32.998Z</time></trkpt><trkpt lat="43.721402726790245" lon="10.449072404639566"><ele>5.0</ele><time>2026-04-05T09:21:34.998Z</time></trkpt><trkpt lat="43.72133371940291" lon="10.448959555292179"><ele>5.0</ele><time>2026-04-05T09:21:36.998Z</time></trkpt><trkpt lat="43.721265588398865" lon="10.448838313481106"><ele>5.0</ele><time>2026-04-05T09:21:38.998Z</time></trkpt><trkpt lat="43.72119007870494" lon="10.448724639324917"><ele>5.0</ele><time>2026-04-05T09:21:40.998Z</time></trkpt><trkpt lat="43.721121486892976" lon="10.448620715791364"><ele>4.8</ele><time>2026-04-05T09:21:42.998Z</time></trkpt><trkpt lat="43.721058328484624" lon="10.448517643292362"><ele>4.6</ele><time>2026-04-05T09:21:44.998Z</time></trkpt><trkpt lat="43.72099751661733" lon="10.448423004964186"><ele>4.4</ele><time>2026-04-05T09:21:46.998Z</time></trkpt><trkpt lat="43.720937548156606" lon="10.44832132884976"><ele>4.2</ele><time>2026-04-05T09:21:49Z</time></trkpt><trkpt lat="43.72087029894639" lon="10.44822177071471"><ele>4.0</ele><time>2026-04-05T09:21:51Z</time></trkpt><trkpt lat="43.72081158213186" lon="10.448110937724367"><ele>4.0</ele><time>2026-04-05T09:21:53Z</time></trkpt><trkpt lat="43.72073694798185" lon="10.448020518384519"><ele>4.0</ele><time>2026-04-05T09:21:55Z</time></trkpt><trkpt lat="43.72067017344828" lon="10.447912244740833"><ele>4.0</ele><time>2026-04-05T09:21:57Z</time></trkpt><trkpt lat="43.720600685648265" lon="10.447801737803529"><ele>4.0</ele><time>2026-04-05T09:21:59Z</time></trkpt><trkpt lat="43.72052675178965" lon="10.447693118161048"><ele>4.0</ele><time>2026-04-05T09:22:01Z</time></trkpt><trkpt lat="43.7204549987117" lon="10.447588180477979"><ele>4.2</ele><time>2026-04-05T09:22:03Z</time></trkpt><trkpt lat="43.720392234799085" lon="10.447486972653806"><ele>4.4</ele><time>2026-04-05T09:22:05Z</time></trkpt><trkpt lat="43.72033386780478" lon="10.447394024814127"><ele>4.6</ele><time>2026-04-05T09:22:07Z</time></trkpt><trkpt lat="43.72027743443587" lon="10.447306422917272"><ele>4.8</ele><time>2026-04-05T09:22:09Z</time></trkpt><trkpt lat="43.7202120649849" lon="10.447224418576265"><ele>5.0</ele><time>2026-04-05T09:22:11Z</time></trkpt><trkpt lat="43.72014730133203" lon="10.447130827424454"><ele>5.2</ele><time>2026-04-05T09:22:13Z</time></trkpt><trkpt lat="43.720078899642814" lon="10.447033283316665"><ele>5.4</ele><time>2026-04-05T09:22:15Z</time></trkpt><trkpt lat="43.72000433225629" lon="10.446946725180803"><ele>5.6</ele><time>2026-04-05T09:22:17Z</time></trkpt><trkpt lat="43.719921877876516" lon="10.446858198546074"><ele>5.8</ele><time>2026-04-05T09:22:19Z</time></trkpt><trkpt lat="43.71983945770671" lon="10.446773637866508"><ele>6.0</ele><time>2026-04-05T09:22:21Z</time></trkpt><trkpt lat="43.71986350027297" lon="10.446551496492305"><ele>6.0</ele><time>2026-04-05T09:22:22Z</time></trkpt><trkpt lat="43.71976812582366" lon="10.446486424467633"><ele>6.0</ele><time>2026-04-05T09:22:24Z</time></trkpt><trkpt lat="43.71963089742586" lon="10.446577598696502"><ele>6.0</ele><time>2026-04-05T09:22:26Z</time></trkpt><trkpt lat="43.71955279667576" lon="10.44650837769871"><ele>6.0</ele><time>2026-04-05T09:22:27.999Z</time></trkpt><trkpt lat="43.71947580271201" lon="10.44645021558163"><ele>6.0</ele><time>2026-04-05T09:22:29.999Z</time></trkpt><trkpt lat="43.719399605098495" lon="10.44640059174536"><ele>5.833333333333333</ele><time>2026-04-05T09:22:31.999Z</time></trkpt><trkpt lat="43.71933349879908" lon="10.44634430949946"><ele>5.666666666666667</ele><time>2026-04-05T09:22:33.999Z</time></trkpt><trkpt lat="43.71925706880498" lon="10.446293969237402"><ele>5.5</ele><time>2026-04-05T09:22:35.999Z</time></trkpt><trkpt lat="43.71916307740745" lon="10.446246820906834"><ele>5.333333333333334</ele><time>2026-04-05T09:22:37.999Z</time></trkpt><trkpt lat="43.71908392454913" lon="10.446191218208103"><ele>5.166666666666667</ele><time>2026-04-05T09:22:39.999Z</time></trkpt><trkpt lat="43.71899815384152" lon="10.446146163842224"><ele>5.0</ele><time>2026-04-05T09:22:41.999Z</time></trkpt><trkpt lat="43.71891023624527" lon="10.446092764115336"><ele>4.8</ele><time>2026-04-05T09:22:43.999Z</time></trkpt><trkpt lat="43.71881814641192" lon="10.446045725249496"><ele>4.6</ele><time>2026-04-05T09:22:45.999Z</time></trkpt><trkpt lat="43.718728117567245" lon="10.445994086141337"><ele>4.4</ele><time>2026-04-05T09:22:47.999Z</time></trkpt><trkpt lat="43.71863624208366" lon="10.445945657126662"><ele>4.2</ele><time>2026-04-05T09:22:49.999Z</time></trkpt><trkpt lat="43.718547380520135" lon="10.445904962743546"><ele>4.0</ele><time>2026-04-05T09:22:51.999Z</time></trkpt><trkpt lat="43.71846269300266" lon="10.445858121369444"><ele>4.5</ele><time>2026-04-05T09:22:53.999Z</time></trkpt><trkpt lat="43.71838346909563" lon="10.445838570753708"><ele>5.0</ele><time>2026-04-05T09:22:55.999Z</time></trkpt><trkpt lat="43.718327953033636" lon="10.445796608046054"><ele>5.5</ele><time>2026-04-05T09:22:57.999Z</time></trkpt><trkpt lat="43.71826500617549" lon="10.445700835241711"><ele>6.0</ele><time>2026-04-05T09:23:00.999Z</time></trkpt><trkpt lat="43.71819716965221" lon="10.445644474189873"><ele>6.500000000000001</ele><time>2026-04-05T09:23:02.999Z</time></trkpt><trkpt lat="43.71813657299023" lon="10.445586503513553"><ele>7.0</ele><time>2026-04-05T09:23:08.999Z</time></trkpt><trkpt lat="43.71806447666801" lon="10.445534665039412"><ele>7.000000000000001</ele><time>2026-04-05T09:23:12.999Z</time></trkpt><trkpt lat="43.717982828070575" lon="10.445488818885568"><ele>7.0</ele><time>2026-04-05T09:23:15.999Z</time></trkpt><trkpt lat="43.717935458967645" lon="10.445405239521703"><ele>7.0</ele><time>2026-04-05T09:23:17.998Z</time></trkpt><trkpt lat="43.71785944696303" lon="10.445356702484013"><ele>7.0</ele><time>2026-04-05T09:23:19.998Z</time></trkpt><trkpt lat="43.717776382248346" lon="10.445323172720915"><ele>7.000000000000001</ele><time>2026-04-05T09:23:21.998Z</time></trkpt><trkpt lat="43.717689698294" lon="10.445289960643283"><ele>7.0</ele><time>2026-04-05T09:23:23.998Z</time></trkpt><trkpt lat="43.717599378354386" lon="10.445252262742178"><ele>6.6</ele><time>2026-04-05T09:23:25.998Z</time></trkpt><trkpt lat="43.717510181877735" lon="10.445211542751593"><ele>6.199999999999999</ele><time>2026-04-05T09:23:27.998Z</time></trkpt><trkpt lat="43.71742058448822" lon="10.445173540671743"><ele>5.8</ele><time>2026-04-05T09:23:29.998Z</time></trkpt><trkpt lat="43.71732851592441" lon="10.445137662484665"><ele>5.4</ele><time>2026-04-05T09:23:31.998Z</time></trkpt><trkpt lat="43.7172347073011" lon="10.445102144837376"><ele>5.0</ele><time>2026-04-05T09:23:33.998Z</time></trkpt><trkpt lat="43.71714191343843" lon="10.445062077992038"><ele>5.0</ele><time>2026-04-05T09:23:35.998Z</time></trkpt><trkpt lat="43.71704886807767" lon="10.445023879150439"><ele>5.0</ele><time>2026-04-05T09:23:37.998Z</time></trkpt><trkpt lat="43.71695830633997" lon="10.444984390849477"><ele>5.0</ele><time>2026-04-05T09:23:39.998Z</time></trkpt><trkpt lat="43.716864692742945" lon="10.444942025708203"><ele>5.0</ele><time>2026-04-05T09:23:41.998Z</time></trkpt><trkpt lat="43.716768810329825" lon="10.444902930986299"><ele>5.0</ele><time>2026-04-05T09:23:43.998Z</time></trkpt><trkpt lat="43.71667174261151" lon="10.44486499965221"><ele>5.0</ele><time>2026-04-05T09:23:45.998Z</time></trkpt><trkpt lat="43.71657584618759" lon="10.444823718996807"><ele>5.0</ele><time>2026-04-05T09:23:47.998Z</time></trkpt><trkpt lat="43.71647925667576" lon="10.44478182366263"><ele>5.0</ele><time>2026-04-05T09:23:49.998Z</time></trkpt><trkpt lat="43.716383025639274" lon="10.44474239593268"><ele>5.0</ele><time>2026-04-05T09:23:51.998Z</time></trkpt><trkpt lat="43.71628771765463" lon="10.444705380177835"><ele>5.0</ele><time>2026-04-05T09:23:54Z</time></trkpt><trkpt lat="43.71619095937081" lon="10.44466233506733"><ele>4.8</ele><time>2026-04-05T09:23:56Z</time></trkpt><trkpt lat="43.716095635540356" lon="10.444616386345094"><ele>4.6</ele><time>2026-04-05T09:23:58Z</time></trkpt><trkpt lat="43.716002602045165" lon="10.444559831241534"><ele>4.4</ele><time>2026-04-05T09:24:00Z</time></trkpt><trkpt lat="43.715908947895976" lon="10.44449641736243"><ele>4.2</ele><time>2026-04-05T09:24:02Z</time></trkpt><trkpt lat="43.71581590099447" lon="10.444440359591123"><ele>4.0</ele><time>2026-04-05T09:24:04Z</time></trkpt><trkpt lat="43.71573028408218" lon="10.444382276358434"><ele>3.9999999999999996</ele><time>2026-04-05T09:24:06Z</time></trkpt><trkpt lat="43.71564529176715" lon="10.444327508391376"><ele>4.0</ele><time>2026-04-05T09:24:08Z</time></trkpt><trkpt lat="43.71556395195512" lon="10.444282075628156"><ele>4.0</ele><time>2026-04-05T09:24:10Z</time></trkpt><trkpt lat="43.71548606463751" lon="10.444231127942228"><ele>4.0</ele><time>2026-04-05T09:24:12Z</time></trkpt><trkpt lat="43.71540902668659" lon="10.44418933965629"><ele>3.9999999999999996</ele><time>2026-04-05T09:24:14Z</time></trkpt><trkpt lat="43.71532641814521" lon="10.44414491873522"><ele>4.0</ele><time>2026-04-05T09:24:16Z</time></trkpt><trkpt lat="43.715241799792324" lon="10.444075624323926"><ele>3.6</ele><time>2026-04-05T09:24:18Z</time></trkpt><trkpt lat="43.71514773868295" lon="10.444024740249041"><ele>3.2</ele><time>2026-04-05T09:24:20Z</time></trkpt><trkpt lat="43.71505194680915" lon="10.443967028076964"><ele>2.8000000000000003</ele><time>2026-04-05T09:24:21.999Z</time></trkpt><trkpt lat="43.71495048647751" lon="10.443911829348849"><ele>2.4000000000000004</ele><time>2026-04-05T09:24:23.999Z</time></trkpt><trkpt lat="43.714853654207595" lon="10.443846546807741"><ele>2.0</ele><time>2026-04-05T09:24:25.999Z</time></trkpt><trkpt lat="43.71476084388748" lon="10.443782785856017"><ele>2.0</ele><time>2026-04-05T09:24:27.999Z</time></trkpt><trkpt lat="43.71466274382042" lon="10.443721706274918"><ele>2.0</ele><time>2026-04-05T09:24:29.999Z</time></trkpt><trkpt lat="43.71456204287331" lon="10.443658643726057"><ele>2.0</ele><time>2026-04-05T09:24:31.999Z</time></trkpt><trkpt lat="43.71446303289339" lon="10.443600324779206"><ele>2.0</ele><time>2026-04-05T09:24:33.999Z</time></trkpt><trkpt lat="43.714367710208876" lon="10.443539192309242"><ele>2.0</ele><time>2026-04-05T09:24:35.999Z</time></trkpt><trkpt lat="43.71427188678966" lon="10.44347821497491"><ele>2.0</ele><time>2026-04-05T09:24:37.999Z</time></trkpt><trkpt lat="43.714175104685104" lon="10.443413882231829"><ele>2.0</ele><time>2026-04-05T09:24:39.999Z</time></trkpt><trkpt lat="43.71407686470327" lon="10.44335358418478"><ele>2.0</ele><time>2026-04-05T09:24:41.999Z</time></trkpt><trkpt lat="43.71397799709337" lon="10.443295227186537"><ele>2.0</ele><time>2026-04-05T09:24:43.999Z</time></trkpt><trkpt lat="43.713880441419626" lon="10.443234705938703"><ele>2.0</ele><time>2026-04-05T09:24:45.999Z</time></trkpt><trkpt lat="43.71378459374153" lon="10.44318104232203"><ele>2.0</ele><time>2026-04-05T09:24:47.999Z</time></trkpt><trkpt lat="43.713714635287104" lon="10.443079482362432"><ele>2.0</ele><time>2026-04-05T09:24:49.999Z</time></trkpt><trkpt lat="43.71375444580862" lon="10.44293771386146"><ele>2.0</ele><time>2026-04-05T09:24:51.999Z</time></trkpt><trkpt lat="43.71380542445257" lon="10.442816288489299"><ele>2.0</ele><time>2026-04-05T09:24:53.999Z</time></trkpt><trkpt lat="43.7138532695572" lon="10.442687938426824"><ele>2.0</ele><time>2026-04-05T09:24:55.999Z</time></trkpt><trkpt lat="43.71390277436742" lon="10.442559147394151"><ele>2.0</ele><time>2026-04-05T09:24:57.999Z</time></trkpt><trkpt lat="43.71395711960162" lon="10.442436518767275"><ele>2.0</ele><time>2026-04-05T09:24:59.999Z</time></trkpt><trkpt lat="43.71401407032316" lon="10.442317690431121"><ele>2.0</ele><time>2026-04-05T09:25:01.999Z</time></trkpt><trkpt lat="43.71407225393685" lon="10.442196707982749"><ele>2.0</ele><time>2026-04-05T09:25:03.999Z</time></trkpt><trkpt lat="43.71412887837017" lon="10.442072312952376"><ele>2.0</ele><time>2026-04-05T09:25:05.999Z</time></trkpt><trkpt lat="43.714156112784686" lon="10.441929040929535"><ele>2.2</ele><time>2026-04-05T09:25:07.999Z</time></trkpt><trkpt lat="43.71418762614198" lon="10.441794413957973"><ele>2.4000000000000004</ele><time>2026-04-05T09:25:09.999Z</time></trkpt><trkpt lat="43.71421203951182" lon="10.44166040013773"><ele>2.5999999999999996</ele><time>2026-04-05T09:25:11.999Z</time></trkpt><trkpt lat="43.71424472569619" lon="10.441519618809833"><ele>2.8</ele><time>2026-04-05T09:25:13.998Z</time></trkpt><trkpt lat="43.71428557870302" lon="10.44138473563097"><ele>3.0</ele><time>2026-04-05T09:25:15.998Z</time></trkpt><trkpt lat="43.714320682823164" lon="10.44124349685766"><ele>3.0</ele><time>2026-04-05T09:25:17.998Z</time></trkpt><trkpt lat="43.71435684221242" lon="10.441102232675885"><ele>3.0</ele><time>2026-04-05T09:25:19.998Z</time></trkpt><trkpt lat="43.71439398308521" lon="10.440967602862534"><ele>3.0</ele><time>2026-04-05T09:25:21.998Z</time></trkpt><trkpt lat="43.71442263651702" lon="10.440822956876222"><ele>3.0</ele><time>2026-04-05T09:25:23.998Z</time></trkpt><trkpt lat="43.714461183435475" lon="10.440683855860899"><ele>3.0</ele><time>2026-04-05T09:25:25.998Z</time></trkpt><trkpt lat="43.71450194824596" lon="10.440549730349979"><ele>2.6</ele><time>2026-04-05T09:25:27.998Z</time></trkpt><trkpt lat="43.7145393072391" lon="10.440413379136118"><ele>2.1999999999999997</ele><time>2026-04-05T09:25:29.998Z</time></trkpt><trkpt lat="43.714582030667806" lon="10.440280515875918"><ele>1.8</ele><time>2026-04-05T09:25:31.998Z</time></trkpt><trkpt lat="43.71462174273336" lon="10.440145289759082"><ele>1.4</ele><time>2026-04-05T09:25:33.998Z</time></trkpt><trkpt lat="43.7146550688672" lon="10.440006480539138"><ele>1.0</ele><time>2026-04-05T09:25:35.998Z</time></trkpt><trkpt lat="43.71469104659087" lon="10.439870516785145"><ele>1.0</ele><time>2026-04-05T09:25:37.998Z</time></trkpt><trkpt lat="43.71472550259526" lon="10.439733408468655"><ele>1.0</ele><time>2026-04-05T09:25:39.998Z</time></trkpt><trkpt lat="43.714758684214935" lon="10.439591993389927"><ele>1.0</ele><time>2026-04-05T09:25:41.998Z</time></trkpt><trkpt lat="43.71479626083026" lon="10.439451957105161"><ele>1.0</ele><time>2026-04-05T09:25:43.998Z</time></trkpt><trkpt lat="43.71483115539547" lon="10.439313586091526"><ele>1.0</ele><time>2026-04-05T09:25:45.998Z</time></trkpt><trkpt lat="43.71486626831668" lon="10.439171954119722"><ele>0.8</ele><time>2026-04-05T09:25:47.998Z</time></trkpt><trkpt lat="43.71489442256754" lon="10.439029414924658"><ele>0.6000000000000001</ele><time>2026-04-05T09:25:49.998Z</time></trkpt><trkpt lat="43.7149252696403" lon="10.43888692419582"><ele>0.4</ele><time>2026-04-05T09:25:51.998Z</time></trkpt><trkpt lat="43.71494799465931" lon="10.438742451650826"><ele>0.2</ele><time>2026-04-05T09:25:53.998Z</time></trkpt><trkpt lat="43.714972468292395" lon="10.438597641366846"><ele>0.0</ele><time>2026-04-05T09:25:55.998Z</time></trkpt><trkpt lat="43.71499212160323" lon="10.438453563109091"><ele>0.0</ele><time>2026-04-05T09:25:57.998Z</time></trkpt><trkpt lat="43.71501590366997" lon="10.438309450477664"><ele>0.0</ele><time>2026-04-05T09:25:59.999Z</time></trkpt><trkpt lat="43.71503365533318" lon="10.438161708054286"><ele>0.0</ele><time>2026-04-05T09:26:01.999Z</time></trkpt><trkpt lat="43.71506032220151" lon="10.438021183796215"><ele>0.0</ele><time>2026-04-05T09:26:03.999Z</time></trkpt><trkpt lat="43.71509592737617" lon="10.437877929223825"><ele>0.0</ele><time>2026-04-05T09:26:05.999Z</time></trkpt><trkpt lat="43.71512957128805" lon="10.437734547794495"><ele>0.2</ele><time>2026-04-05T09:26:07.999Z</time></trkpt><trkpt lat="43.7151641599743" lon="10.43759072013058"><ele>0.4</ele><time>2026-04-05T09:26:09.999Z</time></trkpt><trkpt lat="43.715201397291146" lon="10.437447034393655"><ele>0.6000000000000001</ele><time>2026-04-05T09:26:11.999Z</time></trkpt><trkpt lat="43.715235197478364" lon="10.437309875224292"><ele>0.8</ele><time>2026-04-05T09:26:13.999Z</time></trkpt><trkpt lat="43.71527612770978" lon="10.437178219473491"><ele>1.0</ele><time>2026-04-05T09:26:15.999Z</time></trkpt><trkpt lat="43.715320805666266" lon="10.437054061135582"><ele>1.4</ele><time>2026-04-05T09:26:17.999Z</time></trkpt><trkpt lat="43.71535661636708" lon="10.436920512843264"><ele>1.8</ele><time>2026-04-05T09:26:19.999Z</time></trkpt><trkpt lat="43.71540263258882" lon="10.436788046926273"><ele>2.1999999999999997</ele><time>2026-04-05T09:26:21.999Z</time></trkpt><trkpt lat="43.71544760906656" lon="10.436651344418753"><ele>2.6</ele><time>2026-04-05T09:26:23.999Z</time></trkpt><trkpt lat="43.71548884330155" lon="10.43651421436527"><ele>3.0</ele><time>2026-04-05T09:26:25.999Z</time></trkpt><trkpt lat="43.7155307844205" lon="10.436375234335236"><ele>2.8</ele><time>2026-04-05T09:26:27.999Z</time></trkpt><trkpt lat="43.71557181262468" lon="10.436235410289221"><ele>2.5999999999999996</ele><time>2026-04-05T09:26:29.999Z</time></trkpt><trkpt lat="43.71561803056501" lon="10.43609374045686"><ele>2.4000000000000004</ele><time>2026-04-05T09:26:31.999Z</time></trkpt><trkpt lat="43.71566308640312" lon="10.43595076454469"><ele>2.2</ele><time>2026-04-05T09:26:33.999Z</time></trkpt><trkpt lat="43.71570779335193" lon="10.435810692491236"><ele>2.0</ele><time>2026-04-05T09:26:35.999Z</time></trkpt><trkpt lat="43.715752754245614" lon="10.435667331877585"><ele>2.0</ele><time>2026-04-05T09:26:37.999Z</time></trkpt><trkpt lat="43.715802179613064" lon="10.435527870758621"><ele>2.0</ele><time>2026-04-05T09:26:39.999Z</time></trkpt><trkpt lat="43.71585118261577" lon="10.435387984571943"><ele>2.0</ele><time>2026-04-05T09:26:41.999Z</time></trkpt><trkpt lat="43.71589657351877" lon="10.435244339524296"><ele>2.0</ele><time>2026-04-05T09:26:43.999Z</time></trkpt><trkpt lat="43.71594743454827" lon="10.435099049618056"><ele>1.75</ele><time>2026-04-05T09:26:45.999Z</time></trkpt><trkpt lat="43.715997095027525" lon="10.43495498779204"><ele>1.5</ele><time>2026-04-05T09:26:47.999Z</time></trkpt><trkpt lat="43.71603599487342" lon="10.434814185000246"><ele>1.25</ele><time>2026-04-05T09:26:49.999Z</time></trkpt><trkpt lat="43.71607198733829" lon="10.43473241300868"><ele>1.0</ele><time>2026-04-05T09:26:51.999Z</time></trkpt><trkpt lat="43.71590586150952" lon="10.434634064324907"><ele>0.7142857142857142</ele><time>2026-04-05T09:26:55.999Z</time></trkpt><trkpt lat="43.71586167009868" lon="10.434558402832762"><ele>0.4285714285714285</ele><time>2026-04-05T09:26:59.999Z</time></trkpt><trkpt lat="43.715890959480895" lon="10.434474008709255"><ele>0.14285714285714285</ele><time>2026-04-05T09:27:01.999Z</time></trkpt><trkpt lat="43.71593424655047" lon="10.434407275167517"><ele>-0.14285714285714285</ele><time>2026-04-05T09:27:03.999Z</time></trkpt><trkpt lat="43.71596994957782" lon="10.434316818120827"><ele>-0.4285714285714285</ele><time>2026-04-05T09:27:05.999Z</time></trkpt><trkpt lat="43.715994407944166" lon="10.434234623215685"><ele>-0.7142857142857142</ele><time>2026-04-05T09:27:07.999Z</time></trkpt><trkpt lat="43.71603116729617" lon="10.434131551194229"><ele>-1.0</ele><time>2026-04-05T09:27:10.999Z</time></trkpt><trkpt lat="43.716041553557545" lon="10.434003496507783"><ele>-0.8</ele><time>2026-04-05T09:27:13.999Z</time></trkpt><trkpt lat="43.71608971539036" lon="10.433899115895239"><ele>-0.6000000000000001</ele><time>2026-04-05T09:27:15.999Z</time></trkpt><trkpt lat="43.71612782011772" lon="10.433785365137163"><ele>-0.4</ele><time>2026-04-05T09:27:17.999Z</time></trkpt><trkpt lat="43.71616843297865" lon="10.433660234477811"><ele>-0.2</ele><time>2026-04-05T09:27:19.999Z</time></trkpt><trkpt lat="43.71621070492717" lon="10.433534868176185"><ele>0.0</ele><time>2026-04-05T09:27:21.999Z</time></trkpt><trkpt lat="43.71625287932918" lon="10.433402428116796"><ele>0.0</ele><time>2026-04-05T09:27:23.998Z</time></trkpt><trkpt lat="43.7162947678877" lon="10.43326942744628"><ele>0.0</ele><time>2026-04-05T09:27:25.998Z</time></trkpt><trkpt lat="43.71633594284643" lon="10.43313682564081"><ele>0.0</ele><time>2026-04-05T09:27:27.998Z</time></trkpt><trkpt lat="43.71637414144413" lon="10.43300023292592"><ele>0.0</ele><time>2026-04-05T09:27:29.998Z</time></trkpt><trkpt lat="43.71641444903562" lon="10.432864771480334"><ele>0.0</ele><time>2026-04-05T09:27:31.998Z</time></trkpt><trkpt lat="43.71645581795492" lon="10.432727468562438"><ele>0.0</ele><time>2026-04-05T09:27:33.998Z</time></trkpt><trkpt lat="43.71649359881168" lon="10.432585590416604"><ele>0.0</ele><time>2026-04-05T09:27:35.998Z</time></trkpt><trkpt lat="43.71653585933879" lon="10.432444097576747"><ele>0.0</ele><time>2026-04-05T09:27:37.998Z</time></trkpt><trkpt lat="43.716576005032685" lon="10.432301498639106"><ele>0.0</ele><time>2026-04-05T09:27:39.998Z</time></trkpt><trkpt lat="43.71661713977291" lon="10.432156013077458"><ele>0.0</ele><time>2026-04-05T09:27:41.998Z</time></trkpt><trkpt lat="43.71665750592908" lon="10.432011783444922"><ele>0.0</ele><time>2026-04-05T09:27:43.998Z</time></trkpt><trkpt lat="43.71669874957943" lon="10.431868169558427"><ele>0.0</ele><time>2026-04-05T09:27:45.998Z</time></trkpt><trkpt lat="43.71674081264327" lon="10.431722657878625"><ele>0.0</ele><time>2026-04-05T09:27:47.998Z</time></trkpt><trkpt lat="43.7167802277722" lon="10.431584384180663"><ele>0.0</ele><time>2026-04-05T09:27:49.998Z</time></trkpt><trkpt lat="43.71682008156711" lon="10.431443312386959"><ele>0.0</ele><time>2026-04-05T09:27:51.998Z</time></trkpt><trkpt lat="43.71686568869213" lon="10.431304555785566"><ele>0.4</ele><time>2026-04-05T09:27:53.998Z</time></trkpt><trkpt lat="43.716903949433956" lon="10.431162754070826"><ele>0.8</ele><time>2026-04-05T09:27:55.998Z</time></trkpt><trkpt lat="43.7169456749267" lon="10.431020907117993"><ele>1.2000000000000002</ele><time>2026-04-05T09:27:57.998Z</time></trkpt><trkpt lat="43.71698617945077" lon="10.430878850986165"><ele>1.6</ele><time>2026-04-05T09:27:59.998Z</time></trkpt><trkpt lat="43.71702807598118" lon="10.430737687003749"><ele>2.0</ele><time>2026-04-05T09:28:01.998Z</time></trkpt><trkpt lat="43.71706552156167" lon="10.430600551464103"><ele>2.0</ele><time>2026-04-05T09:28:03.998Z</time></trkpt><trkpt lat="43.717103991182505" lon="10.430465888474107"><ele>2.0</ele><time>2026-04-05T09:28:05.999Z</time></trkpt><trkpt lat="43.71714407759042" lon="10.430332328505193"><ele>2.0</ele><time>2026-04-05T09:28:07.999Z</time></trkpt><trkpt lat="43.71718238275591" lon="10.43019754560585"><ele>2.0</ele><time>2026-04-05T09:28:09.999Z</time></trkpt><trkpt lat="43.71721710311643" lon="10.43006037901874"><ele>2.0</ele><time>2026-04-05T09:28:11.999Z</time></trkpt><trkpt lat="43.71725250783794" lon="10.429928807939044"><ele>2.0</ele><time>2026-04-05T09:28:13.999Z</time></trkpt><trkpt lat="43.71729108791883" lon="10.429792962791801"><ele>2.0</ele><time>2026-04-05T09:28:16Z</time></trkpt><trkpt lat="43.71732792041662" lon="10.429659566688187"><ele>2.0</ele><time>2026-04-05T09:28:18Z</time></trkpt><trkpt lat="43.717367364131555" lon="10.429529304853231"><ele>2.0</ele><time>2026-04-05T09:28:20Z</time></trkpt><trkpt lat="43.717401726751795" lon="10.42938954496468"><ele>2.0</ele><time>2026-04-05T09:28:22Z</time></trkpt><trkpt lat="43.71744262913549" lon="10.429248099768653"><ele>2.0</ele><time>2026-04-05T09:28:24Z</time></trkpt><trkpt lat="43.71749498666051" lon="10.429116634897417"><ele>2.0</ele><time>2026-04-05T09:28:26Z</time></trkpt><trkpt lat="43.7175132456486" lon="10.429030645336809"><ele>2.0</ele><time>2026-04-05T09:28:26.999Z</time></trkpt><trkpt lat="43.71759411081898" lon="10.428930075579219"><ele>2.0</ele><time>2026-04-05T09:28:28.999Z</time></trkpt><trkpt lat="43.717677096703405" lon="10.428830863116815"><ele>2.0</ele><time>2026-04-05T09:28:30.999Z</time></trkpt><trkpt lat="43.71777093794923" lon="10.42874969532922"><ele>2.0</ele><time>2026-04-05T09:28:32.999Z</time></trkpt><trkpt lat="43.717835766963674" lon="10.428640446027618"><ele>2.0</ele><time>2026-04-05T09:28:34.999Z</time></trkpt><trkpt lat="43.71790639682743" lon="10.428551673595297"><ele>2.0</ele><time>2026-04-05T09:28:36.999Z</time></trkpt><trkpt lat="43.71797079554228" lon="10.428469787703499"><ele>2.0</ele><time>2026-04-05T09:28:38.999Z</time></trkpt><trkpt lat="43.71806352119111" lon="10.428496450889735"><ele>2.0</ele><time>2026-04-05T09:28:39.999Z</time></trkpt><trkpt lat="43.71814933601544" lon="10.428515894401878"><ele>2.0</ele><time>2026-04-05T09:28:41.999Z</time></trkpt><trkpt lat="43.71841873609476" lon="10.428569110395065"><ele>2.0</ele><time>2026-04-05T09:28:45.999Z</time></trkpt><trkpt lat="43.71796787429124" lon="10.428248680910292"><ele>1.9999999999999998</ele><time>2026-04-05T09:28:48.999Z</time></trkpt><trkpt lat="43.717956957681615" lon="10.428157835018796"><ele>2.0</ele><time>2026-04-05T09:28:50.999Z</time></trkpt><trkpt lat="43.71794567734608" lon="10.428063962127945"><ele>2.0</ele><time>2026-04-05T09:28:52.999Z</time></trkpt><trkpt lat="43.71793339732933" lon="10.427965744339607"><ele>2.0</ele><time>2026-04-05T09:28:54.999Z</time></trkpt><trkpt lat="43.717918303072494" lon="10.427846019036648"><ele>1.9999999999999998</ele><time>2026-04-05T09:28:56.999Z</time></trkpt><trkpt lat="43.717912154985896" lon="10.427720638131532"><ele>2.0</ele><time>2026-04-05T09:28:58.999Z</time></trkpt><trkpt lat="43.71799578449816" lon="10.427430898585945"><ele>1.8333333333333333</ele><time>2026-04-05T09:29:01.999Z</time></trkpt><trkpt lat="43.71803504010256" lon="10.427328339157203"><ele>1.6666666666666665</ele><time>2026-04-05T09:29:03.999Z</time></trkpt><trkpt lat="43.718072456477636" lon="10.427232492406395"><ele>1.5</ele><time>2026-04-05T09:29:05.999Z</time></trkpt><trkpt lat="43.71811443001584" lon="10.427124971863417"><ele>1.3333333333333333</ele><time>2026-04-05T09:29:07.999Z</time></trkpt><trkpt lat="43.71815565497091" lon="10.427019368958547"><ele>1.1666666666666665</ele><time>2026-04-05T09:29:09.999Z</time></trkpt><trkpt lat="43.718198019623095" lon="10.426910846579817"><ele>1.0</ele><time>2026-04-05T09:29:11.999Z</time></trkpt><trkpt lat="43.71823945413349" lon="10.426804706865278"><ele>0.9999999999999999</ele><time>2026-04-05T09:29:13.999Z</time></trkpt><trkpt lat="43.71828206672994" lon="10.426695467711752"><ele>1.0</ele><time>2026-04-05T09:29:15.999Z</time></trkpt><trkpt lat="43.718316609852764" lon="10.426606900471583"><ele>1.0</ele><time>2026-04-05T09:29:17.999Z</time></trkpt><trkpt lat="43.718363163185224" lon="10.426487926907932"><ele>1.0</ele><time>2026-04-05T09:29:20.999Z</time></trkpt><trkpt lat="43.71840336023737" lon="10.42638522235424"><ele>0.9999999999999999</ele><time>2026-04-05T09:29:22.999Z</time></trkpt><trkpt lat="43.71844620710937" lon="10.426275747479396"><ele>1.0</ele><time>2026-04-05T09:29:24.999Z</time></trkpt><trkpt lat="43.718488477957045" lon="10.426167744340589"><ele>0.8</ele><time>2026-04-05T09:29:26.999Z</time></trkpt><trkpt lat="43.71853516648672" lon="10.426051164352412"><ele>0.6000000000000001</ele><time>2026-04-05T09:29:28.999Z</time></trkpt><trkpt lat="43.71858193001294" lon="10.425936837272456"><ele>0.4</ele><time>2026-04-05T09:29:30.999Z</time></trkpt><trkpt lat="43.71863493016482" lon="10.42580898538958"><ele>0.2</ele><time>2026-04-05T09:29:32.998Z</time></trkpt><trkpt lat="43.71868206922186" lon="10.425701998545547"><ele>0.0</ele><time>2026-04-05T09:29:34.998Z</time></trkpt><trkpt lat="43.71872603161265" lon="10.425602221446985"><ele>0.3333333333333333</ele><time>2026-04-05T09:29:36.998Z</time></trkpt><trkpt lat="43.71876698664127" lon="10.42550926989257"><ele>0.6666666666666666</ele><time>2026-04-05T09:29:38.998Z</time></trkpt><trkpt lat="43.718877206700164" lon="10.42558657988119"><ele>1.0</ele><time>2026-04-05T09:29:40.998Z</time></trkpt><trkpt lat="43.71881793512943" lon="10.425539367416942"><ele>1.3333333333333333</ele><time>2026-04-05T09:29:42.998Z</time></trkpt><trkpt lat="43.71880036506933" lon="10.425431323194015"><ele>1.6666666666666665</ele><time>2026-04-05T09:29:46.998Z</time></trkpt><trkpt lat="43.71885190289474" lon="10.425334371463544"><ele>2.0</ele><time>2026-04-05T09:29:48.998Z</time></trkpt><trkpt lat="43.71888658559028" lon="10.425241300617028"><ele>2.2</ele><time>2026-04-05T09:29:50.998Z</time></trkpt><trkpt lat="43.718932912030866" lon="10.425137549755265"><ele>2.4000000000000004</ele><time>2026-04-05T09:29:52.998Z</time></trkpt><trkpt lat="43.71898445021083" lon="10.425020905124283"><ele>2.5999999999999996</ele><time>2026-04-05T09:29:54.998Z</time></trkpt><trkpt lat="43.719041693417246" lon="10.424914666255116"><ele>2.8</ele><time>2026-04-05T09:29:56.998Z</time></trkpt><trkpt lat="43.71909589137002" lon="10.42479101822946"><ele>3.0</ele><time>2026-04-05T09:29:58.998Z</time></trkpt><trkpt lat="43.71915542262549" lon="10.424673009810181"><ele>3.0</ele><time>2026-04-05T09:30:00.998Z</time></trkpt><trkpt lat="43.71921596106777" lon="10.424570381696109"><ele>3.0</ele><time>2026-04-05T09:30:02.998Z</time></trkpt><trkpt lat="43.71927687322347" lon="10.424443213885487"><ele>3.0</ele><time>2026-04-05T09:30:04.998Z</time></trkpt><trkpt lat="43.71934068067361" lon="10.424327175060204"><ele>3.0</ele><time>2026-04-05T09:30:06.998Z</time></trkpt><trkpt lat="43.71940343278905" lon="10.42420869411786"><ele>3.0</ele><time>2026-04-05T09:30:08.998Z</time></trkpt><trkpt lat="43.719467085102096" lon="10.42408781518104"><ele>3.0</ele><time>2026-04-05T09:30:10.998Z</time></trkpt><trkpt lat="43.71953308919675" lon="10.423967999604475"><ele>3.0</ele><time>2026-04-05T09:30:13Z</time></trkpt><trkpt lat="43.71959777296676" lon="10.423844319259826"><ele>3.0</ele><time>2026-04-05T09:30:15Z</time></trkpt><trkpt lat="43.71966352293836" lon="10.42372232679818"><ele>3.0</ele><time>2026-04-05T09:30:17Z</time></trkpt><trkpt lat="43.71972960741973" lon="10.42359771059715"><ele>3.0</ele><time>2026-04-05T09:30:19Z</time></trkpt><trkpt lat="43.71979488469466" lon="10.423471769945742"><ele>3.2</ele><time>2026-04-05T09:30:21Z</time></trkpt><trkpt lat="43.71986277353347" lon="10.423356932766112"><ele>3.4</ele><time>2026-04-05T09:30:23Z</time></trkpt><trkpt lat="43.719925255971205" lon="10.42322491389407"><ele>3.6000000000000005</ele><time>2026-04-05T09:30:25Z</time></trkpt><trkpt lat="43.7199865219187" lon="10.423112872196883"><ele>3.8000000000000003</ele><time>2026-04-05T09:30:27Z</time></trkpt><trkpt lat="43.72004537775578" lon="10.42300295566982"><ele>4.0</ele><time>2026-04-05T09:30:29Z</time></trkpt><trkpt lat="43.720100525818665" lon="10.422896308667273"><ele>3.6</ele><time>2026-04-05T09:30:31Z</time></trkpt><trkpt lat="43.720155012811134" lon="10.422796588624614"><ele>3.2</ele><time>2026-04-05T09:30:33Z</time></trkpt><trkpt lat="43.72021268536117" lon="10.422689908700228"><ele>2.8000000000000003</ele><time>2026-04-05T09:30:35Z</time></trkpt><trkpt lat="43.72027448153023" lon="10.422575082679668"><ele>2.4000000000000004</ele><time>2026-04-05T09:30:37Z</time></trkpt><trkpt lat="43.72033826348016" lon="10.422476016245506"><ele>2.0</ele><time>2026-04-05T09:30:39Z</time></trkpt><trkpt lat="43.720392713400976" lon="10.422382245263593"><ele>1.9999999999999998</ele><time>2026-04-05T09:30:41Z</time></trkpt><trkpt lat="43.72044111664077" lon="10.422287715625824"><ele>2.0</ele><time>2026-04-05T09:30:43Z</time></trkpt><trkpt lat="43.72045458232642" lon="10.42217780746182"><ele>2.0</ele><time>2026-04-05T09:30:53Z</time></trkpt><trkpt lat="43.72052023125669" lon="10.422103300453129"><ele>2.0</ele><time>2026-04-05T09:30:56Z</time></trkpt><trkpt lat="43.720581584587805" lon="10.422048660840995"><ele>1.9999999999999998</ele><time>2026-04-05T09:30:58Z</time></trkpt><trkpt lat="43.72062519384173" lon="10.421967447152431"><ele>2.0</ele><time>2026-04-05T09:31:02.999Z</time></trkpt><trkpt lat="43.72073170954379" lon="10.421872999869592"><ele>2.0</ele><time>2026-04-05T09:31:04.999Z</time></trkpt><trkpt lat="43.72080482904769" lon="10.421849329161631"><ele>2.0</ele><time>2026-04-05T09:31:06.999Z</time></trkpt><trkpt lat="43.72079676358841" lon="10.421692627979578"><ele>2.0</ele><time>2026-04-05T09:31:08.999Z</time></trkpt><trkpt lat="43.72078357054492" lon="10.42155421837501"><ele>2.0</ele><time>2026-04-05T09:31:10.999Z</time></trkpt><trkpt lat="43.72078735692867" lon="10.421406893245154"><ele>2.0</ele><time>2026-04-05T09:31:12.999Z</time></trkpt><trkpt lat="43.72083455699245" lon="10.421264417646977"><ele>2.0</ele><time>2026-04-05T09:31:14.999Z</time></trkpt><trkpt lat="43.72088063755686" lon="10.42112860275881"><ele>2.0</ele><time>2026-04-05T09:31:16.999Z</time></trkpt><trkpt lat="43.72090896494228" lon="10.421015487762796"><ele>2.0</ele><time>2026-04-05T09:31:18.999Z</time></trkpt><trkpt lat="43.72094713785114" lon="10.420891402243589"><ele>2.0</ele><time>2026-04-05T09:31:20.999Z</time></trkpt><trkpt lat="43.72101762242276" lon="10.42081314348471"><ele>2.0</ele><time>2026-04-05T09:31:22.999Z</time></trkpt><trkpt lat="43.721050639117564" lon="10.42069219496205"><ele>1.8</ele><time>2026-04-05T09:31:24.999Z</time></trkpt><trkpt lat="43.72109361933204" lon="10.420564470124436"><ele>1.6</ele><time>2026-04-05T09:31:26.999Z</time></trkpt><trkpt lat="43.72113180444797" lon="10.42043234289555"><ele>1.4000000000000001</ele><time>2026-04-05T09:31:28.999Z</time></trkpt><trkpt lat="43.721164222794876" lon="10.42029379535209"><ele>1.2000000000000002</ele><time>2026-04-05T09:31:30.999Z</time></trkpt><trkpt lat="43.72120062371009" lon="10.420161715520644"><ele>1.0</ele><time>2026-04-05T09:31:32.999Z</time></trkpt><trkpt lat="43.72122747389999" lon="10.42004005502407"><ele>0.8</ele><time>2026-04-05T09:31:34.999Z</time></trkpt><trkpt lat="43.72126006179337" lon="10.419923888074486"><ele>0.6000000000000001</ele><time>2026-04-05T09:31:36.999Z</time></trkpt><trkpt lat="43.72128791975467" lon="10.419813514883504"><ele>0.4</ele><time>2026-04-05T09:31:38.999Z</time></trkpt><trkpt lat="43.72132520052672" lon="10.419704046112935"><ele>0.2</ele><time>2026-04-05T09:31:40.999Z</time></trkpt><trkpt lat="43.721337936447796" lon="10.419586841455974"><ele>0.0</ele><time>2026-04-05T09:31:42.999Z</time></trkpt><trkpt lat="43.721386523263476" lon="10.419460577288978"><ele>0.6</ele><time>2026-04-05T09:31:44.999Z</time></trkpt><trkpt lat="43.72142280032092" lon="10.419326519196195"><ele>1.2</ele><time>2026-04-05T09:31:46.999Z</time></trkpt><trkpt lat="43.72145922337683" lon="10.419198003270601"><ele>1.7999999999999998</ele><time>2026-04-05T09:31:48.999Z</time></trkpt><trkpt lat="43.72150375264335" lon="10.419059059353268"><ele>2.4</ele><time>2026-04-05T09:31:50.999Z</time></trkpt><trkpt lat="43.721543702657634" lon="10.418935604770608"><ele>3.0</ele><time>2026-04-05T09:31:52.999Z</time></trkpt><trkpt lat="43.721574903735814" lon="10.418808541008215"><ele>3.0</ele><time>2026-04-05T09:31:54.999Z</time></trkpt><trkpt lat="43.72160101634187" lon="10.418694539739365"><ele>3.0</ele><time>2026-04-05T09:31:56.999Z</time></trkpt><trkpt lat="43.72161898434608" lon="10.418579438452392"><ele>3.0</ele><time>2026-04-05T09:31:58.999Z</time></trkpt><trkpt lat="43.72166675607905" lon="10.41845965288956"><ele>3.0</ele><time>2026-04-05T09:32:00.999Z</time></trkpt><trkpt lat="43.72169766552745" lon="10.41832572717266"><ele>3.0</ele><time>2026-04-05T09:32:02.999Z</time></trkpt><trkpt lat="43.72173999383351" lon="10.418200576033936"><ele>3.0</ele><time>2026-04-05T09:32:04.998Z</time></trkpt><trkpt lat="43.7217817001485" lon="10.41807547178952"><ele>3.0</ele><time>2026-04-05T09:32:06.998Z</time></trkpt><trkpt lat="43.721810669568235" lon="10.417950499250187"><ele>3.0</ele><time>2026-04-05T09:32:08.998Z</time></trkpt><trkpt lat="43.72184161920779" lon="10.417817667845615"><ele>3.0</ele><time>2026-04-05T09:32:10.998Z</time></trkpt><trkpt lat="43.72187539534263" lon="10.417705337939323"><ele>3.0</ele><time>2026-04-05T09:32:12.998Z</time></trkpt><trkpt lat="43.72191334269342" lon="10.41757132098855"><ele>2.8</ele><time>2026-04-05T09:32:14.998Z</time></trkpt><trkpt lat="43.72194835242354" lon="10.417437793519637"><ele>2.5999999999999996</ele><time>2026-04-05T09:32:16.998Z</time></trkpt><trkpt lat="43.721985528680484" lon="10.417301652529225"><ele>2.4000000000000004</ele><time>2026-04-05T09:32:19Z</time></trkpt><trkpt lat="43.72202703258995" lon="10.417166978119921"><ele>2.2</ele><time>2026-04-05T09:32:21Z</time></trkpt><trkpt lat="43.722063830875086" lon="10.417027601219768"><ele>2.0</ele><time>2026-04-05T09:32:23Z</time></trkpt><trkpt lat="43.722101655088004" lon="10.416879913228472"><ele>2.0</ele><time>2026-04-05T09:32:25Z</time></trkpt><trkpt lat="43.72214174372129" lon="10.416738260886337"><ele>2.0</ele><time>2026-04-05T09:32:27Z</time></trkpt><trkpt lat="43.722174941072474" lon="10.416607041634933"><ele>2.0</ele><time>2026-04-05T09:32:29Z</time></trkpt><trkpt lat="43.72221355416583" lon="10.41647820916697"><ele>2.0</ele><time>2026-04-05T09:32:31Z</time></trkpt><trkpt lat="43.72225099380682" lon="10.416339235105578"><ele>2.0</ele><time>2026-04-05T09:32:33Z</time></trkpt><trkpt lat="43.722281506548754" lon="10.416212037568785"><ele>1.8</ele><time>2026-04-05T09:32:35Z</time></trkpt><trkpt lat="43.72232383819976" lon="10.416075269876695"><ele>1.6</ele><time>2026-04-05T09:32:37Z</time></trkpt><trkpt lat="43.72235828369933" lon="10.415952520367327"><ele>1.4000000000000001</ele><time>2026-04-05T09:32:39Z</time></trkpt><trkpt lat="43.72241238939017" lon="10.415846737984493"><ele>1.2000000000000002</ele><time>2026-04-05T09:32:41Z</time></trkpt><trkpt lat="43.722489121341674" lon="10.415782146169029"><ele>1.0</ele><time>2026-04-05T09:32:43Z</time></trkpt><trkpt lat="43.72256486430575" lon="10.415758848048952"><ele>0.9999999999999999</ele><time>2026-04-05T09:32:45Z</time></trkpt><trkpt lat="43.72260138037731" lon="10.415684598446548"><ele>1.0</ele><time>2026-04-05T09:32:49Z</time></trkpt><trkpt lat="43.722603581644044" lon="10.415564339130034"><ele>1.0</ele><time>2026-04-05T09:32:53Z</time></trkpt><trkpt lat="43.72250585835586" lon="10.415549716616562"><ele>1.0</ele><time>2026-04-05T09:32:56Z</time></trkpt><trkpt lat="43.72248622093748" lon="10.415435481054137"><ele>0.9999999999999999</ele><time>2026-04-05T09:32:58Z</time></trkpt><trkpt lat="43.72248575733124" lon="10.415333418510732"><ele>1.0</ele><time>2026-04-05T09:33:00Z</time></trkpt><trkpt lat="43.72251788140765" lon="10.415220610348117"><ele>1.6</ele><time>2026-04-05T09:33:02Z</time></trkpt><trkpt lat="43.72256582163898" lon="10.415033145556576"><ele>2.2</ele><time>2026-04-05T09:33:05Z</time></trkpt><trkpt lat="43.722594606932276" lon="10.414899384389233"><ele>2.8000000000000003</ele><time>2026-04-05T09:33:07Z</time></trkpt><trkpt lat="43.72264049500322" lon="10.41477814220849"><ele>3.4000000000000004</ele><time>2026-04-05T09:33:09Z</time></trkpt><trkpt lat="43.72267165687732" lon="10.41466523225126"><ele>4.0</ele><time>2026-04-05T09:33:11Z</time></trkpt><trkpt lat="43.722703930672196" lon="10.414566328223355"><ele>3.6666666666666665</ele><time>2026-04-05T09:33:13Z</time></trkpt><trkpt lat="43.7227347748741" lon="10.414473177925284"><ele>3.333333333333333</ele><time>2026-04-05T09:33:14.999Z</time></trkpt><trkpt lat="43.72276312353237" lon="10.41438048526273"><ele>3.0</ele><time>2026-04-05T09:33:16.999Z</time></trkpt><trkpt lat="43.72279516805054" lon="10.414282806057914"><ele>2.6666666666666665</ele><time>2026-04-05T09:33:18.999Z</time></trkpt><trkpt lat="43.72282670788572" lon="10.41417342751937"><ele>2.333333333333333</ele><time>2026-04-05T09:33:20.999Z</time></trkpt><trkpt lat="43.722860799128235" lon="10.41405375777634"><ele>2.0</ele><time>2026-04-05T09:33:22.999Z</time></trkpt><trkpt lat="43.72289082635441" lon="10.413909257826392"><ele>3.0</ele><time>2026-04-05T09:33:24.999Z</time></trkpt><trkpt lat="43.72292948192649" lon="10.413764281264042"><ele>4.0</ele><time>2026-04-05T09:33:26.999Z</time></trkpt><trkpt lat="43.72295957327182" lon="10.413609971363359"><ele>5.0</ele><time>2026-04-05T09:33:28.999Z</time></trkpt><trkpt lat="43.72300310410792" lon="10.41346437079409"><ele>6.0</ele><time>2026-04-05T09:33:30.999Z</time></trkpt><trkpt lat="43.723045809059336" lon="10.4133104906696"><ele>6.0</ele><time>2026-04-05T09:33:32.999Z</time></trkpt><trkpt lat="43.72308787216913" lon="10.413160174448436"><ele>6.0</ele><time>2026-04-05T09:33:34.999Z</time></trkpt><trkpt lat="43.72313236461917" lon="10.41300812070162"><ele>6.0</ele><time>2026-04-05T09:33:36.999Z</time></trkpt><trkpt lat="43.723170660379836" lon="10.412857012814909"><ele>6.0</ele><time>2026-04-05T09:33:38.999Z</time></trkpt><trkpt lat="43.72321347169576" lon="10.412710718032152"><ele>5.75</ele><time>2026-04-05T09:33:40.999Z</time></trkpt><trkpt lat="43.7232561150114" lon="10.412559109385409"><ele>5.5</ele><time>2026-04-05T09:33:42.999Z</time></trkpt><trkpt lat="43.72329821967817" lon="10.412411847812077"><ele>5.25</ele><time>2026-04-05T09:33:44.999Z</time></trkpt><trkpt lat="43.723337955566436" lon="10.412261113493235"><ele>5.0</ele><time>2026-04-05T09:33:46.999Z</time></trkpt><trkpt lat="43.72337858087887" lon="10.412114744097448"><ele>4.25</ele><time>2026-04-05T09:33:48.999Z</time></trkpt><trkpt lat="43.72342021880238" lon="10.411967763552882"><ele>3.5</ele><time>2026-04-05T09:33:50.999Z</time></trkpt><trkpt lat="43.72346795023894" lon="10.41182406783522"><ele>2.75</ele><time>2026-04-05T09:33:52.999Z</time></trkpt><trkpt lat="43.72351296380579" lon="10.411677062272561"><ele>2.0</ele><time>2026-04-05T09:33:54.999Z</time></trkpt><trkpt lat="43.72355236325149" lon="10.411527039084225"><ele>2.25</ele><time>2026-04-05T09:33:56.999Z</time></trkpt><trkpt lat="43.72359658173403" lon="10.411373339782259"><ele>2.5</ele><time>2026-04-05T09:33:58.999Z</time></trkpt><trkpt lat="43.72363818884303" lon="10.411221662069524"><ele>2.75</ele><time>2026-04-05T09:34:00.999Z</time></trkpt><trkpt lat="43.72368156580455" lon="10.411071478561663"><ele>3.0</ele><time>2026-04-05T09:34:02.999Z</time></trkpt><trkpt lat="43.723722416234914" lon="10.410918588857585"><ele>3.0</ele><time>2026-04-05T09:34:04.999Z</time></trkpt><trkpt lat="43.723766020651425" lon="10.410765095706736"><ele>3.0</ele><time>2026-04-05T09:34:06.999Z</time></trkpt><trkpt lat="43.723788884027094" lon="10.410683311590894"><ele>3.0</ele><time>2026-04-05T09:34:07.999Z</time></trkpt><trkpt lat="43.72382862398573" lon="10.410530587986093"><ele>3.0</ele><time>2026-04-05T09:34:09.999Z</time></trkpt><trkpt lat="43.72387143765648" lon="10.410378699677509"><ele>3.0</ele><time>2026-04-05T09:34:11.999Z</time></trkpt><trkpt lat="43.7239152916724" lon="10.41022911963958"><ele>3.2</ele><time>2026-04-05T09:34:13.998Z</time></trkpt><trkpt lat="43.723963846306525" lon="10.410080995821458"><ele>3.4</ele><time>2026-04-05T09:34:15.998Z</time></trkpt><trkpt lat="43.723999188156064" lon="10.409932723622378"><ele>3.6000000000000005</ele><time>2026-04-05T09:34:17.998Z</time></trkpt><trkpt lat="43.72404165320062" lon="10.409793421876506"><ele>3.8000000000000003</ele><time>2026-04-05T09:34:19.998Z</time></trkpt><trkpt lat="43.724073191057336" lon="10.409662490342924"><ele>4.0</ele><time>2026-04-05T09:34:21.998Z</time></trkpt><trkpt lat="43.72411698122832" lon="10.40952898815468"><ele>4.0</ele><time>2026-04-05T09:34:24Z</time></trkpt><trkpt lat="43.72415569862648" lon="10.409387119302947"><ele>4.0</ele><time>2026-04-05T09:34:26Z</time></trkpt><trkpt lat="43.72419687802256" lon="10.409245508371734"><ele>4.0</ele><time>2026-04-05T09:34:28Z</time></trkpt><trkpt lat="43.72423439358523" lon="10.409106895694258"><ele>4.0</ele><time>2026-04-05T09:34:30Z</time></trkpt><trkpt lat="43.72425672797678" lon="10.408959787526905"><ele>4.0</ele><time>2026-04-05T09:34:32Z</time></trkpt><trkpt lat="43.72430338503497" lon="10.408824922357626"><ele>3.9999999999999996</ele><time>2026-04-05T09:34:34Z</time></trkpt><trkpt lat="43.72434155115012" lon="10.408691873519313"><ele>4.0</ele><time>2026-04-05T09:34:36Z</time></trkpt><trkpt lat="43.72432714210516" lon="10.40855853410503"><ele>4.0</ele><time>2026-04-05T09:34:38Z</time></trkpt><trkpt lat="43.72423573964446" lon="10.408503066202858"><ele>4.0</ele><time>2026-04-05T09:34:40Z</time></trkpt><trkpt lat="43.724161704411756" lon="10.408526130665198"><ele>3.9999999999999996</ele><time>2026-04-05T09:34:42Z</time></trkpt><trkpt lat="43.724181282290154" lon="10.408436452928797"><ele>4.0</ele><time>2026-04-05T09:34:45Z</time></trkpt><trkpt lat="43.72424849690674" lon="10.408403414910081"><ele>4.0</ele><time>2026-04-05T09:34:48Z</time></trkpt><trkpt lat="43.724311685778545" lon="10.408466031291187"><ele>4.0</ele><time>2026-04-05T09:34:50Z</time></trkpt><trkpt lat="43.724377893587274" lon="10.408492649069926"><ele>4.0</ele><time>2026-04-05T09:34:58Z</time></trkpt><trkpt lat="43.72443572801326" lon="10.408383136984872"><ele>4.0</ele><time>2026-04-05T09:35:01Z</time></trkpt><trkpt lat="43.72438928405267" lon="10.408248136717472"><ele>4.0</ele><time>2026-04-05T09:35:03Z</time></trkpt><trkpt lat="43.72435691170308" lon="10.408120724394012"><ele>4.0</ele><time>2026-04-05T09:35:05Z</time></trkpt><trkpt lat="43.724326451758486" lon="10.407977439080694"><ele>4.0</ele><time>2026-04-05T09:35:06.999Z</time></trkpt><trkpt lat="43.724289527555236" lon="10.407834828763647"><ele>4.0</ele><time>2026-04-05T09:35:08.999Z</time></trkpt><trkpt lat="43.72425930467559" lon="10.407693281267443"><ele>4.0</ele><time>2026-04-05T09:35:10.999Z</time></trkpt><trkpt lat="43.724221767463796" lon="10.407552442831586"><ele>4.0</ele><time>2026-04-05T09:35:12.999Z</time></trkpt><trkpt lat="43.72418513654677" lon="10.407406986434959"><ele>4.0</ele><time>2026-04-05T09:35:14.999Z</time></trkpt><trkpt lat="43.724151691624684" lon="10.407259574487094"><ele>4.0</ele><time>2026-04-05T09:35:16.999Z</time></trkpt><trkpt lat="43.72411392031956" lon="10.407108353461538"><ele>4.0</ele><time>2026-04-05T09:35:18.999Z</time></trkpt><trkpt lat="43.72407740682971" lon="10.406950453264832"><ele>4.0</ele><time>2026-04-05T09:35:20.999Z</time></trkpt><trkpt lat="43.724038223534585" lon="10.406794520678146"><ele>4.0</ele><time>2026-04-05T09:35:22.999Z</time></trkpt><trkpt lat="43.72398657924311" lon="10.406560451790796"><ele>4.0</ele><time>2026-04-05T09:35:25.999Z</time></trkpt><trkpt lat="43.723932641403614" lon="10.406341674332232"><ele>4.0</ele><time>2026-04-05T09:35:28.999Z</time></trkpt><trkpt lat="43.72390796554802" lon="10.406202370777285"><ele>4.0</ele><time>2026-04-05T09:35:30.999Z</time></trkpt><trkpt lat="43.723876595852765" lon="10.406071099109981"><ele>4.0</ele><time>2026-04-05T09:35:32.999Z</time></trkpt><trkpt lat="43.72384298526694" lon="10.405949121660779"><ele>4.0</ele><time>2026-04-05T09:35:34.999Z</time></trkpt><trkpt lat="43.72381993373895" lon="10.405821892479006"><ele>4.0</ele><time>2026-04-05T09:35:36.999Z</time></trkpt><trkpt lat="43.72378814991394" lon="10.405697275893912"><ele>4.0</ele><time>2026-04-05T09:35:38.999Z</time></trkpt><trkpt lat="43.723756894093135" lon="10.405566410376146"><ele>4.0</ele><time>2026-04-05T09:35:40.999Z</time></trkpt><trkpt lat="43.72372687053107" lon="10.405437234553775"><ele>3.8000000000000003</ele><time>2026-04-05T09:35:42.999Z</time></trkpt><trkpt lat="43.72369282850587" lon="10.40531372410942"><ele>3.6000000000000005</ele><time>2026-04-05T09:35:44.999Z</time></trkpt><trkpt lat="43.72366276952077" lon="10.40517564503622"><ele>3.4</ele><time>2026-04-05T09:35:46.999Z</time></trkpt><trkpt lat="43.723633390921655" lon="10.40503768346633"><ele>3.2</ele><time>2026-04-05T09:35:48.999Z</time></trkpt><trkpt lat="43.72359501713245" lon="10.40489473292537"><ele>3.0</ele><time>2026-04-05T09:35:50.999Z</time></trkpt><trkpt lat="43.723565620543965" lon="10.404749339601006"><ele>3.75</ele><time>2026-04-05T09:35:52.999Z</time></trkpt><trkpt lat="43.72353515763423" lon="10.404601819795364"><ele>4.5</ele><time>2026-04-05T09:35:54.999Z</time></trkpt><trkpt lat="43.72350101388819" lon="10.404453856587669"><ele>5.25</ele><time>2026-04-05T09:35:56.999Z</time></trkpt><trkpt lat="43.723463362656474" lon="10.404303096533262"><ele>6.0</ele><time>2026-04-05T09:35:58.999Z</time></trkpt><trkpt lat="43.723426592682266" lon="10.40415586068178"><ele>6.0</ele><time>2026-04-05T09:36:00.999Z</time></trkpt><trkpt lat="43.72338949420852" lon="10.404002696883271"><ele>6.0</ele><time>2026-04-05T09:36:02.999Z</time></trkpt><trkpt lat="43.72335231731744" lon="10.403855361906205"><ele>6.0</ele><time>2026-04-05T09:36:04.999Z</time></trkpt><trkpt lat="43.72332086667552" lon="10.403710516893288"><ele>6.0</ele><time>2026-04-05T09:36:06.998Z</time></trkpt><trkpt lat="43.72328897153992" lon="10.40356336658375"><ele>5.6</ele><time>2026-04-05T09:36:08.998Z</time></trkpt><trkpt lat="43.72325927290057" lon="10.403421355854857"><ele>5.199999999999999</ele><time>2026-04-05T09:36:10.998Z</time></trkpt><trkpt lat="43.72322343399913" lon="10.403274571116246"><ele>4.800000000000001</ele><time>2026-04-05T09:36:12.998Z</time></trkpt><trkpt lat="43.72319024632286" lon="10.40313438584577"><ele>4.4</ele><time>2026-04-05T09:36:14.998Z</time></trkpt><trkpt lat="43.723159905527346" lon="10.402990851302631"><ele>4.0</ele><time>2026-04-05T09:36:16.998Z</time></trkpt><trkpt lat="43.723121986054316" lon="10.402850082077157"><ele>4.0</ele><time>2026-04-05T09:36:18.998Z</time></trkpt><trkpt lat="43.7230944081138" lon="10.402702135631891"><ele>4.0</ele><time>2026-04-05T09:36:20.998Z</time></trkpt><trkpt lat="43.72306117159547" lon="10.402556546779492"><ele>4.0</ele><time>2026-04-05T09:36:22.998Z</time></trkpt><trkpt lat="43.72302213149425" lon="10.402409738850965"><ele>4.0</ele><time>2026-04-05T09:36:24.998Z</time></trkpt><trkpt lat="43.72298963172764" lon="10.402267138547856"><ele>4.0</ele><time>2026-04-05T09:36:26.998Z</time></trkpt><trkpt lat="43.72295918113113" lon="10.402133123736414"><ele>4.2</ele><time>2026-04-05T09:36:28.998Z</time></trkpt><trkpt lat="43.72293400901968" lon="10.402010474070137"><ele>4.4</ele><time>2026-04-05T09:36:31Z</time></trkpt><trkpt lat="43.72290415638568" lon="10.401883332241715"><ele>4.6</ele><time>2026-04-05T09:36:33Z</time></trkpt><trkpt lat="43.72287468522658" lon="10.401752426885574"><ele>4.8</ele><time>2026-04-05T09:36:35Z</time></trkpt><trkpt lat="43.72289182792243" lon="10.401607309959404"><ele>5.0</ele><time>2026-04-05T09:36:37Z</time></trkpt><trkpt lat="43.722929884259194" lon="10.401470127066501"><ele>4.75</ele><time>2026-04-05T09:36:39Z</time></trkpt><trkpt lat="43.72296386527441" lon="10.401324165711527"><ele>4.5</ele><time>2026-04-05T09:36:41Z</time></trkpt><trkpt lat="43.72299763598777" lon="10.401171732491694"><ele>4.25</ele><time>2026-04-05T09:36:43Z</time></trkpt><trkpt lat="43.72303366681725" lon="10.40101637868508"><ele>4.0</ele><time>2026-04-05T09:36:45Z</time></trkpt><trkpt lat="43.72306596510792" lon="10.400851543216069"><ele>4.0</ele><time>2026-04-05T09:36:47Z</time></trkpt><trkpt lat="43.723093625156466" lon="10.400690370343112"><ele>4.0</ele><time>2026-04-05T09:36:49Z</time></trkpt><trkpt lat="43.723125943961655" lon="10.400537919832088"><ele>4.0</ele><time>2026-04-05T09:36:51Z</time></trkpt><trkpt lat="43.72315991745396" lon="10.400386145036114"><ele>4.0</ele><time>2026-04-05T09:36:53Z</time></trkpt><trkpt lat="43.723192373711626" lon="10.400233009913944"><ele>4.5</ele><time>2026-04-05T09:36:55Z</time></trkpt><trkpt lat="43.72322664266945" lon="10.400082424455741"><ele>5.0</ele><time>2026-04-05T09:36:57Z</time></trkpt><trkpt lat="43.72326382356724" lon="10.399929463041062"><ele>5.5</ele><time>2026-04-05T09:36:59Z</time></trkpt><trkpt lat="43.72329886291114" lon="10.39977103987788"><ele>6.0</ele><time>2026-04-05T09:37:01Z</time></trkpt><trkpt lat="43.723333316752566" lon="10.39961815214702"><ele>6.0</ele><time>2026-04-05T09:37:02.999Z</time></trkpt><trkpt lat="43.72337405456494" lon="10.399463308545847"><ele>6.0</ele><time>2026-04-05T09:37:04.999Z</time></trkpt><trkpt lat="43.723410942986874" lon="10.39930758839238"><ele>6.0</ele><time>2026-04-05T09:37:06.999Z</time></trkpt><trkpt lat="43.723449844484456" lon="10.39915462706513"><ele>6.0</ele><time>2026-04-05T09:37:08.999Z</time></trkpt><trkpt lat="43.723490720182305" lon="10.399004511299756"><ele>6.0</ele><time>2026-04-05T09:37:10.999Z</time></trkpt><trkpt lat="43.723534771865936" lon="10.398864373326267"><ele>6.0</ele><time>2026-04-05T09:37:12.999Z</time></trkpt><trkpt lat="43.72357866985582" lon="10.39871916862804"><ele>6.0</ele><time>2026-04-05T09:37:14.999Z</time></trkpt><trkpt lat="43.72362031362204" lon="10.398577828466255"><ele>6.0</ele><time>2026-04-05T09:37:16.999Z</time></trkpt><trkpt lat="43.72366575386033" lon="10.398433432877729"><ele>6.0</ele><time>2026-04-05T09:37:18.999Z</time></trkpt><trkpt lat="43.723713693060866" lon="10.398281384508705"><ele>5.6</ele><time>2026-04-05T09:37:20.999Z</time></trkpt><trkpt lat="43.72376148031747" lon="10.398143536219315"><ele>5.199999999999999</ele><time>2026-04-05T09:37:22.999Z</time></trkpt><trkpt lat="43.723801516114015" lon="10.398007687609049"><ele>4.800000000000001</ele><time>2026-04-05T09:37:24.999Z</time></trkpt><trkpt lat="43.72383522137013" lon="10.397880422056344"><ele>4.4</ele><time>2026-04-05T09:37:26.999Z</time></trkpt><trkpt lat="43.723886255893255" lon="10.397765232981737"><ele>4.0</ele><time>2026-04-05T09:37:28.999Z</time></trkpt><trkpt lat="43.72391914292773" lon="10.39765118817873"><ele>3.9999999999999996</ele><time>2026-04-05T09:37:30.999Z</time></trkpt><trkpt lat="43.723951800830974" lon="10.397543307207775"><ele>4.0</ele><time>2026-04-05T09:37:32.999Z</time></trkpt><trkpt lat="43.723991720564854" lon="10.397456963415582"><ele>4.0</ele><time>2026-04-05T09:37:34.999Z</time></trkpt><trkpt lat="43.72401776640463" lon="10.397348547059812"><ele>4.0</ele><time>2026-04-05T09:37:36.999Z</time></trkpt><trkpt lat="43.72405551561997" lon="10.397236152664698"><ele>3.9999999999999996</ele><time>2026-04-05T09:37:38.999Z</time></trkpt><trkpt lat="43.724081372087284" lon="10.39711553272597"><ele>4.0</ele><time>2026-04-05T09:37:40.999Z</time></trkpt><trkpt lat="43.72411375712927" lon="10.396986690666374"><ele>3.8000000000000003</ele><time>2026-04-05T09:37:42.999Z</time></trkpt><trkpt lat="43.72414094068717" lon="10.396854680473147"><ele>3.6000000000000005</ele><time>2026-04-05T09:37:44.999Z</time></trkpt><trkpt lat="43.72416231557467" lon="10.396722856507612"><ele>3.4</ele><time>2026-04-05T09:37:46.999Z</time></trkpt><trkpt lat="43.724189942865344" lon="10.396590760550014"><ele>3.2</ele><time>2026-04-05T09:37:48.999Z</time></trkpt><trkpt lat="43.72421389264597" lon="10.396449387074734"><ele>3.0</ele><time>2026-04-05T09:37:50.999Z</time></trkpt><trkpt lat="43.7242309015839" lon="10.396307435426566"><ele>3.4</ele><time>2026-04-05T09:37:52.999Z</time></trkpt><trkpt lat="43.72425695348379" lon="10.396170155002293"><ele>3.8</ele><time>2026-04-05T09:37:54.999Z</time></trkpt><trkpt lat="43.72428184256609" lon="10.396031886297582"><ele>4.2</ele><time>2026-04-05T09:37:56.999Z</time></trkpt><trkpt lat="43.72430309008162" lon="10.39588899180265"><ele>4.6</ele><time>2026-04-05T09:37:58.999Z</time></trkpt><trkpt lat="43.72433397555922" lon="10.395751084265557"><ele>5.0</ele><time>2026-04-05T09:38:00.999Z</time></trkpt><trkpt lat="43.72436410038024" lon="10.395609274489265"><ele>5.25</ele><time>2026-04-05T09:38:02.999Z</time></trkpt><trkpt lat="43.724389828144474" lon="10.39545843260278"><ele>5.5</ele><time>2026-04-05T09:38:04.999Z</time></trkpt><trkpt lat="43.72442306082381" lon="10.39531432302338"><ele>5.75</ele><time>2026-04-05T09:38:06.998Z</time></trkpt><trkpt lat="43.72444943640281" lon="10.395159551831183"><ele>6.0</ele><time>2026-04-05T09:38:08.998Z</time></trkpt><trkpt lat="43.724480364323256" lon="10.395007283691898"><ele>5.5</ele><time>2026-04-05T09:38:10.998Z</time></trkpt><trkpt lat="43.72450897032627" lon="10.394853678166367"><ele>5.0</ele><time>2026-04-05T09:38:12.998Z</time></trkpt><trkpt lat="43.7245406865453" lon="10.39469890867045"><ele>4.5</ele><time>2026-04-05T09:38:14.998Z</time></trkpt><trkpt lat="43.724575743894775" lon="10.394543768771003"><ele>4.0</ele><time>2026-04-05T09:38:16.998Z</time></trkpt><trkpt lat="43.72460796538438" lon="10.394382900585503"><ele>4.0</ele><time>2026-04-05T09:38:18.998Z</time></trkpt><trkpt lat="43.7246370277336" lon="10.394219204332206"><ele>4.0</ele><time>2026-04-05T09:38:20.998Z</time></trkpt><trkpt lat="43.72466975654468" lon="10.394058599649489"><ele>4.0</ele><time>2026-04-05T09:38:22.998Z</time></trkpt><trkpt lat="43.72469605931217" lon="10.39390373196544"><ele>4.0</ele><time>2026-04-05T09:38:24.998Z</time></trkpt><trkpt lat="43.72472694847526" lon="10.393752647225227"><ele>3.8000000000000003</ele><time>2026-04-05T09:38:26.998Z</time></trkpt><trkpt lat="43.72475697825778" lon="10.393605077002885"><ele>3.6000000000000005</ele><time>2026-04-05T09:38:28.998Z</time></trkpt><trkpt lat="43.724781614386586" lon="10.393456498183756"><ele>3.4</ele><time>2026-04-05T09:38:30.998Z</time></trkpt><trkpt lat="43.724808513195974" lon="10.393311578364312"><ele>3.2</ele><time>2026-04-05T09:38:32.998Z</time></trkpt><trkpt lat="43.72483801405644" lon="10.393168190184443"><ele>3.0</ele><time>2026-04-05T09:38:34.998Z</time></trkpt><trkpt lat="43.724865236550365" lon="10.393024689784575"><ele>3.0</ele><time>2026-04-05T09:38:37Z</time></trkpt><trkpt lat="43.72488833445952" lon="10.392878667920533"><ele>3.0</ele><time>2026-04-05T09:38:39Z</time></trkpt><trkpt lat="43.724911995642586" lon="10.392736889749914"><ele>3.0</ele><time>2026-04-05T09:38:41Z</time></trkpt><trkpt lat="43.72493333797184" lon="10.392600132097538"><ele>3.0</ele><time>2026-04-05T09:38:43Z</time></trkpt><trkpt lat="43.72495716188626" lon="10.39247105801937"><ele>3.0</ele><time>2026-04-05T09:38:45Z</time></trkpt><trkpt lat="43.72497251872324" lon="10.392344685498376"><ele>3.0</ele><time>2026-04-05T09:38:47Z</time></trkpt><trkpt lat="43.72498062070382" lon="10.39223948156194"><ele>3.0</ele><time>2026-04-05T09:38:49Z</time></trkpt><trkpt lat="43.724994263182616" lon="10.39215159385982"><ele>3.0</ele><time>2026-04-05T09:38:52Z</time></trkpt><trkpt lat="43.724995488904" lon="10.39206007466082"><ele>3.0</ele><time>2026-04-05T09:38:54Z</time></trkpt><trkpt lat="43.72499484270741" lon="10.391954337633145"><ele>3.0</ele><time>2026-04-05T09:38:56Z</time></trkpt><trkpt lat="43.724998982131254" lon="10.391835464639426"><ele>3.0</ele><time>2026-04-05T09:38:59Z</time></trkpt><trkpt lat="43.724989199054555" lon="10.391711365428668"><ele>3.0</ele><time>2026-04-05T09:39:02Z</time></trkpt><trkpt lat="43.72498180644069" lon="10.391609569007386"><ele>3.0</ele><time>2026-04-05T09:39:04Z</time></trkpt><trkpt lat="43.72497482522852" lon="10.391511078043012"><ele>3.0</ele><time>2026-04-05T09:39:06Z</time></trkpt><trkpt lat="43.72497677624709" lon="10.391416396492097"><ele>3.0</ele><time>2026-04-05T09:39:08Z</time></trkpt><trkpt lat="43.725029564087365" lon="10.391335398440813"><ele>3.0</ele><time>2026-04-05T09:39:10Z</time></trkpt><trkpt lat="43.72509259309404" lon="10.39127016667579"><ele>3.0</ele><time>2026-04-05T09:39:12Z</time></trkpt><trkpt lat="43.72517453972707" lon="10.391218881047582"><ele>2.8</ele><time>2026-04-05T09:39:14Z</time></trkpt><trkpt lat="43.72525294993581" lon="10.391156208592534"><ele>2.5999999999999996</ele><time>2026-04-05T09:39:16Z</time></trkpt><trkpt lat="43.72533608216925" lon="10.391094465399659"><ele>2.4000000000000004</ele><time>2026-04-05T09:39:18Z</time></trkpt><trkpt lat="43.72541519132015" lon="10.391035409395212"><ele>2.2</ele><time>2026-04-05T09:39:20Z</time></trkpt><trkpt lat="43.72552436470739" lon="10.390951178056905"><ele>2.0</ele><time>2026-04-05T09:39:22.999Z</time></trkpt><trkpt lat="43.72558802581588" lon="10.390888319349449"><ele>1.9999999999999998</ele><time>2026-04-05T09:39:24.999Z</time></trkpt><trkpt lat="43.725650285139466" lon="10.390839943289397"><ele>2.0</ele><time>2026-04-05T09:39:26.999Z</time></trkpt><trkpt lat="43.72572233285634" lon="10.390794818515264"><ele>2.0</ele><time>2026-04-05T09:39:29.999Z</time></trkpt><trkpt lat="43.72578497440986" lon="10.390827583481194"><ele>2.0</ele><time>2026-04-05T09:39:31.999Z</time></trkpt><trkpt lat="43.725846045966556" lon="10.390902273530454"><ele>1.9999999999999998</ele><time>2026-04-05T09:39:33.999Z</time></trkpt><trkpt lat="43.725910357876735" lon="10.390972430159229"><ele>2.0</ele><time>2026-04-05T09:39:35.999Z</time></trkpt><trkpt lat="43.72597246784049" lon="10.391049095705762"><ele>2.0</ele><time>2026-04-05T09:39:37.999Z</time></trkpt><trkpt lat="43.726042484237944" lon="10.391130900002857"><ele>2.0</ele><time>2026-04-05T09:39:39.999Z</time></trkpt><trkpt lat="43.72610927473072" lon="10.391224030449811"><ele>2.0</ele><time>2026-04-05T09:39:41.999Z</time></trkpt><trkpt lat="43.72618755102359" lon="10.391312319442601"><ele>2.0</ele><time>2026-04-05T09:39:43.999Z</time></trkpt><trkpt lat="43.72626970168917" lon="10.391407663313867"><ele>2.0</ele><time>2026-04-05T09:39:45.999Z</time></trkpt><trkpt lat="43.72634734719861" lon="10.39151050040147"><ele>1.75</ele><time>2026-04-05T09:39:47.999Z</time></trkpt><trkpt lat="43.726432087769055" lon="10.391614840963985"><ele>1.5</ele><time>2026-04-05T09:39:49.999Z</time></trkpt><trkpt lat="43.72651798278961" lon="10.391725062014416"><ele>1.25</ele><time>2026-04-05T09:39:51.999Z</time></trkpt><trkpt lat="43.72661168474288" lon="10.391829511289659"><ele>1.0</ele><time>2026-04-05T09:39:53.999Z</time></trkpt><trkpt lat="43.72670453829182" lon="10.391944169413275"><ele>1.0</ele><time>2026-04-05T09:39:55.999Z</time></trkpt><trkpt lat="43.726798928776645" lon="10.392058330437376"><ele>1.0</ele><time>2026-04-05T09:39:57.999Z</time></trkpt><trkpt lat="43.72689203537938" lon="10.392181257179352"><ele>1.0</ele><time>2026-04-05T09:39:59.999Z</time></trkpt><trkpt lat="43.72694576360133" lon="10.39223706035874"><ele>1.0</ele><time>2026-04-05T09:40:00.999Z</time></trkpt><trkpt lat="43.72699618432322" lon="10.392295566438607"><ele>1.0</ele><time>2026-04-05T09:40:01.999Z</time></trkpt><trkpt lat="43.727045503956184" lon="10.392356667589196"><ele>1.2000000000000002</ele><time>2026-04-05T09:40:02.999Z</time></trkpt><trkpt lat="43.72709712458093" lon="10.39241299787044"><ele>1.4000000000000001</ele><time>2026-04-05T09:40:03.999Z</time></trkpt><trkpt lat="43.727230293042815" lon="10.392576071940322"><ele>1.6</ele><time>2026-04-05T09:40:06.999Z</time></trkpt><trkpt lat="43.72730402329769" lon="10.392674988016795"><ele>1.8</ele><time>2026-04-05T09:40:08.999Z</time></trkpt><trkpt lat="43.72736043028051" lon="10.39276992261408"><ele>2.0</ele><time>2026-04-05T09:40:10.999Z</time></trkpt><trkpt lat="43.72739868977385" lon="10.392848502193514"><ele>1.9999999999999998</ele><time>2026-04-05T09:40:12.999Z</time></trkpt><trkpt lat="43.72744243247662" lon="10.39293639990243"><ele>2.0</ele><time>2026-04-05T09:40:16.999Z</time></trkpt><trkpt lat="43.72747245281248" lon="10.39304775803268"><ele>2.0</ele><time>2026-04-05T09:40:21.999Z</time></trkpt><trkpt lat="43.727524018390746" lon="10.392906381563154"><ele>2.0</ele><time>2026-04-05T09:40:25.998Z</time></trkpt><trkpt lat="43.72752402712619" lon="10.392800649528299"><ele>1.9999999999999998</ele><time>2026-04-05T09:40:27.998Z</time></trkpt><trkpt lat="43.7275379376618" lon="10.392702109113912"><ele>2.0</ele><time>2026-04-05T09:40:29.998Z</time></trkpt><trkpt lat="43.72756324795868" lon="10.392610355931994"><ele>2.0</ele><time>2026-04-05T09:40:31.998Z</time></trkpt><trkpt lat="43.72758942709921" lon="10.392499538213325"><ele>2.0</ele><time>2026-04-05T09:40:33.998Z</time></trkpt><trkpt lat="43.72760092690392" lon="10.39237279110175"><ele>2.0</ele><time>2026-04-05T09:40:35.998Z</time></trkpt><trkpt lat="43.72759751798163" lon="10.392233665973352"><ele>2.0</ele><time>2026-04-05T09:40:37.998Z</time></trkpt><trkpt lat="43.727600704532314" lon="10.392097393293195"><ele>2.0</ele><time>2026-04-05T09:40:39.998Z</time></trkpt><trkpt lat="43.727602503173564" lon="10.39195823499698"><ele>1.8</ele><time>2026-04-05T09:40:42Z</time></trkpt><trkpt lat="43.7276032721102" lon="10.391812210562192"><ele>1.6</ele><time>2026-04-05T09:40:44Z</time></trkpt><trkpt lat="43.72760471771501" lon="10.391664127423526"><ele>1.4000000000000001</ele><time>2026-04-05T09:40:46Z</time></trkpt><trkpt lat="43.72760304826731" lon="10.391521141284404"><ele>1.2000000000000002</ele><time>2026-04-05T09:40:48Z</time></trkpt><trkpt lat="43.72760713473956" lon="10.39138090932612"><ele>1.0</ele><time>2026-04-05T09:40:50Z</time></trkpt><trkpt lat="43.72761586027567" lon="10.391239080693122"><ele>1.0</ele><time>2026-04-05T09:40:52Z</time></trkpt><trkpt lat="43.7276212156392" lon="10.391094923009568"><ele>1.0</ele><time>2026-04-05T09:40:54Z</time></trkpt><trkpt lat="43.72762311874548" lon="10.390952666917618"><ele>1.0</ele><time>2026-04-05T09:40:56Z</time></trkpt><trkpt lat="43.727623820522176" lon="10.390815315649043"><ele>1.0</ele><time>2026-04-05T09:40:58Z</time></trkpt><trkpt lat="43.72762852631142" lon="10.390677193065295"><ele>1.0</ele><time>2026-04-05T09:41:00Z</time></trkpt><trkpt lat="43.72762892425527" lon="10.390538048554346"><ele>1.0</ele><time>2026-04-05T09:41:02Z</time></trkpt><trkpt lat="43.727632971683065" lon="10.390396872912904"><ele>1.0</ele><time>2026-04-05T09:41:04Z</time></trkpt><trkpt lat="43.72763309643283" lon="10.390256605597669"><ele>1.0</ele><time>2026-04-05T09:41:06Z</time></trkpt><trkpt lat="43.72763635577805" lon="10.390113519255932"><ele>1.0</ele><time>2026-04-05T09:41:08Z</time></trkpt><trkpt lat="43.72764125485128" lon="10.38997094340513"><ele>1.0</ele><time>2026-04-05T09:41:10Z</time></trkpt><trkpt lat="43.727653657111496" lon="10.389840733870951"><ele>1.0</ele><time>2026-04-05T09:41:12Z</time></trkpt><trkpt lat="43.72766352504418" lon="10.389715054543595"><ele>1.0</ele><time>2026-04-05T09:41:14Z</time></trkpt><trkpt lat="43.727667283943646" lon="10.389538800522383"><ele>1.0</ele><time>2026-04-05T09:41:17Z</time></trkpt><trkpt lat="43.7276728193525" lon="10.389430935551092"><ele>1.0</ele><time>2026-04-05T09:41:20Z</time></trkpt><trkpt lat="43.727734338884275" lon="10.389330209039885"><ele>1.0</ele><time>2026-04-05T09:41:22.999Z</time></trkpt><trkpt lat="43.727822896652725" lon="10.38929785712951"><ele>1.2000000000000002</ele><time>2026-04-05T09:41:24.999Z</time></trkpt><trkpt lat="43.72790637604807" lon="10.38923668504318"><ele>1.4000000000000001</ele><time>2026-04-05T09:41:26.999Z</time></trkpt><trkpt lat="43.72799703539781" lon="10.389175752949406"><ele>1.6</ele><time>2026-04-05T09:41:28.999Z</time></trkpt><trkpt lat="43.728091630208446" lon="10.389114021693814"><ele>1.8</ele><time>2026-04-05T09:41:30.999Z</time></trkpt><trkpt lat="43.7281776523309" lon="10.389060969375938"><ele>2.0</ele><time>2026-04-05T09:41:32.999Z</time></trkpt><trkpt lat="43.72825886672951" lon="10.389012442196682"><ele>1.9999999999999998</ele><time>2026-04-05T09:41:34.999Z</time></trkpt><trkpt lat="43.72833646845231" lon="10.3889633979511"><ele>2.0</ele><time>2026-04-05T09:41:36.999Z</time></trkpt><trkpt lat="43.72839976800805" lon="10.388924085619898"><ele>2.0</ele><time>2026-04-05T09:41:38.999Z</time></trkpt><trkpt lat="43.72846317573947" lon="10.388865600689117"><ele>2.0</ele><time>2026-04-05T09:41:57.999Z</time></trkpt><trkpt lat="43.72854717974136" lon="10.388812929734549"><ele>1.9999999999999998</ele><time>2026-04-05T09:42:00.999Z</time></trkpt><trkpt lat="43.72862179207755" lon="10.388776613836104"><ele>2.0</ele><time>2026-04-05T09:42:02.999Z</time></trkpt><trkpt lat="43.728688595693775" lon="10.388721972031195"><ele>1.9999999999999998</ele><time>2026-04-05T09:42:04.999Z</time></trkpt><trkpt lat="43.72875348129357" lon="10.388683777644495"><ele>2.0</ele><time>2026-04-05T09:42:06.999Z</time></trkpt><trkpt lat="43.728824949601446" lon="10.388643801627238"><ele>2.0</ele><time>2026-04-05T09:42:09.999Z</time></trkpt><trkpt lat="43.728899801274416" lon="10.388604460072344"><ele>2.0</ele><time>2026-04-05T09:42:12.999Z</time></trkpt><trkpt lat="43.72897481050074" lon="10.388564205981263"><ele>1.9999999999999998</ele><time>2026-04-05T09:42:14.999Z</time></trkpt><trkpt lat="43.72905455563019" lon="10.388518377341189"><ele>2.0</ele><time>2026-04-05T09:42:16.999Z</time></trkpt><trkpt lat="43.72913576881004" lon="10.388473434555983"><ele>2.0</ele><time>2026-04-05T09:42:18.999Z</time></trkpt><trkpt lat="43.72922330240018" lon="10.388422443588903"><ele>2.0</ele><time>2026-04-05T09:42:20.999Z</time></trkpt><trkpt lat="43.72931207070229" lon="10.388370020913797"><ele>2.0</ele><time>2026-04-05T09:42:22.999Z</time></trkpt><trkpt lat="43.729401460551124" lon="10.38831341546358"><ele>2.0</ele><time>2026-04-05T09:42:24.999Z</time></trkpt><trkpt lat="43.72949171112086" lon="10.388250370304453"><ele>2.0</ele><time>2026-04-05T09:42:26.999Z</time></trkpt><trkpt lat="43.729580383146654" lon="10.388180653764087"><ele>2.0</ele><time>2026-04-05T09:42:28.998Z</time></trkpt><trkpt lat="43.729673112355" lon="10.388115814086138"><ele>2.0</ele><time>2026-04-05T09:42:30.998Z</time></trkpt><trkpt lat="43.729768038412054" lon="10.388050509062559"><ele>2.0</ele><time>2026-04-05T09:42:32.998Z</time></trkpt><trkpt lat="43.72985686537556" lon="10.387974051473526"><ele>2.0</ele><time>2026-04-05T09:42:34.998Z</time></trkpt><trkpt lat="43.72994954789937" lon="10.38789217373318"><ele>2.0</ele><time>2026-04-05T09:42:36.998Z</time></trkpt><trkpt lat="43.73004343615461" lon="10.387799934001423"><ele>1.75</ele><time>2026-04-05T09:42:38.998Z</time></trkpt><trkpt lat="43.73013981621662" lon="10.38770510609011"><ele>1.5</ele><time>2026-04-05T09:42:40.998Z</time></trkpt><trkpt lat="43.73023496133623" lon="10.387611823227754"><ele>1.25</ele><time>2026-04-05T09:42:42.998Z</time></trkpt><trkpt lat="43.73033536095601" lon="10.38752647132943"><ele>1.0</ele><time>2026-04-05T09:42:44.998Z</time></trkpt><trkpt lat="43.73043661877539" lon="10.387442434035174"><ele>0.75</ele><time>2026-04-05T09:42:46.998Z</time></trkpt><trkpt lat="43.730539525861474" lon="10.387368609676853"><ele>0.5</ele><time>2026-04-05T09:42:49Z</time></trkpt><trkpt lat="43.730646165519644" lon="10.387302245532247"><ele>0.25</ele><time>2026-04-05T09:42:51Z</time></trkpt><trkpt lat="43.73075170153508" lon="10.38724262880883"><ele>0.0</ele><time>2026-04-05T09:42:53Z</time></trkpt><trkpt lat="43.73085999726134" lon="10.387188849365357"><ele>0.0</ele><time>2026-04-05T09:42:55Z</time></trkpt><trkpt lat="43.73096837477367" lon="10.387130110552715"><ele>0.0</ele><time>2026-04-05T09:42:57Z</time></trkpt><trkpt lat="43.73108020371159" lon="10.387078485873143"><ele>0.0</ele><time>2026-04-05T09:42:59Z</time></trkpt><trkpt lat="43.73119073731963" lon="10.38702119753246"><ele>0.0</ele><time>2026-04-05T09:43:01Z</time></trkpt><trkpt lat="43.73130100791037" lon="10.38695567808307"><ele>0.25</ele><time>2026-04-05T09:43:03Z</time></trkpt><trkpt lat="43.731410137035816" lon="10.386886736071164"><ele>0.5</ele><time>2026-04-05T09:43:05Z</time></trkpt><trkpt lat="43.73151635704993" lon="10.386817272332232"><ele>0.75</ele><time>2026-04-05T09:43:07Z</time></trkpt><trkpt lat="43.73162468342761" lon="10.386740117828431"><ele>1.0</ele><time>2026-04-05T09:43:09Z</time></trkpt><trkpt lat="43.73172993588588" lon="10.386655679643631"><ele>1.0</ele><time>2026-04-05T09:43:11Z</time></trkpt><trkpt lat="43.73183237437721" lon="10.386571530823518"><ele>1.0</ele><time>2026-04-05T09:43:13Z</time></trkpt><trkpt lat="43.73193262926259" lon="10.386492347612704"><ele>1.0</ele><time>2026-04-05T09:43:15Z</time></trkpt><trkpt lat="43.73202925708696" lon="10.386408223574458"><ele>1.0</ele><time>2026-04-05T09:43:17Z</time></trkpt><trkpt lat="43.732122195032716" lon="10.386320616372414"><ele>1.25</ele><time>2026-04-05T09:43:19Z</time></trkpt><trkpt lat="43.732215957556015" lon="10.386227678759703"><ele>1.5</ele><time>2026-04-05T09:43:21Z</time></trkpt><trkpt lat="43.73230851694204" lon="10.38611895948457"><ele>1.75</ele><time>2026-04-05T09:43:22.999Z</time></trkpt><trkpt lat="43.732396261765736" lon="10.38601369558329"><ele>2.0</ele><time>2026-04-05T09:43:24.999Z</time></trkpt><trkpt lat="43.73248389989723" lon="10.385919364585932"><ele>2.0</ele><time>2026-04-05T09:43:26.999Z</time></trkpt><trkpt lat="43.73257353180706" lon="10.385810564381474"><ele>2.0</ele><time>2026-04-05T09:43:28.999Z</time></trkpt><trkpt lat="43.73266848033704" lon="10.38571656602944"><ele>2.0</ele><time>2026-04-05T09:43:30.999Z</time></trkpt><trkpt lat="43.73276213061808" lon="10.385623646398015"><ele>2.0</ele><time>2026-04-05T09:43:32.999Z</time></trkpt><trkpt lat="43.73285987383273" lon="10.385542465959709"><ele>2.0</ele><time>2026-04-05T09:43:34.999Z</time></trkpt><trkpt lat="43.73295495176793" lon="10.385462838795485"><ele>2.0</ele><time>2026-04-05T09:43:36.999Z</time></trkpt><trkpt lat="43.73305431550092" lon="10.385386524960191"><ele>2.0</ele><time>2026-04-05T09:43:38.999Z</time></trkpt><trkpt lat="43.73315330084783" lon="10.385305158061321"><ele>2.0</ele><time>2026-04-05T09:43:40.999Z</time></trkpt><trkpt lat="43.73325187463455" lon="10.385235415466191"><ele>2.0</ele><time>2026-04-05T09:43:42.999Z</time></trkpt><trkpt lat="43.73335106794561" lon="10.385157774496465"><ele>2.0</ele><time>2026-04-05T09:43:44.999Z</time></trkpt><trkpt lat="43.73345173578577" lon="10.385086889465049"><ele>2.0</ele><time>2026-04-05T09:43:46.999Z</time></trkpt><trkpt lat="43.73355398003263" lon="10.385016743676314"><ele>2.0</ele><time>2026-04-05T09:43:48.999Z</time></trkpt><trkpt lat="43.73365586553729" lon="10.38494391354071"><ele>2.0</ele><time>2026-04-05T09:43:50.999Z</time></trkpt><trkpt lat="43.73376127604336" lon="10.38488424225587"><ele>2.0</ele><time>2026-04-05T09:43:52.999Z</time></trkpt><trkpt lat="43.733863131188635" lon="10.384808828924092"><ele>2.0</ele><time>2026-04-05T09:43:54.999Z</time></trkpt><trkpt lat="43.733965854098656" lon="10.384746770129377"><ele>2.0</ele><time>2026-04-05T09:43:56.999Z</time></trkpt><trkpt lat="43.73406867300152" lon="10.38467918558142"><ele>2.0</ele><time>2026-04-05T09:43:58.999Z</time></trkpt><trkpt lat="43.7341726808243" lon="10.384616573492501"><ele>2.0</ele><time>2026-04-05T09:44:00.999Z</time></trkpt><trkpt lat="43.73427321110694" lon="10.38454215189698"><ele>2.0</ele><time>2026-04-05T09:44:02.999Z</time></trkpt><trkpt lat="43.73437328091554" lon="10.384472064901646"><ele>2.0</ele><time>2026-04-05T09:44:04.999Z</time></trkpt><trkpt lat="43.73447152711465" lon="10.384399698571862"><ele>1.8</ele><time>2026-04-05T09:44:06.999Z</time></trkpt><trkpt lat="43.73457243464534" lon="10.384339195719798"><ele>1.6</ele><time>2026-04-05T09:44:08.999Z</time></trkpt><trkpt lat="43.73466846979385" lon="10.38426534876516"><ele>1.4000000000000001</ele><time>2026-04-05T09:44:10.999Z</time></trkpt><trkpt lat="43.73476843509185" lon="10.384201683974561"><ele>1.2000000000000002</ele><time>2026-04-05T09:44:12.999Z</time></trkpt><trkpt lat="43.73487247276069" lon="10.384126465011022"><ele>1.0</ele><time>2026-04-05T09:44:14.999Z</time></trkpt><trkpt lat="43.73497756168184" lon="10.384061112226862"><ele>1.0</ele><time>2026-04-05T09:44:16.999Z</time></trkpt><trkpt lat="43.73508113868983" lon="10.383994163548605"><ele>1.0</ele><time>2026-04-05T09:44:18.999Z</time></trkpt><trkpt lat="43.73518554312422" lon="10.38393258866091"><ele>1.0</ele><time>2026-04-05T09:44:20.999Z</time></trkpt><trkpt lat="43.73528827455809" lon="10.383859627657161"><ele>1.0</ele><time>2026-04-05T09:44:22.999Z</time></trkpt><trkpt lat="43.73539047008594" lon="10.383800285528919"><ele>1.2000000000000002</ele><time>2026-04-05T09:44:24.999Z</time></trkpt><trkpt lat="43.73549615087732" lon="10.383738639559837"><ele>1.4000000000000001</ele><time>2026-04-05T09:44:26.999Z</time></trkpt><trkpt lat="43.73559759803257" lon="10.38368013480046"><ele>1.6</ele><time>2026-04-05T09:44:28.999Z</time></trkpt><trkpt lat="43.73569859375378" lon="10.383621613068849"><ele>1.8</ele><time>2026-04-05T09:44:30.999Z</time></trkpt><trkpt lat="43.73579995166486" lon="10.383565182569058"><ele>2.0</ele><time>2026-04-05T09:44:32.998Z</time></trkpt><trkpt lat="43.73589945841962" lon="10.383507620214889"><ele>2.0</ele><time>2026-04-05T09:44:34.998Z</time></trkpt><trkpt lat="43.73600229692017" lon="10.38344132201558"><ele>2.0</ele><time>2026-04-05T09:44:36.998Z</time></trkpt><trkpt lat="43.73610529833481" lon="10.383383300363555"><ele>2.0</ele><time>2026-04-05T09:44:38.998Z</time></trkpt><trkpt lat="43.7362121795105" lon="10.383325940902926"><ele>2.0</ele><time>2026-04-05T09:44:40.998Z</time></trkpt><trkpt lat="43.73631610129882" lon="10.383257875656433"><ele>1.5</ele><time>2026-04-05T09:44:42.998Z</time></trkpt><trkpt lat="43.7364196847712" lon="10.383191565726474"><ele>1.0</ele><time>2026-04-05T09:44:44.998Z</time></trkpt><trkpt lat="43.736520330123916" lon="10.383120287827618"><ele>0.5</ele><time>2026-04-05T09:44:46.998Z</time></trkpt><trkpt lat="43.73661899807956" lon="10.383045246445816"><ele>0.0</ele><time>2026-04-05T09:44:48.998Z</time></trkpt><trkpt lat="43.73671855312787" lon="10.382973160662173"><ele>0.0</ele><time>2026-04-05T09:44:50.998Z</time></trkpt><trkpt lat="43.736818265348774" lon="10.38289734034987"><ele>0.0</ele><time>2026-04-05T09:44:52.998Z</time></trkpt><trkpt lat="43.736914171826434" lon="10.382815610248349"><ele>0.0</ele><time>2026-04-05T09:44:55Z</time></trkpt><trkpt lat="43.73701213395125" lon="10.382738932862631"><ele>0.0</ele><time>2026-04-05T09:44:57Z</time></trkpt><trkpt lat="43.73710868255476" lon="10.382664664053294"><ele>0.0</ele><time>2026-04-05T09:44:59Z</time></trkpt><trkpt lat="43.73720814901135" lon="10.382591685893003"><ele>0.25</ele><time>2026-04-05T09:45:01Z</time></trkpt><trkpt lat="43.73731078582644" lon="10.382522759801352"><ele>0.5</ele><time>2026-04-05T09:45:03Z</time></trkpt><trkpt lat="43.737413609603585" lon="10.38245319343017"><ele>0.75</ele><time>2026-04-05T09:45:05Z</time></trkpt><trkpt lat="43.7375160457499" lon="10.382381992909703"><ele>1.0</ele><time>2026-04-05T09:45:07Z</time></trkpt><trkpt lat="43.73761568962823" lon="10.382314251626392"><ele>1.0</ele><time>2026-04-05T09:45:09Z</time></trkpt><trkpt lat="43.73771590263488" lon="10.382244245338244"><ele>1.0</ele><time>2026-04-05T09:45:11Z</time></trkpt><trkpt lat="43.73781429381935" lon="10.382169016567623"><ele>1.0</ele><time>2026-04-05T09:45:13Z</time></trkpt><trkpt lat="43.73791197425331" lon="10.382092682551182"><ele>1.0</ele><time>2026-04-05T09:45:15Z</time></trkpt><trkpt lat="43.73800660439263" lon="10.382018633598891"><ele>1.0</ele><time>2026-04-05T09:45:17Z</time></trkpt><trkpt lat="43.73809960218022" lon="10.381941212168451"><ele>0.8</ele><time>2026-04-05T09:45:19Z</time></trkpt><trkpt lat="43.73819061937507" lon="10.38186593699523"><ele>0.6000000000000001</ele><time>2026-04-05T09:45:21Z</time></trkpt><trkpt lat="43.73828060520528" lon="10.381783649023218"><ele>0.4</ele><time>2026-04-05T09:45:23Z</time></trkpt><trkpt lat="43.738365128465695" lon="10.381699888876575"><ele>0.2</ele><time>2026-04-05T09:45:25Z</time></trkpt><trkpt lat="43.73845242372408" lon="10.381618747255862"><ele>0.0</ele><time>2026-04-05T09:45:27Z</time></trkpt><trkpt lat="43.738540490891495" lon="10.381538451857766"><ele>0.0</ele><time>2026-04-05T09:45:29Z</time></trkpt><trkpt lat="43.73862568449026" lon="10.381456196356876"><ele>0.0</ele><time>2026-04-05T09:45:31Z</time></trkpt><trkpt lat="43.738715378538785" lon="10.381376262420659"><ele>0.0</ele><time>2026-04-05T09:45:33Z</time></trkpt><trkpt lat="43.73881097804286" lon="10.381308600362386"><ele>0.0</ele><time>2026-04-05T09:45:35Z</time></trkpt><trkpt lat="43.73891460961569" lon="10.381236214519241"><ele>0.0</ele><time>2026-04-05T09:45:37Z</time></trkpt><trkpt lat="43.73902221073557" lon="10.381173561115796"><ele>0.0</ele><time>2026-04-05T09:45:38.999Z</time></trkpt><trkpt lat="43.73913573618689" lon="10.381115381366678"><ele>0.0</ele><time>2026-04-05T09:45:40.999Z</time></trkpt><trkpt lat="43.73919596016526" lon="10.381089054091325"><ele>0.0</ele><time>2026-04-05T09:45:41.999Z</time></trkpt><trkpt lat="43.73930791894388" lon="10.381031369340944"><ele>0.0</ele><time>2026-04-05T09:45:43.999Z</time></trkpt><trkpt lat="43.73941453097572" lon="10.380957225464787"><ele>0.0</ele><time>2026-04-05T09:45:45.999Z</time></trkpt><trkpt lat="43.73950935977289" lon="10.38087336062897"><ele>0.0</ele><time>2026-04-05T09:45:47.999Z</time></trkpt><trkpt lat="43.73959743552011" lon="10.38078900480417"><ele>0.0</ele><time>2026-04-05T09:45:49.999Z</time></trkpt><trkpt lat="43.739677135453675" lon="10.380683512235239"><ele>0.0</ele><time>2026-04-05T09:45:51.999Z</time></trkpt><trkpt lat="43.73974650843923" lon="10.380563195781715"><ele>0.0</ele><time>2026-04-05T09:45:53.999Z</time></trkpt><trkpt lat="43.73980957608052" lon="10.380435933525556"><ele>0.0</ele><time>2026-04-05T09:45:55.999Z</time></trkpt><trkpt lat="43.739863857106535" lon="10.38029088777732"><ele>0.0</ele><time>2026-04-05T09:45:57.999Z</time></trkpt><trkpt lat="43.7399120192442" lon="10.380141161452084"><ele>0.0</ele><time>2026-04-05T09:45:59.999Z</time></trkpt><trkpt lat="43.73994801747999" lon="10.37999283443066"><ele>0.0</ele><time>2026-04-05T09:46:01.999Z</time></trkpt><trkpt lat="43.73997901572688" lon="10.379837795483686"><ele>0.0</ele><time>2026-04-05T09:46:03.999Z</time></trkpt><trkpt lat="43.740006599357095" lon="10.379686430046903"><ele>0.0</ele><time>2026-04-05T09:46:05.999Z</time></trkpt><trkpt lat="43.74002508996994" lon="10.379526450257881"><ele>0.0</ele><time>2026-04-05T09:46:07.999Z</time></trkpt><trkpt lat="43.740054337912625" lon="10.379371842081452"><ele>0.0</ele><time>2026-04-05T09:46:09.999Z</time></trkpt><trkpt lat="43.74007888976418" lon="10.37921867328541"><ele>0.0</ele><time>2026-04-05T09:46:11.999Z</time></trkpt><trkpt lat="43.74011097067565" lon="10.379064579264497"><ele>0.0</ele><time>2026-04-05T09:46:13.999Z</time></trkpt><trkpt lat="43.74013434128701" lon="10.378910997199036"><ele>0.0</ele><time>2026-04-05T09:46:15.999Z</time></trkpt><trkpt lat="43.74017172680766" lon="10.37876326634476"><ele>0.0</ele><time>2026-04-05T09:46:17.999Z</time></trkpt><trkpt lat="43.74020439049791" lon="10.378611621276082"><ele>0.0</ele><time>2026-04-05T09:46:19.999Z</time></trkpt><trkpt lat="43.74024675041108" lon="10.378459867632671"><ele>0.25</ele><time>2026-04-05T09:46:21.999Z</time></trkpt><trkpt lat="43.74029192889867" lon="10.378315011677866"><ele>0.5</ele><time>2026-04-05T09:46:23.999Z</time></trkpt><trkpt lat="43.74033867838394" lon="10.378171928909742"><ele>0.75</ele><time>2026-04-05T09:46:25.999Z</time></trkpt><trkpt lat="43.74039135346944" lon="10.37803448233074"><ele>1.0</ele><time>2026-04-05T09:46:27.999Z</time></trkpt><trkpt lat="43.74044298399496" lon="10.377898170923109"><ele>1.0</ele><time>2026-04-05T09:46:29.999Z</time></trkpt><trkpt lat="43.74051117473178" lon="10.377771677086193"><ele>1.0</ele><time>2026-04-05T09:46:31.999Z</time></trkpt><trkpt lat="43.74057270604225" lon="10.377639557687326"><ele>1.0</ele><time>2026-04-05T09:46:33.999Z</time></trkpt><trkpt lat="43.74063470128488" lon="10.377509948627766"><ele>1.0</ele><time>2026-04-05T09:46:35.999Z</time></trkpt><trkpt lat="43.74069302759011" lon="10.377390076470043"><ele>1.0</ele><time>2026-04-05T09:46:37.999Z</time></trkpt><trkpt lat="43.74075213289479" lon="10.377265680640871"><ele>1.0</ele><time>2026-04-05T09:46:39.999Z</time></trkpt><trkpt lat="43.740814286233444" lon="10.377147767396876"><ele>1.0</ele><time>2026-04-05T09:46:41.999Z</time></trkpt><trkpt lat="43.74087741571384" lon="10.377035701623619"><ele>1.0</ele><time>2026-04-05T09:46:43.999Z</time></trkpt><trkpt lat="43.74094029703602" lon="10.376924477872784"><ele>1.0</ele><time>2026-04-05T09:46:45.999Z</time></trkpt><trkpt lat="43.741002727987045" lon="10.376823365438138"><ele>1.0</ele><time>2026-04-05T09:46:47.998Z</time></trkpt><trkpt lat="43.74106007114999" lon="10.376730126941755"><ele>1.0</ele><time>2026-04-05T09:46:49.998Z</time></trkpt><trkpt lat="43.74111987284373" lon="10.376627972698262"><ele>1.0</ele><time>2026-04-05T09:46:51.998Z</time></trkpt><trkpt lat="43.74118765536054" lon="10.376512375029897"><ele>1.0</ele><time>2026-04-05T09:46:53.998Z</time></trkpt><trkpt lat="43.741259448452155" lon="10.376389129550848"><ele>1.0</ele><time>2026-04-05T09:46:55.998Z</time></trkpt><trkpt lat="43.741334489425945" lon="10.376262380698359"><ele>1.0</ele><time>2026-04-05T09:46:57.998Z</time></trkpt><trkpt lat="43.74141018196453" lon="10.376129935555436"><ele>1.0</ele><time>2026-04-05T09:47:00Z</time></trkpt><trkpt lat="43.741488766140755" lon="10.37600890948756"><ele>1.0</ele><time>2026-04-05T09:47:02Z</time></trkpt><trkpt lat="43.741525620205515" lon="10.375934612823809"><ele>1.0</ele><time>2026-04-05T09:47:03Z</time></trkpt><trkpt lat="43.74160591393269" lon="10.375807661580556"><ele>1.0</ele><time>2026-04-05T09:47:05Z</time></trkpt><trkpt lat="43.741678690295785" lon="10.375674505863593"><ele>1.0</ele><time>2026-04-05T09:47:07Z</time></trkpt><trkpt lat="43.74175310090645" lon="10.375542643540747"><ele>1.0</ele><time>2026-04-05T09:47:09Z</time></trkpt><trkpt lat="43.74182841936757" lon="10.37541135360152"><ele>1.0</ele><time>2026-04-05T09:47:11Z</time></trkpt><trkpt lat="43.74191038559672" lon="10.375288416758325"><ele>1.0</ele><time>2026-04-05T09:47:13Z</time></trkpt><trkpt lat="43.74198769099594" lon="10.375156853550235"><ele>1.0</ele><time>2026-04-05T09:47:15Z</time></trkpt><trkpt lat="43.74202246308374" lon="10.375082630496753"><ele>1.0</ele><time>2026-04-05T09:47:16Z</time></trkpt><trkpt lat="43.74209808029383" lon="10.374962944301274"><ele>1.0</ele><time>2026-04-05T09:47:18Z</time></trkpt><trkpt lat="43.74217889282924" lon="10.374837883057182"><ele>1.0</ele><time>2026-04-05T09:47:20Z</time></trkpt><trkpt lat="43.742257676576735" lon="10.374710932879818"><ele>1.0</ele><time>2026-04-05T09:47:22Z</time></trkpt><trkpt lat="43.74233568239074" lon="10.374582510472232"><ele>1.0</ele><time>2026-04-05T09:47:24Z</time></trkpt><trkpt lat="43.74241049733049" lon="10.374452866666214"><ele>1.0</ele><time>2026-04-05T09:47:26Z</time></trkpt><trkpt lat="43.74248736127734" lon="10.374325715643918"><ele>1.0</ele><time>2026-04-05T09:47:28Z</time></trkpt><trkpt lat="43.742564823223105" lon="10.374200458279745"><ele>1.0</ele><time>2026-04-05T09:47:30Z</time></trkpt><trkpt lat="43.74263854836126" lon="10.374073333389127"><ele>1.0</ele><time>2026-04-05T09:47:32Z</time></trkpt><trkpt lat="43.742716656148744" lon="10.373954675249253"><ele>1.25</ele><time>2026-04-05T09:47:34Z</time></trkpt><trkpt lat="43.74279130813337" lon="10.373826769688371"><ele>1.5</ele><time>2026-04-05T09:47:36Z</time></trkpt><trkpt lat="43.742864365851" lon="10.373701903035506"><ele>1.75</ele><time>2026-04-05T09:47:38Z</time></trkpt><trkpt lat="43.74297037122738" lon="10.373528468985905"><ele>2.0</ele><time>2026-04-05T09:47:41Z</time></trkpt><trkpt lat="43.74303542848569" lon="10.373406024195404"><ele>2.0</ele><time>2026-04-05T09:47:43Z</time></trkpt><trkpt lat="43.7431102685527" lon="10.373296188478264"><ele>2.0</ele><time>2026-04-05T09:47:45Z</time></trkpt><trkpt lat="43.743178057093054" lon="10.37317809730885"><ele>2.0</ele><time>2026-04-05T09:47:47Z</time></trkpt><trkpt lat="43.743247229142185" lon="10.373056441000664"><ele>2.0</ele><time>2026-04-05T09:47:48.999Z</time></trkpt><trkpt lat="43.74332061576611" lon="10.372938994326196"><ele>2.0</ele><time>2026-04-05T09:47:50.999Z</time></trkpt><trkpt lat="43.74335288566406" lon="10.372810868168822"><ele>2.25</ele><time>2026-04-05T09:47:52.999Z</time></trkpt><trkpt lat="43.74346284797266" lon="10.372721557067814"><ele>2.5</ele><time>2026-04-05T09:47:54.999Z</time></trkpt><trkpt lat="43.74353545377092" lon="10.372604574502741"><ele>2.75</ele><time>2026-04-05T09:47:56.999Z</time></trkpt><trkpt lat="43.743605326234736" lon="10.372487042285561"><ele>3.0</ele><time>2026-04-05T09:47:58.999Z</time></trkpt><trkpt lat="43.74366920899674" lon="10.372370475182658"><ele>2.6</ele><time>2026-04-05T09:48:00.999Z</time></trkpt><trkpt lat="43.74373562617264" lon="10.372250472997685"><ele>2.1999999999999997</ele><time>2026-04-05T09:48:02.999Z</time></trkpt><trkpt lat="43.74379229857851" lon="10.372128054135482"><ele>1.8</ele><time>2026-04-05T09:48:04.999Z</time></trkpt><trkpt lat="43.74384696964677" lon="10.372000397242388"><ele>1.4</ele><time>2026-04-05T09:48:06.999Z</time></trkpt><trkpt lat="43.7439008569957" lon="10.37187692874117"><ele>1.0</ele><time>2026-04-05T09:48:08.999Z</time></trkpt><trkpt lat="43.74396042431841" lon="10.371751927061373"><ele>1.0</ele><time>2026-04-05T09:48:10.999Z</time></trkpt><trkpt lat="43.744036596238985" lon="10.371654435776483"><ele>1.0</ele><time>2026-04-05T09:48:12.999Z</time></trkpt><trkpt lat="43.74412826960451" lon="10.37159042548464"><ele>1.0</ele><time>2026-04-05T09:48:14.999Z</time></trkpt><trkpt lat="43.7442232213856" lon="10.371525337979902"><ele>1.0</ele><time>2026-04-05T09:48:16.999Z</time></trkpt><trkpt lat="43.744289782866865" lon="10.371409315482051"><ele>1.0</ele><time>2026-04-05T09:48:18.999Z</time></trkpt><trkpt lat="43.74434212945934" lon="10.371285305931785"><ele>0.8</ele><time>2026-04-05T09:48:20.999Z</time></trkpt><trkpt lat="43.74440801312583" lon="10.371183742965433"><ele>0.6000000000000001</ele><time>2026-04-05T09:48:22.999Z</time></trkpt><trkpt lat="43.74447208444795" lon="10.371076415214594"><ele>0.4</ele><time>2026-04-05T09:48:24.999Z</time></trkpt><trkpt lat="43.744532604427306" lon="10.37097115122838"><ele>0.2</ele><time>2026-04-05T09:48:26.999Z</time></trkpt><trkpt lat="43.74459156662149" lon="10.370870658730649"><ele>0.0</ele><time>2026-04-05T09:48:28.999Z</time></trkpt><trkpt lat="43.74465233463288" lon="10.370770314223709"><ele>0.0</ele><time>2026-04-05T09:48:30.999Z</time></trkpt><trkpt lat="43.744713410632194" lon="10.370664506304522"><ele>0.0</ele><time>2026-04-05T09:48:32.999Z</time></trkpt><trkpt lat="43.7447779725846" lon="10.370553660283777"><ele>0.0</ele><time>2026-04-05T09:48:34.999Z</time></trkpt><trkpt lat="43.744845072017945" lon="10.370439652848217"><ele>0.0</ele><time>2026-04-05T09:48:36.999Z</time></trkpt><trkpt lat="43.744912837586156" lon="10.370321788801592"><ele>0.0</ele><time>2026-04-05T09:48:38.999Z</time></trkpt><trkpt lat="43.744982982047304" lon="10.370205491054675"><ele>0.0</ele><time>2026-04-05T09:48:40.999Z</time></trkpt><trkpt lat="43.74505021332874" lon="10.370086720792951"><ele>0.0</ele><time>2026-04-05T09:48:42.999Z</time></trkpt><trkpt lat="43.74512121847268" lon="10.369965068640157"><ele>0.0</ele><time>2026-04-05T09:48:44.999Z</time></trkpt><trkpt lat="43.745190568784544" lon="10.369842749966589"><ele>0.0</ele><time>2026-04-05T09:48:46.999Z</time></trkpt><trkpt lat="43.74526180709166" lon="10.369723923159002"><ele>0.0</ele><time>2026-04-05T09:48:48.999Z</time></trkpt><trkpt lat="43.74533066406208" lon="10.369603508269439"><ele>0.4</ele><time>2026-04-05T09:48:50.999Z</time></trkpt><trkpt lat="43.745399990731315" lon="10.369488672899255"><ele>0.8</ele><time>2026-04-05T09:48:52.999Z</time></trkpt><trkpt lat="43.74546690525279" lon="10.369373723823335"><ele>1.2000000000000002</ele><time>2026-04-05T09:48:54.999Z</time></trkpt><trkpt lat="43.74553001934309" lon="10.36926123900157"><ele>1.6</ele><time>2026-04-05T09:48:56.998Z</time></trkpt><trkpt lat="43.74559959805352" lon="10.369150969080202"><ele>2.0</ele><time>2026-04-05T09:48:58.998Z</time></trkpt><trkpt lat="43.745666061246766" lon="10.369034322447908"><ele>2.0</ele><time>2026-04-05T09:49:00.998Z</time></trkpt><trkpt lat="43.74573530964275" lon="10.368921847460639"><ele>2.0</ele><time>2026-04-05T09:49:02.998Z</time></trkpt><trkpt lat="43.745802244437726" lon="10.368805080728551"><ele>2.0</ele><time>2026-04-05T09:49:04.998Z</time></trkpt><trkpt lat="43.74587599950433" lon="10.368690136314594"><ele>2.0</ele><time>2026-04-05T09:49:07Z</time></trkpt><trkpt lat="43.745943961806226" lon="10.368568378637761"><ele>2.0</ele><time>2026-04-05T09:49:09Z</time></trkpt><trkpt lat="43.74601312945496" lon="10.368451095238333"><ele>2.0</ele><time>2026-04-05T09:49:11Z</time></trkpt><trkpt lat="43.74608218378811" lon="10.368333098238752"><ele>2.0</ele><time>2026-04-05T09:49:13Z</time></trkpt><trkpt lat="43.74615197685206" lon="10.36821861239228"><ele>2.0</ele><time>2026-04-05T09:49:15Z</time></trkpt><trkpt lat="43.746223288951015" lon="10.36809756435957"><ele>2.0</ele><time>2026-04-05T09:49:17Z</time></trkpt><trkpt lat="43.74629172144322" lon="10.367981757312371"><ele>2.0</ele><time>2026-04-05T09:49:19Z</time></trkpt><trkpt lat="43.746359596944245" lon="10.36786388621757"><ele>2.0</ele><time>2026-04-05T09:49:21Z</time></trkpt><trkpt lat="43.74642579693312" lon="10.367753879414657"><ele>2.0</ele><time>2026-04-05T09:49:23Z</time></trkpt><trkpt lat="43.746496459213176" lon="10.36763896792263"><ele>2.0</ele><time>2026-04-05T09:49:25Z</time></trkpt><trkpt lat="43.74656724615285" lon="10.36751867500081"><ele>2.0</ele><time>2026-04-05T09:49:27Z</time></trkpt><trkpt lat="43.74663748013565" lon="10.367402307801472"><ele>2.0</ele><time>2026-04-05T09:49:29Z</time></trkpt><trkpt lat="43.74670856014079" lon="10.36728441687178"><ele>2.0</ele><time>2026-04-05T09:49:31Z</time></trkpt><trkpt lat="43.74678013380912" lon="10.36716857826654"><ele>2.0</ele><time>2026-04-05T09:49:33Z</time></trkpt><trkpt lat="43.746850448820275" lon="10.36704639907464"><ele>2.0</ele><time>2026-04-05T09:49:35Z</time></trkpt><trkpt lat="43.746919452882274" lon="10.366927740951652"><ele>2.0</ele><time>2026-04-05T09:49:37Z</time></trkpt><trkpt lat="43.7469938008986" lon="10.366809576573896"><ele>2.0</ele><time>2026-04-05T09:49:39Z</time></trkpt><trkpt lat="43.74706909544074" lon="10.366690286777736"><ele>2.0</ele><time>2026-04-05T09:49:41Z</time></trkpt><trkpt lat="43.74714163446388" lon="10.366561706694421"><ele>2.0</ele><time>2026-04-05T09:49:43Z</time></trkpt><trkpt lat="43.747216813014944" lon="10.366434386016381"><ele>2.0</ele><time>2026-04-05T09:49:45Z</time></trkpt><trkpt lat="43.74729110148684" lon="10.366307566347334"><ele>2.0</ele><time>2026-04-05T09:49:47Z</time></trkpt><trkpt lat="43.747367456895205" lon="10.366182065571609"><ele>1.75</ele><time>2026-04-05T09:49:49Z</time></trkpt><trkpt lat="43.7474417873725" lon="10.366058946940331"><ele>1.5</ele><time>2026-04-05T09:49:51Z</time></trkpt><trkpt lat="43.747517543346554" lon="10.365931007812911"><ele>1.25</ele><time>2026-04-05T09:49:53Z</time></trkpt><trkpt lat="43.74758849927587" lon="10.365806691328164"><ele>1.0</ele><time>2026-04-05T09:49:54.999Z</time></trkpt><trkpt lat="43.74766021898744" lon="10.36568944027926"><ele>1.0</ele><time>2026-04-05T09:49:56.999Z</time></trkpt><trkpt lat="43.74773153937392" lon="10.365565909221864"><ele>1.0</ele><time>2026-04-05T09:49:58.999Z</time></trkpt><trkpt lat="43.747806291929905" lon="10.365444885652806"><ele>1.0</ele><time>2026-04-05T09:50:00.999Z</time></trkpt><trkpt lat="43.74787826179969" lon="10.365319319618905"><ele>1.0</ele><time>2026-04-05T09:50:02.999Z</time></trkpt><trkpt lat="43.747954185958534" lon="10.365196198674445"><ele>1.0</ele><time>2026-04-05T09:50:04.999Z</time></trkpt><trkpt lat="43.748030483405394" lon="10.365068681511772"><ele>1.0</ele><time>2026-04-05T09:50:06.999Z</time></trkpt><trkpt lat="43.74810422039517" lon="10.364938084338965"><ele>1.0</ele><time>2026-04-05T09:50:08.999Z</time></trkpt><trkpt lat="43.74817894468827" lon="10.364805751913003"><ele>1.0</ele><time>2026-04-05T09:50:10.999Z</time></trkpt><trkpt lat="43.74825661004326" lon="10.36467668538402"><ele>1.0</ele><time>2026-04-05T09:50:12.999Z</time></trkpt><trkpt lat="43.74833066657571" lon="10.364544984359755"><ele>1.0</ele><time>2026-04-05T09:50:14.999Z</time></trkpt><trkpt lat="43.74840314060349" lon="10.364423707560444"><ele>1.0</ele><time>2026-04-05T09:50:16.999Z</time></trkpt><trkpt lat="43.74847783698232" lon="10.364300625233408"><ele>1.0</ele><time>2026-04-05T09:50:18.999Z</time></trkpt><trkpt lat="43.748551056651124" lon="10.364173417899705"><ele>1.25</ele><time>2026-04-05T09:50:20.999Z</time></trkpt><trkpt lat="43.748623073191425" lon="10.364049493533143"><ele>1.5</ele><time>2026-04-05T09:50:22.999Z</time></trkpt><trkpt lat="43.74869941086716" lon="10.36392687712638"><ele>1.75</ele><time>2026-04-05T09:50:24.999Z</time></trkpt><trkpt lat="43.74877256531217" lon="10.363802460375753"><ele>2.0</ele><time>2026-04-05T09:50:26.999Z</time></trkpt><trkpt lat="43.74884627742422" lon="10.363682878032145"><ele>2.25</ele><time>2026-04-05T09:50:28.999Z</time></trkpt><trkpt lat="43.748914466544264" lon="10.363558561946881"><ele>2.5</ele><time>2026-04-05T09:50:30.999Z</time></trkpt><trkpt lat="43.748986966612605" lon="10.363440537308206"><ele>2.75</ele><time>2026-04-05T09:50:32.999Z</time></trkpt><trkpt lat="43.74905498206985" lon="10.363320029662676"><ele>3.0</ele><time>2026-04-05T09:50:34.999Z</time></trkpt><trkpt lat="43.74912969114484" lon="10.363197695413504"><ele>3.0</ele><time>2026-04-05T09:50:36.999Z</time></trkpt><trkpt lat="43.749201015977505" lon="10.363074899391535"><ele>3.0</ele><time>2026-04-05T09:50:38.999Z</time></trkpt><trkpt lat="43.74927888529668" lon="10.36294770004607"><ele>3.0</ele><time>2026-04-05T09:50:40.999Z</time></trkpt><trkpt lat="43.7493497190699" lon="10.36282612040962"><ele>3.0</ele><time>2026-04-05T09:50:42.999Z</time></trkpt><trkpt lat="43.749423361238186" lon="10.36269793224375"><ele>2.6</ele><time>2026-04-05T09:50:44.999Z</time></trkpt><trkpt lat="43.74949819250014" lon="10.36257395133117"><ele>2.1999999999999997</ele><time>2026-04-05T09:50:46.999Z</time></trkpt><trkpt lat="43.74957092909196" lon="10.362450968877571"><ele>1.8</ele><time>2026-04-05T09:50:48.999Z</time></trkpt><trkpt lat="43.74964041140858" lon="10.362338090017582"><ele>1.4</ele><time>2026-04-05T09:50:50.999Z</time></trkpt><trkpt lat="43.749705646061926" lon="10.36222564791417"><ele>1.0</ele><time>2026-04-05T09:50:52.999Z</time></trkpt><trkpt lat="43.74977411785212" lon="10.362112821088791"><ele>1.0</ele><time>2026-04-05T09:50:54.999Z</time></trkpt><trkpt lat="43.74984390946357" lon="10.361998527950908"><ele>1.0</ele><time>2026-04-05T09:50:56.999Z</time></trkpt><trkpt lat="43.74991377908491" lon="10.361877665922627"><ele>1.0</ele><time>2026-04-05T09:50:58.999Z</time></trkpt><trkpt lat="43.74998282617292" lon="10.361762009845048"><ele>1.0</ele><time>2026-04-05T09:51:00.999Z</time></trkpt><trkpt lat="43.750054422313156" lon="10.361643266572377"><ele>1.0</ele><time>2026-04-05T09:51:02.998Z</time></trkpt><trkpt lat="43.75012609895751" lon="10.361516666697128"><ele>1.0</ele><time>2026-04-05T09:51:04.998Z</time></trkpt><trkpt lat="43.75019780778048" lon="10.361400021375525"><ele>1.0</ele><time>2026-04-05T09:51:06.998Z</time></trkpt><trkpt lat="43.75026799456332" lon="10.36128370276215"><ele>1.0</ele><time>2026-04-05T09:51:08.998Z</time></trkpt><trkpt lat="43.75034013839537" lon="10.361165227942383"><ele>1.0</ele><time>2026-04-05T09:51:10.998Z</time></trkpt><trkpt lat="43.75041375640486" lon="10.361047466070676"><ele>1.0</ele><time>2026-04-05T09:51:13Z</time></trkpt><trkpt lat="43.75048739595884" lon="10.360927806695175"><ele>1.0</ele><time>2026-04-05T09:51:15Z</time></trkpt><trkpt lat="43.750560645615735" lon="10.360809147884687"><ele>1.0</ele><time>2026-04-05T09:51:17Z</time></trkpt><trkpt lat="43.75063417966006" lon="10.360689262339022"><ele>1.0</ele><time>2026-04-05T09:51:19Z</time></trkpt><trkpt lat="43.7507059748789" lon="10.360565567573126"><ele>1.0</ele><time>2026-04-05T09:51:21Z</time></trkpt><trkpt lat="43.75078107059682" lon="10.360444861183682"><ele>1.0</ele><time>2026-04-05T09:51:23Z</time></trkpt><trkpt lat="43.750854374207776" lon="10.3603236677882"><ele>1.0</ele><time>2026-04-05T09:51:25Z</time></trkpt><trkpt lat="43.75092782937299" lon="10.360204966779046"><ele>1.0</ele><time>2026-04-05T09:51:27Z</time></trkpt><trkpt lat="43.75100126236528" lon="10.360081299083955"><ele>1.0</ele><time>2026-04-05T09:51:29Z</time></trkpt><trkpt lat="43.75107357920051" lon="10.359961324322734"><ele>1.2000000000000002</ele><time>2026-04-05T09:51:31Z</time></trkpt><trkpt lat="43.751142417894826" lon="10.359841547614964"><ele>1.4000000000000001</ele><time>2026-04-05T09:51:33Z</time></trkpt><trkpt lat="43.75121524484946" lon="10.359725711604343"><ele>1.6</ele><time>2026-04-05T09:51:35Z</time></trkpt><trkpt lat="43.75128626737338" lon="10.359608982484485"><ele>1.8</ele><time>2026-04-05T09:51:37Z</time></trkpt><trkpt lat="43.751356030158306" lon="10.359500861169696"><ele>2.0</ele><time>2026-04-05T09:51:39Z</time></trkpt><trkpt lat="43.75141877951018" lon="10.35939075887948"><ele>2.0</ele><time>2026-04-05T09:51:41Z</time></trkpt><trkpt lat="43.75147786127763" lon="10.359290563098297"><ele>2.0</ele><time>2026-04-05T09:51:43Z</time></trkpt><trkpt lat="43.75153283585689" lon="10.359196868483336"><ele>2.0</ele><time>2026-04-05T09:51:45Z</time></trkpt><trkpt lat="43.75158189619189" lon="10.35910232869195"><ele>2.0</ele><time>2026-04-05T09:51:47Z</time></trkpt><trkpt lat="43.751627585897495" lon="10.358988791602242"><ele>2.0</ele><time>2026-04-05T09:51:49Z</time></trkpt><trkpt lat="43.751674990142426" lon="10.358870849067566"><ele>2.0</ele><time>2026-04-05T09:51:51Z</time></trkpt><trkpt lat="43.75172130437066" lon="10.358746214674829"><ele>2.0</ele><time>2026-04-05T09:51:53Z</time></trkpt><trkpt lat="43.75177002549855" lon="10.358616883608015"><ele>2.0</ele><time>2026-04-05T09:51:55Z</time></trkpt><trkpt lat="43.75181735140609" lon="10.358481989133365"><ele>2.0</ele><time>2026-04-05T09:51:57Z</time></trkpt><trkpt lat="43.751867434714214" lon="10.358345689366022"><ele>2.0</ele><time>2026-04-05T09:51:58.999Z</time></trkpt><trkpt lat="43.7519187595166" lon="10.358211761938977"><ele>2.0</ele><time>2026-04-05T09:52:00.999Z</time></trkpt><trkpt lat="43.75197142525684" lon="10.358076139473685"><ele>2.0</ele><time>2026-04-05T09:52:02.999Z</time></trkpt><trkpt lat="43.752025358131455" lon="10.357944757651664"><ele>2.0</ele><time>2026-04-05T09:52:04.999Z</time></trkpt><trkpt lat="43.75208422301822" lon="10.357817966196155"><ele>2.0</ele><time>2026-04-05T09:52:06.999Z</time></trkpt><trkpt lat="43.75214718842377" lon="10.35769698672333"><ele>2.0</ele><time>2026-04-05T09:52:08.999Z</time></trkpt><trkpt lat="43.752219116356585" lon="10.357579545394744"><ele>2.0</ele><time>2026-04-05T09:52:10.999Z</time></trkpt><trkpt lat="43.75229930295007" lon="10.357469048082695"><ele>2.0</ele><time>2026-04-05T09:52:12.999Z</time></trkpt><trkpt lat="43.75238537839002" lon="10.357364735154068"><ele>2.0</ele><time>2026-04-05T09:52:14.999Z</time></trkpt><trkpt lat="43.75248110796702" lon="10.357260254876621"><ele>2.0</ele><time>2026-04-05T09:52:16.999Z</time></trkpt><trkpt lat="43.75256134730739" lon="10.35715353274543"><ele>2.0</ele><time>2026-04-05T09:52:18.999Z</time></trkpt><trkpt lat="43.75264942806549" lon="10.35706382370162"><ele>2.0</ele><time>2026-04-05T09:52:20.999Z</time></trkpt><trkpt lat="43.75273634999965" lon="10.356968866979543"><ele>2.0</ele><time>2026-04-05T09:52:22.999Z</time></trkpt><trkpt lat="43.752824416937784" lon="10.356870340445708"><ele>2.0</ele><time>2026-04-05T09:52:24.999Z</time></trkpt><trkpt lat="43.75291498906498" lon="10.356771739356802"><ele>2.0</ele><time>2026-04-05T09:52:26.999Z</time></trkpt><trkpt lat="43.753009514859535" lon="10.356665084717141"><ele>2.0</ele><time>2026-04-05T09:52:28.999Z</time></trkpt><trkpt lat="43.75306006739418" lon="10.356613097823148"><ele>2.0</ele><time>2026-04-05T09:52:29.999Z</time></trkpt><trkpt lat="43.753154377071226" lon="10.35650989734271"><ele>2.0</ele><time>2026-04-05T09:52:31.999Z</time></trkpt><trkpt lat="43.753248291351355" lon="10.356407040635665"><ele>2.0</ele><time>2026-04-05T09:52:33.999Z</time></trkpt><trkpt lat="43.75334342736374" lon="10.356304251519974"><ele>2.0</ele><time>2026-04-05T09:52:35.999Z</time></trkpt><trkpt lat="43.753436474977505" lon="10.356203121797915"><ele>2.0</ele><time>2026-04-05T09:52:37.999Z</time></trkpt><trkpt lat="43.753529859990486" lon="10.356100453382957"><ele>2.0</ele><time>2026-04-05T09:52:39.999Z</time></trkpt><trkpt lat="43.753624101942385" lon="10.35599604969653"><ele>2.0</ele><time>2026-04-05T09:52:41.999Z</time></trkpt><trkpt lat="43.75371796769102" lon="10.355893040058593"><ele>2.0</ele><time>2026-04-05T09:52:43.999Z</time></trkpt><trkpt lat="43.75381736517323" lon="10.355788686878649"><ele>2.0</ele><time>2026-04-05T09:52:45.999Z</time></trkpt><trkpt lat="43.75391538612584" lon="10.355681949950231"><ele>2.0</ele><time>2026-04-05T09:52:47.999Z</time></trkpt><trkpt lat="43.754013956093935" lon="10.355575077375446"><ele>2.0</ele><time>2026-04-05T09:52:49.999Z</time></trkpt><trkpt lat="43.754112603574555" lon="10.355466640019278"><ele>2.0</ele><time>2026-04-05T09:52:51.999Z</time></trkpt><trkpt lat="43.754162740730806" lon="10.355409645000476"><ele>2.0</ele><time>2026-04-05T09:52:52.999Z</time></trkpt><trkpt lat="43.75421434405479" lon="10.355353267357795"><ele>2.142857142857143</ele><time>2026-04-05T09:52:53.999Z</time></trkpt><trkpt lat="43.75426638434078" lon="10.355297435481608"><ele>2.2857142857142856</ele><time>2026-04-05T09:52:54.999Z</time></trkpt><trkpt lat="43.7543196613519" lon="10.35524080272455"><ele>2.4285714285714284</ele><time>2026-04-05T09:52:55.999Z</time></trkpt><trkpt lat="43.75437149161378" lon="10.35518456172747"><ele>2.571428571428571</ele><time>2026-04-05T09:52:56.999Z</time></trkpt><trkpt lat="43.7544221876555" lon="10.355128380732339"><ele>2.7142857142857144</ele><time>2026-04-05T09:52:57.999Z</time></trkpt><trkpt lat="43.75447354497397" lon="10.355073301477391"><ele>2.8571428571428568</ele><time>2026-04-05T09:52:58.999Z</time></trkpt><trkpt lat="43.75452423851327" lon="10.355017871137875"><ele>3.0</ele><time>2026-04-05T09:52:59.999Z</time></trkpt><trkpt lat="43.75457438235509" lon="10.354961101293904"><ele>2.714285714285714</ele><time>2026-04-05T09:53:00.999Z</time></trkpt><trkpt lat="43.75462532505609" lon="10.354904492659742"><ele>2.4285714285714284</ele><time>2026-04-05T09:53:01.999Z</time></trkpt><trkpt lat="43.7546764306757" lon="10.354845838851565"><ele>2.142857142857143</ele><time>2026-04-05T09:53:02.999Z</time></trkpt><trkpt lat="43.75472838224823" lon="10.354789571194374"><ele>1.857142857142857</ele><time>2026-04-05T09:53:03.999Z</time></trkpt><trkpt lat="43.75478256313066" lon="10.354734328384614"><ele>1.5714285714285712</ele><time>2026-04-05T09:53:04.999Z</time></trkpt><trkpt lat="43.754834708341996" lon="10.354675920237401"><ele>1.2857142857142856</ele><time>2026-04-05T09:53:05.999Z</time></trkpt><trkpt lat="43.75488529027632" lon="10.354619261558728"><ele>1.0</ele><time>2026-04-05T09:53:06.998Z</time></trkpt><trkpt lat="43.7549387482611" lon="10.35456297034613"><ele>1.0</ele><time>2026-04-05T09:53:07.998Z</time></trkpt><trkpt lat="43.75499054819924" lon="10.354505008807989"><ele>0.9999999999999999</ele><time>2026-04-05T09:53:08.998Z</time></trkpt><trkpt lat="43.75504314923075" lon="10.354442756024616"><ele>1.0</ele><time>2026-04-05T09:53:09.998Z</time></trkpt><trkpt lat="43.75509291311891" lon="10.354380904782042"><ele>1.0</ele><time>2026-04-05T09:53:10.998Z</time></trkpt><trkpt lat="43.75515122839158" lon="10.354324932745753"><ele>0.9999999999999999</ele><time>2026-04-05T09:53:11.998Z</time></trkpt><trkpt lat="43.75520220990915" lon="10.354268081440662"><ele>1.0</ele><time>2026-04-05T09:53:12.998Z</time></trkpt><trkpt lat="43.75525730607178" lon="10.354210615723668"><ele>1.0</ele><time>2026-04-05T09:53:13.998Z</time></trkpt><trkpt lat="43.75531062883868" lon="10.35415635983662"><ele>1.0</ele><time>2026-04-05T09:53:14.998Z</time></trkpt><trkpt lat="43.75536631046666" lon="10.35409180241271"><ele>0.9999999999999999</ele><time>2026-04-05T09:53:15.998Z</time></trkpt><trkpt lat="43.75541934735106" lon="10.35403550332874"><ele>1.0</ele><time>2026-04-05T09:53:16.998Z</time></trkpt><trkpt lat="43.75547210213869" lon="10.353974768841919"><ele>1.0</ele><time>2026-04-05T09:53:18Z</time></trkpt><trkpt lat="43.75552842971212" lon="10.353920807571127"><ele>0.9999999999999999</ele><time>2026-04-05T09:53:19Z</time></trkpt><trkpt lat="43.75558156921671" lon="10.353860887920058"><ele>1.0</ele><time>2026-04-05T09:53:20Z</time></trkpt><trkpt lat="43.755635095749234" lon="10.353802206144332"><ele>1.0</ele><time>2026-04-05T09:53:21Z</time></trkpt><trkpt lat="43.75568836002971" lon="10.35374457886572"><ele>0.9999999999999999</ele><time>2026-04-05T09:53:22Z</time></trkpt><trkpt lat="43.755741021315735" lon="10.353685761648359"><ele>1.0</ele><time>2026-04-05T09:53:23Z</time></trkpt><trkpt lat="43.75579177106205" lon="10.353629450460561"><ele>1.0</ele><time>2026-04-05T09:53:24Z</time></trkpt><trkpt lat="43.7558462469805" lon="10.35356787115845"><ele>1.0</ele><time>2026-04-05T09:53:25Z</time></trkpt><trkpt lat="43.755899824053465" lon="10.353507185814692"><ele>0.9999999999999999</ele><time>2026-04-05T09:53:26Z</time></trkpt><trkpt lat="43.75595713459814" lon="10.353446406052859"><ele>1.0</ele><time>2026-04-05T09:53:27Z</time></trkpt><trkpt lat="43.75604856976935" lon="10.353337065782544"><ele>0.8333333333333333</ele><time>2026-04-05T09:53:29Z</time></trkpt><trkpt lat="43.75610387749538" lon="10.353283635265333"><ele>0.6666666666666666</ele><time>2026-04-05T09:53:30Z</time></trkpt><trkpt lat="43.75615615480388" lon="10.353228156487077"><ele>0.5</ele><time>2026-04-05T09:53:31Z</time></trkpt><trkpt lat="43.75620746016135" lon="10.353168466210292"><ele>0.3333333333333333</ele><time>2026-04-05T09:53:32Z</time></trkpt><trkpt lat="43.756261546484374" lon="10.353114114334135"><ele>0.16666666666666666</ele><time>2026-04-05T09:53:33Z</time></trkpt><trkpt lat="43.75631598698245" lon="10.35305788696352"><ele>0.0</ele><time>2026-04-05T09:53:34Z</time></trkpt><trkpt lat="43.756408057389955" lon="10.352953415330786"><ele>0.0</ele><time>2026-04-05T09:53:36Z</time></trkpt><trkpt lat="43.75650576337136" lon="10.352845330508647"><ele>0.0</ele><time>2026-04-05T09:53:38Z</time></trkpt><trkpt lat="43.75659906693134" lon="10.352739954795927"><ele>0.0</ele><time>2026-04-05T09:53:40Z</time></trkpt><trkpt lat="43.75669429790775" lon="10.352636333287052"><ele>0.0</ele><time>2026-04-05T09:53:42Z</time></trkpt><trkpt lat="43.756787013563304" lon="10.352535051709411"><ele>0.0</ele><time>2026-04-05T09:53:44Z</time></trkpt><trkpt lat="43.756880299378686" lon="10.352427393599518"><ele>0.0</ele><time>2026-04-05T09:53:46Z</time></trkpt><trkpt lat="43.75697502843099" lon="10.352327317410959"><ele>0.0</ele><time>2026-04-05T09:53:48Z</time></trkpt><trkpt lat="43.75706933993449" lon="10.352222777894983"><ele>0.0</ele><time>2026-04-05T09:53:50Z</time></trkpt><trkpt lat="43.75716620224712" lon="10.35212149659403"><ele>0.0</ele><time>2026-04-05T09:53:52Z</time></trkpt><trkpt lat="43.75726000329024" lon="10.352017700936043"><ele>0.0</ele><time>2026-04-05T09:53:54Z</time></trkpt><trkpt lat="43.75735601738232" lon="10.351911692404544"><ele>0.0</ele><time>2026-04-05T09:53:56Z</time></trkpt><trkpt lat="43.75745010912797" lon="10.351803436347197"><ele>0.0</ele><time>2026-04-05T09:53:58Z</time></trkpt><trkpt lat="43.75754704067579" lon="10.35169720192148"><ele>0.0</ele><time>2026-04-05T09:54:00Z</time></trkpt><trkpt lat="43.75764173453514" lon="10.351597674494952"><ele>0.0</ele><time>2026-04-05T09:54:02Z</time></trkpt><trkpt lat="43.75773610391" lon="10.351494202698493"><ele>0.0</ele><time>2026-04-05T09:54:04Z</time></trkpt><trkpt lat="43.757829978151385" lon="10.351392268153006"><ele>0.0</ele><time>2026-04-05T09:54:06Z</time></trkpt><trkpt lat="43.75792262966967" lon="10.351290041230687"><ele>0.5</ele><time>2026-04-05T09:54:08Z</time></trkpt><trkpt lat="43.758016113147356" lon="10.351188185519762"><ele>1.0</ele><time>2026-04-05T09:54:10Z</time></trkpt><trkpt lat="43.75810686452985" lon="10.351087735658789"><ele>1.5</ele><time>2026-04-05T09:54:11.999Z</time></trkpt><trkpt lat="43.75819773864739" lon="10.350986652792031"><ele>2.0</ele><time>2026-04-05T09:54:13.999Z</time></trkpt><trkpt lat="43.758289760125166" lon="10.35088858395587"><ele>2.0</ele><time>2026-04-05T09:54:15.999Z</time></trkpt><trkpt lat="43.75837841048016" lon="10.35079003434716"><ele>2.0</ele><time>2026-04-05T09:54:17.999Z</time></trkpt><trkpt lat="43.75846678114355" lon="10.350694038967493"><ele>2.0</ele><time>2026-04-05T09:54:19.999Z</time></trkpt><trkpt lat="43.75855670047057" lon="10.350602223730345"><ele>2.0</ele><time>2026-04-05T09:54:21.999Z</time></trkpt><trkpt lat="43.7586432646364" lon="10.35050374016487"><ele>1.8</ele><time>2026-04-05T09:54:23.999Z</time></trkpt><trkpt lat="43.758729094771354" lon="10.35041015070437"><ele>1.6</ele><time>2026-04-05T09:54:25.999Z</time></trkpt><trkpt lat="43.758814042867265" lon="10.350316555046577"><ele>1.4000000000000001</ele><time>2026-04-05T09:54:27.999Z</time></trkpt><trkpt lat="43.758899729170665" lon="10.350224145965036"><ele>1.2000000000000002</ele><time>2026-04-05T09:54:29.999Z</time></trkpt><trkpt lat="43.75898614291905" lon="10.350133592368763"><ele>1.0</ele><time>2026-04-05T09:54:31.999Z</time></trkpt><trkpt lat="43.75907604584413" lon="10.350042171922784"><ele>1.0</ele><time>2026-04-05T09:54:33.999Z</time></trkpt><trkpt lat="43.75916091117246" lon="10.349944998861632"><ele>1.0</ele><time>2026-04-05T09:54:35.999Z</time></trkpt><trkpt lat="43.75924880678374" lon="10.349846893227621"><ele>1.0</ele><time>2026-04-05T09:54:37.999Z</time></trkpt><trkpt lat="43.75933890610219" lon="10.349747921355762"><ele>1.0</ele><time>2026-04-05T09:54:39.999Z</time></trkpt><trkpt lat="43.75942973754977" lon="10.349649601849933"><ele>1.25</ele><time>2026-04-05T09:54:41.999Z</time></trkpt><trkpt lat="43.75952226821579" lon="10.34954665043565"><ele>1.5</ele><time>2026-04-05T09:54:43.999Z</time></trkpt><trkpt lat="43.75961500427853" lon="10.34944556423903"><ele>1.75</ele><time>2026-04-05T09:54:45.999Z</time></trkpt><trkpt lat="43.75970633788258" lon="10.349344037699165"><ele>2.0</ele><time>2026-04-05T09:54:47.999Z</time></trkpt><trkpt lat="43.759797248572575" lon="10.349245633547111"><ele>2.0</ele><time>2026-04-05T09:54:49.999Z</time></trkpt><trkpt lat="43.75988685067764" lon="10.349147028678543"><ele>2.0</ele><time>2026-04-05T09:54:51.999Z</time></trkpt><trkpt lat="43.759975496925556" lon="10.349049383020855"><ele>2.0</ele><time>2026-04-05T09:54:53.999Z</time></trkpt><trkpt lat="43.760063013386635" lon="10.34895327911636"><ele>2.0</ele><time>2026-04-05T09:54:55.999Z</time></trkpt><trkpt lat="43.76015016450414" lon="10.34885538151194"><ele>2.0</ele><time>2026-04-05T09:54:57.999Z</time></trkpt><trkpt lat="43.760239202174965" lon="10.348760574891697"><ele>2.0</ele><time>2026-04-05T09:54:59.999Z</time></trkpt><trkpt lat="43.76032312279927" lon="10.34866510318722"><ele>2.0</ele><time>2026-04-05T09:55:01.999Z</time></trkpt><trkpt lat="43.76041026707147" lon="10.348568716639885"><ele>2.0</ele><time>2026-04-05T09:55:03.999Z</time></trkpt><trkpt lat="43.760500234728276" lon="10.34846817910255"><ele>2.0</ele><time>2026-04-05T09:55:05.999Z</time></trkpt><trkpt lat="43.76059342314109" lon="10.348367893873379"><ele>2.0</ele><time>2026-04-05T09:55:07.999Z</time></trkpt><trkpt lat="43.760685093899966" lon="10.348265595545827"><ele>2.0</ele><time>2026-04-05T09:55:09.999Z</time></trkpt><trkpt lat="43.76077684703176" lon="10.34816663849395"><ele>2.0</ele><time>2026-04-05T09:55:11.999Z</time></trkpt><trkpt lat="43.76087171515353" lon="10.348065695719487"><ele>2.0</ele><time>2026-04-05T09:55:13.999Z</time></trkpt><trkpt lat="43.760965145893344" lon="10.347964948927933"><ele>1.75</ele><time>2026-04-05T09:55:15.999Z</time></trkpt><trkpt lat="43.76105757439146" lon="10.347863831401146"><ele>1.5</ele><time>2026-04-05T09:55:17.999Z</time></trkpt><trkpt lat="43.76115130065624" lon="10.347760724676053"><ele>1.25</ele><time>2026-04-05T09:55:19.998Z</time></trkpt><trkpt lat="43.76124576446399" lon="10.347656498148023"><ele>1.0</ele><time>2026-04-05T09:55:21.998Z</time></trkpt><trkpt lat="43.76134141621607" lon="10.347554037172905"><ele>1.0</ele><time>2026-04-05T09:55:24Z</time></trkpt><trkpt lat="43.76143626428946" lon="10.34745039431228"><ele>1.0</ele><time>2026-04-05T09:55:26Z</time></trkpt><trkpt lat="43.761527860642246" lon="10.347346946233499"><ele>1.0</ele><time>2026-04-05T09:55:28Z</time></trkpt><trkpt lat="43.76161773485606" lon="10.34724642086737"><ele>1.0</ele><time>2026-04-05T09:55:30Z</time></trkpt><trkpt lat="43.76170254186592" lon="10.34714323862857"><ele>1.0</ele><time>2026-04-05T09:55:32Z</time></trkpt><trkpt lat="43.761783201969514" lon="10.34704270406992"><ele>1.0</ele><time>2026-04-05T09:55:34Z</time></trkpt><trkpt lat="43.76185641019111" lon="10.346949182902385"><ele>1.0</ele><time>2026-04-05T09:55:36Z</time></trkpt><trkpt lat="43.76192215704511" lon="10.346857596787912"><ele>1.0</ele><time>2026-04-05T09:55:38Z</time></trkpt><trkpt lat="43.76198269636873" lon="10.346766866604105"><ele>1.0</ele><time>2026-04-05T09:55:40Z</time></trkpt><trkpt lat="43.76204197476836" lon="10.34667596511005"><ele>0.9999999999999999</ele><time>2026-04-05T09:55:42Z</time></trkpt><trkpt lat="43.76209659820001" lon="10.346581853054246"><ele>1.0</ele><time>2026-04-05T09:55:44Z</time></trkpt><trkpt lat="43.76215233373106" lon="10.34648924720625"><ele>1.0</ele><time>2026-04-05T09:55:46Z</time></trkpt><trkpt lat="43.76220556417898" lon="10.346396360809209"><ele>1.0</ele><time>2026-04-05T09:55:48Z</time></trkpt><trkpt lat="43.76226022616283" lon="10.346304652906442"><ele>0.9999999999999999</ele><time>2026-04-05T09:55:50Z</time></trkpt><trkpt lat="43.7623123010198" lon="10.346213229711529"><ele>1.0</ele><time>2026-04-05T09:55:52Z</time></trkpt><trkpt lat="43.76236496223088" lon="10.346122664806943"><ele>1.3333333333333333</ele><time>2026-04-05T09:55:54Z</time></trkpt><trkpt lat="43.76241621382869" lon="10.346032721664407"><ele>1.6666666666666665</ele><time>2026-04-05T09:55:56Z</time></trkpt><trkpt lat="43.762466125878476" lon="10.345941221205788"><ele>2.0</ele><time>2026-04-05T09:55:58Z</time></trkpt><trkpt lat="43.76251990844549" lon="10.345852079800924"><ele>2.3333333333333335</ele><time>2026-04-05T09:56:00Z</time></trkpt><trkpt lat="43.762568877548304" lon="10.345765001457691"><ele>2.6666666666666665</ele><time>2026-04-05T09:56:02Z</time></trkpt><trkpt lat="43.76261904263287" lon="10.345674583493023"><ele>3.0</ele><time>2026-04-05T09:56:04Z</time></trkpt><trkpt lat="43.76266919928777" lon="10.345587576867887"><ele>3.3333333333333335</ele><time>2026-04-05T09:56:06Z</time></trkpt><trkpt lat="43.7627222692365" lon="10.345500136575978"><ele>3.666666666666667</ele><time>2026-04-05T09:56:08Z</time></trkpt><trkpt lat="43.762774733070046" lon="10.345410094775149"><ele>4.0</ele><time>2026-04-05T09:56:10Z</time></trkpt><trkpt lat="43.76282957938572" lon="10.345318435637745"><ele>4.333333333333334</ele><time>2026-04-05T09:56:12Z</time></trkpt><trkpt lat="43.7628796812576" lon="10.345223640207841"><ele>4.666666666666667</ele><time>2026-04-05T09:56:13.999Z</time></trkpt><trkpt lat="43.762935769972636" lon="10.345130134741877"><ele>5.0</ele><time>2026-04-05T09:56:15.999Z</time></trkpt><trkpt lat="43.762992177019555" lon="10.345032888529953"><ele>5.0</ele><time>2026-04-05T09:56:17.999Z</time></trkpt><trkpt lat="43.76304647651655" lon="10.344935596024678"><ele>5.0</ele><time>2026-04-05T09:56:19.999Z</time></trkpt><trkpt lat="43.76309913459569" lon="10.344840576848302"><ele>5.0</ele><time>2026-04-05T09:56:21.999Z</time></trkpt><trkpt lat="43.763153148249394" lon="10.344747897656944"><ele>5.0</ele><time>2026-04-05T09:56:23.999Z</time></trkpt><trkpt lat="43.763209265540034" lon="10.344655286527004"><ele>5.0</ele><time>2026-04-05T09:56:25.999Z</time></trkpt><trkpt lat="43.76326356366894" lon="10.344555708263425"><ele>5.0</ele><time>2026-04-05T09:56:27.999Z</time></trkpt><trkpt lat="43.76332015467637" lon="10.344458174467842"><ele>5.0</ele><time>2026-04-05T09:56:29.999Z</time></trkpt><trkpt lat="43.7633747518986" lon="10.344362255813575"><ele>5.0</ele><time>2026-04-05T09:56:31.999Z</time></trkpt><trkpt lat="43.763430481271214" lon="10.344264150046223"><ele>5.0</ele><time>2026-04-05T09:56:33.999Z</time></trkpt><trkpt lat="43.76348560233812" lon="10.344165390163248"><ele>5.0</ele><time>2026-04-05T09:56:35.999Z</time></trkpt><trkpt lat="43.76354140228894" lon="10.344069777140533"><ele>5.0</ele><time>2026-04-05T09:56:37.999Z</time></trkpt><trkpt lat="43.76359798923693" lon="10.343973902230502"><ele>5.0</ele><time>2026-04-05T09:56:39.999Z</time></trkpt><trkpt lat="43.763653508110394" lon="10.343874156571323"><ele>4.666666666666667</ele><time>2026-04-05T09:56:41.999Z</time></trkpt><trkpt lat="43.76370438154519" lon="10.343780631318241"><ele>4.333333333333334</ele><time>2026-04-05T09:56:43.999Z</time></trkpt><trkpt lat="43.76375940802827" lon="10.34369588475241"><ele>4.0</ele><time>2026-04-05T09:56:45.999Z</time></trkpt><trkpt lat="43.76381092424461" lon="10.343602894512582"><ele>3.666666666666667</ele><time>2026-04-05T09:56:47.999Z</time></trkpt><trkpt lat="43.76386505530554" lon="10.343506689539863"><ele>3.3333333333333335</ele><time>2026-04-05T09:56:49.999Z</time></trkpt><trkpt lat="43.76392170162685" lon="10.343407097942023"><ele>3.0</ele><time>2026-04-05T09:56:51.999Z</time></trkpt><trkpt lat="43.763978429878094" lon="10.343308268728814"><ele>3.0</ele><time>2026-04-05T09:56:53.999Z</time></trkpt><trkpt lat="43.76403244853534" lon="10.343209733174117"><ele>3.0</ele><time>2026-04-05T09:56:55.999Z</time></trkpt><trkpt lat="43.76409519224318" lon="10.34310249264705"><ele>3.0</ele><time>2026-04-05T09:56:57.999Z</time></trkpt><trkpt lat="43.764153537461766" lon="10.34300003010353"><ele>3.0</ele><time>2026-04-05T09:56:59.999Z</time></trkpt><trkpt lat="43.764209439009335" lon="10.34290327643347"><ele>3.0</ele><time>2026-04-05T09:57:01.999Z</time></trkpt><trkpt lat="43.76427062693581" lon="10.34279952920467"><ele>3.25</ele><time>2026-04-05T09:57:03.999Z</time></trkpt><trkpt lat="43.764334729898415" lon="10.3426845122594"><ele>3.5</ele><time>2026-04-05T09:57:05.999Z</time></trkpt><trkpt lat="43.764405970688124" lon="10.342564831479834"><ele>3.75</ele><time>2026-04-05T09:57:07.999Z</time></trkpt><trkpt lat="43.764482471415945" lon="10.342440569236507"><ele>4.0</ele><time>2026-04-05T09:57:09.999Z</time></trkpt><trkpt lat="43.76456087262791" lon="10.342307275642497"><ele>4.0</ele><time>2026-04-05T09:57:11.999Z</time></trkpt><trkpt lat="43.764637735913794" lon="10.342185080573291"><ele>4.0</ele><time>2026-04-05T09:57:13.999Z</time></trkpt><trkpt lat="43.76471202696919" lon="10.342054393700451"><ele>4.0</ele><time>2026-04-05T09:57:15.999Z</time></trkpt><trkpt lat="43.76479296097579" lon="10.341924604047401"><ele>4.0</ele><time>2026-04-05T09:57:17.999Z</time></trkpt><trkpt lat="43.76486919830454" lon="10.341801697502747"><ele>4.0</ele><time>2026-04-05T09:57:19.998Z</time></trkpt><trkpt lat="43.764924824929395" lon="10.341711022797547"><ele>3.9999999999999996</ele><time>2026-04-05T09:57:21.998Z</time></trkpt><trkpt lat="43.76496997133545" lon="10.341648254195421"><ele>4.0</ele><time>2026-04-05T09:57:23.998Z</time></trkpt><trkpt lat="43.765018165052744" lon="10.341585782592793"><ele>4.0</ele><time>2026-04-05T09:57:30Z</time></trkpt><trkpt lat="43.76506609167687" lon="10.341521729565603"><ele>3.9999999999999996</ele><time>2026-04-05T09:57:38Z</time></trkpt><trkpt lat="43.76511179357951" lon="10.341447213166779"><ele>4.0</ele><time>2026-04-05T09:57:40Z</time></trkpt><trkpt lat="43.76516657447667" lon="10.341355924645324"><ele>4.0</ele><time>2026-04-05T09:57:42Z</time></trkpt><trkpt lat="43.765227419260135" lon="10.341256975357199"><ele>3.6</ele><time>2026-04-05T09:57:44Z</time></trkpt><trkpt lat="43.765301073898165" lon="10.341158146221952"><ele>3.2</ele><time>2026-04-05T09:57:46Z</time></trkpt><trkpt lat="43.76538260072881" lon="10.341065126013174"><ele>2.8000000000000003</ele><time>2026-04-05T09:57:48Z</time></trkpt><trkpt lat="43.765469630902075" lon="10.340966223748321"><ele>2.4000000000000004</ele><time>2026-04-05T09:57:50Z</time></trkpt><trkpt lat="43.76556118645153" lon="10.340866601799956"><ele>2.0</ele><time>2026-04-05T09:57:52Z</time></trkpt><trkpt lat="43.76565123919533" lon="10.3407636579693"><ele>2.0</ele><time>2026-04-05T09:57:54Z</time></trkpt><trkpt lat="43.76574667248769" lon="10.340669066476963"><ele>2.0</ele><time>2026-04-05T09:57:56Z</time></trkpt><trkpt lat="43.76584216317938" lon="10.340573194859088"><ele>2.0</ele><time>2026-04-05T09:57:58Z</time></trkpt><trkpt lat="43.76593977088328" lon="10.340481270645867"><ele>2.0</ele><time>2026-04-05T09:58:00Z</time></trkpt><trkpt lat="43.766039832151925" lon="10.340394396009465"><ele>1.75</ele><time>2026-04-05T09:58:02Z</time></trkpt><trkpt lat="43.766140184715496" lon="10.340306933332238"><ele>1.5</ele><time>2026-04-05T09:58:04Z</time></trkpt><trkpt lat="43.766240076932036" lon="10.340218849428666"><ele>1.25</ele><time>2026-04-05T09:58:06Z</time></trkpt><trkpt lat="43.7663364013631" lon="10.340136273531552"><ele>1.0</ele><time>2026-04-05T09:58:08Z</time></trkpt><trkpt lat="43.7664391862978" lon="10.340058809472454"><ele>1.0</ele><time>2026-04-05T09:58:10Z</time></trkpt><trkpt lat="43.766541714188826" lon="10.33997270344299"><ele>1.0</ele><time>2026-04-05T09:58:12Z</time></trkpt><trkpt lat="43.766643270377244" lon="10.339885691367474"><ele>1.0</ele><time>2026-04-05T09:58:14Z</time></trkpt><trkpt lat="43.7667456188479" lon="10.339802797332165"><ele>1.0</ele><time>2026-04-05T09:58:16Z</time></trkpt><trkpt lat="43.76684676468737" lon="10.3397203705473"><ele>1.0</ele><time>2026-04-05T09:58:18Z</time></trkpt><trkpt lat="43.76695128126356" lon="10.339639441724373"><ele>1.0</ele><time>2026-04-05T09:58:19.999Z</time></trkpt><trkpt lat="43.76705474213176" lon="10.339553735499178"><ele>1.0</ele><time>2026-04-05T09:58:21.999Z</time></trkpt><trkpt lat="43.767162195467535" lon="10.339468876583085"><ele>1.0</ele><time>2026-04-05T09:58:23.999Z</time></trkpt><trkpt lat="43.76726616123773" lon="10.339385922588741"><ele>1.0</ele><time>2026-04-05T09:58:25.999Z</time></trkpt><trkpt lat="43.76736884774851" lon="10.339305545754375"><ele>1.0</ele><time>2026-04-05T09:58:27.999Z</time></trkpt><trkpt lat="43.7674713812918" lon="10.339221673864788"><ele>1.0</ele><time>2026-04-05T09:58:29.999Z</time></trkpt><trkpt lat="43.76757708446238" lon="10.339144086346534"><ele>1.0</ele><time>2026-04-05T09:58:31.999Z</time></trkpt><trkpt lat="43.76768274302654" lon="10.339074465674539"><ele>1.0</ele><time>2026-04-05T09:58:33.999Z</time></trkpt><trkpt lat="43.767791811776384" lon="10.339010321886818"><ele>1.0</ele><time>2026-04-05T09:58:35.999Z</time></trkpt><trkpt lat="43.76790121535458" lon="10.338933259342932"><ele>1.0</ele><time>2026-04-05T09:58:37.999Z</time></trkpt><trkpt lat="43.76795875754104" lon="10.338895098570445"><ele>1.0</ele><time>2026-04-05T09:58:38.999Z</time></trkpt><trkpt lat="43.768068104354974" lon="10.338810970745202"><ele>1.0</ele><time>2026-04-05T09:58:40.999Z</time></trkpt><trkpt lat="43.76817898047355" lon="10.338727151029977"><ele>1.0</ele><time>2026-04-05T09:58:42.999Z</time></trkpt><trkpt lat="43.76828673205955" lon="10.338637894536776"><ele>0.9999999999999999</ele><time>2026-04-05T09:58:44.999Z</time></trkpt><trkpt lat="43.76834057288715" lon="10.338592293780968"><ele>1.0</ele><time>2026-04-05T09:58:45.999Z</time></trkpt><trkpt lat="43.768395854188654" lon="10.338547911815184"><ele>1.0</ele><time>2026-04-05T09:58:46.999Z</time></trkpt><trkpt lat="43.76844903184318" lon="10.338500326990902"><ele>0.9999999999999999</ele><time>2026-04-05T09:58:47.999Z</time></trkpt><trkpt lat="43.768503219663245" lon="10.338451970575411"><ele>1.0</ele><time>2026-04-05T09:58:48.999Z</time></trkpt><trkpt lat="43.7685583317743" lon="10.338403959764156"><ele>1.0</ele><time>2026-04-05T09:58:49.999Z</time></trkpt><trkpt lat="43.768615017543894" lon="10.338358533732347"><ele>0.8571428571428571</ele><time>2026-04-05T09:58:50.999Z</time></trkpt><trkpt lat="43.76867414834562" lon="10.338315577927418"><ele>0.7142857142857142</ele><time>2026-04-05T09:58:51.999Z</time></trkpt><trkpt lat="43.768732570237226" lon="10.33827046795545"><ele>0.5714285714285714</ele><time>2026-04-05T09:58:52.999Z</time></trkpt><trkpt lat="43.76878996874356" lon="10.338225753040069"><ele>0.42857142857142855</ele><time>2026-04-05T09:58:53.999Z</time></trkpt><trkpt lat="43.768846881153536" lon="10.338178000792325"><ele>0.2857142857142857</ele><time>2026-04-05T09:58:54.999Z</time></trkpt><trkpt lat="43.76890388938147" lon="10.338129220831474"><ele>0.14285714285714285</ele><time>2026-04-05T09:58:55.999Z</time></trkpt><trkpt lat="43.768960103040314" lon="10.338078407834228"><ele>0.0</ele><time>2026-04-05T09:58:56.999Z</time></trkpt><trkpt lat="43.76901572502101" lon="10.338032605821258"><ele>0.0</ele><time>2026-04-05T09:58:57.999Z</time></trkpt><trkpt lat="43.769070705911766" lon="10.33798804115006"><ele>0.0</ele><time>2026-04-05T09:58:58.999Z</time></trkpt><trkpt lat="43.769175062784115" lon="10.337899768235829"><ele>0.0</ele><time>2026-04-05T09:59:00.999Z</time></trkpt><trkpt lat="43.76926455041186" lon="10.337833941721113"><ele>0.0</ele><time>2026-04-05T09:59:02.999Z</time></trkpt><trkpt lat="43.76930758963154" lon="10.337755097990252"><ele>0.0</ele><time>2026-04-05T10:02:04Z</time></trkpt><trkpt lat="43.76937246975468" lon="10.337697904070556"><ele>0.0</ele><time>2026-04-05T10:02:07Z</time></trkpt><trkpt lat="43.76941906887648" lon="10.337625009150583"><ele>0.0</ele><time>2026-04-05T10:02:09Z</time></trkpt><trkpt lat="43.76936094451147" lon="10.337684796492194"><ele>0.0</ele><time>2026-04-05T10:02:12Z</time></trkpt><trkpt lat="43.7692623347834" lon="10.337606662534167"><ele>0.0</ele><time>2026-04-05T10:02:13Z</time></trkpt><trkpt lat="43.7691785893973" lon="10.337674491830887"><ele>0.0</ele><time>2026-04-05T10:02:15Z</time></trkpt><trkpt lat="43.76909136944889" lon="10.337748693170383"><ele>0.0</ele><time>2026-04-05T10:02:17Z</time></trkpt><trkpt lat="43.768999632914756" lon="10.337821420371641"><ele>0.0</ele><time>2026-04-05T10:02:19Z</time></trkpt><trkpt lat="43.768902558841035" lon="10.337906507756161"><ele>0.0</ele><time>2026-04-05T10:02:21Z</time></trkpt><trkpt lat="43.768802744980555" lon="10.337997047570761"><ele>0.0</ele><time>2026-04-05T10:02:23Z</time></trkpt><trkpt lat="43.76870741739843" lon="10.338083735570917"><ele>0.0</ele><time>2026-04-05T10:02:25Z</time></trkpt><trkpt lat="43.76860443124711" lon="10.338137146009371"><ele>0.0</ele><time>2026-04-05T10:02:27Z</time></trkpt><trkpt lat="43.76849599729258" lon="10.338047956522788"><ele>0.0</ele><time>2026-04-05T10:02:29Z</time></trkpt><trkpt lat="43.768457549782205" lon="10.337959209057157"><ele>0.0</ele><time>2026-04-05T10:02:30Z</time></trkpt><trkpt lat="43.76841270802482" lon="10.337865798289144"><ele>0.0</ele><time>2026-04-05T10:02:31Z</time></trkpt><trkpt lat="43.76838506787399" lon="10.337754816475698"><ele>0.0</ele><time>2026-04-05T10:02:32Z</time></trkpt><trkpt lat="43.76830724981495" lon="10.337609385384798"><ele>0.0</ele><time>2026-04-05T10:02:33.999Z</time></trkpt><trkpt lat="43.768271089859994" lon="10.337534044088425"><ele>0.0</ele><time>2026-04-05T10:02:34.999Z</time></trkpt><trkpt lat="43.768240549863194" lon="10.33745753271208"><ele>0.0</ele><time>2026-04-05T10:02:35.999Z</time></trkpt><trkpt lat="43.76821224389304" lon="10.337378875705118"><ele>0.0</ele><time>2026-04-05T10:02:36.999Z</time></trkpt><trkpt lat="43.76819055916316" lon="10.337293267410027"><ele>0.0</ele><time>2026-04-05T10:02:37.999Z</time></trkpt><trkpt lat="43.7681684978663" lon="10.337208156677997"><ele>0.0</ele><time>2026-04-05T10:02:38.999Z</time></trkpt><trkpt lat="43.76814327415288" lon="10.337123735079311"><ele>0.0</ele><time>2026-04-05T10:02:39.999Z</time></trkpt><trkpt lat="43.768124814714376" lon="10.337037171750238"><ele>0.0</ele><time>2026-04-05T10:02:40.999Z</time></trkpt><trkpt lat="43.76811766259804" lon="10.336950055087593"><ele>0.0</ele><time>2026-04-05T10:02:41.999Z</time></trkpt><trkpt lat="43.768110288300754" lon="10.336863426982362"><ele>0.0</ele><time>2026-04-05T10:02:42.999Z</time></trkpt><trkpt lat="43.76810744311404" lon="10.336690732768746"><ele>0.0</ele><time>2026-04-05T10:02:44.999Z</time></trkpt><trkpt lat="43.76811853243252" lon="10.336523611273362"><ele>0.0</ele><time>2026-04-05T10:02:46.999Z</time></trkpt><trkpt lat="43.768147250886315" lon="10.33636581211526"><ele>0.0</ele><time>2026-04-05T10:02:48.999Z</time></trkpt><trkpt lat="43.76817441213326" lon="10.336210070392225"><ele>0.0</ele><time>2026-04-05T10:02:50.999Z</time></trkpt><trkpt lat="43.76820229901109" lon="10.336051628890244"><ele>0.0</ele><time>2026-04-05T10:02:52.999Z</time></trkpt><trkpt lat="43.76822825646543" lon="10.33589671910043"><ele>0.0</ele><time>2026-04-05T10:02:54.999Z</time></trkpt><trkpt lat="43.76824891972254" lon="10.335748789391534"><ele>0.0</ele><time>2026-04-05T10:02:56.999Z</time></trkpt><trkpt lat="43.76827433662117" lon="10.335614857598008"><ele>0.0</ele><time>2026-04-05T10:02:58.999Z</time></trkpt><trkpt lat="43.76829712294623" lon="10.335478985946866"><ele>0.0</ele><time>2026-04-05T10:03:00.999Z</time></trkpt><trkpt lat="43.76831855162424" lon="10.335334975793993"><ele>0.0</ele><time>2026-04-05T10:03:02.999Z</time></trkpt><trkpt lat="43.76834577433931" lon="10.33518730346855"><ele>0.0</ele><time>2026-04-05T10:03:04.999Z</time></trkpt><trkpt lat="43.76837268636649" lon="10.33503760452468"><ele>0.0</ele><time>2026-04-05T10:03:06.999Z</time></trkpt><trkpt lat="43.768398807823786" lon="10.334885783009312"><ele>0.0</ele><time>2026-04-05T10:03:08.999Z</time></trkpt><trkpt lat="43.76842589768963" lon="10.334729151205199"><ele>0.0</ele><time>2026-04-05T10:03:10.999Z</time></trkpt><trkpt lat="43.76845204098252" lon="10.334573763116207"><ele>0.0</ele><time>2026-04-05T10:03:12.999Z</time></trkpt><trkpt lat="43.7684762860243" lon="10.334420886940336"><ele>0.0</ele><time>2026-04-05T10:03:14.999Z</time></trkpt><trkpt lat="43.7684974541946" lon="10.334262767547186"><ele>0.0</ele><time>2026-04-05T10:03:16.999Z</time></trkpt><trkpt lat="43.76850774532328" lon="10.334106035558424"><ele>0.0</ele><time>2026-04-05T10:03:18.999Z</time></trkpt><trkpt lat="43.76851657147894" lon="10.333947363338305"><ele>0.0</ele><time>2026-04-05T10:03:20.999Z</time></trkpt><trkpt lat="43.768518614356005" lon="10.333791093701436"><ele>-0.2</ele><time>2026-04-05T10:03:22.999Z</time></trkpt><trkpt lat="43.76851874941777" lon="10.333638874737792"><ele>-0.4</ele><time>2026-04-05T10:03:24.999Z</time></trkpt><trkpt lat="43.76851953614041" lon="10.333485626216154"><ele>-0.6000000000000001</ele><time>2026-04-05T10:03:26.999Z</time></trkpt><trkpt lat="43.7685186134331" lon="10.33333247854353"><ele>-0.8</ele><time>2026-04-05T10:03:28.999Z</time></trkpt><trkpt lat="43.76851765003896" lon="10.33318181994872"><ele>-1.0</ele><time>2026-04-05T10:03:30.999Z</time></trkpt><trkpt lat="43.76851484027035" lon="10.333029651529122"><ele>-1.2000000000000002</ele><time>2026-04-05T10:03:32.999Z</time></trkpt><trkpt lat="43.76850971100663" lon="10.332879044231845"><ele>-1.4000000000000001</ele><time>2026-04-05T10:03:34.999Z</time></trkpt><trkpt lat="43.76849236407997" lon="10.33272912066727"><ele>-1.6</ele><time>2026-04-05T10:03:36.999Z</time></trkpt><trkpt lat="43.76847295920581" lon="10.332583497967576"><ele>-1.8</ele><time>2026-04-05T10:03:38.998Z</time></trkpt><trkpt lat="43.768450739533115" lon="10.332442601680196"><ele>-2.0</ele><time>2026-04-05T10:03:40.998Z</time></trkpt><trkpt lat="43.76842230098115" lon="10.332303740455457"><ele>-2.0</ele><time>2026-04-05T10:03:42.998Z</time></trkpt><trkpt lat="43.76840281590131" lon="10.332167355689387"><ele>-2.0</ele><time>2026-04-05T10:03:44.998Z</time></trkpt><trkpt lat="43.76837894593576" lon="10.332029533932019"><ele>-2.0</ele><time>2026-04-05T10:03:46.998Z</time></trkpt><trkpt lat="43.76835451048393" lon="10.331890147267261"><ele>-2.0</ele><time>2026-04-05T10:03:49Z</time></trkpt><trkpt lat="43.768329187381696" lon="10.331749969993139"><ele>-2.0</ele><time>2026-04-05T10:03:51Z</time></trkpt><trkpt lat="43.76830661111234" lon="10.331602906855792"><ele>-2.0</ele><time>2026-04-05T10:03:53Z</time></trkpt><trkpt lat="43.76828190084565" lon="10.331461624400212"><ele>-2.0</ele><time>2026-04-05T10:03:55Z</time></trkpt><trkpt lat="43.768258950092516" lon="10.331315594334102"><ele>-2.0</ele><time>2026-04-05T10:03:57Z</time></trkpt><trkpt lat="43.76823127218312" lon="10.331173360333214"><ele>-2.0</ele><time>2026-04-05T10:03:59Z</time></trkpt><trkpt lat="43.768207692780905" lon="10.331027607253924"><ele>-2.0</ele><time>2026-04-05T10:04:01Z</time></trkpt><trkpt lat="43.768183106979755" lon="10.330877668892715"><ele>-1.8</ele><time>2026-04-05T10:04:03Z</time></trkpt><trkpt lat="43.76815480249032" lon="10.330731206302772"><ele>-1.6</ele><time>2026-04-05T10:04:05Z</time></trkpt><trkpt lat="43.7681228667302" lon="10.33058525097332"><ele>-1.4000000000000001</ele><time>2026-04-05T10:04:07Z</time></trkpt><trkpt lat="43.76807994409819" lon="10.33044466142972"><ele>-1.2000000000000002</ele><time>2026-04-05T10:04:09Z</time></trkpt><trkpt lat="43.768021646977004" lon="10.330315110807494"><ele>-1.0</ele><time>2026-04-05T10:04:11Z</time></trkpt><trkpt lat="43.76794652399855" lon="10.330197711891485"><ele>-1.0</ele><time>2026-04-05T10:04:13Z</time></trkpt><trkpt lat="43.76785449428722" lon="10.330101814749424"><ele>-1.0</ele><time>2026-04-05T10:04:15Z</time></trkpt><trkpt lat="43.76774903654728" lon="10.330030692417155"><ele>-1.0</ele><time>2026-04-05T10:04:17Z</time></trkpt><trkpt lat="43.76764342252101" lon="10.329986478035934"><ele>-1.0</ele><time>2026-04-05T10:04:19Z</time></trkpt><trkpt lat="43.76753304336615" lon="10.329956801050852"><ele>-1.0</ele><time>2026-04-05T10:04:21Z</time></trkpt><trkpt lat="43.76742038248621" lon="10.329933588732871"><ele>-1.0</ele><time>2026-04-05T10:04:23Z</time></trkpt><trkpt lat="43.767319283674325" lon="10.329905169040105"><ele>-1.0</ele><time>2026-04-05T10:04:25Z</time></trkpt><trkpt lat="43.767234906978075" lon="10.329817945011627"><ele>-1.0</ele><time>2026-04-05T10:04:27Z</time></trkpt><trkpt lat="43.76716486734232" lon="10.329715775541755"><ele>-1.0</ele><time>2026-04-05T10:04:29Z</time></trkpt><trkpt lat="43.767062600454445" lon="10.329679785302176"><ele>-1.0</ele><time>2026-04-05T10:04:31Z</time></trkpt><trkpt lat="43.7669567236283" lon="10.329713575118461"><ele>-1.0</ele><time>2026-04-05T10:04:33Z</time></trkpt><trkpt lat="43.76689668467467" lon="10.32984654889421"><ele>-1.0</ele><time>2026-04-05T10:04:35Z</time></trkpt><trkpt lat="43.766765561418424" lon="10.32985869110521"><ele>-1.0</ele><time>2026-04-05T10:04:37Z</time></trkpt><trkpt lat="43.766656299350785" lon="10.329830608102943"><ele>-0.6000000000000001</ele><time>2026-04-05T10:04:38.999Z</time></trkpt><trkpt lat="43.76654913000767" lon="10.329802622179757"><ele>-0.20000000000000007</ele><time>2026-04-05T10:04:40.999Z</time></trkpt><trkpt lat="43.76644285585198" lon="10.329783413752804"><ele>0.20000000000000007</ele><time>2026-04-05T10:04:42.999Z</time></trkpt><trkpt lat="43.766335930436476" lon="10.32975948107255"><ele>0.6000000000000001</ele><time>2026-04-05T10:04:44.999Z</time></trkpt><trkpt lat="43.76622887806188" lon="10.32973814956796"><ele>1.0</ele><time>2026-04-05T10:04:46.999Z</time></trkpt><trkpt lat="43.76612242384872" lon="10.329720691032191"><ele>1.0</ele><time>2026-04-05T10:04:48.999Z</time></trkpt><trkpt lat="43.76601191278979" lon="10.329699798070097"><ele>1.0</ele><time>2026-04-05T10:04:50.999Z</time></trkpt><trkpt lat="43.76590131624607" lon="10.329678046467988"><ele>1.0</ele><time>2026-04-05T10:04:52.999Z</time></trkpt><trkpt lat="43.765793915261604" lon="10.329657776817243"><ele>1.0</ele><time>2026-04-05T10:04:54.999Z</time></trkpt><trkpt lat="43.76568376708494" lon="10.329636327603279"><ele>1.0</ele><time>2026-04-05T10:04:56.999Z</time></trkpt><trkpt lat="43.76557043965153" lon="10.329614390863979"><ele>1.0</ele><time>2026-04-05T10:04:58.999Z</time></trkpt><trkpt lat="43.76545684125743" lon="10.329593052646796"><ele>1.0</ele><time>2026-04-05T10:05:00.999Z</time></trkpt><trkpt lat="43.76534122843688" lon="10.329569151973674"><ele>1.0</ele><time>2026-04-05T10:05:02.999Z</time></trkpt><trkpt lat="43.765230525247425" lon="10.329544953446643"><ele>1.0</ele><time>2026-04-05T10:05:04.999Z</time></trkpt><trkpt lat="43.76512198190727" lon="10.329521085206451"><ele>0.4</ele><time>2026-04-05T10:05:06.999Z</time></trkpt><trkpt lat="43.76501165779669" lon="10.32947322533711"><ele>-0.19999999999999996</ele><time>2026-04-05T10:05:08.999Z</time></trkpt><trkpt lat="43.76491326238461" lon="10.329419561333939"><ele>-0.8000000000000002</ele><time>2026-04-05T10:05:10.999Z</time></trkpt><trkpt lat="43.76481846321913" lon="10.329337852200702"><ele>-1.4000000000000001</ele><time>2026-04-05T10:05:12.999Z</time></trkpt><trkpt lat="43.76473635236331" lon="10.329241832464904"><ele>-2.0</ele><time>2026-04-05T10:05:14.999Z</time></trkpt><trkpt lat="43.764658878941034" lon="10.329138058177833"><ele>-2.0</ele><time>2026-04-05T10:05:16.999Z</time></trkpt><trkpt lat="43.76458609923458" lon="10.329017589461783"><ele>-2.0</ele><time>2026-04-05T10:05:18.999Z</time></trkpt><trkpt lat="43.76453269873005" lon="10.328888839010684"><ele>-2.0</ele><time>2026-04-05T10:05:20.999Z</time></trkpt><trkpt lat="43.76448270558987" lon="10.328752817095078"><ele>-2.0</ele><time>2026-04-05T10:05:22.999Z</time></trkpt><trkpt lat="43.76445172133686" lon="10.328607936483804"><ele>-2.0</ele><time>2026-04-05T10:05:24.999Z</time></trkpt><trkpt lat="43.7644329780459" lon="10.32845994378967"><ele>-1.8</ele><time>2026-04-05T10:05:26.999Z</time></trkpt><trkpt lat="43.76443083483306" lon="10.328311734305387"><ele>-1.6</ele><time>2026-04-05T10:05:28.999Z</time></trkpt><trkpt lat="43.76443871038918" lon="10.32815890676329"><ele>-1.4000000000000001</ele><time>2026-04-05T10:05:30.999Z</time></trkpt><trkpt lat="43.764449942768884" lon="10.328011690045965"><ele>-1.2000000000000002</ele><time>2026-04-05T10:05:32.999Z</time></trkpt><trkpt lat="43.764464349389435" lon="10.327861475406662"><ele>-1.0</ele><time>2026-04-05T10:05:34.999Z</time></trkpt><trkpt lat="43.76448099253282" lon="10.327713988230505"><ele>-1.0</ele><time>2026-04-05T10:05:36.999Z</time></trkpt><trkpt lat="43.76449769416159" lon="10.32756363092455"><ele>-1.0</ele><time>2026-04-05T10:05:38.998Z</time></trkpt><trkpt lat="43.764515531349716" lon="10.32741190840514"><ele>-1.0</ele><time>2026-04-05T10:05:40.998Z</time></trkpt><trkpt lat="43.764531066042494" lon="10.327261324219638"><ele>-1.0</ele><time>2026-04-05T10:05:42.998Z</time></trkpt><trkpt lat="43.76454556867814" lon="10.327112343579536"><ele>-1.0</ele><time>2026-04-05T10:05:44.998Z</time></trkpt><trkpt lat="43.76455885684007" lon="10.326963493246726"><ele>-0.8</ele><time>2026-04-05T10:05:46.998Z</time></trkpt><trkpt lat="43.7645730109001" lon="10.326817320497266"><ele>-0.6000000000000001</ele><time>2026-04-05T10:05:48.998Z</time></trkpt><trkpt lat="43.764588596742016" lon="10.326670755488152"><ele>-0.4</ele><time>2026-04-05T10:05:50.998Z</time></trkpt><trkpt lat="43.76460071289315" lon="10.32652672855832"><ele>-0.2</ele><time>2026-04-05T10:05:52.998Z</time></trkpt><trkpt lat="43.764615471540104" lon="10.326380401145084"><ele>0.0</ele><time>2026-04-05T10:05:55Z</time></trkpt><trkpt lat="43.76462724361828" lon="10.326233559296218"><ele>0.0</ele><time>2026-04-05T10:05:57Z</time></trkpt><trkpt lat="43.76464848455746" lon="10.326085604492928"><ele>0.0</ele><time>2026-04-05T10:05:59Z</time></trkpt><trkpt lat="43.76466162314163" lon="10.325933002034635"><ele>0.0</ele><time>2026-04-05T10:06:01Z</time></trkpt><trkpt lat="43.7646789237147" lon="10.325781132833587"><ele>0.0</ele><time>2026-04-05T10:06:03Z</time></trkpt><trkpt lat="43.76469411109672" lon="10.325626125570967"><ele>0.0</ele><time>2026-04-05T10:06:05Z</time></trkpt><trkpt lat="43.76471022742561" lon="10.325477547733223"><ele>0.0</ele><time>2026-04-05T10:06:07Z</time></trkpt><trkpt lat="43.764722995376665" lon="10.325326124511445"><ele>0.0</ele><time>2026-04-05T10:06:09Z</time></trkpt><trkpt lat="43.76473755976627" lon="10.325176299694677"><ele>0.0</ele><time>2026-04-05T10:06:11Z</time></trkpt><trkpt lat="43.76475258332161" lon="10.325027553926008"><ele>0.0</ele><time>2026-04-05T10:06:13Z</time></trkpt><trkpt lat="43.76476482861882" lon="10.324880973469444"><ele>0.0</ele><time>2026-04-05T10:06:15Z</time></trkpt><trkpt lat="43.76478062340195" lon="10.324733933905815"><ele>0.0</ele><time>2026-04-05T10:06:17Z</time></trkpt><trkpt lat="43.764794971714075" lon="10.32459044281768"><ele>0.0</ele><time>2026-04-05T10:06:19Z</time></trkpt><trkpt lat="43.76480957311969" lon="10.324445456073686"><ele>0.0</ele><time>2026-04-05T10:06:21Z</time></trkpt><trkpt lat="43.76482497911065" lon="10.324301358571095"><ele>0.0</ele><time>2026-04-05T10:06:23Z</time></trkpt><trkpt lat="43.76483921923492" lon="10.324148363636551"><ele>0.0</ele><time>2026-04-05T10:06:25Z</time></trkpt><trkpt lat="43.76485685766607" lon="10.323999209782848"><ele>0.0</ele><time>2026-04-05T10:06:27Z</time></trkpt><trkpt lat="43.76487312055513" lon="10.323836010040713"><ele>0.0</ele><time>2026-04-05T10:06:29Z</time></trkpt><trkpt lat="43.76489047741374" lon="10.323679709717544"><ele>0.0</ele><time>2026-04-05T10:06:31Z</time></trkpt><trkpt lat="43.76490723135395" lon="10.323516391918135"><ele>0.0</ele><time>2026-04-05T10:06:33Z</time></trkpt><trkpt lat="43.76492272530883" lon="10.32335527522915"><ele>0.0</ele><time>2026-04-05T10:06:35Z</time></trkpt><trkpt lat="43.764937486102426" lon="10.323194674562378"><ele>0.0</ele><time>2026-04-05T10:06:37Z</time></trkpt><trkpt lat="43.76495068423639" lon="10.323033586308089"><ele>0.0</ele><time>2026-04-05T10:06:39Z</time></trkpt><trkpt lat="43.76497029729887" lon="10.32288478646085"><ele>0.0</ele><time>2026-04-05T10:06:41Z</time></trkpt><trkpt lat="43.76498268518794" lon="10.32273677177993"><ele>0.0</ele><time>2026-04-05T10:06:43Z</time></trkpt><trkpt lat="43.76499540994354" lon="10.32258939024628"><ele>0.0</ele><time>2026-04-05T10:06:45Z</time></trkpt><trkpt lat="43.765011352235035" lon="10.322438496365006"><ele>0.0</ele><time>2026-04-05T10:06:46.999Z</time></trkpt><trkpt lat="43.76502316651315" lon="10.322293642894046"><ele>0.0</ele><time>2026-04-05T10:06:48.999Z</time></trkpt><trkpt lat="43.76503851564351" lon="10.322154436446299"><ele>0.0</ele><time>2026-04-05T10:06:50.999Z</time></trkpt><trkpt lat="43.76505172175714" lon="10.322017522008979"><ele>0.0</ele><time>2026-04-05T10:06:52.999Z</time></trkpt><trkpt lat="43.76506816123903" lon="10.321879661353462"><ele>0.0</ele><time>2026-04-05T10:06:54.999Z</time></trkpt><trkpt lat="43.76507946537526" lon="10.321743660663643"><ele>0.0</ele><time>2026-04-05T10:06:56.999Z</time></trkpt><trkpt lat="43.76509356480018" lon="10.32160627950366"><ele>0.0</ele><time>2026-04-05T10:06:58.999Z</time></trkpt><trkpt lat="43.76510890782135" lon="10.321466191166143"><ele>0.0</ele><time>2026-04-05T10:07:00.999Z</time></trkpt><trkpt lat="43.765121599420134" lon="10.321328016186124"><ele>0.0</ele><time>2026-04-05T10:07:02.999Z</time></trkpt><trkpt lat="43.76513551766506" lon="10.321185897913056"><ele>0.0</ele><time>2026-04-05T10:07:04.999Z</time></trkpt><trkpt lat="43.76514841634591" lon="10.32104044925703"><ele>0.0</ele><time>2026-04-05T10:07:06.999Z</time></trkpt><trkpt lat="43.76516254389907" lon="10.320897005548234"><ele>0.0</ele><time>2026-04-05T10:07:08.999Z</time></trkpt><trkpt lat="43.76517908207893" lon="10.320754951550889"><ele>0.0</ele><time>2026-04-05T10:07:10.999Z</time></trkpt><trkpt lat="43.76519237020382" lon="10.32061235183244"><ele>1.2</ele><time>2026-04-05T10:07:12.999Z</time></trkpt><trkpt lat="43.76520656919797" lon="10.32046724102528"><ele>2.4</ele><time>2026-04-05T10:07:14.999Z</time></trkpt><trkpt lat="43.76522217928322" lon="10.320320014824516"><ele>3.5999999999999996</ele><time>2026-04-05T10:07:16.999Z</time></trkpt><trkpt lat="43.76523589337018" lon="10.320166855868477"><ele>4.8</ele><time>2026-04-05T10:07:18.999Z</time></trkpt><trkpt lat="43.765252113752176" lon="10.320013338254476"><ele>6.0</ele><time>2026-04-05T10:07:20.999Z</time></trkpt><trkpt lat="43.76526626955904" lon="10.319859013286209"><ele>5.75</ele><time>2026-04-05T10:07:22.999Z</time></trkpt><trkpt lat="43.76528168853492" lon="10.319703763449676"><ele>5.5</ele><time>2026-04-05T10:07:24.999Z</time></trkpt><trkpt lat="43.76529999619544" lon="10.319545954595545"><ele>5.25</ele><time>2026-04-05T10:07:26.999Z</time></trkpt><trkpt lat="43.7653140293057" lon="10.319390907480251"><ele>5.0</ele><time>2026-04-05T10:07:28.999Z</time></trkpt><trkpt lat="43.76532977300893" lon="10.319235960865655"><ele>5.0</ele><time>2026-04-05T10:07:30.999Z</time></trkpt><trkpt lat="43.765343195384006" lon="10.319089159893325"><ele>5.0</ele><time>2026-04-05T10:07:32.999Z</time></trkpt><trkpt lat="43.765356482242126" lon="10.318944410951316"><ele>5.0</ele><time>2026-04-05T10:07:34.999Z</time></trkpt><trkpt lat="43.765365217119005" lon="10.318805360029359"><ele>5.0</ele><time>2026-04-05T10:07:36.999Z</time></trkpt><trkpt lat="43.76537110578761" lon="10.318665235447849"><ele>5.0</ele><time>2026-04-05T10:07:38.999Z</time></trkpt><trkpt lat="43.76535586539682" lon="10.31852614175375"><ele>5.0</ele><time>2026-04-05T10:07:40.999Z</time></trkpt><trkpt lat="43.76532966769532" lon="10.318394513883835"><ele>5.0</ele><time>2026-04-05T10:07:42.999Z</time></trkpt><trkpt lat="43.76529672336034" lon="10.318265089480931"><ele>5.0</ele><time>2026-04-05T10:07:44.998Z</time></trkpt><trkpt lat="43.76525362534913" lon="10.318140163153432"><ele>5.0</ele><time>2026-04-05T10:07:46.998Z</time></trkpt><trkpt lat="43.765210150099065" lon="10.318004407268653"><ele>5.0</ele><time>2026-04-05T10:07:48.998Z</time></trkpt><trkpt lat="43.765168947351" lon="10.31787275265384"><ele>4.75</ele><time>2026-04-05T10:07:50.998Z</time></trkpt><trkpt lat="43.76511977870766" lon="10.317727810026739"><ele>4.5</ele><time>2026-04-05T10:07:52.998Z</time></trkpt><trkpt lat="43.76506737916371" lon="10.317588031380922"><ele>4.25</ele><time>2026-04-05T10:07:54.998Z</time></trkpt><trkpt lat="43.76502288530601" lon="10.317442142990208"><ele>4.0</ele><time>2026-04-05T10:07:56.998Z</time></trkpt><trkpt lat="43.76497665836586" lon="10.317295844437304"><ele>4.25</ele><time>2026-04-05T10:07:58.998Z</time></trkpt><trkpt lat="43.76493461991214" lon="10.317143742985046"><ele>4.5</ele><time>2026-04-05T10:08:01Z</time></trkpt><trkpt lat="43.764888794922925" lon="10.316990601033192"><ele>4.75</ele><time>2026-04-05T10:08:03Z</time></trkpt><trkpt lat="43.76484072170319" lon="10.31684646870742"><ele>5.0</ele><time>2026-04-05T10:08:05Z</time></trkpt><trkpt lat="43.764797169672995" lon="10.316689460859246"><ele>5.0</ele><time>2026-04-05T10:08:07Z</time></trkpt><trkpt lat="43.76475286059741" lon="10.316540958253931"><ele>5.0</ele><time>2026-04-05T10:08:09Z</time></trkpt><trkpt lat="43.76470618303352" lon="10.316389425094863"><ele>5.0</ele><time>2026-04-05T10:08:11Z</time></trkpt><trkpt lat="43.76466136968281" lon="10.316239034082173"><ele>5.0</ele><time>2026-04-05T10:08:13Z</time></trkpt><trkpt lat="43.76461912209477" lon="10.316085348924402"><ele>5.0</ele><time>2026-04-05T10:08:15Z</time></trkpt><trkpt lat="43.76456536279087" lon="10.315929729565262"><ele>5.0</ele><time>2026-04-05T10:08:17Z</time></trkpt><trkpt lat="43.764542678807516" lon="10.31584537482776"><ele>5.0</ele><time>2026-04-05T10:08:18Z</time></trkpt><trkpt lat="43.764516438497466" lon="10.315765164337977"><ele>5.0</ele><time>2026-04-05T10:08:19Z</time></trkpt><trkpt lat="43.764494142632216" lon="10.315681464907176"><ele>5.0</ele><time>2026-04-05T10:08:20Z</time></trkpt><trkpt lat="43.7644708588224" lon="10.315598741629081"><ele>5.0</ele><time>2026-04-05T10:08:21Z</time></trkpt><trkpt lat="43.764451478609004" lon="10.315515497421943"><ele>5.0</ele><time>2026-04-05T10:08:22Z</time></trkpt><trkpt lat="43.76442906802894" lon="10.315432732022156"><ele>5.0</ele><time>2026-04-05T10:08:23Z</time></trkpt><trkpt lat="43.76439180481083" lon="10.315266071791166"><ele>5.0</ele><time>2026-04-05T10:08:25Z</time></trkpt><trkpt lat="43.76434259641057" lon="10.315107666502954"><ele>5.0</ele><time>2026-04-05T10:08:27Z</time></trkpt><trkpt lat="43.764310958782" lon="10.31494423875129"><ele>5.0</ele><time>2026-04-05T10:08:29Z</time></trkpt><trkpt lat="43.76427127521858" lon="10.314785367313183"><ele>5.0</ele><time>2026-04-05T10:08:31Z</time></trkpt><trkpt lat="43.76423600720612" lon="10.314633957781508"><ele>5.0</ele><time>2026-04-05T10:08:33Z</time></trkpt><trkpt lat="43.76420350560147" lon="10.314500209273694"><ele>5.0</ele><time>2026-04-05T10:08:35Z</time></trkpt><trkpt lat="43.76419607265162" lon="10.314359169916651"><ele>5.0</ele><time>2026-04-05T10:08:37Z</time></trkpt><trkpt lat="43.76415471687241" lon="10.31422556409733"><ele>5.0</ele><time>2026-04-05T10:08:39Z</time></trkpt><trkpt lat="43.764128258174615" lon="10.314085455537276"><ele>5.0</ele><time>2026-04-05T10:08:41Z</time></trkpt><trkpt lat="43.76409472667461" lon="10.313945956285435"><ele>5.0</ele><time>2026-04-05T10:08:43Z</time></trkpt><trkpt lat="43.76405704876796" lon="10.313806946380549"><ele>5.0</ele><time>2026-04-05T10:08:45Z</time></trkpt><trkpt lat="43.76401316954823" lon="10.313684681137335"><ele>5.0</ele><time>2026-04-05T10:08:47Z</time></trkpt><trkpt lat="43.7639629885911" lon="10.313549348217636"><ele>5.0</ele><time>2026-04-05T10:08:48.999Z</time></trkpt><trkpt lat="43.763907251974175" lon="10.313411881493199"><ele>5.0</ele><time>2026-04-05T10:08:50.999Z</time></trkpt><trkpt lat="43.76385355782232" lon="10.313274479382594"><ele>5.0</ele><time>2026-04-05T10:08:52.999Z</time></trkpt><trkpt lat="43.76379413802791" lon="10.313135353827311"><ele>5.0</ele><time>2026-04-05T10:08:54.999Z</time></trkpt><trkpt lat="43.763738878447164" lon="10.312995703879658"><ele>5.0</ele><time>2026-04-05T10:08:56.999Z</time></trkpt><trkpt lat="43.76369417205647" lon="10.312856458294851"><ele>5.2</ele><time>2026-04-05T10:08:58.999Z</time></trkpt><trkpt lat="43.76365413922371" lon="10.312711808083131"><ele>5.4</ele><time>2026-04-05T10:09:00.999Z</time></trkpt><trkpt lat="43.7636124242255" lon="10.312566520268513"><ele>5.6</ele><time>2026-04-05T10:09:02.999Z</time></trkpt><trkpt lat="43.763574528595505" lon="10.31241862709421"><ele>5.8</ele><time>2026-04-05T10:09:04.999Z</time></trkpt><trkpt lat="43.76354118621723" lon="10.312274076118362"><ele>6.0</ele><time>2026-04-05T10:09:06.999Z</time></trkpt><trkpt lat="43.763505534970655" lon="10.312129789260377"><ele>5.6</ele><time>2026-04-05T10:09:08.999Z</time></trkpt><trkpt lat="43.763469581111146" lon="10.311977558671066"><ele>5.199999999999999</ele><time>2026-04-05T10:09:10.999Z</time></trkpt><trkpt lat="43.76343602872016" lon="10.311838328937164"><ele>4.800000000000001</ele><time>2026-04-05T10:09:12.999Z</time></trkpt><trkpt lat="43.76339980037318" lon="10.311692126354956"><ele>4.4</ele><time>2026-04-05T10:09:14.999Z</time></trkpt><trkpt lat="43.76336261768362" lon="10.311545578751215"><ele>4.0</ele><time>2026-04-05T10:09:16.999Z</time></trkpt><trkpt lat="43.76332620658511" lon="10.311402741700954"><ele>4.0</ele><time>2026-04-05T10:09:18.999Z</time></trkpt><trkpt lat="43.76328911041409" lon="10.311257679797755"><ele>4.0</ele><time>2026-04-05T10:09:20.999Z</time></trkpt><trkpt lat="43.76325651787077" lon="10.311110940941253"><ele>4.0</ele><time>2026-04-05T10:09:22.999Z</time></trkpt><trkpt lat="43.76322815676123" lon="10.310966418350901"><ele>4.0</ele><time>2026-04-05T10:09:24.999Z</time></trkpt><trkpt lat="43.763207872450664" lon="10.310818754473722"><ele>4.0</ele><time>2026-04-05T10:09:26.999Z</time></trkpt><trkpt lat="43.76319140144006" lon="10.310667156266735"><ele>4.4</ele><time>2026-04-05T10:09:28.999Z</time></trkpt><trkpt lat="43.763185649673126" lon="10.310518033363811"><ele>4.800000000000001</ele><time>2026-04-05T10:09:30.999Z</time></trkpt><trkpt lat="43.763175160411215" lon="10.310368634497692"><ele>5.199999999999999</ele><time>2026-04-05T10:09:32.999Z</time></trkpt><trkpt lat="43.76317551850726" lon="10.310218606250467"><ele>5.6</ele><time>2026-04-05T10:09:34.999Z</time></trkpt><trkpt lat="43.76317871599525" lon="10.31006600646203"><ele>6.0</ele><time>2026-04-05T10:09:36.999Z</time></trkpt><trkpt lat="43.763183909217474" lon="10.309911325717701"><ele>6.0</ele><time>2026-04-05T10:09:38.999Z</time></trkpt><trkpt lat="43.763192582660515" lon="10.30975867447733"><ele>6.0</ele><time>2026-04-05T10:09:40.999Z</time></trkpt><trkpt lat="43.763206184104284" lon="10.309604283852098"><ele>6.0</ele><time>2026-04-05T10:09:42.999Z</time></trkpt><trkpt lat="43.76322782888779" lon="10.30945277228577"><ele>6.0</ele><time>2026-04-05T10:09:44.999Z</time></trkpt><trkpt lat="43.763250743348436" lon="10.309306129059424"><ele>6.0</ele><time>2026-04-05T10:09:46.998Z</time></trkpt><trkpt lat="43.76327557842358" lon="10.309161197388251"><ele>6.4</ele><time>2026-04-05T10:09:48.998Z</time></trkpt><trkpt lat="43.76330653085197" lon="10.309015906660667"><ele>6.8</ele><time>2026-04-05T10:09:50.998Z</time></trkpt><trkpt lat="43.763343482212825" lon="10.3088707916497"><ele>7.200000000000001</ele><time>2026-04-05T10:09:52.998Z</time></trkpt><trkpt lat="43.76338183090724" lon="10.30873098102823"><ele>7.6000000000000005</ele><time>2026-04-05T10:09:54.998Z</time></trkpt><trkpt lat="43.76342594175581" lon="10.308593732015819"><ele>8.0</ele><time>2026-04-05T10:09:56.998Z</time></trkpt><trkpt lat="43.76347186474618" lon="10.308454642551967"><ele>8.4</ele><time>2026-04-05T10:09:58.998Z</time></trkpt><trkpt lat="43.763521492593064" lon="10.308319918828893"><ele>8.8</ele><time>2026-04-05T10:10:00.998Z</time></trkpt><trkpt lat="43.76357746879061" lon="10.308191411847739"><ele>9.2</ele><time>2026-04-05T10:10:02.998Z</time></trkpt><trkpt lat="43.763633529909534" lon="10.30805961787727"><ele>9.6</ele><time>2026-04-05T10:10:05Z</time></trkpt><trkpt lat="43.76369664025792" lon="10.307926528085874"><ele>10.0</ele><time>2026-04-05T10:10:07Z</time></trkpt><trkpt lat="43.76376071529668" lon="10.307801340737651"><ele>8.4</ele><time>2026-04-05T10:10:09Z</time></trkpt><trkpt lat="43.763831212830524" lon="10.307683659534815"><ele>6.8</ele><time>2026-04-05T10:10:11Z</time></trkpt><trkpt lat="43.763903715785936" lon="10.30757184831782"><ele>5.2</ele><time>2026-04-05T10:10:13Z</time></trkpt><trkpt lat="43.76397688968789" lon="10.307455113946569"><ele>3.6</ele><time>2026-04-05T10:10:15Z</time></trkpt><trkpt lat="43.76405436057983" lon="10.307347215101581"><ele>2.0</ele><time>2026-04-05T10:10:17Z</time></trkpt><trkpt lat="43.764136464291724" lon="10.307246661239095"><ele>1.4000000000000001</ele><time>2026-04-05T10:10:19Z</time></trkpt><trkpt lat="43.76422012855901" lon="10.307153303778204"><ele>0.8000000000000002</ele><time>2026-04-05T10:10:21Z</time></trkpt><trkpt lat="43.76430667289015" lon="10.307051902354956"><ele>0.19999999999999996</ele><time>2026-04-05T10:10:23Z</time></trkpt><trkpt lat="43.764397007001804" lon="10.306954096543544"><ele>-0.4</ele><time>2026-04-05T10:10:25Z</time></trkpt><trkpt lat="43.76448386290095" lon="10.306863165501671"><ele>-1.0</ele><time>2026-04-05T10:10:27Z</time></trkpt><trkpt lat="43.764572806600384" lon="10.306779859856196"><ele>-1.0</ele><time>2026-04-05T10:10:29Z</time></trkpt><trkpt lat="43.76466377681026" lon="10.30668616936286"><ele>-1.0</ele><time>2026-04-05T10:10:31Z</time></trkpt><trkpt lat="43.76475562540662" lon="10.306596934212223"><ele>-1.0</ele><time>2026-04-05T10:10:33Z</time></trkpt><trkpt lat="43.7648503426538" lon="10.3065061758207"><ele>-1.0</ele><time>2026-04-05T10:10:35Z</time></trkpt><trkpt lat="43.76494615862375" lon="10.30641691978526"><ele>-0.75</ele><time>2026-04-05T10:10:37Z</time></trkpt><trkpt lat="43.76503771624738" lon="10.306330132976676"><ele>-0.5</ele><time>2026-04-05T10:10:39Z</time></trkpt><trkpt lat="43.76512503230473" lon="10.306237883058246"><ele>-0.25</ele><time>2026-04-05T10:10:41Z</time></trkpt><trkpt lat="43.76522369582854" lon="10.306148482388881"><ele>0.0</ele><time>2026-04-05T10:10:43Z</time></trkpt><trkpt lat="43.765317604818684" lon="10.30605516990953"><ele>0.0</ele><time>2026-04-05T10:10:45Z</time></trkpt><trkpt lat="43.765414646076444" lon="10.305966104743018"><ele>0.0</ele><time>2026-04-05T10:10:47Z</time></trkpt><trkpt lat="43.765514610312216" lon="10.30587237751233"><ele>0.0</ele><time>2026-04-05T10:10:49Z</time></trkpt><trkpt lat="43.76561075167423" lon="10.3057783670038"><ele>0.0</ele><time>2026-04-05T10:10:50.999Z</time></trkpt><trkpt lat="43.765706039510285" lon="10.305684012408214"><ele>0.0</ele><time>2026-04-05T10:10:52.999Z</time></trkpt><trkpt lat="43.765799707275505" lon="10.30559819485176"><ele>0.0</ele><time>2026-04-05T10:10:54.999Z</time></trkpt><trkpt lat="43.76588856113431" lon="10.305513949269583"><ele>0.0</ele><time>2026-04-05T10:10:56.999Z</time></trkpt><trkpt lat="43.765976148927535" lon="10.305432752461634"><ele>0.0</ele><time>2026-04-05T10:10:58.999Z</time></trkpt><trkpt lat="43.76606232235847" lon="10.305346305985472"><ele>0.0</ele><time>2026-04-05T10:11:00.999Z</time></trkpt><trkpt lat="43.76615194766598" lon="10.305257066297708"><ele>0.4</ele><time>2026-04-05T10:11:02.999Z</time></trkpt><trkpt lat="43.76624193093818" lon="10.305172254233781"><ele>0.8</ele><time>2026-04-05T10:11:04.999Z</time></trkpt><trkpt lat="43.76632415869121" lon="10.30509008247511"><ele>1.2000000000000002</ele><time>2026-04-05T10:11:06.999Z</time></trkpt><trkpt lat="43.76640789250732" lon="10.305012341869466"><ele>1.6</ele><time>2026-04-05T10:11:08.999Z</time></trkpt><trkpt lat="43.76648874800921" lon="10.304942440936912"><ele>2.0</ele><time>2026-04-05T10:11:10.999Z</time></trkpt><trkpt lat="43.766563242939185" lon="10.30487313097479"><ele>2.0</ele><time>2026-04-05T10:11:12.999Z</time></trkpt><trkpt lat="43.766640335001476" lon="10.304797309350956"><ele>2.0</ele><time>2026-04-05T10:11:14.999Z</time></trkpt><trkpt lat="43.7667182916467" lon="10.304718848705598"><ele>2.0</ele><time>2026-04-05T10:11:16.999Z</time></trkpt><trkpt lat="43.766798705768046" lon="10.304634648688705"><ele>2.0</ele><time>2026-04-05T10:11:18.999Z</time></trkpt><trkpt lat="43.76687317819333" lon="10.304537976693643"><ele>2.0</ele><time>2026-04-05T10:11:20.999Z</time></trkpt><trkpt lat="43.76693589327817" lon="10.304437194491245"><ele>2.2</ele><time>2026-04-05T10:11:22.999Z</time></trkpt><trkpt lat="43.76699458977159" lon="10.304329829020997"><ele>2.4000000000000004</ele><time>2026-04-05T10:11:24.999Z</time></trkpt><trkpt lat="43.76705032186599" lon="10.304218871344187"><ele>2.5999999999999996</ele><time>2026-04-05T10:11:26.999Z</time></trkpt><trkpt lat="43.76710365099242" lon="10.304102169516835"><ele>2.8</ele><time>2026-04-05T10:11:28.999Z</time></trkpt><trkpt lat="43.76715076300202" lon="10.303975046656205"><ele>3.0</ele><time>2026-04-05T10:11:30.999Z</time></trkpt><trkpt lat="43.767195772807895" lon="10.303844106238852"><ele>3.0</ele><time>2026-04-05T10:11:32.999Z</time></trkpt><trkpt lat="43.7672430683601" lon="10.303713560021228"><ele>3.0</ele><time>2026-04-05T10:11:34.999Z</time></trkpt><trkpt lat="43.767284979855056" lon="10.30358230337104"><ele>3.0</ele><time>2026-04-05T10:11:36.999Z</time></trkpt><trkpt lat="43.7673315214093" lon="10.303449487701714"><ele>3.0</ele><time>2026-04-05T10:11:38.999Z</time></trkpt><trkpt lat="43.76737486262453" lon="10.303320163992163"><ele>3.0</ele><time>2026-04-05T10:11:40.999Z</time></trkpt><trkpt lat="43.7674238449611" lon="10.303195285958799"><ele>2.4</ele><time>2026-04-05T10:11:42.999Z</time></trkpt><trkpt lat="43.76747062097277" lon="10.303069031203046"><ele>1.7999999999999998</ele><time>2026-04-05T10:11:44.999Z</time></trkpt><trkpt lat="43.76751358022537" lon="10.302934778614402"><ele>1.2</ele><time>2026-04-05T10:11:46.998Z</time></trkpt><trkpt lat="43.76756056286524" lon="10.302803657080595"><ele>0.6</ele><time>2026-04-05T10:11:48.998Z</time></trkpt><trkpt lat="43.767610935676856" lon="10.302673865525698"><ele>0.0</ele><time>2026-04-05T10:11:50.998Z</time></trkpt><trkpt lat="43.76765644564466" lon="10.302542618705708"><ele>1.2</ele><time>2026-04-05T10:11:52.998Z</time></trkpt><trkpt lat="43.76770183823674" lon="10.302412936571713"><ele>2.4</ele><time>2026-04-05T10:11:54.998Z</time></trkpt><trkpt lat="43.76774890907121" lon="10.302285141441565"><ele>3.5999999999999996</ele><time>2026-04-05T10:11:56.998Z</time></trkpt><trkpt lat="43.76779504243061" lon="10.302154746958465"><ele>4.8</ele><time>2026-04-05T10:11:58.998Z</time></trkpt><trkpt lat="43.76784121334711" lon="10.302026121352698"><ele>6.0</ele><time>2026-04-05T10:12:00.998Z</time></trkpt><trkpt lat="43.76788815310038" lon="10.301894735805423"><ele>6.0</ele><time>2026-04-05T10:12:02.998Z</time></trkpt><trkpt lat="43.767933072291584" lon="10.301764413314672"><ele>6.0</ele><time>2026-04-05T10:12:04.998Z</time></trkpt><trkpt lat="43.76798145653129" lon="10.301634099367327"><ele>6.0</ele><time>2026-04-05T10:12:06.998Z</time></trkpt><trkpt lat="43.76802636245741" lon="10.301501619945773"><ele>6.0</ele><time>2026-04-05T10:12:08.998Z</time></trkpt><trkpt lat="43.76807327622138" lon="10.301365608545682"><ele>6.0</ele><time>2026-04-05T10:12:11Z</time></trkpt><trkpt lat="43.768121851679076" lon="10.301231909184406"><ele>5.2</ele><time>2026-04-05T10:12:13Z</time></trkpt><trkpt lat="43.76817186805135" lon="10.301100054514855"><ele>4.3999999999999995</ele><time>2026-04-05T10:12:15Z</time></trkpt><trkpt lat="43.768221147546065" lon="10.30096126081583"><ele>3.6</ele><time>2026-04-05T10:12:17Z</time></trkpt><trkpt lat="43.768266229108725" lon="10.30082187849105"><ele>2.8</ele><time>2026-04-05T10:12:19Z</time></trkpt><trkpt lat="43.768313661165415" lon="10.300685734783302"><ele>2.0</ele><time>2026-04-05T10:12:21Z</time></trkpt><trkpt lat="43.76836126356718" lon="10.300550221594474"><ele>1.6</ele><time>2026-04-05T10:12:23Z</time></trkpt><trkpt lat="43.76841394603736" lon="10.300415555210256"><ele>1.2000000000000002</ele><time>2026-04-05T10:12:25Z</time></trkpt><trkpt lat="43.76845977040506" lon="10.300288912909707"><ele>0.8</ele><time>2026-04-05T10:12:27Z</time></trkpt><trkpt lat="43.768501484404986" lon="10.300163217764737"><ele>0.4</ele><time>2026-04-05T10:12:29Z</time></trkpt><trkpt lat="43.7685467843824" lon="10.300032212516756"><ele>0.0</ele><time>2026-04-05T10:12:31Z</time></trkpt><trkpt lat="43.76859362855909" lon="10.299901980124012"><ele>0.4</ele><time>2026-04-05T10:12:33Z</time></trkpt><trkpt lat="43.76863793693286" lon="10.29976652210494"><ele>0.8</ele><time>2026-04-05T10:12:35Z</time></trkpt><trkpt lat="43.76868234234571" lon="10.299641033789213"><ele>1.2000000000000002</ele><time>2026-04-05T10:12:37Z</time></trkpt><trkpt lat="43.7687239076223" lon="10.299529131837954"><ele>1.6</ele><time>2026-04-05T10:12:39Z</time></trkpt><trkpt lat="43.76876457825711" lon="10.299419391036848"><ele>2.0</ele><time>2026-04-05T10:12:41Z</time></trkpt><trkpt lat="43.768800929394324" lon="10.2993264726975"><ele>1.9999999999999998</ele><time>2026-04-05T10:12:43Z</time></trkpt><trkpt lat="43.76883682668338" lon="10.299229675771809"><ele>2.0</ele><time>2026-04-05T10:17:25.999Z</time></trkpt><trkpt lat="43.768875871526205" lon="10.29912567312058"><ele>2.0</ele><time>2026-04-05T10:17:30.999Z</time></trkpt><trkpt lat="43.768901674192996" lon="10.299042600660137"><ele>2.0</ele><time>2026-04-05T10:17:32.999Z</time></trkpt><trkpt lat="43.768932888458" lon="10.298957251804758"><ele>1.9999999999999998</ele><time>2026-04-05T10:17:34.999Z</time></trkpt><trkpt lat="43.76896895502217" lon="10.298860487726138"><ele>2.0</ele><time>2026-04-05T10:17:36.999Z</time></trkpt><trkpt lat="43.76900686285081" lon="10.298755641439907"><ele>1.6</ele><time>2026-04-05T10:17:38.999Z</time></trkpt><trkpt lat="43.76904736608397" lon="10.298645759289528"><ele>1.2000000000000002</ele><time>2026-04-05T10:17:40.999Z</time></trkpt><trkpt lat="43.76908685954489" lon="10.29852568556751"><ele>0.8</ele><time>2026-04-05T10:17:42.999Z</time></trkpt><trkpt lat="43.76913345972681" lon="10.298409427014375"><ele>0.4</ele><time>2026-04-05T10:17:44.999Z</time></trkpt><trkpt lat="43.769175180241014" lon="10.298283097991758"><ele>0.0</ele><time>2026-04-05T10:17:46.999Z</time></trkpt><trkpt lat="43.769219786470174" lon="10.298160342824152"><ele>-0.2</ele><time>2026-04-05T10:17:48.999Z</time></trkpt><trkpt lat="43.769265850096126" lon="10.29803384792697"><ele>-0.4</ele><time>2026-04-05T10:17:50.998Z</time></trkpt><trkpt lat="43.76931143517911" lon="10.297907925993346"><ele>-0.6000000000000001</ele><time>2026-04-05T10:17:52.998Z</time></trkpt><trkpt lat="43.76935544374156" lon="10.29778031743085"><ele>-0.8</ele><time>2026-04-05T10:17:54.998Z</time></trkpt><trkpt lat="43.76940057921339" lon="10.297654075974208"><ele>-1.0</ele><time>2026-04-05T10:17:56.998Z</time></trkpt><trkpt lat="43.76944566519343" lon="10.29752166768084"><ele>-0.20000000000000007</ele><time>2026-04-05T10:17:58.998Z</time></trkpt><trkpt lat="43.76949188144745" lon="10.29738968073897"><ele>0.5999999999999999</ele><time>2026-04-05T10:18:00.998Z</time></trkpt><trkpt lat="43.7695404076542" lon="10.297252390604893"><ele>1.4</ele><time>2026-04-05T10:18:02.998Z</time></trkpt><trkpt lat="43.76958990014442" lon="10.297114994169204"><ele>2.1999999999999997</ele><time>2026-04-05T10:18:04.998Z</time></trkpt><trkpt lat="43.76963563512742" lon="10.296970546895967"><ele>3.0</ele><time>2026-04-05T10:18:06.998Z</time></trkpt><trkpt lat="43.769689096297505" lon="10.296831109143481"><ele>3.0</ele><time>2026-04-05T10:18:08.998Z</time></trkpt><trkpt lat="43.76973765871832" lon="10.296689450764951"><ele>3.0</ele><time>2026-04-05T10:18:10.998Z</time></trkpt><trkpt lat="43.769788128777705" lon="10.296551529803802"><ele>3.0</ele><time>2026-04-05T10:18:12.998Z</time></trkpt><trkpt lat="43.76984073168255" lon="10.296408141963383"><ele>3.0</ele><time>2026-04-05T10:18:14.998Z</time></trkpt><trkpt lat="43.769893788949126" lon="10.29626351480738"><ele>2.25</ele><time>2026-04-05T10:18:16.998Z</time></trkpt><trkpt lat="43.76994440064766" lon="10.296114757503505"><ele>1.5</ele><time>2026-04-05T10:18:18.998Z</time></trkpt><trkpt lat="43.76999980526481" lon="10.29596949733781"><ele>0.75</ele><time>2026-04-05T10:18:20.998Z</time></trkpt><trkpt lat="43.77005103915941" lon="10.295825357258128"><ele>0.0</ele><time>2026-04-05T10:18:22.998Z</time></trkpt><trkpt lat="43.77010260824274" lon="10.295681890753993"><ele>0.0</ele><time>2026-04-05T10:18:24.998Z</time></trkpt><trkpt lat="43.770155776214864" lon="10.295535031545691"><ele>0.0</ele><time>2026-04-05T10:18:26.998Z</time></trkpt><trkpt lat="43.770205732544554" lon="10.2953879063616"><ele>0.0</ele><time>2026-04-05T10:18:28.999Z</time></trkpt><trkpt lat="43.77025750146461" lon="10.295248491951881"><ele>0.0</ele><time>2026-04-05T10:18:30.999Z</time></trkpt><trkpt lat="43.77030859546048" lon="10.295095086817126"><ele>0.0</ele><time>2026-04-05T10:18:32.999Z</time></trkpt><trkpt lat="43.7703622271284" lon="10.294941243503157"><ele>0.0</ele><time>2026-04-05T10:18:34.999Z</time></trkpt><trkpt lat="43.77041704454713" lon="10.294796616758786"><ele>0.0</ele><time>2026-04-05T10:18:36.999Z</time></trkpt><trkpt lat="43.7704672526501" lon="10.294641903212453"><ele>0.0</ele><time>2026-04-05T10:18:38.999Z</time></trkpt><trkpt lat="43.770521708491934" lon="10.294495154300453"><ele>0.5</ele><time>2026-04-05T10:18:40.999Z</time></trkpt><trkpt lat="43.77057440545148" lon="10.294341226905875"><ele>1.0</ele><time>2026-04-05T10:18:42.999Z</time></trkpt><trkpt lat="43.77062791302586" lon="10.294187107424996"><ele>1.5</ele><time>2026-04-05T10:18:44.999Z</time></trkpt><trkpt lat="43.770681305980034" lon="10.294035900733144"><ele>2.0</ele><time>2026-04-05T10:18:46.999Z</time></trkpt><trkpt lat="43.77073503246881" lon="10.293885936797398"><ele>3.75</ele><time>2026-04-05T10:18:48.999Z</time></trkpt><trkpt lat="43.77078883859844" lon="10.293737944981347"><ele>5.5</ele><time>2026-04-05T10:18:50.999Z</time></trkpt><trkpt lat="43.77084074204267" lon="10.293582921618459"><ele>7.25</ele><time>2026-04-05T10:18:52.999Z</time></trkpt><trkpt lat="43.77089321658081" lon="10.293433412558837"><ele>9.0</ele><time>2026-04-05T10:18:54.999Z</time></trkpt><trkpt lat="43.77094911721474" lon="10.293280340385367"><ele>9.0</ele><time>2026-04-05T10:18:56.999Z</time></trkpt><trkpt lat="43.77100939287008" lon="10.293127914179161"><ele>9.0</ele><time>2026-04-05T10:18:58.999Z</time></trkpt><trkpt lat="43.77104201700741" lon="10.29305056925209"><ele>9.0</ele><time>2026-04-05T10:18:59.999Z</time></trkpt><trkpt lat="43.77107794354167" lon="10.292976574908012"><ele>9.0</ele><time>2026-04-05T10:19:00.999Z</time></trkpt><trkpt lat="43.77115310198572" lon="10.292840953477308"><ele>9.0</ele><time>2026-04-05T10:19:02.999Z</time></trkpt><trkpt lat="43.77123207056504" lon="10.292713511560182"><ele>8.0</ele><time>2026-04-05T10:19:04.999Z</time></trkpt><trkpt lat="43.771309086308634" lon="10.292587454932864"><ele>7.0</ele><time>2026-04-05T10:19:06.999Z</time></trkpt><trkpt lat="43.77138229880415" lon="10.292460404983354"><ele>6.0</ele><time>2026-04-05T10:19:08.999Z</time></trkpt><trkpt lat="43.771450527804404" lon="10.292338362567264"><ele>5.0</ele><time>2026-04-05T10:19:10.999Z</time></trkpt><trkpt lat="43.77152118854667" lon="10.292209679229614"><ele>5.0</ele><time>2026-04-05T10:19:12.999Z</time></trkpt><trkpt lat="43.771584856042274" lon="10.292079683529135"><ele>5.0</ele><time>2026-04-05T10:19:14.999Z</time></trkpt><trkpt lat="43.77164902452938" lon="10.291948305904741"><ele>5.0</ele><time>2026-04-05T10:19:16.999Z</time></trkpt><trkpt lat="43.7717145995154" lon="10.291817798330351"><ele>5.0</ele><time>2026-04-05T10:19:18.999Z</time></trkpt><trkpt lat="43.771782236454484" lon="10.291688100837023"><ele>5.0</ele><time>2026-04-05T10:19:20.999Z</time></trkpt><trkpt lat="43.77184806599463" lon="10.29155661241454"><ele>5.0</ele><time>2026-04-05T10:19:22.999Z</time></trkpt><trkpt lat="43.77191615329597" lon="10.2914216485263"><ele>5.0</ele><time>2026-04-05T10:19:24.999Z</time></trkpt><trkpt lat="43.77198220486339" lon="10.291290964354099"><ele>5.0</ele><time>2026-04-05T10:19:26.999Z</time></trkpt><trkpt lat="43.77204829990962" lon="10.291162910218432"><ele>5.25</ele><time>2026-04-05T10:19:28.999Z</time></trkpt><trkpt lat="43.77211435194192" lon="10.291032699478537"><ele>5.5</ele><time>2026-04-05T10:19:30.999Z</time></trkpt><trkpt lat="43.77217935550846" lon="10.290903385781812"><ele>5.75</ele><time>2026-04-05T10:19:32.999Z</time></trkpt><trkpt lat="43.77224622693333" lon="10.290773625634019"><ele>6.0</ele><time>2026-04-05T10:19:34.999Z</time></trkpt><trkpt lat="43.77231181118589" lon="10.290642998691903"><ele>5.25</ele><time>2026-04-05T10:19:36.999Z</time></trkpt><trkpt lat="43.772377634322304" lon="10.290510482704752"><ele>4.5</ele><time>2026-04-05T10:19:38.999Z</time></trkpt><trkpt lat="43.77244569712258" lon="10.290379350597709"><ele>3.75</ele><time>2026-04-05T10:19:40.999Z</time></trkpt><trkpt lat="43.77251186713471" lon="10.290249634506301"><ele>3.0</ele><time>2026-04-05T10:19:42.999Z</time></trkpt><trkpt lat="43.772577013496644" lon="10.290117745258422"><ele>3.0</ele><time>2026-04-05T10:19:44.999Z</time></trkpt><trkpt lat="43.772641163110286" lon="10.289989973657566"><ele>3.0</ele><time>2026-04-05T10:19:46.999Z</time></trkpt><trkpt lat="43.77270607160977" lon="10.289863181060355"><ele>3.0</ele><time>2026-04-05T10:19:48.999Z</time></trkpt><trkpt lat="43.77276934769565" lon="10.289735841881201"><ele>3.0</ele><time>2026-04-05T10:19:50.999Z</time></trkpt><trkpt lat="43.77283303079756" lon="10.289607060085045"><ele>3.0</ele><time>2026-04-05T10:19:52.999Z</time></trkpt><trkpt lat="43.772894960117384" lon="10.289482401018565"><ele>3.4</ele><time>2026-04-05T10:19:54.999Z</time></trkpt><trkpt lat="43.772957200590355" lon="10.289356255948821"><ele>3.8</ele><time>2026-04-05T10:19:56.999Z</time></trkpt><trkpt lat="43.77302144197177" lon="10.2892319545235"><ele>4.2</ele><time>2026-04-05T10:19:58.999Z</time></trkpt><trkpt lat="43.77308484729942" lon="10.289105969426464"><ele>4.6</ele><time>2026-04-05T10:20:00.999Z</time></trkpt><trkpt lat="43.773149370631565" lon="10.288979176603469"><ele>5.0</ele><time>2026-04-05T10:20:02.999Z</time></trkpt><trkpt lat="43.773215094735804" lon="10.288851955825487"><ele>5.0</ele><time>2026-04-05T10:20:04.999Z</time></trkpt><trkpt lat="43.77327725492508" lon="10.28872431239135"><ele>5.0</ele><time>2026-04-05T10:20:06.999Z</time></trkpt><trkpt lat="43.773342010453995" lon="10.288597362693556"><ele>5.0</ele><time>2026-04-05T10:20:08.999Z</time></trkpt><trkpt lat="43.77340384246579" lon="10.288469620322724"><ele>5.0</ele><time>2026-04-05T10:20:10.999Z</time></trkpt><trkpt lat="43.77346639038583" lon="10.288345552907833"><ele>5.0</ele><time>2026-04-05T10:20:12.999Z</time></trkpt><trkpt lat="43.77352911816375" lon="10.288218732964438"><ele>5.25</ele><time>2026-04-05T10:20:14.999Z</time></trkpt><trkpt lat="43.77359401559783" lon="10.28809154121722"><ele>5.5</ele><time>2026-04-05T10:20:16.999Z</time></trkpt><trkpt lat="43.7736598483264" lon="10.287961013639768"><ele>5.75</ele><time>2026-04-05T10:20:18.999Z</time></trkpt><trkpt lat="43.77372179751547" lon="10.287831312179003"><ele>6.0</ele><time>2026-04-05T10:20:20.998Z</time></trkpt><trkpt lat="43.77378870614177" lon="10.287708651698798"><ele>6.0</ele><time>2026-04-05T10:20:22.998Z</time></trkpt><trkpt lat="43.77385097822733" lon="10.287577201039593"><ele>6.0</ele><time>2026-04-05T10:20:24.998Z</time></trkpt><trkpt lat="43.773918079738905" lon="10.287441376677133"><ele>6.0</ele><time>2026-04-05T10:20:26.998Z</time></trkpt><trkpt lat="43.77398752903317" lon="10.287308219853326"><ele>6.0</ele><time>2026-04-05T10:20:28.998Z</time></trkpt><trkpt lat="43.77405747937553" lon="10.287173337205628"><ele>5.0</ele><time>2026-04-05T10:20:30.998Z</time></trkpt><trkpt lat="43.77412709873974" lon="10.287033393839105"><ele>4.0</ele><time>2026-04-05T10:20:32.998Z</time></trkpt><trkpt lat="43.77419611381553" lon="10.28689351974716"><ele>3.0</ele><time>2026-04-05T10:20:35Z</time></trkpt><trkpt lat="43.77426696773002" lon="10.286755269848321"><ele>2.0</ele><time>2026-04-05T10:20:37Z</time></trkpt><trkpt lat="43.7743376972754" lon="10.286620092892859"><ele>1.75</ele><time>2026-04-05T10:20:39Z</time></trkpt><trkpt lat="43.774407775523535" lon="10.286485412780468"><ele>1.5</ele><time>2026-04-05T10:20:41Z</time></trkpt><trkpt lat="43.77447413887099" lon="10.286347823111543"><ele>1.25</ele><time>2026-04-05T10:20:43Z</time></trkpt><trkpt lat="43.77454169434689" lon="10.286215460973086"><ele>1.0</ele><time>2026-04-05T10:20:45Z</time></trkpt><trkpt lat="43.77461163496952" lon="10.286082025823303"><ele>1.0</ele><time>2026-04-05T10:20:47Z</time></trkpt><trkpt lat="43.77467892411789" lon="10.285945203105713"><ele>1.0</ele><time>2026-04-05T10:20:49Z</time></trkpt><trkpt lat="43.77474760984238" lon="10.285811694505146"><ele>1.0</ele><time>2026-04-05T10:20:51Z</time></trkpt><trkpt lat="43.77481403734414" lon="10.285676422038295"><ele>1.0</ele><time>2026-04-05T10:20:53Z</time></trkpt><trkpt lat="43.77487966768495" lon="10.28554487265691"><ele>0.75</ele><time>2026-04-05T10:20:55Z</time></trkpt><trkpt lat="43.774946703609736" lon="10.285414430146535"><ele>0.5</ele><time>2026-04-05T10:20:57Z</time></trkpt><trkpt lat="43.775012792883174" lon="10.285285566702365"><ele>0.25</ele><time>2026-04-05T10:20:59Z</time></trkpt><trkpt lat="43.775076547921635" lon="10.285153058204628"><ele>0.0</ele><time>2026-04-05T10:21:01Z</time></trkpt><trkpt lat="43.775142501331715" lon="10.28502603367379"><ele>0.0</ele><time>2026-04-05T10:21:03Z</time></trkpt><trkpt lat="43.77520717770606" lon="10.284893738153295"><ele>0.0</ele><time>2026-04-05T10:21:05Z</time></trkpt><trkpt lat="43.77527483409198" lon="10.284765985507498"><ele>0.0</ele><time>2026-04-05T10:21:07Z</time></trkpt><trkpt lat="43.7753389658987" lon="10.284637862654979"><ele>0.0</ele><time>2026-04-05T10:21:09Z</time></trkpt><trkpt lat="43.77540677236296" lon="10.284509841733419"><ele>-0.5</ele><time>2026-04-05T10:21:11Z</time></trkpt><trkpt lat="43.77547366657564" lon="10.284378285554316"><ele>-1.0</ele><time>2026-04-05T10:21:13Z</time></trkpt><trkpt lat="43.775542639783396" lon="10.284249264638724"><ele>-1.5</ele><time>2026-04-05T10:21:15Z</time></trkpt><trkpt lat="43.77561045820212" lon="10.284117605162336"><ele>-2.0</ele><time>2026-04-05T10:21:17Z</time></trkpt><trkpt lat="43.77567675268825" lon="10.283984894434445"><ele>-1.75</ele><time>2026-04-05T10:21:19Z</time></trkpt><trkpt lat="43.775744475499" lon="10.283853940152934"><ele>-1.5</ele><time>2026-04-05T10:21:21Z</time></trkpt><trkpt lat="43.77581368542941" lon="10.283727390289979"><ele>-1.25</ele><time>2026-04-05T10:21:23Z</time></trkpt><trkpt lat="43.775878104470685" lon="10.283591282021925"><ele>-1.0</ele><time>2026-04-05T10:21:25Z</time></trkpt><trkpt lat="43.775945686257344" lon="10.283463834860967"><ele>-1.0</ele><time>2026-04-05T10:21:27Z</time></trkpt><trkpt lat="43.776012253527696" lon="10.28333613959687"><ele>-1.0</ele><time>2026-04-05T10:21:29Z</time></trkpt><trkpt lat="43.77607342092714" lon="10.283205244675777"><ele>-1.0</ele><time>2026-04-05T10:21:31Z</time></trkpt><trkpt lat="43.77613852502403" lon="10.283079400429056"><ele>-1.0</ele><time>2026-04-05T10:21:33Z</time></trkpt><trkpt lat="43.77620281825374" lon="10.282951667096489"><ele>-0.25</ele><time>2026-04-05T10:21:34.999Z</time></trkpt><trkpt lat="43.776268105585196" lon="10.282823408233428"><ele>0.5</ele><time>2026-04-05T10:21:36.999Z</time></trkpt><trkpt lat="43.77633017147192" lon="10.282691617717068"><ele>1.25</ele><time>2026-04-05T10:21:38.999Z</time></trkpt><trkpt lat="43.77639440968173" lon="10.282561005234147"><ele>2.0</ele><time>2026-04-05T10:21:40.999Z</time></trkpt><trkpt lat="43.77645513911541" lon="10.282427000313533"><ele>2.0</ele><time>2026-04-05T10:21:42.999Z</time></trkpt><trkpt lat="43.77651142405744" lon="10.282289584635594"><ele>2.0</ele><time>2026-04-05T10:21:44.999Z</time></trkpt><trkpt lat="43.776567062379755" lon="10.282150844683883"><ele>2.0</ele><time>2026-04-05T10:21:46.999Z</time></trkpt><trkpt lat="43.77661412211486" lon="10.282009296296229"><ele>2.0</ele><time>2026-04-05T10:21:48.999Z</time></trkpt><trkpt lat="43.77666160601045" lon="10.281866935930775"><ele>1.5</ele><time>2026-04-05T10:21:50.999Z</time></trkpt><trkpt lat="43.776704412258766" lon="10.28171972796904"><ele>1.0</ele><time>2026-04-05T10:21:52.999Z</time></trkpt><trkpt lat="43.77674049723947" lon="10.281569555460377"><ele>0.5</ele><time>2026-04-05T10:21:54.999Z</time></trkpt><trkpt lat="43.77677537059325" lon="10.281418034169278"><ele>0.0</ele><time>2026-04-05T10:21:56.999Z</time></trkpt><trkpt lat="43.776806104890206" lon="10.281267948586436"><ele>0.0</ele><time>2026-04-05T10:21:58.999Z</time></trkpt><trkpt lat="43.77683749704334" lon="10.281114432606229"><ele>0.0</ele><time>2026-04-05T10:22:00.999Z</time></trkpt><trkpt lat="43.77686614146221" lon="10.280962250151717"><ele>0.0</ele><time>2026-04-05T10:22:02.999Z</time></trkpt><trkpt lat="43.776895949899554" lon="10.280802267665226"><ele>0.0</ele><time>2026-04-05T10:22:04.999Z</time></trkpt><trkpt lat="43.776915792646" lon="10.28064078379597"><ele>0.4</ele><time>2026-04-05T10:22:06.999Z</time></trkpt><trkpt lat="43.77694154093056" lon="10.280485079140693"><ele>0.8</ele><time>2026-04-05T10:22:08.999Z</time></trkpt><trkpt lat="43.77695965818582" lon="10.280320613833757"><ele>1.2000000000000002</ele><time>2026-04-05T10:22:10.999Z</time></trkpt><trkpt lat="43.7769796616092" lon="10.280171337085815"><ele>1.6</ele><time>2026-04-05T10:22:12.999Z</time></trkpt><trkpt lat="43.77700745804261" lon="10.280042901370104"><ele>2.0</ele><time>2026-04-05T10:22:14.999Z</time></trkpt><trkpt lat="43.77703179928788" lon="10.279921649795893"><ele>1.9999999999999998</ele><time>2026-04-05T10:22:16.999Z</time></trkpt><trkpt lat="43.777056456846715" lon="10.279805464852581"><ele>2.0</ele><time>2026-04-05T10:22:18.999Z</time></trkpt><trkpt lat="43.77707944538119" lon="10.279680343262134"><ele>2.0</ele><time>2026-04-05T10:22:20.999Z</time></trkpt><trkpt lat="43.77709962083707" lon="10.279558667713356"><ele>2.0</ele><time>2026-04-05T10:22:22.999Z</time></trkpt><trkpt lat="43.77712311304766" lon="10.279439324172504"><ele>1.9999999999999998</ele><time>2026-04-05T10:22:24.999Z</time></trkpt><trkpt lat="43.77714180620353" lon="10.279323501480244"><ele>2.0</ele><time>2026-04-05T10:22:26.999Z</time></trkpt><trkpt lat="43.77716604161042" lon="10.279191291356382"><ele>1.8</ele><time>2026-04-05T10:22:28.999Z</time></trkpt><trkpt lat="43.77719007994898" lon="10.27906532300528"><ele>1.6</ele><time>2026-04-05T10:22:30.999Z</time></trkpt><trkpt lat="43.777215813536884" lon="10.278939451905465"><ele>1.4000000000000001</ele><time>2026-04-05T10:22:32.999Z</time></trkpt><trkpt lat="43.77723667376082" lon="10.278812702609002"><ele>1.2000000000000002</ele><time>2026-04-05T10:22:34.999Z</time></trkpt><trkpt lat="43.777260417023314" lon="10.278687243331389"><ele>1.0</ele><time>2026-04-05T10:22:36.999Z</time></trkpt><trkpt lat="43.77727655138406" lon="10.27856234054733"><ele>1.0</ele><time>2026-04-05T10:22:38.999Z</time></trkpt><trkpt lat="43.777300339319716" lon="10.278435776105209"><ele>1.0</ele><time>2026-04-05T10:22:41.001Z</time></trkpt><trkpt lat="43.77732061835894" lon="10.278312311492186"><ele>1.0</ele><time>2026-04-05T10:22:43.001Z</time></trkpt><trkpt lat="43.777341966293044" lon="10.278185399384974"><ele>1.0</ele><time>2026-04-05T10:22:45.001Z</time></trkpt><trkpt lat="43.77735824719079" lon="10.278050684215323"><ele>1.0</ele><time>2026-04-05T10:22:47.001Z</time></trkpt><trkpt lat="43.777382203316144" lon="10.277927128064382"><ele>1.1666666666666665</ele><time>2026-04-05T10:22:49.001Z</time></trkpt><trkpt lat="43.77739924286003" lon="10.277816728086728"><ele>1.3333333333333333</ele><time>2026-04-05T10:22:51.001Z</time></trkpt><trkpt lat="43.777419950629856" lon="10.277700801644343"><ele>1.5</ele><time>2026-04-05T10:22:53.001Z</time></trkpt><trkpt lat="43.77743881344536" lon="10.277598538572585"><ele>1.6666666666666665</ele><time>2026-04-05T10:22:55.001Z</time></trkpt><trkpt lat="43.7774540473655" lon="10.27750607790824"><ele>1.8333333333333333</ele><time>2026-04-05T10:22:57Z</time></trkpt><trkpt lat="43.77748041999207" lon="10.277400507768098"><ele>2.0</ele><time>2026-04-05T10:22:59Z</time></trkpt><trkpt lat="43.77766329536468" lon="10.27735382538406"><ele>1.8333333333333333</ele><time>2026-04-05T10:23:01Z</time></trkpt><trkpt lat="43.77768553836387" lon="10.277235451107673"><ele>1.6666666666666665</ele><time>2026-04-05T10:23:03Z</time></trkpt><trkpt lat="43.77770747165415" lon="10.277118725466925"><ele>1.5</ele><time>2026-04-05T10:23:05Z</time></trkpt><trkpt lat="43.77772938863335" lon="10.277009893790444"><ele>1.3333333333333333</ele><time>2026-04-05T10:23:07Z</time></trkpt><trkpt lat="43.77775096194224" lon="10.276903010900279"><ele>1.1666666666666665</ele><time>2026-04-05T10:23:09Z</time></trkpt><trkpt lat="43.77777536201132" lon="10.276794537458482"><ele>1.0</ele><time>2026-04-05T10:23:11Z</time></trkpt><trkpt lat="43.777797866081954" lon="10.276694494718587"><ele>1.0</ele><time>2026-04-05T10:23:13Z</time></trkpt><trkpt lat="43.777738133610136" lon="10.276593750105214"><ele>1.0</ele><time>2026-04-05T10:23:21Z</time></trkpt><trkpt lat="43.77784150771335" lon="10.27650980704307"><ele>1.0</ele><time>2026-04-05T10:23:25Z</time></trkpt><trkpt lat="43.777856764251204" lon="10.276410276913913"><ele>1.0</ele><time>2026-04-05T10:23:27Z</time></trkpt><trkpt lat="43.77786924641937" lon="10.27632133313019"><ele>1.0</ele><time>2026-04-05T10:23:29Z</time></trkpt><trkpt lat="43.777893411968776" lon="10.276184603639965"><ele>0.8</ele><time>2026-04-05T10:23:32Z</time></trkpt><trkpt lat="43.77790895678377" lon="10.276084612823146"><ele>0.6000000000000001</ele><time>2026-04-05T10:23:34Z</time></trkpt><trkpt lat="43.77794753107891" lon="10.275950087458023"><ele>0.4</ele><time>2026-04-05T10:23:36Z</time></trkpt><trkpt lat="43.778008105137715" lon="10.275853488432869"><ele>0.2</ele><time>2026-04-05T10:23:38Z</time></trkpt><trkpt lat="43.77807718514591" lon="10.275757698525826"><ele>0.0</ele><time>2026-04-05T10:23:40Z</time></trkpt><trkpt lat="43.77813589659096" lon="10.275653908096066"><ele>-0.6</ele><time>2026-04-05T10:23:42Z</time></trkpt><trkpt lat="43.778185964526315" lon="10.275531103870874"><ele>-1.2</ele><time>2026-04-05T10:23:44Z</time></trkpt><trkpt lat="43.7782584451174" lon="10.275434586413569"><ele>-1.7999999999999998</ele><time>2026-04-05T10:23:46Z</time></trkpt><trkpt lat="43.778306269090145" lon="10.275312896337937"><ele>-2.4</ele><time>2026-04-05T10:23:48Z</time></trkpt><trkpt lat="43.77836709951529" lon="10.275213121812538"><ele>-3.0</ele><time>2026-04-05T10:23:50Z</time></trkpt><trkpt lat="43.77843013645111" lon="10.275107807732859"><ele>-3.0</ele><time>2026-04-05T10:23:51.999Z</time></trkpt><trkpt lat="43.77848959787238" lon="10.275001955208879"><ele>-3.0</ele><time>2026-04-05T10:23:53.999Z</time></trkpt><trkpt lat="43.77855315282074" lon="10.274900152752133"><ele>-3.0</ele><time>2026-04-05T10:23:55.999Z</time></trkpt><trkpt lat="43.77860866923558" lon="10.274796554690374"><ele>-3.0</ele><time>2026-04-05T10:23:57.999Z</time></trkpt><trkpt lat="43.77866727635572" lon="10.27469696292577"><ele>-3.0</ele><time>2026-04-05T10:23:59.999Z</time></trkpt><trkpt lat="43.7787250702925" lon="10.274593384328467"><ele>-2.6</ele><time>2026-04-05T10:24:01.999Z</time></trkpt><trkpt lat="43.778781089467394" lon="10.274489838248755"><ele>-2.1999999999999997</ele><time>2026-04-05T10:24:03.999Z</time></trkpt><trkpt lat="43.778852770465015" lon="10.274398808352014"><ele>-1.8</ele><time>2026-04-05T10:24:05.999Z</time></trkpt><trkpt lat="43.7788965410333" lon="10.274286545875405"><ele>-1.4</ele><time>2026-04-05T10:24:07.999Z</time></trkpt><trkpt lat="43.77896950901142" lon="10.274196703627368"><ele>-1.0</ele><time>2026-04-05T10:24:09.999Z</time></trkpt><trkpt lat="43.77902949899709" lon="10.274092845596437"><ele>-1.0</ele><time>2026-04-05T10:24:11.999Z</time></trkpt><trkpt lat="43.77909038288306" lon="10.273985934168058"><ele>-1.0</ele><time>2026-04-05T10:24:13.999Z</time></trkpt><trkpt lat="43.77915206228451" lon="10.273876165995818"><ele>-1.0</ele><time>2026-04-05T10:24:15.999Z</time></trkpt><trkpt lat="43.77920454073641" lon="10.273760917088143"><ele>-1.0</ele><time>2026-04-05T10:24:17.999Z</time></trkpt><trkpt lat="43.779271098013055" lon="10.273660625490992"><ele>-1.0</ele><time>2026-04-05T10:24:19.999Z</time></trkpt><trkpt lat="43.77932123386906" lon="10.273542099480187"><ele>-0.8</ele><time>2026-04-05T10:24:21.999Z</time></trkpt><trkpt lat="43.779397461581084" lon="10.273445461063151"><ele>-0.6000000000000001</ele><time>2026-04-05T10:24:23.999Z</time></trkpt><trkpt lat="43.77946026336" lon="10.273337090216373"><ele>-0.4</ele><time>2026-04-05T10:24:25.999Z</time></trkpt><trkpt lat="43.779520886956774" lon="10.273229554206525"><ele>-0.2</ele><time>2026-04-05T10:24:27.999Z</time></trkpt><trkpt lat="43.77958170807592" lon="10.273121667725245"><ele>0.0</ele><time>2026-04-05T10:24:29.999Z</time></trkpt><trkpt lat="43.77963158232485" lon="10.272996418139742"><ele>0.2</ele><time>2026-04-05T10:24:31.999Z</time></trkpt><trkpt lat="43.7797127911313" lon="10.272906742490571"><ele>0.4</ele><time>2026-04-05T10:24:33.999Z</time></trkpt><trkpt lat="43.77979035699327" lon="10.272814270485044"><ele>0.6000000000000001</ele><time>2026-04-05T10:24:35.999Z</time></trkpt><trkpt lat="43.77986066071246" lon="10.272705492304947"><ele>0.8</ele><time>2026-04-05T10:24:37.999Z</time></trkpt><trkpt lat="43.77991685845659" lon="10.272582304921702"><ele>1.0</ele><time>2026-04-05T10:24:39.999Z</time></trkpt><trkpt lat="43.77996122627256" lon="10.272464852919054"><ele>1.0</ele><time>2026-04-05T10:24:41.999Z</time></trkpt><trkpt lat="43.77998995999038" lon="10.272367337854956"><ele>1.0</ele><time>2026-04-05T10:24:43.999Z</time></trkpt><trkpt lat="43.779967601992105" lon="10.272283485136418"><ele>1.0</ele><time>2026-04-05T10:24:47.001Z</time></trkpt><trkpt lat="43.77997452381275" lon="10.272164850915848"><ele>1.0</ele><time>2026-04-05T10:24:58Z</time></trkpt><trkpt lat="43.780153822436176" lon="10.272028856605953"><ele>1.0</ele><time>2026-04-05T10:25:12Z</time></trkpt><trkpt lat="43.780214221969416" lon="10.271939622538703"><ele>0.9999999999999999</ele><time>2026-04-05T10:25:15Z</time></trkpt><trkpt lat="43.78025578830799" lon="10.27186094427064"><ele>1.0</ele><time>2026-04-05T10:25:17Z</time></trkpt><trkpt lat="43.78030460308777" lon="10.271772631774812"><ele>1.0</ele><time>2026-04-05T10:25:19Z</time></trkpt><trkpt lat="43.78034909587295" lon="10.271675076786192"><ele>1.0</ele><time>2026-04-05T10:25:21Z</time></trkpt><trkpt lat="43.78040385589085" lon="10.271581649757417"><ele>0.9999999999999999</ele><time>2026-04-05T10:25:23Z</time></trkpt><trkpt lat="43.78045940079231" lon="10.27148998888656"><ele>1.0</ele><time>2026-04-05T10:25:25Z</time></trkpt><trkpt lat="43.78051142352834" lon="10.271409085048374"><ele>0.6666666666666666</ele><time>2026-04-05T10:25:27Z</time></trkpt><trkpt lat="43.78056623827011" lon="10.27132394616405"><ele>0.3333333333333333</ele><time>2026-04-05T10:25:29Z</time></trkpt><trkpt lat="43.78061274120121" lon="10.271234169711013"><ele>0.0</ele><time>2026-04-05T10:25:31Z</time></trkpt><trkpt lat="43.78065347664059" lon="10.271161315711177"><ele>-0.3333333333333333</ele><time>2026-04-05T10:25:33Z</time></trkpt><trkpt lat="43.78069709192956" lon="10.27107206277629"><ele>-0.6666666666666666</ele><time>2026-04-05T10:25:36Z</time></trkpt><trkpt lat="43.78075116518623" lon="10.270996207352137"><ele>-1.0</ele><time>2026-04-05T10:25:39Z</time></trkpt><trkpt lat="43.78079602272453" lon="10.270902311883358"><ele>-1.0</ele><time>2026-04-05T10:25:42Z</time></trkpt><trkpt lat="43.78084305922219" lon="10.270817874776023"><ele>-0.9999999999999999</ele><time>2026-04-05T10:25:45Z</time></trkpt><trkpt lat="43.78088980651907" lon="10.270737104856831"><ele>-1.0</ele><time>2026-04-05T10:25:47.999Z</time></trkpt><trkpt lat="43.780928381714475" lon="10.270653558656102"><ele>-1.0</ele><time>2026-04-05T10:25:50.999Z</time></trkpt><trkpt lat="43.7809719765012" lon="10.270576874530803"><ele>-0.9999999999999999</ele><time>2026-04-05T10:25:54.999Z</time></trkpt><trkpt lat="43.78101799508209" lon="10.270503391136193"><ele>-1.0</ele><time>2026-04-05T10:26:47.999Z</time></trkpt><trkpt lat="43.781069672985495" lon="10.270451578729755"><ele>-1.0</ele><time>2026-04-05T10:26:54Z</time></trkpt><trkpt lat="43.78109878423858" lon="10.270363617032999"><ele>-0.5714285714285714</ele><time>2026-04-05T10:27:01Z</time></trkpt><trkpt lat="43.78114036396175" lon="10.270284528577825"><ele>-0.1428571428571428</ele><time>2026-04-05T10:27:20Z</time></trkpt><trkpt lat="43.7811878013295" lon="10.270208990621935"><ele>0.2857142857142857</ele><time>2026-04-05T10:27:23Z</time></trkpt><trkpt lat="43.78123866166744" lon="10.27014200661272"><ele>0.7142857142857142</ele><time>2026-04-05T10:27:25Z</time></trkpt><trkpt lat="43.78128411090648" lon="10.270059771953118"><ele>1.1428571428571428</ele><time>2026-04-05T10:27:27Z</time></trkpt><trkpt lat="43.781330517280814" lon="10.269975204933234"><ele>1.5714285714285714</ele><time>2026-04-05T10:27:29Z</time></trkpt><trkpt lat="43.78138192010778" lon="10.269891565095822"><ele>2.0</ele><time>2026-04-05T10:27:31Z</time></trkpt><trkpt lat="43.78142843456882" lon="10.269817616782877"><ele>1.6666666666666665</ele><time>2026-04-05T10:27:33Z</time></trkpt><trkpt lat="43.78148021156396" lon="10.26971876526762"><ele>1.3333333333333333</ele><time>2026-04-05T10:27:36Z</time></trkpt><trkpt lat="43.78153112617214" lon="10.269610607781607"><ele>1.0</ele><time>2026-04-05T10:27:39Z</time></trkpt><trkpt lat="43.781579974662385" lon="10.269543036406882"><ele>0.6666666666666666</ele><time>2026-04-05T10:27:41Z</time></trkpt><trkpt lat="43.78165028328286" lon="10.269476237003722"><ele>0.3333333333333333</ele><time>2026-04-05T10:27:44Z</time></trkpt><trkpt lat="43.78171108492819" lon="10.269437935708362"><ele>0.0</ele><time>2026-04-05T10:27:50.999Z</time></trkpt><trkpt lat="43.78177585713093" lon="10.269417947933036"><ele>0.0</ele><time>2026-04-05T10:27:56.999Z</time></trkpt><trkpt lat="43.781848020608116" lon="10.269421407717877"><ele>0.0</ele><time>2026-04-05T10:28:02.999Z</time></trkpt><trkpt lat="43.781913741715286" lon="10.26943137754005"><ele>0.0</ele><time>2026-04-05T10:28:07.999Z</time></trkpt><trkpt lat="43.78198268087835" lon="10.269424579329248"><ele>0.0</ele><time>2026-04-05T10:28:12.999Z</time></trkpt><trkpt lat="43.78205141081399" lon="10.269414825254405"><ele>0.0</ele><time>2026-04-05T10:28:17.999Z</time></trkpt><trkpt lat="43.782124392748706" lon="10.269415352231265"><ele>0.0</ele><time>2026-04-05T10:28:23.999Z</time></trkpt><trkpt lat="43.78218873066924" lon="10.269419802328736"><ele>0.0</ele><time>2026-04-05T10:28:28.999Z</time></trkpt><trkpt lat="43.78225222225847" lon="10.269418790024135"><ele>0.0</ele><time>2026-04-05T10:28:33.999Z</time></trkpt><trkpt lat="43.78232410707343" lon="10.269420563322026"><ele>0.0</ele><time>2026-04-05T10:28:39.999Z</time></trkpt><trkpt lat="43.782392087972056" lon="10.26941552699361"><ele>0.0</ele><time>2026-04-05T10:28:45.999Z</time></trkpt><trkpt lat="43.78246284793285" lon="10.269412910346126"><ele>0.0</ele><time>2026-04-05T10:28:51.998Z</time></trkpt><trkpt lat="43.7825345297533" lon="10.269403077156445"><ele>0.0</ele><time>2026-04-05T10:28:57.998Z</time></trkpt><trkpt lat="43.78259866079793" lon="10.269403798343617"><ele>0.0</ele><time>2026-04-05T10:29:03Z</time></trkpt><trkpt lat="43.7826612613867" lon="10.269389385697778"><ele>0.0</ele><time>2026-04-05T10:29:08Z</time></trkpt><trkpt lat="43.78273149697393" lon="10.269380663100803"><ele>0.0</ele><time>2026-04-05T10:29:13Z</time></trkpt><trkpt lat="43.782797771256874" lon="10.26937137960522"><ele>0.0</ele><time>2026-04-05T10:29:18Z</time></trkpt><trkpt lat="43.78286552686041" lon="10.269357310689879"><ele>0.0</ele><time>2026-04-05T10:29:23Z</time></trkpt><trkpt lat="43.782928112000455" lon="10.269343909658406"><ele>0.0</ele><time>2026-04-05T10:29:29Z</time></trkpt><trkpt lat="43.78300658487344" lon="10.269365862057981"><ele>0.0</ele><time>2026-04-05T10:29:32Z</time></trkpt><trkpt lat="43.78309084342113" lon="10.269359148813544"><ele>0.0</ele><time>2026-04-05T10:29:35Z</time></trkpt><trkpt lat="43.78315789369882" lon="10.269357048657985"><ele>0.0</ele><time>2026-04-05T10:29:37Z</time></trkpt><trkpt lat="43.783227644526356" lon="10.26936233208578"><ele>0.0</ele><time>2026-04-05T10:29:39Z</time></trkpt><trkpt lat="43.78329553876738" lon="10.269370464039335"><ele>0.0</ele><time>2026-04-05T10:29:41Z</time></trkpt><trkpt lat="43.78337119086442" lon="10.269361473851532"><ele>0.0</ele><time>2026-04-05T10:29:43Z</time></trkpt><trkpt lat="43.78343788141109" lon="10.26939120137358"><ele>0.0</ele><time>2026-04-05T10:29:45Z</time></trkpt><trkpt lat="43.78350195951798" lon="10.26939852938545"><ele>0.0</ele><time>2026-04-05T10:29:47Z</time></trkpt><trkpt lat="43.78357412618493" lon="10.269385043997737"><ele>0.0</ele><time>2026-04-05T10:29:49Z</time></trkpt><trkpt lat="43.78364096359584" lon="10.26941157032012"><ele>0.0</ele><time>2026-04-05T10:29:51Z</time></trkpt><trkpt lat="43.78372516171148" lon="10.269419469469288"><ele>0.0</ele><time>2026-04-05T10:29:52.999Z</time></trkpt><trkpt lat="43.78381460678557" lon="10.269411311963363"><ele>0.0</ele><time>2026-04-05T10:29:54.999Z</time></trkpt><trkpt lat="43.783910366376126" lon="10.269425348649287"><ele>0.0</ele><time>2026-04-05T10:29:56.999Z</time></trkpt><trkpt lat="43.784011155119046" lon="10.269434759521882"><ele>0.0</ele><time>2026-04-05T10:29:58.999Z</time></trkpt><trkpt lat="43.78410725223867" lon="10.269445054373222"><ele>0.0</ele><time>2026-04-05T10:30:00.999Z</time></trkpt><trkpt lat="43.78420697926928" lon="10.269458087655217"><ele>0.0</ele><time>2026-04-05T10:30:02.999Z</time></trkpt><trkpt lat="43.784307264513174" lon="10.269463802942877"><ele>0.0</ele><time>2026-04-05T10:30:04.999Z</time></trkpt><trkpt lat="43.78439789194015" lon="10.269464548714073"><ele>0.0</ele><time>2026-04-05T10:30:06.999Z</time></trkpt><trkpt lat="43.78448984785239" lon="10.269464694969233"><ele>0.0</ele><time>2026-04-05T10:30:08.999Z</time></trkpt><trkpt lat="43.784582081830166" lon="10.269474959092763"><ele>0.0</ele><time>2026-04-05T10:30:10.999Z</time></trkpt><trkpt lat="43.78468007710389" lon="10.26945808845535"><ele>0.0</ele><time>2026-04-05T10:30:12.999Z</time></trkpt><trkpt lat="43.78477927923114" lon="10.269425271384804"><ele>0.0</ele><time>2026-04-05T10:30:14.999Z</time></trkpt><trkpt lat="43.78487074727124" lon="10.269372192794059"><ele>0.0</ele><time>2026-04-05T10:30:16.999Z</time></trkpt><trkpt lat="43.784966242822506" lon="10.269335493776953"><ele>0.0</ele><time>2026-04-05T10:30:18.999Z</time></trkpt><trkpt lat="43.78504805616618" lon="10.269259751810495"><ele>0.0</ele><time>2026-04-05T10:30:20.999Z</time></trkpt><trkpt lat="43.78514293186228" lon="10.269225761854683"><ele>0.4</ele><time>2026-04-05T10:30:22.999Z</time></trkpt><trkpt lat="43.78522540878497" lon="10.269151126343944"><ele>0.8</ele><time>2026-04-05T10:30:24.999Z</time></trkpt><trkpt lat="43.78532134211299" lon="10.26912691835069"><ele>1.2000000000000002</ele><time>2026-04-05T10:30:26.999Z</time></trkpt><trkpt lat="43.78541718577175" lon="10.269106341746513"><ele>1.6</ele><time>2026-04-05T10:30:28.999Z</time></trkpt><trkpt lat="43.785521481230425" lon="10.269099599952595"><ele>2.0</ele><time>2026-04-05T10:30:30.999Z</time></trkpt><trkpt lat="43.785628394761986" lon="10.26909347645699"><ele>2.0</ele><time>2026-04-05T10:30:32.999Z</time></trkpt><trkpt lat="43.78573222271916" lon="10.269078340462846"><ele>2.0</ele><time>2026-04-05T10:30:34.999Z</time></trkpt><trkpt lat="43.785840250380765" lon="10.269037255603624"><ele>2.0</ele><time>2026-04-05T10:30:36.999Z</time></trkpt><trkpt lat="43.78594258438779" lon="10.268975521705562"><ele>2.0</ele><time>2026-04-05T10:30:38.999Z</time></trkpt><trkpt lat="43.78603128028239" lon="10.268895733183694"><ele>2.0</ele><time>2026-04-05T10:30:40.999Z</time></trkpt><trkpt lat="43.78612941232943" lon="10.268861977860071"><ele>1.8</ele><time>2026-04-05T10:30:42.999Z</time></trkpt><trkpt lat="43.78623685517617" lon="10.268829144044503"><ele>1.6</ele><time>2026-04-05T10:30:44.999Z</time></trkpt><trkpt lat="43.78634998254645" lon="10.268831841441761"><ele>1.4000000000000001</ele><time>2026-04-05T10:30:46.999Z</time></trkpt><trkpt lat="43.78645915301383" lon="10.268794818891433"><ele>1.2000000000000002</ele><time>2026-04-05T10:30:48.999Z</time></trkpt><trkpt lat="43.786557883376844" lon="10.268744688517808"><ele>1.0</ele><time>2026-04-05T10:30:50.998Z</time></trkpt><trkpt lat="43.78664740596236" lon="10.268668788860642"><ele>1.0</ele><time>2026-04-05T10:30:52.998Z</time></trkpt><trkpt lat="43.7867508056601" lon="10.26861059242351"><ele>1.0</ele><time>2026-04-05T10:30:54.998Z</time></trkpt><trkpt lat="43.78684043211511" lon="10.268559719964012"><ele>1.0</ele><time>2026-04-05T10:30:56.998Z</time></trkpt><trkpt lat="43.78693698259142" lon="10.268520022939878"><ele>1.0</ele><time>2026-04-05T10:30:58.998Z</time></trkpt><trkpt lat="43.78702788222433" lon="10.268497233969924"><ele>1.0</ele><time>2026-04-05T10:31:00.998Z</time></trkpt><trkpt lat="43.787116939371295" lon="10.268455580203073"><ele>1.4</ele><time>2026-04-05T10:31:02.998Z</time></trkpt><trkpt lat="43.787207327521784" lon="10.268437292332337"><ele>1.8</ele><time>2026-04-05T10:31:05Z</time></trkpt><trkpt lat="43.787304957982684" lon="10.268428501898647"><ele>2.1999999999999997</ele><time>2026-04-05T10:31:07Z</time></trkpt><trkpt lat="43.787388515048704" lon="10.268384797241298"><ele>2.6</ele><time>2026-04-05T10:31:09Z</time></trkpt><trkpt lat="43.787452356281776" lon="10.26837149058705"><ele>3.0</ele><time>2026-04-05T10:31:11Z</time></trkpt><trkpt lat="43.78756198107899" lon="10.268369267287968"><ele>3.0</ele><time>2026-04-05T10:31:13Z</time></trkpt><trkpt lat="43.78765622131677" lon="10.268330274448946"><ele>3.0</ele><time>2026-04-05T10:31:15Z</time></trkpt><trkpt lat="43.787753404122185" lon="10.268323922972387"><ele>3.0</ele><time>2026-04-05T10:31:17Z</time></trkpt><trkpt lat="43.78785369581864" lon="10.268295502179345"><ele>3.0</ele><time>2026-04-05T10:31:19Z</time></trkpt><trkpt lat="43.78795210543199" lon="10.268268623838399"><ele>3.0</ele><time>2026-04-05T10:31:21Z</time></trkpt><trkpt lat="43.78803793259402" lon="10.268228882918402"><ele>2.6666666666666665</ele><time>2026-04-05T10:31:23Z</time></trkpt><trkpt lat="43.78812757743869" lon="10.268229316555663"><ele>2.3333333333333335</ele><time>2026-04-05T10:31:25Z</time></trkpt><trkpt lat="43.78821212145402" lon="10.268188274722542"><ele>2.0</ele><time>2026-04-05T10:31:27Z</time></trkpt><trkpt lat="43.78830515652538" lon="10.268186086983924"><ele>1.6666666666666665</ele><time>2026-04-05T10:31:29Z</time></trkpt><trkpt lat="43.78839443340993" lon="10.268184452209683"><ele>1.3333333333333333</ele><time>2026-04-05T10:31:31Z</time></trkpt><trkpt lat="43.78847568170478" lon="10.268177371930026"><ele>1.0</ele><time>2026-04-05T10:31:33Z</time></trkpt><trkpt lat="43.788572612520035" lon="10.26818177809267"><ele>0.9999999999999999</ele><time>2026-04-05T10:31:35Z</time></trkpt><trkpt lat="43.788665557318545" lon="10.268166465690962"><ele>1.0</ele><time>2026-04-05T10:31:37Z</time></trkpt><trkpt lat="43.78874894502459" lon="10.268134661194262"><ele>1.0</ele><time>2026-04-05T10:31:39Z</time></trkpt><trkpt lat="43.78882700999983" lon="10.268118590242203"><ele>1.0</ele><time>2026-04-05T10:31:41Z</time></trkpt><trkpt lat="43.78891518932708" lon="10.26809497060743"><ele>0.9999999999999999</ele><time>2026-04-05T10:31:43Z</time></trkpt><trkpt lat="43.78900912654245" lon="10.268072697462003"><ele>1.0</ele><time>2026-04-05T10:31:45Z</time></trkpt><trkpt lat="43.78910920774287" lon="10.268045359550042"><ele>0.8</ele><time>2026-04-05T10:31:47Z</time></trkpt><trkpt lat="43.78922251473123" lon="10.268048165148027"><ele>0.6000000000000001</ele><time>2026-04-05T10:31:49Z</time></trkpt><trkpt lat="43.789329967179306" lon="10.26801968639859"><ele>0.4</ele><time>2026-04-05T10:31:51Z</time></trkpt><trkpt lat="43.78942337257435" lon="10.268010898719538"><ele>0.2</ele><time>2026-04-05T10:31:53Z</time></trkpt><trkpt lat="43.78950420215813" lon="10.26800776028334"><ele>0.0</ele><time>2026-04-05T10:31:55Z</time></trkpt><trkpt lat="43.789598626957215" lon="10.267996711646699"><ele>0.0</ele><time>2026-04-05T10:31:56.999Z</time></trkpt><trkpt lat="43.78968341901181" lon="10.267922176724609"><ele>0.0</ele><time>2026-04-05T10:31:58.999Z</time></trkpt><trkpt lat="43.78978287384705" lon="10.267895195021712"><ele>0.0</ele><time>2026-04-05T10:32:00.999Z</time></trkpt><trkpt lat="43.78988013682998" lon="10.267887106062712"><ele>0.0</ele><time>2026-04-05T10:32:02.999Z</time></trkpt><trkpt lat="43.78997183451562" lon="10.267902441672005"><ele>0.0</ele><time>2026-04-05T10:32:04.999Z</time></trkpt><trkpt lat="43.790070835504864" lon="10.267925864774686"><ele>0.0</ele><time>2026-04-05T10:32:06.999Z</time></trkpt><trkpt lat="43.79017672055752" lon="10.267955770033291"><ele>0.0</ele><time>2026-04-05T10:32:08.999Z</time></trkpt><trkpt lat="43.790276294599586" lon="10.267943781516873"><ele>0.0</ele><time>2026-04-05T10:32:10.999Z</time></trkpt><trkpt lat="43.79037665746803" lon="10.267956414172069"><ele>0.0</ele><time>2026-04-05T10:32:12.999Z</time></trkpt><trkpt lat="43.79047676739888" lon="10.267905740135708"><ele>0.0</ele><time>2026-04-05T10:32:14.999Z</time></trkpt><trkpt lat="43.79058402489361" lon="10.267896128629323"><ele>0.0</ele><time>2026-04-05T10:32:16.999Z</time></trkpt><trkpt lat="43.79069531350702" lon="10.267900151672531"><ele>0.0</ele><time>2026-04-05T10:32:18.999Z</time></trkpt><trkpt lat="43.790797991515724" lon="10.267917705322214"><ele>0.0</ele><time>2026-04-05T10:32:20.999Z</time></trkpt><trkpt lat="43.79089907339114" lon="10.26794457586869"><ele>0.0</ele><time>2026-04-05T10:32:22.999Z</time></trkpt><trkpt lat="43.790996446285625" lon="10.2679844246601"><ele>0.0</ele><time>2026-04-05T10:32:24.999Z</time></trkpt><trkpt lat="43.79109761183335" lon="10.267964700796197"><ele>0.0</ele><time>2026-04-05T10:32:26.999Z</time></trkpt><trkpt lat="43.79119491357432" lon="10.267955568370091"><ele>0.0</ele><time>2026-04-05T10:32:28.999Z</time></trkpt><trkpt lat="43.79128767024263" lon="10.267971260052382"><ele>0.0</ele><time>2026-04-05T10:32:30.999Z</time></trkpt><trkpt lat="43.7913695052407" lon="10.26800237923722"><ele>0.0</ele><time>2026-04-05T10:32:32.999Z</time></trkpt><trkpt lat="43.7914345149447" lon="10.268038655919346"><ele>0.0</ele><time>2026-04-05T10:32:34.999Z</time></trkpt><trkpt lat="43.79149471860112" lon="10.26807808573356"><ele>0.0</ele><time>2026-04-05T10:32:36.999Z</time></trkpt><trkpt lat="43.791557876437" lon="10.26809494456198"><ele>0.0</ele><time>2026-04-05T10:32:38.999Z</time></trkpt><trkpt lat="43.791634260323804" lon="10.268081046963392"><ele>0.0</ele><time>2026-04-05T10:32:40.999Z</time></trkpt><trkpt lat="43.79170887581418" lon="10.268056581846489"><ele>0.0</ele><time>2026-04-05T10:32:42.999Z</time></trkpt><trkpt lat="43.791798195848976" lon="10.268027581834215"><ele>0.0</ele><time>2026-04-05T10:32:44.999Z</time></trkpt><trkpt lat="43.79189531630167" lon="10.267997641031801"><ele>0.0</ele><time>2026-04-05T10:32:46.999Z</time></trkpt><trkpt lat="43.791974550236205" lon="10.268010603494977"><ele>0.0</ele><time>2026-04-05T10:32:48.999Z</time></trkpt><trkpt lat="43.79206012926943" lon="10.268021889351704"><ele>-0.16666666666666666</ele><time>2026-04-05T10:32:50.999Z</time></trkpt><trkpt lat="43.792146783573294" lon="10.268030680152927"><ele>-0.3333333333333333</ele><time>2026-04-05T10:32:52.998Z</time></trkpt><trkpt lat="43.79222098684297" lon="10.268019508063873"><ele>-0.5</ele><time>2026-04-05T10:32:54.998Z</time></trkpt><trkpt lat="43.79230507322124" lon="10.268039976860525"><ele>-0.6666666666666666</ele><time>2026-04-05T10:32:56.998Z</time></trkpt><trkpt lat="43.792391545229286" lon="10.26801825735956"><ele>-0.8333333333333333</ele><time>2026-04-05T10:32:58.998Z</time></trkpt><trkpt lat="43.792476483837376" lon="10.267995056336096"><ele>-1.0</ele><time>2026-04-05T10:33:00.998Z</time></trkpt><trkpt lat="43.7925695313006" lon="10.267981169552067"><ele>-0.9999999999999999</ele><time>2026-04-05T10:33:02.998Z</time></trkpt><trkpt lat="43.792652580579926" lon="10.267986324428337"><ele>-1.0</ele><time>2026-04-05T10:33:04.998Z</time></trkpt><trkpt lat="43.7927251677115" lon="10.267982519000656"><ele>-1.0</ele><time>2026-04-05T10:33:06.998Z</time></trkpt><trkpt lat="43.792819600734184" lon="10.26796004573301"><ele>-1.0</ele><time>2026-04-05T10:33:09.998Z</time></trkpt><trkpt lat="43.79289112576328" lon="10.267978830164543"><ele>-0.9999999999999999</ele><time>2026-04-05T10:33:12Z</time></trkpt><trkpt lat="43.79296797468848" lon="10.267980778126681"><ele>-1.0</ele><time>2026-04-05T10:33:14Z</time></trkpt><trkpt lat="43.79304950089623" lon="10.267965579061235"><ele>-0.8</ele><time>2026-04-05T10:33:16Z</time></trkpt><trkpt lat="43.793132649532936" lon="10.26797995386176"><ele>-0.6000000000000001</ele><time>2026-04-05T10:33:18Z</time></trkpt><trkpt lat="43.793214165485274" lon="10.268012810397614"><ele>-0.4</ele><time>2026-04-05T10:33:20Z</time></trkpt><trkpt lat="43.79330629387386" lon="10.268027186063463"><ele>-0.2</ele><time>2026-04-05T10:33:22Z</time></trkpt><trkpt lat="43.79340249628243" lon="10.268019210117751"><ele>0.0</ele><time>2026-04-05T10:33:24Z</time></trkpt><trkpt lat="43.79349724954314" lon="10.268030747230865"><ele>0.0</ele><time>2026-04-05T10:33:26Z</time></trkpt><trkpt lat="43.79357980650531" lon="10.268031585208352"><ele>0.0</ele><time>2026-04-05T10:33:28Z</time></trkpt><trkpt lat="43.79365507883444" lon="10.268028317252455"><ele>0.0</ele><time>2026-04-05T10:33:30Z</time></trkpt><trkpt lat="43.79373593939352" lon="10.268034762522362"><ele>0.0</ele><time>2026-04-05T10:33:32Z</time></trkpt><trkpt lat="43.79381868261418" lon="10.268024673444575"><ele>0.0</ele><time>2026-04-05T10:33:34Z</time></trkpt><trkpt lat="43.79391079754034" lon="10.268011536987357"><ele>0.0</ele><time>2026-04-05T10:33:36Z</time></trkpt><trkpt lat="43.79401044960303" lon="10.268002260194654"><ele>0.0</ele><time>2026-04-05T10:33:38Z</time></trkpt><trkpt lat="43.794105909721075" lon="10.26795585802331"><ele>0.0</ele><time>2026-04-05T10:33:39.999Z</time></trkpt><trkpt lat="43.79420477528417" lon="10.267935615532284"><ele>0.0</ele><time>2026-04-05T10:33:41.999Z</time></trkpt><trkpt lat="43.79430263871559" lon="10.267922092031855"><ele>0.0</ele><time>2026-04-05T10:33:43.999Z</time></trkpt><trkpt lat="43.79440728798864" lon="10.267907332604176"><ele>0.0</ele><time>2026-04-05T10:33:45.999Z</time></trkpt><trkpt lat="43.79450906639005" lon="10.267887777166319"><ele>0.2</ele><time>2026-04-05T10:33:47.999Z</time></trkpt><trkpt lat="43.794613143429615" lon="10.267880379317047"><ele>0.4</ele><time>2026-04-05T10:33:49.999Z</time></trkpt><trkpt lat="43.79471854896558" lon="10.267866802879393"><ele>0.6000000000000001</ele><time>2026-04-05T10:33:51.999Z</time></trkpt><trkpt lat="43.794824809986025" lon="10.267853556036792"><ele>0.8</ele><time>2026-04-05T10:33:53.999Z</time></trkpt><trkpt lat="43.79493320829342" lon="10.267838012953764"><ele>1.0</ele><time>2026-04-05T10:33:55.999Z</time></trkpt><trkpt lat="43.79504327199376" lon="10.26781905421481"><ele>1.0</ele><time>2026-04-05T10:33:57.999Z</time></trkpt><trkpt lat="43.795155322202845" lon="10.267803191070955"><ele>1.0</ele><time>2026-04-05T10:33:59.999Z</time></trkpt><trkpt lat="43.7952682010173" lon="10.267788465387468"><ele>1.0</ele><time>2026-04-05T10:34:01.999Z</time></trkpt><trkpt lat="43.79538507575733" lon="10.26777280106557"><ele>1.0</ele><time>2026-04-05T10:34:03.999Z</time></trkpt><trkpt lat="43.79549467479326" lon="10.267755085617694"><ele>1.2000000000000002</ele><time>2026-04-05T10:34:05.999Z</time></trkpt><trkpt lat="43.795606968509915" lon="10.267741339717938"><ele>1.4000000000000001</ele><time>2026-04-05T10:34:07.999Z</time></trkpt><trkpt lat="43.79571654848317" lon="10.267718903719496"><ele>1.6</ele><time>2026-04-05T10:34:09.999Z</time></trkpt><trkpt lat="43.795828902638526" lon="10.267695944292319"><ele>1.8</ele><time>2026-04-05T10:34:11.999Z</time></trkpt><trkpt lat="43.79593960588092" lon="10.267676504041562"><ele>2.0</ele><time>2026-04-05T10:34:13.999Z</time></trkpt><trkpt lat="43.796047821924645" lon="10.267662653922839"><ele>2.2</ele><time>2026-04-05T10:34:15.999Z</time></trkpt><trkpt lat="43.79616112050855" lon="10.267653634353577"><ele>2.4000000000000004</ele><time>2026-04-05T10:34:17.999Z</time></trkpt><trkpt lat="43.79627489227815" lon="10.267638505097068"><ele>2.5999999999999996</ele><time>2026-04-05T10:34:19.999Z</time></trkpt><trkpt lat="43.79638347826025" lon="10.267620041029428"><ele>2.8</ele><time>2026-04-05T10:34:21.999Z</time></trkpt><trkpt lat="43.79649080526988" lon="10.26760221170265"><ele>3.0</ele><time>2026-04-05T10:34:23.998Z</time></trkpt><trkpt lat="43.796601030047164" lon="10.267589223754786"><ele>3.0</ele><time>2026-04-05T10:34:25.998Z</time></trkpt><trkpt lat="43.796706592069704" lon="10.267568293322812"><ele>3.0</ele><time>2026-04-05T10:34:27.998Z</time></trkpt><trkpt lat="43.79681588148755" lon="10.267554890081687"><ele>3.0</ele><time>2026-04-05T10:34:29.998Z</time></trkpt><trkpt lat="43.79692592595042" lon="10.26753708037868"><ele>3.0</ele><time>2026-04-05T10:34:31.998Z</time></trkpt><trkpt lat="43.79703451032455" lon="10.267519641373573"><ele>3.0</ele><time>2026-04-05T10:34:33.998Z</time></trkpt><trkpt lat="43.79714146467507" lon="10.267500471536188"><ele>3.0</ele><time>2026-04-05T10:34:35.998Z</time></trkpt><trkpt lat="43.797248487970194" lon="10.267480433564431"><ele>3.0</ele><time>2026-04-05T10:34:37.998Z</time></trkpt><trkpt lat="43.797351727380885" lon="10.267461649647627"><ele>3.0</ele><time>2026-04-05T10:34:39.998Z</time></trkpt><trkpt lat="43.79745843678017" lon="10.267439375084328"><ele>3.0</ele><time>2026-04-05T10:34:41.998Z</time></trkpt><trkpt lat="43.79755818880313" lon="10.267417603950642"><ele>3.0</ele><time>2026-04-05T10:34:43.998Z</time></trkpt><trkpt lat="43.79766803068278" lon="10.26738838476952"><ele>3.0</ele><time>2026-04-05T10:34:45.998Z</time></trkpt><trkpt lat="43.79777230585237" lon="10.267365987251939"><ele>3.0</ele><time>2026-04-05T10:34:47.998Z</time></trkpt><trkpt lat="43.79788319858454" lon="10.267339832802959"><ele>3.0</ele><time>2026-04-05T10:34:49.998Z</time></trkpt><trkpt lat="43.797993280463345" lon="10.267313063835289"><ele>3.0</ele><time>2026-04-05T10:34:51.998Z</time></trkpt><trkpt lat="43.79810017152872" lon="10.267289735971351"><ele>3.0</ele><time>2026-04-05T10:34:53.998Z</time></trkpt><trkpt lat="43.798208360991865" lon="10.267268197025905"><ele>2.8</ele><time>2026-04-05T10:34:55.998Z</time></trkpt><trkpt lat="43.798314907634534" lon="10.267237530038992"><ele>2.5999999999999996</ele><time>2026-04-05T10:34:57.998Z</time></trkpt><trkpt lat="43.79842446539122" lon="10.267215301133776"><ele>2.4000000000000004</ele><time>2026-04-05T10:34:59.998Z</time></trkpt><trkpt lat="43.798536229746965" lon="10.267188607973093"><ele>2.2</ele><time>2026-04-05T10:35:01.998Z</time></trkpt><trkpt lat="43.79864751297796" lon="10.267158415210186"><ele>2.0</ele><time>2026-04-05T10:35:03.998Z</time></trkpt><trkpt lat="43.7987616419745" lon="10.267137358075523"><ele>2.0</ele><time>2026-04-05T10:35:05.998Z</time></trkpt><trkpt lat="43.79887357283919" lon="10.267106920981595"><ele>2.0</ele><time>2026-04-05T10:35:07.998Z</time></trkpt><trkpt lat="43.79898438671715" lon="10.267082164647238"><ele>2.0</ele><time>2026-04-05T10:35:09.998Z</time></trkpt><trkpt lat="43.799087860317734" lon="10.267052729444062"><ele>2.0</ele><time>2026-04-05T10:35:11.998Z</time></trkpt><trkpt lat="43.79919536281015" lon="10.267025527713967"><ele>2.0</ele><time>2026-04-05T10:35:13.998Z</time></trkpt><trkpt lat="43.79930724839976" lon="10.266997922754907"><ele>1.75</ele><time>2026-04-05T10:35:15.998Z</time></trkpt><trkpt lat="43.79942295547614" lon="10.26697856381354"><ele>1.5</ele><time>2026-04-05T10:35:18Z</time></trkpt><trkpt lat="43.79953503820018" lon="10.266952780091986"><ele>1.25</ele><time>2026-04-05T10:35:20Z</time></trkpt><trkpt lat="43.79964860845882" lon="10.266923266762493"><ele>1.0</ele><time>2026-04-05T10:35:22Z</time></trkpt><trkpt lat="43.799758550588805" lon="10.266892380191669"><ele>1.0</ele><time>2026-04-05T10:35:24Z</time></trkpt><trkpt lat="43.79986988715034" lon="10.2668617309863"><ele>1.0</ele><time>2026-04-05T10:35:26Z</time></trkpt><trkpt lat="43.79997553467013" lon="10.266831493064851"><ele>1.0</ele><time>2026-04-05T10:35:28Z</time></trkpt><trkpt lat="43.8000837038398" lon="10.266804409643855"><ele>1.0</ele><time>2026-04-05T10:35:30Z</time></trkpt><trkpt lat="43.80019873127586" lon="10.26677960520062"><ele>1.0</ele><time>2026-04-05T10:35:32Z</time></trkpt><trkpt lat="43.8003133834008" lon="10.26675269286829"><ele>1.25</ele><time>2026-04-05T10:35:34Z</time></trkpt><trkpt lat="43.80042698963022" lon="10.266728352364588"><ele>1.5</ele><time>2026-04-05T10:35:36Z</time></trkpt><trkpt lat="43.800540967428475" lon="10.266703207168781"><ele>1.75</ele><time>2026-04-05T10:35:38Z</time></trkpt><trkpt lat="43.80065514837523" lon="10.26667581860318"><ele>2.0</ele><time>2026-04-05T10:35:40Z</time></trkpt><trkpt lat="43.800765007846" lon="10.266649690134772"><ele>2.0</ele><time>2026-04-05T10:35:42Z</time></trkpt><trkpt lat="43.80087372496081" lon="10.266622149254752"><ele>2.0</ele><time>2026-04-05T10:35:44Z</time></trkpt><trkpt lat="43.80099027078085" lon="10.266591700609077"><ele>2.0</ele><time>2026-04-05T10:35:46Z</time></trkpt><trkpt lat="43.801105234416156" lon="10.266562064314416"><ele>2.0</ele><time>2026-04-05T10:35:48Z</time></trkpt><trkpt lat="43.80122459368335" lon="10.266537843806345"><ele>1.75</ele><time>2026-04-05T10:35:50Z</time></trkpt><trkpt lat="43.801338347557014" lon="10.26650870460961"><ele>1.5</ele><time>2026-04-05T10:35:52Z</time></trkpt><trkpt lat="43.801455622320276" lon="10.266478480844533"><ele>1.25</ele><time>2026-04-05T10:35:54Z</time></trkpt><trkpt lat="43.801571484330246" lon="10.266451718686895"><ele>1.0</ele><time>2026-04-05T10:35:55.999Z</time></trkpt><trkpt lat="43.80168142051998" lon="10.266421433649535"><ele>1.0</ele><time>2026-04-05T10:35:57.999Z</time></trkpt><trkpt lat="43.80178839320063" lon="10.266392899315182"><ele>1.0</ele><time>2026-04-05T10:35:59.999Z</time></trkpt><trkpt lat="43.80189655851489" lon="10.266371045677396"><ele>1.0</ele><time>2026-04-05T10:36:01.999Z</time></trkpt><trkpt lat="43.80200146902613" lon="10.266337086526134"><ele>1.0</ele><time>2026-04-05T10:36:03.999Z</time></trkpt><trkpt lat="43.80210863439536" lon="10.266309496028518"><ele>1.0</ele><time>2026-04-05T10:36:05.999Z</time></trkpt><trkpt lat="43.802219431618106" lon="10.266282667052376"><ele>0.8</ele><time>2026-04-05T10:36:07.999Z</time></trkpt><trkpt lat="43.80233148392719" lon="10.266256154314977"><ele>0.6000000000000001</ele><time>2026-04-05T10:36:09.999Z</time></trkpt><trkpt lat="43.80243549375233" lon="10.2662247487703"><ele>0.4</ele><time>2026-04-05T10:36:11.999Z</time></trkpt><trkpt lat="43.802531479644735" lon="10.266198561715742"><ele>0.2</ele><time>2026-04-05T10:36:13.999Z</time></trkpt><trkpt lat="43.80261887056108" lon="10.266177539109126"><ele>0.0</ele><time>2026-04-05T10:36:15.999Z</time></trkpt><trkpt lat="43.80270757753108" lon="10.266154998000962"><ele>0.4</ele><time>2026-04-05T10:36:17.999Z</time></trkpt><trkpt lat="43.802802553073185" lon="10.266153734172189"><ele>0.8</ele><time>2026-04-05T10:36:19.999Z</time></trkpt><trkpt lat="43.8028990175807" lon="10.266115687936558"><ele>1.2000000000000002</ele><time>2026-04-05T10:36:21.999Z</time></trkpt><trkpt lat="43.802976319152386" lon="10.26613849380517"><ele>1.6</ele><time>2026-04-05T10:36:23.999Z</time></trkpt><trkpt lat="43.80307705168931" lon="10.266079544551182"><ele>2.0</ele><time>2026-04-05T10:36:28.999Z</time></trkpt><trkpt lat="43.80315955276937" lon="10.266057992444829"><ele>1.9999999999999998</ele><time>2026-04-05T10:36:30.999Z</time></trkpt><trkpt lat="43.80324887964004" lon="10.266054502745595"><ele>2.0</ele><time>2026-04-05T10:36:32.999Z</time></trkpt><trkpt lat="43.80333454627951" lon="10.266038816669722"><ele>2.0</ele><time>2026-04-05T10:36:34.999Z</time></trkpt><trkpt lat="43.80341649116035" lon="10.266002206247306"><ele>2.0</ele><time>2026-04-05T10:36:36.999Z</time></trkpt><trkpt lat="43.80350728125973" lon="10.265998969529525"><ele>1.9999999999999998</ele><time>2026-04-05T10:36:38.999Z</time></trkpt><trkpt lat="43.80359250009581" lon="10.265968456933537"><ele>2.0</ele><time>2026-04-05T10:36:40.999Z</time></trkpt><trkpt lat="43.803686337710815" lon="10.265954267173877"><ele>2.2</ele><time>2026-04-05T10:36:42.999Z</time></trkpt><trkpt lat="43.803775207128545" lon="10.26593131477408"><ele>2.4000000000000004</ele><time>2026-04-05T10:36:44.999Z</time></trkpt><trkpt lat="43.80386749068777" lon="10.265912672107232"><ele>2.5999999999999996</ele><time>2026-04-05T10:36:46.999Z</time></trkpt><trkpt lat="43.80396164668033" lon="10.265887081150039"><ele>2.8</ele><time>2026-04-05T10:36:48.999Z</time></trkpt><trkpt lat="43.80406130213236" lon="10.265860506364378"><ele>3.0</ele><time>2026-04-05T10:36:50.999Z</time></trkpt><trkpt lat="43.80416224590495" lon="10.26583358802414"><ele>3.0</ele><time>2026-04-05T10:36:52.998Z</time></trkpt><trkpt lat="43.80426146347457" lon="10.265792111946306"><ele>3.0</ele><time>2026-04-05T10:36:54.998Z</time></trkpt><trkpt lat="43.80436169041894" lon="10.265777919805375"><ele>3.0</ele><time>2026-04-05T10:36:56.998Z</time></trkpt><trkpt lat="43.80446300387494" lon="10.265753893707135"><ele>3.0</ele><time>2026-04-05T10:36:58.998Z</time></trkpt><trkpt lat="43.80456913620751" lon="10.265730602160136"><ele>3.0</ele><time>2026-04-05T10:37:00.998Z</time></trkpt><trkpt lat="43.80467268460378" lon="10.265699472234372"><ele>3.0</ele><time>2026-04-05T10:37:02.998Z</time></trkpt><trkpt lat="43.804778160042865" lon="10.26567033612399"><ele>3.0</ele><time>2026-04-05T10:37:04.998Z</time></trkpt><trkpt lat="43.80489113333726" lon="10.265649629672222"><ele>3.0</ele><time>2026-04-05T10:37:06.998Z</time></trkpt><trkpt lat="43.80500184171426" lon="10.265616726822868"><ele>3.0</ele><time>2026-04-05T10:37:08.998Z</time></trkpt><trkpt lat="43.80510896612287" lon="10.265597458471373"><ele>3.0</ele><time>2026-04-05T10:37:10.998Z</time></trkpt><trkpt lat="43.80521181578628" lon="10.265584483142353"><ele>2.8</ele><time>2026-04-05T10:37:12.998Z</time></trkpt><trkpt lat="43.80530793035411" lon="10.265557723083576"><ele>2.5999999999999996</ele><time>2026-04-05T10:37:14.998Z</time></trkpt><trkpt lat="43.80540036757592" lon="10.265545104176825"><ele>2.4000000000000004</ele><time>2026-04-05T10:37:16.998Z</time></trkpt><trkpt lat="43.80548125516743" lon="10.26551044617663"><ele>2.2</ele><time>2026-04-05T10:37:18.998Z</time></trkpt><trkpt lat="43.80557323636368" lon="10.265498893564537"><ele>2.0</ele><time>2026-04-05T10:37:20.998Z</time></trkpt><trkpt lat="43.80566716484428" lon="10.265472799293562"><ele>2.0</ele><time>2026-04-05T10:37:23Z</time></trkpt><trkpt lat="43.80575917329359" lon="10.265452669389646"><ele>2.0</ele><time>2026-04-05T10:37:25Z</time></trkpt><trkpt lat="43.805852023629335" lon="10.265423885630565"><ele>2.0</ele><time>2026-04-05T10:37:27Z</time></trkpt><trkpt lat="43.805951757471014" lon="10.265406082725539"><ele>2.0</ele><time>2026-04-05T10:37:29Z</time></trkpt><trkpt lat="43.806050639875394" lon="10.265396727533634"><ele>2.0</ele><time>2026-04-05T10:37:31Z</time></trkpt><trkpt lat="43.80614708466615" lon="10.265353725554895"><ele>2.2</ele><time>2026-04-05T10:37:33Z</time></trkpt><trkpt lat="43.806246247017285" lon="10.26531911316246"><ele>2.4000000000000004</ele><time>2026-04-05T10:37:35Z</time></trkpt><trkpt lat="43.806348697727294" lon="10.265293983812821"><ele>2.5999999999999996</ele><time>2026-04-05T10:37:37Z</time></trkpt><trkpt lat="43.80644763850725" lon="10.26528282688536"><ele>2.8</ele><time>2026-04-05T10:37:39Z</time></trkpt><trkpt lat="43.80654497182876" lon="10.265239070634719"><ele>3.0</ele><time>2026-04-05T10:37:41Z</time></trkpt><trkpt lat="43.80664474013754" lon="10.265207212522556"><ele>3.0</ele><time>2026-04-05T10:37:43Z</time></trkpt><trkpt lat="43.806746090540166" lon="10.265193352160455"><ele>3.0</ele><time>2026-04-05T10:37:45Z</time></trkpt><trkpt lat="43.8068509375501" lon="10.265173500245865"><ele>3.0</ele><time>2026-04-05T10:37:47Z</time></trkpt><trkpt lat="43.806952059285116" lon="10.265149064620209"><ele>3.0</ele><time>2026-04-05T10:37:49Z</time></trkpt><trkpt lat="43.8070519402133" lon="10.265108373974588"><ele>3.0</ele><time>2026-04-05T10:37:51Z</time></trkpt><trkpt lat="43.80715628257924" lon="10.265093195327868"><ele>3.0</ele><time>2026-04-05T10:37:53Z</time></trkpt><trkpt lat="43.80725176176078" lon="10.265071764480625"><ele>3.0</ele><time>2026-04-05T10:37:55Z</time></trkpt><trkpt lat="43.80735118311359" lon="10.265052939607214"><ele>3.0</ele><time>2026-04-05T10:37:57Z</time></trkpt><trkpt lat="43.80745442685461" lon="10.265047020729758"><ele>3.0</ele><time>2026-04-05T10:37:59Z</time></trkpt><trkpt lat="43.80756161435886" lon="10.265025333027328"><ele>3.0</ele><time>2026-04-05T10:38:01Z</time></trkpt><trkpt lat="43.80767292213771" lon="10.265006262668287"><ele>3.0</ele><time>2026-04-05T10:38:03Z</time></trkpt><trkpt lat="43.807789892664594" lon="10.264983041776327"><ele>3.0</ele><time>2026-04-05T10:38:05Z</time></trkpt><trkpt lat="43.807893519851234" lon="10.264955018329688"><ele>3.0</ele><time>2026-04-05T10:38:07Z</time></trkpt><trkpt lat="43.80799677938995" lon="10.264909669159538"><ele>3.0</ele><time>2026-04-05T10:38:08.999Z</time></trkpt><trkpt lat="43.80810878462211" lon="10.264906873398195"><ele>3.0</ele><time>2026-04-05T10:38:10.999Z</time></trkpt><trkpt lat="43.80821255776468" lon="10.264883663998969"><ele>3.0</ele><time>2026-04-05T10:38:12.999Z</time></trkpt><trkpt lat="43.80831486467492" lon="10.2648603902297"><ele>3.0</ele><time>2026-04-05T10:38:14.999Z</time></trkpt><trkpt lat="43.80841813397259" lon="10.264820542437615"><ele>3.0</ele><time>2026-04-05T10:38:16.999Z</time></trkpt><trkpt lat="43.80852560875866" lon="10.264797427929807"><ele>3.0</ele><time>2026-04-05T10:38:18.999Z</time></trkpt><trkpt lat="43.80863217054488" lon="10.264767934036524"><ele>3.0</ele><time>2026-04-05T10:38:20.999Z</time></trkpt><trkpt lat="43.8087268314056" lon="10.264768644382691"><ele>3.2</ele><time>2026-04-05T10:38:22.999Z</time></trkpt><trkpt lat="43.808812858662485" lon="10.264750007680387"><ele>3.4</ele><time>2026-04-05T10:38:24.999Z</time></trkpt><trkpt lat="43.80889789701439" lon="10.264731629876325"><ele>3.6000000000000005</ele><time>2026-04-05T10:38:26.999Z</time></trkpt><trkpt lat="43.8089844465793" lon="10.264712925473464"><ele>3.8000000000000003</ele><time>2026-04-05T10:38:28.999Z</time></trkpt><trkpt lat="43.80907553379655" lon="10.264677294899746"><ele>4.0</ele><time>2026-04-05T10:38:30.999Z</time></trkpt><trkpt lat="43.80917375689059" lon="10.264691250621093"><ele>4.0</ele><time>2026-04-05T10:38:32.999Z</time></trkpt><trkpt lat="43.80927224009988" lon="10.264664159375927"><ele>4.0</ele><time>2026-04-05T10:38:34.999Z</time></trkpt><trkpt lat="43.809357847356104" lon="10.264659496410701"><ele>4.0</ele><time>2026-04-05T10:38:36.999Z</time></trkpt><trkpt lat="43.80945417290185" lon="10.264636622624375"><ele>4.0</ele><time>2026-04-05T10:38:38.999Z</time></trkpt><trkpt lat="43.809545790722396" lon="10.264606885818639"><ele>4.0</ele><time>2026-04-05T10:38:40.999Z</time></trkpt><trkpt lat="43.80963501404948" lon="10.264575172268831"><ele>4.0</ele><time>2026-04-05T10:38:42.999Z</time></trkpt><trkpt lat="43.80973328394193" lon="10.26457912232463"><ele>4.0</ele><time>2026-04-05T10:38:44.999Z</time></trkpt><trkpt lat="43.80982912182977" lon="10.26456236624514"><ele>4.0</ele><time>2026-04-05T10:38:46.999Z</time></trkpt><trkpt lat="43.809926561746124" lon="10.264529168553475"><ele>4.0</ele><time>2026-04-05T10:38:48.999Z</time></trkpt><trkpt lat="43.81002692015597" lon="10.264516029865314"><ele>4.0</ele><time>2026-04-05T10:38:50.999Z</time></trkpt><trkpt lat="43.81012364877306" lon="10.264516866230638"><ele>3.8000000000000003</ele><time>2026-04-05T10:38:52.999Z</time></trkpt><trkpt lat="43.810206359579816" lon="10.264474843284715"><ele>3.6000000000000005</ele><time>2026-04-05T10:38:54.999Z</time></trkpt><trkpt lat="43.810299142218966" lon="10.264450478605301"><ele>3.4</ele><time>2026-04-05T10:38:56.999Z</time></trkpt><trkpt lat="43.810390040526656" lon="10.264425889463585"><ele>3.2</ele><time>2026-04-05T10:38:58.999Z</time></trkpt><trkpt lat="43.81047966529989" lon="10.264388955656418"><ele>3.0</ele><time>2026-04-05T10:39:00.998Z</time></trkpt><trkpt lat="43.81057435189269" lon="10.264377683814134"><ele>3.0</ele><time>2026-04-05T10:39:02.998Z</time></trkpt><trkpt lat="43.810670375760616" lon="10.26436342371808"><ele>3.0</ele><time>2026-04-05T10:39:04.998Z</time></trkpt><trkpt lat="43.81076639717417" lon="10.264335480023506"><ele>3.0</ele><time>2026-04-05T10:39:06.998Z</time></trkpt><trkpt lat="43.81086273218215" lon="10.264315516262494"><ele>3.0</ele><time>2026-04-05T10:39:08.998Z</time></trkpt><trkpt lat="43.81096189230152" lon="10.26428588436489"><ele>3.0</ele><time>2026-04-05T10:39:10.998Z</time></trkpt><trkpt lat="43.811060928631576" lon="10.264272953561623"><ele>2.8333333333333335</ele><time>2026-04-05T10:39:12.998Z</time></trkpt><trkpt lat="43.81114742884866" lon="10.264281200196352"><ele>2.6666666666666665</ele><time>2026-04-05T10:39:14.998Z</time></trkpt><trkpt lat="43.81123317055905" lon="10.264273851888957"><ele>2.5</ele><time>2026-04-05T10:39:16.998Z</time></trkpt><trkpt lat="43.8113072881142" lon="10.264244080771768"><ele>2.333333333333333</ele><time>2026-04-05T10:39:18.998Z</time></trkpt><trkpt lat="43.81137902644595" lon="10.264230866021585"><ele>2.1666666666666665</ele><time>2026-04-05T10:39:20.998Z</time></trkpt><trkpt lat="43.8114539968145" lon="10.26423368730676"><ele>2.0</ele><time>2026-04-05T10:39:22.998Z</time></trkpt><trkpt lat="43.811523413289684" lon="10.264200103883015"><ele>2.0</ele><time>2026-04-05T10:39:24.998Z</time></trkpt><trkpt lat="43.81159776684294" lon="10.26416964251382"><ele>2.0</ele><time>2026-04-05T10:39:26.998Z</time></trkpt><trkpt lat="43.8116887558815" lon="10.264128198308894"><ele>2.0</ele><time>2026-04-05T10:39:29Z</time></trkpt><trkpt lat="43.81178446725879" lon="10.264074396711782"><ele>2.0</ele><time>2026-04-05T10:39:31Z</time></trkpt><trkpt lat="43.81189098708778" lon="10.264052899456173"><ele>2.0</ele><time>2026-04-05T10:39:33Z</time></trkpt><trkpt lat="43.81199650641689" lon="10.264038777393036"><ele>2.8</ele><time>2026-04-05T10:39:35Z</time></trkpt><trkpt lat="43.81210120472828" lon="10.264039238574144"><ele>3.6</ele><time>2026-04-05T10:39:37Z</time></trkpt><trkpt lat="43.812204005517046" lon="10.26403945349192"><ele>4.3999999999999995</ele><time>2026-04-05T10:39:39Z</time></trkpt><trkpt lat="43.812298648659684" lon="10.264031674879206"><ele>5.2</ele><time>2026-04-05T10:39:41Z</time></trkpt><trkpt lat="43.81239448889335" lon="10.264002249195448"><ele>6.0</ele><time>2026-04-05T10:39:43Z</time></trkpt><trkpt lat="43.81249765072906" lon="10.263989639787336"><ele>5.5</ele><time>2026-04-05T10:39:45Z</time></trkpt><trkpt lat="43.81259205914287" lon="10.263945317464492"><ele>5.0</ele><time>2026-04-05T10:39:47Z</time></trkpt><trkpt lat="43.812674201571134" lon="10.26394006020485"><ele>4.5</ele><time>2026-04-05T10:39:49Z</time></trkpt><trkpt lat="43.8127529979314" lon="10.263896800663167"><ele>4.0</ele><time>2026-04-05T10:39:51Z</time></trkpt><trkpt lat="43.812829660343596" lon="10.263898222309923"><ele>3.5</ele><time>2026-04-05T10:39:53Z</time></trkpt><trkpt lat="43.81291958358705" lon="10.263900648731578"><ele>3.0</ele><time>2026-04-05T10:39:55Z</time></trkpt><trkpt lat="43.81300114367785" lon="10.263843675007323"><ele>2.6</ele><time>2026-04-05T10:39:57Z</time></trkpt><trkpt lat="43.813090454373516" lon="10.263825783674557"><ele>2.1999999999999997</ele><time>2026-04-05T10:39:59Z</time></trkpt><trkpt lat="43.813177779572534" lon="10.263785706759737"><ele>1.8</ele><time>2026-04-05T10:40:01Z</time></trkpt><trkpt lat="43.81326929627004" lon="10.263778556008356"><ele>1.4</ele><time>2026-04-05T10:40:03Z</time></trkpt><trkpt lat="43.813362357629124" lon="10.263795625646486"><ele>1.0</ele><time>2026-04-05T10:40:05Z</time></trkpt><trkpt lat="43.81345207411889" lon="10.263760899416017"><ele>1.3333333333333333</ele><time>2026-04-05T10:40:07Z</time></trkpt><trkpt lat="43.81352373330617" lon="10.263737586437639"><ele>1.6666666666666665</ele><time>2026-04-05T10:40:09Z</time></trkpt><trkpt lat="43.81359823008809" lon="10.263701403020525"><ele>2.0</ele><time>2026-04-05T10:40:11Z</time></trkpt><trkpt lat="43.813664329960254" lon="10.263664920819963"><ele>2.3333333333333335</ele><time>2026-04-05T10:40:13Z</time></trkpt><trkpt lat="43.81374739077574" lon="10.263647351524915"><ele>2.6666666666666665</ele><time>2026-04-05T10:40:14.999Z</time></trkpt><trkpt lat="43.81383457966987" lon="10.263628018390781"><ele>3.0</ele><time>2026-04-05T10:40:16.999Z</time></trkpt><trkpt lat="43.81391644764298" lon="10.263575915712348"><ele>3.0</ele><time>2026-04-05T10:40:18.999Z</time></trkpt><trkpt lat="43.814005978073766" lon="10.263528679890463"><ele>3.0</ele><time>2026-04-05T10:40:20.999Z</time></trkpt><trkpt lat="43.81410510306118" lon="10.26351293420096"><ele>3.0</ele><time>2026-04-05T10:40:22.999Z</time></trkpt><trkpt lat="43.81420306591512" lon="10.263483469703274"><ele>3.0</ele><time>2026-04-05T10:40:24.999Z</time></trkpt><trkpt lat="43.81430295783223" lon="10.263462449249444"><ele>3.0</ele><time>2026-04-05T10:40:26.999Z</time></trkpt><trkpt lat="43.814397436313996" lon="10.263427769184043"><ele>3.0</ele><time>2026-04-05T10:40:28.999Z</time></trkpt><trkpt lat="43.81449477022975" lon="10.263408596653948"><ele>3.0</ele><time>2026-04-05T10:40:30.999Z</time></trkpt><trkpt lat="43.81459374089562" lon="10.263392346768788"><ele>3.0</ele><time>2026-04-05T10:40:32.999Z</time></trkpt><trkpt lat="43.814694315173746" lon="10.263404211114244"><ele>3.0</ele><time>2026-04-05T10:40:34.999Z</time></trkpt><trkpt lat="43.814794273978535" lon="10.263401809882254"><ele>3.0</ele><time>2026-04-05T10:40:36.999Z</time></trkpt><trkpt lat="43.81489108945617" lon="10.263394696278025"><ele>3.0</ele><time>2026-04-05T10:40:38.999Z</time></trkpt><trkpt lat="43.81497489040815" lon="10.263343843077866"><ele>3.0</ele><time>2026-04-05T10:40:40.999Z</time></trkpt><trkpt lat="43.81504234205781" lon="10.263311521965413"><ele>3.0</ele><time>2026-04-05T10:40:42.999Z</time></trkpt><trkpt lat="43.8151073713464" lon="10.263241314738279"><ele>3.0</ele><time>2026-04-05T10:40:44.999Z</time></trkpt><trkpt lat="43.81517456930272" lon="10.263177429899901"><ele>3.0</ele><time>2026-04-05T10:40:46.999Z</time></trkpt><trkpt lat="43.81526668345417" lon="10.263204850390332"><ele>3.0</ele><time>2026-04-05T10:40:48.999Z</time></trkpt><trkpt lat="43.81535666361046" lon="10.263173370127738"><ele>2.8</ele><time>2026-04-05T10:40:50.999Z</time></trkpt><trkpt lat="43.815451533328655" lon="10.26316611783128"><ele>2.5999999999999996</ele><time>2026-04-05T10:40:52.999Z</time></trkpt><trkpt lat="43.815540618071985" lon="10.263144907945021"><ele>2.4000000000000004</ele><time>2026-04-05T10:40:54.999Z</time></trkpt><trkpt lat="43.81563954189894" lon="10.263129217663236"><ele>2.2</ele><time>2026-04-05T10:40:56.999Z</time></trkpt><trkpt lat="43.8157288675954" lon="10.26309946469186"><ele>2.0</ele><time>2026-04-05T10:40:58.999Z</time></trkpt><trkpt lat="43.81582505306629" lon="10.2630769246015"><ele>1.8333333333333333</ele><time>2026-04-05T10:41:00.999Z</time></trkpt><trkpt lat="43.815901365977744" lon="10.26305705760981"><ele>1.6666666666666665</ele><time>2026-04-05T10:41:02.999Z</time></trkpt><trkpt lat="43.815982101757015" lon="10.263036736147718"><ele>1.5</ele><time>2026-04-05T10:41:04.998Z</time></trkpt><trkpt lat="43.8160738670241" lon="10.263031560064888"><ele>1.3333333333333333</ele><time>2026-04-05T10:41:07.998Z</time></trkpt><trkpt lat="43.81615834687391" lon="10.263011982418211"><ele>1.1666666666666665</ele><time>2026-04-05T10:41:09.998Z</time></trkpt><trkpt lat="43.81623872754105" lon="10.262982158925826"><ele>1.0</ele><time>2026-04-05T10:41:11.998Z</time></trkpt><trkpt lat="43.81632634167228" lon="10.26296749172233"><ele>0.9999999999999999</ele><time>2026-04-05T10:41:13.998Z</time></trkpt><trkpt lat="43.81641264602577" lon="10.262925665572634"><ele>1.0</ele><time>2026-04-05T10:41:15.998Z</time></trkpt><trkpt lat="43.81650313139922" lon="10.26292574064675"><ele>1.0</ele><time>2026-04-05T10:41:17.998Z</time></trkpt><trkpt lat="43.81658758537195" lon="10.262889091074596"><ele>1.0</ele><time>2026-04-05T10:41:19.998Z</time></trkpt><trkpt lat="43.81666871511471" lon="10.262884796712923"><ele>0.9999999999999999</ele><time>2026-04-05T10:41:21.998Z</time></trkpt><trkpt lat="43.81674695637864" lon="10.262862224220228"><ele>1.0</ele><time>2026-04-05T10:41:23.998Z</time></trkpt><trkpt lat="43.816809399165365" lon="10.262805146171013"><ele>1.1666666666666665</ele><time>2026-04-05T10:41:25.998Z</time></trkpt><trkpt lat="43.81687244919093" lon="10.262798432052236"><ele>1.3333333333333333</ele><time>2026-04-05T10:41:27.998Z</time></trkpt><trkpt lat="43.81693710777059" lon="10.262785009988459"><ele>1.5</ele><time>2026-04-05T10:41:29.998Z</time></trkpt><trkpt lat="43.817026365595396" lon="10.262741956846218"><ele>1.6666666666666665</ele><time>2026-04-05T10:41:32.998Z</time></trkpt><trkpt lat="43.81710342243091" lon="10.2627347947266"><ele>1.8333333333333333</ele><time>2026-04-05T10:41:35Z</time></trkpt><trkpt lat="43.81718879777895" lon="10.262717149299014"><ele>2.0</ele><time>2026-04-05T10:41:37Z</time></trkpt><trkpt lat="43.81727933964888" lon="10.262697164122331"><ele>1.9999999999999998</ele><time>2026-04-05T10:41:39Z</time></trkpt><trkpt lat="43.8173724196686" lon="10.26268070595566"><ele>2.0</ele><time>2026-04-05T10:41:41Z</time></trkpt><trkpt lat="43.81746706407304" lon="10.26268012558909"><ele>2.0</ele><time>2026-04-05T10:41:43Z</time></trkpt><trkpt lat="43.81754928260416" lon="10.262652141491373"><ele>2.0</ele><time>2026-04-05T10:41:45Z</time></trkpt><trkpt lat="43.8176265119939" lon="10.262616914517501"><ele>1.9999999999999998</ele><time>2026-04-05T10:41:47Z</time></trkpt><trkpt lat="43.81770147662128" lon="10.262595314248479"><ele>2.0</ele><time>2026-04-05T10:41:49Z</time></trkpt><trkpt lat="43.81777117370982" lon="10.26256841949607"><ele>1.8333333333333333</ele><time>2026-04-05T10:41:51Z</time></trkpt><trkpt lat="43.81783993077842" lon="10.262551648347603"><ele>1.6666666666666665</ele><time>2026-04-05T10:41:53Z</time></trkpt><trkpt lat="43.81792454180734" lon="10.262539485577163"><ele>1.5</ele><time>2026-04-05T10:41:55Z</time></trkpt><trkpt lat="43.818014981176695" lon="10.262526115392506"><ele>1.3333333333333333</ele><time>2026-04-05T10:41:57Z</time></trkpt><trkpt lat="43.81810853047543" lon="10.262500633518519"><ele>1.1666666666666665</ele><time>2026-04-05T10:41:59Z</time></trkpt><trkpt lat="43.81821643290142" lon="10.262489789212509"><ele>1.0</ele><time>2026-04-05T10:42:01Z</time></trkpt><trkpt lat="43.81829926237352" lon="10.262488035775752"><ele>0.9999999999999999</ele><time>2026-04-05T10:42:03Z</time></trkpt><trkpt lat="43.81837800690319" lon="10.26244066300086"><ele>1.0</ele><time>2026-04-05T10:42:05Z</time></trkpt><trkpt lat="43.81846470328896" lon="10.262411238208049"><ele>1.0</ele><time>2026-04-05T10:42:07Z</time></trkpt><trkpt lat="43.818563927333614" lon="10.26238053514936"><ele>1.0</ele><time>2026-04-05T10:42:09Z</time></trkpt><trkpt lat="43.818654528093376" lon="10.262362767856294"><ele>0.9999999999999999</ele><time>2026-04-05T10:42:11Z</time></trkpt><trkpt lat="43.818730708177426" lon="10.262356591017836"><ele>1.0</ele><time>2026-04-05T10:42:13Z</time></trkpt><trkpt lat="43.81881680339563" lon="10.262378257524942"><ele>1.4</ele><time>2026-04-05T10:42:16Z</time></trkpt><trkpt lat="43.81889094545994" lon="10.26236474133032"><ele>1.8</ele><time>2026-04-05T10:42:38.999Z</time></trkpt><trkpt lat="43.81892464488575" lon="10.262512912373497"><ele>2.1999999999999997</ele><time>2026-04-05T10:42:41.999Z</time></trkpt><trkpt lat="43.818960289107785" lon="10.262618298259586"><ele>2.6</ele><time>2026-04-05T10:42:43.999Z</time></trkpt><trkpt lat="43.81899368413174" lon="10.262733008549763"><ele>3.0</ele><time>2026-04-05T10:42:45.999Z</time></trkpt><trkpt lat="43.81903908766238" lon="10.262854651398126"><ele>3.0</ele><time>2026-04-05T10:42:47.999Z</time></trkpt><trkpt lat="43.81908117121849" lon="10.262990113987703"><ele>3.0</ele><time>2026-04-05T10:42:49.999Z</time></trkpt><trkpt lat="43.81912451229502" lon="10.263127098167109"><ele>3.0</ele><time>2026-04-05T10:42:51.999Z</time></trkpt><trkpt lat="43.81916908026074" lon="10.263264703574745"><ele>3.0</ele><time>2026-04-05T10:42:53.999Z</time></trkpt><trkpt lat="43.81921619143482" lon="10.263415051722347"><ele>3.0</ele><time>2026-04-05T10:42:55.999Z</time></trkpt><trkpt lat="43.819266518544474" lon="10.263565168364574"><ele>3.0</ele><time>2026-04-05T10:42:57.999Z</time></trkpt><trkpt lat="43.81931998897577" lon="10.26371561095106"><ele>3.0</ele><time>2026-04-05T10:42:59.999Z</time></trkpt><trkpt lat="43.81937646246588" lon="10.263867775889667"><ele>3.0</ele><time>2026-04-05T10:43:01.999Z</time></trkpt><trkpt lat="43.819427170520825" lon="10.264025004593751"><ele>3.0</ele><time>2026-04-05T10:43:03.999Z</time></trkpt><trkpt lat="43.819452184675704" lon="10.264111044412465"><ele>3.0</ele><time>2026-04-05T10:43:04.999Z</time></trkpt><trkpt lat="43.81948034584476" lon="10.264194559317755"><ele>3.3333333333333335</ele><time>2026-04-05T10:43:05.999Z</time></trkpt><trkpt lat="43.81949926571564" lon="10.264283633016007"><ele>3.666666666666667</ele><time>2026-04-05T10:43:06.999Z</time></trkpt><trkpt lat="43.819524509957034" lon="10.264366016793474"><ele>4.0</ele><time>2026-04-05T10:43:07.999Z</time></trkpt><trkpt lat="43.81955229389029" lon="10.264448607289665"><ele>4.333333333333334</ele><time>2026-04-05T10:43:08.999Z</time></trkpt><trkpt lat="43.81959881916387" lon="10.264609208463687"><ele>4.666666666666667</ele><time>2026-04-05T10:43:10.998Z</time></trkpt><trkpt lat="43.81962671490762" lon="10.264691030248018"><ele>5.0</ele><time>2026-04-05T10:43:11.998Z</time></trkpt><trkpt lat="43.81965550582081" lon="10.264775633915146"><ele>5.142857142857142</ele><time>2026-04-05T10:43:12.998Z</time></trkpt><trkpt lat="43.819684233836696" lon="10.264864069898763"><ele>5.285714285714286</ele><time>2026-04-05T10:43:13.998Z</time></trkpt><trkpt lat="43.81971127435072" lon="10.264950906930055"><ele>5.428571428571429</ele><time>2026-04-05T10:43:14.998Z</time></trkpt><trkpt lat="43.81974023863251" lon="10.26503551530228"><ele>5.571428571428571</ele><time>2026-04-05T10:43:15.998Z</time></trkpt><trkpt lat="43.81976955764994" lon="10.265125044888368"><ele>5.714285714285714</ele><time>2026-04-05T10:43:16.998Z</time></trkpt><trkpt lat="43.81980023034308" lon="10.265215006974719"><ele>5.857142857142857</ele><time>2026-04-05T10:43:17.998Z</time></trkpt><trkpt lat="43.81983263764062" lon="10.26530308139072"><ele>6.0</ele><time>2026-04-05T10:43:18.998Z</time></trkpt><trkpt lat="43.81984907933171" lon="10.265409872216875"><ele>5.999999999999999</ele><time>2026-04-05T10:43:19.998Z</time></trkpt><trkpt lat="43.81987879017522" lon="10.26550433717621"><ele>6.0</ele><time>2026-04-05T10:43:20.998Z</time></trkpt><trkpt lat="43.819907674980044" lon="10.265596175797794"><ele>6.0</ele><time>2026-04-05T10:43:21.998Z</time></trkpt><trkpt lat="43.81993826062814" lon="10.265693422208289"><ele>6.0</ele><time>2026-04-05T10:43:22.998Z</time></trkpt><trkpt lat="43.81998244779434" lon="10.265777469643172"><ele>6.0</ele><time>2026-04-05T10:43:23.998Z</time></trkpt><trkpt lat="43.820010905746784" lon="10.265870361559024"><ele>5.999999999999999</ele><time>2026-04-05T10:43:24.998Z</time></trkpt><trkpt lat="43.82003779248435" lon="10.26596463173547"><ele>6.0</ele><time>2026-04-05T10:43:25.998Z</time></trkpt><trkpt lat="43.82006721064552" lon="10.266059778026209"><ele>6.428571428571428</ele><time>2026-04-05T10:43:26.998Z</time></trkpt><trkpt lat="43.820094388915926" lon="10.266155468972956"><ele>6.857142857142858</ele><time>2026-04-05T10:43:27.998Z</time></trkpt><trkpt lat="43.82011812293902" lon="10.266249470401444"><ele>7.2857142857142865</ele><time>2026-04-05T10:43:28.998Z</time></trkpt><trkpt lat="43.820147063394806" lon="10.266347326227953"><ele>7.714285714285714</ele><time>2026-04-05T10:43:29.998Z</time></trkpt><trkpt lat="43.820177121283464" lon="10.266439964374305"><ele>8.142857142857142</ele><time>2026-04-05T10:43:30.998Z</time></trkpt><trkpt lat="43.820204395053175" lon="10.26653128358419"><ele>8.571428571428573</ele><time>2026-04-05T10:43:31.998Z</time></trkpt><trkpt lat="43.82023301698386" lon="10.26662444371271"><ele>9.0</ele><time>2026-04-05T10:43:32.998Z</time></trkpt><trkpt lat="43.82026050790976" lon="10.26671352192356"><ele>9.000000000000002</ele><time>2026-04-05T10:43:33.998Z</time></trkpt><trkpt lat="43.820286966757294" lon="10.266806009975904"><ele>9.0</ele><time>2026-04-05T10:43:34.998Z</time></trkpt><trkpt lat="43.82031544027547" lon="10.266898785715519"><ele>9.0</ele><time>2026-04-05T10:43:35.998Z</time></trkpt><trkpt lat="43.82034207351189" lon="10.266983599097621"><ele>9.0</ele><time>2026-04-05T10:43:36.998Z</time></trkpt><trkpt lat="43.8203711758465" lon="10.26707316968421"><ele>9.0</ele><time>2026-04-05T10:43:37.998Z</time></trkpt><trkpt lat="43.8203994123241" lon="10.267162929224229"><ele>9.000000000000002</ele><time>2026-04-05T10:43:38.998Z</time></trkpt><trkpt lat="43.820430315937756" lon="10.267249652287674"><ele>9.0</ele><time>2026-04-05T10:43:39.998Z</time></trkpt><trkpt lat="43.82045852807602" lon="10.267339467179877"><ele>9.142857142857144</ele><time>2026-04-05T10:43:41Z</time></trkpt><trkpt lat="43.82048619142428" lon="10.26742844024564"><ele>9.285714285714286</ele><time>2026-04-05T10:43:42Z</time></trkpt><trkpt lat="43.820515615997955" lon="10.267517589745298"><ele>9.428571428571429</ele><time>2026-04-05T10:43:43Z</time></trkpt><trkpt lat="43.82054256438385" lon="10.267609200365229"><ele>9.571428571428573</ele><time>2026-04-05T10:43:44Z</time></trkpt><trkpt lat="43.82056961113257" lon="10.267701138526808"><ele>9.714285714285715</ele><time>2026-04-05T10:43:45Z</time></trkpt><trkpt lat="43.820598490870275" lon="10.2677971540259"><ele>9.857142857142858</ele><time>2026-04-05T10:43:46Z</time></trkpt><trkpt lat="43.82062810359713" lon="10.26788430814291"><ele>10.0</ele><time>2026-04-05T10:43:47Z</time></trkpt><trkpt lat="43.8206564826588" lon="10.267970662888096"><ele>10.0</ele><time>2026-04-05T10:43:48Z</time></trkpt><trkpt lat="43.82068298958079" lon="10.26805933899898"><ele>10.0</ele><time>2026-04-05T10:43:49Z</time></trkpt><trkpt lat="43.8207117430998" lon="10.268149460074905"><ele>10.0</ele><time>2026-04-05T10:43:50Z</time></trkpt><trkpt lat="43.820741874907995" lon="10.268240543652928"><ele>10.0</ele><time>2026-04-05T10:43:51Z</time></trkpt><trkpt lat="43.82076714257876" lon="10.268325778678143"><ele>10.0</ele><time>2026-04-05T10:43:52Z</time></trkpt><trkpt lat="43.820794213361935" lon="10.268415022071169"><ele>10.0</ele><time>2026-04-05T10:43:53Z</time></trkpt><trkpt lat="43.82082401118464" lon="10.268503270214604"><ele>10.0</ele><time>2026-04-05T10:43:54Z</time></trkpt><trkpt lat="43.8208539831114" lon="10.268592552849515"><ele>10.142857142857142</ele><time>2026-04-05T10:43:55Z</time></trkpt><trkpt lat="43.82088255231604" lon="10.26868099673358"><ele>10.285714285714286</ele><time>2026-04-05T10:43:56Z</time></trkpt><trkpt lat="43.82091056913338" lon="10.268771493748396"><ele>10.428571428571429</ele><time>2026-04-05T10:43:57Z</time></trkpt><trkpt lat="43.82093922567092" lon="10.268860502553235"><ele>10.571428571428571</ele><time>2026-04-05T10:43:58Z</time></trkpt><trkpt lat="43.82096922944303" lon="10.26895083391137"><ele>10.714285714285714</ele><time>2026-04-05T10:43:59Z</time></trkpt><trkpt lat="43.821000392203146" lon="10.26903731811844"><ele>10.857142857142858</ele><time>2026-04-05T10:44:00Z</time></trkpt><trkpt lat="43.82102803300037" lon="10.269123724099634"><ele>11.0</ele><time>2026-04-05T10:44:01Z</time></trkpt><trkpt lat="43.82105967732265" lon="10.269212304044917"><ele>11.0</ele><time>2026-04-05T10:44:02Z</time></trkpt><trkpt lat="43.82109073813768" lon="10.269305081908753"><ele>11.0</ele><time>2026-04-05T10:44:03Z</time></trkpt><trkpt lat="43.82111350726574" lon="10.26939206175779"><ele>11.0</ele><time>2026-04-05T10:44:04Z</time></trkpt><trkpt lat="43.82114135464432" lon="10.26948145838065"><ele>11.0</ele><time>2026-04-05T10:44:05Z</time></trkpt><trkpt lat="43.821169768856116" lon="10.269571696527285"><ele>11.0</ele><time>2026-04-05T10:44:06Z</time></trkpt><trkpt lat="43.82119857843887" lon="10.269659943974702"><ele>11.0</ele><time>2026-04-05T10:44:07Z</time></trkpt><trkpt lat="43.82122210175259" lon="10.269743416162514"><ele>11.0</ele><time>2026-04-05T10:44:08Z</time></trkpt><trkpt lat="43.821246706987154" lon="10.269832911041785"><ele>11.0</ele><time>2026-04-05T10:44:09Z</time></trkpt><trkpt lat="43.82127256310994" lon="10.269917112789534"><ele>11.0</ele><time>2026-04-05T10:44:10Z</time></trkpt><trkpt lat="43.821299061633276" lon="10.27000332288017"><ele>11.0</ele><time>2026-04-05T10:44:11Z</time></trkpt><trkpt lat="43.82132504201832" lon="10.270085522866752"><ele>11.0</ele><time>2026-04-05T10:44:12Z</time></trkpt><trkpt lat="43.82135168843107" lon="10.27017088487467"><ele>11.0</ele><time>2026-04-05T10:44:13Z</time></trkpt><trkpt lat="43.82137692926471" lon="10.270255336627288"><ele>11.0</ele><time>2026-04-05T10:44:14Z</time></trkpt><trkpt lat="43.821401310143905" lon="10.270339717225248"><ele>11.0</ele><time>2026-04-05T10:44:15Z</time></trkpt><trkpt lat="43.82142952536759" lon="10.27041994119791"><ele>11.0</ele><time>2026-04-05T10:44:16Z</time></trkpt><trkpt lat="43.82145756029165" lon="10.270501604480105"><ele>11.0</ele><time>2026-04-05T10:44:17Z</time></trkpt><trkpt lat="43.82148532389823" lon="10.270583817718748"><ele>11.0</ele><time>2026-04-05T10:44:18Z</time></trkpt><trkpt lat="43.82153817607317" lon="10.270742003210684"><ele>11.0</ele><time>2026-04-05T10:44:20Z</time></trkpt><trkpt lat="43.82156543239327" lon="10.2708214083751"><ele>11.0</ele><time>2026-04-05T10:44:21Z</time></trkpt><trkpt lat="43.82158211803161" lon="10.270905956590259"><ele>11.0</ele><time>2026-04-05T10:44:22Z</time></trkpt><trkpt lat="43.82160385935366" lon="10.270990291582748"><ele>11.0</ele><time>2026-04-05T10:44:23Z</time></trkpt><trkpt lat="43.82163208706449" lon="10.27107252324606"><ele>10.714285714285715</ele><time>2026-04-05T10:44:23.999Z</time></trkpt><trkpt lat="43.8216544456159" lon="10.271155733427"><ele>10.428571428571429</ele><time>2026-04-05T10:44:24.999Z</time></trkpt><trkpt lat="43.8216902045257" lon="10.271237452705368"><ele>10.142857142857142</ele><time>2026-04-05T10:44:25.999Z</time></trkpt><trkpt lat="43.82171616655757" lon="10.27132181267966"><ele>9.857142857142858</ele><time>2026-04-05T10:44:26.999Z</time></trkpt><trkpt lat="43.82174060519816" lon="10.271403492567348"><ele>9.571428571428571</ele><time>2026-04-05T10:44:27.999Z</time></trkpt><trkpt lat="43.82176664475141" lon="10.271484687703332"><ele>9.285714285714286</ele><time>2026-04-05T10:44:28.999Z</time></trkpt><trkpt lat="43.821793245273" lon="10.271568759221912"><ele>9.0</ele><time>2026-04-05T10:44:29.999Z</time></trkpt><trkpt lat="43.82182214874779" lon="10.27164643404485"><ele>9.0</ele><time>2026-04-05T10:44:30.999Z</time></trkpt><trkpt lat="43.82186793711398" lon="10.271809967997145"><ele>9.0</ele><time>2026-04-05T10:44:32.999Z</time></trkpt><trkpt lat="43.8218959425923" lon="10.271893607770188"><ele>9.0</ele><time>2026-04-05T10:44:33.999Z</time></trkpt><trkpt lat="43.82194685745815" lon="10.272049277192194"><ele>9.0</ele><time>2026-04-05T10:44:35.999Z</time></trkpt><trkpt lat="43.821994701831244" lon="10.272208424226847"><ele>9.0</ele><time>2026-04-05T10:44:37.999Z</time></trkpt><trkpt lat="43.8220473700811" lon="10.272368089339231"><ele>9.166666666666666</ele><time>2026-04-05T10:44:39.999Z</time></trkpt><trkpt lat="43.82207575053882" lon="10.272447536730969"><ele>9.333333333333334</ele><time>2026-04-05T10:44:40.999Z</time></trkpt><trkpt lat="43.822124926478594" lon="10.272604315117315"><ele>9.5</ele><time>2026-04-05T10:44:42.999Z</time></trkpt><trkpt lat="43.822145192377384" lon="10.272688094032194"><ele>9.666666666666668</ele><time>2026-04-05T10:44:43.999Z</time></trkpt><trkpt lat="43.8221691992759" lon="10.272771946576153"><ele>9.833333333333334</ele><time>2026-04-05T10:44:44.999Z</time></trkpt><trkpt lat="43.82222155565626" lon="10.272933110177833"><ele>10.0</ele><time>2026-04-05T10:44:46.999Z</time></trkpt><trkpt lat="43.82227116468403" lon="10.273090871931636"><ele>9.5</ele><time>2026-04-05T10:44:48.999Z</time></trkpt><trkpt lat="43.82232073431411" lon="10.273242644887285"><ele>9.0</ele><time>2026-04-05T10:44:50.999Z</time></trkpt><trkpt lat="43.822367747485885" lon="10.273399115624983"><ele>8.5</ele><time>2026-04-05T10:44:52.999Z</time></trkpt><trkpt lat="43.82241346021336" lon="10.27354846230009"><ele>8.0</ele><time>2026-04-05T10:44:54.999Z</time></trkpt><trkpt lat="43.822456570787864" lon="10.27368828033926"><ele>8.0</ele><time>2026-04-05T10:44:56.999Z</time></trkpt><trkpt lat="43.82249327413816" lon="10.273812245459537"><ele>8.0</ele><time>2026-04-05T10:44:58.999Z</time></trkpt><trkpt lat="43.82253594796" lon="10.273936258129297"><ele>8.0</ele><time>2026-04-05T10:45:00.999Z</time></trkpt><trkpt lat="43.822584819708155" lon="10.27405267030765"><ele>8.0</ele><time>2026-04-05T10:45:02.999Z</time></trkpt><trkpt lat="43.822607498970896" lon="10.274170707036191"><ele>8.0</ele><time>2026-04-05T10:45:04.999Z</time></trkpt><trkpt lat="43.82263755564989" lon="10.274261964124658"><ele>8.166666666666666</ele><time>2026-04-05T10:45:06.999Z</time></trkpt><trkpt lat="43.82275989665041" lon="10.274195850400247"><ele>8.333333333333332</ele><time>2026-04-05T10:45:09.999Z</time></trkpt><trkpt lat="43.82283079566146" lon="10.274120837962489"><ele>8.5</ele><time>2026-04-05T10:45:12.998Z</time></trkpt><trkpt lat="43.82291167837751" lon="10.274122114072753"><ele>8.666666666666666</ele><time>2026-04-05T10:45:14.998Z</time></trkpt><trkpt lat="43.822976908992125" lon="10.274100359874517"><ele>8.833333333333334</ele><time>2026-04-05T10:45:16.998Z</time></trkpt><trkpt lat="43.82303412874435" lon="10.274022950037612"><ele>9.0</ele><time>2026-04-05T10:45:18.998Z</time></trkpt><trkpt lat="43.82310207313987" lon="10.273981677848123"><ele>9.000000000000002</ele><time>2026-04-05T10:45:20.998Z</time></trkpt><trkpt lat="43.82316725280594" lon="10.273946240404403"><ele>9.0</ele><time>2026-04-05T10:45:22.998Z</time></trkpt><trkpt lat="43.82322814897942" lon="10.273915554438608"><ele>9.0</ele><time>2026-04-05T10:45:24.998Z</time></trkpt><trkpt lat="43.823288631056705" lon="10.273885601151902"><ele>9.0</ele><time>2026-04-05T10:45:26.998Z</time></trkpt><trkpt lat="43.823370691951844" lon="10.273834841035846"><ele>9.0</ele><time>2026-04-05T10:45:29.998Z</time></trkpt><trkpt lat="43.823452112426395" lon="10.273792010864472"><ele>9.000000000000002</ele><time>2026-04-05T10:45:32.998Z</time></trkpt><trkpt lat="43.823516762766765" lon="10.2737508748301"><ele>9.0</ele><time>2026-04-05T10:45:34.998Z</time></trkpt><trkpt lat="43.82359362882866" lon="10.273708069498115"><ele>9.2</ele><time>2026-04-05T10:45:36.998Z</time></trkpt><trkpt lat="43.82367512649403" lon="10.273670467318682"><ele>9.4</ele><time>2026-04-05T10:45:38.998Z</time></trkpt><trkpt lat="43.823766165742725" lon="10.27361587402608"><ele>9.6</ele><time>2026-04-05T10:45:40.998Z</time></trkpt><trkpt lat="43.82385896846535" lon="10.273565353331001"><ele>9.8</ele><time>2026-04-05T10:45:42.998Z</time></trkpt><trkpt lat="43.82396211175835" lon="10.273516561989748"><ele>10.0</ele><time>2026-04-05T10:45:44.998Z</time></trkpt><trkpt lat="43.82406487034257" lon="10.273462334549105"><ele>10.0</ele><time>2026-04-05T10:45:47Z</time></trkpt><trkpt lat="43.82416617457386" lon="10.27339649446914"><ele>10.0</ele><time>2026-04-05T10:45:49Z</time></trkpt><trkpt lat="43.82427007688378" lon="10.273345793766252"><ele>10.0</ele><time>2026-04-05T10:45:51Z</time></trkpt><trkpt lat="43.8243741794695" lon="10.273289391817316"><ele>10.0</ele><time>2026-04-05T10:45:53Z</time></trkpt><trkpt lat="43.8244798808183" lon="10.273235903583597"><ele>10.0</ele><time>2026-04-05T10:45:55Z</time></trkpt><trkpt lat="43.8245802683216" lon="10.273177093437852"><ele>9.75</ele><time>2026-04-05T10:45:57Z</time></trkpt><trkpt lat="43.824682161396524" lon="10.273132043367424"><ele>9.5</ele><time>2026-04-05T10:45:59Z</time></trkpt><trkpt lat="43.82478687763471" lon="10.273074855676962"><ele>9.25</ele><time>2026-04-05T10:46:01Z</time></trkpt><trkpt lat="43.82489766943085" lon="10.273012677788177"><ele>9.0</ele><time>2026-04-05T10:46:03Z</time></trkpt><trkpt lat="43.82500763651847" lon="10.27295393766696"><ele>9.0</ele><time>2026-04-05T10:46:05Z</time></trkpt><trkpt lat="43.8251207112855" lon="10.272890492686248"><ele>9.0</ele><time>2026-04-05T10:46:07Z</time></trkpt><trkpt lat="43.82523372252306" lon="10.272823217067158"><ele>9.0</ele><time>2026-04-05T10:46:09Z</time></trkpt><trkpt lat="43.825294716702274" lon="10.27278718546678"><ele>9.0</ele><time>2026-04-05T10:46:10Z</time></trkpt><trkpt lat="43.82540782289132" lon="10.272721831522073"><ele>9.0</ele><time>2026-04-05T10:46:12Z</time></trkpt><trkpt lat="43.82551552331728" lon="10.272651263799867"><ele>9.0</ele><time>2026-04-05T10:46:14Z</time></trkpt><trkpt lat="43.82562339373627" lon="10.272606744072686"><ele>9.0</ele><time>2026-04-05T10:46:16Z</time></trkpt><trkpt lat="43.825718904450845" lon="10.272553964393431"><ele>9.0</ele><time>2026-04-05T10:46:18Z</time></trkpt><trkpt lat="43.82584092812407" lon="10.272486533858679"><ele>9.0</ele><time>2026-04-05T10:46:20Z</time></trkpt><trkpt lat="43.82589504478501" lon="10.272431925103877"><ele>9.0</ele><time>2026-04-05T10:46:21Z</time></trkpt><trkpt lat="43.82601353419476" lon="10.272391150868781"><ele>8.75</ele><time>2026-04-05T10:46:23Z</time></trkpt><trkpt lat="43.826123047864456" lon="10.272318859582573"><ele>8.5</ele><time>2026-04-05T10:46:25Z</time></trkpt><trkpt lat="43.826237275883756" lon="10.272259640730583"><ele>8.25</ele><time>2026-04-05T10:46:27Z</time></trkpt><trkpt lat="43.82634713159566" lon="10.272193777369019"><ele>8.0</ele><time>2026-04-05T10:46:28.999Z</time></trkpt><trkpt lat="43.826463672663905" lon="10.27213821848335"><ele>8.0</ele><time>2026-04-05T10:46:30.999Z</time></trkpt><trkpt lat="43.826583735043165" lon="10.272066961379727"><ele>8.0</ele><time>2026-04-05T10:46:32.999Z</time></trkpt><trkpt lat="43.826643692511425" lon="10.272035325026883"><ele>8.0</ele><time>2026-04-05T10:46:33.999Z</time></trkpt><trkpt lat="43.826705931309746" lon="10.271996107723405"><ele>8.0</ele><time>2026-04-05T10:46:34.999Z</time></trkpt><trkpt lat="43.82677138985655" lon="10.271964508810598"><ele>8.0</ele><time>2026-04-05T10:46:35.999Z</time></trkpt><trkpt lat="43.82689189588241" lon="10.271896698430938"><ele>7.571428571428571</ele><time>2026-04-05T10:46:37.999Z</time></trkpt><trkpt lat="43.82695435218141" lon="10.271867609018797"><ele>7.142857142857142</ele><time>2026-04-05T10:46:38.999Z</time></trkpt><trkpt lat="43.827023644194966" lon="10.271830395051254"><ele>6.7142857142857135</ele><time>2026-04-05T10:46:39.999Z</time></trkpt><trkpt lat="43.827099874729136" lon="10.271781679758528"><ele>6.285714285714286</ele><time>2026-04-05T10:46:40.999Z</time></trkpt><trkpt lat="43.827164018833905" lon="10.271745699323546"><ele>5.857142857142858</ele><time>2026-04-05T10:46:41.999Z</time></trkpt><trkpt lat="43.82722661102801" lon="10.271713410003205"><ele>5.428571428571429</ele><time>2026-04-05T10:46:42.999Z</time></trkpt><trkpt lat="43.82728959518545" lon="10.27167584030514"><ele>5.0</ele><time>2026-04-05T10:46:43.999Z</time></trkpt><trkpt lat="43.82735180034074" lon="10.271642233595836"><ele>5.0</ele><time>2026-04-05T10:46:44.999Z</time></trkpt><trkpt lat="43.82741443706152" lon="10.271607898166339"><ele>5.0</ele><time>2026-04-05T10:46:45.999Z</time></trkpt><trkpt lat="43.827486901249216" lon="10.271570368172977"><ele>5.0</ele><time>2026-04-05T10:46:46.999Z</time></trkpt><trkpt lat="43.82755740070021" lon="10.271534049280767"><ele>5.0</ele><time>2026-04-05T10:46:47.999Z</time></trkpt><trkpt lat="43.82762535775661" lon="10.271496509703228"><ele>5.0</ele><time>2026-04-05T10:46:48.999Z</time></trkpt><trkpt lat="43.827688788886874" lon="10.27146183352492"><ele>5.0</ele><time>2026-04-05T10:46:49.999Z</time></trkpt><trkpt lat="43.82776187040407" lon="10.271423495641738"><ele>5.0</ele><time>2026-04-05T10:46:50.999Z</time></trkpt><trkpt lat="43.827829308471" lon="10.271387853136398"><ele>5.5</ele><time>2026-04-05T10:46:51.999Z</time></trkpt><trkpt lat="43.82790497970013" lon="10.271353586438364"><ele>6.0</ele><time>2026-04-05T10:46:52.999Z</time></trkpt><trkpt lat="43.82797588861699" lon="10.271312280687674"><ele>6.5</ele><time>2026-04-05T10:46:53.999Z</time></trkpt><trkpt lat="43.82804563486108" lon="10.271270440281057"><ele>7.0</ele><time>2026-04-05T10:46:54.999Z</time></trkpt><trkpt lat="43.82811257420419" lon="10.271231996185685"><ele>7.499999999999999</ele><time>2026-04-05T10:46:55.999Z</time></trkpt><trkpt lat="43.828181249928086" lon="10.271192745796155"><ele>8.0</ele><time>2026-04-05T10:46:56.999Z</time></trkpt><trkpt lat="43.828251060770945" lon="10.271152204974271"><ele>7.999999999999999</ele><time>2026-04-05T10:46:57.999Z</time></trkpt><trkpt lat="43.82831770975365" lon="10.271111151065918"><ele>8.0</ele><time>2026-04-05T10:46:58.999Z</time></trkpt><trkpt lat="43.82838950599512" lon="10.271069516772672"><ele>8.0</ele><time>2026-04-05T10:46:59.999Z</time></trkpt><trkpt lat="43.82846221707802" lon="10.271025189849608"><ele>8.0</ele><time>2026-04-05T10:47:00.999Z</time></trkpt><trkpt lat="43.828528447859064" lon="10.270987707195296"><ele>7.999999999999999</ele><time>2026-04-05T10:47:01.999Z</time></trkpt><trkpt lat="43.828606278114165" lon="10.270952027507388"><ele>8.0</ele><time>2026-04-05T10:47:02.999Z</time></trkpt><trkpt lat="43.828682379354284" lon="10.270913917265993"><ele>7.833333333333333</ele><time>2026-04-05T10:47:03.999Z</time></trkpt><trkpt lat="43.828755033757595" lon="10.270874689404616"><ele>7.666666666666666</ele><time>2026-04-05T10:47:04.999Z</time></trkpt><trkpt lat="43.82883035264358" lon="10.270832298938858"><ele>7.5</ele><time>2026-04-05T10:47:05.999Z</time></trkpt><trkpt lat="43.82889995078334" lon="10.270787239288193"><ele>7.333333333333334</ele><time>2026-04-05T10:47:06.999Z</time></trkpt><trkpt lat="43.82897574749482" lon="10.27074334329525"><ele>7.166666666666667</ele><time>2026-04-05T10:47:07.999Z</time></trkpt><trkpt lat="43.82905249555377" lon="10.270713531946255"><ele>7.0</ele><time>2026-04-05T10:47:08.999Z</time></trkpt><trkpt lat="43.82913558627027" lon="10.270671158869032"><ele>7.0</ele><time>2026-04-05T10:47:09.999Z</time></trkpt><trkpt lat="43.82919962773142" lon="10.270625914682691"><ele>7.0</ele><time>2026-04-05T10:47:10.999Z</time></trkpt><trkpt lat="43.82926986514901" lon="10.270594097760856"><ele>7.0</ele><time>2026-04-05T10:47:11.999Z</time></trkpt><trkpt lat="43.82933590596237" lon="10.270552754993886"><ele>7.0</ele><time>2026-04-05T10:47:12.999Z</time></trkpt><trkpt lat="43.82940995606181" lon="10.270512921264697"><ele>7.0</ele><time>2026-04-05T10:47:13.999Z</time></trkpt><trkpt lat="43.82948080828136" lon="10.270482044894107"><ele>7.0</ele><time>2026-04-05T10:47:14.999Z</time></trkpt><trkpt lat="43.8295472932724" lon="10.270435760630718"><ele>7.0</ele><time>2026-04-05T10:47:15.998Z</time></trkpt><trkpt lat="43.82962451739432" lon="10.270395315200817"><ele>6.833333333333334</ele><time>2026-04-05T10:47:16.998Z</time></trkpt><trkpt lat="43.8296976710111" lon="10.270353452588056"><ele>6.666666666666667</ele><time>2026-04-05T10:47:17.998Z</time></trkpt><trkpt lat="43.829769676503716" lon="10.270317168680787"><ele>6.5</ele><time>2026-04-05T10:47:18.998Z</time></trkpt><trkpt lat="43.82984002066956" lon="10.270275624576733"><ele>6.333333333333334</ele><time>2026-04-05T10:47:19.998Z</time></trkpt><trkpt lat="43.82991269679724" lon="10.27023984474273"><ele>6.166666666666667</ele><time>2026-04-05T10:47:20.998Z</time></trkpt><trkpt lat="43.829983608249904" lon="10.27020439956819"><ele>6.0</ele><time>2026-04-05T10:47:21.998Z</time></trkpt><trkpt lat="43.83005201833736" lon="10.270159604491589"><ele>6.0</ele><time>2026-04-05T10:47:22.998Z</time></trkpt><trkpt lat="43.83012688808556" lon="10.27012264092027"><ele>6.0</ele><time>2026-04-05T10:47:23.998Z</time></trkpt><trkpt lat="43.83019898662522" lon="10.270078240244523"><ele>6.0</ele><time>2026-04-05T10:47:24.998Z</time></trkpt><trkpt lat="43.830272195512414" lon="10.270039439657763"><ele>6.0</ele><time>2026-04-05T10:47:25.998Z</time></trkpt><trkpt lat="43.83034423060415" lon="10.270002375051517"><ele>6.0</ele><time>2026-04-05T10:47:26.998Z</time></trkpt><trkpt lat="43.83040962880589" lon="10.269964623033934"><ele>6.0</ele><time>2026-04-05T10:47:27.998Z</time></trkpt><trkpt lat="43.83048030384463" lon="10.269920688541337"><ele>5.833333333333333</ele><time>2026-04-05T10:47:28.998Z</time></trkpt><trkpt lat="43.830544199467184" lon="10.269875053623306"><ele>5.666666666666667</ele><time>2026-04-05T10:47:29.998Z</time></trkpt><trkpt lat="43.83062005332716" lon="10.269833764464192"><ele>5.5</ele><time>2026-04-05T10:47:30.998Z</time></trkpt><trkpt lat="43.830689922598026" lon="10.269790191044178"><ele>5.333333333333334</ele><time>2026-04-05T10:47:31.998Z</time></trkpt><trkpt lat="43.83076444195392" lon="10.269761308186753"><ele>5.166666666666667</ele><time>2026-04-05T10:47:32.998Z</time></trkpt><trkpt lat="43.83083782717166" lon="10.26972945905853"><ele>5.0</ele><time>2026-04-05T10:47:33.998Z</time></trkpt><trkpt lat="43.830920532475204" lon="10.26971007692001"><ele>5.571428571428571</ele><time>2026-04-05T10:47:34.998Z</time></trkpt><trkpt lat="43.83098716224722" lon="10.269666628643483"><ele>6.142857142857143</ele><time>2026-04-05T10:47:35.998Z</time></trkpt><trkpt lat="43.83105681141972" lon="10.269624317668026"><ele>6.714285714285715</ele><time>2026-04-05T10:47:36.998Z</time></trkpt><trkpt lat="43.83113010217617" lon="10.269586319015664"><ele>7.2857142857142865</ele><time>2026-04-05T10:47:37.998Z</time></trkpt><trkpt lat="43.83119386333346" lon="10.269543984123734"><ele>7.857142857142858</ele><time>2026-04-05T10:47:38.998Z</time></trkpt><trkpt lat="43.83126333797274" lon="10.269503955704367"><ele>8.428571428571429</ele><time>2026-04-05T10:47:39.998Z</time></trkpt><trkpt lat="43.83132845762038" lon="10.269466132412692"><ele>9.0</ele><time>2026-04-05T10:47:40.998Z</time></trkpt><trkpt lat="43.8313968862642" lon="10.269429598166978"><ele>9.000000000000002</ele><time>2026-04-05T10:47:41.998Z</time></trkpt><trkpt lat="43.83146178865712" lon="10.269402389530638"><ele>9.0</ele><time>2026-04-05T10:47:42.998Z</time></trkpt><trkpt lat="43.83152486535735" lon="10.269362662031718"><ele>9.0</ele><time>2026-04-05T10:47:43.998Z</time></trkpt><trkpt lat="43.831586566856444" lon="10.2693203483616"><ele>9.0</ele><time>2026-04-05T10:47:44.998Z</time></trkpt><trkpt lat="43.83165296894401" lon="10.269291620869346"><ele>9.0</ele><time>2026-04-05T10:47:45.998Z</time></trkpt><trkpt lat="43.83171335188208" lon="10.269257494486773"><ele>9.000000000000002</ele><time>2026-04-05T10:47:46.998Z</time></trkpt><trkpt lat="43.831776220491825" lon="10.269217594223319"><ele>9.0</ele><time>2026-04-05T10:47:47.998Z</time></trkpt><trkpt lat="43.83184117563688" lon="10.269183562112833"><ele>8.666666666666666</ele><time>2026-04-05T10:47:48.998Z</time></trkpt><trkpt lat="43.83190516296853" lon="10.26915075859405"><ele>8.333333333333334</ele><time>2026-04-05T10:47:49.998Z</time></trkpt><trkpt lat="43.83196638605933" lon="10.269114721036358"><ele>8.0</ele><time>2026-04-05T10:47:50.998Z</time></trkpt><trkpt lat="43.8320242827069" lon="10.2690775193128"><ele>7.666666666666667</ele><time>2026-04-05T10:47:51.998Z</time></trkpt><trkpt lat="43.832144173086235" lon="10.26901485900072"><ele>7.333333333333334</ele><time>2026-04-05T10:47:54Z</time></trkpt><trkpt lat="43.83220436342895" lon="10.268981709991017"><ele>7.0</ele><time>2026-04-05T10:47:55Z</time></trkpt><trkpt lat="43.83226290298166" lon="10.268943196123402"><ele>6.857142857142857</ele><time>2026-04-05T10:47:56Z</time></trkpt><trkpt lat="43.832322693231866" lon="10.268914518408723"><ele>6.714285714285714</ele><time>2026-04-05T10:47:57Z</time></trkpt><trkpt lat="43.83238205419647" lon="10.26888206570523"><ele>6.571428571428571</ele><time>2026-04-05T10:47:58Z</time></trkpt><trkpt lat="43.83244256021514" lon="10.268851703199442"><ele>6.428571428571429</ele><time>2026-04-05T10:47:59Z</time></trkpt><trkpt lat="43.83250476418181" lon="10.268825153814339"><ele>6.285714285714286</ele><time>2026-04-05T10:48:00Z</time></trkpt><trkpt lat="43.8325634589205" lon="10.268790401385228"><ele>6.142857142857142</ele><time>2026-04-05T10:48:01Z</time></trkpt><trkpt lat="43.83268096879875" lon="10.268724307893457"><ele>6.0</ele><time>2026-04-05T10:48:03Z</time></trkpt><trkpt lat="43.83279748630887" lon="10.268663369818537"><ele>6.5</ele><time>2026-04-05T10:48:05Z</time></trkpt><trkpt lat="43.83285812141052" lon="10.268631430340111"><ele>7.0</ele><time>2026-04-05T10:48:06Z</time></trkpt><trkpt lat="43.832917510925206" lon="10.268596303896887"><ele>7.5</ele><time>2026-04-05T10:48:07Z</time></trkpt><trkpt lat="43.83298086647976" lon="10.268560424592488"><ele>8.0</ele><time>2026-04-05T10:48:08Z</time></trkpt><trkpt lat="43.83304011273308" lon="10.268525128867092"><ele>8.5</ele><time>2026-04-05T10:48:09Z</time></trkpt><trkpt lat="43.83315318199963" lon="10.268450892818898"><ele>9.0</ele><time>2026-04-05T10:48:11Z</time></trkpt><trkpt lat="43.83321167517733" lon="10.268417039877853"><ele>9.0</ele><time>2026-04-05T10:48:12Z</time></trkpt><trkpt lat="43.833327764461046" lon="10.268356910899819"><ele>9.0</ele><time>2026-04-05T10:48:14Z</time></trkpt><trkpt lat="43.833434418549956" lon="10.268299247938204"><ele>9.0</ele><time>2026-04-05T10:48:16Z</time></trkpt><trkpt lat="43.833492473739746" lon="10.268261896765784"><ele>9.0</ele><time>2026-04-05T10:48:17Z</time></trkpt><trkpt lat="43.833598728360926" lon="10.268205268666092"><ele>9.0</ele><time>2026-04-05T10:48:19Z</time></trkpt><trkpt lat="43.83369873721084" lon="10.268137293754044"><ele>8.5</ele><time>2026-04-05T10:48:21Z</time></trkpt><trkpt lat="43.8338086277857" lon="10.268077200409742"><ele>8.0</ele><time>2026-04-05T10:48:23Z</time></trkpt><trkpt lat="43.83392046509899" lon="10.268020474716659"><ele>7.5</ele><time>2026-04-05T10:48:25Z</time></trkpt><trkpt lat="43.834033046757426" lon="10.267967955046124"><ele>7.0</ele><time>2026-04-05T10:48:26.999Z</time></trkpt><trkpt lat="43.83413925897267" lon="10.26791379228785"><ele>7.0</ele><time>2026-04-05T10:48:28.999Z</time></trkpt><trkpt lat="43.834245250748225" lon="10.267853697086982"><ele>7.0</ele><time>2026-04-05T10:48:30.999Z</time></trkpt><trkpt lat="43.8343501187336" lon="10.267794137717857"><ele>7.0</ele><time>2026-04-05T10:48:32.999Z</time></trkpt><trkpt lat="43.83445448028965" lon="10.267744521342372"><ele>7.0</ele><time>2026-04-05T10:48:34.999Z</time></trkpt><trkpt lat="43.834557767930754" lon="10.267685674315022"><ele>7.6</ele><time>2026-04-05T10:48:36.999Z</time></trkpt><trkpt lat="43.83466175884968" lon="10.26763054187931"><ele>8.2</ele><time>2026-04-05T10:48:38.999Z</time></trkpt><trkpt lat="43.83476230263392" lon="10.267579977704354"><ele>8.8</ele><time>2026-04-05T10:48:40.999Z</time></trkpt><trkpt lat="43.8348584487813" lon="10.267521499574999"><ele>9.4</ele><time>2026-04-05T10:48:42.999Z</time></trkpt><trkpt lat="43.83496119029554" lon="10.267466803385668"><ele>10.0</ele><time>2026-04-05T10:48:44.999Z</time></trkpt><trkpt lat="43.835049412077645" lon="10.267409592508004"><ele>10.0</ele><time>2026-04-05T10:48:46.999Z</time></trkpt><trkpt lat="43.83511071652806" lon="10.267387533281624"><ele>10.0</ele><time>2026-04-05T10:48:47.999Z</time></trkpt><trkpt lat="43.83520723601622" lon="10.267329216627257"><ele>10.0</ele><time>2026-04-05T10:48:49.999Z</time></trkpt><trkpt lat="43.83531843408636" lon="10.267268230219072"><ele>10.0</ele><time>2026-04-05T10:48:51.999Z</time></trkpt><trkpt lat="43.83542407905496" lon="10.267201373858098"><ele>10.0</ele><time>2026-04-05T10:48:53.999Z</time></trkpt><trkpt lat="43.83553579631191" lon="10.267151190864963"><ele>9.5</ele><time>2026-04-05T10:48:55.999Z</time></trkpt><trkpt lat="43.8356412956768" lon="10.267086007075832"><ele>9.0</ele><time>2026-04-05T10:48:57.999Z</time></trkpt><trkpt lat="43.83570309411387" lon="10.267065909888691"><ele>8.5</ele><time>2026-04-05T10:48:58.999Z</time></trkpt><trkpt lat="43.835808768505764" lon="10.266984379192584"><ele>8.0</ele><time>2026-04-05T10:49:00.999Z</time></trkpt><trkpt lat="43.83586707162393" lon="10.266949445714895"><ele>7.500000000000001</ele><time>2026-04-05T10:49:01.999Z</time></trkpt><trkpt lat="43.835925451043586" lon="10.266911308535912"><ele>7.0</ele><time>2026-04-05T10:49:02.999Z</time></trkpt><trkpt lat="43.83604101180011" lon="10.266856248303807"><ele>6.6</ele><time>2026-04-05T10:49:04.999Z</time></trkpt><trkpt lat="43.83616373117045" lon="10.26680724708382"><ele>6.199999999999999</ele><time>2026-04-05T10:49:06.999Z</time></trkpt><trkpt lat="43.83623545408957" lon="10.266785548977534"><ele>5.8</ele><time>2026-04-05T10:49:07.999Z</time></trkpt><trkpt lat="43.83634159905634" lon="10.266703699429113"><ele>5.4</ele><time>2026-04-05T10:49:09.999Z</time></trkpt><trkpt lat="43.836453645268904" lon="10.266645568088883"><ele>5.0</ele><time>2026-04-05T10:49:11.999Z</time></trkpt><trkpt lat="43.83655552797371" lon="10.266575579285162"><ele>5.0</ele><time>2026-04-05T10:49:13.999Z</time></trkpt><trkpt lat="43.836656390802155" lon="10.266521049170876"><ele>5.0</ele><time>2026-04-05T10:49:15.998Z</time></trkpt><trkpt lat="43.836761655597186" lon="10.266468801149271"><ele>5.0</ele><time>2026-04-05T10:49:17.998Z</time></trkpt><trkpt lat="43.836861054996085" lon="10.266397626400714"><ele>5.0</ele><time>2026-04-05T10:49:19.998Z</time></trkpt><trkpt lat="43.83697402704245" lon="10.266344649265413"><ele>6.5</ele><time>2026-04-05T10:49:21.998Z</time></trkpt><trkpt lat="43.837079544947194" lon="10.266284089660179"><ele>8.0</ele><time>2026-04-05T10:49:23.998Z</time></trkpt><trkpt lat="43.837185141733045" lon="10.26621970574942"><ele>9.5</ele><time>2026-04-05T10:49:25.998Z</time></trkpt><trkpt lat="43.83729466806486" lon="10.266151311355088"><ele>11.0</ele><time>2026-04-05T10:49:27.998Z</time></trkpt><trkpt lat="43.83740822056054" lon="10.266098049471127"><ele>11.0</ele><time>2026-04-05T10:49:29.998Z</time></trkpt><trkpt lat="43.837516764562814" lon="10.266033901509825"><ele>11.0</ele><time>2026-04-05T10:49:31.998Z</time></trkpt><trkpt lat="43.83762592669061" lon="10.265981170606585"><ele>11.0</ele><time>2026-04-05T10:49:33.998Z</time></trkpt><trkpt lat="43.83773388537558" lon="10.265920037314357"><ele>11.0</ele><time>2026-04-05T10:49:35.998Z</time></trkpt><trkpt lat="43.837841479071514" lon="10.265849550269223"><ele>10.600000000000001</ele><time>2026-04-05T10:49:37.998Z</time></trkpt><trkpt lat="43.837956844056286" lon="10.265808039608839"><ele>10.200000000000001</ele><time>2026-04-05T10:49:39.998Z</time></trkpt><trkpt lat="43.838014050679725" lon="10.265758360928857"><ele>9.8</ele><time>2026-04-05T10:49:40.998Z</time></trkpt><trkpt lat="43.838122281024035" lon="10.265699989660385"><ele>9.4</ele><time>2026-04-05T10:49:42.998Z</time></trkpt><trkpt lat="43.83818334415264" lon="10.265669574801285"><ele>9.0</ele><time>2026-04-05T10:49:43.998Z</time></trkpt><trkpt lat="43.83829711021604" lon="10.265610134304538"><ele>9.0</ele><time>2026-04-05T10:49:45.998Z</time></trkpt><trkpt lat="43.83840914118611" lon="10.265538896635487"><ele>9.0</ele><time>2026-04-05T10:49:47.998Z</time></trkpt><trkpt lat="43.8384709341601" lon="10.265511023593172"><ele>9.0</ele><time>2026-04-05T10:49:48.998Z</time></trkpt><trkpt lat="43.83858356191919" lon="10.265460355341824"><ele>9.0</ele><time>2026-04-05T10:49:50.998Z</time></trkpt><trkpt lat="43.838705091156086" lon="10.265394155792219"><ele>9.0</ele><time>2026-04-05T10:49:52.998Z</time></trkpt><trkpt lat="43.83883431071198" lon="10.265335009781463"><ele>8.8</ele><time>2026-04-05T10:49:54.998Z</time></trkpt><trkpt lat="43.83894076159162" lon="10.265254897599807"><ele>8.600000000000001</ele><time>2026-04-05T10:49:56.998Z</time></trkpt><trkpt lat="43.83903122897181" lon="10.265197679948066"><ele>8.4</ele><time>2026-04-05T10:49:59Z</time></trkpt><trkpt lat="43.839106720663715" lon="10.2651741553675"><ele>8.200000000000001</ele><time>2026-04-05T10:50:00Z</time></trkpt><trkpt lat="43.839217005924844" lon="10.265102570216737"><ele>8.0</ele><time>2026-04-05T10:50:02Z</time></trkpt><trkpt lat="43.83933258450512" lon="10.265034170309162"><ele>8.4</ele><time>2026-04-05T10:50:04Z</time></trkpt><trkpt lat="43.83939151152637" lon="10.264999868733673"><ele>8.8</ele><time>2026-04-05T10:50:05Z</time></trkpt><trkpt lat="43.839510846932995" lon="10.26494196381559"><ele>9.2</ele><time>2026-04-05T10:50:07Z</time></trkpt><trkpt lat="43.83963285391738" lon="10.264875145415557"><ele>9.6</ele><time>2026-04-05T10:50:09Z</time></trkpt><trkpt lat="43.839745631646224" lon="10.264813383220826"><ele>10.0</ele><time>2026-04-05T10:50:11Z</time></trkpt><trkpt lat="43.83980637746644" lon="10.264774202587246"><ele>10.0</ele><time>2026-04-05T10:50:12Z</time></trkpt><trkpt lat="43.8398655056323" lon="10.264739694429275"><ele>10.0</ele><time>2026-04-05T10:50:13Z</time></trkpt><trkpt lat="43.83992734148533" lon="10.264703292584926"><ele>10.0</ele><time>2026-04-05T10:50:14Z</time></trkpt><trkpt lat="43.83999044958333" lon="10.264673598789155"><ele>10.0</ele><time>2026-04-05T10:50:15Z</time></trkpt><trkpt lat="43.84005117844193" lon="10.264641095757849"><ele>10.0</ele><time>2026-04-05T10:50:16Z</time></trkpt><trkpt lat="43.84010940394419" lon="10.264604415286602"><ele>10.0</ele><time>2026-04-05T10:50:17Z</time></trkpt><trkpt lat="43.84023042194356" lon="10.264544904572753"><ele>10.0</ele><time>2026-04-05T10:50:19Z</time></trkpt><trkpt lat="43.84029156031812" lon="10.264514247117615"><ele>10.0</ele><time>2026-04-05T10:50:20Z</time></trkpt><trkpt lat="43.840350841711775" lon="10.26448156377938"><ele>10.0</ele><time>2026-04-05T10:50:21Z</time></trkpt><trkpt lat="43.84046760124078" lon="10.264420585559323"><ele>10.0</ele><time>2026-04-05T10:50:23Z</time></trkpt><trkpt lat="43.84058204015493" lon="10.264353742915132"><ele>10.0</ele><time>2026-04-05T10:50:25Z</time></trkpt><trkpt lat="43.84064010299325" lon="10.264317186158804"><ele>10.0</ele><time>2026-04-05T10:50:26Z</time></trkpt><trkpt lat="43.840698852681626" lon="10.26428501085748"><ele>10.0</ele><time>2026-04-05T10:50:27Z</time></trkpt><trkpt lat="43.840813276065376" lon="10.264223379470794"><ele>10.0</ele><time>2026-04-05T10:50:29Z</time></trkpt><trkpt lat="43.84087066366629" lon="10.264184932625817"><ele>10.0</ele><time>2026-04-05T10:50:30Z</time></trkpt><trkpt lat="43.840933853471554" lon="10.26416406100793"><ele>10.0</ele><time>2026-04-05T10:50:31Z</time></trkpt><trkpt lat="43.840985786741015" lon="10.264112553021942"><ele>10.0</ele><time>2026-04-05T10:50:32Z</time></trkpt><trkpt lat="43.84105084226591" lon="10.264089795234687"><ele>10.0</ele><time>2026-04-05T10:50:33Z</time></trkpt><trkpt lat="43.84111062968847" lon="10.264059230448035"><ele>10.0</ele><time>2026-04-05T10:50:34Z</time></trkpt><trkpt lat="43.84122749202817" lon="10.263991488566365"><ele>10.0</ele><time>2026-04-05T10:50:35.999Z</time></trkpt><trkpt lat="43.841346985873706" lon="10.263934290134864"><ele>10.0</ele><time>2026-04-05T10:50:37.999Z</time></trkpt><trkpt lat="43.841405341998964" lon="10.263898609594655"><ele>10.0</ele><time>2026-04-05T10:50:38.999Z</time></trkpt><trkpt lat="43.84152270400834" lon="10.263839074132427"><ele>10.0</ele><time>2026-04-05T10:50:40.999Z</time></trkpt><trkpt lat="43.841637873205755" lon="10.2637739130604"><ele>10.0</ele><time>2026-04-05T10:50:42.999Z</time></trkpt><trkpt lat="43.84169623723093" lon="10.263734974144004"><ele>10.0</ele><time>2026-04-05T10:50:43.999Z</time></trkpt><trkpt lat="43.8417547309018" lon="10.263699474528316"><ele>10.0</ele><time>2026-04-05T10:50:44.999Z</time></trkpt><trkpt lat="43.84181383927471" lon="10.263669180756215"><ele>10.0</ele><time>2026-04-05T10:50:45.999Z</time></trkpt><trkpt lat="43.84192966128267" lon="10.263606581755388"><ele>10.0</ele><time>2026-04-05T10:50:47.999Z</time></trkpt><trkpt lat="43.842042982581404" lon="10.263539525614558"><ele>10.0</ele><time>2026-04-05T10:50:49.999Z</time></trkpt><trkpt lat="43.842156524955776" lon="10.263478763122388"><ele>10.0</ele><time>2026-04-05T10:50:51.999Z</time></trkpt><trkpt lat="43.84226957921512" lon="10.263409863907164"><ele>10.0</ele><time>2026-04-05T10:50:53.999Z</time></trkpt><trkpt lat="43.842328354335045" lon="10.26337675069093"><ele>10.0</ele><time>2026-04-05T10:50:54.999Z</time></trkpt><trkpt lat="43.842387592208915" lon="10.263343990339635"><ele>10.0</ele><time>2026-04-05T10:50:55.999Z</time></trkpt><trkpt lat="43.842449474238705" lon="10.263310856649555"><ele>10.0</ele><time>2026-04-05T10:50:56.999Z</time></trkpt><trkpt lat="43.84250821484609" lon="10.263273549720743"><ele>10.0</ele><time>2026-04-05T10:50:57.999Z</time></trkpt><trkpt lat="43.84256861965655" lon="10.263244408197226"><ele>10.0</ele><time>2026-04-05T10:50:58.999Z</time></trkpt><trkpt lat="43.84262789046409" lon="10.263210145065527"><ele>9.833333333333334</ele><time>2026-04-05T10:50:59.999Z</time></trkpt><trkpt lat="43.842687932732055" lon="10.26318064154427"><ele>9.666666666666668</ele><time>2026-04-05T10:51:00.999Z</time></trkpt><trkpt lat="43.842748245481125" lon="10.263151451686817"><ele>9.5</ele><time>2026-04-05T10:51:01.999Z</time></trkpt><trkpt lat="43.84286633951632" lon="10.263084880236676"><ele>9.333333333333334</ele><time>2026-04-05T10:51:03.999Z</time></trkpt><trkpt lat="43.842927195712875" lon="10.263050669697158"><ele>9.166666666666666</ele><time>2026-04-05T10:51:04.999Z</time></trkpt><trkpt lat="43.84298830714746" lon="10.26301234988692"><ele>9.0</ele><time>2026-04-05T10:51:05.999Z</time></trkpt><trkpt lat="43.84305048222323" lon="10.26298329866347"><ele>8.833333333333334</ele><time>2026-04-05T10:51:06.999Z</time></trkpt><trkpt lat="43.84310746016197" lon="10.262942240138344"><ele>8.666666666666666</ele><time>2026-04-05T10:51:07.999Z</time></trkpt><trkpt lat="43.84316301981178" lon="10.262899779547574"><ele>8.5</ele><time>2026-04-05T10:51:08.999Z</time></trkpt><trkpt lat="43.84322291273455" lon="10.262862050548428"><ele>8.333333333333332</ele><time>2026-04-05T10:51:09.999Z</time></trkpt><trkpt lat="43.84329225834368" lon="10.262864280024079"><ele>8.166666666666666</ele><time>2026-04-05T10:51:10.999Z</time></trkpt><trkpt lat="43.84340578353445" lon="10.262784954942717"><ele>8.0</ele><time>2026-04-05T10:51:12.999Z</time></trkpt><trkpt lat="43.84351880189899" lon="10.262722926090595"><ele>7.25</ele><time>2026-04-05T10:51:14.999Z</time></trkpt><trkpt lat="43.843630937658446" lon="10.26265685805007"><ele>6.5</ele><time>2026-04-05T10:51:16.999Z</time></trkpt><trkpt lat="43.84374908753656" lon="10.262599753846244"><ele>5.75</ele><time>2026-04-05T10:51:18.999Z</time></trkpt><trkpt lat="43.843881596433356" lon="10.262541963635018"><ele>5.0</ele><time>2026-04-05T10:51:20.999Z</time></trkpt><trkpt lat="43.84398948577239" lon="10.262482957597156"><ele>5.0</ele><time>2026-04-05T10:51:22.999Z</time></trkpt><trkpt lat="43.844043818213315" lon="10.262433532653548"><ele>5.0</ele><time>2026-04-05T10:51:23.999Z</time></trkpt><trkpt lat="43.84416268780766" lon="10.262387868274116"><ele>5.0</ele><time>2026-04-05T10:51:25.998Z</time></trkpt><trkpt lat="43.84427348780591" lon="10.262320754325858"><ele>5.0</ele><time>2026-04-05T10:51:27.998Z</time></trkpt><trkpt lat="43.84438681135957" lon="10.262258310555445"><ele>5.0</ele><time>2026-04-05T10:51:29.998Z</time></trkpt><trkpt lat="43.84449714940161" lon="10.26220398455147"><ele>5.5</ele><time>2026-04-05T10:51:31.998Z</time></trkpt><trkpt lat="43.84460721359683" lon="10.26212957925746"><ele>6.0</ele><time>2026-04-05T10:51:33.998Z</time></trkpt><trkpt lat="43.84472236614035" lon="10.262069375975718"><ele>6.5</ele><time>2026-04-05T10:51:35.998Z</time></trkpt><trkpt lat="43.844835014803024" lon="10.262008199049305"><ele>7.0</ele><time>2026-04-05T10:51:37.998Z</time></trkpt><trkpt lat="43.84494393717218" lon="10.261937600374718"><ele>7.000000000000001</ele><time>2026-04-05T10:51:39.998Z</time></trkpt><trkpt lat="43.84500836392657" lon="10.261924064531005"><ele>7.0</ele><time>2026-04-05T10:51:40.998Z</time></trkpt><trkpt lat="43.84506412025257" lon="10.261876921597644"><ele>7.0</ele><time>2026-04-05T10:51:41.998Z</time></trkpt><trkpt lat="43.845129992835815" lon="10.261856833765059"><ele>7.0</ele><time>2026-04-05T10:51:42.998Z</time></trkpt><trkpt lat="43.845180914969255" lon="10.261804632880201"><ele>7.000000000000001</ele><time>2026-04-05T10:51:43.998Z</time></trkpt><trkpt lat="43.845246134358696" lon="10.261792636175173"><ele>7.0</ele><time>2026-04-05T10:51:44.998Z</time></trkpt><trkpt lat="43.8453638999463" lon="10.261727791357472"><ele>7.0</ele><time>2026-04-05T10:51:46.998Z</time></trkpt><trkpt lat="43.845422532707424" lon="10.26169557507179"><ele>6.999999999999999</ele><time>2026-04-05T10:51:47.998Z</time></trkpt><trkpt lat="43.84552529144317" lon="10.261617991776745"><ele>6.999999999999999</ele><time>2026-04-05T10:51:49.998Z</time></trkpt><trkpt lat="43.84559266119218" lon="10.261608296677794"><ele>7.0</ele><time>2026-04-05T10:51:50.998Z</time></trkpt><trkpt lat="43.84570679474949" lon="10.261547101428828"><ele>7.0</ele><time>2026-04-05T10:51:52.998Z</time></trkpt><trkpt lat="43.84581943026344" lon="10.26147488046843"><ele>7.0</ele><time>2026-04-05T10:51:54.998Z</time></trkpt><trkpt lat="43.845936988002826" lon="10.261415638954556"><ele>6.999999999999999</ele><time>2026-04-05T10:51:56.998Z</time></trkpt><trkpt lat="43.846046099502495" lon="10.261342961320713"><ele>6.999999999999999</ele><time>2026-04-05T10:51:58.998Z</time></trkpt><trkpt lat="43.846156947127554" lon="10.261276582504792"><ele>7.0</ele><time>2026-04-05T10:52:00.998Z</time></trkpt><trkpt lat="43.8462160428036" lon="10.261245443762764"><ele>7.0</ele><time>2026-04-05T10:52:01.998Z</time></trkpt><trkpt lat="43.84631899469427" lon="10.26118200365882"><ele>7.0</ele><time>2026-04-05T10:52:03.998Z</time></trkpt><trkpt lat="43.846434234660876" lon="10.261124889226572"><ele>7.0</ele><time>2026-04-05T10:52:06Z</time></trkpt><trkpt lat="43.84654724577754" lon="10.26106271559489"><ele>7.0</ele><time>2026-04-05T10:52:08Z</time></trkpt><trkpt lat="43.846654900158406" lon="10.261007317455565"><ele>7.0</ele><time>2026-04-05T10:52:10Z</time></trkpt><trkpt lat="43.846765979242974" lon="10.260956354357173"><ele>7.0</ele><time>2026-04-05T10:52:12Z</time></trkpt><trkpt lat="43.84686866526047" lon="10.26087912279744"><ele>7.0</ele><time>2026-04-05T10:52:14Z</time></trkpt><trkpt lat="43.84697928542874" lon="10.260833119881772"><ele>7.0</ele><time>2026-04-05T10:52:16Z</time></trkpt><trkpt lat="43.84708666641947" lon="10.260776143899998"><ele>7.0</ele><time>2026-04-05T10:52:18Z</time></trkpt><trkpt lat="43.84719085526229" lon="10.260717400336773"><ele>7.0</ele><time>2026-04-05T10:52:20Z</time></trkpt><trkpt lat="43.847293906981804" lon="10.260654835965285"><ele>6.999999999999999</ele><time>2026-04-05T10:52:22Z</time></trkpt><trkpt lat="43.84739537190325" lon="10.260600434433776"><ele>6.999999999999999</ele><time>2026-04-05T10:52:24Z</time></trkpt><trkpt lat="43.84749553984178" lon="10.260540527828644"><ele>7.0</ele><time>2026-04-05T10:52:26Z</time></trkpt><trkpt lat="43.84760209110641" lon="10.260493502237384"><ele>7.0</ele><time>2026-04-05T10:52:28Z</time></trkpt><trkpt lat="43.84770363186746" lon="10.260437304397161"><ele>7.3999999999999995</ele><time>2026-04-05T10:52:30Z</time></trkpt><trkpt lat="43.84780639645795" lon="10.260370483278946"><ele>7.799999999999999</ele><time>2026-04-05T10:52:32Z</time></trkpt><trkpt lat="43.84791549978387" lon="10.260340685286645"><ele>8.2</ele><time>2026-04-05T10:52:34Z</time></trkpt><trkpt lat="43.84801562570498" lon="10.26027733965972"><ele>8.6</ele><time>2026-04-05T10:52:36Z</time></trkpt><trkpt lat="43.84812053313713" lon="10.260225881281876"><ele>9.0</ele><time>2026-04-05T10:52:38Z</time></trkpt><trkpt lat="43.848227097324234" lon="10.260159223586637"><ele>9.0</ele><time>2026-04-05T10:52:40Z</time></trkpt><trkpt lat="43.84833106503407" lon="10.260102609808351"><ele>9.0</ele><time>2026-04-05T10:52:42Z</time></trkpt><trkpt lat="43.84843318863428" lon="10.26004137007171"><ele>9.0</ele><time>2026-04-05T10:52:44Z</time></trkpt><trkpt lat="43.8485315171438" lon="10.259982351606466"><ele>9.0</ele><time>2026-04-05T10:52:46Z</time></trkpt><trkpt lat="43.848633446599024" lon="10.259928383863446"><ele>9.0</ele><time>2026-04-05T10:52:47.999Z</time></trkpt><trkpt lat="43.848731951504604" lon="10.259869223362053"><ele>9.25</ele><time>2026-04-05T10:52:49.999Z</time></trkpt><trkpt lat="43.84883322442947" lon="10.259803254269476"><ele>9.5</ele><time>2026-04-05T10:52:51.999Z</time></trkpt><trkpt lat="43.848941282920684" lon="10.259749267450202"><ele>9.75</ele><time>2026-04-05T10:52:53.999Z</time></trkpt><trkpt lat="43.84904388633184" lon="10.259682316596495"><ele>10.0</ele><time>2026-04-05T10:52:55.999Z</time></trkpt><trkpt lat="43.849154491726004" lon="10.259628489494808"><ele>10.25</ele><time>2026-04-05T10:52:57.999Z</time></trkpt><trkpt lat="43.84926309568815" lon="10.259571072530703"><ele>10.5</ele><time>2026-04-05T10:52:59.999Z</time></trkpt><trkpt lat="43.849367942271606" lon="10.25950223862248"><ele>10.75</ele><time>2026-04-05T10:53:01.999Z</time></trkpt><trkpt lat="43.84948526103498" lon="10.2594476715072"><ele>11.0</ele><time>2026-04-05T10:53:03.999Z</time></trkpt><trkpt lat="43.849588486949635" lon="10.259378049250948"><ele>10.200000000000001</ele><time>2026-04-05T10:53:05.999Z</time></trkpt><trkpt lat="43.84970606057892" lon="10.259329669331668"><ele>9.4</ele><time>2026-04-05T10:53:07.999Z</time></trkpt><trkpt lat="43.84976876277236" lon="10.2593143664321"><ele>8.6</ele><time>2026-04-05T10:53:08.999Z</time></trkpt><trkpt lat="43.84987611437095" lon="10.259242070229401"><ele>7.8</ele><time>2026-04-05T10:53:10.999Z</time></trkpt><trkpt lat="43.849991628166265" lon="10.259187563545568"><ele>7.0</ele><time>2026-04-05T10:53:12.999Z</time></trkpt><trkpt lat="43.850102053976286" lon="10.259119408851662"><ele>6.25</ele><time>2026-04-05T10:53:14.999Z</time></trkpt><trkpt lat="43.850211678274164" lon="10.25905378213321"><ele>5.5</ele><time>2026-04-05T10:53:16.999Z</time></trkpt><trkpt lat="43.85032521821166" lon="10.25899486138774"><ele>4.75</ele><time>2026-04-05T10:53:18.999Z</time></trkpt><trkpt lat="43.850438584161836" lon="10.25894493116486"><ele>4.0</ele><time>2026-04-05T10:53:20.999Z</time></trkpt><trkpt lat="43.850546290433" lon="10.258879732390652"><ele>4.0</ele><time>2026-04-05T10:53:22.999Z</time></trkpt><trkpt lat="43.85065566216997" lon="10.258818825588161"><ele>4.0</ele><time>2026-04-05T10:53:24.999Z</time></trkpt><trkpt lat="43.85076271905582" lon="10.258759703114588"><ele>4.0</ele><time>2026-04-05T10:53:26.999Z</time></trkpt><trkpt lat="43.8508749740156" lon="10.2587030949423"><ele>4.0</ele><time>2026-04-05T10:53:28.999Z</time></trkpt><trkpt lat="43.85098587787337" lon="10.258638419915453"><ele>4.4</ele><time>2026-04-05T10:53:30.999Z</time></trkpt><trkpt lat="43.851094836952804" lon="10.258576249659738"><ele>4.800000000000001</ele><time>2026-04-05T10:53:32.999Z</time></trkpt><trkpt lat="43.851204690743394" lon="10.258523831212448"><ele>5.199999999999999</ele><time>2026-04-05T10:53:34.999Z</time></trkpt><trkpt lat="43.85131750064504" lon="10.2584570414367"><ele>5.6</ele><time>2026-04-05T10:53:36.998Z</time></trkpt><trkpt lat="43.851377112429674" lon="10.258422656163264"><ele>6.0</ele><time>2026-04-05T10:53:37.998Z</time></trkpt><trkpt lat="43.85143724051103" lon="10.258394113242575"><ele>6.0</ele><time>2026-04-05T10:53:38.998Z</time></trkpt><trkpt lat="43.85149853999987" lon="10.258362512860574"><ele>6.0</ele><time>2026-04-05T10:53:39.998Z</time></trkpt><trkpt lat="43.85156393819324" lon="10.258335083918292"><ele>6.0</ele><time>2026-04-05T10:53:40.998Z</time></trkpt><trkpt lat="43.8516792584182" lon="10.258262070080612"><ele>6.0</ele><time>2026-04-05T10:53:42.998Z</time></trkpt><trkpt lat="43.85174251929334" lon="10.258241272488979"><ele>6.0</ele><time>2026-04-05T10:53:43.998Z</time></trkpt><trkpt lat="43.85186231557122" lon="10.25817161712942"><ele>6.571428571428571</ele><time>2026-04-05T10:53:45.998Z</time></trkpt><trkpt lat="43.851925716277165" lon="10.25813509373268"><ele>7.142857142857142</ele><time>2026-04-05T10:53:46.998Z</time></trkpt><trkpt lat="43.851986025631085" lon="10.25809713429855"><ele>7.7142857142857135</ele><time>2026-04-05T10:53:47.998Z</time></trkpt><trkpt lat="43.852051225844264" lon="10.258065233704995"><ele>8.285714285714285</ele><time>2026-04-05T10:53:48.998Z</time></trkpt><trkpt lat="43.85211475922411" lon="10.258032634791041"><ele>8.857142857142858</ele><time>2026-04-05T10:53:49.998Z</time></trkpt><trkpt lat="43.85217987458941" lon="10.257999902979696"><ele>9.428571428571429</ele><time>2026-04-05T10:53:50.998Z</time></trkpt><trkpt lat="43.852245308597944" lon="10.257965675391384"><ele>10.0</ele><time>2026-04-05T10:53:51.998Z</time></trkpt><trkpt lat="43.852308463104066" lon="10.257930455060423"><ele>10.0</ele><time>2026-04-05T10:53:52.998Z</time></trkpt><trkpt lat="43.85237280140579" lon="10.257897522245234"><ele>10.0</ele><time>2026-04-05T10:53:53.998Z</time></trkpt><trkpt lat="43.85244055306019" lon="10.25786561801752"><ele>10.0</ele><time>2026-04-05T10:53:54.998Z</time></trkpt><trkpt lat="43.852514915340365" lon="10.257833589881814"><ele>10.0</ele><time>2026-04-05T10:53:55.998Z</time></trkpt><trkpt lat="43.852576684351305" lon="10.257794435482978"><ele>10.0</ele><time>2026-04-05T10:53:56.998Z</time></trkpt><trkpt lat="43.8526383928305" lon="10.257760666746037"><ele>10.0</ele><time>2026-04-05T10:53:57.998Z</time></trkpt><trkpt lat="43.85270477661976" lon="10.257721462198598"><ele>10.0</ele><time>2026-04-05T10:53:58.998Z</time></trkpt><trkpt lat="43.85276265892433" lon="10.257682427133409"><ele>10.142857142857142</ele><time>2026-04-05T10:53:59.998Z</time></trkpt><trkpt lat="43.85282338482926" lon="10.257641967895843"><ele>10.285714285714286</ele><time>2026-04-05T10:54:00.998Z</time></trkpt><trkpt lat="43.852893415444" lon="10.257602460899648"><ele>10.428571428571429</ele><time>2026-04-05T10:54:01.998Z</time></trkpt><trkpt lat="43.8529579498903" lon="10.257570551267111"><ele>10.571428571428571</ele><time>2026-04-05T10:54:02.998Z</time></trkpt><trkpt lat="43.8530160879623" lon="10.257532403808868"><ele>10.714285714285714</ele><time>2026-04-05T10:54:03.998Z</time></trkpt><trkpt lat="43.85308488823639" lon="10.25750253374005"><ele>10.857142857142858</ele><time>2026-04-05T10:54:04.998Z</time></trkpt><trkpt lat="43.85314757196463" lon="10.257466813799157"><ele>11.0</ele><time>2026-04-05T10:54:05.998Z</time></trkpt><trkpt lat="43.8532098360905" lon="10.257434479020162"><ele>11.0</ele><time>2026-04-05T10:54:06.998Z</time></trkpt><trkpt lat="43.85327718253505" lon="10.2574011124227"><ele>11.0</ele><time>2026-04-05T10:54:07.998Z</time></trkpt><trkpt lat="43.85334402025337" lon="10.257365044083082"><ele>11.0</ele><time>2026-04-05T10:54:08.998Z</time></trkpt><trkpt lat="43.85340924166796" lon="10.257325724520042"><ele>11.0</ele><time>2026-04-05T10:54:09.998Z</time></trkpt><trkpt lat="43.85347345524962" lon="10.257291034152795"><ele>11.0</ele><time>2026-04-05T10:54:11Z</time></trkpt><trkpt lat="43.85353752735031" lon="10.257251430326036"><ele>11.0</ele><time>2026-04-05T10:54:12Z</time></trkpt><trkpt lat="43.85359571136541" lon="10.257217683416847"><ele>11.0</ele><time>2026-04-05T10:54:13Z</time></trkpt><trkpt lat="43.853657650836986" lon="10.257194596719184"><ele>11.0</ele><time>2026-04-05T10:54:14Z</time></trkpt><trkpt lat="43.853718338070955" lon="10.257163347750593"><ele>11.0</ele><time>2026-04-05T10:54:15Z</time></trkpt><trkpt lat="43.85377586289328" lon="10.257126597592407"><ele>11.0</ele><time>2026-04-05T10:54:16Z</time></trkpt><trkpt lat="43.853893051293014" lon="10.257063075004487"><ele>11.0</ele><time>2026-04-05T10:54:18Z</time></trkpt><trkpt lat="43.85400574077384" lon="10.256999993912258"><ele>11.0</ele><time>2026-04-05T10:54:20Z</time></trkpt><trkpt lat="43.85412120426617" lon="10.256938128798325"><ele>11.0</ele><time>2026-04-05T10:54:22Z</time></trkpt><trkpt lat="43.854236509982734" lon="10.25687534982048"><ele>11.0</ele><time>2026-04-05T10:54:24Z</time></trkpt><trkpt lat="43.854351638585094" lon="10.256812988928978"><ele>11.0</ele><time>2026-04-05T10:54:26Z</time></trkpt><trkpt lat="43.85446531502648" lon="10.256746103269544"><ele>11.0</ele><time>2026-04-05T10:54:28Z</time></trkpt><trkpt lat="43.85457716721283" lon="10.25667484593063"><ele>10.600000000000001</ele><time>2026-04-05T10:54:30Z</time></trkpt><trkpt lat="43.85469044322129" lon="10.25661134039346"><ele>10.200000000000001</ele><time>2026-04-05T10:54:32Z</time></trkpt><trkpt lat="43.85480441513232" lon="10.256544549719099"><ele>9.8</ele><time>2026-04-05T10:54:34Z</time></trkpt><trkpt lat="43.85486343618677" lon="10.25651161473966"><ele>9.4</ele><time>2026-04-05T10:54:35Z</time></trkpt><trkpt lat="43.85492314150085" lon="10.25648269957842"><ele>9.0</ele><time>2026-04-05T10:54:36Z</time></trkpt><trkpt lat="43.855038118089595" lon="10.256417310180698"><ele>9.4</ele><time>2026-04-05T10:54:38Z</time></trkpt><trkpt lat="43.85514281351252" lon="10.256364676709248"><ele>9.8</ele><time>2026-04-05T10:54:40Z</time></trkpt><trkpt lat="43.85524380515533" lon="10.256311962209942"><ele>10.200000000000001</ele><time>2026-04-05T10:54:42Z</time></trkpt><trkpt lat="43.85534419385936" lon="10.256251311300106"><ele>10.600000000000001</ele><time>2026-04-05T10:54:44Z</time></trkpt><trkpt lat="43.8554438267751" lon="10.256190978017186"><ele>11.0</ele><time>2026-04-05T10:54:46Z</time></trkpt><trkpt lat="43.85554101733158" lon="10.256133549384257"><ele>11.0</ele><time>2026-04-05T10:54:48Z</time></trkpt><trkpt lat="43.855645818409826" lon="10.256075994741968"><ele>11.0</ele><time>2026-04-05T10:54:49.999Z</time></trkpt><trkpt lat="43.855746574850755" lon="10.256019820008524"><ele>11.0</ele><time>2026-04-05T10:54:51.999Z</time></trkpt><trkpt lat="43.85585348305109" lon="10.25597110689229"><ele>11.0</ele><time>2026-04-05T10:54:53.999Z</time></trkpt><trkpt lat="43.85596453574459" lon="10.255909275564543"><ele>10.5</ele><time>2026-04-05T10:54:55.999Z</time></trkpt><trkpt lat="43.85607495832798" lon="10.255847927780597"><ele>10.0</ele><time>2026-04-05T10:54:57.999Z</time></trkpt><trkpt lat="43.856184666096475" lon="10.255776343751345"><ele>9.5</ele><time>2026-04-05T10:54:59.999Z</time></trkpt><trkpt lat="43.856292737833705" lon="10.255712214965616"><ele>9.0</ele><time>2026-04-05T10:55:01.999Z</time></trkpt><trkpt lat="43.85640338138984" lon="10.25565242617945"><ele>9.6</ele><time>2026-04-05T10:55:03.999Z</time></trkpt><trkpt lat="43.85651385943993" lon="10.255593932466528"><ele>10.2</ele><time>2026-04-05T10:55:05.999Z</time></trkpt><trkpt lat="43.85662284336946" lon="10.255549160701968"><ele>10.799999999999999</ele><time>2026-04-05T10:55:07.999Z</time></trkpt><trkpt lat="43.85668096853188" lon="10.255515328149908"><ele>11.4</ele><time>2026-04-05T10:55:08.999Z</time></trkpt><trkpt lat="43.85678829083193" lon="10.25545996204794"><ele>12.0</ele><time>2026-04-05T10:55:10.999Z</time></trkpt><trkpt lat="43.856895730578884" lon="10.255404657573925"><ele>12.8</ele><time>2026-04-05T10:55:12.999Z</time></trkpt><trkpt lat="43.85699795780862" lon="10.255344298487913"><ele>13.6</ele><time>2026-04-05T10:55:14.999Z</time></trkpt><trkpt lat="43.85710064307502" lon="10.255283180819335"><ele>14.400000000000002</ele><time>2026-04-05T10:55:16.999Z</time></trkpt><trkpt lat="43.85720572284227" lon="10.255227061733159"><ele>15.200000000000001</ele><time>2026-04-05T10:55:18.999Z</time></trkpt><trkpt lat="43.85730716228904" lon="10.255163531988309"><ele>16.0</ele><time>2026-04-05T10:55:20.999Z</time></trkpt><trkpt lat="43.857409419012875" lon="10.255102287292978"><ele>16.0</ele><time>2026-04-05T10:55:22.999Z</time></trkpt><trkpt lat="43.85751050310992" lon="10.255053354812889"><ele>16.0</ele><time>2026-04-05T10:55:24.999Z</time></trkpt><trkpt lat="43.85761568671351" lon="10.255008050664056"><ele>16.0</ele><time>2026-04-05T10:55:26.999Z</time></trkpt><trkpt lat="43.85771524504588" lon="10.254946399680742"><ele>16.0</ele><time>2026-04-05T10:55:28.999Z</time></trkpt><trkpt lat="43.85781445615291" lon="10.254880114370705"><ele>16.0</ele><time>2026-04-05T10:55:30.999Z</time></trkpt><trkpt lat="43.85791410314386" lon="10.254824085377095"><ele>15.200000000000001</ele><time>2026-04-05T10:55:32.999Z</time></trkpt><trkpt lat="43.85801582731232" lon="10.25476507126681"><ele>14.400000000000002</ele><time>2026-04-05T10:55:34.999Z</time></trkpt><trkpt lat="43.85811830419963" lon="10.254722771544657"><ele>13.6</ele><time>2026-04-05T10:55:36.999Z</time></trkpt><trkpt lat="43.85822024501866" lon="10.254678943338062"><ele>12.8</ele><time>2026-04-05T10:55:38.998Z</time></trkpt><trkpt lat="43.85831590358942" lon="10.254623194406339"><ele>12.0</ele><time>2026-04-05T10:55:40.998Z</time></trkpt><trkpt lat="43.85841098194703" lon="10.254565119212536"><ele>11.8</ele><time>2026-04-05T10:55:42.998Z</time></trkpt><trkpt lat="43.85850204540465" lon="10.254500703938202"><ele>11.6</ele><time>2026-04-05T10:55:44.998Z</time></trkpt><trkpt lat="43.85860145269683" lon="10.25445870822387"><ele>11.4</ele><time>2026-04-05T10:55:46.998Z</time></trkpt><trkpt lat="43.85870134369433" lon="10.254408839191013"><ele>11.200000000000001</ele><time>2026-04-05T10:55:48.998Z</time></trkpt><trkpt lat="43.858799348940686" lon="10.254352989695791"><ele>11.0</ele><time>2026-04-05T10:55:50.998Z</time></trkpt><trkpt lat="43.858897685015805" lon="10.254304837034166"><ele>11.0</ele><time>2026-04-05T10:55:52.998Z</time></trkpt><trkpt lat="43.85899483658033" lon="10.25424521148518"><ele>11.0</ele><time>2026-04-05T10:55:54.998Z</time></trkpt><trkpt lat="43.85909433701163" lon="10.25418715658076"><ele>11.0</ele><time>2026-04-05T10:55:56.998Z</time></trkpt><trkpt lat="43.85920096977673" lon="10.254138366357331"><ele>11.0</ele><time>2026-04-05T10:55:58.998Z</time></trkpt><trkpt lat="43.85929837388373" lon="10.25406995531075"><ele>11.0</ele><time>2026-04-05T10:56:00.998Z</time></trkpt><trkpt lat="43.859401773931765" lon="10.254018435912313"><ele>11.200000000000001</ele><time>2026-04-05T10:56:02.998Z</time></trkpt><trkpt lat="43.85950806029756" lon="10.253964758644496"><ele>11.4</ele><time>2026-04-05T10:56:04.998Z</time></trkpt><trkpt lat="43.859610246782374" lon="10.25390615901048"><ele>11.6</ele><time>2026-04-05T10:56:06.998Z</time></trkpt><trkpt lat="43.85971181501672" lon="10.253839802549555"><ele>11.8</ele><time>2026-04-05T10:56:08.998Z</time></trkpt><trkpt lat="43.85981919156745" lon="10.253789613590216"><ele>12.0</ele><time>2026-04-05T10:56:10.998Z</time></trkpt><trkpt lat="43.859922902537356" lon="10.253739996126427"><ele>12.399999999999999</ele><time>2026-04-05T10:56:12.998Z</time></trkpt><trkpt lat="43.8600285258887" lon="10.253678649056965"><ele>12.799999999999999</ele><time>2026-04-05T10:56:14.998Z</time></trkpt><trkpt lat="43.86013646505672" lon="10.253625221350598"><ele>13.2</ele><time>2026-04-05T10:56:17Z</time></trkpt><trkpt lat="43.860234941170766" lon="10.2535680638019"><ele>13.6</ele><time>2026-04-05T10:56:19Z</time></trkpt><trkpt lat="43.860334867236226" lon="10.25350535703388"><ele>14.0</ele><time>2026-04-05T10:56:21Z</time></trkpt><trkpt lat="43.86043913155347" lon="10.253458584474789"><ele>14.0</ele><time>2026-04-05T10:56:23Z</time></trkpt><trkpt lat="43.860539337835085" lon="10.253398937326951"><ele>14.0</ele><time>2026-04-05T10:56:25Z</time></trkpt><trkpt lat="43.860647005700464" lon="10.253345498712992"><ele>14.0</ele><time>2026-04-05T10:56:27Z</time></trkpt><trkpt lat="43.8607558373341" lon="10.253288594348183"><ele>14.0</ele><time>2026-04-05T10:56:29Z</time></trkpt><trkpt lat="43.86086313570153" lon="10.25322858102191"><ele>13.5</ele><time>2026-04-05T10:56:31Z</time></trkpt><trkpt lat="43.86097630337864" lon="10.253170801992223"><ele>13.0</ele><time>2026-04-05T10:56:33Z</time></trkpt><trkpt lat="43.861078204646006" lon="10.253102911689984"><ele>12.5</ele><time>2026-04-05T10:56:35Z</time></trkpt><trkpt lat="43.861192119208326" lon="10.253044270647305"><ele>12.0</ele><time>2026-04-05T10:56:37Z</time></trkpt><trkpt lat="43.86129745495367" lon="10.252984633987097"><ele>12.0</ele><time>2026-04-05T10:56:39Z</time></trkpt><trkpt lat="43.86139999471383" lon="10.252924859185228"><ele>12.0</ele><time>2026-04-05T10:56:41Z</time></trkpt><trkpt lat="43.86150681040787" lon="10.252866560337276"><ele>12.0</ele><time>2026-04-05T10:56:43Z</time></trkpt><trkpt lat="43.86161044994557" lon="10.252807080032799"><ele>12.0</ele><time>2026-04-05T10:56:45Z</time></trkpt><trkpt lat="43.861721167250934" lon="10.25275029365963"><ele>11.75</ele><time>2026-04-05T10:56:47Z</time></trkpt><trkpt lat="43.86182664684698" lon="10.252695065207428"><ele>11.5</ele><time>2026-04-05T10:56:49Z</time></trkpt><trkpt lat="43.86193371998038" lon="10.25263960199771"><ele>11.25</ele><time>2026-04-05T10:56:51Z</time></trkpt><trkpt lat="43.86203788742612" lon="10.252578917665119"><ele>11.0</ele><time>2026-04-05T10:56:53Z</time></trkpt><trkpt lat="43.862145796205546" lon="10.252517839390272"><ele>11.0</ele><time>2026-04-05T10:56:55Z</time></trkpt><trkpt lat="43.862249271258875" lon="10.252457706137394"><ele>11.0</ele><time>2026-04-05T10:56:57Z</time></trkpt><trkpt lat="43.86235247843474" lon="10.252392794771247"><ele>11.0</ele><time>2026-04-05T10:56:58.999Z</time></trkpt><trkpt lat="43.86245618765937" lon="10.252330065129968"><ele>11.0</ele><time>2026-04-05T10:57:00.999Z</time></trkpt><trkpt lat="43.86255814910986" lon="10.252284610556686"><ele>11.0</ele><time>2026-04-05T10:57:02.999Z</time></trkpt><trkpt lat="43.86266599125246" lon="10.252244863597353"><ele>10.200000000000001</ele><time>2026-04-05T10:57:04.999Z</time></trkpt><trkpt lat="43.8627640431092" lon="10.2521847456683"><ele>9.4</ele><time>2026-04-05T10:57:06.999Z</time></trkpt><trkpt lat="43.8628625635672" lon="10.252127919123193"><ele>8.6</ele><time>2026-04-05T10:57:08.999Z</time></trkpt><trkpt lat="43.86296477815377" lon="10.252082560309809"><ele>7.8</ele><time>2026-04-05T10:57:10.999Z</time></trkpt><trkpt lat="43.86305998169828" lon="10.252030213223621"><ele>7.0</ele><time>2026-04-05T10:57:12.999Z</time></trkpt><trkpt lat="43.86314705831332" lon="10.251980038614827"><ele>7.000000000000001</ele><time>2026-04-05T10:57:14.999Z</time></trkpt><trkpt lat="43.8632283788411" lon="10.251931418306638"><ele>7.0</ele><time>2026-04-05T10:57:16.999Z</time></trkpt><trkpt lat="43.86330477828798" lon="10.251887664577836"><ele>7.0</ele><time>2026-04-05T10:57:18.999Z</time></trkpt><trkpt lat="43.863378658284695" lon="10.251844844754139"><ele>7.0</ele><time>2026-04-05T10:57:20.999Z</time></trkpt><trkpt lat="43.86346195511212" lon="10.251802633140185"><ele>7.000000000000001</ele><time>2026-04-05T10:57:22.999Z</time></trkpt><trkpt lat="43.86354930294867" lon="10.25175435010139"><ele>7.0</ele><time>2026-04-05T10:57:24.999Z</time></trkpt><trkpt lat="43.86363911480563" lon="10.251702469772233"><ele>6.3999999999999995</ele><time>2026-04-05T10:57:26.999Z</time></trkpt><trkpt lat="43.86373079732014" lon="10.251657021723501"><ele>5.799999999999999</ele><time>2026-04-05T10:57:28.999Z</time></trkpt><trkpt lat="43.863825172279675" lon="10.251595928155465"><ele>5.2</ele><time>2026-04-05T10:57:30.999Z</time></trkpt><trkpt lat="43.86392402797923" lon="10.251539178365235"><ele>4.6</ele><time>2026-04-05T10:57:32.999Z</time></trkpt><trkpt lat="43.864024785493754" lon="10.251483176967373"><ele>4.0</ele><time>2026-04-05T10:57:34.999Z</time></trkpt><trkpt lat="43.86411770413999" lon="10.251436188521796"><ele>3.9999999999999996</ele><time>2026-04-05T10:57:36.999Z</time></trkpt><trkpt lat="43.86420426435831" lon="10.251398403920849"><ele>4.0</ele><time>2026-04-05T10:57:38.999Z</time></trkpt><trkpt lat="43.864282965435095" lon="10.251353849718994"><ele>4.0</ele><time>2026-04-05T10:57:40.999Z</time></trkpt><trkpt lat="43.86434994766597" lon="10.25129449769442"><ele>4.0</ele><time>2026-04-05T10:58:03.998Z</time></trkpt><trkpt lat="43.86441834418459" lon="10.251269460004027"><ele>3.9999999999999996</ele><time>2026-04-05T10:58:06.998Z</time></trkpt><trkpt lat="43.86449927484137" lon="10.251215972651725"><ele>4.0</ele><time>2026-04-05T10:58:09.998Z</time></trkpt><trkpt lat="43.86455946300235" lon="10.251167416967148"><ele>3.833333333333333</ele><time>2026-04-05T10:58:11.998Z</time></trkpt><trkpt lat="43.86462633659903" lon="10.251114749383131"><ele>3.6666666666666665</ele><time>2026-04-05T10:58:13.998Z</time></trkpt><trkpt lat="43.86469764475324" lon="10.251053237610094"><ele>3.5</ele><time>2026-04-05T10:58:15.998Z</time></trkpt><trkpt lat="43.864765727097925" lon="10.250995670565713"><ele>3.333333333333333</ele><time>2026-04-05T10:58:17.998Z</time></trkpt><trkpt lat="43.8648082437904" lon="10.250895605246466"><ele>3.1666666666666665</ele><time>2026-04-05T10:58:19.998Z</time></trkpt><trkpt lat="43.86476973733183" lon="10.250774965901169"><ele>3.0</ele><time>2026-04-05T10:58:21.998Z</time></trkpt><trkpt lat="43.864734373040974" lon="10.250652361849852"><ele>3.2</ele><time>2026-04-05T10:58:24Z</time></trkpt><trkpt lat="43.86469753060485" lon="10.250533788487763"><ele>3.4</ele><time>2026-04-05T10:58:26Z</time></trkpt><trkpt lat="43.86480334233287" lon="10.250431209041587"><ele>3.6000000000000005</ele><time>2026-04-05T10:58:28Z</time></trkpt><trkpt lat="43.864903105965524" lon="10.250393102486779"><ele>3.8000000000000003</ele><time>2026-04-05T10:58:30Z</time></trkpt><trkpt lat="43.86499020958261" lon="10.250337128537492"><ele>4.0</ele><time>2026-04-05T10:58:32Z</time></trkpt><trkpt lat="43.86509084271145" lon="10.250280854476545"><ele>3.6</ele><time>2026-04-05T10:58:34Z</time></trkpt><trkpt lat="43.8651861281196" lon="10.25022762547628"><ele>3.2</ele><time>2026-04-05T10:58:36Z</time></trkpt><trkpt lat="43.86528210439555" lon="10.25016498975858"><ele>2.8000000000000003</ele><time>2026-04-05T10:58:38Z</time></trkpt><trkpt lat="43.86538799081502" lon="10.250117726234684"><ele>2.4000000000000004</ele><time>2026-04-05T10:58:40Z</time></trkpt><trkpt lat="43.865491959721425" lon="10.250064484412873"><ele>2.0</ele><time>2026-04-05T10:58:42Z</time></trkpt><trkpt lat="43.86557508761193" lon="10.250014054925124"><ele>1.9999999999999998</ele><time>2026-04-05T10:58:44Z</time></trkpt><trkpt lat="43.86563710171836" lon="10.249997004512268"><ele>2.0</ele><time>2026-04-05T10:58:49Z</time></trkpt><trkpt lat="43.86572618099788" lon="10.250002873492038"><ele>2.0</ele><time>2026-04-05T10:58:55Z</time></trkpt><trkpt lat="43.86581552465588" lon="10.249937998648758"><ele>2.0</ele><time>2026-04-05T10:58:57Z</time></trkpt><trkpt lat="43.86589541380967" lon="10.249829271985325"><ele>1.9999999999999998</ele><time>2026-04-05T10:58:59Z</time></trkpt><trkpt lat="43.86596467316426" lon="10.249814334786423"><ele>2.0</ele><time>2026-04-05T10:58:59.999Z</time></trkpt><trkpt lat="43.86607242742689" lon="10.249736934172171"><ele>2.6</ele><time>2026-04-05T10:59:01.999Z</time></trkpt><trkpt lat="43.86612901223552" lon="10.249697967858875"><ele>3.2</ele><time>2026-04-05T10:59:02.999Z</time></trkpt><trkpt lat="43.86623966633883" lon="10.249626950442968"><ele>3.8</ele><time>2026-04-05T10:59:04.999Z</time></trkpt><trkpt lat="43.86634411336635" lon="10.249563763480536"><ele>4.4</ele><time>2026-04-05T10:59:06.999Z</time></trkpt><trkpt lat="43.86642649106607" lon="10.249502073792693"><ele>5.0</ele><time>2026-04-05T10:59:08.999Z</time></trkpt><trkpt lat="43.86650015185368" lon="10.249456506596356"><ele>5.0</ele><time>2026-04-05T10:59:10.999Z</time></trkpt><trkpt lat="43.86655938736136" lon="10.249411888056358"><ele>5.0</ele><time>2026-04-05T10:59:12.999Z</time></trkpt><trkpt lat="43.86663189622115" lon="10.249344141948002"><ele>5.0</ele><time>2026-04-05T10:59:14.999Z</time></trkpt><trkpt lat="43.86672072418763" lon="10.24929972509976"><ele>5.0</ele><time>2026-04-05T10:59:16.999Z</time></trkpt><trkpt lat="43.866816336134974" lon="10.249257344039899"><ele>5.0</ele><time>2026-04-05T10:59:18.999Z</time></trkpt><trkpt lat="43.86690459010747" lon="10.24921251362809"><ele>5.0</ele><time>2026-04-05T10:59:20.999Z</time></trkpt><trkpt lat="43.866971610755186" lon="10.249148020083254"><ele>5.0</ele><time>2026-04-05T10:59:22.999Z</time></trkpt><trkpt lat="43.86703987336521" lon="10.249106743376888"><ele>5.0</ele><time>2026-04-05T10:59:25.999Z</time></trkpt><trkpt lat="43.86711398947426" lon="10.249085477034246"><ele>5.0</ele><time>2026-04-05T10:59:28.999Z</time></trkpt><trkpt lat="43.867197272246656" lon="10.249015179108447"><ele>5.0</ele><time>2026-04-05T10:59:31.999Z</time></trkpt><trkpt lat="43.86725957007826" lon="10.248979624053552"><ele>5.0</ele><time>2026-04-05T10:59:33.999Z</time></trkpt><trkpt lat="43.86730246423854" lon="10.248899863339336"><ele>5.0</ele><time>2026-04-05T10:59:35.999Z</time></trkpt><trkpt lat="43.86738460270926" lon="10.248856007778997"><ele>5.142857142857142</ele><time>2026-04-05T10:59:38.999Z</time></trkpt><trkpt lat="43.86744895268365" lon="10.248844125312692"><ele>5.285714285714286</ele><time>2026-04-05T10:59:42.999Z</time></trkpt><trkpt lat="43.8675124038919" lon="10.24881782776954"><ele>5.428571428571429</ele><time>2026-04-05T10:59:45.999Z</time></trkpt><trkpt lat="43.86759815020848" lon="10.24875889643798"><ele>5.571428571428571</ele><time>2026-04-05T10:59:48.998Z</time></trkpt><trkpt lat="43.86765859342745" lon="10.248715486890115"><ele>5.714285714285714</ele><time>2026-04-05T10:59:50.998Z</time></trkpt><trkpt lat="43.8677303742807" lon="10.248682193438627"><ele>5.857142857142857</ele><time>2026-04-05T10:59:52.998Z</time></trkpt><trkpt lat="43.867801890393" lon="10.248645405455916"><ele>6.0</ele><time>2026-04-05T10:59:54.998Z</time></trkpt><trkpt lat="43.867871755538545" lon="10.248608112808599"><ele>5.999999999999999</ele><time>2026-04-05T10:59:56.998Z</time></trkpt><trkpt lat="43.867943385843525" lon="10.248586198299897"><ele>6.0</ele><time>2026-04-05T10:59:58.998Z</time></trkpt><trkpt lat="43.86800488419561" lon="10.248527186778796"><ele>6.0</ele><time>2026-04-05T11:00:00.998Z</time></trkpt><trkpt lat="43.86806710700747" lon="10.248498751350745"><ele>6.0</ele><time>2026-04-05T11:00:02.998Z</time></trkpt><trkpt lat="43.8681333588025" lon="10.248477278270899"><ele>6.0</ele><time>2026-04-05T11:00:04.998Z</time></trkpt><trkpt lat="43.86818894359875" lon="10.24843315798979"><ele>5.999999999999999</ele><time>2026-04-05T11:00:06.998Z</time></trkpt><trkpt lat="43.868251479368" lon="10.248461125246292"><ele>6.0</ele><time>2026-04-05T11:00:11.998Z</time></trkpt><trkpt lat="43.86831758408553" lon="10.24841947160842"><ele>5.999999999999999</ele><time>2026-04-05T11:00:15.998Z</time></trkpt><trkpt lat="43.868349774645104" lon="10.248339310300528"><ele>6.0</ele><time>2026-04-05T11:00:17.998Z</time></trkpt><trkpt lat="43.86844245087293" lon="10.248298113489925"><ele>6.0</ele><time>2026-04-05T11:00:20.998Z</time></trkpt><trkpt lat="43.86850545553234" lon="10.248247326824618"><ele>6.0</ele><time>2026-04-05T11:00:22.998Z</time></trkpt><trkpt lat="43.86857140416896" lon="10.248204363736502"><ele>6.0</ele><time>2026-04-05T11:00:24.998Z</time></trkpt><trkpt lat="43.86863607818791" lon="10.248169387858669"><ele>5.999999999999999</ele><time>2026-04-05T11:00:26.998Z</time></trkpt><trkpt lat="43.86869702254806" lon="10.248135926182536"><ele>6.0</ele><time>2026-04-05T11:00:29Z</time></trkpt><trkpt lat="43.868760816583226" lon="10.248108178038828"><ele>5.833333333333333</ele><time>2026-04-05T11:00:32Z</time></trkpt><trkpt lat="43.86883246431534" lon="10.248047639970947"><ele>5.666666666666667</ele><time>2026-04-05T11:00:38Z</time></trkpt><trkpt lat="43.86889918596562" lon="10.24803896730128"><ele>5.5</ele><time>2026-04-05T11:00:40Z</time></trkpt><trkpt lat="43.868957161853636" lon="10.247990300688535"><ele>5.333333333333334</ele><time>2026-04-05T11:00:42Z</time></trkpt><trkpt lat="43.869017358058294" lon="10.247950131016774"><ele>5.166666666666667</ele><time>2026-04-05T11:00:44Z</time></trkpt><trkpt lat="43.86909971786009" lon="10.247892730029717"><ele>5.0</ele><time>2026-04-05T11:00:47Z</time></trkpt><trkpt lat="43.86917966436529" lon="10.247859716529618"><ele>5.0</ele><time>2026-04-05T11:00:50Z</time></trkpt><trkpt lat="43.869235861297696" lon="10.247805201649703"><ele>5.0</ele><time>2026-04-05T11:00:53Z</time></trkpt><trkpt lat="43.86931357730724" lon="10.247764536701984"><ele>5.0</ele><time>2026-04-05T11:00:58Z</time></trkpt><trkpt lat="43.869371541561904" lon="10.247730238508018"><ele>5.0</ele><time>2026-04-05T11:01:00Z</time></trkpt><trkpt lat="43.8694386376122" lon="10.247691547517336"><ele>5.0</ele><time>2026-04-05T11:01:02Z</time></trkpt><trkpt lat="43.86950521331479" lon="10.247646529162623"><ele>5.0</ele><time>2026-04-05T11:01:04Z</time></trkpt><trkpt lat="43.86957260281281" lon="10.247609504660765"><ele>5.0</ele><time>2026-04-05T11:01:06Z</time></trkpt><trkpt lat="43.8696330770161" lon="10.247564562038155"><ele>5.0</ele><time>2026-04-05T11:01:08Z</time></trkpt><trkpt lat="43.86972287152372" lon="10.24752949541635"><ele>5.0</ele><time>2026-04-05T11:01:10.999Z</time></trkpt><trkpt lat="43.86980405935817" lon="10.247479997409238"><ele>5.0</ele><time>2026-04-05T11:01:12.999Z</time></trkpt><trkpt lat="43.86988597375128" lon="10.24744216142048"><ele>5.0</ele><time>2026-04-05T11:01:14.999Z</time></trkpt><trkpt lat="43.86996364599672" lon="10.24739998876193"><ele>5.0</ele><time>2026-04-05T11:01:16.999Z</time></trkpt><trkpt lat="43.87004437989291" lon="10.247353176045065"><ele>5.0</ele><time>2026-04-05T11:01:18.999Z</time></trkpt><trkpt lat="43.870136352905774" lon="10.247324633434264"><ele>4.833333333333334</ele><time>2026-04-05T11:01:20.999Z</time></trkpt><trkpt lat="43.87020599988104" lon="10.247272447618622"><ele>4.666666666666667</ele><time>2026-04-05T11:01:22.999Z</time></trkpt><trkpt lat="43.87029834207141" lon="10.247197653712204"><ele>4.5</ele><time>2026-04-05T11:01:25.999Z</time></trkpt><trkpt lat="43.870375992699884" lon="10.247188296422094"><ele>4.333333333333333</ele><time>2026-04-05T11:01:27.999Z</time></trkpt><trkpt lat="43.87045494943181" lon="10.247134140788416"><ele>4.166666666666666</ele><time>2026-04-05T11:01:29.999Z</time></trkpt><trkpt lat="43.87053584435778" lon="10.247078992409401"><ele>4.0</ele><time>2026-04-05T11:01:31.999Z</time></trkpt><trkpt lat="43.87061174575137" lon="10.247041727869423"><ele>3.9999999999999996</ele><time>2026-04-05T11:01:33.999Z</time></trkpt><trkpt lat="43.870682678968656" lon="10.247004137867378"><ele>4.0</ele><time>2026-04-05T11:01:35.999Z</time></trkpt><trkpt lat="43.87074580332013" lon="10.246965918802012"><ele>4.0</ele><time>2026-04-05T11:01:37.999Z</time></trkpt><trkpt lat="43.87081579440162" lon="10.246937246426352"><ele>4.0</ele><time>2026-04-05T11:01:39.999Z</time></trkpt><trkpt lat="43.870905528752694" lon="10.246895804917706"><ele>3.9999999999999996</ele><time>2026-04-05T11:01:42.999Z</time></trkpt><trkpt lat="43.87099231967558" lon="10.24683052250026"><ele>4.0</ele><time>2026-04-05T11:01:44.999Z</time></trkpt><trkpt lat="43.87107554610198" lon="10.246778294997444"><ele>4.0</ele><time>2026-04-05T11:01:46.999Z</time></trkpt><trkpt lat="43.871152838741075" lon="10.2467297688793"><ele>3.9999999999999996</ele><time>2026-04-05T11:01:48.999Z</time></trkpt><trkpt lat="43.87122003670821" lon="10.246674069527298"><ele>4.0</ele><time>2026-04-05T11:01:50.999Z</time></trkpt><trkpt lat="43.871295728721215" lon="10.246631466107205"><ele>4.0</ele><time>2026-04-05T11:01:52.999Z</time></trkpt><trkpt lat="43.871362940721326" lon="10.24659531048554"><ele>3.9999999999999996</ele><time>2026-04-05T11:01:54.999Z</time></trkpt><trkpt lat="43.87142481051237" lon="10.246562980806068"><ele>4.0</ele><time>2026-04-05T11:01:56.999Z</time></trkpt><trkpt lat="43.87147410454857" lon="10.246507943239639"><ele>4.0</ele><time>2026-04-05T11:01:58.998Z</time></trkpt><trkpt lat="43.871542802948866" lon="10.246513100407261"><ele>4.0</ele><time>2026-04-05T11:02:01.998Z</time></trkpt><trkpt lat="43.87158152435361" lon="10.246607354244276"><ele>4.0</ele><time>2026-04-05T11:02:03.998Z</time></trkpt><trkpt lat="43.87159680150359" lon="10.2466940580642"><ele>4.0</ele><time>2026-04-05T11:02:04.998Z</time></trkpt><trkpt lat="43.87164735290285" lon="10.246819612295122"><ele>4.0</ele><time>2026-04-05T11:02:06.998Z</time></trkpt><trkpt lat="43.8716983417676" lon="10.246961162139424"><ele>4.0</ele><time>2026-04-05T11:02:08.998Z</time></trkpt><trkpt lat="43.87174639832938" lon="10.2471028086982"><ele>3.8000000000000003</ele><time>2026-04-05T11:02:10.998Z</time></trkpt><trkpt lat="43.871790832737645" lon="10.247234917945175"><ele>3.6000000000000005</ele><time>2026-04-05T11:02:12.998Z</time></trkpt><trkpt lat="43.87183623240843" lon="10.247362290342357"><ele>3.4</ele><time>2026-04-05T11:02:14.998Z</time></trkpt><trkpt lat="43.87185565853643" lon="10.24748134294393"><ele>3.2</ele><time>2026-04-05T11:02:16.998Z</time></trkpt><trkpt lat="43.87188110000421" lon="10.247566599481724"><ele>3.0</ele><time>2026-04-05T11:02:18.998Z</time></trkpt><trkpt lat="43.872085785674585" lon="10.24745959606789"><ele>3.0</ele><time>2026-04-05T11:02:22.998Z</time></trkpt><trkpt lat="43.87217478626991" lon="10.247412015088768"><ele>3.0</ele><time>2026-04-05T11:02:24.998Z</time></trkpt><trkpt lat="43.87226304807703" lon="10.247363013066858"><ele>3.0</ele><time>2026-04-05T11:02:26.998Z</time></trkpt><trkpt lat="43.872344057928515" lon="10.247330356994727"><ele>3.0</ele><time>2026-04-05T11:02:28.998Z</time></trkpt><trkpt lat="43.87240915420342" lon="10.24728412923143"><ele>3.0</ele><time>2026-04-05T11:02:30.998Z</time></trkpt><trkpt lat="43.872486073275745" lon="10.247237440586835"><ele>3.0</ele><time>2026-04-05T11:02:32.998Z</time></trkpt><trkpt lat="43.87256516633387" lon="10.247201673557994"><ele>3.0</ele><time>2026-04-05T11:02:35Z</time></trkpt><trkpt lat="43.872644529065745" lon="10.247155737155573"><ele>3.0</ele><time>2026-04-05T11:02:37Z</time></trkpt><trkpt lat="43.872729671563796" lon="10.247117731170828"><ele>3.0</ele><time>2026-04-05T11:02:40Z</time></trkpt><trkpt lat="43.872791009805745" lon="10.247080614424885"><ele>3.0</ele><time>2026-04-05T11:02:42Z</time></trkpt><trkpt lat="43.87286160961643" lon="10.247049105625344"><ele>3.0</ele><time>2026-04-05T11:02:44Z</time></trkpt><trkpt lat="43.87294063813313" lon="10.246989400865274"><ele>3.0</ele><time>2026-04-05T11:02:46Z</time></trkpt><trkpt lat="43.87302966823519" lon="10.24693537312121"><ele>3.0</ele><time>2026-04-05T11:02:48Z</time></trkpt><trkpt lat="43.87312626533898" lon="10.246882445756347"><ele>3.0</ele><time>2026-04-05T11:02:50Z</time></trkpt><trkpt lat="43.87321998482513" lon="10.246817961202886"><ele>3.0</ele><time>2026-04-05T11:02:52Z</time></trkpt><trkpt lat="43.8733148834031" lon="10.24676175709296"><ele>3.0</ele><time>2026-04-05T11:02:54Z</time></trkpt><trkpt lat="43.87340088759048" lon="10.246704929521801"><ele>3.0</ele><time>2026-04-05T11:02:56Z</time></trkpt><trkpt lat="43.873487984819754" lon="10.246674942175563"><ele>3.1666666666666665</ele><time>2026-04-05T11:02:58Z</time></trkpt><trkpt lat="43.8735594474628" lon="10.246617824599443"><ele>3.333333333333333</ele><time>2026-04-05T11:03:00Z</time></trkpt><trkpt lat="43.873622874074336" lon="10.24658421172713"><ele>3.5</ele><time>2026-04-05T11:03:02Z</time></trkpt><trkpt lat="43.87368620521024" lon="10.246550020162218"><ele>3.6666666666666665</ele><time>2026-04-05T11:03:05Z</time></trkpt><trkpt lat="43.87374754201338" lon="10.246515180967311"><ele>3.833333333333333</ele><time>2026-04-05T11:03:07Z</time></trkpt><trkpt lat="43.87382455552952" lon="10.246487154961274"><ele>4.0</ele><time>2026-04-05T11:03:09Z</time></trkpt><trkpt lat="43.87390301940085" lon="10.246438118992875"><ele>3.9999999999999996</ele><time>2026-04-05T11:03:11Z</time></trkpt><trkpt lat="43.87397984693135" lon="10.246384039671797"><ele>4.0</ele><time>2026-04-05T11:03:13Z</time></trkpt><trkpt lat="43.874049346274575" lon="10.246314436893812"><ele>4.0</ele><time>2026-04-05T11:03:14.999Z</time></trkpt><trkpt lat="43.874120276797356" lon="10.246274243910678"><ele>4.0</ele><time>2026-04-05T11:03:16.999Z</time></trkpt><trkpt lat="43.87420383108801" lon="10.246243228538603"><ele>3.9999999999999996</ele><time>2026-04-05T11:03:18.999Z</time></trkpt><trkpt lat="43.87428935716292" lon="10.246199002572164"><ele>4.0</ele><time>2026-04-05T11:03:20.999Z</time></trkpt><trkpt lat="43.87438018610846" lon="10.246145372949451"><ele>4.2</ele><time>2026-04-05T11:03:22.999Z</time></trkpt><trkpt lat="43.87447029854582" lon="10.246085254624079"><ele>4.4</ele><time>2026-04-05T11:03:24.999Z</time></trkpt><trkpt lat="43.87455200558032" lon="10.24603792420373"><ele>4.6</ele><time>2026-04-05T11:03:26.999Z</time></trkpt><trkpt lat="43.87462664844845" lon="10.245999620392777"><ele>4.8</ele><time>2026-04-05T11:03:28.999Z</time></trkpt><trkpt lat="43.874717144136355" lon="10.245936373514208"><ele>5.0</ele><time>2026-04-05T11:03:31.999Z</time></trkpt><trkpt lat="43.874813118000944" lon="10.245894708866373"><ele>5.0</ele><time>2026-04-05T11:03:33.999Z</time></trkpt><trkpt lat="43.87491793698659" lon="10.245828876551244"><ele>5.0</ele><time>2026-04-05T11:03:35.999Z</time></trkpt><trkpt lat="43.87501234307017" lon="10.24576729576195"><ele>5.0</ele><time>2026-04-05T11:03:37.999Z</time></trkpt><trkpt lat="43.875106008861984" lon="10.24572044815988"><ele>5.0</ele><time>2026-04-05T11:03:39.999Z</time></trkpt><trkpt lat="43.875175703761926" lon="10.245672084412638"><ele>5.0</ele><time>2026-04-05T11:03:41.999Z</time></trkpt><trkpt lat="43.87519521626503" lon="10.245490836952925"><ele>5.0</ele><time>2026-04-05T11:03:46.999Z</time></trkpt><trkpt lat="43.87527338847736" lon="10.245425961439878"><ele>5.0</ele><time>2026-04-05T11:03:49.999Z</time></trkpt><trkpt lat="43.875368774495584" lon="10.2454006538473"><ele>5.0</ele><time>2026-04-05T11:03:51.999Z</time></trkpt><trkpt lat="43.8754621567364" lon="10.245337649112313"><ele>5.0</ele><time>2026-04-05T11:03:53.999Z</time></trkpt><trkpt lat="43.87555623856647" lon="10.2452868245381"><ele>5.0</ele><time>2026-04-05T11:03:55.999Z</time></trkpt><trkpt lat="43.875653430245045" lon="10.24523775551161"><ele>5.0</ele><time>2026-04-05T11:03:57.999Z</time></trkpt><trkpt lat="43.875747510523226" lon="10.245192882076166"><ele>5.0</ele><time>2026-04-05T11:03:59.999Z</time></trkpt><trkpt lat="43.87582732679687" lon="10.245143767876453"><ele>5.0</ele><time>2026-04-05T11:04:01.999Z</time></trkpt><trkpt lat="43.8758933368481" lon="10.245071950426956"><ele>5.0</ele><time>2026-04-05T11:04:03.998Z</time></trkpt><trkpt lat="43.875940729009464" lon="10.245001330130558"><ele>5.0</ele><time>2026-04-05T11:04:05.998Z</time></trkpt><trkpt lat="43.876002744999305" lon="10.244979390177772"><ele>5.0</ele><time>2026-04-05T11:04:07.998Z</time></trkpt><trkpt lat="43.875983110277865" lon="10.244869831343806"><ele>5.4</ele><time>2026-04-05T11:04:09.998Z</time></trkpt><trkpt lat="43.875933227626" lon="10.244756418903712"><ele>5.8</ele><time>2026-04-05T11:04:11.998Z</time></trkpt><trkpt lat="43.875894517886586" lon="10.244635486308153"><ele>6.199999999999999</ele><time>2026-04-05T11:04:13.998Z</time></trkpt><trkpt lat="43.87585993648276" lon="10.244506658452705"><ele>6.6</ele><time>2026-04-05T11:04:15.998Z</time></trkpt><trkpt lat="43.87580961445816" lon="10.244366077007689"><ele>7.0</ele><time>2026-04-05T11:04:17.998Z</time></trkpt><trkpt lat="43.87576155962288" lon="10.244230443889402"><ele>7.0</ele><time>2026-04-05T11:04:19.998Z</time></trkpt><trkpt lat="43.87573509884899" lon="10.24411429435708"><ele>6.999999999999999</ele><time>2026-04-05T11:04:21.998Z</time></trkpt><trkpt lat="43.87570465543428" lon="10.243997638797813"><ele>6.999999999999999</ele><time>2026-04-05T11:04:23.998Z</time></trkpt><trkpt lat="43.87566557324438" lon="10.243885520796178"><ele>7.0</ele><time>2026-04-05T11:04:25.998Z</time></trkpt><trkpt lat="43.87562596168727" lon="10.24376253222921"><ele>7.0</ele><time>2026-04-05T11:04:27.998Z</time></trkpt><trkpt lat="43.87559472344524" lon="10.243639717515759"><ele>6.666666666666667</ele><time>2026-04-05T11:04:29.998Z</time></trkpt><trkpt lat="43.87556715566482" lon="10.243523590527722"><ele>6.333333333333334</ele><time>2026-04-05T11:04:31.998Z</time></trkpt><trkpt lat="43.87552780756556" lon="10.243407022361342"><ele>6.0</ele><time>2026-04-05T11:04:33.998Z</time></trkpt><trkpt lat="43.875497234030064" lon="10.243308439433214"><ele>5.666666666666667</ele><time>2026-04-05T11:04:35.998Z</time></trkpt><trkpt lat="43.875484733230316" lon="10.243201093254433"><ele>5.333333333333334</ele><time>2026-04-05T11:04:37.998Z</time></trkpt><trkpt lat="43.875494043045826" lon="10.243098710610738"><ele>5.0</ele><time>2026-04-05T11:04:39.998Z</time></trkpt><trkpt lat="43.87554797445856" lon="10.243021480391395"><ele>5.0</ele><time>2026-04-05T11:04:42Z</time></trkpt><trkpt lat="43.87564166652144" lon="10.242990219944847"><ele>5.0</ele><time>2026-04-05T11:04:44Z</time></trkpt><trkpt lat="43.8757392372481" lon="10.242952672584515"><ele>5.0</ele><time>2026-04-05T11:04:46Z</time></trkpt><trkpt lat="43.87583171264491" lon="10.242905296838044"><ele>5.0</ele><time>2026-04-05T11:04:48Z</time></trkpt><trkpt lat="43.87593007765088" lon="10.242856633847316"><ele>5.0</ele><time>2026-04-05T11:04:50Z</time></trkpt><trkpt lat="43.87602811348711" lon="10.242806712943887"><ele>5.4</ele><time>2026-04-05T11:04:52Z</time></trkpt><trkpt lat="43.87612597857578" lon="10.24275824763131"><ele>5.8</ele><time>2026-04-05T11:04:54Z</time></trkpt><trkpt lat="43.876233025216706" lon="10.242710294345962"><ele>6.199999999999999</ele><time>2026-04-05T11:04:56Z</time></trkpt><trkpt lat="43.876330956579324" lon="10.242644363947713"><ele>6.6</ele><time>2026-04-05T11:04:58Z</time></trkpt><trkpt lat="43.87644016956961" lon="10.24259373894146"><ele>7.0</ele><time>2026-04-05T11:05:00Z</time></trkpt><trkpt lat="43.876551500540934" lon="10.242542346262288"><ele>7.0</ele><time>2026-04-05T11:05:02Z</time></trkpt><trkpt lat="43.87665959981649" lon="10.242483174927552"><ele>7.0</ele><time>2026-04-05T11:05:04Z</time></trkpt><trkpt lat="43.87677100248698" lon="10.2424360589921"><ele>7.0</ele><time>2026-04-05T11:05:06Z</time></trkpt><trkpt lat="43.87688190593689" lon="10.242379651780112"><ele>7.0</ele><time>2026-04-05T11:05:08Z</time></trkpt><trkpt lat="43.87698303776284" lon="10.242315041399543"><ele>6.5</ele><time>2026-04-05T11:05:10Z</time></trkpt><trkpt lat="43.877096716018805" lon="10.242264331253924"><ele>6.0</ele><time>2026-04-05T11:05:12Z</time></trkpt><trkpt lat="43.87720960786283" lon="10.242221885066453"><ele>5.5</ele><time>2026-04-05T11:05:14Z</time></trkpt><trkpt lat="43.877319354393926" lon="10.242159978093648"><ele>5.0</ele><time>2026-04-05T11:05:16Z</time></trkpt><trkpt lat="43.87741799724883" lon="10.242111138271275"><ele>5.0</ele><time>2026-04-05T11:05:17.999Z</time></trkpt><trkpt lat="43.87752690516727" lon="10.24206321129481"><ele>5.0</ele><time>2026-04-05T11:05:19.999Z</time></trkpt><trkpt lat="43.87762497077392" lon="10.24200168230932"><ele>5.0</ele><time>2026-04-05T11:05:21.999Z</time></trkpt><trkpt lat="43.877722187981895" lon="10.241940839630972"><ele>5.0</ele><time>2026-04-05T11:05:23.999Z</time></trkpt><trkpt lat="43.87782638752597" lon="10.241880801246163"><ele>5.0</ele><time>2026-04-05T11:05:25.999Z</time></trkpt><trkpt lat="43.87793356288569" lon="10.24181836964082"><ele>6.0</ele><time>2026-04-05T11:05:27.999Z</time></trkpt><trkpt lat="43.878038999273805" lon="10.241761428105377"><ele>7.0</ele><time>2026-04-05T11:05:29.999Z</time></trkpt><trkpt lat="43.87815189719469" lon="10.24172068116249"><ele>8.0</ele><time>2026-04-05T11:05:31.999Z</time></trkpt><trkpt lat="43.87826134982188" lon="10.24167258096798"><ele>9.0</ele><time>2026-04-05T11:05:33.999Z</time></trkpt><trkpt lat="43.87836928471934" lon="10.241620311088386"><ele>8.8</ele><time>2026-04-05T11:05:35.999Z</time></trkpt><trkpt lat="43.878473381140466" lon="10.241571630293565"><ele>8.600000000000001</ele><time>2026-04-05T11:05:37.999Z</time></trkpt><trkpt lat="43.878578866648525" lon="10.241525963928934"><ele>8.4</ele><time>2026-04-05T11:05:39.999Z</time></trkpt><trkpt lat="43.87868259687075" lon="10.241465624538712"><ele>8.200000000000001</ele><time>2026-04-05T11:05:41.999Z</time></trkpt><trkpt lat="43.87877991793511" lon="10.241404877749156"><ele>8.0</ele><time>2026-04-05T11:05:43.999Z</time></trkpt><trkpt lat="43.878841722209856" lon="10.241384931031854"><ele>8.0</ele><time>2026-04-05T11:05:44.999Z</time></trkpt><trkpt lat="43.87892887957568" lon="10.241326797225051"><ele>8.0</ele><time>2026-04-05T11:05:46.999Z</time></trkpt><trkpt lat="43.879037073178125" lon="10.241280929309383"><ele>8.0</ele><time>2026-04-05T11:05:48.999Z</time></trkpt><trkpt lat="43.8791427916247" lon="10.241232930540372"><ele>8.0</ele><time>2026-04-05T11:05:50.999Z</time></trkpt><trkpt lat="43.87920500270198" lon="10.241208170363402"><ele>8.0</ele><time>2026-04-05T11:05:51.999Z</time></trkpt><trkpt lat="43.879311110651834" lon="10.241155109799701"><ele>8.0</ele><time>2026-04-05T11:05:53.999Z</time></trkpt><trkpt lat="43.879412489757115" lon="10.241107876708305"><ele>8.0</ele><time>2026-04-05T11:05:55.999Z</time></trkpt><trkpt lat="43.879519575617095" lon="10.241048177710198"><ele>8.0</ele><time>2026-04-05T11:05:57.999Z</time></trkpt><trkpt lat="43.87963123821927" lon="10.241008162715309"><ele>8.0</ele><time>2026-04-05T11:05:59.999Z</time></trkpt><trkpt lat="43.87972661701008" lon="10.240969430179137"><ele>8.0</ele><time>2026-04-05T11:06:01.999Z</time></trkpt><trkpt lat="43.879783180203894" lon="10.240926883591875"><ele>8.0</ele><time>2026-04-05T11:06:02.999Z</time></trkpt><trkpt lat="43.87989797917976" lon="10.240871402926059"><ele>8.0</ele><time>2026-04-05T11:06:04.999Z</time></trkpt><trkpt lat="43.880011012590664" lon="10.240815748271286"><ele>8.0</ele><time>2026-04-05T11:06:06.998Z</time></trkpt><trkpt lat="43.88006994145034" lon="10.240783421722437"><ele>8.0</ele><time>2026-04-05T11:06:07.998Z</time></trkpt><trkpt lat="43.88018476171652" lon="10.240731051966844"><ele>8.0</ele><time>2026-04-05T11:06:09.998Z</time></trkpt><trkpt lat="43.88029887458047" lon="10.240675903758575"><ele>8.200000000000001</ele><time>2026-04-05T11:06:11.998Z</time></trkpt><trkpt lat="43.880411467191074" lon="10.240616702621514"><ele>8.4</ele><time>2026-04-05T11:06:13.998Z</time></trkpt><trkpt lat="43.88052753321282" lon="10.24055849342501"><ele>8.600000000000001</ele><time>2026-04-05T11:06:15.998Z</time></trkpt><trkpt lat="43.88058825468029" lon="10.240529917497005"><ele>8.8</ele><time>2026-04-05T11:06:16.998Z</time></trkpt><trkpt lat="43.88070326788564" lon="10.240478158799498"><ele>9.0</ele><time>2026-04-05T11:06:18.998Z</time></trkpt><trkpt lat="43.88081404983824" lon="10.240410554337283"><ele>9.0</ele><time>2026-04-05T11:06:20.998Z</time></trkpt><trkpt lat="43.88091818355411" lon="10.24035933629135"><ele>9.0</ele><time>2026-04-05T11:06:22.998Z</time></trkpt><trkpt lat="43.88101760624596" lon="10.240311445116392"><ele>9.0</ele><time>2026-04-05T11:06:24.998Z</time></trkpt><trkpt lat="43.881118434970695" lon="10.240263917334374"><ele>9.0</ele><time>2026-04-05T11:06:26.998Z</time></trkpt><trkpt lat="43.88122336908225" lon="10.240215505238101"><ele>9.0</ele><time>2026-04-05T11:06:28.998Z</time></trkpt><trkpt lat="43.88132453729342" lon="10.240159805386423"><ele>8.75</ele><time>2026-04-05T11:06:30.998Z</time></trkpt><trkpt lat="43.88143221112498" lon="10.240111401073799"><ele>8.5</ele><time>2026-04-05T11:06:32.998Z</time></trkpt><trkpt lat="43.88154205400028" lon="10.24005931412947"><ele>8.25</ele><time>2026-04-05T11:06:34.998Z</time></trkpt><trkpt lat="43.8816481120804" lon="10.240003533386146"><ele>8.0</ele><time>2026-04-05T11:06:36.998Z</time></trkpt><trkpt lat="43.88175696404911" lon="10.239942501680206"><ele>8.0</ele><time>2026-04-05T11:06:38.998Z</time></trkpt><trkpt lat="43.88185752260446" lon="10.239882034013812"><ele>8.0</ele><time>2026-04-05T11:06:40.998Z</time></trkpt><trkpt lat="43.881963102631055" lon="10.239831587763687"><ele>8.0</ele><time>2026-04-05T11:06:42.998Z</time></trkpt><trkpt lat="43.88206565659259" lon="10.239782063470894"><ele>8.0</ele><time>2026-04-05T11:06:44.998Z</time></trkpt><trkpt lat="43.88214847170401" lon="10.239736727786557"><ele>8.0</ele><time>2026-04-05T11:06:47Z</time></trkpt><trkpt lat="43.88223208733302" lon="10.239700118812646"><ele>7.999999999999999</ele><time>2026-04-05T11:06:49Z</time></trkpt><trkpt lat="43.88229654854239" lon="10.239672142014834"><ele>8.0</ele><time>2026-04-05T11:06:52Z</time></trkpt><trkpt lat="43.882359252462194" lon="10.239641907050386"><ele>8.0</ele><time>2026-04-05T11:06:55Z</time></trkpt><trkpt lat="43.88244293512522" lon="10.239590530136118"><ele>8.0</ele><time>2026-04-05T11:06:58Z</time></trkpt><trkpt lat="43.88250845674987" lon="10.239547003382617"><ele>7.999999999999999</ele><time>2026-04-05T11:07:00Z</time></trkpt><trkpt lat="43.882578366107545" lon="10.239483964310235"><ele>8.0</ele><time>2026-04-05T11:07:02Z</time></trkpt><trkpt lat="43.88266703834165" lon="10.239423970071373"><ele>7.6000000000000005</ele><time>2026-04-05T11:07:04Z</time></trkpt><trkpt lat="43.882758916842135" lon="10.239372560663913"><ele>7.200000000000001</ele><time>2026-04-05T11:07:06Z</time></trkpt><trkpt lat="43.882848425375215" lon="10.23929688683352"><ele>6.8</ele><time>2026-04-05T11:07:08Z</time></trkpt><trkpt lat="43.88294004106659" lon="10.239233318307944"><ele>6.4</ele><time>2026-04-05T11:07:10Z</time></trkpt><trkpt lat="43.883042105809665" lon="10.239164374085234"><ele>6.0</ele><time>2026-04-05T11:07:12Z</time></trkpt><trkpt lat="43.88314427548813" lon="10.23909059576098"><ele>6.0</ele><time>2026-04-05T11:07:14Z</time></trkpt><trkpt lat="43.883252616483226" lon="10.239025236858042"><ele>6.0</ele><time>2026-04-05T11:07:16Z</time></trkpt><trkpt lat="43.88334536898079" lon="10.238949695681326"><ele>6.0</ele><time>2026-04-05T11:07:18Z</time></trkpt><trkpt lat="43.883407335180856" lon="10.238917867852873"><ele>6.0</ele><time>2026-04-05T11:07:19Z</time></trkpt><trkpt lat="43.88351294909489" lon="10.238847811344543"><ele>6.0</ele><time>2026-04-05T11:07:21Z</time></trkpt><trkpt lat="43.88364108619842" lon="10.23878709213521"><ele>6.5</ele><time>2026-04-05T11:07:22.999Z</time></trkpt><trkpt lat="43.8837521452608" lon="10.238698006861428"><ele>7.0</ele><time>2026-04-05T11:07:24.999Z</time></trkpt><trkpt lat="43.883857912484686" lon="10.238620698020606"><ele>7.5</ele><time>2026-04-05T11:07:26.999Z</time></trkpt><trkpt lat="43.88397322164306" lon="10.238539703830853"><ele>8.0</ele><time>2026-04-05T11:07:28.999Z</time></trkpt><trkpt lat="43.884075129850935" lon="10.238456823516222"><ele>8.0</ele><time>2026-04-05T11:07:30.999Z</time></trkpt><trkpt lat="43.884174453534044" lon="10.238385722847077"><ele>8.0</ele><time>2026-04-05T11:07:32.999Z</time></trkpt><trkpt lat="43.88427915820225" lon="10.238302740414035"><ele>8.0</ele><time>2026-04-05T11:07:34.999Z</time></trkpt><trkpt lat="43.884341398001716" lon="10.23826168911572"><ele>8.0</ele><time>2026-04-05T11:07:35.999Z</time></trkpt><trkpt lat="43.88445812364178" lon="10.23820062478265"><ele>8.0</ele><time>2026-04-05T11:07:37.999Z</time></trkpt><trkpt lat="43.88455739964536" lon="10.238127442144"><ele>7.6000000000000005</ele><time>2026-04-05T11:07:39.999Z</time></trkpt><trkpt lat="43.88464696891858" lon="10.238062909598423"><ele>7.200000000000001</ele><time>2026-04-05T11:07:41.999Z</time></trkpt><trkpt lat="43.88473982070711" lon="10.238001317874364"><ele>6.8</ele><time>2026-04-05T11:07:43.999Z</time></trkpt><trkpt lat="43.88483261816432" lon="10.237924362090471"><ele>6.4</ele><time>2026-04-05T11:07:45.999Z</time></trkpt><trkpt lat="43.884889180813616" lon="10.237884448109432"><ele>6.0</ele><time>2026-04-05T11:07:46.999Z</time></trkpt><trkpt lat="43.885001056962864" lon="10.237824241745649"><ele>6.25</ele><time>2026-04-05T11:07:48.999Z</time></trkpt><trkpt lat="43.885098056660105" lon="10.23775085541592"><ele>6.5</ele><time>2026-04-05T11:07:50.999Z</time></trkpt><trkpt lat="43.885207003593585" lon="10.237682021264266"><ele>6.75</ele><time>2026-04-05T11:07:52.999Z</time></trkpt><trkpt lat="43.88530639819834" lon="10.237617965657268"><ele>7.0</ele><time>2026-04-05T11:07:54.999Z</time></trkpt><trkpt lat="43.885408691603146" lon="10.237550145982691"><ele>7.0</ele><time>2026-04-05T11:07:56.999Z</time></trkpt><trkpt lat="43.88550898484563" lon="10.237477614147126"><ele>6.999999999999999</ele><time>2026-04-05T11:07:58.999Z</time></trkpt><trkpt lat="43.8856125636408" lon="10.237413884279851"><ele>6.999999999999999</ele><time>2026-04-05T11:08:00.999Z</time></trkpt><trkpt lat="43.885711852502816" lon="10.237341894171571"><ele>7.0</ele><time>2026-04-05T11:08:02.999Z</time></trkpt><trkpt lat="43.88576893656884" lon="10.237300690576532"><ele>7.0</ele><time>2026-04-05T11:08:03.999Z</time></trkpt><trkpt lat="43.88582989082438" lon="10.237259178014554"><ele>7.199999999999999</ele><time>2026-04-05T11:08:04.999Z</time></trkpt><trkpt lat="43.88594013962251" lon="10.237209911248877"><ele>7.3999999999999995</ele><time>2026-04-05T11:08:06.999Z</time></trkpt><trkpt lat="43.88603680685015" lon="10.237122455465757"><ele>7.6000000000000005</ele><time>2026-04-05T11:08:08.999Z</time></trkpt><trkpt lat="43.88613727299163" lon="10.237071486812274"><ele>7.800000000000001</ele><time>2026-04-05T11:08:10.998Z</time></trkpt><trkpt lat="43.88622440925907" lon="10.236998704593523"><ele>8.0</ele><time>2026-04-05T11:08:12.998Z</time></trkpt><trkpt lat="43.88630719386237" lon="10.236916213561193"><ele>8.0</ele><time>2026-04-05T11:08:14.998Z</time></trkpt><trkpt lat="43.88639024950228" lon="10.236853767506622"><ele>8.0</ele><time>2026-04-05T11:08:16.998Z</time></trkpt><trkpt lat="43.88648434583836" lon="10.236793614551148"><ele>8.0</ele><time>2026-04-05T11:08:18.998Z</time></trkpt><trkpt lat="43.88656708985915" lon="10.236732016551915"><ele>8.0</ele><time>2026-04-05T11:08:20.998Z</time></trkpt><trkpt lat="43.88664597328958" lon="10.236680853929666"><ele>8.0</ele><time>2026-04-05T11:08:22.998Z</time></trkpt><trkpt lat="43.88672163933258" lon="10.23662698702287"><ele>7.857142857142857</ele><time>2026-04-05T11:08:24.998Z</time></trkpt><trkpt lat="43.88677893581819" lon="10.236563446349598"><ele>7.7142857142857135</ele><time>2026-04-05T11:08:26.998Z</time></trkpt><trkpt lat="43.88682093717835" lon="10.23649759988012"><ele>7.571428571428571</ele><time>2026-04-05T11:08:28.998Z</time></trkpt><trkpt lat="43.886823828772556" lon="10.236402885688682"><ele>7.428571428571429</ele><time>2026-04-05T11:08:30.998Z</time></trkpt><trkpt lat="43.88681488099826" lon="10.236292556893838"><ele>7.285714285714286</ele><time>2026-04-05T11:08:37.998Z</time></trkpt><trkpt lat="43.88676594478147" lon="10.236199147563381"><ele>7.142857142857142</ele><time>2026-04-05T11:08:40.998Z</time></trkpt><trkpt lat="43.886741280134906" lon="10.236099910709465"><ele>7.0</ele><time>2026-04-05T11:08:42.998Z</time></trkpt><trkpt lat="43.886713534654454" lon="10.23599434745763"><ele>6.833333333333334</ele><time>2026-04-05T11:08:44.998Z</time></trkpt><trkpt lat="43.8866887778761" lon="10.235888693875973"><ele>6.666666666666667</ele><time>2026-04-05T11:08:46.998Z</time></trkpt><trkpt lat="43.88666408935686" lon="10.235781807302937"><ele>6.5</ele><time>2026-04-05T11:08:48.998Z</time></trkpt><trkpt lat="43.886737193781165" lon="10.235728713644077"><ele>6.333333333333334</ele><time>2026-04-05T11:08:50.998Z</time></trkpt><trkpt lat="43.886810096723444" lon="10.235659969354268"><ele>6.166666666666667</ele><time>2026-04-05T11:08:53Z</time></trkpt><trkpt lat="43.88689633549755" lon="10.235615358422889"><ele>6.0</ele><time>2026-04-05T11:08:55Z</time></trkpt><trkpt lat="43.88697748574585" lon="10.235543708226444"><ele>5.2</ele><time>2026-04-05T11:08:57Z</time></trkpt><trkpt lat="43.887064457061015" lon="10.235474569370217"><ele>4.3999999999999995</ele><time>2026-04-05T11:08:59Z</time></trkpt><trkpt lat="43.887157743907245" lon="10.235414586746867"><ele>3.6</ele><time>2026-04-05T11:09:01Z</time></trkpt><trkpt lat="43.88724365204946" lon="10.235360616918262"><ele>2.8</ele><time>2026-04-05T11:09:03Z</time></trkpt><trkpt lat="43.88731671389577" lon="10.235305783410148"><ele>2.0</ele><time>2026-04-05T11:09:05Z</time></trkpt><trkpt lat="43.887376179833936" lon="10.23525259894169"><ele>2.0</ele><time>2026-04-05T11:09:07Z</time></trkpt><trkpt lat="43.88743882983339" lon="10.235211862870962"><ele>2.0</ele><time>2026-04-05T11:09:09Z</time></trkpt><trkpt lat="43.88751502064" lon="10.235284540739393"><ele>2.0</ele><time>2026-04-05T11:09:12Z</time></trkpt><trkpt lat="43.88757039792874" lon="10.235361004793326"><ele>2.0</ele><time>2026-04-05T11:09:14Z</time></trkpt><trkpt lat="43.8876411030988" lon="10.235375988680667"><ele>4.0</ele><time>2026-04-05T11:09:16Z</time></trkpt><trkpt lat="43.8877067811023" lon="10.235417564613062"><ele>4.0</ele><time>2026-04-05T11:09:19Z</time></trkpt><trkpt lat="43.8877067811023" lon="10.235417564613062"><ele>4.0</ele><time>2026-04-05T11:09:19Z</time></trkpt><trkpt lat="43.8877067811023" lon="10.235417564613062"><ele>4.0</ele><time>2026-04-05T11:09:19Z</time></trkpt><trkpt lat="43.8877067811023" lon="10.235417564613062"><ele>4.0</ele><time>2026-04-05T11:09:19Z</time></trkpt><trkpt lat="43.8877067811023" lon="10.235417564613062"><ele>4.0</ele><time>2026-04-05T11:09:19Z</time></trkpt></trkseg></trk></gpx>